<?xml version="1.0" encoding="UTF-8" standalone="no" ?>
<gpx xmlns="http://www.topografix.com/GPX/1/1" xmlns:xsi="http://www.w3.org/2001/XMLSchema-instance" xsi:schemaLocation="http://www.topografix.com/GPX/1/1 http://www.topografix.com/GPX/1/1/gpx.xsd" version="1.1" creator="VisuGPX - https://www.visugpx.com">
  <metadata>
    <name>Boucle en 8 au départ de Laragne via Monetier Theze La Motte Du Caire</name>
    <desc><![CDATA[Boucle vallonnée avec un vent de face tout au long du parcours.   ]]></desc>
  </metadata>
  <trk>
    <name><![CDATA[Boucle en 8 au départ de Laragne via Monetier Theze La Motte Du Caire_1]]></name>
    <trkseg>
      <trkpt lat="44.31599" lon="5.8296">
        <ele>582</ele>
        <time>2019-04-02T10:53:10Z</time>
      </trkpt>
      <trkpt lat="44.31581" lon="5.82931">
        <ele>570</ele>
        <time>2019-04-02T10:53:59Z</time>
      </trkpt>
      <trkpt lat="44.31578" lon="5.82929">
        <ele>570</ele>
        <time>2019-04-02T10:54:00Z</time>
      </trkpt>
      <trkpt lat="44.31574" lon="5.82926">
        <ele>570</ele>
        <time>2019-04-02T10:54:01Z</time>
      </trkpt>
      <trkpt lat="44.3157" lon="5.82924">
        <ele>570</ele>
        <time>2019-04-02T10:54:02Z</time>
      </trkpt>
      <trkpt lat="44.31566" lon="5.82921">
        <ele>570</ele>
        <time>2019-04-02T10:54:03Z</time>
      </trkpt>
      <trkpt lat="44.31562" lon="5.82919">
        <ele>570</ele>
        <time>2019-04-02T10:54:04Z</time>
      </trkpt>
      <trkpt lat="44.31559" lon="5.82917">
        <ele>570</ele>
        <time>2019-04-02T10:54:05Z</time>
      </trkpt>
      <trkpt lat="44.31557" lon="5.82915">
        <ele>570</ele>
        <time>2019-04-02T10:54:06Z</time>
      </trkpt>
      <trkpt lat="44.31555" lon="5.82914">
        <ele>570</ele>
        <time>2019-04-02T10:54:07Z</time>
      </trkpt>
      <trkpt lat="44.31553" lon="5.82912">
        <ele>570</ele>
        <time>2019-04-02T10:54:08Z</time>
      </trkpt>
      <trkpt lat="44.31551" lon="5.8291">
        <ele>570</ele>
        <time>2019-04-02T10:54:09Z</time>
      </trkpt>
      <trkpt lat="44.31548" lon="5.82909">
        <ele>570</ele>
        <time>2019-04-02T10:54:09Z</time>
      </trkpt>
      <trkpt lat="44.31546" lon="5.82907">
        <ele>570</ele>
        <time>2019-04-02T10:54:11Z</time>
      </trkpt>
      <trkpt lat="44.31543" lon="5.82904">
        <ele>570</ele>
        <time>2019-04-02T10:54:12Z</time>
      </trkpt>
      <trkpt lat="44.3154" lon="5.82901">
        <ele>570</ele>
        <time>2019-04-02T10:54:13Z</time>
      </trkpt>
      <trkpt lat="44.31537" lon="5.82898">
        <ele>570</ele>
        <time>2019-04-02T10:54:14Z</time>
      </trkpt>
      <trkpt lat="44.31534" lon="5.82895">
        <ele>570</ele>
        <time>2019-04-02T10:54:15Z</time>
      </trkpt>
      <trkpt lat="44.31532" lon="5.82893">
        <ele>570</ele>
        <time>2019-04-02T10:54:16Z</time>
      </trkpt>
      <trkpt lat="44.3153" lon="5.8289">
        <ele>570</ele>
        <time>2019-04-02T10:54:17Z</time>
      </trkpt>
      <trkpt lat="44.31528" lon="5.82888">
        <ele>570</ele>
        <time>2019-04-02T10:54:18Z</time>
      </trkpt>
      <trkpt lat="44.31526" lon="5.82887">
        <ele>570</ele>
        <time>2019-04-02T10:54:19Z</time>
      </trkpt>
      <trkpt lat="44.31524" lon="5.82885">
        <ele>570</ele>
        <time>2019-04-02T10:54:20Z</time>
      </trkpt>
      <trkpt lat="44.31521" lon="5.82882">
        <ele>570</ele>
        <time>2019-04-02T10:54:21Z</time>
      </trkpt>
      <trkpt lat="44.31519" lon="5.8288">
        <ele>570</ele>
        <time>2019-04-02T10:54:22Z</time>
      </trkpt>
      <trkpt lat="44.31517" lon="5.82877">
        <ele>570</ele>
        <time>2019-04-02T10:54:23Z</time>
      </trkpt>
      <trkpt lat="44.31514" lon="5.82875">
        <ele>570</ele>
        <time>2019-04-02T10:54:24Z</time>
      </trkpt>
      <trkpt lat="44.31511" lon="5.82873">
        <ele>570</ele>
        <time>2019-04-02T10:54:25Z</time>
      </trkpt>
      <trkpt lat="44.31508" lon="5.82871">
        <ele>570</ele>
        <time>2019-04-02T10:54:26Z</time>
      </trkpt>
      <trkpt lat="44.31504" lon="5.82872">
        <ele>570</ele>
        <time>2019-04-02T10:54:27Z</time>
      </trkpt>
      <trkpt lat="44.31501" lon="5.82873">
        <ele>570</ele>
        <time>2019-04-02T10:54:28Z</time>
      </trkpt>
      <trkpt lat="44.31498" lon="5.82877">
        <ele>570</ele>
        <time>2019-04-02T10:54:29Z</time>
      </trkpt>
      <trkpt lat="44.31496" lon="5.8288">
        <ele>570</ele>
        <time>2019-04-02T10:54:30Z</time>
      </trkpt>
      <trkpt lat="44.31493" lon="5.82884">
        <ele>570</ele>
        <time>2019-04-02T10:54:31Z</time>
      </trkpt>
      <trkpt lat="44.31491" lon="5.82888">
        <ele>570</ele>
        <time>2019-04-02T10:54:32Z</time>
      </trkpt>
      <trkpt lat="44.31489" lon="5.82892">
        <ele>570</ele>
        <time>2019-04-02T10:54:33Z</time>
      </trkpt>
      <trkpt lat="44.31487" lon="5.82896">
        <ele>570</ele>
        <time>2019-04-02T10:54:34Z</time>
      </trkpt>
      <trkpt lat="44.31484" lon="5.82899">
        <ele>570</ele>
        <time>2019-04-02T10:54:35Z</time>
      </trkpt>
      <trkpt lat="44.31482" lon="5.82902">
        <ele>570</ele>
        <time>2019-04-02T10:54:36Z</time>
      </trkpt>
      <trkpt lat="44.3148" lon="5.82906">
        <ele>570</ele>
        <time>2019-04-02T10:54:36Z</time>
      </trkpt>
      <trkpt lat="44.31477" lon="5.82909">
        <ele>570</ele>
        <time>2019-04-02T10:54:37Z</time>
      </trkpt>
      <trkpt lat="44.31474" lon="5.82912">
        <ele>570</ele>
        <time>2019-04-02T10:54:39Z</time>
      </trkpt>
      <trkpt lat="44.31472" lon="5.82916">
        <ele>570</ele>
        <time>2019-04-02T10:54:40Z</time>
      </trkpt>
      <trkpt lat="44.31469" lon="5.8292">
        <ele>570</ele>
        <time>2019-04-02T10:54:41Z</time>
      </trkpt>
      <trkpt lat="44.31467" lon="5.82923">
        <ele>570</ele>
        <time>2019-04-02T10:54:42Z</time>
      </trkpt>
      <trkpt lat="44.31464" lon="5.82927">
        <ele>569</ele>
        <time>2019-04-02T10:54:43Z</time>
      </trkpt>
      <trkpt lat="44.31461" lon="5.82931">
        <ele>569</ele>
        <time>2019-04-02T10:54:44Z</time>
      </trkpt>
      <trkpt lat="44.31459" lon="5.82935">
        <ele>569</ele>
        <time>2019-04-02T10:54:45Z</time>
      </trkpt>
      <trkpt lat="44.31456" lon="5.82938">
        <ele>569</ele>
        <time>2019-04-02T10:54:46Z</time>
      </trkpt>
      <trkpt lat="44.31453" lon="5.82942">
        <ele>569</ele>
        <time>2019-04-02T10:54:47Z</time>
      </trkpt>
      <trkpt lat="44.3145" lon="5.82947">
        <ele>568</ele>
        <time>2019-04-02T10:54:48Z</time>
      </trkpt>
      <trkpt lat="44.31447" lon="5.82951">
        <ele>568</ele>
        <time>2019-04-02T10:54:49Z</time>
      </trkpt>
      <trkpt lat="44.31444" lon="5.82955">
        <ele>568</ele>
        <time>2019-04-02T10:54:50Z</time>
      </trkpt>
      <trkpt lat="44.31441" lon="5.82959">
        <ele>567</ele>
        <time>2019-04-02T10:54:51Z</time>
      </trkpt>
      <trkpt lat="44.31438" lon="5.82964">
        <ele>567</ele>
        <time>2019-04-02T10:54:52Z</time>
      </trkpt>
      <trkpt lat="44.31435" lon="5.82968">
        <ele>566</ele>
        <time>2019-04-02T10:54:53Z</time>
      </trkpt>
      <trkpt lat="44.31432" lon="5.82971">
        <ele>566</ele>
        <time>2019-04-02T10:54:54Z</time>
      </trkpt>
      <trkpt lat="44.31429" lon="5.82975">
        <ele>566</ele>
        <time>2019-04-02T10:54:55Z</time>
      </trkpt>
      <trkpt lat="44.31426" lon="5.8298">
        <ele>566</ele>
        <time>2019-04-02T10:54:56Z</time>
      </trkpt>
      <trkpt lat="44.31423" lon="5.82984">
        <ele>566</ele>
        <time>2019-04-02T10:54:57Z</time>
      </trkpt>
      <trkpt lat="44.31421" lon="5.82988">
        <ele>566</ele>
        <time>2019-04-02T10:54:58Z</time>
      </trkpt>
      <trkpt lat="44.31417" lon="5.82992">
        <ele>565</ele>
        <time>2019-04-02T10:54:59Z</time>
      </trkpt>
      <trkpt lat="44.31415" lon="5.82996">
        <ele>565</ele>
        <time>2019-04-02T10:55:00Z</time>
      </trkpt>
      <trkpt lat="44.31412" lon="5.83001">
        <ele>565</ele>
        <time>2019-04-02T10:55:01Z</time>
      </trkpt>
      <trkpt lat="44.31409" lon="5.83005">
        <ele>565</ele>
        <time>2019-04-02T10:55:02Z</time>
      </trkpt>
      <trkpt lat="44.31406" lon="5.83009">
        <ele>565</ele>
        <time>2019-04-02T10:55:02Z</time>
      </trkpt>
      <trkpt lat="44.31403" lon="5.83013">
        <ele>564</ele>
        <time>2019-04-02T10:55:04Z</time>
      </trkpt>
      <trkpt lat="44.314" lon="5.83017">
        <ele>564</ele>
        <time>2019-04-02T10:55:05Z</time>
      </trkpt>
      <trkpt lat="44.31398" lon="5.83021">
        <ele>564</ele>
        <time>2019-04-02T10:55:06Z</time>
      </trkpt>
      <trkpt lat="44.31395" lon="5.83025">
        <ele>564</ele>
        <time>2019-04-02T10:55:07Z</time>
      </trkpt>
      <trkpt lat="44.31391" lon="5.83029">
        <ele>563</ele>
        <time>2019-04-02T10:55:08Z</time>
      </trkpt>
      <trkpt lat="44.31388" lon="5.83033">
        <ele>563</ele>
        <time>2019-04-02T10:55:09Z</time>
      </trkpt>
      <trkpt lat="44.31385" lon="5.83037">
        <ele>563</ele>
        <time>2019-04-02T10:55:10Z</time>
      </trkpt>
      <trkpt lat="44.31383" lon="5.83041">
        <ele>563</ele>
        <time>2019-04-02T10:55:11Z</time>
      </trkpt>
      <trkpt lat="44.3138" lon="5.83045">
        <ele>563</ele>
        <time>2019-04-02T10:55:12Z</time>
      </trkpt>
      <trkpt lat="44.31377" lon="5.83049">
        <ele>563</ele>
        <time>2019-04-02T10:55:13Z</time>
      </trkpt>
      <trkpt lat="44.31375" lon="5.83053">
        <ele>563</ele>
        <time>2019-04-02T10:55:14Z</time>
      </trkpt>
      <trkpt lat="44.31373" lon="5.83057">
        <ele>563</ele>
        <time>2019-04-02T10:55:14Z</time>
      </trkpt>
      <trkpt lat="44.31371" lon="5.83062">
        <ele>563</ele>
        <time>2019-04-02T10:55:16Z</time>
      </trkpt>
      <trkpt lat="44.31369" lon="5.83066">
        <ele>562</ele>
        <time>2019-04-02T10:55:17Z</time>
      </trkpt>
      <trkpt lat="44.31367" lon="5.8307">
        <ele>562</ele>
        <time>2019-04-02T10:55:18Z</time>
      </trkpt>
      <trkpt lat="44.31365" lon="5.83075">
        <ele>562</ele>
        <time>2019-04-02T10:55:19Z</time>
      </trkpt>
      <trkpt lat="44.31364" lon="5.83079">
        <ele>562</ele>
        <time>2019-04-02T10:55:19Z</time>
      </trkpt>
      <trkpt lat="44.31362" lon="5.83084">
        <ele>562</ele>
        <time>2019-04-02T10:55:21Z</time>
      </trkpt>
      <trkpt lat="44.3136" lon="5.83089">
        <ele>562</ele>
        <time>2019-04-02T10:55:22Z</time>
      </trkpt>
      <trkpt lat="44.31358" lon="5.83093">
        <ele>562</ele>
        <time>2019-04-02T10:55:23Z</time>
      </trkpt>
      <trkpt lat="44.31356" lon="5.83096">
        <ele>562</ele>
        <time>2019-04-02T10:55:24Z</time>
      </trkpt>
      <trkpt lat="44.31354" lon="5.83098">
        <ele>562</ele>
        <time>2019-04-02T10:55:24Z</time>
      </trkpt>
      <trkpt lat="44.31352" lon="5.83098">
        <ele>562</ele>
        <time>2019-04-02T10:55:26Z</time>
      </trkpt>
      <trkpt lat="44.3135" lon="5.83098">
        <ele>562</ele>
        <time>2019-04-02T10:55:27Z</time>
      </trkpt>
      <trkpt lat="44.31349" lon="5.83096">
        <ele>562</ele>
        <time>2019-04-02T10:55:27Z</time>
      </trkpt>
      <trkpt lat="44.31347" lon="5.83094">
        <ele>562</ele>
        <time>2019-04-02T10:55:29Z</time>
      </trkpt>
      <trkpt lat="44.31346" lon="5.8309">
        <ele>562</ele>
        <time>2019-04-02T10:55:30Z</time>
      </trkpt>
      <trkpt lat="44.31346" lon="5.83086">
        <ele>562</ele>
        <time>2019-04-02T10:55:31Z</time>
      </trkpt>
      <trkpt lat="44.31346" lon="5.83081">
        <ele>562</ele>
        <time>2019-04-02T10:55:32Z</time>
      </trkpt>
      <trkpt lat="44.31347" lon="5.83076">
        <ele>562</ele>
        <time>2019-04-02T10:55:32Z</time>
      </trkpt>
      <trkpt lat="44.31347" lon="5.83071">
        <ele>562</ele>
        <time>2019-04-02T10:55:34Z</time>
      </trkpt>
      <trkpt lat="44.31348" lon="5.83066">
        <ele>562</ele>
        <time>2019-04-02T10:55:35Z</time>
      </trkpt>
      <trkpt lat="44.31349" lon="5.83061">
        <ele>562</ele>
        <time>2019-04-02T10:55:35Z</time>
      </trkpt>
      <trkpt lat="44.3135" lon="5.83055">
        <ele>562</ele>
        <time>2019-04-02T10:55:36Z</time>
      </trkpt>
      <trkpt lat="44.31351" lon="5.83049">
        <ele>562</ele>
        <time>2019-04-02T10:55:37Z</time>
      </trkpt>
      <trkpt lat="44.31353" lon="5.83043">
        <ele>562</ele>
        <time>2019-04-02T10:55:38Z</time>
      </trkpt>
      <trkpt lat="44.31354" lon="5.83038">
        <ele>562</ele>
        <time>2019-04-02T10:55:40Z</time>
      </trkpt>
      <trkpt lat="44.31355" lon="5.83032">
        <ele>562</ele>
        <time>2019-04-02T10:55:41Z</time>
      </trkpt>
      <trkpt lat="44.31356" lon="5.83026">
        <ele>562</ele>
        <time>2019-04-02T10:55:41Z</time>
      </trkpt>
      <trkpt lat="44.31357" lon="5.83019">
        <ele>562</ele>
        <time>2019-04-02T10:55:43Z</time>
      </trkpt>
      <trkpt lat="44.31358" lon="5.83013">
        <ele>562</ele>
        <time>2019-04-02T10:55:44Z</time>
      </trkpt>
      <trkpt lat="44.31359" lon="5.83006">
        <ele>562</ele>
        <time>2019-04-02T10:55:45Z</time>
      </trkpt>
      <trkpt lat="44.3136" lon="5.82999">
        <ele>562</ele>
        <time>2019-04-02T10:55:45Z</time>
      </trkpt>
      <trkpt lat="44.31361" lon="5.82992">
        <ele>562</ele>
        <time>2019-04-02T10:55:47Z</time>
      </trkpt>
      <trkpt lat="44.31361" lon="5.82984">
        <ele>562</ele>
        <time>2019-04-02T10:55:48Z</time>
      </trkpt>
      <trkpt lat="44.31362" lon="5.82977">
        <ele>562</ele>
        <time>2019-04-02T10:55:48Z</time>
      </trkpt>
      <trkpt lat="44.31363" lon="5.82969">
        <ele>562</ele>
        <time>2019-04-02T10:55:50Z</time>
      </trkpt>
      <trkpt lat="44.31364" lon="5.82961">
        <ele>562</ele>
        <time>2019-04-02T10:55:51Z</time>
      </trkpt>
      <trkpt lat="44.31366" lon="5.82952">
        <ele>562</ele>
        <time>2019-04-02T10:55:51Z</time>
      </trkpt>
      <trkpt lat="44.31367" lon="5.82944">
        <ele>562</ele>
        <time>2019-04-02T10:55:52Z</time>
      </trkpt>
      <trkpt lat="44.31368" lon="5.82936">
        <ele>562</ele>
        <time>2019-04-02T10:55:53Z</time>
      </trkpt>
      <trkpt lat="44.31369" lon="5.82927">
        <ele>562</ele>
        <time>2019-04-02T10:55:55Z</time>
      </trkpt>
      <trkpt lat="44.3137" lon="5.82919">
        <ele>562</ele>
        <time>2019-04-02T10:55:56Z</time>
      </trkpt>
      <trkpt lat="44.31371" lon="5.8291">
        <ele>562</ele>
        <time>2019-04-02T10:55:57Z</time>
      </trkpt>
      <trkpt lat="44.31372" lon="5.82902">
        <ele>562</ele>
        <time>2019-04-02T10:55:58Z</time>
      </trkpt>
      <trkpt lat="44.31373" lon="5.82893">
        <ele>562</ele>
        <time>2019-04-02T10:55:59Z</time>
      </trkpt>
      <trkpt lat="44.31374" lon="5.82885">
        <ele>562</ele>
        <time>2019-04-02T10:55:59Z</time>
      </trkpt>
      <trkpt lat="44.31375" lon="5.82876">
        <ele>562</ele>
        <time>2019-04-02T10:56:01Z</time>
      </trkpt>
      <trkpt lat="44.31376" lon="5.82867">
        <ele>562</ele>
        <time>2019-04-02T10:56:01Z</time>
      </trkpt>
      <trkpt lat="44.31376" lon="5.82859">
        <ele>562</ele>
        <time>2019-04-02T10:56:03Z</time>
      </trkpt>
      <trkpt lat="44.31377" lon="5.8285">
        <ele>562</ele>
        <time>2019-04-02T10:56:03Z</time>
      </trkpt>
      <trkpt lat="44.31377" lon="5.82842">
        <ele>562</ele>
        <time>2019-04-02T10:56:04Z</time>
      </trkpt>
      <trkpt lat="44.31378" lon="5.82833">
        <ele>562</ele>
        <time>2019-04-02T10:56:06Z</time>
      </trkpt>
      <trkpt lat="44.31379" lon="5.82825">
        <ele>562</ele>
        <time>2019-04-02T10:56:06Z</time>
      </trkpt>
      <trkpt lat="44.31379" lon="5.82818">
        <ele>562</ele>
        <time>2019-04-02T10:56:07Z</time>
      </trkpt>
      <trkpt lat="44.31379" lon="5.8281">
        <ele>562</ele>
        <time>2019-04-02T10:56:08Z</time>
      </trkpt>
      <trkpt lat="44.31379" lon="5.82802">
        <ele>562</ele>
        <time>2019-04-02T10:56:09Z</time>
      </trkpt>
      <trkpt lat="44.3138" lon="5.82796">
        <ele>562</ele>
        <time>2019-04-02T10:56:11Z</time>
      </trkpt>
      <trkpt lat="44.3138" lon="5.8279">
        <ele>562</ele>
        <time>2019-04-02T10:56:12Z</time>
      </trkpt>
      <trkpt lat="44.3138" lon="5.82785">
        <ele>562</ele>
        <time>2019-04-02T10:56:12Z</time>
      </trkpt>
      <trkpt lat="44.3138" lon="5.82779">
        <ele>562</ele>
        <time>2019-04-02T10:56:13Z</time>
      </trkpt>
      <trkpt lat="44.3138" lon="5.82775">
        <ele>562</ele>
        <time>2019-04-02T10:56:15Z</time>
      </trkpt>
      <trkpt lat="44.3138" lon="5.82771">
        <ele>562</ele>
        <time>2019-04-02T10:56:15Z</time>
      </trkpt>
      <trkpt lat="44.3138" lon="5.82767">
        <ele>562</ele>
        <time>2019-04-02T10:56:17Z</time>
      </trkpt>
      <trkpt lat="44.3138" lon="5.82762">
        <ele>562</ele>
        <time>2019-04-02T10:56:17Z</time>
      </trkpt>
      <trkpt lat="44.3138" lon="5.82759">
        <ele>562</ele>
        <time>2019-04-02T10:56:18Z</time>
      </trkpt>
      <trkpt lat="44.3138" lon="5.82753">
        <ele>562</ele>
        <time>2019-04-02T10:56:20Z</time>
      </trkpt>
      <trkpt lat="44.3138" lon="5.82747">
        <ele>562</ele>
        <time>2019-04-02T10:56:21Z</time>
      </trkpt>
      <trkpt lat="44.3138" lon="5.82741">
        <ele>562</ele>
        <time>2019-04-02T10:56:22Z</time>
      </trkpt>
      <trkpt lat="44.3138" lon="5.82734">
        <ele>562</ele>
        <time>2019-04-02T10:56:23Z</time>
      </trkpt>
      <trkpt lat="44.3138" lon="5.82728">
        <ele>562</ele>
        <time>2019-04-02T10:56:24Z</time>
      </trkpt>
      <trkpt lat="44.3138" lon="5.82722">
        <ele>562</ele>
        <time>2019-04-02T10:56:24Z</time>
      </trkpt>
      <trkpt lat="44.31379" lon="5.82716">
        <ele>562</ele>
        <time>2019-04-02T10:56:26Z</time>
      </trkpt>
      <trkpt lat="44.31379" lon="5.82709">
        <ele>562</ele>
        <time>2019-04-02T10:56:27Z</time>
      </trkpt>
      <trkpt lat="44.31378" lon="5.82704">
        <ele>562</ele>
        <time>2019-04-02T10:56:28Z</time>
      </trkpt>
      <trkpt lat="44.31377" lon="5.82699">
        <ele>562</ele>
        <time>2019-04-02T10:56:28Z</time>
      </trkpt>
      <trkpt lat="44.31376" lon="5.82694">
        <ele>562</ele>
        <time>2019-04-02T10:56:29Z</time>
      </trkpt>
      <trkpt lat="44.31373" lon="5.82691">
        <ele>562</ele>
        <time>2019-04-02T10:56:31Z</time>
      </trkpt>
      <trkpt lat="44.3137" lon="5.82688">
        <ele>562</ele>
        <time>2019-04-02T10:56:32Z</time>
      </trkpt>
      <trkpt lat="44.31367" lon="5.82685">
        <ele>562</ele>
        <time>2019-04-02T10:56:33Z</time>
      </trkpt>
      <trkpt lat="44.31364" lon="5.82682">
        <ele>562</ele>
        <time>2019-04-02T10:56:33Z</time>
      </trkpt>
      <trkpt lat="44.31359" lon="5.82679">
        <ele>562</ele>
        <time>2019-04-02T10:56:35Z</time>
      </trkpt>
      <trkpt lat="44.31355" lon="5.82677">
        <ele>562</ele>
        <time>2019-04-02T10:56:35Z</time>
      </trkpt>
      <trkpt lat="44.31351" lon="5.82675">
        <ele>562</ele>
        <time>2019-04-02T10:56:36Z</time>
      </trkpt>
      <trkpt lat="44.31347" lon="5.82672">
        <ele>562</ele>
        <time>2019-04-02T10:56:38Z</time>
      </trkpt>
      <trkpt lat="44.31342" lon="5.8267">
        <ele>562</ele>
        <time>2019-04-02T10:56:38Z</time>
      </trkpt>
      <trkpt lat="44.31337" lon="5.82668">
        <ele>562</ele>
        <time>2019-04-02T10:56:39Z</time>
      </trkpt>
      <trkpt lat="44.31333" lon="5.82666">
        <ele>562</ele>
        <time>2019-04-02T10:56:41Z</time>
      </trkpt>
      <trkpt lat="44.31328" lon="5.82663">
        <ele>562</ele>
        <time>2019-04-02T10:56:41Z</time>
      </trkpt>
      <trkpt lat="44.31323" lon="5.8266">
        <ele>562</ele>
        <time>2019-04-02T10:56:43Z</time>
      </trkpt>
      <trkpt lat="44.31317" lon="5.82656">
        <ele>562</ele>
        <time>2019-04-02T10:56:43Z</time>
      </trkpt>
      <trkpt lat="44.31311" lon="5.82652">
        <ele>562</ele>
        <time>2019-04-02T10:56:44Z</time>
      </trkpt>
      <trkpt lat="44.31304" lon="5.82648">
        <ele>562</ele>
        <time>2019-04-02T10:56:46Z</time>
      </trkpt>
      <trkpt lat="44.31297" lon="5.82643">
        <ele>562</ele>
        <time>2019-04-02T10:56:47Z</time>
      </trkpt>
      <trkpt lat="44.31289" lon="5.82638">
        <ele>562</ele>
        <time>2019-04-02T10:56:48Z</time>
      </trkpt>
      <trkpt lat="44.31282" lon="5.82633">
        <ele>562</ele>
        <time>2019-04-02T10:56:48Z</time>
      </trkpt>
      <trkpt lat="44.31274" lon="5.82628">
        <ele>562</ele>
        <time>2019-04-02T10:56:49Z</time>
      </trkpt>
      <trkpt lat="44.31265" lon="5.82624">
        <ele>562</ele>
        <time>2019-04-02T10:56:50Z</time>
      </trkpt>
      <trkpt lat="44.31257" lon="5.82619">
        <ele>562</ele>
        <time>2019-04-02T10:56:51Z</time>
      </trkpt>
      <trkpt lat="44.31249" lon="5.82614">
        <ele>562</ele>
        <time>2019-04-02T10:56:52Z</time>
      </trkpt>
      <trkpt lat="44.3124" lon="5.8261">
        <ele>561</ele>
        <time>2019-04-02T10:56:53Z</time>
      </trkpt>
      <trkpt lat="44.31232" lon="5.82605">
        <ele>561</ele>
        <time>2019-04-02T10:56:54Z</time>
      </trkpt>
      <trkpt lat="44.31224" lon="5.826">
        <ele>560</ele>
        <time>2019-04-02T10:56:55Z</time>
      </trkpt>
      <trkpt lat="44.31216" lon="5.82596">
        <ele>560</ele>
        <time>2019-04-02T10:56:56Z</time>
      </trkpt>
      <trkpt lat="44.31209" lon="5.82591">
        <ele>560</ele>
        <time>2019-04-02T10:56:58Z</time>
      </trkpt>
      <trkpt lat="44.31201" lon="5.82587">
        <ele>559</ele>
        <time>2019-04-02T10:56:58Z</time>
      </trkpt>
      <trkpt lat="44.31194" lon="5.82583">
        <ele>559</ele>
        <time>2019-04-02T10:56:59Z</time>
      </trkpt>
      <trkpt lat="44.31186" lon="5.82579">
        <ele>559</ele>
        <time>2019-04-02T10:57:00Z</time>
      </trkpt>
      <trkpt lat="44.31179" lon="5.82575">
        <ele>558</ele>
        <time>2019-04-02T10:57:01Z</time>
      </trkpt>
      <trkpt lat="44.31171" lon="5.82572">
        <ele>558</ele>
        <time>2019-04-02T10:57:03Z</time>
      </trkpt>
      <trkpt lat="44.31164" lon="5.82568">
        <ele>558</ele>
        <time>2019-04-02T10:57:03Z</time>
      </trkpt>
      <trkpt lat="44.31157" lon="5.82564">
        <ele>558</ele>
        <time>2019-04-02T10:57:04Z</time>
      </trkpt>
      <trkpt lat="44.31151" lon="5.8256">
        <ele>558</ele>
        <time>2019-04-02T10:57:05Z</time>
      </trkpt>
      <trkpt lat="44.31144" lon="5.82556">
        <ele>558</ele>
        <time>2019-04-02T10:57:06Z</time>
      </trkpt>
      <trkpt lat="44.31138" lon="5.82552">
        <ele>558</ele>
        <time>2019-04-02T10:57:08Z</time>
      </trkpt>
      <trkpt lat="44.31132" lon="5.82549">
        <ele>558</ele>
        <time>2019-04-02T10:57:08Z</time>
      </trkpt>
      <trkpt lat="44.31126" lon="5.82545">
        <ele>558</ele>
        <time>2019-04-02T10:57:09Z</time>
      </trkpt>
      <trkpt lat="44.3112" lon="5.82542">
        <ele>558</ele>
        <time>2019-04-02T10:57:11Z</time>
      </trkpt>
      <trkpt lat="44.31114" lon="5.82539">
        <ele>558</ele>
        <time>2019-04-02T10:57:11Z</time>
      </trkpt>
      <trkpt lat="44.31108" lon="5.82537">
        <ele>558</ele>
        <time>2019-04-02T10:57:13Z</time>
      </trkpt>
      <trkpt lat="44.31103" lon="5.82534">
        <ele>558</ele>
        <time>2019-04-02T10:57:13Z</time>
      </trkpt>
      <trkpt lat="44.31098" lon="5.8253">
        <ele>558</ele>
        <time>2019-04-02T10:57:14Z</time>
      </trkpt>
      <trkpt lat="44.31093" lon="5.82527">
        <ele>558</ele>
        <time>2019-04-02T10:57:15Z</time>
      </trkpt>
      <trkpt lat="44.31088" lon="5.82523">
        <ele>558</ele>
        <time>2019-04-02T10:57:16Z</time>
      </trkpt>
      <trkpt lat="44.31084" lon="5.82519">
        <ele>558</ele>
        <time>2019-04-02T10:57:17Z</time>
      </trkpt>
      <trkpt lat="44.3108" lon="5.82515">
        <ele>558</ele>
        <time>2019-04-02T10:57:18Z</time>
      </trkpt>
      <trkpt lat="44.31077" lon="5.8251">
        <ele>558</ele>
        <time>2019-04-02T10:57:19Z</time>
      </trkpt>
      <trkpt lat="44.31076" lon="5.82503">
        <ele>558</ele>
        <time>2019-04-02T10:57:20Z</time>
      </trkpt>
      <trkpt lat="44.31075" lon="5.82497">
        <ele>558</ele>
        <time>2019-04-02T10:57:21Z</time>
      </trkpt>
      <trkpt lat="44.31075" lon="5.8249">
        <ele>558</ele>
        <time>2019-04-02T10:57:23Z</time>
      </trkpt>
      <trkpt lat="44.31076" lon="5.82483">
        <ele>558</ele>
        <time>2019-04-02T10:57:23Z</time>
      </trkpt>
      <trkpt lat="44.31078" lon="5.82477">
        <ele>558</ele>
        <time>2019-04-02T10:57:24Z</time>
      </trkpt>
      <trkpt lat="44.3108" lon="5.82472">
        <ele>558</ele>
        <time>2019-04-02T10:57:25Z</time>
      </trkpt>
      <trkpt lat="44.31083" lon="5.82466">
        <ele>558</ele>
        <time>2019-04-02T10:57:26Z</time>
      </trkpt>
      <trkpt lat="44.31085" lon="5.82461">
        <ele>558</ele>
        <time>2019-04-02T10:57:28Z</time>
      </trkpt>
      <trkpt lat="44.31087" lon="5.82456">
        <ele>558</ele>
        <time>2019-04-02T10:57:28Z</time>
      </trkpt>
      <trkpt lat="44.31089" lon="5.82452">
        <ele>558</ele>
        <time>2019-04-02T10:57:29Z</time>
      </trkpt>
      <trkpt lat="44.31092" lon="5.82447">
        <ele>558</ele>
        <time>2019-04-02T10:57:30Z</time>
      </trkpt>
      <trkpt lat="44.31094" lon="5.82443">
        <ele>558</ele>
        <time>2019-04-02T10:57:31Z</time>
      </trkpt>
      <trkpt lat="44.31096" lon="5.82439">
        <ele>558</ele>
        <time>2019-04-02T10:57:33Z</time>
      </trkpt>
      <trkpt lat="44.31098" lon="5.82434">
        <ele>558</ele>
        <time>2019-04-02T10:57:33Z</time>
      </trkpt>
      <trkpt lat="44.31101" lon="5.82428">
        <ele>557</ele>
        <time>2019-04-02T10:57:34Z</time>
      </trkpt>
      <trkpt lat="44.31104" lon="5.82422">
        <ele>557</ele>
        <time>2019-04-02T10:57:35Z</time>
      </trkpt>
      <trkpt lat="44.31106" lon="5.82415">
        <ele>557</ele>
        <time>2019-04-02T10:57:36Z</time>
      </trkpt>
      <trkpt lat="44.31109" lon="5.82408">
        <ele>556</ele>
        <time>2019-04-02T10:57:38Z</time>
      </trkpt>
      <trkpt lat="44.3111" lon="5.82399">
        <ele>556</ele>
        <time>2019-04-02T10:57:38Z</time>
      </trkpt>
      <trkpt lat="44.31111" lon="5.8239">
        <ele>556</ele>
        <time>2019-04-02T10:57:39Z</time>
      </trkpt>
      <trkpt lat="44.31111" lon="5.82381">
        <ele>556</ele>
        <time>2019-04-02T10:57:41Z</time>
      </trkpt>
      <trkpt lat="44.31111" lon="5.82372">
        <ele>555</ele>
        <time>2019-04-02T10:57:41Z</time>
      </trkpt>
      <trkpt lat="44.31113" lon="5.82363">
        <ele>555</ele>
        <time>2019-04-02T10:57:43Z</time>
      </trkpt>
      <trkpt lat="44.31115" lon="5.82355">
        <ele>555</ele>
        <time>2019-04-02T10:57:43Z</time>
      </trkpt>
      <trkpt lat="44.31119" lon="5.82348">
        <ele>555</ele>
        <time>2019-04-02T10:57:44Z</time>
      </trkpt>
      <trkpt lat="44.31123" lon="5.82342">
        <ele>555</ele>
        <time>2019-04-02T10:57:45Z</time>
      </trkpt>
      <trkpt lat="44.31128" lon="5.82336">
        <ele>555</ele>
        <time>2019-04-02T10:57:46Z</time>
      </trkpt>
      <trkpt lat="44.31132" lon="5.8233">
        <ele>555</ele>
        <time>2019-04-02T10:57:48Z</time>
      </trkpt>
      <trkpt lat="44.31136" lon="5.82324">
        <ele>555</ele>
        <time>2019-04-02T10:57:48Z</time>
      </trkpt>
      <trkpt lat="44.3114" lon="5.82318">
        <ele>554</ele>
        <time>2019-04-02T10:57:49Z</time>
      </trkpt>
      <trkpt lat="44.31144" lon="5.82312">
        <ele>554</ele>
        <time>2019-04-02T10:57:50Z</time>
      </trkpt>
      <trkpt lat="44.31147" lon="5.82307">
        <ele>554</ele>
        <time>2019-04-02T10:57:51Z</time>
      </trkpt>
      <trkpt lat="44.31149" lon="5.82302">
        <ele>554</ele>
        <time>2019-04-02T10:57:53Z</time>
      </trkpt>
      <trkpt lat="44.3115" lon="5.82297">
        <ele>554</ele>
        <time>2019-04-02T10:57:53Z</time>
      </trkpt>
      <trkpt lat="44.31151" lon="5.82294">
        <ele>554</ele>
        <time>2019-04-02T10:57:54Z</time>
      </trkpt>
      <trkpt lat="44.31151" lon="5.8229">
        <ele>554</ele>
        <time>2019-04-02T10:57:55Z</time>
      </trkpt>
      <trkpt lat="44.31151" lon="5.82288">
        <ele>554</ele>
        <time>2019-04-02T10:57:56Z</time>
      </trkpt>
      <trkpt lat="44.31151" lon="5.82286">
        <ele>554</ele>
        <time>2019-04-02T10:57:59Z</time>
      </trkpt>
      <trkpt lat="44.3115" lon="5.82285">
        <ele>554</ele>
        <time>2019-04-02T10:58:04Z</time>
      </trkpt>
      <trkpt lat="44.31149" lon="5.82284">
        <ele>554</ele>
        <time>2019-04-02T10:58:09Z</time>
      </trkpt>
      <trkpt lat="44.31147" lon="5.82284">
        <ele>554</ele>
        <time>2019-04-02T10:58:11Z</time>
      </trkpt>
      <trkpt lat="44.31149" lon="5.82284">
        <ele>554</ele>
        <time>2019-04-02T10:58:20Z</time>
      </trkpt>
      <trkpt lat="44.3115" lon="5.82285">
        <ele>554</ele>
        <time>2019-04-02T10:58:24Z</time>
      </trkpt>
      <trkpt lat="44.31151" lon="5.82285">
        <ele>554</ele>
        <time>2019-04-02T10:58:30Z</time>
      </trkpt>
      <trkpt lat="44.31152" lon="5.82284">
        <ele>558</ele>
        <time>2019-04-02T10:59:00Z</time>
      </trkpt>
      <trkpt lat="44.31153" lon="5.82283">
        <ele>558</ele>
        <time>2019-04-02T10:59:05Z</time>
      </trkpt>
      <trkpt lat="44.31155" lon="5.82281">
        <ele>558</ele>
        <time>2019-04-02T10:59:11Z</time>
      </trkpt>
      <trkpt lat="44.31153" lon="5.82282">
        <ele>558</ele>
        <time>2019-04-02T10:59:26Z</time>
      </trkpt>
      <trkpt lat="44.31154" lon="5.82283">
        <ele>558</ele>
        <time>2019-04-02T10:59:35Z</time>
      </trkpt>
      <trkpt lat="44.31155" lon="5.82285">
        <ele>557</ele>
        <time>2019-04-02T10:59:39Z</time>
      </trkpt>
      <trkpt lat="44.31155" lon="5.82286">
        <ele>556</ele>
        <time>2019-04-02T10:59:49Z</time>
      </trkpt>
      <trkpt lat="44.31154" lon="5.82287">
        <ele>556</ele>
        <time>2019-04-02T11:00:02Z</time>
      </trkpt>
      <trkpt lat="44.31152" lon="5.82286">
        <ele>556</ele>
        <time>2019-04-02T11:00:08Z</time>
      </trkpt>
      <trkpt lat="44.31154" lon="5.82284">
        <ele>556</ele>
        <time>2019-04-02T11:00:12Z</time>
      </trkpt>
      <trkpt lat="44.31154" lon="5.82283">
        <ele>556</ele>
        <time>2019-04-02T11:00:22Z</time>
      </trkpt>
      <trkpt lat="44.31153" lon="5.82281">
        <ele>556</ele>
        <time>2019-04-02T11:00:25Z</time>
      </trkpt>
      <trkpt lat="44.31153" lon="5.8228">
        <ele>556</ele>
        <time>2019-04-02T11:00:30Z</time>
      </trkpt>
      <trkpt lat="44.31153" lon="5.82281">
        <ele>556</ele>
        <time>2019-04-02T11:01:16Z</time>
      </trkpt>
      <trkpt lat="44.31154" lon="5.8228">
        <ele>556</ele>
        <time>2019-04-02T11:01:34Z</time>
      </trkpt>
      <trkpt lat="44.31156" lon="5.82281">
        <ele>556</ele>
        <time>2019-04-02T11:01:36Z</time>
      </trkpt>
      <trkpt lat="44.31157" lon="5.82281">
        <ele>556</ele>
        <time>2019-04-02T11:01:37Z</time>
      </trkpt>
      <trkpt lat="44.31159" lon="5.82283">
        <ele>556</ele>
        <time>2019-04-02T11:01:39Z</time>
      </trkpt>
      <trkpt lat="44.3116" lon="5.82285">
        <ele>556</ele>
        <time>2019-04-02T11:01:40Z</time>
      </trkpt>
      <trkpt lat="44.31163" lon="5.82285">
        <ele>556</ele>
        <time>2019-04-02T11:01:41Z</time>
      </trkpt>
      <trkpt lat="44.31165" lon="5.82285">
        <ele>556</ele>
        <time>2019-04-02T11:01:42Z</time>
      </trkpt>
      <trkpt lat="44.31167" lon="5.82285">
        <ele>556</ele>
        <time>2019-04-02T11:01:43Z</time>
      </trkpt>
      <trkpt lat="44.3117" lon="5.82284">
        <ele>556</ele>
        <time>2019-04-02T11:01:44Z</time>
      </trkpt>
      <trkpt lat="44.31172" lon="5.82285">
        <ele>556</ele>
        <time>2019-04-02T11:01:45Z</time>
      </trkpt>
      <trkpt lat="44.31174" lon="5.82285">
        <ele>556</ele>
        <time>2019-04-02T11:01:46Z</time>
      </trkpt>
      <trkpt lat="44.31177" lon="5.82284">
        <ele>556</ele>
        <time>2019-04-02T11:01:47Z</time>
      </trkpt>
      <trkpt lat="44.3118" lon="5.82284">
        <ele>556</ele>
        <time>2019-04-02T11:01:48Z</time>
      </trkpt>
      <trkpt lat="44.31184" lon="5.82283">
        <ele>556</ele>
        <time>2019-04-02T11:01:49Z</time>
      </trkpt>
      <trkpt lat="44.31187" lon="5.82283">
        <ele>556</ele>
        <time>2019-04-02T11:01:50Z</time>
      </trkpt>
      <trkpt lat="44.31191" lon="5.82282">
        <ele>556</ele>
        <time>2019-04-02T11:01:51Z</time>
      </trkpt>
      <trkpt lat="44.31195" lon="5.82282">
        <ele>556</ele>
        <time>2019-04-02T11:01:52Z</time>
      </trkpt>
      <trkpt lat="44.31199" lon="5.82281">
        <ele>556</ele>
        <time>2019-04-02T11:01:53Z</time>
      </trkpt>
      <trkpt lat="44.31203" lon="5.8228">
        <ele>556</ele>
        <time>2019-04-02T11:01:54Z</time>
      </trkpt>
      <trkpt lat="44.31207" lon="5.82279">
        <ele>556</ele>
        <time>2019-04-02T11:01:55Z</time>
      </trkpt>
      <trkpt lat="44.31211" lon="5.82279">
        <ele>556</ele>
        <time>2019-04-02T11:01:56Z</time>
      </trkpt>
      <trkpt lat="44.31216" lon="5.82278">
        <ele>556</ele>
        <time>2019-04-02T11:01:57Z</time>
      </trkpt>
      <trkpt lat="44.3122" lon="5.82277">
        <ele>556</ele>
        <time>2019-04-02T11:01:58Z</time>
      </trkpt>
      <trkpt lat="44.31224" lon="5.82276">
        <ele>556</ele>
        <time>2019-04-02T11:01:59Z</time>
      </trkpt>
      <trkpt lat="44.31228" lon="5.82276">
        <ele>556</ele>
        <time>2019-04-02T11:02:00Z</time>
      </trkpt>
      <trkpt lat="44.31232" lon="5.82275">
        <ele>556</ele>
        <time>2019-04-02T11:02:01Z</time>
      </trkpt>
      <trkpt lat="44.31237" lon="5.82275">
        <ele>556</ele>
        <time>2019-04-02T11:02:02Z</time>
      </trkpt>
      <trkpt lat="44.31241" lon="5.82275">
        <ele>556</ele>
        <time>2019-04-02T11:02:03Z</time>
      </trkpt>
      <trkpt lat="44.31246" lon="5.82275">
        <ele>556</ele>
        <time>2019-04-02T11:02:05Z</time>
      </trkpt>
      <trkpt lat="44.3125" lon="5.82274">
        <ele>556</ele>
        <time>2019-04-02T11:02:05Z</time>
      </trkpt>
      <trkpt lat="44.31255" lon="5.82274">
        <ele>556</ele>
        <time>2019-04-02T11:02:07Z</time>
      </trkpt>
      <trkpt lat="44.31259" lon="5.82273">
        <ele>556</ele>
        <time>2019-04-02T11:02:07Z</time>
      </trkpt>
      <trkpt lat="44.31263" lon="5.82273">
        <ele>556</ele>
        <time>2019-04-02T11:02:08Z</time>
      </trkpt>
      <trkpt lat="44.31266" lon="5.82273">
        <ele>556</ele>
        <time>2019-04-02T11:02:10Z</time>
      </trkpt>
      <trkpt lat="44.3127" lon="5.82272">
        <ele>557</ele>
        <time>2019-04-02T11:02:11Z</time>
      </trkpt>
      <trkpt lat="44.31274" lon="5.82271">
        <ele>558</ele>
        <time>2019-04-02T11:02:11Z</time>
      </trkpt>
      <trkpt lat="44.31278" lon="5.8227">
        <ele>559</ele>
        <time>2019-04-02T11:02:12Z</time>
      </trkpt>
      <trkpt lat="44.31281" lon="5.82269">
        <ele>560</ele>
        <time>2019-04-02T11:02:13Z</time>
      </trkpt>
      <trkpt lat="44.31285" lon="5.82269">
        <ele>560</ele>
        <time>2019-04-02T11:02:15Z</time>
      </trkpt>
      <trkpt lat="44.31289" lon="5.82269">
        <ele>561</ele>
        <time>2019-04-02T11:02:15Z</time>
      </trkpt>
      <trkpt lat="44.31293" lon="5.82269">
        <ele>561</ele>
        <time>2019-04-02T11:02:16Z</time>
      </trkpt>
      <trkpt lat="44.31296" lon="5.8227">
        <ele>562</ele>
        <time>2019-04-02T11:02:17Z</time>
      </trkpt>
      <trkpt lat="44.31299" lon="5.82271">
        <ele>562</ele>
        <time>2019-04-02T11:02:18Z</time>
      </trkpt>
      <trkpt lat="44.31302" lon="5.82271">
        <ele>562</ele>
        <time>2019-04-02T11:02:20Z</time>
      </trkpt>
      <trkpt lat="44.31305" lon="5.82271">
        <ele>562</ele>
        <time>2019-04-02T11:02:20Z</time>
      </trkpt>
      <trkpt lat="44.31309" lon="5.82272">
        <ele>563</ele>
        <time>2019-04-02T11:02:21Z</time>
      </trkpt>
      <trkpt lat="44.31312" lon="5.82272">
        <ele>563</ele>
        <time>2019-04-02T11:02:22Z</time>
      </trkpt>
      <trkpt lat="44.31316" lon="5.82273">
        <ele>563</ele>
        <time>2019-04-02T11:02:23Z</time>
      </trkpt>
      <trkpt lat="44.31319" lon="5.82272">
        <ele>563</ele>
        <time>2019-04-02T11:02:24Z</time>
      </trkpt>
      <trkpt lat="44.31322" lon="5.82272">
        <ele>563</ele>
        <time>2019-04-02T11:02:25Z</time>
      </trkpt>
      <trkpt lat="44.31326" lon="5.82272">
        <ele>563</ele>
        <time>2019-04-02T11:02:26Z</time>
      </trkpt>
      <trkpt lat="44.31329" lon="5.82273">
        <ele>564</ele>
        <time>2019-04-02T11:02:27Z</time>
      </trkpt>
      <trkpt lat="44.31332" lon="5.82273">
        <ele>564</ele>
        <time>2019-04-02T11:02:28Z</time>
      </trkpt>
      <trkpt lat="44.31336" lon="5.82273">
        <ele>565</ele>
        <time>2019-04-02T11:02:30Z</time>
      </trkpt>
      <trkpt lat="44.31338" lon="5.82272">
        <ele>566</ele>
        <time>2019-04-02T11:02:30Z</time>
      </trkpt>
      <trkpt lat="44.3134" lon="5.82271">
        <ele>567</ele>
        <time>2019-04-02T11:02:31Z</time>
      </trkpt>
      <trkpt lat="44.31341" lon="5.8227">
        <ele>568</ele>
        <time>2019-04-02T11:02:32Z</time>
      </trkpt>
      <trkpt lat="44.31343" lon="5.8227">
        <ele>569</ele>
        <time>2019-04-02T11:02:33Z</time>
      </trkpt>
      <trkpt lat="44.31346" lon="5.82271">
        <ele>570</ele>
        <time>2019-04-02T11:02:35Z</time>
      </trkpt>
      <trkpt lat="44.31348" lon="5.82272">
        <ele>571</ele>
        <time>2019-04-02T11:02:35Z</time>
      </trkpt>
      <trkpt lat="44.3135" lon="5.82275">
        <ele>572</ele>
        <time>2019-04-02T11:02:36Z</time>
      </trkpt>
      <trkpt lat="44.31351" lon="5.82276">
        <ele>573</ele>
        <time>2019-04-02T11:02:37Z</time>
      </trkpt>
      <trkpt lat="44.31353" lon="5.82279">
        <ele>573</ele>
        <time>2019-04-02T11:02:38Z</time>
      </trkpt>
      <trkpt lat="44.31355" lon="5.8228">
        <ele>574</ele>
        <time>2019-04-02T11:02:39Z</time>
      </trkpt>
      <trkpt lat="44.31359" lon="5.82283">
        <ele>574</ele>
        <time>2019-04-02T11:02:40Z</time>
      </trkpt>
      <trkpt lat="44.31361" lon="5.82285">
        <ele>574</ele>
        <time>2019-04-02T11:02:41Z</time>
      </trkpt>
      <trkpt lat="44.31364" lon="5.82287">
        <ele>574</ele>
        <time>2019-04-02T11:02:42Z</time>
      </trkpt>
      <trkpt lat="44.31366" lon="5.82287">
        <ele>574</ele>
        <time>2019-04-02T11:02:43Z</time>
      </trkpt>
      <trkpt lat="44.31368" lon="5.82288">
        <ele>574</ele>
        <time>2019-04-02T11:02:44Z</time>
      </trkpt>
      <trkpt lat="44.31371" lon="5.8229">
        <ele>574</ele>
        <time>2019-04-02T11:02:45Z</time>
      </trkpt>
      <trkpt lat="44.31374" lon="5.82292">
        <ele>574</ele>
        <time>2019-04-02T11:02:46Z</time>
      </trkpt>
      <trkpt lat="44.31377" lon="5.82294">
        <ele>573</ele>
        <time>2019-04-02T11:02:47Z</time>
      </trkpt>
      <trkpt lat="44.3138" lon="5.82297">
        <ele>573</ele>
        <time>2019-04-02T11:02:48Z</time>
      </trkpt>
      <trkpt lat="44.31384" lon="5.82299">
        <ele>573</ele>
        <time>2019-04-02T11:02:50Z</time>
      </trkpt>
      <trkpt lat="44.3139" lon="5.82302">
        <ele>573</ele>
        <time>2019-04-02T11:02:50Z</time>
      </trkpt>
      <trkpt lat="44.31396" lon="5.82304">
        <ele>572</ele>
        <time>2019-04-02T11:02:51Z</time>
      </trkpt>
      <trkpt lat="44.314" lon="5.82307">
        <ele>572</ele>
        <time>2019-04-02T11:02:52Z</time>
      </trkpt>
      <trkpt lat="44.31404" lon="5.8231">
        <ele>572</ele>
        <time>2019-04-02T11:02:53Z</time>
      </trkpt>
      <trkpt lat="44.31409" lon="5.82312">
        <ele>571</ele>
        <time>2019-04-02T11:02:54Z</time>
      </trkpt>
      <trkpt lat="44.31413" lon="5.82312">
        <ele>571</ele>
        <time>2019-04-02T11:02:55Z</time>
      </trkpt>
      <trkpt lat="44.31416" lon="5.82313">
        <ele>571</ele>
        <time>2019-04-02T11:02:56Z</time>
      </trkpt>
      <trkpt lat="44.31419" lon="5.82317">
        <ele>571</ele>
        <time>2019-04-02T11:02:57Z</time>
      </trkpt>
      <trkpt lat="44.31422" lon="5.82321">
        <ele>571</ele>
        <time>2019-04-02T11:02:58Z</time>
      </trkpt>
      <trkpt lat="44.31425" lon="5.82326">
        <ele>571</ele>
        <time>2019-04-02T11:02:59Z</time>
      </trkpt>
      <trkpt lat="44.31429" lon="5.8233">
        <ele>571</ele>
        <time>2019-04-02T11:03:00Z</time>
      </trkpt>
      <trkpt lat="44.31431" lon="5.82335">
        <ele>570</ele>
        <time>2019-04-02T11:03:01Z</time>
      </trkpt>
      <trkpt lat="44.31433" lon="5.82339">
        <ele>569</ele>
        <time>2019-04-02T11:03:02Z</time>
      </trkpt>
      <trkpt lat="44.31435" lon="5.82343">
        <ele>568</ele>
        <time>2019-04-02T11:03:03Z</time>
      </trkpt>
      <trkpt lat="44.31437" lon="5.82345">
        <ele>567</ele>
        <time>2019-04-02T11:03:04Z</time>
      </trkpt>
      <trkpt lat="44.31439" lon="5.82348">
        <ele>567</ele>
        <time>2019-04-02T11:03:05Z</time>
      </trkpt>
      <trkpt lat="44.3144" lon="5.8235">
        <ele>566</ele>
        <time>2019-04-02T11:03:06Z</time>
      </trkpt>
      <trkpt lat="44.31442" lon="5.82351">
        <ele>566</ele>
        <time>2019-04-02T11:03:07Z</time>
      </trkpt>
      <trkpt lat="44.31444" lon="5.82352">
        <ele>565</ele>
        <time>2019-04-02T11:03:08Z</time>
      </trkpt>
      <trkpt lat="44.31444" lon="5.82354">
        <ele>564</ele>
        <time>2019-04-02T11:03:09Z</time>
      </trkpt>
      <trkpt lat="44.31444" lon="5.82357">
        <ele>563</ele>
        <time>2019-04-02T11:03:11Z</time>
      </trkpt>
      <trkpt lat="44.31445" lon="5.82359">
        <ele>563</ele>
        <time>2019-04-02T11:03:11Z</time>
      </trkpt>
      <trkpt lat="44.31445" lon="5.82361">
        <ele>562</ele>
        <time>2019-04-02T11:03:12Z</time>
      </trkpt>
      <trkpt lat="44.31447" lon="5.82363">
        <ele>562</ele>
        <time>2019-04-02T11:03:13Z</time>
      </trkpt>
      <trkpt lat="44.31449" lon="5.82365">
        <ele>562</ele>
        <time>2019-04-02T11:03:16Z</time>
      </trkpt>
      <trkpt lat="44.31451" lon="5.82366">
        <ele>562</ele>
        <time>2019-04-02T11:03:16Z</time>
      </trkpt>
      <trkpt lat="44.31452" lon="5.82366">
        <ele>562</ele>
        <time>2019-04-02T11:03:17Z</time>
      </trkpt>
      <trkpt lat="44.31454" lon="5.82368">
        <ele>562</ele>
        <time>2019-04-02T11:03:18Z</time>
      </trkpt>
      <trkpt lat="44.31457" lon="5.82369">
        <ele>562</ele>
        <time>2019-04-02T11:03:19Z</time>
      </trkpt>
      <trkpt lat="44.3146" lon="5.8237">
        <ele>562</ele>
        <time>2019-04-02T11:03:20Z</time>
      </trkpt>
      <trkpt lat="44.31464" lon="5.82372">
        <ele>562</ele>
        <time>2019-04-02T11:03:21Z</time>
      </trkpt>
      <trkpt lat="44.31467" lon="5.82375">
        <ele>562</ele>
        <time>2019-04-02T11:03:22Z</time>
      </trkpt>
      <trkpt lat="44.31469" lon="5.82378">
        <ele>562</ele>
        <time>2019-04-02T11:03:23Z</time>
      </trkpt>
      <trkpt lat="44.31473" lon="5.82382">
        <ele>561</ele>
        <time>2019-04-02T11:03:24Z</time>
      </trkpt>
      <trkpt lat="44.31477" lon="5.82384">
        <ele>561</ele>
        <time>2019-04-02T11:03:25Z</time>
      </trkpt>
      <trkpt lat="44.3148" lon="5.82388">
        <ele>560</ele>
        <time>2019-04-02T11:03:26Z</time>
      </trkpt>
      <trkpt lat="44.31484" lon="5.82392">
        <ele>559</ele>
        <time>2019-04-02T11:03:27Z</time>
      </trkpt>
      <trkpt lat="44.31488" lon="5.82397">
        <ele>559</ele>
        <time>2019-04-02T11:03:28Z</time>
      </trkpt>
      <trkpt lat="44.31492" lon="5.82401">
        <ele>558</ele>
        <time>2019-04-02T11:03:29Z</time>
      </trkpt>
      <trkpt lat="44.31497" lon="5.82406">
        <ele>557</ele>
        <time>2019-04-02T11:03:30Z</time>
      </trkpt>
      <trkpt lat="44.31501" lon="5.82411">
        <ele>557</ele>
        <time>2019-04-02T11:03:31Z</time>
      </trkpt>
      <trkpt lat="44.31506" lon="5.82415">
        <ele>556</ele>
        <time>2019-04-02T11:03:32Z</time>
      </trkpt>
      <trkpt lat="44.3151" lon="5.82421">
        <ele>555</ele>
        <time>2019-04-02T11:03:33Z</time>
      </trkpt>
      <trkpt lat="44.31517" lon="5.82425">
        <ele>555</ele>
        <time>2019-04-02T11:03:34Z</time>
      </trkpt>
      <trkpt lat="44.31523" lon="5.8243">
        <ele>554</ele>
        <time>2019-04-02T11:03:35Z</time>
      </trkpt>
      <trkpt lat="44.31529" lon="5.82432">
        <ele>553</ele>
        <time>2019-04-02T11:03:36Z</time>
      </trkpt>
      <trkpt lat="44.31532" lon="5.82439">
        <ele>552</ele>
        <time>2019-04-02T11:03:37Z</time>
      </trkpt>
      <trkpt lat="44.31536" lon="5.82444">
        <ele>551</ele>
        <time>2019-04-02T11:03:38Z</time>
      </trkpt>
      <trkpt lat="44.3154" lon="5.82449">
        <ele>551</ele>
        <time>2019-04-02T11:03:39Z</time>
      </trkpt>
      <trkpt lat="44.31545" lon="5.82454">
        <ele>551</ele>
        <time>2019-04-02T11:03:40Z</time>
      </trkpt>
      <trkpt lat="44.31549" lon="5.82459">
        <ele>551</ele>
        <time>2019-04-02T11:03:41Z</time>
      </trkpt>
      <trkpt lat="44.31553" lon="5.82466">
        <ele>551</ele>
        <time>2019-04-02T11:03:42Z</time>
      </trkpt>
      <trkpt lat="44.31556" lon="5.82472">
        <ele>551</ele>
        <time>2019-04-02T11:03:43Z</time>
      </trkpt>
      <trkpt lat="44.31559" lon="5.82477">
        <ele>551</ele>
        <time>2019-04-02T11:03:44Z</time>
      </trkpt>
      <trkpt lat="44.31563" lon="5.82481">
        <ele>551</ele>
        <time>2019-04-02T11:03:45Z</time>
      </trkpt>
      <trkpt lat="44.31567" lon="5.82486">
        <ele>551</ele>
        <time>2019-04-02T11:03:46Z</time>
      </trkpt>
      <trkpt lat="44.31571" lon="5.82491">
        <ele>551</ele>
        <time>2019-04-02T11:03:47Z</time>
      </trkpt>
      <trkpt lat="44.31575" lon="5.82496">
        <ele>551</ele>
        <time>2019-04-02T11:03:48Z</time>
      </trkpt>
      <trkpt lat="44.31579" lon="5.825">
        <ele>551</ele>
        <time>2019-04-02T11:03:49Z</time>
      </trkpt>
      <trkpt lat="44.31582" lon="5.82506">
        <ele>551</ele>
        <time>2019-04-02T11:03:50Z</time>
      </trkpt>
      <trkpt lat="44.31586" lon="5.82511">
        <ele>551</ele>
        <time>2019-04-02T11:03:51Z</time>
      </trkpt>
      <trkpt lat="44.3159" lon="5.82515">
        <ele>551</ele>
        <time>2019-04-02T11:03:52Z</time>
      </trkpt>
      <trkpt lat="44.31594" lon="5.8252">
        <ele>551</ele>
        <time>2019-04-02T11:03:53Z</time>
      </trkpt>
      <trkpt lat="44.31598" lon="5.82524">
        <ele>551</ele>
        <time>2019-04-02T11:03:54Z</time>
      </trkpt>
      <trkpt lat="44.31603" lon="5.82528">
        <ele>551</ele>
        <time>2019-04-02T11:03:56Z</time>
      </trkpt>
      <trkpt lat="44.31607" lon="5.82531">
        <ele>551</ele>
        <time>2019-04-02T11:03:56Z</time>
      </trkpt>
      <trkpt lat="44.3161" lon="5.82535">
        <ele>552</ele>
        <time>2019-04-02T11:03:57Z</time>
      </trkpt>
      <trkpt lat="44.31615" lon="5.82539">
        <ele>552</ele>
        <time>2019-04-02T11:03:58Z</time>
      </trkpt>
      <trkpt lat="44.31618" lon="5.82543">
        <ele>552</ele>
        <time>2019-04-02T11:03:59Z</time>
      </trkpt>
      <trkpt lat="44.31622" lon="5.82546">
        <ele>552</ele>
        <time>2019-04-02T11:04:00Z</time>
      </trkpt>
      <trkpt lat="44.31626" lon="5.82549">
        <ele>552</ele>
        <time>2019-04-02T11:04:01Z</time>
      </trkpt>
      <trkpt lat="44.31632" lon="5.82553">
        <ele>552</ele>
        <time>2019-04-02T11:04:02Z</time>
      </trkpt>
      <trkpt lat="44.31635" lon="5.82558">
        <ele>553</ele>
        <time>2019-04-02T11:04:03Z</time>
      </trkpt>
      <trkpt lat="44.31639" lon="5.82562">
        <ele>553</ele>
        <time>2019-04-02T11:04:04Z</time>
      </trkpt>
      <trkpt lat="44.31642" lon="5.82566">
        <ele>553</ele>
        <time>2019-04-02T11:04:05Z</time>
      </trkpt>
      <trkpt lat="44.31646" lon="5.82571">
        <ele>553</ele>
        <time>2019-04-02T11:04:06Z</time>
      </trkpt>
      <trkpt lat="44.3165" lon="5.82575">
        <ele>553</ele>
        <time>2019-04-02T11:04:07Z</time>
      </trkpt>
      <trkpt lat="44.31654" lon="5.8258">
        <ele>553</ele>
        <time>2019-04-02T11:04:08Z</time>
      </trkpt>
      <trkpt lat="44.31658" lon="5.82584">
        <ele>553</ele>
        <time>2019-04-02T11:04:09Z</time>
      </trkpt>
      <trkpt lat="44.31662" lon="5.82588">
        <ele>553</ele>
        <time>2019-04-02T11:04:11Z</time>
      </trkpt>
      <trkpt lat="44.31665" lon="5.82592">
        <ele>554</ele>
        <time>2019-04-02T11:04:11Z</time>
      </trkpt>
      <trkpt lat="44.31669" lon="5.82596">
        <ele>554</ele>
        <time>2019-04-02T11:04:12Z</time>
      </trkpt>
      <trkpt lat="44.31672" lon="5.826">
        <ele>554</ele>
        <time>2019-04-02T11:04:13Z</time>
      </trkpt>
      <trkpt lat="44.31676" lon="5.82604">
        <ele>554</ele>
        <time>2019-04-02T11:04:14Z</time>
      </trkpt>
      <trkpt lat="44.3168" lon="5.82608">
        <ele>554</ele>
        <time>2019-04-02T11:04:15Z</time>
      </trkpt>
      <trkpt lat="44.31684" lon="5.82612">
        <ele>555</ele>
        <time>2019-04-02T11:04:16Z</time>
      </trkpt>
      <trkpt lat="44.31687" lon="5.82616">
        <ele>555</ele>
        <time>2019-04-02T11:04:17Z</time>
      </trkpt>
      <trkpt lat="44.31691" lon="5.8262">
        <ele>555</ele>
        <time>2019-04-02T11:04:18Z</time>
      </trkpt>
      <trkpt lat="44.31695" lon="5.82624">
        <ele>555</ele>
        <time>2019-04-02T11:04:19Z</time>
      </trkpt>
      <trkpt lat="44.31698" lon="5.82627">
        <ele>555</ele>
        <time>2019-04-02T11:04:20Z</time>
      </trkpt>
      <trkpt lat="44.31702" lon="5.82631">
        <ele>555</ele>
        <time>2019-04-02T11:04:21Z</time>
      </trkpt>
      <trkpt lat="44.31706" lon="5.82635">
        <ele>555</ele>
        <time>2019-04-02T11:04:22Z</time>
      </trkpt>
      <trkpt lat="44.31709" lon="5.82639">
        <ele>555</ele>
        <time>2019-04-02T11:04:23Z</time>
      </trkpt>
      <trkpt lat="44.31713" lon="5.82643">
        <ele>555</ele>
        <time>2019-04-02T11:04:24Z</time>
      </trkpt>
      <trkpt lat="44.31717" lon="5.82647">
        <ele>556</ele>
        <time>2019-04-02T11:04:25Z</time>
      </trkpt>
      <trkpt lat="44.3172" lon="5.8265">
        <ele>556</ele>
        <time>2019-04-02T11:04:26Z</time>
      </trkpt>
      <trkpt lat="44.31724" lon="5.82654">
        <ele>556</ele>
        <time>2019-04-02T11:04:27Z</time>
      </trkpt>
      <trkpt lat="44.31728" lon="5.82658">
        <ele>556</ele>
        <time>2019-04-02T11:04:28Z</time>
      </trkpt>
      <trkpt lat="44.31731" lon="5.82662">
        <ele>556</ele>
        <time>2019-04-02T11:04:29Z</time>
      </trkpt>
      <trkpt lat="44.31735" lon="5.82665">
        <ele>556</ele>
        <time>2019-04-02T11:04:30Z</time>
      </trkpt>
      <trkpt lat="44.31739" lon="5.82669">
        <ele>556</ele>
        <time>2019-04-02T11:04:31Z</time>
      </trkpt>
      <trkpt lat="44.31742" lon="5.82673">
        <ele>556</ele>
        <time>2019-04-02T11:04:32Z</time>
      </trkpt>
      <trkpt lat="44.31746" lon="5.82677">
        <ele>556</ele>
        <time>2019-04-02T11:04:33Z</time>
      </trkpt>
      <trkpt lat="44.3175" lon="5.82681">
        <ele>556</ele>
        <time>2019-04-02T11:04:34Z</time>
      </trkpt>
      <trkpt lat="44.31754" lon="5.82685">
        <ele>556</ele>
        <time>2019-04-02T11:04:35Z</time>
      </trkpt>
      <trkpt lat="44.31758" lon="5.82689">
        <ele>556</ele>
        <time>2019-04-02T11:04:36Z</time>
      </trkpt>
      <trkpt lat="44.31762" lon="5.82692">
        <ele>556</ele>
        <time>2019-04-02T11:04:37Z</time>
      </trkpt>
      <trkpt lat="44.31766" lon="5.82697">
        <ele>556</ele>
        <time>2019-04-02T11:04:38Z</time>
      </trkpt>
      <trkpt lat="44.31769" lon="5.82701">
        <ele>556</ele>
        <time>2019-04-02T11:04:39Z</time>
      </trkpt>
      <trkpt lat="44.31772" lon="5.82705">
        <ele>556</ele>
        <time>2019-04-02T11:04:40Z</time>
      </trkpt>
      <trkpt lat="44.31776" lon="5.82709">
        <ele>556</ele>
        <time>2019-04-02T11:04:41Z</time>
      </trkpt>
      <trkpt lat="44.31779" lon="5.82713">
        <ele>556</ele>
        <time>2019-04-02T11:04:42Z</time>
      </trkpt>
      <trkpt lat="44.31783" lon="5.82717">
        <ele>556</ele>
        <time>2019-04-02T11:04:43Z</time>
      </trkpt>
      <trkpt lat="44.31787" lon="5.82721">
        <ele>556</ele>
        <time>2019-04-02T11:04:44Z</time>
      </trkpt>
      <trkpt lat="44.31791" lon="5.82725">
        <ele>556</ele>
        <time>2019-04-02T11:04:45Z</time>
      </trkpt>
      <trkpt lat="44.31795" lon="5.82729">
        <ele>556</ele>
        <time>2019-04-02T11:04:46Z</time>
      </trkpt>
      <trkpt lat="44.31799" lon="5.82733">
        <ele>556</ele>
        <time>2019-04-02T11:04:47Z</time>
      </trkpt>
      <trkpt lat="44.31802" lon="5.82737">
        <ele>556</ele>
        <time>2019-04-02T11:04:48Z</time>
      </trkpt>
      <trkpt lat="44.31806" lon="5.8274">
        <ele>556</ele>
        <time>2019-04-02T11:04:49Z</time>
      </trkpt>
      <trkpt lat="44.3181" lon="5.82744">
        <ele>556</ele>
        <time>2019-04-02T11:04:50Z</time>
      </trkpt>
      <trkpt lat="44.31814" lon="5.82748">
        <ele>556</ele>
        <time>2019-04-02T11:04:51Z</time>
      </trkpt>
      <trkpt lat="44.31818" lon="5.82752">
        <ele>556</ele>
        <time>2019-04-02T11:04:52Z</time>
      </trkpt>
      <trkpt lat="44.31823" lon="5.82755">
        <ele>556</ele>
        <time>2019-04-02T11:04:53Z</time>
      </trkpt>
      <trkpt lat="44.31827" lon="5.82758">
        <ele>556</ele>
        <time>2019-04-02T11:04:54Z</time>
      </trkpt>
      <trkpt lat="44.31832" lon="5.82761">
        <ele>556</ele>
        <time>2019-04-02T11:04:55Z</time>
      </trkpt>
      <trkpt lat="44.31837" lon="5.82763">
        <ele>556</ele>
        <time>2019-04-02T11:04:56Z</time>
      </trkpt>
      <trkpt lat="44.31842" lon="5.82766">
        <ele>556</ele>
        <time>2019-04-02T11:04:57Z</time>
      </trkpt>
      <trkpt lat="44.31846" lon="5.82768">
        <ele>556</ele>
        <time>2019-04-02T11:04:58Z</time>
      </trkpt>
      <trkpt lat="44.31851" lon="5.82771">
        <ele>556</ele>
        <time>2019-04-02T11:04:59Z</time>
      </trkpt>
      <trkpt lat="44.31856" lon="5.82773">
        <ele>556</ele>
        <time>2019-04-02T11:05:00Z</time>
      </trkpt>
      <trkpt lat="44.3186" lon="5.82774">
        <ele>556</ele>
        <time>2019-04-02T11:05:01Z</time>
      </trkpt>
      <trkpt lat="44.31865" lon="5.82776">
        <ele>556</ele>
        <time>2019-04-02T11:05:02Z</time>
      </trkpt>
      <trkpt lat="44.3187" lon="5.82776">
        <ele>556</ele>
        <time>2019-04-02T11:05:03Z</time>
      </trkpt>
      <trkpt lat="44.31875" lon="5.82777">
        <ele>556</ele>
        <time>2019-04-02T11:05:04Z</time>
      </trkpt>
      <trkpt lat="44.31881" lon="5.82778">
        <ele>556</ele>
        <time>2019-04-02T11:05:05Z</time>
      </trkpt>
      <trkpt lat="44.31886" lon="5.82778">
        <ele>556</ele>
        <time>2019-04-02T11:05:06Z</time>
      </trkpt>
      <trkpt lat="44.31891" lon="5.82778">
        <ele>556</ele>
        <time>2019-04-02T11:05:07Z</time>
      </trkpt>
      <trkpt lat="44.31896" lon="5.82779">
        <ele>556</ele>
        <time>2019-04-02T11:05:08Z</time>
      </trkpt>
      <trkpt lat="44.31902" lon="5.82779">
        <ele>556</ele>
        <time>2019-04-02T11:05:09Z</time>
      </trkpt>
      <trkpt lat="44.31907" lon="5.8278">
        <ele>556</ele>
        <time>2019-04-02T11:05:11Z</time>
      </trkpt>
      <trkpt lat="44.31912" lon="5.8278">
        <ele>556</ele>
        <time>2019-04-02T11:05:11Z</time>
      </trkpt>
      <trkpt lat="44.31916" lon="5.82781">
        <ele>556</ele>
        <time>2019-04-02T11:05:12Z</time>
      </trkpt>
      <trkpt lat="44.31921" lon="5.8278">
        <ele>556</ele>
        <time>2019-04-02T11:05:13Z</time>
      </trkpt>
      <trkpt lat="44.31926" lon="5.82781">
        <ele>557</ele>
        <time>2019-04-02T11:05:14Z</time>
      </trkpt>
      <trkpt lat="44.31931" lon="5.82781">
        <ele>557</ele>
        <time>2019-04-02T11:05:15Z</time>
      </trkpt>
      <trkpt lat="44.31936" lon="5.82782">
        <ele>557</ele>
        <time>2019-04-02T11:05:16Z</time>
      </trkpt>
      <trkpt lat="44.31941" lon="5.82783">
        <ele>558</ele>
        <time>2019-04-02T11:05:17Z</time>
      </trkpt>
      <trkpt lat="44.31945" lon="5.82784">
        <ele>558</ele>
        <time>2019-04-02T11:05:18Z</time>
      </trkpt>
      <trkpt lat="44.3195" lon="5.82785">
        <ele>558</ele>
        <time>2019-04-02T11:05:19Z</time>
      </trkpt>
      <trkpt lat="44.31955" lon="5.82786">
        <ele>558</ele>
        <time>2019-04-02T11:05:20Z</time>
      </trkpt>
      <trkpt lat="44.3196" lon="5.82787">
        <ele>559</ele>
        <time>2019-04-02T11:05:21Z</time>
      </trkpt>
      <trkpt lat="44.31964" lon="5.82789">
        <ele>559</ele>
        <time>2019-04-02T11:05:22Z</time>
      </trkpt>
      <trkpt lat="44.31969" lon="5.8279">
        <ele>559</ele>
        <time>2019-04-02T11:05:23Z</time>
      </trkpt>
      <trkpt lat="44.31974" lon="5.82792">
        <ele>559</ele>
        <time>2019-04-02T11:05:24Z</time>
      </trkpt>
      <trkpt lat="44.31979" lon="5.82794">
        <ele>559</ele>
        <time>2019-04-02T11:05:25Z</time>
      </trkpt>
      <trkpt lat="44.31983" lon="5.82795">
        <ele>559</ele>
        <time>2019-04-02T11:05:26Z</time>
      </trkpt>
      <trkpt lat="44.31988" lon="5.82797">
        <ele>559</ele>
        <time>2019-04-02T11:05:27Z</time>
      </trkpt>
      <trkpt lat="44.31992" lon="5.82798">
        <ele>559</ele>
        <time>2019-04-02T11:05:28Z</time>
      </trkpt>
      <trkpt lat="44.31996" lon="5.828">
        <ele>559</ele>
        <time>2019-04-02T11:05:29Z</time>
      </trkpt>
      <trkpt lat="44.32" lon="5.82802">
        <ele>559</ele>
        <time>2019-04-02T11:05:30Z</time>
      </trkpt>
      <trkpt lat="44.32004" lon="5.82804">
        <ele>559</ele>
        <time>2019-04-02T11:05:31Z</time>
      </trkpt>
      <trkpt lat="44.32008" lon="5.82805">
        <ele>559</ele>
        <time>2019-04-02T11:05:32Z</time>
      </trkpt>
      <trkpt lat="44.32013" lon="5.82807">
        <ele>559</ele>
        <time>2019-04-02T11:05:33Z</time>
      </trkpt>
      <trkpt lat="44.32017" lon="5.82809">
        <ele>559</ele>
        <time>2019-04-02T11:05:34Z</time>
      </trkpt>
      <trkpt lat="44.32021" lon="5.82811">
        <ele>559</ele>
        <time>2019-04-02T11:05:35Z</time>
      </trkpt>
      <trkpt lat="44.32025" lon="5.82813">
        <ele>559</ele>
        <time>2019-04-02T11:05:36Z</time>
      </trkpt>
      <trkpt lat="44.32029" lon="5.82815">
        <ele>559</ele>
        <time>2019-04-02T11:05:37Z</time>
      </trkpt>
      <trkpt lat="44.32033" lon="5.82818">
        <ele>559</ele>
        <time>2019-04-02T11:05:38Z</time>
      </trkpt>
      <trkpt lat="44.32037" lon="5.8282">
        <ele>559</ele>
        <time>2019-04-02T11:05:39Z</time>
      </trkpt>
      <trkpt lat="44.3204" lon="5.82823">
        <ele>559</ele>
        <time>2019-04-02T11:05:40Z</time>
      </trkpt>
      <trkpt lat="44.32044" lon="5.82826">
        <ele>559</ele>
        <time>2019-04-02T11:05:41Z</time>
      </trkpt>
      <trkpt lat="44.32048" lon="5.82828">
        <ele>559</ele>
        <time>2019-04-02T11:05:42Z</time>
      </trkpt>
      <trkpt lat="44.32051" lon="5.8283">
        <ele>560</ele>
        <time>2019-04-02T11:05:43Z</time>
      </trkpt>
      <trkpt lat="44.32055" lon="5.82833">
        <ele>560</ele>
        <time>2019-04-02T11:05:44Z</time>
      </trkpt>
      <trkpt lat="44.32058" lon="5.82836">
        <ele>560</ele>
        <time>2019-04-02T11:05:45Z</time>
      </trkpt>
      <trkpt lat="44.32061" lon="5.82839">
        <ele>560</ele>
        <time>2019-04-02T11:05:46Z</time>
      </trkpt>
      <trkpt lat="44.32064" lon="5.82841">
        <ele>560</ele>
        <time>2019-04-02T11:05:47Z</time>
      </trkpt>
      <trkpt lat="44.32068" lon="5.82843">
        <ele>560</ele>
        <time>2019-04-02T11:05:48Z</time>
      </trkpt>
      <trkpt lat="44.32071" lon="5.82846">
        <ele>561</ele>
        <time>2019-04-02T11:05:49Z</time>
      </trkpt>
      <trkpt lat="44.32074" lon="5.82848">
        <ele>561</ele>
        <time>2019-04-02T11:05:50Z</time>
      </trkpt>
      <trkpt lat="44.32078" lon="5.8285">
        <ele>561</ele>
        <time>2019-04-02T11:05:51Z</time>
      </trkpt>
      <trkpt lat="44.32082" lon="5.82852">
        <ele>561</ele>
        <time>2019-04-02T11:05:52Z</time>
      </trkpt>
      <trkpt lat="44.32086" lon="5.82853">
        <ele>562</ele>
        <time>2019-04-02T11:05:53Z</time>
      </trkpt>
      <trkpt lat="44.3209" lon="5.82855">
        <ele>562</ele>
        <time>2019-04-02T11:05:54Z</time>
      </trkpt>
      <trkpt lat="44.32093" lon="5.82857">
        <ele>562</ele>
        <time>2019-04-02T11:05:55Z</time>
      </trkpt>
      <trkpt lat="44.32098" lon="5.82859">
        <ele>562</ele>
        <time>2019-04-02T11:05:56Z</time>
      </trkpt>
      <trkpt lat="44.32103" lon="5.8286">
        <ele>562</ele>
        <time>2019-04-02T11:05:58Z</time>
      </trkpt>
      <trkpt lat="44.32106" lon="5.82862">
        <ele>563</ele>
        <time>2019-04-02T11:05:58Z</time>
      </trkpt>
      <trkpt lat="44.32111" lon="5.82863">
        <ele>564</ele>
        <time>2019-04-02T11:05:59Z</time>
      </trkpt>
      <trkpt lat="44.32114" lon="5.82864">
        <ele>565</ele>
        <time>2019-04-02T11:06:00Z</time>
      </trkpt>
      <trkpt lat="44.32118" lon="5.82866">
        <ele>565</ele>
        <time>2019-04-02T11:06:01Z</time>
      </trkpt>
      <trkpt lat="44.32122" lon="5.82867">
        <ele>566</ele>
        <time>2019-04-02T11:06:02Z</time>
      </trkpt>
      <trkpt lat="44.32127" lon="5.82867">
        <ele>567</ele>
        <time>2019-04-02T11:06:03Z</time>
      </trkpt>
      <trkpt lat="44.32133" lon="5.82868">
        <ele>567</ele>
        <time>2019-04-02T11:06:04Z</time>
      </trkpt>
      <trkpt lat="44.32139" lon="5.82869">
        <ele>567</ele>
        <time>2019-04-02T11:06:05Z</time>
      </trkpt>
      <trkpt lat="44.32143" lon="5.8287">
        <ele>568</ele>
        <time>2019-04-02T11:06:06Z</time>
      </trkpt>
      <trkpt lat="44.32148" lon="5.82872">
        <ele>568</ele>
        <time>2019-04-02T11:06:07Z</time>
      </trkpt>
      <trkpt lat="44.32153" lon="5.82873">
        <ele>568</ele>
        <time>2019-04-02T11:06:08Z</time>
      </trkpt>
      <trkpt lat="44.32157" lon="5.82876">
        <ele>568</ele>
        <time>2019-04-02T11:06:09Z</time>
      </trkpt>
      <trkpt lat="44.32162" lon="5.82878">
        <ele>568</ele>
        <time>2019-04-02T11:06:11Z</time>
      </trkpt>
      <trkpt lat="44.32166" lon="5.8288">
        <ele>569</ele>
        <time>2019-04-02T11:06:11Z</time>
      </trkpt>
      <trkpt lat="44.3217" lon="5.82883">
        <ele>569</ele>
        <time>2019-04-02T11:06:12Z</time>
      </trkpt>
      <trkpt lat="44.32175" lon="5.82886">
        <ele>569</ele>
        <time>2019-04-02T11:06:13Z</time>
      </trkpt>
      <trkpt lat="44.32179" lon="5.82888">
        <ele>569</ele>
        <time>2019-04-02T11:06:14Z</time>
      </trkpt>
      <trkpt lat="44.32184" lon="5.8289">
        <ele>569</ele>
        <time>2019-04-02T11:06:15Z</time>
      </trkpt>
      <trkpt lat="44.32188" lon="5.82893">
        <ele>570</ele>
        <time>2019-04-02T11:06:16Z</time>
      </trkpt>
      <trkpt lat="44.32193" lon="5.82896">
        <ele>570</ele>
        <time>2019-04-02T11:06:17Z</time>
      </trkpt>
      <trkpt lat="44.32198" lon="5.82898">
        <ele>570</ele>
        <time>2019-04-02T11:06:18Z</time>
      </trkpt>
      <trkpt lat="44.32202" lon="5.82901">
        <ele>570</ele>
        <time>2019-04-02T11:06:19Z</time>
      </trkpt>
      <trkpt lat="44.32207" lon="5.82903">
        <ele>570</ele>
        <time>2019-04-02T11:06:20Z</time>
      </trkpt>
      <trkpt lat="44.32211" lon="5.82906">
        <ele>570</ele>
        <time>2019-04-02T11:06:21Z</time>
      </trkpt>
      <trkpt lat="44.32216" lon="5.82909">
        <ele>570</ele>
        <time>2019-04-02T11:06:22Z</time>
      </trkpt>
      <trkpt lat="44.32221" lon="5.82912">
        <ele>570</ele>
        <time>2019-04-02T11:06:23Z</time>
      </trkpt>
      <trkpt lat="44.32226" lon="5.82914">
        <ele>570</ele>
        <time>2019-04-02T11:06:24Z</time>
      </trkpt>
      <trkpt lat="44.32231" lon="5.82917">
        <ele>570</ele>
        <time>2019-04-02T11:06:25Z</time>
      </trkpt>
      <trkpt lat="44.32236" lon="5.82919">
        <ele>570</ele>
        <time>2019-04-02T11:06:26Z</time>
      </trkpt>
      <trkpt lat="44.32241" lon="5.82922">
        <ele>571</ele>
        <time>2019-04-02T11:06:27Z</time>
      </trkpt>
      <trkpt lat="44.32245" lon="5.82925">
        <ele>571</ele>
        <time>2019-04-02T11:06:28Z</time>
      </trkpt>
      <trkpt lat="44.3225" lon="5.82927">
        <ele>571</ele>
        <time>2019-04-02T11:06:29Z</time>
      </trkpt>
      <trkpt lat="44.32255" lon="5.82929">
        <ele>571</ele>
        <time>2019-04-02T11:06:30Z</time>
      </trkpt>
      <trkpt lat="44.32259" lon="5.82932">
        <ele>571</ele>
        <time>2019-04-02T11:06:31Z</time>
      </trkpt>
      <trkpt lat="44.32264" lon="5.82934">
        <ele>571</ele>
        <time>2019-04-02T11:06:32Z</time>
      </trkpt>
      <trkpt lat="44.32269" lon="5.82936">
        <ele>571</ele>
        <time>2019-04-02T11:06:33Z</time>
      </trkpt>
      <trkpt lat="44.32273" lon="5.82938">
        <ele>571</ele>
        <time>2019-04-02T11:06:34Z</time>
      </trkpt>
      <trkpt lat="44.32278" lon="5.8294">
        <ele>571</ele>
        <time>2019-04-02T11:06:35Z</time>
      </trkpt>
      <trkpt lat="44.32282" lon="5.82943">
        <ele>571</ele>
        <time>2019-04-02T11:06:36Z</time>
      </trkpt>
      <trkpt lat="44.32286" lon="5.82945">
        <ele>572</ele>
        <time>2019-04-02T11:06:37Z</time>
      </trkpt>
      <trkpt lat="44.32291" lon="5.82947">
        <ele>572</ele>
        <time>2019-04-02T11:06:38Z</time>
      </trkpt>
      <trkpt lat="44.32295" lon="5.8295">
        <ele>572</ele>
        <time>2019-04-02T11:06:39Z</time>
      </trkpt>
      <trkpt lat="44.323" lon="5.82952">
        <ele>572</ele>
        <time>2019-04-02T11:06:40Z</time>
      </trkpt>
      <trkpt lat="44.32304" lon="5.82954">
        <ele>572</ele>
        <time>2019-04-02T11:06:41Z</time>
      </trkpt>
      <trkpt lat="44.32311" lon="5.82956">
        <ele>572</ele>
        <time>2019-04-02T11:06:42Z</time>
      </trkpt>
      <trkpt lat="44.32315" lon="5.82958">
        <ele>572</ele>
        <time>2019-04-02T11:06:43Z</time>
      </trkpt>
      <trkpt lat="44.3232" lon="5.8296">
        <ele>572</ele>
        <time>2019-04-02T11:06:44Z</time>
      </trkpt>
      <trkpt lat="44.32324" lon="5.82963">
        <ele>572</ele>
        <time>2019-04-02T11:06:45Z</time>
      </trkpt>
      <trkpt lat="44.32328" lon="5.82965">
        <ele>572</ele>
        <time>2019-04-02T11:06:46Z</time>
      </trkpt>
      <trkpt lat="44.32332" lon="5.82968">
        <ele>572</ele>
        <time>2019-04-02T11:06:47Z</time>
      </trkpt>
      <trkpt lat="44.32336" lon="5.8297">
        <ele>572</ele>
        <time>2019-04-02T11:06:48Z</time>
      </trkpt>
      <trkpt lat="44.32341" lon="5.82973">
        <ele>572</ele>
        <time>2019-04-02T11:06:49Z</time>
      </trkpt>
      <trkpt lat="44.32346" lon="5.82975">
        <ele>572</ele>
        <time>2019-04-02T11:06:50Z</time>
      </trkpt>
      <trkpt lat="44.32351" lon="5.82979">
        <ele>572</ele>
        <time>2019-04-02T11:06:51Z</time>
      </trkpt>
      <trkpt lat="44.32355" lon="5.82982">
        <ele>572</ele>
        <time>2019-04-02T11:06:52Z</time>
      </trkpt>
      <trkpt lat="44.32358" lon="5.82987">
        <ele>572</ele>
        <time>2019-04-02T11:06:53Z</time>
      </trkpt>
      <trkpt lat="44.32361" lon="5.82992">
        <ele>572</ele>
        <time>2019-04-02T11:06:54Z</time>
      </trkpt>
      <trkpt lat="44.32364" lon="5.82997">
        <ele>572</ele>
        <time>2019-04-02T11:06:55Z</time>
      </trkpt>
      <trkpt lat="44.32367" lon="5.83003">
        <ele>572</ele>
        <time>2019-04-02T11:06:56Z</time>
      </trkpt>
      <trkpt lat="44.3237" lon="5.83009">
        <ele>572</ele>
        <time>2019-04-02T11:06:57Z</time>
      </trkpt>
      <trkpt lat="44.32372" lon="5.83015">
        <ele>572</ele>
        <time>2019-04-02T11:06:58Z</time>
      </trkpt>
      <trkpt lat="44.32373" lon="5.83022">
        <ele>572</ele>
        <time>2019-04-02T11:06:59Z</time>
      </trkpt>
      <trkpt lat="44.32375" lon="5.83029">
        <ele>572</ele>
        <time>2019-04-02T11:07:00Z</time>
      </trkpt>
      <trkpt lat="44.32377" lon="5.83036">
        <ele>572</ele>
        <time>2019-04-02T11:07:01Z</time>
      </trkpt>
      <trkpt lat="44.32378" lon="5.83043">
        <ele>572</ele>
        <time>2019-04-02T11:07:02Z</time>
      </trkpt>
      <trkpt lat="44.32381" lon="5.83051">
        <ele>572</ele>
        <time>2019-04-02T11:07:03Z</time>
      </trkpt>
      <trkpt lat="44.32383" lon="5.83058">
        <ele>572</ele>
        <time>2019-04-02T11:07:04Z</time>
      </trkpt>
      <trkpt lat="44.32385" lon="5.83066">
        <ele>572</ele>
        <time>2019-04-02T11:07:05Z</time>
      </trkpt>
      <trkpt lat="44.32388" lon="5.83074">
        <ele>572</ele>
        <time>2019-04-02T11:07:06Z</time>
      </trkpt>
      <trkpt lat="44.32392" lon="5.83081">
        <ele>572</ele>
        <time>2019-04-02T11:07:07Z</time>
      </trkpt>
      <trkpt lat="44.32395" lon="5.83088">
        <ele>572</ele>
        <time>2019-04-02T11:07:08Z</time>
      </trkpt>
      <trkpt lat="44.32399" lon="5.83096">
        <ele>572</ele>
        <time>2019-04-02T11:07:09Z</time>
      </trkpt>
      <trkpt lat="44.32404" lon="5.83102">
        <ele>572</ele>
        <time>2019-04-02T11:07:11Z</time>
      </trkpt>
      <trkpt lat="44.32408" lon="5.83109">
        <ele>572</ele>
        <time>2019-04-02T11:07:11Z</time>
      </trkpt>
      <trkpt lat="44.32412" lon="5.83115">
        <ele>572</ele>
        <time>2019-04-02T11:07:12Z</time>
      </trkpt>
      <trkpt lat="44.32417" lon="5.83121">
        <ele>572</ele>
        <time>2019-04-02T11:07:13Z</time>
      </trkpt>
      <trkpt lat="44.32422" lon="5.83127">
        <ele>572</ele>
        <time>2019-04-02T11:07:14Z</time>
      </trkpt>
      <trkpt lat="44.32428" lon="5.83132">
        <ele>572</ele>
        <time>2019-04-02T11:07:15Z</time>
      </trkpt>
      <trkpt lat="44.32433" lon="5.83137">
        <ele>572</ele>
        <time>2019-04-02T11:07:16Z</time>
      </trkpt>
      <trkpt lat="44.32438" lon="5.83142">
        <ele>572</ele>
        <time>2019-04-02T11:07:17Z</time>
      </trkpt>
      <trkpt lat="44.32443" lon="5.83146">
        <ele>572</ele>
        <time>2019-04-02T11:07:18Z</time>
      </trkpt>
      <trkpt lat="44.32448" lon="5.83151">
        <ele>572</ele>
        <time>2019-04-02T11:07:19Z</time>
      </trkpt>
      <trkpt lat="44.32452" lon="5.83155">
        <ele>572</ele>
        <time>2019-04-02T11:07:20Z</time>
      </trkpt>
      <trkpt lat="44.32457" lon="5.8316">
        <ele>572</ele>
        <time>2019-04-02T11:07:21Z</time>
      </trkpt>
      <trkpt lat="44.32462" lon="5.83165">
        <ele>572</ele>
        <time>2019-04-02T11:07:22Z</time>
      </trkpt>
      <trkpt lat="44.32467" lon="5.83169">
        <ele>572</ele>
        <time>2019-04-02T11:07:23Z</time>
      </trkpt>
      <trkpt lat="44.32473" lon="5.83173">
        <ele>572</ele>
        <time>2019-04-02T11:07:24Z</time>
      </trkpt>
      <trkpt lat="44.32478" lon="5.83177">
        <ele>572</ele>
        <time>2019-04-02T11:07:25Z</time>
      </trkpt>
      <trkpt lat="44.32484" lon="5.83181">
        <ele>572</ele>
        <time>2019-04-02T11:07:26Z</time>
      </trkpt>
      <trkpt lat="44.32489" lon="5.83184">
        <ele>572</ele>
        <time>2019-04-02T11:07:27Z</time>
      </trkpt>
      <trkpt lat="44.32495" lon="5.83188">
        <ele>572</ele>
        <time>2019-04-02T11:07:28Z</time>
      </trkpt>
      <trkpt lat="44.32501" lon="5.83191">
        <ele>572</ele>
        <time>2019-04-02T11:07:29Z</time>
      </trkpt>
      <trkpt lat="44.32507" lon="5.83194">
        <ele>572</ele>
        <time>2019-04-02T11:07:30Z</time>
      </trkpt>
      <trkpt lat="44.32513" lon="5.83197">
        <ele>572</ele>
        <time>2019-04-02T11:07:31Z</time>
      </trkpt>
      <trkpt lat="44.3252" lon="5.832">
        <ele>572</ele>
        <time>2019-04-02T11:07:32Z</time>
      </trkpt>
      <trkpt lat="44.32526" lon="5.83203">
        <ele>572</ele>
        <time>2019-04-02T11:07:33Z</time>
      </trkpt>
      <trkpt lat="44.32531" lon="5.83206">
        <ele>572</ele>
        <time>2019-04-02T11:07:34Z</time>
      </trkpt>
      <trkpt lat="44.32537" lon="5.83208">
        <ele>572</ele>
        <time>2019-04-02T11:07:35Z</time>
      </trkpt>
      <trkpt lat="44.32543" lon="5.83211">
        <ele>572</ele>
        <time>2019-04-02T11:07:36Z</time>
      </trkpt>
      <trkpt lat="44.32549" lon="5.83214">
        <ele>572</ele>
        <time>2019-04-02T11:07:37Z</time>
      </trkpt>
      <trkpt lat="44.32555" lon="5.83217">
        <ele>572</ele>
        <time>2019-04-02T11:07:38Z</time>
      </trkpt>
      <trkpt lat="44.32561" lon="5.83219">
        <ele>572</ele>
        <time>2019-04-02T11:07:39Z</time>
      </trkpt>
      <trkpt lat="44.32567" lon="5.83222">
        <ele>572</ele>
        <time>2019-04-02T11:07:40Z</time>
      </trkpt>
      <trkpt lat="44.32573" lon="5.83224">
        <ele>572</ele>
        <time>2019-04-02T11:07:41Z</time>
      </trkpt>
      <trkpt lat="44.32579" lon="5.83227">
        <ele>572</ele>
        <time>2019-04-02T11:07:42Z</time>
      </trkpt>
      <trkpt lat="44.32585" lon="5.8323">
        <ele>572</ele>
        <time>2019-04-02T11:07:43Z</time>
      </trkpt>
      <trkpt lat="44.32591" lon="5.83233">
        <ele>572</ele>
        <time>2019-04-02T11:07:44Z</time>
      </trkpt>
      <trkpt lat="44.32597" lon="5.83236">
        <ele>572</ele>
        <time>2019-04-02T11:07:45Z</time>
      </trkpt>
      <trkpt lat="44.32602" lon="5.83239">
        <ele>572</ele>
        <time>2019-04-02T11:07:46Z</time>
      </trkpt>
      <trkpt lat="44.32608" lon="5.83243">
        <ele>572</ele>
        <time>2019-04-02T11:07:47Z</time>
      </trkpt>
      <trkpt lat="44.32613" lon="5.83247">
        <ele>572</ele>
        <time>2019-04-02T11:07:48Z</time>
      </trkpt>
      <trkpt lat="44.32619" lon="5.83251">
        <ele>572</ele>
        <time>2019-04-02T11:07:49Z</time>
      </trkpt>
      <trkpt lat="44.32624" lon="5.83254">
        <ele>572</ele>
        <time>2019-04-02T11:07:50Z</time>
      </trkpt>
      <trkpt lat="44.32629" lon="5.83258">
        <ele>572</ele>
        <time>2019-04-02T11:07:51Z</time>
      </trkpt>
      <trkpt lat="44.32635" lon="5.83261">
        <ele>572</ele>
        <time>2019-04-02T11:07:52Z</time>
      </trkpt>
      <trkpt lat="44.3264" lon="5.83265">
        <ele>572</ele>
        <time>2019-04-02T11:07:53Z</time>
      </trkpt>
      <trkpt lat="44.32645" lon="5.83269">
        <ele>572</ele>
        <time>2019-04-02T11:07:54Z</time>
      </trkpt>
      <trkpt lat="44.3265" lon="5.83272">
        <ele>573</ele>
        <time>2019-04-02T11:07:55Z</time>
      </trkpt>
      <trkpt lat="44.32655" lon="5.83276">
        <ele>573</ele>
        <time>2019-04-02T11:07:56Z</time>
      </trkpt>
      <trkpt lat="44.32661" lon="5.83279">
        <ele>573</ele>
        <time>2019-04-02T11:07:57Z</time>
      </trkpt>
      <trkpt lat="44.32666" lon="5.83283">
        <ele>573</ele>
        <time>2019-04-02T11:07:58Z</time>
      </trkpt>
      <trkpt lat="44.32671" lon="5.83286">
        <ele>573</ele>
        <time>2019-04-02T11:07:59Z</time>
      </trkpt>
      <trkpt lat="44.32675" lon="5.8329">
        <ele>573</ele>
        <time>2019-04-02T11:08:00Z</time>
      </trkpt>
      <trkpt lat="44.3268" lon="5.83293">
        <ele>573</ele>
        <time>2019-04-02T11:08:01Z</time>
      </trkpt>
      <trkpt lat="44.32685" lon="5.83297">
        <ele>573</ele>
        <time>2019-04-02T11:08:02Z</time>
      </trkpt>
      <trkpt lat="44.3269" lon="5.833">
        <ele>573</ele>
        <time>2019-04-02T11:08:03Z</time>
      </trkpt>
      <trkpt lat="44.32695" lon="5.83304">
        <ele>574</ele>
        <time>2019-04-02T11:08:04Z</time>
      </trkpt>
      <trkpt lat="44.32701" lon="5.83308">
        <ele>574</ele>
        <time>2019-04-02T11:08:05Z</time>
      </trkpt>
      <trkpt lat="44.32706" lon="5.83312">
        <ele>574</ele>
        <time>2019-04-02T11:08:06Z</time>
      </trkpt>
      <trkpt lat="44.32712" lon="5.83316">
        <ele>574</ele>
        <time>2019-04-02T11:08:07Z</time>
      </trkpt>
      <trkpt lat="44.32716" lon="5.8332">
        <ele>574</ele>
        <time>2019-04-02T11:08:08Z</time>
      </trkpt>
      <trkpt lat="44.32722" lon="5.83323">
        <ele>574</ele>
        <time>2019-04-02T11:08:09Z</time>
      </trkpt>
      <trkpt lat="44.32727" lon="5.83327">
        <ele>574</ele>
        <time>2019-04-02T11:08:11Z</time>
      </trkpt>
      <trkpt lat="44.32732" lon="5.8333">
        <ele>574</ele>
        <time>2019-04-02T11:08:11Z</time>
      </trkpt>
      <trkpt lat="44.32737" lon="5.83334">
        <ele>574</ele>
        <time>2019-04-02T11:08:12Z</time>
      </trkpt>
      <trkpt lat="44.32742" lon="5.83338">
        <ele>574</ele>
        <time>2019-04-02T11:08:13Z</time>
      </trkpt>
      <trkpt lat="44.32747" lon="5.83342">
        <ele>574</ele>
        <time>2019-04-02T11:08:14Z</time>
      </trkpt>
      <trkpt lat="44.32752" lon="5.83345">
        <ele>574</ele>
        <time>2019-04-02T11:08:15Z</time>
      </trkpt>
      <trkpt lat="44.32757" lon="5.83349">
        <ele>574</ele>
        <time>2019-04-02T11:08:16Z</time>
      </trkpt>
      <trkpt lat="44.32761" lon="5.83352">
        <ele>574</ele>
        <time>2019-04-02T11:08:17Z</time>
      </trkpt>
      <trkpt lat="44.32766" lon="5.83356">
        <ele>574</ele>
        <time>2019-04-02T11:08:18Z</time>
      </trkpt>
      <trkpt lat="44.32771" lon="5.83359">
        <ele>574</ele>
        <time>2019-04-02T11:08:19Z</time>
      </trkpt>
      <trkpt lat="44.32776" lon="5.83363">
        <ele>574</ele>
        <time>2019-04-02T11:08:20Z</time>
      </trkpt>
      <trkpt lat="44.32781" lon="5.83366">
        <ele>574</ele>
        <time>2019-04-02T11:08:21Z</time>
      </trkpt>
      <trkpt lat="44.32786" lon="5.8337">
        <ele>574</ele>
        <time>2019-04-02T11:08:22Z</time>
      </trkpt>
      <trkpt lat="44.32791" lon="5.83373">
        <ele>574</ele>
        <time>2019-04-02T11:08:23Z</time>
      </trkpt>
      <trkpt lat="44.32795" lon="5.83376">
        <ele>574</ele>
        <time>2019-04-02T11:08:24Z</time>
      </trkpt>
      <trkpt lat="44.328" lon="5.83379">
        <ele>574</ele>
        <time>2019-04-02T11:08:25Z</time>
      </trkpt>
      <trkpt lat="44.32805" lon="5.83382">
        <ele>574</ele>
        <time>2019-04-02T11:08:26Z</time>
      </trkpt>
      <trkpt lat="44.3281" lon="5.83385">
        <ele>574</ele>
        <time>2019-04-02T11:08:27Z</time>
      </trkpt>
      <trkpt lat="44.32815" lon="5.83387">
        <ele>574</ele>
        <time>2019-04-02T11:08:28Z</time>
      </trkpt>
      <trkpt lat="44.3282" lon="5.83389">
        <ele>574</ele>
        <time>2019-04-02T11:08:29Z</time>
      </trkpt>
      <trkpt lat="44.32825" lon="5.83391">
        <ele>574</ele>
        <time>2019-04-02T11:08:30Z</time>
      </trkpt>
      <trkpt lat="44.3283" lon="5.83392">
        <ele>574</ele>
        <time>2019-04-02T11:08:31Z</time>
      </trkpt>
      <trkpt lat="44.32835" lon="5.83393">
        <ele>574</ele>
        <time>2019-04-02T11:08:32Z</time>
      </trkpt>
      <trkpt lat="44.3284" lon="5.83394">
        <ele>574</ele>
        <time>2019-04-02T11:08:33Z</time>
      </trkpt>
      <trkpt lat="44.32845" lon="5.83395">
        <ele>574</ele>
        <time>2019-04-02T11:08:34Z</time>
      </trkpt>
      <trkpt lat="44.3285" lon="5.83396">
        <ele>574</ele>
        <time>2019-04-02T11:08:35Z</time>
      </trkpt>
      <trkpt lat="44.32855" lon="5.83396">
        <ele>575</ele>
        <time>2019-04-02T11:08:36Z</time>
      </trkpt>
      <trkpt lat="44.32861" lon="5.83397">
        <ele>575</ele>
        <time>2019-04-02T11:08:37Z</time>
      </trkpt>
      <trkpt lat="44.32866" lon="5.83397">
        <ele>575</ele>
        <time>2019-04-02T11:08:38Z</time>
      </trkpt>
      <trkpt lat="44.3287" lon="5.83398">
        <ele>575</ele>
        <time>2019-04-02T11:08:39Z</time>
      </trkpt>
      <trkpt lat="44.32875" lon="5.83398">
        <ele>575</ele>
        <time>2019-04-02T11:08:40Z</time>
      </trkpt>
      <trkpt lat="44.3288" lon="5.83399">
        <ele>575</ele>
        <time>2019-04-02T11:08:41Z</time>
      </trkpt>
      <trkpt lat="44.32884" lon="5.83399">
        <ele>575</ele>
        <time>2019-04-02T11:08:42Z</time>
      </trkpt>
      <trkpt lat="44.32889" lon="5.83399">
        <ele>575</ele>
        <time>2019-04-02T11:08:43Z</time>
      </trkpt>
      <trkpt lat="44.32893" lon="5.83399">
        <ele>576</ele>
        <time>2019-04-02T11:08:44Z</time>
      </trkpt>
      <trkpt lat="44.32898" lon="5.83399">
        <ele>576</ele>
        <time>2019-04-02T11:08:45Z</time>
      </trkpt>
      <trkpt lat="44.32903" lon="5.83399">
        <ele>576</ele>
        <time>2019-04-02T11:08:46Z</time>
      </trkpt>
      <trkpt lat="44.32907" lon="5.83399">
        <ele>576</ele>
        <time>2019-04-02T11:08:47Z</time>
      </trkpt>
      <trkpt lat="44.32912" lon="5.834">
        <ele>577</ele>
        <time>2019-04-02T11:08:48Z</time>
      </trkpt>
      <trkpt lat="44.32917" lon="5.834">
        <ele>577</ele>
        <time>2019-04-02T11:08:49Z</time>
      </trkpt>
      <trkpt lat="44.32921" lon="5.83401">
        <ele>577</ele>
        <time>2019-04-02T11:08:50Z</time>
      </trkpt>
      <trkpt lat="44.32926" lon="5.83401">
        <ele>577</ele>
        <time>2019-04-02T11:08:51Z</time>
      </trkpt>
      <trkpt lat="44.32931" lon="5.83402">
        <ele>577</ele>
        <time>2019-04-02T11:08:52Z</time>
      </trkpt>
      <trkpt lat="44.32935" lon="5.83402">
        <ele>577</ele>
        <time>2019-04-02T11:08:53Z</time>
      </trkpt>
      <trkpt lat="44.32941" lon="5.83402">
        <ele>577</ele>
        <time>2019-04-02T11:08:54Z</time>
      </trkpt>
      <trkpt lat="44.32945" lon="5.83402">
        <ele>578</ele>
        <time>2019-04-02T11:08:55Z</time>
      </trkpt>
      <trkpt lat="44.3295" lon="5.83402">
        <ele>578</ele>
        <time>2019-04-02T11:08:56Z</time>
      </trkpt>
      <trkpt lat="44.32955" lon="5.83403">
        <ele>578</ele>
        <time>2019-04-02T11:08:57Z</time>
      </trkpt>
      <trkpt lat="44.3296" lon="5.83403">
        <ele>578</ele>
        <time>2019-04-02T11:08:58Z</time>
      </trkpt>
      <trkpt lat="44.32965" lon="5.83403">
        <ele>579</ele>
        <time>2019-04-02T11:08:59Z</time>
      </trkpt>
      <trkpt lat="44.3297" lon="5.83404">
        <ele>579</ele>
        <time>2019-04-02T11:09:00Z</time>
      </trkpt>
      <trkpt lat="44.32975" lon="5.83404">
        <ele>579</ele>
        <time>2019-04-02T11:09:01Z</time>
      </trkpt>
      <trkpt lat="44.3298" lon="5.83404">
        <ele>579</ele>
        <time>2019-04-02T11:09:02Z</time>
      </trkpt>
      <trkpt lat="44.32985" lon="5.83404">
        <ele>579</ele>
        <time>2019-04-02T11:09:03Z</time>
      </trkpt>
      <trkpt lat="44.3299" lon="5.83405">
        <ele>579</ele>
        <time>2019-04-02T11:09:04Z</time>
      </trkpt>
      <trkpt lat="44.32995" lon="5.83405">
        <ele>579</ele>
        <time>2019-04-02T11:09:05Z</time>
      </trkpt>
      <trkpt lat="44.33" lon="5.83404">
        <ele>579</ele>
        <time>2019-04-02T11:09:06Z</time>
      </trkpt>
      <trkpt lat="44.33006" lon="5.83405">
        <ele>580</ele>
        <time>2019-04-02T11:09:07Z</time>
      </trkpt>
      <trkpt lat="44.33011" lon="5.83405">
        <ele>580</ele>
        <time>2019-04-02T11:09:08Z</time>
      </trkpt>
      <trkpt lat="44.33016" lon="5.83405">
        <ele>580</ele>
        <time>2019-04-02T11:09:09Z</time>
      </trkpt>
      <trkpt lat="44.33022" lon="5.83406">
        <ele>580</ele>
        <time>2019-04-02T11:09:11Z</time>
      </trkpt>
      <trkpt lat="44.33027" lon="5.83406">
        <ele>580</ele>
        <time>2019-04-02T11:09:11Z</time>
      </trkpt>
      <trkpt lat="44.33033" lon="5.83406">
        <ele>580</ele>
        <time>2019-04-02T11:09:12Z</time>
      </trkpt>
      <trkpt lat="44.33038" lon="5.83407">
        <ele>580</ele>
        <time>2019-04-02T11:09:13Z</time>
      </trkpt>
      <trkpt lat="44.33044" lon="5.83408">
        <ele>580</ele>
        <time>2019-04-02T11:09:14Z</time>
      </trkpt>
      <trkpt lat="44.3305" lon="5.83408">
        <ele>580</ele>
        <time>2019-04-02T11:09:15Z</time>
      </trkpt>
      <trkpt lat="44.33056" lon="5.83408">
        <ele>580</ele>
        <time>2019-04-02T11:09:16Z</time>
      </trkpt>
      <trkpt lat="44.33062" lon="5.83408">
        <ele>580</ele>
        <time>2019-04-02T11:09:17Z</time>
      </trkpt>
      <trkpt lat="44.33069" lon="5.83409">
        <ele>580</ele>
        <time>2019-04-02T11:09:18Z</time>
      </trkpt>
      <trkpt lat="44.33075" lon="5.83409">
        <ele>580</ele>
        <time>2019-04-02T11:09:19Z</time>
      </trkpt>
      <trkpt lat="44.33081" lon="5.83408">
        <ele>580</ele>
        <time>2019-04-02T11:09:20Z</time>
      </trkpt>
      <trkpt lat="44.33088" lon="5.83407">
        <ele>580</ele>
        <time>2019-04-02T11:09:21Z</time>
      </trkpt>
      <trkpt lat="44.33094" lon="5.83407">
        <ele>580</ele>
        <time>2019-04-02T11:09:22Z</time>
      </trkpt>
      <trkpt lat="44.331" lon="5.83406">
        <ele>580</ele>
        <time>2019-04-02T11:09:23Z</time>
      </trkpt>
      <trkpt lat="44.33106" lon="5.83406">
        <ele>580</ele>
        <time>2019-04-02T11:09:24Z</time>
      </trkpt>
      <trkpt lat="44.33112" lon="5.83405">
        <ele>580</ele>
        <time>2019-04-02T11:09:25Z</time>
      </trkpt>
      <trkpt lat="44.33119" lon="5.83404">
        <ele>580</ele>
        <time>2019-04-02T11:09:26Z</time>
      </trkpt>
      <trkpt lat="44.33125" lon="5.83403">
        <ele>580</ele>
        <time>2019-04-02T11:09:27Z</time>
      </trkpt>
      <trkpt lat="44.33131" lon="5.83402">
        <ele>580</ele>
        <time>2019-04-02T11:09:28Z</time>
      </trkpt>
      <trkpt lat="44.33137" lon="5.83402">
        <ele>580</ele>
        <time>2019-04-02T11:09:29Z</time>
      </trkpt>
      <trkpt lat="44.33143" lon="5.83401">
        <ele>580</ele>
        <time>2019-04-02T11:09:30Z</time>
      </trkpt>
      <trkpt lat="44.33149" lon="5.834">
        <ele>580</ele>
        <time>2019-04-02T11:09:31Z</time>
      </trkpt>
      <trkpt lat="44.33155" lon="5.83399">
        <ele>580</ele>
        <time>2019-04-02T11:09:32Z</time>
      </trkpt>
      <trkpt lat="44.3316" lon="5.83398">
        <ele>580</ele>
        <time>2019-04-02T11:09:33Z</time>
      </trkpt>
      <trkpt lat="44.33166" lon="5.83398">
        <ele>580</ele>
        <time>2019-04-02T11:09:34Z</time>
      </trkpt>
      <trkpt lat="44.33172" lon="5.83397">
        <ele>580</ele>
        <time>2019-04-02T11:09:35Z</time>
      </trkpt>
      <trkpt lat="44.33178" lon="5.83396">
        <ele>580</ele>
        <time>2019-04-02T11:09:36Z</time>
      </trkpt>
      <trkpt lat="44.33184" lon="5.83395">
        <ele>580</ele>
        <time>2019-04-02T11:09:37Z</time>
      </trkpt>
      <trkpt lat="44.33189" lon="5.83395">
        <ele>580</ele>
        <time>2019-04-02T11:09:38Z</time>
      </trkpt>
      <trkpt lat="44.33195" lon="5.83394">
        <ele>580</ele>
        <time>2019-04-02T11:09:39Z</time>
      </trkpt>
      <trkpt lat="44.332" lon="5.83393">
        <ele>580</ele>
        <time>2019-04-02T11:09:40Z</time>
      </trkpt>
      <trkpt lat="44.33206" lon="5.83391">
        <ele>580</ele>
        <time>2019-04-02T11:09:41Z</time>
      </trkpt>
      <trkpt lat="44.33212" lon="5.8339">
        <ele>580</ele>
        <time>2019-04-02T11:09:42Z</time>
      </trkpt>
      <trkpt lat="44.33217" lon="5.8339">
        <ele>580</ele>
        <time>2019-04-02T11:09:43Z</time>
      </trkpt>
      <trkpt lat="44.33223" lon="5.83389">
        <ele>580</ele>
        <time>2019-04-02T11:09:44Z</time>
      </trkpt>
      <trkpt lat="44.33228" lon="5.83388">
        <ele>581</ele>
        <time>2019-04-02T11:09:45Z</time>
      </trkpt>
      <trkpt lat="44.33234" lon="5.83387">
        <ele>581</ele>
        <time>2019-04-02T11:09:46Z</time>
      </trkpt>
      <trkpt lat="44.33239" lon="5.83386">
        <ele>581</ele>
        <time>2019-04-02T11:09:47Z</time>
      </trkpt>
      <trkpt lat="44.33244" lon="5.83385">
        <ele>581</ele>
        <time>2019-04-02T11:09:48Z</time>
      </trkpt>
      <trkpt lat="44.3325" lon="5.83385">
        <ele>581</ele>
        <time>2019-04-02T11:09:49Z</time>
      </trkpt>
      <trkpt lat="44.33256" lon="5.83384">
        <ele>582</ele>
        <time>2019-04-02T11:09:50Z</time>
      </trkpt>
      <trkpt lat="44.33261" lon="5.83383">
        <ele>582</ele>
        <time>2019-04-02T11:09:51Z</time>
      </trkpt>
      <trkpt lat="44.33267" lon="5.83382">
        <ele>582</ele>
        <time>2019-04-02T11:09:52Z</time>
      </trkpt>
      <trkpt lat="44.33273" lon="5.83382">
        <ele>582</ele>
        <time>2019-04-02T11:09:53Z</time>
      </trkpt>
      <trkpt lat="44.33278" lon="5.83381">
        <ele>582</ele>
        <time>2019-04-02T11:09:54Z</time>
      </trkpt>
      <trkpt lat="44.33284" lon="5.8338">
        <ele>582</ele>
        <time>2019-04-02T11:09:55Z</time>
      </trkpt>
      <trkpt lat="44.33289" lon="5.83379">
        <ele>582</ele>
        <time>2019-04-02T11:09:56Z</time>
      </trkpt>
      <trkpt lat="44.33295" lon="5.83378">
        <ele>582</ele>
        <time>2019-04-02T11:09:57Z</time>
      </trkpt>
      <trkpt lat="44.333" lon="5.83378">
        <ele>582</ele>
        <time>2019-04-02T11:09:58Z</time>
      </trkpt>
      <trkpt lat="44.33305" lon="5.83377">
        <ele>582</ele>
        <time>2019-04-02T11:09:59Z</time>
      </trkpt>
      <trkpt lat="44.33311" lon="5.83376">
        <ele>582</ele>
        <time>2019-04-02T11:10:00Z</time>
      </trkpt>
      <trkpt lat="44.33316" lon="5.83375">
        <ele>582</ele>
        <time>2019-04-02T11:10:01Z</time>
      </trkpt>
      <trkpt lat="44.33322" lon="5.83375">
        <ele>583</ele>
        <time>2019-04-02T11:10:02Z</time>
      </trkpt>
      <trkpt lat="44.33328" lon="5.83374">
        <ele>583</ele>
        <time>2019-04-02T11:10:03Z</time>
      </trkpt>
      <trkpt lat="44.33333" lon="5.83373">
        <ele>583</ele>
        <time>2019-04-02T11:10:04Z</time>
      </trkpt>
      <trkpt lat="44.33339" lon="5.83372">
        <ele>583</ele>
        <time>2019-04-02T11:10:05Z</time>
      </trkpt>
      <trkpt lat="44.33345" lon="5.83371">
        <ele>583</ele>
        <time>2019-04-02T11:10:06Z</time>
      </trkpt>
      <trkpt lat="44.3335" lon="5.8337">
        <ele>583</ele>
        <time>2019-04-02T11:10:07Z</time>
      </trkpt>
      <trkpt lat="44.33356" lon="5.83369">
        <ele>583</ele>
        <time>2019-04-02T11:10:08Z</time>
      </trkpt>
      <trkpt lat="44.33367" lon="5.83367">
        <ele>583</ele>
        <time>2019-04-02T11:10:11Z</time>
      </trkpt>
      <trkpt lat="44.33373" lon="5.83366">
        <ele>583</ele>
        <time>2019-04-02T11:10:11Z</time>
      </trkpt>
      <trkpt lat="44.33379" lon="5.83365">
        <ele>583</ele>
        <time>2019-04-02T11:10:12Z</time>
      </trkpt>
      <trkpt lat="44.33384" lon="5.83364">
        <ele>583</ele>
        <time>2019-04-02T11:10:13Z</time>
      </trkpt>
      <trkpt lat="44.3339" lon="5.83363">
        <ele>584</ele>
        <time>2019-04-02T11:10:14Z</time>
      </trkpt>
      <trkpt lat="44.33396" lon="5.83362">
        <ele>584</ele>
        <time>2019-04-02T11:10:15Z</time>
      </trkpt>
      <trkpt lat="44.33401" lon="5.83362">
        <ele>584</ele>
        <time>2019-04-02T11:10:16Z</time>
      </trkpt>
      <trkpt lat="44.33407" lon="5.83361">
        <ele>584</ele>
        <time>2019-04-02T11:10:17Z</time>
      </trkpt>
      <trkpt lat="44.33413" lon="5.8336">
        <ele>584</ele>
        <time>2019-04-02T11:10:18Z</time>
      </trkpt>
      <trkpt lat="44.33419" lon="5.83359">
        <ele>584</ele>
        <time>2019-04-02T11:10:19Z</time>
      </trkpt>
      <trkpt lat="44.33424" lon="5.83358">
        <ele>585</ele>
        <time>2019-04-02T11:10:20Z</time>
      </trkpt>
      <trkpt lat="44.3343" lon="5.83358">
        <ele>585</ele>
        <time>2019-04-02T11:10:21Z</time>
      </trkpt>
      <trkpt lat="44.33436" lon="5.83357">
        <ele>585</ele>
        <time>2019-04-02T11:10:22Z</time>
      </trkpt>
      <trkpt lat="44.33441" lon="5.83356">
        <ele>585</ele>
        <time>2019-04-02T11:10:23Z</time>
      </trkpt>
      <trkpt lat="44.33447" lon="5.83355">
        <ele>585</ele>
        <time>2019-04-02T11:10:24Z</time>
      </trkpt>
      <trkpt lat="44.33453" lon="5.83355">
        <ele>585</ele>
        <time>2019-04-02T11:10:25Z</time>
      </trkpt>
      <trkpt lat="44.33458" lon="5.83354">
        <ele>585</ele>
        <time>2019-04-02T11:10:26Z</time>
      </trkpt>
      <trkpt lat="44.33464" lon="5.83353">
        <ele>585</ele>
        <time>2019-04-02T11:10:27Z</time>
      </trkpt>
      <trkpt lat="44.3347" lon="5.83353">
        <ele>586</ele>
        <time>2019-04-02T11:10:28Z</time>
      </trkpt>
      <trkpt lat="44.33475" lon="5.83353">
        <ele>586</ele>
        <time>2019-04-02T11:10:29Z</time>
      </trkpt>
      <trkpt lat="44.33481" lon="5.83353">
        <ele>586</ele>
        <time>2019-04-02T11:10:30Z</time>
      </trkpt>
      <trkpt lat="44.33487" lon="5.83354">
        <ele>586</ele>
        <time>2019-04-02T11:10:31Z</time>
      </trkpt>
      <trkpt lat="44.33492" lon="5.83354">
        <ele>586</ele>
        <time>2019-04-02T11:10:32Z</time>
      </trkpt>
      <trkpt lat="44.33498" lon="5.83355">
        <ele>586</ele>
        <time>2019-04-02T11:10:33Z</time>
      </trkpt>
      <trkpt lat="44.33503" lon="5.83356">
        <ele>586</ele>
        <time>2019-04-02T11:10:34Z</time>
      </trkpt>
      <trkpt lat="44.33509" lon="5.83357">
        <ele>587</ele>
        <time>2019-04-02T11:10:35Z</time>
      </trkpt>
      <trkpt lat="44.33514" lon="5.83357">
        <ele>587</ele>
        <time>2019-04-02T11:10:36Z</time>
      </trkpt>
      <trkpt lat="44.33519" lon="5.83358">
        <ele>587</ele>
        <time>2019-04-02T11:10:37Z</time>
      </trkpt>
      <trkpt lat="44.33525" lon="5.83359">
        <ele>587</ele>
        <time>2019-04-02T11:10:38Z</time>
      </trkpt>
      <trkpt lat="44.3353" lon="5.83359">
        <ele>587</ele>
        <time>2019-04-02T11:10:39Z</time>
      </trkpt>
      <trkpt lat="44.33535" lon="5.8336">
        <ele>587</ele>
        <time>2019-04-02T11:10:40Z</time>
      </trkpt>
      <trkpt lat="44.33541" lon="5.8336">
        <ele>587</ele>
        <time>2019-04-02T11:10:41Z</time>
      </trkpt>
      <trkpt lat="44.33546" lon="5.8336">
        <ele>587</ele>
        <time>2019-04-02T11:10:42Z</time>
      </trkpt>
      <trkpt lat="44.33552" lon="5.83359">
        <ele>588</ele>
        <time>2019-04-02T11:10:43Z</time>
      </trkpt>
      <trkpt lat="44.33557" lon="5.83359">
        <ele>588</ele>
        <time>2019-04-02T11:10:44Z</time>
      </trkpt>
      <trkpt lat="44.33562" lon="5.8336">
        <ele>589</ele>
        <time>2019-04-02T11:10:45Z</time>
      </trkpt>
      <trkpt lat="44.33568" lon="5.8336">
        <ele>590</ele>
        <time>2019-04-02T11:10:46Z</time>
      </trkpt>
      <trkpt lat="44.33572" lon="5.83361">
        <ele>590</ele>
        <time>2019-04-02T11:10:47Z</time>
      </trkpt>
      <trkpt lat="44.33577" lon="5.83362">
        <ele>590</ele>
        <time>2019-04-02T11:10:48Z</time>
      </trkpt>
      <trkpt lat="44.33583" lon="5.83362">
        <ele>591</ele>
        <time>2019-04-02T11:10:49Z</time>
      </trkpt>
      <trkpt lat="44.33588" lon="5.83363">
        <ele>591</ele>
        <time>2019-04-02T11:10:50Z</time>
      </trkpt>
      <trkpt lat="44.33593" lon="5.83364">
        <ele>591</ele>
        <time>2019-04-02T11:10:51Z</time>
      </trkpt>
      <trkpt lat="44.33598" lon="5.83365">
        <ele>591</ele>
        <time>2019-04-02T11:10:52Z</time>
      </trkpt>
      <trkpt lat="44.33603" lon="5.83365">
        <ele>591</ele>
        <time>2019-04-02T11:10:53Z</time>
      </trkpt>
      <trkpt lat="44.33608" lon="5.83366">
        <ele>591</ele>
        <time>2019-04-02T11:10:54Z</time>
      </trkpt>
      <trkpt lat="44.33612" lon="5.83366">
        <ele>591</ele>
        <time>2019-04-02T11:10:55Z</time>
      </trkpt>
      <trkpt lat="44.33617" lon="5.83367">
        <ele>591</ele>
        <time>2019-04-02T11:10:56Z</time>
      </trkpt>
      <trkpt lat="44.33622" lon="5.83368">
        <ele>591</ele>
        <time>2019-04-02T11:10:57Z</time>
      </trkpt>
      <trkpt lat="44.33627" lon="5.83369">
        <ele>591</ele>
        <time>2019-04-02T11:10:58Z</time>
      </trkpt>
      <trkpt lat="44.33632" lon="5.83369">
        <ele>591</ele>
        <time>2019-04-02T11:10:59Z</time>
      </trkpt>
      <trkpt lat="44.33636" lon="5.83371">
        <ele>591</ele>
        <time>2019-04-02T11:11:00Z</time>
      </trkpt>
      <trkpt lat="44.33641" lon="5.83372">
        <ele>591</ele>
        <time>2019-04-02T11:11:01Z</time>
      </trkpt>
      <trkpt lat="44.33646" lon="5.83373">
        <ele>591</ele>
        <time>2019-04-02T11:11:02Z</time>
      </trkpt>
      <trkpt lat="44.3365" lon="5.83373">
        <ele>591</ele>
        <time>2019-04-02T11:11:03Z</time>
      </trkpt>
      <trkpt lat="44.33655" lon="5.83373">
        <ele>591</ele>
        <time>2019-04-02T11:11:04Z</time>
      </trkpt>
      <trkpt lat="44.33661" lon="5.83374">
        <ele>591</ele>
        <time>2019-04-02T11:11:05Z</time>
      </trkpt>
      <trkpt lat="44.33665" lon="5.83375">
        <ele>591</ele>
        <time>2019-04-02T11:11:06Z</time>
      </trkpt>
      <trkpt lat="44.3367" lon="5.83375">
        <ele>591</ele>
        <time>2019-04-02T11:11:07Z</time>
      </trkpt>
      <trkpt lat="44.33675" lon="5.83376">
        <ele>591</ele>
        <time>2019-04-02T11:11:08Z</time>
      </trkpt>
      <trkpt lat="44.3368" lon="5.83377">
        <ele>591</ele>
        <time>2019-04-02T11:11:09Z</time>
      </trkpt>
      <trkpt lat="44.33685" lon="5.83377">
        <ele>591</ele>
        <time>2019-04-02T11:11:11Z</time>
      </trkpt>
      <trkpt lat="44.3369" lon="5.83377">
        <ele>591</ele>
        <time>2019-04-02T11:11:11Z</time>
      </trkpt>
      <trkpt lat="44.33695" lon="5.83378">
        <ele>591</ele>
        <time>2019-04-02T11:11:12Z</time>
      </trkpt>
      <trkpt lat="44.337" lon="5.83378">
        <ele>591</ele>
        <time>2019-04-02T11:11:13Z</time>
      </trkpt>
      <trkpt lat="44.33705" lon="5.83379">
        <ele>591</ele>
        <time>2019-04-02T11:11:14Z</time>
      </trkpt>
      <trkpt lat="44.3371" lon="5.83379">
        <ele>591</ele>
        <time>2019-04-02T11:11:15Z</time>
      </trkpt>
      <trkpt lat="44.33716" lon="5.8338">
        <ele>592</ele>
        <time>2019-04-02T11:11:16Z</time>
      </trkpt>
      <trkpt lat="44.33721" lon="5.83381">
        <ele>592</ele>
        <time>2019-04-02T11:11:17Z</time>
      </trkpt>
      <trkpt lat="44.33726" lon="5.83382">
        <ele>592</ele>
        <time>2019-04-02T11:11:18Z</time>
      </trkpt>
      <trkpt lat="44.33731" lon="5.83382">
        <ele>592</ele>
        <time>2019-04-02T11:11:19Z</time>
      </trkpt>
      <trkpt lat="44.33736" lon="5.83383">
        <ele>592</ele>
        <time>2019-04-02T11:11:20Z</time>
      </trkpt>
      <trkpt lat="44.33741" lon="5.83383">
        <ele>592</ele>
        <time>2019-04-02T11:11:21Z</time>
      </trkpt>
      <trkpt lat="44.33746" lon="5.83384">
        <ele>592</ele>
        <time>2019-04-02T11:11:22Z</time>
      </trkpt>
      <trkpt lat="44.33752" lon="5.83385">
        <ele>592</ele>
        <time>2019-04-02T11:11:23Z</time>
      </trkpt>
      <trkpt lat="44.33757" lon="5.83385">
        <ele>592</ele>
        <time>2019-04-02T11:11:24Z</time>
      </trkpt>
      <trkpt lat="44.33762" lon="5.83386">
        <ele>592</ele>
        <time>2019-04-02T11:11:25Z</time>
      </trkpt>
      <trkpt lat="44.33767" lon="5.83387">
        <ele>592</ele>
        <time>2019-04-02T11:11:26Z</time>
      </trkpt>
      <trkpt lat="44.33773" lon="5.83388">
        <ele>592</ele>
        <time>2019-04-02T11:11:27Z</time>
      </trkpt>
      <trkpt lat="44.33778" lon="5.83389">
        <ele>592</ele>
        <time>2019-04-02T11:11:28Z</time>
      </trkpt>
      <trkpt lat="44.33783" lon="5.8339">
        <ele>592</ele>
        <time>2019-04-02T11:11:29Z</time>
      </trkpt>
      <trkpt lat="44.33788" lon="5.83391">
        <ele>592</ele>
        <time>2019-04-02T11:11:30Z</time>
      </trkpt>
      <trkpt lat="44.33794" lon="5.83392">
        <ele>592</ele>
        <time>2019-04-02T11:11:31Z</time>
      </trkpt>
      <trkpt lat="44.33799" lon="5.83392">
        <ele>592</ele>
        <time>2019-04-02T11:11:32Z</time>
      </trkpt>
      <trkpt lat="44.33804" lon="5.83394">
        <ele>592</ele>
        <time>2019-04-02T11:11:33Z</time>
      </trkpt>
      <trkpt lat="44.33809" lon="5.83395">
        <ele>592</ele>
        <time>2019-04-02T11:11:34Z</time>
      </trkpt>
      <trkpt lat="44.33815" lon="5.83396">
        <ele>592</ele>
        <time>2019-04-02T11:11:35Z</time>
      </trkpt>
      <trkpt lat="44.3382" lon="5.83397">
        <ele>593</ele>
        <time>2019-04-02T11:11:36Z</time>
      </trkpt>
      <trkpt lat="44.33825" lon="5.83398">
        <ele>593</ele>
        <time>2019-04-02T11:11:37Z</time>
      </trkpt>
      <trkpt lat="44.3383" lon="5.83399">
        <ele>593</ele>
        <time>2019-04-02T11:11:38Z</time>
      </trkpt>
      <trkpt lat="44.33836" lon="5.834">
        <ele>593</ele>
        <time>2019-04-02T11:11:39Z</time>
      </trkpt>
      <trkpt lat="44.33841" lon="5.83401">
        <ele>593</ele>
        <time>2019-04-02T11:11:40Z</time>
      </trkpt>
      <trkpt lat="44.33846" lon="5.83402">
        <ele>594</ele>
        <time>2019-04-02T11:11:41Z</time>
      </trkpt>
      <trkpt lat="44.33852" lon="5.83403">
        <ele>594</ele>
        <time>2019-04-02T11:11:42Z</time>
      </trkpt>
      <trkpt lat="44.33857" lon="5.83404">
        <ele>594</ele>
        <time>2019-04-02T11:11:43Z</time>
      </trkpt>
      <trkpt lat="44.33863" lon="5.83405">
        <ele>594</ele>
        <time>2019-04-02T11:11:44Z</time>
      </trkpt>
      <trkpt lat="44.33868" lon="5.83406">
        <ele>594</ele>
        <time>2019-04-02T11:11:45Z</time>
      </trkpt>
      <trkpt lat="44.33873" lon="5.83407">
        <ele>595</ele>
        <time>2019-04-02T11:11:46Z</time>
      </trkpt>
      <trkpt lat="44.33879" lon="5.83408">
        <ele>595</ele>
        <time>2019-04-02T11:11:47Z</time>
      </trkpt>
      <trkpt lat="44.33884" lon="5.8341">
        <ele>595</ele>
        <time>2019-04-02T11:11:48Z</time>
      </trkpt>
      <trkpt lat="44.33889" lon="5.83411">
        <ele>595</ele>
        <time>2019-04-02T11:11:49Z</time>
      </trkpt>
      <trkpt lat="44.33895" lon="5.83412">
        <ele>595</ele>
        <time>2019-04-02T11:11:50Z</time>
      </trkpt>
      <trkpt lat="44.339" lon="5.83413">
        <ele>595</ele>
        <time>2019-04-02T11:11:51Z</time>
      </trkpt>
      <trkpt lat="44.33905" lon="5.83414">
        <ele>596</ele>
        <time>2019-04-02T11:11:52Z</time>
      </trkpt>
      <trkpt lat="44.33911" lon="5.83415">
        <ele>596</ele>
        <time>2019-04-02T11:11:53Z</time>
      </trkpt>
      <trkpt lat="44.33916" lon="5.83416">
        <ele>596</ele>
        <time>2019-04-02T11:11:55Z</time>
      </trkpt>
      <trkpt lat="44.33921" lon="5.83417">
        <ele>596</ele>
        <time>2019-04-02T11:11:55Z</time>
      </trkpt>
      <trkpt lat="44.33927" lon="5.83418">
        <ele>596</ele>
        <time>2019-04-02T11:11:56Z</time>
      </trkpt>
      <trkpt lat="44.33932" lon="5.8342">
        <ele>596</ele>
        <time>2019-04-02T11:11:57Z</time>
      </trkpt>
      <trkpt lat="44.33937" lon="5.83421">
        <ele>596</ele>
        <time>2019-04-02T11:11:58Z</time>
      </trkpt>
      <trkpt lat="44.33943" lon="5.83423">
        <ele>597</ele>
        <time>2019-04-02T11:11:59Z</time>
      </trkpt>
      <trkpt lat="44.33948" lon="5.83426">
        <ele>597</ele>
        <time>2019-04-02T11:12:00Z</time>
      </trkpt>
      <trkpt lat="44.33953" lon="5.83428">
        <ele>597</ele>
        <time>2019-04-02T11:12:01Z</time>
      </trkpt>
      <trkpt lat="44.33958" lon="5.83431">
        <ele>597</ele>
        <time>2019-04-02T11:12:02Z</time>
      </trkpt>
      <trkpt lat="44.33963" lon="5.83434">
        <ele>597</ele>
        <time>2019-04-02T11:12:03Z</time>
      </trkpt>
      <trkpt lat="44.33968" lon="5.83437">
        <ele>597</ele>
        <time>2019-04-02T11:12:04Z</time>
      </trkpt>
      <trkpt lat="44.33973" lon="5.83441">
        <ele>597</ele>
        <time>2019-04-02T11:12:05Z</time>
      </trkpt>
      <trkpt lat="44.33977" lon="5.83445">
        <ele>598</ele>
        <time>2019-04-02T11:12:06Z</time>
      </trkpt>
      <trkpt lat="44.33981" lon="5.83449">
        <ele>598</ele>
        <time>2019-04-02T11:12:07Z</time>
      </trkpt>
      <trkpt lat="44.33986" lon="5.83453">
        <ele>598</ele>
        <time>2019-04-02T11:12:08Z</time>
      </trkpt>
      <trkpt lat="44.3399" lon="5.83457">
        <ele>598</ele>
        <time>2019-04-02T11:12:09Z</time>
      </trkpt>
      <trkpt lat="44.33994" lon="5.83461">
        <ele>598</ele>
        <time>2019-04-02T11:12:11Z</time>
      </trkpt>
      <trkpt lat="44.33998" lon="5.83465">
        <ele>599</ele>
        <time>2019-04-02T11:12:11Z</time>
      </trkpt>
      <trkpt lat="44.34003" lon="5.83469">
        <ele>599</ele>
        <time>2019-04-02T11:12:12Z</time>
      </trkpt>
      <trkpt lat="44.34007" lon="5.83472">
        <ele>599</ele>
        <time>2019-04-02T11:12:13Z</time>
      </trkpt>
      <trkpt lat="44.34011" lon="5.83476">
        <ele>599</ele>
        <time>2019-04-02T11:12:14Z</time>
      </trkpt>
      <trkpt lat="44.34015" lon="5.83481">
        <ele>600</ele>
        <time>2019-04-02T11:12:15Z</time>
      </trkpt>
      <trkpt lat="44.34019" lon="5.83484">
        <ele>600</ele>
        <time>2019-04-02T11:12:16Z</time>
      </trkpt>
      <trkpt lat="44.34023" lon="5.83488">
        <ele>600</ele>
        <time>2019-04-02T11:12:17Z</time>
      </trkpt>
      <trkpt lat="44.34027" lon="5.83493">
        <ele>600</ele>
        <time>2019-04-02T11:12:18Z</time>
      </trkpt>
      <trkpt lat="44.34031" lon="5.83497">
        <ele>600</ele>
        <time>2019-04-02T11:12:19Z</time>
      </trkpt>
      <trkpt lat="44.34035" lon="5.83501">
        <ele>601</ele>
        <time>2019-04-02T11:12:20Z</time>
      </trkpt>
      <trkpt lat="44.3404" lon="5.83505">
        <ele>601</ele>
        <time>2019-04-02T11:12:21Z</time>
      </trkpt>
      <trkpt lat="44.34044" lon="5.83509">
        <ele>601</ele>
        <time>2019-04-02T11:12:22Z</time>
      </trkpt>
      <trkpt lat="44.34047" lon="5.83513">
        <ele>601</ele>
        <time>2019-04-02T11:12:23Z</time>
      </trkpt>
      <trkpt lat="44.34052" lon="5.83517">
        <ele>601</ele>
        <time>2019-04-02T11:12:24Z</time>
      </trkpt>
      <trkpt lat="44.34056" lon="5.83521">
        <ele>602</ele>
        <time>2019-04-02T11:12:25Z</time>
      </trkpt>
      <trkpt lat="44.3406" lon="5.83526">
        <ele>602</ele>
        <time>2019-04-02T11:12:26Z</time>
      </trkpt>
      <trkpt lat="44.34064" lon="5.8353">
        <ele>602</ele>
        <time>2019-04-02T11:12:27Z</time>
      </trkpt>
      <trkpt lat="44.34068" lon="5.83534">
        <ele>602</ele>
        <time>2019-04-02T11:12:28Z</time>
      </trkpt>
      <trkpt lat="44.34072" lon="5.83538">
        <ele>602</ele>
        <time>2019-04-02T11:12:29Z</time>
      </trkpt>
      <trkpt lat="44.34076" lon="5.83542">
        <ele>602</ele>
        <time>2019-04-02T11:12:30Z</time>
      </trkpt>
      <trkpt lat="44.3408" lon="5.83546">
        <ele>603</ele>
        <time>2019-04-02T11:12:31Z</time>
      </trkpt>
      <trkpt lat="44.34085" lon="5.8355">
        <ele>603</ele>
        <time>2019-04-02T11:12:32Z</time>
      </trkpt>
      <trkpt lat="44.34089" lon="5.83554">
        <ele>603</ele>
        <time>2019-04-02T11:12:33Z</time>
      </trkpt>
      <trkpt lat="44.34093" lon="5.83558">
        <ele>603</ele>
        <time>2019-04-02T11:12:34Z</time>
      </trkpt>
      <trkpt lat="44.34097" lon="5.83562">
        <ele>603</ele>
        <time>2019-04-02T11:12:35Z</time>
      </trkpt>
      <trkpt lat="44.34102" lon="5.83567">
        <ele>603</ele>
        <time>2019-04-02T11:12:36Z</time>
      </trkpt>
      <trkpt lat="44.34106" lon="5.83571">
        <ele>603</ele>
        <time>2019-04-02T11:12:37Z</time>
      </trkpt>
      <trkpt lat="44.3411" lon="5.83575">
        <ele>603</ele>
        <time>2019-04-02T11:12:38Z</time>
      </trkpt>
      <trkpt lat="44.34114" lon="5.8358">
        <ele>603</ele>
        <time>2019-04-02T11:12:39Z</time>
      </trkpt>
      <trkpt lat="44.34119" lon="5.83584">
        <ele>603</ele>
        <time>2019-04-02T11:12:40Z</time>
      </trkpt>
      <trkpt lat="44.34124" lon="5.83589">
        <ele>603</ele>
        <time>2019-04-02T11:12:41Z</time>
      </trkpt>
      <trkpt lat="44.34128" lon="5.83594">
        <ele>603</ele>
        <time>2019-04-02T11:12:42Z</time>
      </trkpt>
      <trkpt lat="44.34133" lon="5.83599">
        <ele>603</ele>
        <time>2019-04-02T11:12:43Z</time>
      </trkpt>
      <trkpt lat="44.34138" lon="5.83603">
        <ele>603</ele>
        <time>2019-04-02T11:12:44Z</time>
      </trkpt>
      <trkpt lat="44.34143" lon="5.83608">
        <ele>603</ele>
        <time>2019-04-02T11:12:45Z</time>
      </trkpt>
      <trkpt lat="44.34149" lon="5.83614">
        <ele>603</ele>
        <time>2019-04-02T11:12:46Z</time>
      </trkpt>
      <trkpt lat="44.34154" lon="5.83619">
        <ele>603</ele>
        <time>2019-04-02T11:12:47Z</time>
      </trkpt>
      <trkpt lat="44.3416" lon="5.83625">
        <ele>603</ele>
        <time>2019-04-02T11:12:48Z</time>
      </trkpt>
      <trkpt lat="44.34165" lon="5.83631">
        <ele>603</ele>
        <time>2019-04-02T11:12:49Z</time>
      </trkpt>
      <trkpt lat="44.34171" lon="5.83636">
        <ele>603</ele>
        <time>2019-04-02T11:12:50Z</time>
      </trkpt>
      <trkpt lat="44.34177" lon="5.83642">
        <ele>603</ele>
        <time>2019-04-02T11:12:51Z</time>
      </trkpt>
      <trkpt lat="44.34182" lon="5.83647">
        <ele>603</ele>
        <time>2019-04-02T11:12:52Z</time>
      </trkpt>
      <trkpt lat="44.34188" lon="5.83653">
        <ele>603</ele>
        <time>2019-04-02T11:12:53Z</time>
      </trkpt>
      <trkpt lat="44.34193" lon="5.83659">
        <ele>603</ele>
        <time>2019-04-02T11:12:54Z</time>
      </trkpt>
      <trkpt lat="44.34199" lon="5.83665">
        <ele>603</ele>
        <time>2019-04-02T11:12:55Z</time>
      </trkpt>
      <trkpt lat="44.34204" lon="5.83671">
        <ele>603</ele>
        <time>2019-04-02T11:12:56Z</time>
      </trkpt>
      <trkpt lat="44.34209" lon="5.83678">
        <ele>603</ele>
        <time>2019-04-02T11:12:57Z</time>
      </trkpt>
      <trkpt lat="44.34214" lon="5.83684">
        <ele>603</ele>
        <time>2019-04-02T11:12:58Z</time>
      </trkpt>
      <trkpt lat="44.34219" lon="5.8369">
        <ele>603</ele>
        <time>2019-04-02T11:12:59Z</time>
      </trkpt>
      <trkpt lat="44.34224" lon="5.83696">
        <ele>603</ele>
        <time>2019-04-02T11:13:00Z</time>
      </trkpt>
      <trkpt lat="44.34229" lon="5.83702">
        <ele>603</ele>
        <time>2019-04-02T11:13:01Z</time>
      </trkpt>
      <trkpt lat="44.34233" lon="5.83708">
        <ele>603</ele>
        <time>2019-04-02T11:13:02Z</time>
      </trkpt>
      <trkpt lat="44.34237" lon="5.83713">
        <ele>603</ele>
        <time>2019-04-02T11:13:03Z</time>
      </trkpt>
      <trkpt lat="44.34242" lon="5.83719">
        <ele>603</ele>
        <time>2019-04-02T11:13:04Z</time>
      </trkpt>
      <trkpt lat="44.34246" lon="5.83725">
        <ele>603</ele>
        <time>2019-04-02T11:13:05Z</time>
      </trkpt>
      <trkpt lat="44.3425" lon="5.83731">
        <ele>603</ele>
        <time>2019-04-02T11:13:06Z</time>
      </trkpt>
      <trkpt lat="44.34254" lon="5.83736">
        <ele>603</ele>
        <time>2019-04-02T11:13:07Z</time>
      </trkpt>
      <trkpt lat="44.34258" lon="5.83742">
        <ele>603</ele>
        <time>2019-04-02T11:13:08Z</time>
      </trkpt>
      <trkpt lat="44.34262" lon="5.83747">
        <ele>603</ele>
        <time>2019-04-02T11:13:09Z</time>
      </trkpt>
      <trkpt lat="44.34267" lon="5.83753">
        <ele>603</ele>
        <time>2019-04-02T11:13:10Z</time>
      </trkpt>
      <trkpt lat="44.34271" lon="5.83758">
        <ele>603</ele>
        <time>2019-04-02T11:13:11Z</time>
      </trkpt>
      <trkpt lat="44.34275" lon="5.83763">
        <ele>603</ele>
        <time>2019-04-02T11:13:12Z</time>
      </trkpt>
      <trkpt lat="44.3428" lon="5.83769">
        <ele>603</ele>
        <time>2019-04-02T11:13:13Z</time>
      </trkpt>
      <trkpt lat="44.34284" lon="5.83774">
        <ele>603</ele>
        <time>2019-04-02T11:13:14Z</time>
      </trkpt>
      <trkpt lat="44.34288" lon="5.83779">
        <ele>603</ele>
        <time>2019-04-02T11:13:15Z</time>
      </trkpt>
      <trkpt lat="44.34292" lon="5.83785">
        <ele>603</ele>
        <time>2019-04-02T11:13:16Z</time>
      </trkpt>
      <trkpt lat="44.34296" lon="5.83791">
        <ele>603</ele>
        <time>2019-04-02T11:13:17Z</time>
      </trkpt>
      <trkpt lat="44.34301" lon="5.83796">
        <ele>603</ele>
        <time>2019-04-02T11:13:18Z</time>
      </trkpt>
      <trkpt lat="44.34305" lon="5.83802">
        <ele>603</ele>
        <time>2019-04-02T11:13:19Z</time>
      </trkpt>
      <trkpt lat="44.34309" lon="5.83807">
        <ele>603</ele>
        <time>2019-04-02T11:13:20Z</time>
      </trkpt>
      <trkpt lat="44.34314" lon="5.83813">
        <ele>603</ele>
        <time>2019-04-02T11:13:21Z</time>
      </trkpt>
      <trkpt lat="44.34318" lon="5.83819">
        <ele>603</ele>
        <time>2019-04-02T11:13:22Z</time>
      </trkpt>
      <trkpt lat="44.34322" lon="5.83824">
        <ele>603</ele>
        <time>2019-04-02T11:13:23Z</time>
      </trkpt>
      <trkpt lat="44.34326" lon="5.8383">
        <ele>603</ele>
        <time>2019-04-02T11:13:24Z</time>
      </trkpt>
      <trkpt lat="44.3433" lon="5.83835">
        <ele>603</ele>
        <time>2019-04-02T11:13:25Z</time>
      </trkpt>
      <trkpt lat="44.34335" lon="5.83841">
        <ele>603</ele>
        <time>2019-04-02T11:13:26Z</time>
      </trkpt>
      <trkpt lat="44.34339" lon="5.83846">
        <ele>603</ele>
        <time>2019-04-02T11:13:27Z</time>
      </trkpt>
      <trkpt lat="44.34343" lon="5.83852">
        <ele>603</ele>
        <time>2019-04-02T11:13:28Z</time>
      </trkpt>
      <trkpt lat="44.34347" lon="5.83857">
        <ele>603</ele>
        <time>2019-04-02T11:13:29Z</time>
      </trkpt>
      <trkpt lat="44.34351" lon="5.83862">
        <ele>603</ele>
        <time>2019-04-02T11:13:30Z</time>
      </trkpt>
      <trkpt lat="44.34356" lon="5.83868">
        <ele>603</ele>
        <time>2019-04-02T11:13:31Z</time>
      </trkpt>
      <trkpt lat="44.3436" lon="5.83873">
        <ele>603</ele>
        <time>2019-04-02T11:13:32Z</time>
      </trkpt>
      <trkpt lat="44.34364" lon="5.83879">
        <ele>604</ele>
        <time>2019-04-02T11:13:33Z</time>
      </trkpt>
      <trkpt lat="44.34368" lon="5.83884">
        <ele>604</ele>
        <time>2019-04-02T11:13:34Z</time>
      </trkpt>
      <trkpt lat="44.34372" lon="5.83889">
        <ele>604</ele>
        <time>2019-04-02T11:13:35Z</time>
      </trkpt>
      <trkpt lat="44.34376" lon="5.83895">
        <ele>604</ele>
        <time>2019-04-02T11:13:36Z</time>
      </trkpt>
      <trkpt lat="44.3438" lon="5.839">
        <ele>604</ele>
        <time>2019-04-02T11:13:37Z</time>
      </trkpt>
      <trkpt lat="44.34385" lon="5.83906">
        <ele>604</ele>
        <time>2019-04-02T11:13:38Z</time>
      </trkpt>
      <trkpt lat="44.34389" lon="5.83911">
        <ele>604</ele>
        <time>2019-04-02T11:13:39Z</time>
      </trkpt>
      <trkpt lat="44.34393" lon="5.83917">
        <ele>605</ele>
        <time>2019-04-02T11:13:40Z</time>
      </trkpt>
      <trkpt lat="44.34398" lon="5.83922">
        <ele>605</ele>
        <time>2019-04-02T11:13:41Z</time>
      </trkpt>
      <trkpt lat="44.34402" lon="5.83928">
        <ele>605</ele>
        <time>2019-04-02T11:13:42Z</time>
      </trkpt>
      <trkpt lat="44.34406" lon="5.83933">
        <ele>605</ele>
        <time>2019-04-02T11:13:43Z</time>
      </trkpt>
      <trkpt lat="44.34411" lon="5.83939">
        <ele>605</ele>
        <time>2019-04-02T11:13:44Z</time>
      </trkpt>
      <trkpt lat="44.34415" lon="5.83945">
        <ele>605</ele>
        <time>2019-04-02T11:13:45Z</time>
      </trkpt>
      <trkpt lat="44.3442" lon="5.8395">
        <ele>605</ele>
        <time>2019-04-02T11:13:46Z</time>
      </trkpt>
      <trkpt lat="44.34424" lon="5.83955">
        <ele>605</ele>
        <time>2019-04-02T11:13:47Z</time>
      </trkpt>
      <trkpt lat="44.34428" lon="5.83961">
        <ele>605</ele>
        <time>2019-04-02T11:13:48Z</time>
      </trkpt>
      <trkpt lat="44.34433" lon="5.83967">
        <ele>606</ele>
        <time>2019-04-02T11:13:49Z</time>
      </trkpt>
      <trkpt lat="44.34437" lon="5.83972">
        <ele>606</ele>
        <time>2019-04-02T11:13:50Z</time>
      </trkpt>
      <trkpt lat="44.34442" lon="5.83978">
        <ele>606</ele>
        <time>2019-04-02T11:13:51Z</time>
      </trkpt>
      <trkpt lat="44.34446" lon="5.83984">
        <ele>606</ele>
        <time>2019-04-02T11:13:52Z</time>
      </trkpt>
      <trkpt lat="44.34451" lon="5.8399">
        <ele>606</ele>
        <time>2019-04-02T11:13:53Z</time>
      </trkpt>
      <trkpt lat="44.34455" lon="5.83996">
        <ele>606</ele>
        <time>2019-04-02T11:13:54Z</time>
      </trkpt>
      <trkpt lat="44.3446" lon="5.84001">
        <ele>606</ele>
        <time>2019-04-02T11:13:55Z</time>
      </trkpt>
      <trkpt lat="44.34465" lon="5.84007">
        <ele>606</ele>
        <time>2019-04-02T11:13:56Z</time>
      </trkpt>
      <trkpt lat="44.34469" lon="5.84013">
        <ele>606</ele>
        <time>2019-04-02T11:13:57Z</time>
      </trkpt>
      <trkpt lat="44.34474" lon="5.84019">
        <ele>607</ele>
        <time>2019-04-02T11:13:58Z</time>
      </trkpt>
      <trkpt lat="44.34478" lon="5.84025">
        <ele>607</ele>
        <time>2019-04-02T11:13:59Z</time>
      </trkpt>
      <trkpt lat="44.34483" lon="5.84031">
        <ele>607</ele>
        <time>2019-04-02T11:14:00Z</time>
      </trkpt>
      <trkpt lat="44.34488" lon="5.84037">
        <ele>607</ele>
        <time>2019-04-02T11:14:01Z</time>
      </trkpt>
      <trkpt lat="44.34492" lon="5.84043">
        <ele>607</ele>
        <time>2019-04-02T11:14:02Z</time>
      </trkpt>
      <trkpt lat="44.34497" lon="5.84049">
        <ele>607</ele>
        <time>2019-04-02T11:14:03Z</time>
      </trkpt>
      <trkpt lat="44.34502" lon="5.84055">
        <ele>607</ele>
        <time>2019-04-02T11:14:04Z</time>
      </trkpt>
      <trkpt lat="44.34507" lon="5.84062">
        <ele>607</ele>
        <time>2019-04-02T11:14:05Z</time>
      </trkpt>
      <trkpt lat="44.34512" lon="5.84068">
        <ele>607</ele>
        <time>2019-04-02T11:14:06Z</time>
      </trkpt>
      <trkpt lat="44.34517" lon="5.84074">
        <ele>607</ele>
        <time>2019-04-02T11:14:07Z</time>
      </trkpt>
      <trkpt lat="44.34522" lon="5.84081">
        <ele>607</ele>
        <time>2019-04-02T11:14:08Z</time>
      </trkpt>
      <trkpt lat="44.34526" lon="5.84087">
        <ele>607</ele>
        <time>2019-04-02T11:14:09Z</time>
      </trkpt>
      <trkpt lat="44.34531" lon="5.84093">
        <ele>607</ele>
        <time>2019-04-02T11:14:11Z</time>
      </trkpt>
      <trkpt lat="44.34536" lon="5.84099">
        <ele>607</ele>
        <time>2019-04-02T11:14:11Z</time>
      </trkpt>
      <trkpt lat="44.34541" lon="5.84105">
        <ele>607</ele>
        <time>2019-04-02T11:14:12Z</time>
      </trkpt>
      <trkpt lat="44.34545" lon="5.84111">
        <ele>607</ele>
        <time>2019-04-02T11:14:13Z</time>
      </trkpt>
      <trkpt lat="44.3455" lon="5.84118">
        <ele>607</ele>
        <time>2019-04-02T11:14:14Z</time>
      </trkpt>
      <trkpt lat="44.34555" lon="5.84124">
        <ele>607</ele>
        <time>2019-04-02T11:14:15Z</time>
      </trkpt>
      <trkpt lat="44.3456" lon="5.8413">
        <ele>607</ele>
        <time>2019-04-02T11:14:16Z</time>
      </trkpt>
      <trkpt lat="44.34564" lon="5.84137">
        <ele>607</ele>
        <time>2019-04-02T11:14:17Z</time>
      </trkpt>
      <trkpt lat="44.34569" lon="5.84143">
        <ele>607</ele>
        <time>2019-04-02T11:14:18Z</time>
      </trkpt>
      <trkpt lat="44.34573" lon="5.8415">
        <ele>607</ele>
        <time>2019-04-02T11:14:19Z</time>
      </trkpt>
      <trkpt lat="44.34578" lon="5.84156">
        <ele>608</ele>
        <time>2019-04-02T11:14:20Z</time>
      </trkpt>
      <trkpt lat="44.34583" lon="5.84163">
        <ele>608</ele>
        <time>2019-04-02T11:14:21Z</time>
      </trkpt>
      <trkpt lat="44.34587" lon="5.84169">
        <ele>608</ele>
        <time>2019-04-02T11:14:22Z</time>
      </trkpt>
      <trkpt lat="44.34591" lon="5.84176">
        <ele>608</ele>
        <time>2019-04-02T11:14:23Z</time>
      </trkpt>
      <trkpt lat="44.34595" lon="5.84183">
        <ele>608</ele>
        <time>2019-04-02T11:14:24Z</time>
      </trkpt>
      <trkpt lat="44.34599" lon="5.8419">
        <ele>608</ele>
        <time>2019-04-02T11:14:25Z</time>
      </trkpt>
      <trkpt lat="44.34602" lon="5.84197">
        <ele>608</ele>
        <time>2019-04-02T11:14:26Z</time>
      </trkpt>
      <trkpt lat="44.34605" lon="5.84204">
        <ele>609</ele>
        <time>2019-04-02T11:14:27Z</time>
      </trkpt>
      <trkpt lat="44.34608" lon="5.84211">
        <ele>609</ele>
        <time>2019-04-02T11:14:28Z</time>
      </trkpt>
      <trkpt lat="44.34611" lon="5.84219">
        <ele>609</ele>
        <time>2019-04-02T11:14:29Z</time>
      </trkpt>
      <trkpt lat="44.34613" lon="5.84226">
        <ele>609</ele>
        <time>2019-04-02T11:14:30Z</time>
      </trkpt>
      <trkpt lat="44.34616" lon="5.84234">
        <ele>609</ele>
        <time>2019-04-02T11:14:31Z</time>
      </trkpt>
      <trkpt lat="44.34618" lon="5.84241">
        <ele>609</ele>
        <time>2019-04-02T11:14:32Z</time>
      </trkpt>
      <trkpt lat="44.3462" lon="5.84249">
        <ele>609</ele>
        <time>2019-04-02T11:14:33Z</time>
      </trkpt>
      <trkpt lat="44.34622" lon="5.84257">
        <ele>609</ele>
        <time>2019-04-02T11:14:34Z</time>
      </trkpt>
      <trkpt lat="44.34624" lon="5.84264">
        <ele>609</ele>
        <time>2019-04-02T11:14:35Z</time>
      </trkpt>
      <trkpt lat="44.34625" lon="5.84272">
        <ele>610</ele>
        <time>2019-04-02T11:14:36Z</time>
      </trkpt>
      <trkpt lat="44.34627" lon="5.84279">
        <ele>610</ele>
        <time>2019-04-02T11:14:37Z</time>
      </trkpt>
      <trkpt lat="44.34629" lon="5.84287">
        <ele>610</ele>
        <time>2019-04-02T11:14:38Z</time>
      </trkpt>
      <trkpt lat="44.3463" lon="5.84295">
        <ele>610</ele>
        <time>2019-04-02T11:14:39Z</time>
      </trkpt>
      <trkpt lat="44.34631" lon="5.84303">
        <ele>610</ele>
        <time>2019-04-02T11:14:40Z</time>
      </trkpt>
      <trkpt lat="44.34632" lon="5.8431">
        <ele>610</ele>
        <time>2019-04-02T11:14:41Z</time>
      </trkpt>
      <trkpt lat="44.34634" lon="5.84318">
        <ele>610</ele>
        <time>2019-04-02T11:14:42Z</time>
      </trkpt>
      <trkpt lat="44.34636" lon="5.84325">
        <ele>610</ele>
        <time>2019-04-02T11:14:43Z</time>
      </trkpt>
      <trkpt lat="44.34637" lon="5.84333">
        <ele>610</ele>
        <time>2019-04-02T11:14:44Z</time>
      </trkpt>
      <trkpt lat="44.34639" lon="5.8434">
        <ele>610</ele>
        <time>2019-04-02T11:14:45Z</time>
      </trkpt>
      <trkpt lat="44.34641" lon="5.84347">
        <ele>610</ele>
        <time>2019-04-02T11:14:46Z</time>
      </trkpt>
      <trkpt lat="44.34643" lon="5.84354">
        <ele>611</ele>
        <time>2019-04-02T11:14:47Z</time>
      </trkpt>
      <trkpt lat="44.34645" lon="5.84361">
        <ele>611</ele>
        <time>2019-04-02T11:14:48Z</time>
      </trkpt>
      <trkpt lat="44.34647" lon="5.84367">
        <ele>611</ele>
        <time>2019-04-02T11:14:49Z</time>
      </trkpt>
      <trkpt lat="44.3465" lon="5.84373">
        <ele>611</ele>
        <time>2019-04-02T11:14:50Z</time>
      </trkpt>
      <trkpt lat="44.34652" lon="5.8438">
        <ele>611</ele>
        <time>2019-04-02T11:14:51Z</time>
      </trkpt>
      <trkpt lat="44.34655" lon="5.84386">
        <ele>612</ele>
        <time>2019-04-02T11:14:52Z</time>
      </trkpt>
      <trkpt lat="44.34658" lon="5.84392">
        <ele>612</ele>
        <time>2019-04-02T11:14:53Z</time>
      </trkpt>
      <trkpt lat="44.34661" lon="5.84399">
        <ele>612</ele>
        <time>2019-04-02T11:14:54Z</time>
      </trkpt>
      <trkpt lat="44.34664" lon="5.84405">
        <ele>612</ele>
        <time>2019-04-02T11:14:55Z</time>
      </trkpt>
      <trkpt lat="44.34667" lon="5.84411">
        <ele>612</ele>
        <time>2019-04-02T11:14:56Z</time>
      </trkpt>
      <trkpt lat="44.34671" lon="5.84417">
        <ele>613</ele>
        <time>2019-04-02T11:14:57Z</time>
      </trkpt>
      <trkpt lat="44.34674" lon="5.84423">
        <ele>613</ele>
        <time>2019-04-02T11:14:58Z</time>
      </trkpt>
      <trkpt lat="44.34678" lon="5.84428">
        <ele>613</ele>
        <time>2019-04-02T11:14:59Z</time>
      </trkpt>
      <trkpt lat="44.34682" lon="5.84434">
        <ele>613</ele>
        <time>2019-04-02T11:15:00Z</time>
      </trkpt>
      <trkpt lat="44.34686" lon="5.84439">
        <ele>613</ele>
        <time>2019-04-02T11:15:01Z</time>
      </trkpt>
      <trkpt lat="44.3469" lon="5.84443">
        <ele>614</ele>
        <time>2019-04-02T11:15:02Z</time>
      </trkpt>
      <trkpt lat="44.34694" lon="5.84448">
        <ele>614</ele>
        <time>2019-04-02T11:15:03Z</time>
      </trkpt>
      <trkpt lat="44.34698" lon="5.84453">
        <ele>614</ele>
        <time>2019-04-02T11:15:04Z</time>
      </trkpt>
      <trkpt lat="44.34702" lon="5.84457">
        <ele>614</ele>
        <time>2019-04-02T11:15:05Z</time>
      </trkpt>
      <trkpt lat="44.34705" lon="5.84462">
        <ele>615</ele>
        <time>2019-04-02T11:15:06Z</time>
      </trkpt>
      <trkpt lat="44.3471" lon="5.84467">
        <ele>615</ele>
        <time>2019-04-02T11:15:07Z</time>
      </trkpt>
      <trkpt lat="44.34714" lon="5.84472">
        <ele>615</ele>
        <time>2019-04-02T11:15:08Z</time>
      </trkpt>
      <trkpt lat="44.34718" lon="5.84477">
        <ele>615</ele>
        <time>2019-04-02T11:15:09Z</time>
      </trkpt>
      <trkpt lat="44.34722" lon="5.84481">
        <ele>615</ele>
        <time>2019-04-02T11:15:10Z</time>
      </trkpt>
      <trkpt lat="44.34726" lon="5.84487">
        <ele>615</ele>
        <time>2019-04-02T11:15:11Z</time>
      </trkpt>
      <trkpt lat="44.34731" lon="5.84492">
        <ele>615</ele>
        <time>2019-04-02T11:15:12Z</time>
      </trkpt>
      <trkpt lat="44.34735" lon="5.84497">
        <ele>615</ele>
        <time>2019-04-02T11:15:13Z</time>
      </trkpt>
      <trkpt lat="44.3474" lon="5.84502">
        <ele>616</ele>
        <time>2019-04-02T11:15:14Z</time>
      </trkpt>
      <trkpt lat="44.34744" lon="5.84507">
        <ele>616</ele>
        <time>2019-04-02T11:15:15Z</time>
      </trkpt>
      <trkpt lat="44.34748" lon="5.84512">
        <ele>616</ele>
        <time>2019-04-02T11:15:16Z</time>
      </trkpt>
      <trkpt lat="44.34753" lon="5.84517">
        <ele>616</ele>
        <time>2019-04-02T11:15:17Z</time>
      </trkpt>
      <trkpt lat="44.34757" lon="5.84522">
        <ele>616</ele>
        <time>2019-04-02T11:15:18Z</time>
      </trkpt>
      <trkpt lat="44.34761" lon="5.84527">
        <ele>616</ele>
        <time>2019-04-02T11:15:19Z</time>
      </trkpt>
      <trkpt lat="44.34766" lon="5.84532">
        <ele>616</ele>
        <time>2019-04-02T11:15:20Z</time>
      </trkpt>
      <trkpt lat="44.3477" lon="5.84538">
        <ele>616</ele>
        <time>2019-04-02T11:15:21Z</time>
      </trkpt>
      <trkpt lat="44.34774" lon="5.84543">
        <ele>616</ele>
        <time>2019-04-02T11:15:22Z</time>
      </trkpt>
      <trkpt lat="44.34779" lon="5.84548">
        <ele>616</ele>
        <time>2019-04-02T11:15:23Z</time>
      </trkpt>
      <trkpt lat="44.34783" lon="5.84553">
        <ele>616</ele>
        <time>2019-04-02T11:15:24Z</time>
      </trkpt>
      <trkpt lat="44.34787" lon="5.84558">
        <ele>617</ele>
        <time>2019-04-02T11:15:25Z</time>
      </trkpt>
      <trkpt lat="44.34792" lon="5.84563">
        <ele>617</ele>
        <time>2019-04-02T11:15:26Z</time>
      </trkpt>
      <trkpt lat="44.34796" lon="5.84568">
        <ele>617</ele>
        <time>2019-04-02T11:15:27Z</time>
      </trkpt>
      <trkpt lat="44.348" lon="5.84573">
        <ele>617</ele>
        <time>2019-04-02T11:15:28Z</time>
      </trkpt>
      <trkpt lat="44.34804" lon="5.84578">
        <ele>617</ele>
        <time>2019-04-02T11:15:29Z</time>
      </trkpt>
      <trkpt lat="44.34808" lon="5.84583">
        <ele>617</ele>
        <time>2019-04-02T11:15:30Z</time>
      </trkpt>
      <trkpt lat="44.34813" lon="5.84588">
        <ele>617</ele>
        <time>2019-04-02T11:15:31Z</time>
      </trkpt>
      <trkpt lat="44.34818" lon="5.84593">
        <ele>617</ele>
        <time>2019-04-02T11:15:32Z</time>
      </trkpt>
      <trkpt lat="44.34822" lon="5.84599">
        <ele>617</ele>
        <time>2019-04-02T11:15:33Z</time>
      </trkpt>
      <trkpt lat="44.34826" lon="5.84604">
        <ele>617</ele>
        <time>2019-04-02T11:15:34Z</time>
      </trkpt>
      <trkpt lat="44.3483" lon="5.8461">
        <ele>617</ele>
        <time>2019-04-02T11:15:35Z</time>
      </trkpt>
      <trkpt lat="44.34834" lon="5.84616">
        <ele>618</ele>
        <time>2019-04-02T11:15:36Z</time>
      </trkpt>
      <trkpt lat="44.34838" lon="5.84621">
        <ele>618</ele>
        <time>2019-04-02T11:15:37Z</time>
      </trkpt>
      <trkpt lat="44.34842" lon="5.84627">
        <ele>618</ele>
        <time>2019-04-02T11:15:38Z</time>
      </trkpt>
      <trkpt lat="44.34846" lon="5.84633">
        <ele>618</ele>
        <time>2019-04-02T11:15:39Z</time>
      </trkpt>
      <trkpt lat="44.3485" lon="5.84639">
        <ele>618</ele>
        <time>2019-04-02T11:15:40Z</time>
      </trkpt>
      <trkpt lat="44.34853" lon="5.84645">
        <ele>618</ele>
        <time>2019-04-02T11:15:41Z</time>
      </trkpt>
      <trkpt lat="44.34857" lon="5.84651">
        <ele>618</ele>
        <time>2019-04-02T11:15:42Z</time>
      </trkpt>
      <trkpt lat="44.34861" lon="5.84657">
        <ele>618</ele>
        <time>2019-04-02T11:15:43Z</time>
      </trkpt>
      <trkpt lat="44.34864" lon="5.84664">
        <ele>618</ele>
        <time>2019-04-02T11:15:44Z</time>
      </trkpt>
      <trkpt lat="44.34868" lon="5.8467">
        <ele>618</ele>
        <time>2019-04-02T11:15:45Z</time>
      </trkpt>
      <trkpt lat="44.34872" lon="5.84677">
        <ele>618</ele>
        <time>2019-04-02T11:15:46Z</time>
      </trkpt>
      <trkpt lat="44.34875" lon="5.84684">
        <ele>618</ele>
        <time>2019-04-02T11:15:47Z</time>
      </trkpt>
      <trkpt lat="44.34879" lon="5.8469">
        <ele>618</ele>
        <time>2019-04-02T11:15:48Z</time>
      </trkpt>
      <trkpt lat="44.34883" lon="5.84697">
        <ele>619</ele>
        <time>2019-04-02T11:15:49Z</time>
      </trkpt>
      <trkpt lat="44.34887" lon="5.84703">
        <ele>619</ele>
        <time>2019-04-02T11:15:50Z</time>
      </trkpt>
      <trkpt lat="44.34891" lon="5.8471">
        <ele>619</ele>
        <time>2019-04-02T11:15:51Z</time>
      </trkpt>
      <trkpt lat="44.34895" lon="5.84716">
        <ele>619</ele>
        <time>2019-04-02T11:15:52Z</time>
      </trkpt>
      <trkpt lat="44.34899" lon="5.84722">
        <ele>619</ele>
        <time>2019-04-02T11:15:53Z</time>
      </trkpt>
      <trkpt lat="44.34903" lon="5.84727">
        <ele>619</ele>
        <time>2019-04-02T11:15:54Z</time>
      </trkpt>
      <trkpt lat="44.34908" lon="5.84733">
        <ele>619</ele>
        <time>2019-04-02T11:15:55Z</time>
      </trkpt>
      <trkpt lat="44.34912" lon="5.84738">
        <ele>619</ele>
        <time>2019-04-02T11:15:56Z</time>
      </trkpt>
      <trkpt lat="44.34917" lon="5.84743">
        <ele>619</ele>
        <time>2019-04-02T11:15:57Z</time>
      </trkpt>
      <trkpt lat="44.34922" lon="5.84748">
        <ele>620</ele>
        <time>2019-04-02T11:15:58Z</time>
      </trkpt>
      <trkpt lat="44.34927" lon="5.84752">
        <ele>620</ele>
        <time>2019-04-02T11:15:59Z</time>
      </trkpt>
      <trkpt lat="44.34932" lon="5.84757">
        <ele>620</ele>
        <time>2019-04-02T11:16:00Z</time>
      </trkpt>
      <trkpt lat="44.34937" lon="5.84761">
        <ele>620</ele>
        <time>2019-04-02T11:16:01Z</time>
      </trkpt>
      <trkpt lat="44.34942" lon="5.84766">
        <ele>620</ele>
        <time>2019-04-02T11:16:02Z</time>
      </trkpt>
      <trkpt lat="44.34947" lon="5.8477">
        <ele>620</ele>
        <time>2019-04-02T11:16:03Z</time>
      </trkpt>
      <trkpt lat="44.34952" lon="5.84775">
        <ele>620</ele>
        <time>2019-04-02T11:16:04Z</time>
      </trkpt>
      <trkpt lat="44.34957" lon="5.84779">
        <ele>620</ele>
        <time>2019-04-02T11:16:05Z</time>
      </trkpt>
      <trkpt lat="44.34962" lon="5.84783">
        <ele>620</ele>
        <time>2019-04-02T11:16:06Z</time>
      </trkpt>
      <trkpt lat="44.34967" lon="5.84787">
        <ele>620</ele>
        <time>2019-04-02T11:16:07Z</time>
      </trkpt>
      <trkpt lat="44.34972" lon="5.84792">
        <ele>620</ele>
        <time>2019-04-02T11:16:08Z</time>
      </trkpt>
      <trkpt lat="44.34977" lon="5.84796">
        <ele>620</ele>
        <time>2019-04-02T11:16:09Z</time>
      </trkpt>
      <trkpt lat="44.34982" lon="5.848">
        <ele>620</ele>
        <time>2019-04-02T11:16:11Z</time>
      </trkpt>
      <trkpt lat="44.34987" lon="5.84804">
        <ele>620</ele>
        <time>2019-04-02T11:16:11Z</time>
      </trkpt>
      <trkpt lat="44.34992" lon="5.84809">
        <ele>620</ele>
        <time>2019-04-02T11:16:12Z</time>
      </trkpt>
      <trkpt lat="44.34996" lon="5.84813">
        <ele>620</ele>
        <time>2019-04-02T11:16:13Z</time>
      </trkpt>
      <trkpt lat="44.35001" lon="5.84818">
        <ele>620</ele>
        <time>2019-04-02T11:16:14Z</time>
      </trkpt>
      <trkpt lat="44.35006" lon="5.84822">
        <ele>620</ele>
        <time>2019-04-02T11:16:15Z</time>
      </trkpt>
      <trkpt lat="44.35011" lon="5.84827">
        <ele>620</ele>
        <time>2019-04-02T11:16:16Z</time>
      </trkpt>
      <trkpt lat="44.35015" lon="5.84831">
        <ele>620</ele>
        <time>2019-04-02T11:16:17Z</time>
      </trkpt>
      <trkpt lat="44.3502" lon="5.84836">
        <ele>620</ele>
        <time>2019-04-02T11:16:18Z</time>
      </trkpt>
      <trkpt lat="44.35024" lon="5.8484">
        <ele>620</ele>
        <time>2019-04-02T11:16:19Z</time>
      </trkpt>
      <trkpt lat="44.35028" lon="5.84845">
        <ele>620</ele>
        <time>2019-04-02T11:16:20Z</time>
      </trkpt>
      <trkpt lat="44.35032" lon="5.8485">
        <ele>620</ele>
        <time>2019-04-02T11:16:21Z</time>
      </trkpt>
      <trkpt lat="44.35036" lon="5.84854">
        <ele>620</ele>
        <time>2019-04-02T11:16:22Z</time>
      </trkpt>
      <trkpt lat="44.3504" lon="5.84859">
        <ele>620</ele>
        <time>2019-04-02T11:16:23Z</time>
      </trkpt>
      <trkpt lat="44.35044" lon="5.84864">
        <ele>620</ele>
        <time>2019-04-02T11:16:24Z</time>
      </trkpt>
      <trkpt lat="44.35048" lon="5.8487">
        <ele>620</ele>
        <time>2019-04-02T11:16:25Z</time>
      </trkpt>
      <trkpt lat="44.35051" lon="5.84875">
        <ele>620</ele>
        <time>2019-04-02T11:16:26Z</time>
      </trkpt>
      <trkpt lat="44.35056" lon="5.8488">
        <ele>620</ele>
        <time>2019-04-02T11:16:27Z</time>
      </trkpt>
      <trkpt lat="44.35059" lon="5.84886">
        <ele>621</ele>
        <time>2019-04-02T11:16:28Z</time>
      </trkpt>
      <trkpt lat="44.35063" lon="5.84892">
        <ele>621</ele>
        <time>2019-04-02T11:16:29Z</time>
      </trkpt>
      <trkpt lat="44.35067" lon="5.84898">
        <ele>621</ele>
        <time>2019-04-02T11:16:30Z</time>
      </trkpt>
      <trkpt lat="44.3507" lon="5.84903">
        <ele>621</ele>
        <time>2019-04-02T11:16:31Z</time>
      </trkpt>
      <trkpt lat="44.35074" lon="5.84909">
        <ele>621</ele>
        <time>2019-04-02T11:16:32Z</time>
      </trkpt>
      <trkpt lat="44.35077" lon="5.84915">
        <ele>621</ele>
        <time>2019-04-02T11:16:33Z</time>
      </trkpt>
      <trkpt lat="44.35081" lon="5.84921">
        <ele>621</ele>
        <time>2019-04-02T11:16:34Z</time>
      </trkpt>
      <trkpt lat="44.35084" lon="5.84927">
        <ele>621</ele>
        <time>2019-04-02T11:16:35Z</time>
      </trkpt>
      <trkpt lat="44.35087" lon="5.84933">
        <ele>622</ele>
        <time>2019-04-02T11:16:36Z</time>
      </trkpt>
      <trkpt lat="44.3509" lon="5.84939">
        <ele>622</ele>
        <time>2019-04-02T11:16:37Z</time>
      </trkpt>
      <trkpt lat="44.35094" lon="5.84945">
        <ele>622</ele>
        <time>2019-04-02T11:16:38Z</time>
      </trkpt>
      <trkpt lat="44.35097" lon="5.84951">
        <ele>622</ele>
        <time>2019-04-02T11:16:39Z</time>
      </trkpt>
      <trkpt lat="44.351" lon="5.84958">
        <ele>622</ele>
        <time>2019-04-02T11:16:40Z</time>
      </trkpt>
      <trkpt lat="44.35103" lon="5.84965">
        <ele>622</ele>
        <time>2019-04-02T11:16:41Z</time>
      </trkpt>
      <trkpt lat="44.35106" lon="5.84971">
        <ele>622</ele>
        <time>2019-04-02T11:16:42Z</time>
      </trkpt>
      <trkpt lat="44.35109" lon="5.84977">
        <ele>622</ele>
        <time>2019-04-02T11:16:43Z</time>
      </trkpt>
      <trkpt lat="44.35111" lon="5.84984">
        <ele>623</ele>
        <time>2019-04-02T11:16:44Z</time>
      </trkpt>
      <trkpt lat="44.35114" lon="5.8499">
        <ele>623</ele>
        <time>2019-04-02T11:16:45Z</time>
      </trkpt>
      <trkpt lat="44.35117" lon="5.84997">
        <ele>623</ele>
        <time>2019-04-02T11:16:46Z</time>
      </trkpt>
      <trkpt lat="44.35119" lon="5.85003">
        <ele>623</ele>
        <time>2019-04-02T11:16:47Z</time>
      </trkpt>
      <trkpt lat="44.35122" lon="5.85009">
        <ele>623</ele>
        <time>2019-04-02T11:16:48Z</time>
      </trkpt>
      <trkpt lat="44.35125" lon="5.85015">
        <ele>623</ele>
        <time>2019-04-02T11:16:49Z</time>
      </trkpt>
      <trkpt lat="44.35128" lon="5.85021">
        <ele>624</ele>
        <time>2019-04-02T11:16:50Z</time>
      </trkpt>
      <trkpt lat="44.3513" lon="5.85027">
        <ele>624</ele>
        <time>2019-04-02T11:16:51Z</time>
      </trkpt>
      <trkpt lat="44.35133" lon="5.85034">
        <ele>624</ele>
        <time>2019-04-02T11:16:52Z</time>
      </trkpt>
      <trkpt lat="44.35136" lon="5.8504">
        <ele>624</ele>
        <time>2019-04-02T11:16:53Z</time>
      </trkpt>
      <trkpt lat="44.35139" lon="5.85046">
        <ele>624</ele>
        <time>2019-04-02T11:16:54Z</time>
      </trkpt>
      <trkpt lat="44.35142" lon="5.85052">
        <ele>625</ele>
        <time>2019-04-02T11:16:55Z</time>
      </trkpt>
      <trkpt lat="44.35146" lon="5.85057">
        <ele>625</ele>
        <time>2019-04-02T11:16:56Z</time>
      </trkpt>
      <trkpt lat="44.35149" lon="5.85063">
        <ele>625</ele>
        <time>2019-04-02T11:16:57Z</time>
      </trkpt>
      <trkpt lat="44.35153" lon="5.85068">
        <ele>625</ele>
        <time>2019-04-02T11:16:58Z</time>
      </trkpt>
      <trkpt lat="44.35157" lon="5.85073">
        <ele>626</ele>
        <time>2019-04-02T11:16:59Z</time>
      </trkpt>
      <trkpt lat="44.35161" lon="5.85078">
        <ele>626</ele>
        <time>2019-04-02T11:17:00Z</time>
      </trkpt>
      <trkpt lat="44.35165" lon="5.85083">
        <ele>626</ele>
        <time>2019-04-02T11:17:01Z</time>
      </trkpt>
      <trkpt lat="44.3517" lon="5.85088">
        <ele>626</ele>
        <time>2019-04-02T11:17:02Z</time>
      </trkpt>
      <trkpt lat="44.35174" lon="5.85093">
        <ele>626</ele>
        <time>2019-04-02T11:17:03Z</time>
      </trkpt>
      <trkpt lat="44.35179" lon="5.85098">
        <ele>627</ele>
        <time>2019-04-02T11:17:04Z</time>
      </trkpt>
      <trkpt lat="44.35183" lon="5.85103">
        <ele>627</ele>
        <time>2019-04-02T11:17:05Z</time>
      </trkpt>
      <trkpt lat="44.35188" lon="5.85108">
        <ele>627</ele>
        <time>2019-04-02T11:17:06Z</time>
      </trkpt>
      <trkpt lat="44.35193" lon="5.85113">
        <ele>627</ele>
        <time>2019-04-02T11:17:07Z</time>
      </trkpt>
      <trkpt lat="44.35197" lon="5.85118">
        <ele>627</ele>
        <time>2019-04-02T11:17:08Z</time>
      </trkpt>
      <trkpt lat="44.35202" lon="5.85123">
        <ele>627</ele>
        <time>2019-04-02T11:17:09Z</time>
      </trkpt>
      <trkpt lat="44.35206" lon="5.85129">
        <ele>627</ele>
        <time>2019-04-02T11:17:10Z</time>
      </trkpt>
      <trkpt lat="44.3521" lon="5.85134">
        <ele>627</ele>
        <time>2019-04-02T11:17:11Z</time>
      </trkpt>
      <trkpt lat="44.35214" lon="5.8514">
        <ele>627</ele>
        <time>2019-04-02T11:17:12Z</time>
      </trkpt>
      <trkpt lat="44.35218" lon="5.85147">
        <ele>627</ele>
        <time>2019-04-02T11:17:13Z</time>
      </trkpt>
      <trkpt lat="44.35222" lon="5.85153">
        <ele>627</ele>
        <time>2019-04-02T11:17:14Z</time>
      </trkpt>
      <trkpt lat="44.35225" lon="5.85159">
        <ele>627</ele>
        <time>2019-04-02T11:17:15Z</time>
      </trkpt>
      <trkpt lat="44.35228" lon="5.85166">
        <ele>627</ele>
        <time>2019-04-02T11:17:16Z</time>
      </trkpt>
      <trkpt lat="44.35231" lon="5.85173">
        <ele>627</ele>
        <time>2019-04-02T11:17:17Z</time>
      </trkpt>
      <trkpt lat="44.35234" lon="5.85179">
        <ele>628</ele>
        <time>2019-04-02T11:17:18Z</time>
      </trkpt>
      <trkpt lat="44.35236" lon="5.85186">
        <ele>628</ele>
        <time>2019-04-02T11:17:19Z</time>
      </trkpt>
      <trkpt lat="44.35238" lon="5.85193">
        <ele>628</ele>
        <time>2019-04-02T11:17:20Z</time>
      </trkpt>
      <trkpt lat="44.3524" lon="5.852">
        <ele>628</ele>
        <time>2019-04-02T11:17:21Z</time>
      </trkpt>
      <trkpt lat="44.35242" lon="5.85207">
        <ele>628</ele>
        <time>2019-04-02T11:17:22Z</time>
      </trkpt>
      <trkpt lat="44.35244" lon="5.85214">
        <ele>628</ele>
        <time>2019-04-02T11:17:23Z</time>
      </trkpt>
      <trkpt lat="44.35247" lon="5.8522">
        <ele>629</ele>
        <time>2019-04-02T11:17:24Z</time>
      </trkpt>
      <trkpt lat="44.35249" lon="5.85227">
        <ele>629</ele>
        <time>2019-04-02T11:17:25Z</time>
      </trkpt>
      <trkpt lat="44.35251" lon="5.85233">
        <ele>629</ele>
        <time>2019-04-02T11:17:26Z</time>
      </trkpt>
      <trkpt lat="44.35253" lon="5.8524">
        <ele>629</ele>
        <time>2019-04-02T11:17:27Z</time>
      </trkpt>
      <trkpt lat="44.35255" lon="5.85247">
        <ele>629</ele>
        <time>2019-04-02T11:17:28Z</time>
      </trkpt>
      <trkpt lat="44.35257" lon="5.85254">
        <ele>629</ele>
        <time>2019-04-02T11:17:29Z</time>
      </trkpt>
      <trkpt lat="44.35259" lon="5.85261">
        <ele>629</ele>
        <time>2019-04-02T11:17:30Z</time>
      </trkpt>
      <trkpt lat="44.35261" lon="5.85267">
        <ele>629</ele>
        <time>2019-04-02T11:17:31Z</time>
      </trkpt>
      <trkpt lat="44.35263" lon="5.85274">
        <ele>629</ele>
        <time>2019-04-02T11:17:32Z</time>
      </trkpt>
      <trkpt lat="44.35265" lon="5.85281">
        <ele>630</ele>
        <time>2019-04-02T11:17:33Z</time>
      </trkpt>
      <trkpt lat="44.35267" lon="5.85287">
        <ele>630</ele>
        <time>2019-04-02T11:17:34Z</time>
      </trkpt>
      <trkpt lat="44.35269" lon="5.85293">
        <ele>630</ele>
        <time>2019-04-02T11:17:35Z</time>
      </trkpt>
      <trkpt lat="44.35271" lon="5.853">
        <ele>630</ele>
        <time>2019-04-02T11:17:36Z</time>
      </trkpt>
      <trkpt lat="44.35273" lon="5.85306">
        <ele>630</ele>
        <time>2019-04-02T11:17:37Z</time>
      </trkpt>
      <trkpt lat="44.35274" lon="5.85313">
        <ele>630</ele>
        <time>2019-04-02T11:17:38Z</time>
      </trkpt>
      <trkpt lat="44.35276" lon="5.85319">
        <ele>630</ele>
        <time>2019-04-02T11:17:39Z</time>
      </trkpt>
      <trkpt lat="44.35278" lon="5.85326">
        <ele>630</ele>
        <time>2019-04-02T11:17:40Z</time>
      </trkpt>
      <trkpt lat="44.35279" lon="5.85332">
        <ele>630</ele>
        <time>2019-04-02T11:17:41Z</time>
      </trkpt>
      <trkpt lat="44.35282" lon="5.85338">
        <ele>630</ele>
        <time>2019-04-02T11:17:42Z</time>
      </trkpt>
      <trkpt lat="44.35284" lon="5.85344">
        <ele>630</ele>
        <time>2019-04-02T11:17:43Z</time>
      </trkpt>
      <trkpt lat="44.35286" lon="5.8535">
        <ele>630</ele>
        <time>2019-04-02T11:17:44Z</time>
      </trkpt>
      <trkpt lat="44.35288" lon="5.85357">
        <ele>630</ele>
        <time>2019-04-02T11:17:45Z</time>
      </trkpt>
      <trkpt lat="44.3529" lon="5.85363">
        <ele>630</ele>
        <time>2019-04-02T11:17:46Z</time>
      </trkpt>
      <trkpt lat="44.35292" lon="5.85369">
        <ele>630</ele>
        <time>2019-04-02T11:17:47Z</time>
      </trkpt>
      <trkpt lat="44.35295" lon="5.85375">
        <ele>630</ele>
        <time>2019-04-02T11:17:48Z</time>
      </trkpt>
      <trkpt lat="44.35297" lon="5.85382">
        <ele>630</ele>
        <time>2019-04-02T11:17:49Z</time>
      </trkpt>
      <trkpt lat="44.35299" lon="5.85388">
        <ele>630</ele>
        <time>2019-04-02T11:17:50Z</time>
      </trkpt>
      <trkpt lat="44.35301" lon="5.85394">
        <ele>630</ele>
        <time>2019-04-02T11:17:51Z</time>
      </trkpt>
      <trkpt lat="44.35303" lon="5.85401">
        <ele>631</ele>
        <time>2019-04-02T11:17:52Z</time>
      </trkpt>
      <trkpt lat="44.35306" lon="5.85407">
        <ele>631</ele>
        <time>2019-04-02T11:17:53Z</time>
      </trkpt>
      <trkpt lat="44.35308" lon="5.85414">
        <ele>631</ele>
        <time>2019-04-02T11:17:54Z</time>
      </trkpt>
      <trkpt lat="44.35311" lon="5.8542">
        <ele>631</ele>
        <time>2019-04-02T11:17:55Z</time>
      </trkpt>
      <trkpt lat="44.35314" lon="5.85426">
        <ele>631</ele>
        <time>2019-04-02T11:17:56Z</time>
      </trkpt>
      <trkpt lat="44.35317" lon="5.85432">
        <ele>631</ele>
        <time>2019-04-02T11:17:57Z</time>
      </trkpt>
      <trkpt lat="44.3532" lon="5.85438">
        <ele>632</ele>
        <time>2019-04-02T11:17:58Z</time>
      </trkpt>
      <trkpt lat="44.35323" lon="5.85444">
        <ele>632</ele>
        <time>2019-04-02T11:17:59Z</time>
      </trkpt>
      <trkpt lat="44.35327" lon="5.8545">
        <ele>632</ele>
        <time>2019-04-02T11:18:00Z</time>
      </trkpt>
      <trkpt lat="44.35331" lon="5.85456">
        <ele>633</ele>
        <time>2019-04-02T11:18:01Z</time>
      </trkpt>
      <trkpt lat="44.35334" lon="5.85461">
        <ele>633</ele>
        <time>2019-04-02T11:18:02Z</time>
      </trkpt>
      <trkpt lat="44.35339" lon="5.85466">
        <ele>633</ele>
        <time>2019-04-02T11:18:03Z</time>
      </trkpt>
      <trkpt lat="44.35342" lon="5.85471">
        <ele>633</ele>
        <time>2019-04-02T11:18:04Z</time>
      </trkpt>
      <trkpt lat="44.35347" lon="5.85476">
        <ele>634</ele>
        <time>2019-04-02T11:18:05Z</time>
      </trkpt>
      <trkpt lat="44.35351" lon="5.85481">
        <ele>634</ele>
        <time>2019-04-02T11:18:06Z</time>
      </trkpt>
      <trkpt lat="44.35355" lon="5.85486">
        <ele>634</ele>
        <time>2019-04-02T11:18:07Z</time>
      </trkpt>
      <trkpt lat="44.3536" lon="5.85491">
        <ele>634</ele>
        <time>2019-04-02T11:18:08Z</time>
      </trkpt>
      <trkpt lat="44.35364" lon="5.85496">
        <ele>635</ele>
        <time>2019-04-02T11:18:09Z</time>
      </trkpt>
      <trkpt lat="44.35368" lon="5.855">
        <ele>635</ele>
        <time>2019-04-02T11:18:11Z</time>
      </trkpt>
      <trkpt lat="44.35373" lon="5.85505">
        <ele>635</ele>
        <time>2019-04-02T11:18:11Z</time>
      </trkpt>
      <trkpt lat="44.35377" lon="5.85509">
        <ele>635</ele>
        <time>2019-04-02T11:18:12Z</time>
      </trkpt>
      <trkpt lat="44.35381" lon="5.85514">
        <ele>636</ele>
        <time>2019-04-02T11:18:13Z</time>
      </trkpt>
      <trkpt lat="44.35385" lon="5.85518">
        <ele>636</ele>
        <time>2019-04-02T11:18:14Z</time>
      </trkpt>
      <trkpt lat="44.35389" lon="5.85523">
        <ele>636</ele>
        <time>2019-04-02T11:18:15Z</time>
      </trkpt>
      <trkpt lat="44.35394" lon="5.85528">
        <ele>636</ele>
        <time>2019-04-02T11:18:16Z</time>
      </trkpt>
      <trkpt lat="44.35398" lon="5.85532">
        <ele>637</ele>
        <time>2019-04-02T11:18:17Z</time>
      </trkpt>
      <trkpt lat="44.35402" lon="5.85537">
        <ele>637</ele>
        <time>2019-04-02T11:18:18Z</time>
      </trkpt>
      <trkpt lat="44.35406" lon="5.85541">
        <ele>637</ele>
        <time>2019-04-02T11:18:19Z</time>
      </trkpt>
      <trkpt lat="44.3541" lon="5.85545">
        <ele>637</ele>
        <time>2019-04-02T11:18:20Z</time>
      </trkpt>
      <trkpt lat="44.35414" lon="5.8555">
        <ele>637</ele>
        <time>2019-04-02T11:18:21Z</time>
      </trkpt>
      <trkpt lat="44.35418" lon="5.85555">
        <ele>638</ele>
        <time>2019-04-02T11:18:22Z</time>
      </trkpt>
      <trkpt lat="44.35422" lon="5.85559">
        <ele>638</ele>
        <time>2019-04-02T11:18:23Z</time>
      </trkpt>
      <trkpt lat="44.35426" lon="5.85564">
        <ele>638</ele>
        <time>2019-04-02T11:18:24Z</time>
      </trkpt>
      <trkpt lat="44.35431" lon="5.85568">
        <ele>638</ele>
        <time>2019-04-02T11:18:25Z</time>
      </trkpt>
      <trkpt lat="44.35435" lon="5.85572">
        <ele>638</ele>
        <time>2019-04-02T11:18:26Z</time>
      </trkpt>
      <trkpt lat="44.35439" lon="5.85577">
        <ele>638</ele>
        <time>2019-04-02T11:18:27Z</time>
      </trkpt>
      <trkpt lat="44.35443" lon="5.85581">
        <ele>639</ele>
        <time>2019-04-02T11:18:28Z</time>
      </trkpt>
      <trkpt lat="44.35447" lon="5.85586">
        <ele>639</ele>
        <time>2019-04-02T11:18:29Z</time>
      </trkpt>
      <trkpt lat="44.35451" lon="5.8559">
        <ele>639</ele>
        <time>2019-04-02T11:18:30Z</time>
      </trkpt>
      <trkpt lat="44.35455" lon="5.85595">
        <ele>639</ele>
        <time>2019-04-02T11:18:31Z</time>
      </trkpt>
      <trkpt lat="44.35459" lon="5.856">
        <ele>640</ele>
        <time>2019-04-02T11:18:32Z</time>
      </trkpt>
      <trkpt lat="44.35463" lon="5.85604">
        <ele>640</ele>
        <time>2019-04-02T11:18:33Z</time>
      </trkpt>
      <trkpt lat="44.35468" lon="5.85609">
        <ele>640</ele>
        <time>2019-04-02T11:18:34Z</time>
      </trkpt>
      <trkpt lat="44.35472" lon="5.85613">
        <ele>640</ele>
        <time>2019-04-02T11:18:35Z</time>
      </trkpt>
      <trkpt lat="44.35476" lon="5.85617">
        <ele>640</ele>
        <time>2019-04-02T11:18:36Z</time>
      </trkpt>
      <trkpt lat="44.3548" lon="5.85622">
        <ele>641</ele>
        <time>2019-04-02T11:18:37Z</time>
      </trkpt>
      <trkpt lat="44.35484" lon="5.85626">
        <ele>641</ele>
        <time>2019-04-02T11:18:38Z</time>
      </trkpt>
      <trkpt lat="44.35488" lon="5.85631">
        <ele>641</ele>
        <time>2019-04-02T11:18:39Z</time>
      </trkpt>
      <trkpt lat="44.35492" lon="5.85635">
        <ele>641</ele>
        <time>2019-04-02T11:18:40Z</time>
      </trkpt>
      <trkpt lat="44.35496" lon="5.85639">
        <ele>641</ele>
        <time>2019-04-02T11:18:41Z</time>
      </trkpt>
      <trkpt lat="44.355" lon="5.85644">
        <ele>641</ele>
        <time>2019-04-02T11:18:42Z</time>
      </trkpt>
      <trkpt lat="44.35504" lon="5.85648">
        <ele>642</ele>
        <time>2019-04-02T11:18:43Z</time>
      </trkpt>
      <trkpt lat="44.35508" lon="5.85653">
        <ele>642</ele>
        <time>2019-04-02T11:18:44Z</time>
      </trkpt>
      <trkpt lat="44.35512" lon="5.85657">
        <ele>642</ele>
        <time>2019-04-02T11:18:45Z</time>
      </trkpt>
      <trkpt lat="44.35516" lon="5.85662">
        <ele>642</ele>
        <time>2019-04-02T11:18:46Z</time>
      </trkpt>
      <trkpt lat="44.3552" lon="5.85666">
        <ele>642</ele>
        <time>2019-04-02T11:18:47Z</time>
      </trkpt>
      <trkpt lat="44.35524" lon="5.85671">
        <ele>643</ele>
        <time>2019-04-02T11:18:48Z</time>
      </trkpt>
      <trkpt lat="44.35528" lon="5.85675">
        <ele>643</ele>
        <time>2019-04-02T11:18:49Z</time>
      </trkpt>
      <trkpt lat="44.35532" lon="5.8568">
        <ele>643</ele>
        <time>2019-04-02T11:18:50Z</time>
      </trkpt>
      <trkpt lat="44.35536" lon="5.85684">
        <ele>643</ele>
        <time>2019-04-02T11:18:51Z</time>
      </trkpt>
      <trkpt lat="44.3554" lon="5.85688">
        <ele>643</ele>
        <time>2019-04-02T11:18:52Z</time>
      </trkpt>
      <trkpt lat="44.35545" lon="5.85693">
        <ele>643</ele>
        <time>2019-04-02T11:18:53Z</time>
      </trkpt>
      <trkpt lat="44.35549" lon="5.85697">
        <ele>643</ele>
        <time>2019-04-02T11:18:54Z</time>
      </trkpt>
      <trkpt lat="44.35553" lon="5.85702">
        <ele>644</ele>
        <time>2019-04-02T11:18:55Z</time>
      </trkpt>
      <trkpt lat="44.35557" lon="5.85707">
        <ele>644</ele>
        <time>2019-04-02T11:18:56Z</time>
      </trkpt>
      <trkpt lat="44.35561" lon="5.85711">
        <ele>644</ele>
        <time>2019-04-02T11:18:57Z</time>
      </trkpt>
      <trkpt lat="44.35565" lon="5.85716">
        <ele>644</ele>
        <time>2019-04-02T11:18:58Z</time>
      </trkpt>
      <trkpt lat="44.35569" lon="5.8572">
        <ele>644</ele>
        <time>2019-04-02T11:18:59Z</time>
      </trkpt>
      <trkpt lat="44.35573" lon="5.85724">
        <ele>644</ele>
        <time>2019-04-02T11:19:00Z</time>
      </trkpt>
      <trkpt lat="44.35577" lon="5.85729">
        <ele>645</ele>
        <time>2019-04-02T11:19:01Z</time>
      </trkpt>
      <trkpt lat="44.35581" lon="5.85733">
        <ele>645</ele>
        <time>2019-04-02T11:19:02Z</time>
      </trkpt>
      <trkpt lat="44.35585" lon="5.85737">
        <ele>645</ele>
        <time>2019-04-02T11:19:03Z</time>
      </trkpt>
      <trkpt lat="44.35589" lon="5.85742">
        <ele>645</ele>
        <time>2019-04-02T11:19:04Z</time>
      </trkpt>
      <trkpt lat="44.35593" lon="5.85746">
        <ele>645</ele>
        <time>2019-04-02T11:19:05Z</time>
      </trkpt>
      <trkpt lat="44.35596" lon="5.8575">
        <ele>646</ele>
        <time>2019-04-02T11:19:06Z</time>
      </trkpt>
      <trkpt lat="44.356" lon="5.85755">
        <ele>646</ele>
        <time>2019-04-02T11:19:07Z</time>
      </trkpt>
      <trkpt lat="44.35604" lon="5.85759">
        <ele>646</ele>
        <time>2019-04-02T11:19:08Z</time>
      </trkpt>
      <trkpt lat="44.35608" lon="5.85764">
        <ele>646</ele>
        <time>2019-04-02T11:19:09Z</time>
      </trkpt>
      <trkpt lat="44.35611" lon="5.85769">
        <ele>646</ele>
        <time>2019-04-02T11:19:11Z</time>
      </trkpt>
      <trkpt lat="44.35615" lon="5.85773">
        <ele>646</ele>
        <time>2019-04-02T11:19:11Z</time>
      </trkpt>
      <trkpt lat="44.35619" lon="5.85778">
        <ele>647</ele>
        <time>2019-04-02T11:19:12Z</time>
      </trkpt>
      <trkpt lat="44.35622" lon="5.85783">
        <ele>647</ele>
        <time>2019-04-02T11:19:13Z</time>
      </trkpt>
      <trkpt lat="44.35626" lon="5.85788">
        <ele>647</ele>
        <time>2019-04-02T11:19:14Z</time>
      </trkpt>
      <trkpt lat="44.35629" lon="5.85793">
        <ele>647</ele>
        <time>2019-04-02T11:19:15Z</time>
      </trkpt>
      <trkpt lat="44.35633" lon="5.85798">
        <ele>647</ele>
        <time>2019-04-02T11:19:16Z</time>
      </trkpt>
      <trkpt lat="44.35636" lon="5.85803">
        <ele>647</ele>
        <time>2019-04-02T11:19:17Z</time>
      </trkpt>
      <trkpt lat="44.3564" lon="5.85808">
        <ele>647</ele>
        <time>2019-04-02T11:19:18Z</time>
      </trkpt>
      <trkpt lat="44.35643" lon="5.85813">
        <ele>647</ele>
        <time>2019-04-02T11:19:19Z</time>
      </trkpt>
      <trkpt lat="44.35647" lon="5.85819">
        <ele>647</ele>
        <time>2019-04-02T11:19:20Z</time>
      </trkpt>
      <trkpt lat="44.3565" lon="5.85825">
        <ele>647</ele>
        <time>2019-04-02T11:19:21Z</time>
      </trkpt>
      <trkpt lat="44.35653" lon="5.8583">
        <ele>647</ele>
        <time>2019-04-02T11:19:22Z</time>
      </trkpt>
      <trkpt lat="44.35657" lon="5.85836">
        <ele>647</ele>
        <time>2019-04-02T11:19:23Z</time>
      </trkpt>
      <trkpt lat="44.35661" lon="5.85841">
        <ele>647</ele>
        <time>2019-04-02T11:19:24Z</time>
      </trkpt>
      <trkpt lat="44.35664" lon="5.85847">
        <ele>647</ele>
        <time>2019-04-02T11:19:25Z</time>
      </trkpt>
      <trkpt lat="44.35667" lon="5.85852">
        <ele>647</ele>
        <time>2019-04-02T11:19:26Z</time>
      </trkpt>
      <trkpt lat="44.3567" lon="5.85858">
        <ele>647</ele>
        <time>2019-04-02T11:19:27Z</time>
      </trkpt>
      <trkpt lat="44.35673" lon="5.85864">
        <ele>648</ele>
        <time>2019-04-02T11:19:28Z</time>
      </trkpt>
      <trkpt lat="44.35677" lon="5.8587">
        <ele>648</ele>
        <time>2019-04-02T11:19:29Z</time>
      </trkpt>
      <trkpt lat="44.3568" lon="5.85875">
        <ele>648</ele>
        <time>2019-04-02T11:19:30Z</time>
      </trkpt>
      <trkpt lat="44.35683" lon="5.85881">
        <ele>648</ele>
        <time>2019-04-02T11:19:31Z</time>
      </trkpt>
      <trkpt lat="44.35687" lon="5.85886">
        <ele>648</ele>
        <time>2019-04-02T11:19:32Z</time>
      </trkpt>
      <trkpt lat="44.3569" lon="5.85891">
        <ele>648</ele>
        <time>2019-04-02T11:19:33Z</time>
      </trkpt>
      <trkpt lat="44.35694" lon="5.85896">
        <ele>648</ele>
        <time>2019-04-02T11:19:34Z</time>
      </trkpt>
      <trkpt lat="44.35697" lon="5.85902">
        <ele>648</ele>
        <time>2019-04-02T11:19:35Z</time>
      </trkpt>
      <trkpt lat="44.35701" lon="5.85907">
        <ele>649</ele>
        <time>2019-04-02T11:19:36Z</time>
      </trkpt>
      <trkpt lat="44.35704" lon="5.85913">
        <ele>649</ele>
        <time>2019-04-02T11:19:37Z</time>
      </trkpt>
      <trkpt lat="44.35707" lon="5.85918">
        <ele>649</ele>
        <time>2019-04-02T11:19:38Z</time>
      </trkpt>
      <trkpt lat="44.35711" lon="5.85923">
        <ele>649</ele>
        <time>2019-04-02T11:19:39Z</time>
      </trkpt>
      <trkpt lat="44.35714" lon="5.85929">
        <ele>649</ele>
        <time>2019-04-02T11:19:40Z</time>
      </trkpt>
      <trkpt lat="44.35717" lon="5.85934">
        <ele>650</ele>
        <time>2019-04-02T11:19:41Z</time>
      </trkpt>
      <trkpt lat="44.3572" lon="5.8594">
        <ele>650</ele>
        <time>2019-04-02T11:19:42Z</time>
      </trkpt>
      <trkpt lat="44.35724" lon="5.85945">
        <ele>650</ele>
        <time>2019-04-02T11:19:43Z</time>
      </trkpt>
      <trkpt lat="44.35727" lon="5.8595">
        <ele>650</ele>
        <time>2019-04-02T11:19:44Z</time>
      </trkpt>
      <trkpt lat="44.3573" lon="5.85955">
        <ele>650</ele>
        <time>2019-04-02T11:19:45Z</time>
      </trkpt>
      <trkpt lat="44.35733" lon="5.8596">
        <ele>651</ele>
        <time>2019-04-02T11:19:46Z</time>
      </trkpt>
      <trkpt lat="44.35736" lon="5.85965">
        <ele>651</ele>
        <time>2019-04-02T11:19:47Z</time>
      </trkpt>
      <trkpt lat="44.3574" lon="5.8597">
        <ele>651</ele>
        <time>2019-04-02T11:19:48Z</time>
      </trkpt>
      <trkpt lat="44.35743" lon="5.85976">
        <ele>651</ele>
        <time>2019-04-02T11:19:49Z</time>
      </trkpt>
      <trkpt lat="44.35746" lon="5.85982">
        <ele>651</ele>
        <time>2019-04-02T11:19:50Z</time>
      </trkpt>
      <trkpt lat="44.35749" lon="5.85987">
        <ele>652</ele>
        <time>2019-04-02T11:19:51Z</time>
      </trkpt>
      <trkpt lat="44.35752" lon="5.85992">
        <ele>652</ele>
        <time>2019-04-02T11:19:52Z</time>
      </trkpt>
      <trkpt lat="44.35756" lon="5.85997">
        <ele>652</ele>
        <time>2019-04-02T11:19:53Z</time>
      </trkpt>
      <trkpt lat="44.35759" lon="5.86003">
        <ele>652</ele>
        <time>2019-04-02T11:19:54Z</time>
      </trkpt>
      <trkpt lat="44.35763" lon="5.86008">
        <ele>652</ele>
        <time>2019-04-02T11:19:55Z</time>
      </trkpt>
      <trkpt lat="44.35766" lon="5.86014">
        <ele>652</ele>
        <time>2019-04-02T11:19:56Z</time>
      </trkpt>
      <trkpt lat="44.35769" lon="5.8602">
        <ele>652</ele>
        <time>2019-04-02T11:19:57Z</time>
      </trkpt>
      <trkpt lat="44.35772" lon="5.86026">
        <ele>652</ele>
        <time>2019-04-02T11:19:58Z</time>
      </trkpt>
      <trkpt lat="44.35775" lon="5.86032">
        <ele>653</ele>
        <time>2019-04-02T11:19:59Z</time>
      </trkpt>
      <trkpt lat="44.35778" lon="5.86038">
        <ele>653</ele>
        <time>2019-04-02T11:20:00Z</time>
      </trkpt>
      <trkpt lat="44.35781" lon="5.86045">
        <ele>653</ele>
        <time>2019-04-02T11:20:01Z</time>
      </trkpt>
      <trkpt lat="44.35783" lon="5.86052">
        <ele>653</ele>
        <time>2019-04-02T11:20:02Z</time>
      </trkpt>
      <trkpt lat="44.35786" lon="5.86059">
        <ele>653</ele>
        <time>2019-04-02T11:20:03Z</time>
      </trkpt>
      <trkpt lat="44.35788" lon="5.86066">
        <ele>653</ele>
        <time>2019-04-02T11:20:04Z</time>
      </trkpt>
      <trkpt lat="44.35789" lon="5.86073">
        <ele>654</ele>
        <time>2019-04-02T11:20:05Z</time>
      </trkpt>
      <trkpt lat="44.35791" lon="5.8608">
        <ele>654</ele>
        <time>2019-04-02T11:20:06Z</time>
      </trkpt>
      <trkpt lat="44.35793" lon="5.86088">
        <ele>654</ele>
        <time>2019-04-02T11:20:07Z</time>
      </trkpt>
      <trkpt lat="44.35795" lon="5.86095">
        <ele>654</ele>
        <time>2019-04-02T11:20:08Z</time>
      </trkpt>
      <trkpt lat="44.35796" lon="5.86102">
        <ele>654</ele>
        <time>2019-04-02T11:20:09Z</time>
      </trkpt>
      <trkpt lat="44.35798" lon="5.8611">
        <ele>654</ele>
        <time>2019-04-02T11:20:11Z</time>
      </trkpt>
      <trkpt lat="44.35799" lon="5.86117">
        <ele>654</ele>
        <time>2019-04-02T11:20:11Z</time>
      </trkpt>
      <trkpt lat="44.358" lon="5.86125">
        <ele>655</ele>
        <time>2019-04-02T11:20:12Z</time>
      </trkpt>
      <trkpt lat="44.35802" lon="5.86132">
        <ele>655</ele>
        <time>2019-04-02T11:20:13Z</time>
      </trkpt>
      <trkpt lat="44.35803" lon="5.86139">
        <ele>655</ele>
        <time>2019-04-02T11:20:14Z</time>
      </trkpt>
      <trkpt lat="44.35804" lon="5.86147">
        <ele>655</ele>
        <time>2019-04-02T11:20:15Z</time>
      </trkpt>
      <trkpt lat="44.35806" lon="5.86154">
        <ele>655</ele>
        <time>2019-04-02T11:20:16Z</time>
      </trkpt>
      <trkpt lat="44.35807" lon="5.86162">
        <ele>655</ele>
        <time>2019-04-02T11:20:17Z</time>
      </trkpt>
      <trkpt lat="44.35809" lon="5.86169">
        <ele>655</ele>
        <time>2019-04-02T11:20:18Z</time>
      </trkpt>
      <trkpt lat="44.3581" lon="5.86176">
        <ele>655</ele>
        <time>2019-04-02T11:20:19Z</time>
      </trkpt>
      <trkpt lat="44.35812" lon="5.86183">
        <ele>655</ele>
        <time>2019-04-02T11:20:20Z</time>
      </trkpt>
      <trkpt lat="44.35814" lon="5.86191">
        <ele>655</ele>
        <time>2019-04-02T11:20:21Z</time>
      </trkpt>
      <trkpt lat="44.35815" lon="5.86198">
        <ele>656</ele>
        <time>2019-04-02T11:20:22Z</time>
      </trkpt>
      <trkpt lat="44.35817" lon="5.86205">
        <ele>656</ele>
        <time>2019-04-02T11:20:23Z</time>
      </trkpt>
      <trkpt lat="44.35819" lon="5.86213">
        <ele>656</ele>
        <time>2019-04-02T11:20:24Z</time>
      </trkpt>
      <trkpt lat="44.35822" lon="5.8622">
        <ele>656</ele>
        <time>2019-04-02T11:20:25Z</time>
      </trkpt>
      <trkpt lat="44.35824" lon="5.86228">
        <ele>656</ele>
        <time>2019-04-02T11:20:26Z</time>
      </trkpt>
      <trkpt lat="44.35826" lon="5.86235">
        <ele>656</ele>
        <time>2019-04-02T11:20:27Z</time>
      </trkpt>
      <trkpt lat="44.35829" lon="5.86242">
        <ele>656</ele>
        <time>2019-04-02T11:20:28Z</time>
      </trkpt>
      <trkpt lat="44.35831" lon="5.86249">
        <ele>657</ele>
        <time>2019-04-02T11:20:29Z</time>
      </trkpt>
      <trkpt lat="44.35834" lon="5.86256">
        <ele>657</ele>
        <time>2019-04-02T11:20:30Z</time>
      </trkpt>
      <trkpt lat="44.35837" lon="5.86263">
        <ele>657</ele>
        <time>2019-04-02T11:20:31Z</time>
      </trkpt>
      <trkpt lat="44.3584" lon="5.8627">
        <ele>657</ele>
        <time>2019-04-02T11:20:32Z</time>
      </trkpt>
      <trkpt lat="44.35843" lon="5.86276">
        <ele>657</ele>
        <time>2019-04-02T11:20:33Z</time>
      </trkpt>
      <trkpt lat="44.35847" lon="5.86283">
        <ele>657</ele>
        <time>2019-04-02T11:20:34Z</time>
      </trkpt>
      <trkpt lat="44.3585" lon="5.8629">
        <ele>657</ele>
        <time>2019-04-02T11:20:35Z</time>
      </trkpt>
      <trkpt lat="44.35854" lon="5.86297">
        <ele>657</ele>
        <time>2019-04-02T11:20:36Z</time>
      </trkpt>
      <trkpt lat="44.35857" lon="5.86304">
        <ele>657</ele>
        <time>2019-04-02T11:20:37Z</time>
      </trkpt>
      <trkpt lat="44.3586" lon="5.86311">
        <ele>658</ele>
        <time>2019-04-02T11:20:38Z</time>
      </trkpt>
      <trkpt lat="44.35863" lon="5.86318">
        <ele>658</ele>
        <time>2019-04-02T11:20:39Z</time>
      </trkpt>
      <trkpt lat="44.35866" lon="5.86325">
        <ele>658</ele>
        <time>2019-04-02T11:20:40Z</time>
      </trkpt>
      <trkpt lat="44.35868" lon="5.86333">
        <ele>658</ele>
        <time>2019-04-02T11:20:41Z</time>
      </trkpt>
      <trkpt lat="44.35871" lon="5.8634">
        <ele>658</ele>
        <time>2019-04-02T11:20:42Z</time>
      </trkpt>
      <trkpt lat="44.35873" lon="5.86347">
        <ele>658</ele>
        <time>2019-04-02T11:20:43Z</time>
      </trkpt>
      <trkpt lat="44.35876" lon="5.86355">
        <ele>658</ele>
        <time>2019-04-02T11:20:44Z</time>
      </trkpt>
      <trkpt lat="44.35878" lon="5.86363">
        <ele>658</ele>
        <time>2019-04-02T11:20:45Z</time>
      </trkpt>
      <trkpt lat="44.3588" lon="5.86371">
        <ele>658</ele>
        <time>2019-04-02T11:20:46Z</time>
      </trkpt>
      <trkpt lat="44.35882" lon="5.86379">
        <ele>658</ele>
        <time>2019-04-02T11:20:47Z</time>
      </trkpt>
      <trkpt lat="44.35883" lon="5.86387">
        <ele>658</ele>
        <time>2019-04-02T11:20:48Z</time>
      </trkpt>
      <trkpt lat="44.35885" lon="5.86395">
        <ele>659</ele>
        <time>2019-04-02T11:20:49Z</time>
      </trkpt>
      <trkpt lat="44.35887" lon="5.86403">
        <ele>659</ele>
        <time>2019-04-02T11:20:50Z</time>
      </trkpt>
      <trkpt lat="44.35889" lon="5.86412">
        <ele>659</ele>
        <time>2019-04-02T11:20:51Z</time>
      </trkpt>
      <trkpt lat="44.3589" lon="5.8642">
        <ele>659</ele>
        <time>2019-04-02T11:20:52Z</time>
      </trkpt>
      <trkpt lat="44.35892" lon="5.86428">
        <ele>659</ele>
        <time>2019-04-02T11:20:53Z</time>
      </trkpt>
      <trkpt lat="44.35894" lon="5.86437">
        <ele>659</ele>
        <time>2019-04-02T11:20:54Z</time>
      </trkpt>
      <trkpt lat="44.35896" lon="5.86445">
        <ele>659</ele>
        <time>2019-04-02T11:20:55Z</time>
      </trkpt>
      <trkpt lat="44.35898" lon="5.86453">
        <ele>659</ele>
        <time>2019-04-02T11:20:56Z</time>
      </trkpt>
      <trkpt lat="44.359" lon="5.86462">
        <ele>659</ele>
        <time>2019-04-02T11:20:57Z</time>
      </trkpt>
      <trkpt lat="44.35902" lon="5.86471">
        <ele>659</ele>
        <time>2019-04-02T11:20:58Z</time>
      </trkpt>
      <trkpt lat="44.35904" lon="5.8648">
        <ele>659</ele>
        <time>2019-04-02T11:20:59Z</time>
      </trkpt>
      <trkpt lat="44.35905" lon="5.86489">
        <ele>659</ele>
        <time>2019-04-02T11:21:00Z</time>
      </trkpt>
      <trkpt lat="44.35907" lon="5.86498">
        <ele>659</ele>
        <time>2019-04-02T11:21:01Z</time>
      </trkpt>
      <trkpt lat="44.3591" lon="5.86507">
        <ele>659</ele>
        <time>2019-04-02T11:21:02Z</time>
      </trkpt>
      <trkpt lat="44.35912" lon="5.86517">
        <ele>659</ele>
        <time>2019-04-02T11:21:03Z</time>
      </trkpt>
      <trkpt lat="44.35914" lon="5.86526">
        <ele>659</ele>
        <time>2019-04-02T11:21:04Z</time>
      </trkpt>
      <trkpt lat="44.35916" lon="5.86536">
        <ele>659</ele>
        <time>2019-04-02T11:21:05Z</time>
      </trkpt>
      <trkpt lat="44.35918" lon="5.86546">
        <ele>659</ele>
        <time>2019-04-02T11:21:06Z</time>
      </trkpt>
      <trkpt lat="44.3592" lon="5.86556">
        <ele>659</ele>
        <time>2019-04-02T11:21:07Z</time>
      </trkpt>
      <trkpt lat="44.35922" lon="5.86566">
        <ele>659</ele>
        <time>2019-04-02T11:21:08Z</time>
      </trkpt>
      <trkpt lat="44.35925" lon="5.86576">
        <ele>659</ele>
        <time>2019-04-02T11:21:09Z</time>
      </trkpt>
      <trkpt lat="44.35927" lon="5.86586">
        <ele>659</ele>
        <time>2019-04-02T11:21:11Z</time>
      </trkpt>
      <trkpt lat="44.35929" lon="5.86596">
        <ele>659</ele>
        <time>2019-04-02T11:21:11Z</time>
      </trkpt>
      <trkpt lat="44.35931" lon="5.86606">
        <ele>659</ele>
        <time>2019-04-02T11:21:12Z</time>
      </trkpt>
      <trkpt lat="44.35933" lon="5.86617">
        <ele>659</ele>
        <time>2019-04-02T11:21:13Z</time>
      </trkpt>
      <trkpt lat="44.35935" lon="5.86627">
        <ele>659</ele>
        <time>2019-04-02T11:21:14Z</time>
      </trkpt>
      <trkpt lat="44.35937" lon="5.86637">
        <ele>659</ele>
        <time>2019-04-02T11:21:15Z</time>
      </trkpt>
      <trkpt lat="44.3594" lon="5.86647">
        <ele>659</ele>
        <time>2019-04-02T11:21:16Z</time>
      </trkpt>
      <trkpt lat="44.35942" lon="5.86657">
        <ele>659</ele>
        <time>2019-04-02T11:21:17Z</time>
      </trkpt>
      <trkpt lat="44.35945" lon="5.86667">
        <ele>659</ele>
        <time>2019-04-02T11:21:18Z</time>
      </trkpt>
      <trkpt lat="44.35947" lon="5.86677">
        <ele>659</ele>
        <time>2019-04-02T11:21:19Z</time>
      </trkpt>
      <trkpt lat="44.3595" lon="5.86688">
        <ele>659</ele>
        <time>2019-04-02T11:21:20Z</time>
      </trkpt>
      <trkpt lat="44.35954" lon="5.86698">
        <ele>659</ele>
        <time>2019-04-02T11:21:21Z</time>
      </trkpt>
      <trkpt lat="44.35958" lon="5.86708">
        <ele>659</ele>
        <time>2019-04-02T11:21:22Z</time>
      </trkpt>
      <trkpt lat="44.35962" lon="5.86718">
        <ele>659</ele>
        <time>2019-04-02T11:21:23Z</time>
      </trkpt>
      <trkpt lat="44.35966" lon="5.86728">
        <ele>659</ele>
        <time>2019-04-02T11:21:24Z</time>
      </trkpt>
      <trkpt lat="44.35971" lon="5.86738">
        <ele>659</ele>
        <time>2019-04-02T11:21:25Z</time>
      </trkpt>
      <trkpt lat="44.35975" lon="5.86748">
        <ele>659</ele>
        <time>2019-04-02T11:21:26Z</time>
      </trkpt>
      <trkpt lat="44.3598" lon="5.86758">
        <ele>659</ele>
        <time>2019-04-02T11:21:27Z</time>
      </trkpt>
      <trkpt lat="44.35985" lon="5.86768">
        <ele>659</ele>
        <time>2019-04-02T11:21:28Z</time>
      </trkpt>
      <trkpt lat="44.3599" lon="5.86779">
        <ele>659</ele>
        <time>2019-04-02T11:21:29Z</time>
      </trkpt>
      <trkpt lat="44.35994" lon="5.8679">
        <ele>659</ele>
        <time>2019-04-02T11:21:30Z</time>
      </trkpt>
      <trkpt lat="44.36" lon="5.868">
        <ele>659</ele>
        <time>2019-04-02T11:21:31Z</time>
      </trkpt>
      <trkpt lat="44.36004" lon="5.8681">
        <ele>659</ele>
        <time>2019-04-02T11:21:32Z</time>
      </trkpt>
      <trkpt lat="44.36009" lon="5.8682">
        <ele>659</ele>
        <time>2019-04-02T11:21:33Z</time>
      </trkpt>
      <trkpt lat="44.36014" lon="5.8683">
        <ele>659</ele>
        <time>2019-04-02T11:21:34Z</time>
      </trkpt>
      <trkpt lat="44.36019" lon="5.8684">
        <ele>659</ele>
        <time>2019-04-02T11:21:35Z</time>
      </trkpt>
      <trkpt lat="44.36024" lon="5.86851">
        <ele>658</ele>
        <time>2019-04-02T11:21:36Z</time>
      </trkpt>
      <trkpt lat="44.36029" lon="5.86862">
        <ele>658</ele>
        <time>2019-04-02T11:21:37Z</time>
      </trkpt>
      <trkpt lat="44.36034" lon="5.86872">
        <ele>658</ele>
        <time>2019-04-02T11:21:38Z</time>
      </trkpt>
      <trkpt lat="44.36039" lon="5.86883">
        <ele>657</ele>
        <time>2019-04-02T11:21:39Z</time>
      </trkpt>
      <trkpt lat="44.36045" lon="5.86894">
        <ele>657</ele>
        <time>2019-04-02T11:21:40Z</time>
      </trkpt>
      <trkpt lat="44.3605" lon="5.86906">
        <ele>656</ele>
        <time>2019-04-02T11:21:41Z</time>
      </trkpt>
      <trkpt lat="44.36055" lon="5.86917">
        <ele>656</ele>
        <time>2019-04-02T11:21:42Z</time>
      </trkpt>
      <trkpt lat="44.36061" lon="5.86929">
        <ele>655</ele>
        <time>2019-04-02T11:21:43Z</time>
      </trkpt>
      <trkpt lat="44.36066" lon="5.8694">
        <ele>655</ele>
        <time>2019-04-02T11:21:44Z</time>
      </trkpt>
      <trkpt lat="44.36072" lon="5.86952">
        <ele>654</ele>
        <time>2019-04-02T11:21:45Z</time>
      </trkpt>
      <trkpt lat="44.36078" lon="5.86965">
        <ele>654</ele>
        <time>2019-04-02T11:21:46Z</time>
      </trkpt>
      <trkpt lat="44.36083" lon="5.86977">
        <ele>653</ele>
        <time>2019-04-02T11:21:47Z</time>
      </trkpt>
      <trkpt lat="44.36089" lon="5.8699">
        <ele>653</ele>
        <time>2019-04-02T11:21:48Z</time>
      </trkpt>
      <trkpt lat="44.36094" lon="5.87003">
        <ele>652</ele>
        <time>2019-04-02T11:21:49Z</time>
      </trkpt>
      <trkpt lat="44.36099" lon="5.87017">
        <ele>651</ele>
        <time>2019-04-02T11:21:50Z</time>
      </trkpt>
      <trkpt lat="44.36103" lon="5.87032">
        <ele>651</ele>
        <time>2019-04-02T11:21:51Z</time>
      </trkpt>
      <trkpt lat="44.36108" lon="5.87047">
        <ele>650</ele>
        <time>2019-04-02T11:21:52Z</time>
      </trkpt>
      <trkpt lat="44.36111" lon="5.87062">
        <ele>649</ele>
        <time>2019-04-02T11:21:53Z</time>
      </trkpt>
      <trkpt lat="44.36115" lon="5.87079">
        <ele>648</ele>
        <time>2019-04-02T11:21:54Z</time>
      </trkpt>
      <trkpt lat="44.36117" lon="5.87096">
        <ele>648</ele>
        <time>2019-04-02T11:21:55Z</time>
      </trkpt>
      <trkpt lat="44.36119" lon="5.87113">
        <ele>647</ele>
        <time>2019-04-02T11:21:56Z</time>
      </trkpt>
      <trkpt lat="44.36122" lon="5.8713">
        <ele>646</ele>
        <time>2019-04-02T11:21:57Z</time>
      </trkpt>
      <trkpt lat="44.36125" lon="5.87148">
        <ele>645</ele>
        <time>2019-04-02T11:21:58Z</time>
      </trkpt>
      <trkpt lat="44.36128" lon="5.87166">
        <ele>644</ele>
        <time>2019-04-02T11:21:59Z</time>
      </trkpt>
      <trkpt lat="44.36131" lon="5.87184">
        <ele>643</ele>
        <time>2019-04-02T11:22:00Z</time>
      </trkpt>
      <trkpt lat="44.36134" lon="5.87203">
        <ele>642</ele>
        <time>2019-04-02T11:22:01Z</time>
      </trkpt>
      <trkpt lat="44.36137" lon="5.87221">
        <ele>642</ele>
        <time>2019-04-02T11:22:02Z</time>
      </trkpt>
      <trkpt lat="44.3614" lon="5.87239">
        <ele>641</ele>
        <time>2019-04-02T11:22:03Z</time>
      </trkpt>
      <trkpt lat="44.36145" lon="5.87255">
        <ele>640</ele>
        <time>2019-04-02T11:22:04Z</time>
      </trkpt>
      <trkpt lat="44.36151" lon="5.87271">
        <ele>639</ele>
        <time>2019-04-02T11:22:05Z</time>
      </trkpt>
      <trkpt lat="44.36158" lon="5.87285">
        <ele>638</ele>
        <time>2019-04-02T11:22:06Z</time>
      </trkpt>
      <trkpt lat="44.36166" lon="5.87298">
        <ele>637</ele>
        <time>2019-04-02T11:22:07Z</time>
      </trkpt>
      <trkpt lat="44.36174" lon="5.87312">
        <ele>636</ele>
        <time>2019-04-02T11:22:08Z</time>
      </trkpt>
      <trkpt lat="44.36182" lon="5.87325">
        <ele>635</ele>
        <time>2019-04-02T11:22:09Z</time>
      </trkpt>
      <trkpt lat="44.36189" lon="5.87338">
        <ele>634</ele>
        <time>2019-04-02T11:22:10Z</time>
      </trkpt>
      <trkpt lat="44.36196" lon="5.87351">
        <ele>633</ele>
        <time>2019-04-02T11:22:11Z</time>
      </trkpt>
      <trkpt lat="44.36201" lon="5.87364">
        <ele>632</ele>
        <time>2019-04-02T11:22:12Z</time>
      </trkpt>
      <trkpt lat="44.36205" lon="5.87378">
        <ele>631</ele>
        <time>2019-04-02T11:22:13Z</time>
      </trkpt>
      <trkpt lat="44.36207" lon="5.87391">
        <ele>631</ele>
        <time>2019-04-02T11:22:14Z</time>
      </trkpt>
      <trkpt lat="44.36206" lon="5.87405">
        <ele>630</ele>
        <time>2019-04-02T11:22:16Z</time>
      </trkpt>
      <trkpt lat="44.36204" lon="5.87419">
        <ele>630</ele>
        <time>2019-04-02T11:22:16Z</time>
      </trkpt>
      <trkpt lat="44.362" lon="5.87433">
        <ele>629</ele>
        <time>2019-04-02T11:22:17Z</time>
      </trkpt>
      <trkpt lat="44.36197" lon="5.87446">
        <ele>628</ele>
        <time>2019-04-02T11:22:18Z</time>
      </trkpt>
      <trkpt lat="44.36194" lon="5.8746">
        <ele>628</ele>
        <time>2019-04-02T11:22:19Z</time>
      </trkpt>
      <trkpt lat="44.36192" lon="5.87474">
        <ele>627</ele>
        <time>2019-04-02T11:22:20Z</time>
      </trkpt>
      <trkpt lat="44.36192" lon="5.87489">
        <ele>626</ele>
        <time>2019-04-02T11:22:21Z</time>
      </trkpt>
      <trkpt lat="44.36193" lon="5.87503">
        <ele>626</ele>
        <time>2019-04-02T11:22:22Z</time>
      </trkpt>
      <trkpt lat="44.36194" lon="5.87518">
        <ele>625</ele>
        <time>2019-04-02T11:22:23Z</time>
      </trkpt>
      <trkpt lat="44.36195" lon="5.87534">
        <ele>624</ele>
        <time>2019-04-02T11:22:24Z</time>
      </trkpt>
      <trkpt lat="44.36197" lon="5.87548">
        <ele>624</ele>
        <time>2019-04-02T11:22:25Z</time>
      </trkpt>
      <trkpt lat="44.36198" lon="5.87564">
        <ele>624</ele>
        <time>2019-04-02T11:22:26Z</time>
      </trkpt>
      <trkpt lat="44.362" lon="5.87578">
        <ele>623</ele>
        <time>2019-04-02T11:22:27Z</time>
      </trkpt>
      <trkpt lat="44.36203" lon="5.87593">
        <ele>623</ele>
        <time>2019-04-02T11:22:28Z</time>
      </trkpt>
      <trkpt lat="44.36206" lon="5.87607">
        <ele>622</ele>
        <time>2019-04-02T11:22:29Z</time>
      </trkpt>
      <trkpt lat="44.3621" lon="5.87621">
        <ele>622</ele>
        <time>2019-04-02T11:22:30Z</time>
      </trkpt>
      <trkpt lat="44.36213" lon="5.87635">
        <ele>621</ele>
        <time>2019-04-02T11:22:31Z</time>
      </trkpt>
      <trkpt lat="44.36215" lon="5.87649">
        <ele>621</ele>
        <time>2019-04-02T11:22:32Z</time>
      </trkpt>
      <trkpt lat="44.36216" lon="5.87664">
        <ele>620</ele>
        <time>2019-04-02T11:22:33Z</time>
      </trkpt>
      <trkpt lat="44.36217" lon="5.87678">
        <ele>620</ele>
        <time>2019-04-02T11:22:34Z</time>
      </trkpt>
      <trkpt lat="44.36218" lon="5.87693">
        <ele>619</ele>
        <time>2019-04-02T11:22:35Z</time>
      </trkpt>
      <trkpt lat="44.36218" lon="5.87708">
        <ele>619</ele>
        <time>2019-04-02T11:22:36Z</time>
      </trkpt>
      <trkpt lat="44.36219" lon="5.87722">
        <ele>618</ele>
        <time>2019-04-02T11:22:37Z</time>
      </trkpt>
      <trkpt lat="44.36219" lon="5.87736">
        <ele>618</ele>
        <time>2019-04-02T11:22:38Z</time>
      </trkpt>
      <trkpt lat="44.3622" lon="5.8775">
        <ele>617</ele>
        <time>2019-04-02T11:22:39Z</time>
      </trkpt>
      <trkpt lat="44.36222" lon="5.87765">
        <ele>617</ele>
        <time>2019-04-02T11:22:40Z</time>
      </trkpt>
      <trkpt lat="44.36224" lon="5.87779">
        <ele>616</ele>
        <time>2019-04-02T11:22:41Z</time>
      </trkpt>
      <trkpt lat="44.36228" lon="5.87793">
        <ele>616</ele>
        <time>2019-04-02T11:22:42Z</time>
      </trkpt>
      <trkpt lat="44.36232" lon="5.87807">
        <ele>615</ele>
        <time>2019-04-02T11:22:43Z</time>
      </trkpt>
      <trkpt lat="44.36235" lon="5.87821">
        <ele>615</ele>
        <time>2019-04-02T11:22:44Z</time>
      </trkpt>
      <trkpt lat="44.36239" lon="5.87835">
        <ele>615</ele>
        <time>2019-04-02T11:22:45Z</time>
      </trkpt>
      <trkpt lat="44.36243" lon="5.87849">
        <ele>614</ele>
        <time>2019-04-02T11:22:46Z</time>
      </trkpt>
      <trkpt lat="44.36245" lon="5.87864">
        <ele>614</ele>
        <time>2019-04-02T11:22:47Z</time>
      </trkpt>
      <trkpt lat="44.36246" lon="5.87878">
        <ele>614</ele>
        <time>2019-04-02T11:22:48Z</time>
      </trkpt>
      <trkpt lat="44.36246" lon="5.87892">
        <ele>614</ele>
        <time>2019-04-02T11:22:49Z</time>
      </trkpt>
      <trkpt lat="44.36247" lon="5.87906">
        <ele>614</ele>
        <time>2019-04-02T11:22:50Z</time>
      </trkpt>
      <trkpt lat="44.36246" lon="5.8792">
        <ele>614</ele>
        <time>2019-04-02T11:22:51Z</time>
      </trkpt>
      <trkpt lat="44.36245" lon="5.87934">
        <ele>614</ele>
        <time>2019-04-02T11:22:52Z</time>
      </trkpt>
      <trkpt lat="44.36244" lon="5.87948">
        <ele>614</ele>
        <time>2019-04-02T11:22:53Z</time>
      </trkpt>
      <trkpt lat="44.36244" lon="5.87961">
        <ele>614</ele>
        <time>2019-04-02T11:22:54Z</time>
      </trkpt>
      <trkpt lat="44.36246" lon="5.87976">
        <ele>614</ele>
        <time>2019-04-02T11:22:55Z</time>
      </trkpt>
      <trkpt lat="44.36248" lon="5.8799">
        <ele>614</ele>
        <time>2019-04-02T11:22:56Z</time>
      </trkpt>
      <trkpt lat="44.36251" lon="5.88004">
        <ele>614</ele>
        <time>2019-04-02T11:22:57Z</time>
      </trkpt>
      <trkpt lat="44.36255" lon="5.88018">
        <ele>614</ele>
        <time>2019-04-02T11:22:58Z</time>
      </trkpt>
      <trkpt lat="44.36259" lon="5.88032">
        <ele>613</ele>
        <time>2019-04-02T11:22:59Z</time>
      </trkpt>
      <trkpt lat="44.36264" lon="5.88046">
        <ele>613</ele>
        <time>2019-04-02T11:23:00Z</time>
      </trkpt>
      <trkpt lat="44.36269" lon="5.88059">
        <ele>612</ele>
        <time>2019-04-02T11:23:01Z</time>
      </trkpt>
      <trkpt lat="44.36274" lon="5.88073">
        <ele>611</ele>
        <time>2019-04-02T11:23:02Z</time>
      </trkpt>
      <trkpt lat="44.36278" lon="5.88086">
        <ele>611</ele>
        <time>2019-04-02T11:23:03Z</time>
      </trkpt>
      <trkpt lat="44.36282" lon="5.88099">
        <ele>610</ele>
        <time>2019-04-02T11:23:04Z</time>
      </trkpt>
      <trkpt lat="44.36285" lon="5.88112">
        <ele>610</ele>
        <time>2019-04-02T11:23:05Z</time>
      </trkpt>
      <trkpt lat="44.36288" lon="5.88124">
        <ele>610</ele>
        <time>2019-04-02T11:23:06Z</time>
      </trkpt>
      <trkpt lat="44.36291" lon="5.88136">
        <ele>610</ele>
        <time>2019-04-02T11:23:07Z</time>
      </trkpt>
      <trkpt lat="44.36293" lon="5.88148">
        <ele>610</ele>
        <time>2019-04-02T11:23:08Z</time>
      </trkpt>
      <trkpt lat="44.36296" lon="5.8816">
        <ele>610</ele>
        <time>2019-04-02T11:23:09Z</time>
      </trkpt>
      <trkpt lat="44.36299" lon="5.88171">
        <ele>610</ele>
        <time>2019-04-02T11:23:10Z</time>
      </trkpt>
      <trkpt lat="44.36302" lon="5.88183">
        <ele>610</ele>
        <time>2019-04-02T11:23:11Z</time>
      </trkpt>
      <trkpt lat="44.36306" lon="5.88194">
        <ele>610</ele>
        <time>2019-04-02T11:23:12Z</time>
      </trkpt>
      <trkpt lat="44.36309" lon="5.88206">
        <ele>609</ele>
        <time>2019-04-02T11:23:13Z</time>
      </trkpt>
      <trkpt lat="44.36311" lon="5.88218">
        <ele>609</ele>
        <time>2019-04-02T11:23:14Z</time>
      </trkpt>
      <trkpt lat="44.36314" lon="5.8823">
        <ele>609</ele>
        <time>2019-04-02T11:23:15Z</time>
      </trkpt>
      <trkpt lat="44.36317" lon="5.88243">
        <ele>609</ele>
        <time>2019-04-02T11:23:16Z</time>
      </trkpt>
      <trkpt lat="44.36319" lon="5.88255">
        <ele>609</ele>
        <time>2019-04-02T11:23:17Z</time>
      </trkpt>
      <trkpt lat="44.36321" lon="5.88268">
        <ele>609</ele>
        <time>2019-04-02T11:23:18Z</time>
      </trkpt>
      <trkpt lat="44.36323" lon="5.88281">
        <ele>608</ele>
        <time>2019-04-02T11:23:19Z</time>
      </trkpt>
      <trkpt lat="44.36325" lon="5.88294">
        <ele>608</ele>
        <time>2019-04-02T11:23:20Z</time>
      </trkpt>
      <trkpt lat="44.36329" lon="5.88307">
        <ele>607</ele>
        <time>2019-04-02T11:23:21Z</time>
      </trkpt>
      <trkpt lat="44.36332" lon="5.8832">
        <ele>607</ele>
        <time>2019-04-02T11:23:22Z</time>
      </trkpt>
      <trkpt lat="44.36337" lon="5.88334">
        <ele>606</ele>
        <time>2019-04-02T11:23:23Z</time>
      </trkpt>
      <trkpt lat="44.36343" lon="5.88348">
        <ele>606</ele>
        <time>2019-04-02T11:23:24Z</time>
      </trkpt>
      <trkpt lat="44.36348" lon="5.88362">
        <ele>605</ele>
        <time>2019-04-02T11:23:25Z</time>
      </trkpt>
      <trkpt lat="44.36354" lon="5.88376">
        <ele>605</ele>
        <time>2019-04-02T11:23:26Z</time>
      </trkpt>
      <trkpt lat="44.36359" lon="5.88389">
        <ele>605</ele>
        <time>2019-04-02T11:23:27Z</time>
      </trkpt>
      <trkpt lat="44.36363" lon="5.88403">
        <ele>605</ele>
        <time>2019-04-02T11:23:28Z</time>
      </trkpt>
      <trkpt lat="44.36367" lon="5.88416">
        <ele>605</ele>
        <time>2019-04-02T11:23:29Z</time>
      </trkpt>
      <trkpt lat="44.36369" lon="5.88429">
        <ele>605</ele>
        <time>2019-04-02T11:23:30Z</time>
      </trkpt>
      <trkpt lat="44.36371" lon="5.88442">
        <ele>605</ele>
        <time>2019-04-02T11:23:31Z</time>
      </trkpt>
      <trkpt lat="44.36372" lon="5.88455">
        <ele>605</ele>
        <time>2019-04-02T11:23:32Z</time>
      </trkpt>
      <trkpt lat="44.36373" lon="5.88468">
        <ele>605</ele>
        <time>2019-04-02T11:23:33Z</time>
      </trkpt>
      <trkpt lat="44.36374" lon="5.8848">
        <ele>605</ele>
        <time>2019-04-02T11:23:34Z</time>
      </trkpt>
      <trkpt lat="44.36374" lon="5.88492">
        <ele>605</ele>
        <time>2019-04-02T11:23:35Z</time>
      </trkpt>
      <trkpt lat="44.36374" lon="5.88504">
        <ele>605</ele>
        <time>2019-04-02T11:23:36Z</time>
      </trkpt>
      <trkpt lat="44.36374" lon="5.88516">
        <ele>605</ele>
        <time>2019-04-02T11:23:37Z</time>
      </trkpt>
      <trkpt lat="44.36374" lon="5.88527">
        <ele>605</ele>
        <time>2019-04-02T11:23:38Z</time>
      </trkpt>
      <trkpt lat="44.36374" lon="5.88538">
        <ele>605</ele>
        <time>2019-04-02T11:23:39Z</time>
      </trkpt>
      <trkpt lat="44.36374" lon="5.8855">
        <ele>605</ele>
        <time>2019-04-02T11:23:40Z</time>
      </trkpt>
      <trkpt lat="44.36374" lon="5.88561">
        <ele>605</ele>
        <time>2019-04-02T11:23:41Z</time>
      </trkpt>
      <trkpt lat="44.36373" lon="5.88573">
        <ele>605</ele>
        <time>2019-04-02T11:23:42Z</time>
      </trkpt>
      <trkpt lat="44.36372" lon="5.88584">
        <ele>605</ele>
        <time>2019-04-02T11:23:43Z</time>
      </trkpt>
      <trkpt lat="44.36372" lon="5.88595">
        <ele>605</ele>
        <time>2019-04-02T11:23:44Z</time>
      </trkpt>
      <trkpt lat="44.36372" lon="5.88606">
        <ele>605</ele>
        <time>2019-04-02T11:23:45Z</time>
      </trkpt>
      <trkpt lat="44.36372" lon="5.88617">
        <ele>605</ele>
        <time>2019-04-02T11:23:46Z</time>
      </trkpt>
      <trkpt lat="44.36371" lon="5.88626">
        <ele>605</ele>
        <time>2019-04-02T11:23:47Z</time>
      </trkpt>
      <trkpt lat="44.3637" lon="5.88636">
        <ele>605</ele>
        <time>2019-04-02T11:23:48Z</time>
      </trkpt>
      <trkpt lat="44.36368" lon="5.88647">
        <ele>605</ele>
        <time>2019-04-02T11:23:49Z</time>
      </trkpt>
      <trkpt lat="44.36365" lon="5.88657">
        <ele>605</ele>
        <time>2019-04-02T11:23:50Z</time>
      </trkpt>
      <trkpt lat="44.36362" lon="5.88667">
        <ele>605</ele>
        <time>2019-04-02T11:23:51Z</time>
      </trkpt>
      <trkpt lat="44.36359" lon="5.88676">
        <ele>605</ele>
        <time>2019-04-02T11:23:52Z</time>
      </trkpt>
      <trkpt lat="44.36354" lon="5.88685">
        <ele>605</ele>
        <time>2019-04-02T11:23:53Z</time>
      </trkpt>
      <trkpt lat="44.36351" lon="5.88694">
        <ele>605</ele>
        <time>2019-04-02T11:23:54Z</time>
      </trkpt>
      <trkpt lat="44.36347" lon="5.88701">
        <ele>605</ele>
        <time>2019-04-02T11:23:55Z</time>
      </trkpt>
      <trkpt lat="44.36344" lon="5.88709">
        <ele>605</ele>
        <time>2019-04-02T11:23:56Z</time>
      </trkpt>
      <trkpt lat="44.36341" lon="5.88717">
        <ele>605</ele>
        <time>2019-04-02T11:23:57Z</time>
      </trkpt>
      <trkpt lat="44.3634" lon="5.88725">
        <ele>605</ele>
        <time>2019-04-02T11:23:58Z</time>
      </trkpt>
      <trkpt lat="44.36338" lon="5.88734">
        <ele>605</ele>
        <time>2019-04-02T11:23:59Z</time>
      </trkpt>
      <trkpt lat="44.36338" lon="5.88743">
        <ele>605</ele>
        <time>2019-04-02T11:24:00Z</time>
      </trkpt>
      <trkpt lat="44.36338" lon="5.88752">
        <ele>605</ele>
        <time>2019-04-02T11:24:01Z</time>
      </trkpt>
      <trkpt lat="44.36338" lon="5.8876">
        <ele>605</ele>
        <time>2019-04-02T11:24:02Z</time>
      </trkpt>
      <trkpt lat="44.36339" lon="5.88769">
        <ele>605</ele>
        <time>2019-04-02T11:24:03Z</time>
      </trkpt>
      <trkpt lat="44.36341" lon="5.88778">
        <ele>605</ele>
        <time>2019-04-02T11:24:04Z</time>
      </trkpt>
      <trkpt lat="44.36343" lon="5.88788">
        <ele>605</ele>
        <time>2019-04-02T11:24:05Z</time>
      </trkpt>
      <trkpt lat="44.36346" lon="5.88797">
        <ele>605</ele>
        <time>2019-04-02T11:24:06Z</time>
      </trkpt>
      <trkpt lat="44.36349" lon="5.88807">
        <ele>605</ele>
        <time>2019-04-02T11:24:07Z</time>
      </trkpt>
      <trkpt lat="44.36353" lon="5.88818">
        <ele>605</ele>
        <time>2019-04-02T11:24:08Z</time>
      </trkpt>
      <trkpt lat="44.36357" lon="5.88828">
        <ele>605</ele>
        <time>2019-04-02T11:24:09Z</time>
      </trkpt>
      <trkpt lat="44.36361" lon="5.88838">
        <ele>605</ele>
        <time>2019-04-02T11:24:10Z</time>
      </trkpt>
      <trkpt lat="44.36365" lon="5.88848">
        <ele>605</ele>
        <time>2019-04-02T11:24:11Z</time>
      </trkpt>
      <trkpt lat="44.36369" lon="5.88859">
        <ele>605</ele>
        <time>2019-04-02T11:24:12Z</time>
      </trkpt>
      <trkpt lat="44.36373" lon="5.88869">
        <ele>605</ele>
        <time>2019-04-02T11:24:13Z</time>
      </trkpt>
      <trkpt lat="44.36377" lon="5.8888">
        <ele>605</ele>
        <time>2019-04-02T11:24:14Z</time>
      </trkpt>
      <trkpt lat="44.36381" lon="5.88891">
        <ele>605</ele>
        <time>2019-04-02T11:24:15Z</time>
      </trkpt>
      <trkpt lat="44.36385" lon="5.88902">
        <ele>605</ele>
        <time>2019-04-02T11:24:16Z</time>
      </trkpt>
      <trkpt lat="44.3639" lon="5.88912">
        <ele>605</ele>
        <time>2019-04-02T11:24:17Z</time>
      </trkpt>
      <trkpt lat="44.36394" lon="5.88924">
        <ele>605</ele>
        <time>2019-04-02T11:24:18Z</time>
      </trkpt>
      <trkpt lat="44.36398" lon="5.88935">
        <ele>604</ele>
        <time>2019-04-02T11:24:19Z</time>
      </trkpt>
      <trkpt lat="44.36403" lon="5.88947">
        <ele>604</ele>
        <time>2019-04-02T11:24:20Z</time>
      </trkpt>
      <trkpt lat="44.36407" lon="5.88959">
        <ele>604</ele>
        <time>2019-04-02T11:24:21Z</time>
      </trkpt>
      <trkpt lat="44.36411" lon="5.8897">
        <ele>603</ele>
        <time>2019-04-02T11:24:22Z</time>
      </trkpt>
      <trkpt lat="44.36415" lon="5.8898">
        <ele>603</ele>
        <time>2019-04-02T11:24:23Z</time>
      </trkpt>
      <trkpt lat="44.36419" lon="5.8899">
        <ele>603</ele>
        <time>2019-04-02T11:24:24Z</time>
      </trkpt>
      <trkpt lat="44.36423" lon="5.89">
        <ele>603</ele>
        <time>2019-04-02T11:24:25Z</time>
      </trkpt>
      <trkpt lat="44.36427" lon="5.89009">
        <ele>603</ele>
        <time>2019-04-02T11:24:26Z</time>
      </trkpt>
      <trkpt lat="44.3643" lon="5.89018">
        <ele>603</ele>
        <time>2019-04-02T11:24:27Z</time>
      </trkpt>
      <trkpt lat="44.36434" lon="5.89027">
        <ele>603</ele>
        <time>2019-04-02T11:24:28Z</time>
      </trkpt>
      <trkpt lat="44.36438" lon="5.89036">
        <ele>603</ele>
        <time>2019-04-02T11:24:29Z</time>
      </trkpt>
      <trkpt lat="44.36441" lon="5.89045">
        <ele>603</ele>
        <time>2019-04-02T11:24:30Z</time>
      </trkpt>
      <trkpt lat="44.36445" lon="5.89055">
        <ele>603</ele>
        <time>2019-04-02T11:24:31Z</time>
      </trkpt>
      <trkpt lat="44.36449" lon="5.89064">
        <ele>603</ele>
        <time>2019-04-02T11:24:32Z</time>
      </trkpt>
      <trkpt lat="44.36452" lon="5.89074">
        <ele>603</ele>
        <time>2019-04-02T11:24:33Z</time>
      </trkpt>
      <trkpt lat="44.36456" lon="5.89084">
        <ele>603</ele>
        <time>2019-04-02T11:24:34Z</time>
      </trkpt>
      <trkpt lat="44.3646" lon="5.89095">
        <ele>602</ele>
        <time>2019-04-02T11:24:35Z</time>
      </trkpt>
      <trkpt lat="44.36465" lon="5.89106">
        <ele>602</ele>
        <time>2019-04-02T11:24:36Z</time>
      </trkpt>
      <trkpt lat="44.36469" lon="5.89117">
        <ele>602</ele>
        <time>2019-04-02T11:24:37Z</time>
      </trkpt>
      <trkpt lat="44.36473" lon="5.89128">
        <ele>601</ele>
        <time>2019-04-02T11:24:38Z</time>
      </trkpt>
      <trkpt lat="44.36477" lon="5.89138">
        <ele>601</ele>
        <time>2019-04-02T11:24:39Z</time>
      </trkpt>
      <trkpt lat="44.36481" lon="5.89149">
        <ele>601</ele>
        <time>2019-04-02T11:24:40Z</time>
      </trkpt>
      <trkpt lat="44.36485" lon="5.8916">
        <ele>600</ele>
        <time>2019-04-02T11:24:41Z</time>
      </trkpt>
      <trkpt lat="44.36489" lon="5.8917">
        <ele>600</ele>
        <time>2019-04-02T11:24:42Z</time>
      </trkpt>
      <trkpt lat="44.36493" lon="5.89181">
        <ele>600</ele>
        <time>2019-04-02T11:24:43Z</time>
      </trkpt>
      <trkpt lat="44.36497" lon="5.89191">
        <ele>600</ele>
        <time>2019-04-02T11:24:44Z</time>
      </trkpt>
      <trkpt lat="44.36501" lon="5.89202">
        <ele>599</ele>
        <time>2019-04-02T11:24:45Z</time>
      </trkpt>
      <trkpt lat="44.36506" lon="5.89213">
        <ele>599</ele>
        <time>2019-04-02T11:24:46Z</time>
      </trkpt>
      <trkpt lat="44.3651" lon="5.89223">
        <ele>599</ele>
        <time>2019-04-02T11:24:47Z</time>
      </trkpt>
      <trkpt lat="44.36514" lon="5.89233">
        <ele>599</ele>
        <time>2019-04-02T11:24:48Z</time>
      </trkpt>
      <trkpt lat="44.36518" lon="5.89244">
        <ele>598</ele>
        <time>2019-04-02T11:24:49Z</time>
      </trkpt>
      <trkpt lat="44.36523" lon="5.89256">
        <ele>598</ele>
        <time>2019-04-02T11:24:50Z</time>
      </trkpt>
      <trkpt lat="44.36527" lon="5.89267">
        <ele>597</ele>
        <time>2019-04-02T11:24:51Z</time>
      </trkpt>
      <trkpt lat="44.36531" lon="5.8928">
        <ele>597</ele>
        <time>2019-04-02T11:24:52Z</time>
      </trkpt>
      <trkpt lat="44.36535" lon="5.89292">
        <ele>596</ele>
        <time>2019-04-02T11:24:53Z</time>
      </trkpt>
      <trkpt lat="44.36539" lon="5.89306">
        <ele>596</ele>
        <time>2019-04-02T11:24:54Z</time>
      </trkpt>
      <trkpt lat="44.36542" lon="5.8932">
        <ele>595</ele>
        <time>2019-04-02T11:24:55Z</time>
      </trkpt>
      <trkpt lat="44.36545" lon="5.89333">
        <ele>594</ele>
        <time>2019-04-02T11:24:56Z</time>
      </trkpt>
      <trkpt lat="44.36547" lon="5.89347">
        <ele>594</ele>
        <time>2019-04-02T11:24:57Z</time>
      </trkpt>
      <trkpt lat="44.36549" lon="5.89361">
        <ele>593</ele>
        <time>2019-04-02T11:24:58Z</time>
      </trkpt>
      <trkpt lat="44.36551" lon="5.89375">
        <ele>593</ele>
        <time>2019-04-02T11:24:59Z</time>
      </trkpt>
      <trkpt lat="44.36552" lon="5.89388">
        <ele>593</ele>
        <time>2019-04-02T11:25:00Z</time>
      </trkpt>
      <trkpt lat="44.36554" lon="5.894">
        <ele>593</ele>
        <time>2019-04-02T11:25:01Z</time>
      </trkpt>
      <trkpt lat="44.36556" lon="5.89412">
        <ele>593</ele>
        <time>2019-04-02T11:25:02Z</time>
      </trkpt>
      <trkpt lat="44.36559" lon="5.89424">
        <ele>593</ele>
        <time>2019-04-02T11:25:03Z</time>
      </trkpt>
      <trkpt lat="44.36563" lon="5.89435">
        <ele>593</ele>
        <time>2019-04-02T11:25:04Z</time>
      </trkpt>
      <trkpt lat="44.36567" lon="5.89445">
        <ele>593</ele>
        <time>2019-04-02T11:25:05Z</time>
      </trkpt>
      <trkpt lat="44.36572" lon="5.89456">
        <ele>593</ele>
        <time>2019-04-02T11:25:06Z</time>
      </trkpt>
      <trkpt lat="44.36577" lon="5.89465">
        <ele>593</ele>
        <time>2019-04-02T11:25:07Z</time>
      </trkpt>
      <trkpt lat="44.36582" lon="5.89475">
        <ele>593</ele>
        <time>2019-04-02T11:25:08Z</time>
      </trkpt>
      <trkpt lat="44.36588" lon="5.89484">
        <ele>593</ele>
        <time>2019-04-02T11:25:09Z</time>
      </trkpt>
      <trkpt lat="44.36594" lon="5.89493">
        <ele>593</ele>
        <time>2019-04-02T11:25:10Z</time>
      </trkpt>
      <trkpt lat="44.366" lon="5.89501">
        <ele>593</ele>
        <time>2019-04-02T11:25:11Z</time>
      </trkpt>
      <trkpt lat="44.36606" lon="5.8951">
        <ele>593</ele>
        <time>2019-04-02T11:25:12Z</time>
      </trkpt>
      <trkpt lat="44.36612" lon="5.8952">
        <ele>593</ele>
        <time>2019-04-02T11:25:13Z</time>
      </trkpt>
      <trkpt lat="44.36618" lon="5.89529">
        <ele>593</ele>
        <time>2019-04-02T11:25:14Z</time>
      </trkpt>
      <trkpt lat="44.36624" lon="5.89538">
        <ele>593</ele>
        <time>2019-04-02T11:25:15Z</time>
      </trkpt>
      <trkpt lat="44.3663" lon="5.89547">
        <ele>593</ele>
        <time>2019-04-02T11:25:16Z</time>
      </trkpt>
      <trkpt lat="44.36636" lon="5.89557">
        <ele>593</ele>
        <time>2019-04-02T11:25:17Z</time>
      </trkpt>
      <trkpt lat="44.36643" lon="5.89566">
        <ele>593</ele>
        <time>2019-04-02T11:25:18Z</time>
      </trkpt>
      <trkpt lat="44.36649" lon="5.89574">
        <ele>593</ele>
        <time>2019-04-02T11:25:19Z</time>
      </trkpt>
      <trkpt lat="44.36655" lon="5.89583">
        <ele>593</ele>
        <time>2019-04-02T11:25:20Z</time>
      </trkpt>
      <trkpt lat="44.3666" lon="5.89592">
        <ele>593</ele>
        <time>2019-04-02T11:25:21Z</time>
      </trkpt>
      <trkpt lat="44.36666" lon="5.89601">
        <ele>593</ele>
        <time>2019-04-02T11:25:22Z</time>
      </trkpt>
      <trkpt lat="44.36671" lon="5.89609">
        <ele>593</ele>
        <time>2019-04-02T11:25:23Z</time>
      </trkpt>
      <trkpt lat="44.36676" lon="5.89617">
        <ele>593</ele>
        <time>2019-04-02T11:25:24Z</time>
      </trkpt>
      <trkpt lat="44.36681" lon="5.89626">
        <ele>593</ele>
        <time>2019-04-02T11:25:25Z</time>
      </trkpt>
      <trkpt lat="44.36686" lon="5.89633">
        <ele>593</ele>
        <time>2019-04-02T11:25:26Z</time>
      </trkpt>
      <trkpt lat="44.36691" lon="5.89641">
        <ele>593</ele>
        <time>2019-04-02T11:25:27Z</time>
      </trkpt>
      <trkpt lat="44.36696" lon="5.89648">
        <ele>593</ele>
        <time>2019-04-02T11:25:28Z</time>
      </trkpt>
      <trkpt lat="44.36701" lon="5.89656">
        <ele>593</ele>
        <time>2019-04-02T11:25:29Z</time>
      </trkpt>
      <trkpt lat="44.36706" lon="5.89663">
        <ele>593</ele>
        <time>2019-04-02T11:25:30Z</time>
      </trkpt>
      <trkpt lat="44.3671" lon="5.8967">
        <ele>593</ele>
        <time>2019-04-02T11:25:31Z</time>
      </trkpt>
      <trkpt lat="44.36715" lon="5.89677">
        <ele>593</ele>
        <time>2019-04-02T11:25:32Z</time>
      </trkpt>
      <trkpt lat="44.3672" lon="5.89684">
        <ele>593</ele>
        <time>2019-04-02T11:25:33Z</time>
      </trkpt>
      <trkpt lat="44.36724" lon="5.89691">
        <ele>593</ele>
        <time>2019-04-02T11:25:34Z</time>
      </trkpt>
      <trkpt lat="44.36729" lon="5.89699">
        <ele>593</ele>
        <time>2019-04-02T11:25:35Z</time>
      </trkpt>
      <trkpt lat="44.36733" lon="5.89706">
        <ele>593</ele>
        <time>2019-04-02T11:25:36Z</time>
      </trkpt>
      <trkpt lat="44.36738" lon="5.89713">
        <ele>593</ele>
        <time>2019-04-02T11:25:37Z</time>
      </trkpt>
      <trkpt lat="44.36742" lon="5.8972">
        <ele>593</ele>
        <time>2019-04-02T11:25:38Z</time>
      </trkpt>
      <trkpt lat="44.36746" lon="5.89727">
        <ele>593</ele>
        <time>2019-04-02T11:25:39Z</time>
      </trkpt>
      <trkpt lat="44.36751" lon="5.89735">
        <ele>593</ele>
        <time>2019-04-02T11:25:40Z</time>
      </trkpt>
      <trkpt lat="44.36755" lon="5.89741">
        <ele>593</ele>
        <time>2019-04-02T11:25:41Z</time>
      </trkpt>
      <trkpt lat="44.36759" lon="5.89748">
        <ele>593</ele>
        <time>2019-04-02T11:25:42Z</time>
      </trkpt>
      <trkpt lat="44.36763" lon="5.89755">
        <ele>593</ele>
        <time>2019-04-02T11:25:43Z</time>
      </trkpt>
      <trkpt lat="44.36767" lon="5.89762">
        <ele>593</ele>
        <time>2019-04-02T11:25:44Z</time>
      </trkpt>
      <trkpt lat="44.36771" lon="5.8977">
        <ele>593</ele>
        <time>2019-04-02T11:25:45Z</time>
      </trkpt>
      <trkpt lat="44.36774" lon="5.89777">
        <ele>593</ele>
        <time>2019-04-02T11:25:46Z</time>
      </trkpt>
      <trkpt lat="44.36778" lon="5.89784">
        <ele>593</ele>
        <time>2019-04-02T11:25:47Z</time>
      </trkpt>
      <trkpt lat="44.36781" lon="5.89792">
        <ele>593</ele>
        <time>2019-04-02T11:25:48Z</time>
      </trkpt>
      <trkpt lat="44.36785" lon="5.898">
        <ele>593</ele>
        <time>2019-04-02T11:25:49Z</time>
      </trkpt>
      <trkpt lat="44.36788" lon="5.89808">
        <ele>593</ele>
        <time>2019-04-02T11:25:50Z</time>
      </trkpt>
      <trkpt lat="44.36791" lon="5.89817">
        <ele>593</ele>
        <time>2019-04-02T11:25:51Z</time>
      </trkpt>
      <trkpt lat="44.36794" lon="5.89825">
        <ele>593</ele>
        <time>2019-04-02T11:25:52Z</time>
      </trkpt>
      <trkpt lat="44.36797" lon="5.89834">
        <ele>593</ele>
        <time>2019-04-02T11:25:53Z</time>
      </trkpt>
      <trkpt lat="44.368" lon="5.89843">
        <ele>593</ele>
        <time>2019-04-02T11:25:54Z</time>
      </trkpt>
      <trkpt lat="44.36805" lon="5.89852">
        <ele>593</ele>
        <time>2019-04-02T11:25:55Z</time>
      </trkpt>
      <trkpt lat="44.3681" lon="5.8986">
        <ele>593</ele>
        <time>2019-04-02T11:25:56Z</time>
      </trkpt>
      <trkpt lat="44.36815" lon="5.89869">
        <ele>593</ele>
        <time>2019-04-02T11:25:57Z</time>
      </trkpt>
      <trkpt lat="44.36821" lon="5.89878">
        <ele>593</ele>
        <time>2019-04-02T11:25:58Z</time>
      </trkpt>
      <trkpt lat="44.36828" lon="5.89886">
        <ele>593</ele>
        <time>2019-04-02T11:25:59Z</time>
      </trkpt>
      <trkpt lat="44.36835" lon="5.89894">
        <ele>593</ele>
        <time>2019-04-02T11:26:00Z</time>
      </trkpt>
      <trkpt lat="44.36842" lon="5.89902">
        <ele>593</ele>
        <time>2019-04-02T11:26:01Z</time>
      </trkpt>
      <trkpt lat="44.3685" lon="5.8991">
        <ele>593</ele>
        <time>2019-04-02T11:26:02Z</time>
      </trkpt>
      <trkpt lat="44.36857" lon="5.89917">
        <ele>593</ele>
        <time>2019-04-02T11:26:03Z</time>
      </trkpt>
      <trkpt lat="44.36864" lon="5.89923">
        <ele>593</ele>
        <time>2019-04-02T11:26:04Z</time>
      </trkpt>
      <trkpt lat="44.36871" lon="5.89928">
        <ele>593</ele>
        <time>2019-04-02T11:26:05Z</time>
      </trkpt>
      <trkpt lat="44.36878" lon="5.89933">
        <ele>593</ele>
        <time>2019-04-02T11:26:06Z</time>
      </trkpt>
      <trkpt lat="44.36885" lon="5.89937">
        <ele>593</ele>
        <time>2019-04-02T11:26:07Z</time>
      </trkpt>
      <trkpt lat="44.36891" lon="5.89942">
        <ele>593</ele>
        <time>2019-04-02T11:26:08Z</time>
      </trkpt>
      <trkpt lat="44.36897" lon="5.89946">
        <ele>593</ele>
        <time>2019-04-02T11:26:09Z</time>
      </trkpt>
      <trkpt lat="44.36903" lon="5.8995">
        <ele>593</ele>
        <time>2019-04-02T11:26:11Z</time>
      </trkpt>
      <trkpt lat="44.36909" lon="5.89954">
        <ele>593</ele>
        <time>2019-04-02T11:26:11Z</time>
      </trkpt>
      <trkpt lat="44.36914" lon="5.89957">
        <ele>593</ele>
        <time>2019-04-02T11:26:12Z</time>
      </trkpt>
      <trkpt lat="44.3692" lon="5.89961">
        <ele>593</ele>
        <time>2019-04-02T11:26:13Z</time>
      </trkpt>
      <trkpt lat="44.36925" lon="5.89964">
        <ele>593</ele>
        <time>2019-04-02T11:26:14Z</time>
      </trkpt>
      <trkpt lat="44.3693" lon="5.89968">
        <ele>593</ele>
        <time>2019-04-02T11:26:15Z</time>
      </trkpt>
      <trkpt lat="44.36935" lon="5.89971">
        <ele>593</ele>
        <time>2019-04-02T11:26:16Z</time>
      </trkpt>
      <trkpt lat="44.3694" lon="5.89975">
        <ele>593</ele>
        <time>2019-04-02T11:26:17Z</time>
      </trkpt>
      <trkpt lat="44.36945" lon="5.89978">
        <ele>593</ele>
        <time>2019-04-02T11:26:18Z</time>
      </trkpt>
      <trkpt lat="44.3695" lon="5.89981">
        <ele>593</ele>
        <time>2019-04-02T11:26:19Z</time>
      </trkpt>
      <trkpt lat="44.36956" lon="5.89984">
        <ele>593</ele>
        <time>2019-04-02T11:26:20Z</time>
      </trkpt>
      <trkpt lat="44.36961" lon="5.89986">
        <ele>593</ele>
        <time>2019-04-02T11:26:21Z</time>
      </trkpt>
      <trkpt lat="44.36966" lon="5.89989">
        <ele>593</ele>
        <time>2019-04-02T11:26:22Z</time>
      </trkpt>
      <trkpt lat="44.36971" lon="5.89991">
        <ele>593</ele>
        <time>2019-04-02T11:26:23Z</time>
      </trkpt>
      <trkpt lat="44.36976" lon="5.89993">
        <ele>593</ele>
        <time>2019-04-02T11:26:24Z</time>
      </trkpt>
      <trkpt lat="44.36981" lon="5.89996">
        <ele>593</ele>
        <time>2019-04-02T11:26:25Z</time>
      </trkpt>
      <trkpt lat="44.36986" lon="5.89998">
        <ele>594</ele>
        <time>2019-04-02T11:26:26Z</time>
      </trkpt>
      <trkpt lat="44.36991" lon="5.9">
        <ele>594</ele>
        <time>2019-04-02T11:26:27Z</time>
      </trkpt>
      <trkpt lat="44.36996" lon="5.90002">
        <ele>594</ele>
        <time>2019-04-02T11:26:28Z</time>
      </trkpt>
      <trkpt lat="44.37001" lon="5.90004">
        <ele>594</ele>
        <time>2019-04-02T11:26:29Z</time>
      </trkpt>
      <trkpt lat="44.37006" lon="5.90006">
        <ele>595</ele>
        <time>2019-04-02T11:26:30Z</time>
      </trkpt>
      <trkpt lat="44.3701" lon="5.90009">
        <ele>595</ele>
        <time>2019-04-02T11:26:31Z</time>
      </trkpt>
      <trkpt lat="44.37015" lon="5.90011">
        <ele>595</ele>
        <time>2019-04-02T11:26:32Z</time>
      </trkpt>
      <trkpt lat="44.3702" lon="5.90012">
        <ele>595</ele>
        <time>2019-04-02T11:26:33Z</time>
      </trkpt>
      <trkpt lat="44.37025" lon="5.90014">
        <ele>596</ele>
        <time>2019-04-02T11:26:34Z</time>
      </trkpt>
      <trkpt lat="44.3703" lon="5.90015">
        <ele>596</ele>
        <time>2019-04-02T11:26:35Z</time>
      </trkpt>
      <trkpt lat="44.37036" lon="5.90016">
        <ele>596</ele>
        <time>2019-04-02T11:26:36Z</time>
      </trkpt>
      <trkpt lat="44.37041" lon="5.90017">
        <ele>596</ele>
        <time>2019-04-02T11:26:37Z</time>
      </trkpt>
      <trkpt lat="44.37047" lon="5.90017">
        <ele>596</ele>
        <time>2019-04-02T11:26:38Z</time>
      </trkpt>
      <trkpt lat="44.37053" lon="5.90017">
        <ele>596</ele>
        <time>2019-04-02T11:26:39Z</time>
      </trkpt>
      <trkpt lat="44.3706" lon="5.90016">
        <ele>596</ele>
        <time>2019-04-02T11:26:40Z</time>
      </trkpt>
      <trkpt lat="44.37067" lon="5.90014">
        <ele>596</ele>
        <time>2019-04-02T11:26:41Z</time>
      </trkpt>
      <trkpt lat="44.37074" lon="5.90011">
        <ele>596</ele>
        <time>2019-04-02T11:26:42Z</time>
      </trkpt>
      <trkpt lat="44.37081" lon="5.90006">
        <ele>596</ele>
        <time>2019-04-02T11:26:43Z</time>
      </trkpt>
      <trkpt lat="44.37088" lon="5.9">
        <ele>596</ele>
        <time>2019-04-02T11:26:44Z</time>
      </trkpt>
      <trkpt lat="44.37095" lon="5.89993">
        <ele>596</ele>
        <time>2019-04-02T11:26:45Z</time>
      </trkpt>
      <trkpt lat="44.37103" lon="5.89985">
        <ele>596</ele>
        <time>2019-04-02T11:26:46Z</time>
      </trkpt>
      <trkpt lat="44.3711" lon="5.89977">
        <ele>596</ele>
        <time>2019-04-02T11:26:47Z</time>
      </trkpt>
      <trkpt lat="44.37117" lon="5.89969">
        <ele>596</ele>
        <time>2019-04-02T11:26:48Z</time>
      </trkpt>
      <trkpt lat="44.37125" lon="5.89962">
        <ele>596</ele>
        <time>2019-04-02T11:26:49Z</time>
      </trkpt>
      <trkpt lat="44.37134" lon="5.89956">
        <ele>596</ele>
        <time>2019-04-02T11:26:50Z</time>
      </trkpt>
      <trkpt lat="44.37143" lon="5.89953">
        <ele>596</ele>
        <time>2019-04-02T11:26:51Z</time>
      </trkpt>
      <trkpt lat="44.37153" lon="5.89952">
        <ele>596</ele>
        <time>2019-04-02T11:26:52Z</time>
      </trkpt>
      <trkpt lat="44.37162" lon="5.89955">
        <ele>596</ele>
        <time>2019-04-02T11:26:53Z</time>
      </trkpt>
      <trkpt lat="44.37171" lon="5.89959">
        <ele>596</ele>
        <time>2019-04-02T11:26:54Z</time>
      </trkpt>
      <trkpt lat="44.37179" lon="5.89966">
        <ele>596</ele>
        <time>2019-04-02T11:26:55Z</time>
      </trkpt>
      <trkpt lat="44.37187" lon="5.89973">
        <ele>596</ele>
        <time>2019-04-02T11:26:56Z</time>
      </trkpt>
      <trkpt lat="44.37194" lon="5.89982">
        <ele>596</ele>
        <time>2019-04-02T11:26:57Z</time>
      </trkpt>
      <trkpt lat="44.372" lon="5.89991">
        <ele>596</ele>
        <time>2019-04-02T11:26:58Z</time>
      </trkpt>
      <trkpt lat="44.37207" lon="5.89999">
        <ele>596</ele>
        <time>2019-04-02T11:26:59Z</time>
      </trkpt>
      <trkpt lat="44.37213" lon="5.90008">
        <ele>596</ele>
        <time>2019-04-02T11:27:00Z</time>
      </trkpt>
      <trkpt lat="44.37219" lon="5.90017">
        <ele>596</ele>
        <time>2019-04-02T11:27:01Z</time>
      </trkpt>
      <trkpt lat="44.37225" lon="5.90026">
        <ele>596</ele>
        <time>2019-04-02T11:27:02Z</time>
      </trkpt>
      <trkpt lat="44.37231" lon="5.90034">
        <ele>596</ele>
        <time>2019-04-02T11:27:03Z</time>
      </trkpt>
      <trkpt lat="44.37236" lon="5.90042">
        <ele>596</ele>
        <time>2019-04-02T11:27:04Z</time>
      </trkpt>
      <trkpt lat="44.37242" lon="5.90051">
        <ele>596</ele>
        <time>2019-04-02T11:27:05Z</time>
      </trkpt>
      <trkpt lat="44.37247" lon="5.90059">
        <ele>596</ele>
        <time>2019-04-02T11:27:06Z</time>
      </trkpt>
      <trkpt lat="44.37252" lon="5.90067">
        <ele>596</ele>
        <time>2019-04-02T11:27:07Z</time>
      </trkpt>
      <trkpt lat="44.37258" lon="5.90074">
        <ele>596</ele>
        <time>2019-04-02T11:27:08Z</time>
      </trkpt>
      <trkpt lat="44.37263" lon="5.90082">
        <ele>596</ele>
        <time>2019-04-02T11:27:09Z</time>
      </trkpt>
      <trkpt lat="44.37268" lon="5.90089">
        <ele>596</ele>
        <time>2019-04-02T11:27:11Z</time>
      </trkpt>
      <trkpt lat="44.37273" lon="5.90096">
        <ele>596</ele>
        <time>2019-04-02T11:27:11Z</time>
      </trkpt>
      <trkpt lat="44.37278" lon="5.90103">
        <ele>596</ele>
        <time>2019-04-02T11:27:12Z</time>
      </trkpt>
      <trkpt lat="44.37283" lon="5.90109">
        <ele>596</ele>
        <time>2019-04-02T11:27:13Z</time>
      </trkpt>
      <trkpt lat="44.37289" lon="5.90116">
        <ele>596</ele>
        <time>2019-04-02T11:27:14Z</time>
      </trkpt>
      <trkpt lat="44.37294" lon="5.90122">
        <ele>596</ele>
        <time>2019-04-02T11:27:15Z</time>
      </trkpt>
      <trkpt lat="44.37299" lon="5.90129">
        <ele>596</ele>
        <time>2019-04-02T11:27:16Z</time>
      </trkpt>
      <trkpt lat="44.37304" lon="5.90135">
        <ele>596</ele>
        <time>2019-04-02T11:27:17Z</time>
      </trkpt>
      <trkpt lat="44.37309" lon="5.90141">
        <ele>596</ele>
        <time>2019-04-02T11:27:18Z</time>
      </trkpt>
      <trkpt lat="44.37314" lon="5.90147">
        <ele>597</ele>
        <time>2019-04-02T11:27:19Z</time>
      </trkpt>
      <trkpt lat="44.37319" lon="5.90153">
        <ele>597</ele>
        <time>2019-04-02T11:27:20Z</time>
      </trkpt>
      <trkpt lat="44.37324" lon="5.90159">
        <ele>597</ele>
        <time>2019-04-02T11:27:21Z</time>
      </trkpt>
      <trkpt lat="44.37328" lon="5.90166">
        <ele>597</ele>
        <time>2019-04-02T11:27:22Z</time>
      </trkpt>
      <trkpt lat="44.37333" lon="5.90171">
        <ele>598</ele>
        <time>2019-04-02T11:27:23Z</time>
      </trkpt>
      <trkpt lat="44.37337" lon="5.90177">
        <ele>598</ele>
        <time>2019-04-02T11:27:24Z</time>
      </trkpt>
      <trkpt lat="44.37342" lon="5.90183">
        <ele>598</ele>
        <time>2019-04-02T11:27:25Z</time>
      </trkpt>
      <trkpt lat="44.37346" lon="5.90189">
        <ele>598</ele>
        <time>2019-04-02T11:27:26Z</time>
      </trkpt>
      <trkpt lat="44.3735" lon="5.90194">
        <ele>599</ele>
        <time>2019-04-02T11:27:27Z</time>
      </trkpt>
      <trkpt lat="44.37354" lon="5.902">
        <ele>599</ele>
        <time>2019-04-02T11:27:28Z</time>
      </trkpt>
      <trkpt lat="44.37358" lon="5.90205">
        <ele>599</ele>
        <time>2019-04-02T11:27:29Z</time>
      </trkpt>
      <trkpt lat="44.37363" lon="5.90211">
        <ele>599</ele>
        <time>2019-04-02T11:27:30Z</time>
      </trkpt>
      <trkpt lat="44.37367" lon="5.90217">
        <ele>599</ele>
        <time>2019-04-02T11:27:31Z</time>
      </trkpt>
      <trkpt lat="44.37371" lon="5.90223">
        <ele>599</ele>
        <time>2019-04-02T11:27:32Z</time>
      </trkpt>
      <trkpt lat="44.37376" lon="5.90229">
        <ele>599</ele>
        <time>2019-04-02T11:27:33Z</time>
      </trkpt>
      <trkpt lat="44.3738" lon="5.90235">
        <ele>599</ele>
        <time>2019-04-02T11:27:34Z</time>
      </trkpt>
      <trkpt lat="44.37384" lon="5.9024">
        <ele>600</ele>
        <time>2019-04-02T11:27:35Z</time>
      </trkpt>
      <trkpt lat="44.37389" lon="5.90246">
        <ele>600</ele>
        <time>2019-04-02T11:27:36Z</time>
      </trkpt>
      <trkpt lat="44.37394" lon="5.90251">
        <ele>600</ele>
        <time>2019-04-02T11:27:37Z</time>
      </trkpt>
      <trkpt lat="44.37399" lon="5.90256">
        <ele>600</ele>
        <time>2019-04-02T11:27:38Z</time>
      </trkpt>
      <trkpt lat="44.37403" lon="5.90261">
        <ele>601</ele>
        <time>2019-04-02T11:27:39Z</time>
      </trkpt>
      <trkpt lat="44.37408" lon="5.90266">
        <ele>601</ele>
        <time>2019-04-02T11:27:40Z</time>
      </trkpt>
      <trkpt lat="44.37412" lon="5.90271">
        <ele>601</ele>
        <time>2019-04-02T11:27:41Z</time>
      </trkpt>
      <trkpt lat="44.37416" lon="5.90277">
        <ele>601</ele>
        <time>2019-04-02T11:27:42Z</time>
      </trkpt>
      <trkpt lat="44.37421" lon="5.90282">
        <ele>601</ele>
        <time>2019-04-02T11:27:43Z</time>
      </trkpt>
      <trkpt lat="44.37426" lon="5.90287">
        <ele>601</ele>
        <time>2019-04-02T11:27:44Z</time>
      </trkpt>
      <trkpt lat="44.3743" lon="5.90293">
        <ele>601</ele>
        <time>2019-04-02T11:27:45Z</time>
      </trkpt>
      <trkpt lat="44.37434" lon="5.90299">
        <ele>601</ele>
        <time>2019-04-02T11:27:46Z</time>
      </trkpt>
      <trkpt lat="44.37438" lon="5.90305">
        <ele>601</ele>
        <time>2019-04-02T11:27:47Z</time>
      </trkpt>
      <trkpt lat="44.37442" lon="5.90311">
        <ele>602</ele>
        <time>2019-04-02T11:27:48Z</time>
      </trkpt>
      <trkpt lat="44.37447" lon="5.90317">
        <ele>602</ele>
        <time>2019-04-02T11:27:49Z</time>
      </trkpt>
      <trkpt lat="44.37451" lon="5.90322">
        <ele>602</ele>
        <time>2019-04-02T11:27:50Z</time>
      </trkpt>
      <trkpt lat="44.37455" lon="5.90328">
        <ele>602</ele>
        <time>2019-04-02T11:27:51Z</time>
      </trkpt>
      <trkpt lat="44.37458" lon="5.90333">
        <ele>602</ele>
        <time>2019-04-02T11:27:52Z</time>
      </trkpt>
      <trkpt lat="44.37462" lon="5.90338">
        <ele>602</ele>
        <time>2019-04-02T11:27:53Z</time>
      </trkpt>
      <trkpt lat="44.37466" lon="5.90343">
        <ele>603</ele>
        <time>2019-04-02T11:27:54Z</time>
      </trkpt>
      <trkpt lat="44.3747" lon="5.90348">
        <ele>603</ele>
        <time>2019-04-02T11:27:55Z</time>
      </trkpt>
      <trkpt lat="44.37474" lon="5.90353">
        <ele>603</ele>
        <time>2019-04-02T11:27:56Z</time>
      </trkpt>
      <trkpt lat="44.37478" lon="5.90358">
        <ele>603</ele>
        <time>2019-04-02T11:27:57Z</time>
      </trkpt>
      <trkpt lat="44.37482" lon="5.90363">
        <ele>604</ele>
        <time>2019-04-02T11:27:58Z</time>
      </trkpt>
      <trkpt lat="44.37486" lon="5.90368">
        <ele>604</ele>
        <time>2019-04-02T11:27:59Z</time>
      </trkpt>
      <trkpt lat="44.3749" lon="5.90373">
        <ele>604</ele>
        <time>2019-04-02T11:28:00Z</time>
      </trkpt>
      <trkpt lat="44.37494" lon="5.90378">
        <ele>604</ele>
        <time>2019-04-02T11:28:01Z</time>
      </trkpt>
      <trkpt lat="44.37498" lon="5.90383">
        <ele>604</ele>
        <time>2019-04-02T11:28:02Z</time>
      </trkpt>
      <trkpt lat="44.37502" lon="5.90388">
        <ele>605</ele>
        <time>2019-04-02T11:28:03Z</time>
      </trkpt>
      <trkpt lat="44.37506" lon="5.90393">
        <ele>605</ele>
        <time>2019-04-02T11:28:04Z</time>
      </trkpt>
      <trkpt lat="44.37511" lon="5.90399">
        <ele>605</ele>
        <time>2019-04-02T11:28:05Z</time>
      </trkpt>
      <trkpt lat="44.37514" lon="5.90404">
        <ele>605</ele>
        <time>2019-04-02T11:28:06Z</time>
      </trkpt>
      <trkpt lat="44.37518" lon="5.90409">
        <ele>605</ele>
        <time>2019-04-02T11:28:07Z</time>
      </trkpt>
      <trkpt lat="44.37522" lon="5.90414">
        <ele>605</ele>
        <time>2019-04-02T11:28:08Z</time>
      </trkpt>
      <trkpt lat="44.37526" lon="5.9042">
        <ele>605</ele>
        <time>2019-04-02T11:28:09Z</time>
      </trkpt>
      <trkpt lat="44.37531" lon="5.90424">
        <ele>606</ele>
        <time>2019-04-02T11:28:11Z</time>
      </trkpt>
      <trkpt lat="44.37535" lon="5.90429">
        <ele>606</ele>
        <time>2019-04-02T11:28:11Z</time>
      </trkpt>
      <trkpt lat="44.37539" lon="5.90434">
        <ele>606</ele>
        <time>2019-04-02T11:28:12Z</time>
      </trkpt>
      <trkpt lat="44.37543" lon="5.90439">
        <ele>606</ele>
        <time>2019-04-02T11:28:13Z</time>
      </trkpt>
      <trkpt lat="44.37548" lon="5.90444">
        <ele>606</ele>
        <time>2019-04-02T11:28:14Z</time>
      </trkpt>
      <trkpt lat="44.37552" lon="5.90449">
        <ele>606</ele>
        <time>2019-04-02T11:28:15Z</time>
      </trkpt>
      <trkpt lat="44.37557" lon="5.90453">
        <ele>606</ele>
        <time>2019-04-02T11:28:16Z</time>
      </trkpt>
      <trkpt lat="44.37562" lon="5.90457">
        <ele>606</ele>
        <time>2019-04-02T11:28:17Z</time>
      </trkpt>
      <trkpt lat="44.37567" lon="5.90462">
        <ele>606</ele>
        <time>2019-04-02T11:28:18Z</time>
      </trkpt>
      <trkpt lat="44.37573" lon="5.90466">
        <ele>606</ele>
        <time>2019-04-02T11:28:19Z</time>
      </trkpt>
      <trkpt lat="44.37578" lon="5.9047">
        <ele>606</ele>
        <time>2019-04-02T11:28:20Z</time>
      </trkpt>
      <trkpt lat="44.37584" lon="5.90474">
        <ele>606</ele>
        <time>2019-04-02T11:28:21Z</time>
      </trkpt>
      <trkpt lat="44.3759" lon="5.90478">
        <ele>606</ele>
        <time>2019-04-02T11:28:22Z</time>
      </trkpt>
      <trkpt lat="44.37596" lon="5.90481">
        <ele>606</ele>
        <time>2019-04-02T11:28:23Z</time>
      </trkpt>
      <trkpt lat="44.37602" lon="5.90485">
        <ele>606</ele>
        <time>2019-04-02T11:28:24Z</time>
      </trkpt>
      <trkpt lat="44.37608" lon="5.90489">
        <ele>606</ele>
        <time>2019-04-02T11:28:25Z</time>
      </trkpt>
      <trkpt lat="44.37614" lon="5.90493">
        <ele>606</ele>
        <time>2019-04-02T11:28:26Z</time>
      </trkpt>
      <trkpt lat="44.37621" lon="5.90497">
        <ele>606</ele>
        <time>2019-04-02T11:28:27Z</time>
      </trkpt>
      <trkpt lat="44.37627" lon="5.90501">
        <ele>606</ele>
        <time>2019-04-02T11:28:28Z</time>
      </trkpt>
      <trkpt lat="44.37634" lon="5.90506">
        <ele>606</ele>
        <time>2019-04-02T11:28:29Z</time>
      </trkpt>
      <trkpt lat="44.3764" lon="5.9051">
        <ele>606</ele>
        <time>2019-04-02T11:28:30Z</time>
      </trkpt>
      <trkpt lat="44.37646" lon="5.90514">
        <ele>606</ele>
        <time>2019-04-02T11:28:31Z</time>
      </trkpt>
      <trkpt lat="44.37653" lon="5.90518">
        <ele>606</ele>
        <time>2019-04-02T11:28:32Z</time>
      </trkpt>
      <trkpt lat="44.37659" lon="5.90523">
        <ele>606</ele>
        <time>2019-04-02T11:28:33Z</time>
      </trkpt>
      <trkpt lat="44.37666" lon="5.90527">
        <ele>606</ele>
        <time>2019-04-02T11:28:34Z</time>
      </trkpt>
      <trkpt lat="44.37672" lon="5.90532">
        <ele>606</ele>
        <time>2019-04-02T11:28:35Z</time>
      </trkpt>
      <trkpt lat="44.37679" lon="5.90537">
        <ele>606</ele>
        <time>2019-04-02T11:28:36Z</time>
      </trkpt>
      <trkpt lat="44.37685" lon="5.90543">
        <ele>606</ele>
        <time>2019-04-02T11:28:37Z</time>
      </trkpt>
      <trkpt lat="44.37691" lon="5.90549">
        <ele>606</ele>
        <time>2019-04-02T11:28:38Z</time>
      </trkpt>
      <trkpt lat="44.37697" lon="5.90555">
        <ele>606</ele>
        <time>2019-04-02T11:28:39Z</time>
      </trkpt>
      <trkpt lat="44.37703" lon="5.90561">
        <ele>606</ele>
        <time>2019-04-02T11:28:40Z</time>
      </trkpt>
      <trkpt lat="44.37709" lon="5.90568">
        <ele>606</ele>
        <time>2019-04-02T11:28:41Z</time>
      </trkpt>
      <trkpt lat="44.37714" lon="5.90575">
        <ele>606</ele>
        <time>2019-04-02T11:28:42Z</time>
      </trkpt>
      <trkpt lat="44.37719" lon="5.90583">
        <ele>606</ele>
        <time>2019-04-02T11:28:43Z</time>
      </trkpt>
      <trkpt lat="44.37724" lon="5.9059">
        <ele>606</ele>
        <time>2019-04-02T11:28:44Z</time>
      </trkpt>
      <trkpt lat="44.37729" lon="5.90598">
        <ele>606</ele>
        <time>2019-04-02T11:28:45Z</time>
      </trkpt>
      <trkpt lat="44.37734" lon="5.90605">
        <ele>606</ele>
        <time>2019-04-02T11:28:46Z</time>
      </trkpt>
      <trkpt lat="44.37739" lon="5.90613">
        <ele>606</ele>
        <time>2019-04-02T11:28:47Z</time>
      </trkpt>
      <trkpt lat="44.37744" lon="5.90621">
        <ele>606</ele>
        <time>2019-04-02T11:28:48Z</time>
      </trkpt>
      <trkpt lat="44.37749" lon="5.90628">
        <ele>606</ele>
        <time>2019-04-02T11:28:49Z</time>
      </trkpt>
      <trkpt lat="44.37755" lon="5.90635">
        <ele>606</ele>
        <time>2019-04-02T11:28:50Z</time>
      </trkpt>
      <trkpt lat="44.37761" lon="5.90642">
        <ele>606</ele>
        <time>2019-04-02T11:28:51Z</time>
      </trkpt>
      <trkpt lat="44.37767" lon="5.90649">
        <ele>606</ele>
        <time>2019-04-02T11:28:52Z</time>
      </trkpt>
      <trkpt lat="44.37774" lon="5.90655">
        <ele>606</ele>
        <time>2019-04-02T11:28:53Z</time>
      </trkpt>
      <trkpt lat="44.3778" lon="5.90662">
        <ele>606</ele>
        <time>2019-04-02T11:28:54Z</time>
      </trkpt>
      <trkpt lat="44.37787" lon="5.90668">
        <ele>606</ele>
        <time>2019-04-02T11:28:55Z</time>
      </trkpt>
      <trkpt lat="44.37794" lon="5.90674">
        <ele>606</ele>
        <time>2019-04-02T11:28:56Z</time>
      </trkpt>
      <trkpt lat="44.37801" lon="5.90681">
        <ele>606</ele>
        <time>2019-04-02T11:28:57Z</time>
      </trkpt>
      <trkpt lat="44.37807" lon="5.90687">
        <ele>606</ele>
        <time>2019-04-02T11:28:58Z</time>
      </trkpt>
      <trkpt lat="44.37814" lon="5.90693">
        <ele>606</ele>
        <time>2019-04-02T11:28:59Z</time>
      </trkpt>
      <trkpt lat="44.3782" lon="5.90699">
        <ele>606</ele>
        <time>2019-04-02T11:29:00Z</time>
      </trkpt>
      <trkpt lat="44.37827" lon="5.90706">
        <ele>606</ele>
        <time>2019-04-02T11:29:01Z</time>
      </trkpt>
      <trkpt lat="44.37834" lon="5.90712">
        <ele>606</ele>
        <time>2019-04-02T11:29:02Z</time>
      </trkpt>
      <trkpt lat="44.37841" lon="5.90718">
        <ele>606</ele>
        <time>2019-04-02T11:29:03Z</time>
      </trkpt>
      <trkpt lat="44.37847" lon="5.90724">
        <ele>606</ele>
        <time>2019-04-02T11:29:04Z</time>
      </trkpt>
      <trkpt lat="44.37854" lon="5.9073">
        <ele>606</ele>
        <time>2019-04-02T11:29:05Z</time>
      </trkpt>
      <trkpt lat="44.3786" lon="5.90736">
        <ele>606</ele>
        <time>2019-04-02T11:29:06Z</time>
      </trkpt>
      <trkpt lat="44.37867" lon="5.90742">
        <ele>606</ele>
        <time>2019-04-02T11:29:07Z</time>
      </trkpt>
      <trkpt lat="44.37873" lon="5.90749">
        <ele>606</ele>
        <time>2019-04-02T11:29:08Z</time>
      </trkpt>
      <trkpt lat="44.37879" lon="5.90755">
        <ele>606</ele>
        <time>2019-04-02T11:29:09Z</time>
      </trkpt>
      <trkpt lat="44.37885" lon="5.9076">
        <ele>606</ele>
        <time>2019-04-02T11:29:10Z</time>
      </trkpt>
      <trkpt lat="44.37891" lon="5.90766">
        <ele>606</ele>
        <time>2019-04-02T11:29:11Z</time>
      </trkpt>
      <trkpt lat="44.37897" lon="5.90772">
        <ele>606</ele>
        <time>2019-04-02T11:29:12Z</time>
      </trkpt>
      <trkpt lat="44.37903" lon="5.90778">
        <ele>606</ele>
        <time>2019-04-02T11:29:13Z</time>
      </trkpt>
      <trkpt lat="44.37909" lon="5.90783">
        <ele>606</ele>
        <time>2019-04-02T11:29:14Z</time>
      </trkpt>
      <trkpt lat="44.37914" lon="5.90789">
        <ele>606</ele>
        <time>2019-04-02T11:29:15Z</time>
      </trkpt>
      <trkpt lat="44.3792" lon="5.90796">
        <ele>606</ele>
        <time>2019-04-02T11:29:16Z</time>
      </trkpt>
      <trkpt lat="44.37925" lon="5.90802">
        <ele>606</ele>
        <time>2019-04-02T11:29:17Z</time>
      </trkpt>
      <trkpt lat="44.37929" lon="5.9081">
        <ele>606</ele>
        <time>2019-04-02T11:29:18Z</time>
      </trkpt>
      <trkpt lat="44.37934" lon="5.90817">
        <ele>606</ele>
        <time>2019-04-02T11:29:19Z</time>
      </trkpt>
      <trkpt lat="44.37939" lon="5.90826">
        <ele>606</ele>
        <time>2019-04-02T11:29:20Z</time>
      </trkpt>
      <trkpt lat="44.37943" lon="5.90834">
        <ele>606</ele>
        <time>2019-04-02T11:29:21Z</time>
      </trkpt>
      <trkpt lat="44.37947" lon="5.90843">
        <ele>606</ele>
        <time>2019-04-02T11:29:22Z</time>
      </trkpt>
      <trkpt lat="44.37951" lon="5.90852">
        <ele>606</ele>
        <time>2019-04-02T11:29:23Z</time>
      </trkpt>
      <trkpt lat="44.37955" lon="5.90862">
        <ele>606</ele>
        <time>2019-04-02T11:29:24Z</time>
      </trkpt>
      <trkpt lat="44.37959" lon="5.90871">
        <ele>606</ele>
        <time>2019-04-02T11:29:25Z</time>
      </trkpt>
      <trkpt lat="44.37962" lon="5.90881">
        <ele>606</ele>
        <time>2019-04-02T11:29:26Z</time>
      </trkpt>
      <trkpt lat="44.37966" lon="5.9089">
        <ele>606</ele>
        <time>2019-04-02T11:29:27Z</time>
      </trkpt>
      <trkpt lat="44.3797" lon="5.90899">
        <ele>606</ele>
        <time>2019-04-02T11:29:28Z</time>
      </trkpt>
      <trkpt lat="44.37974" lon="5.90907">
        <ele>606</ele>
        <time>2019-04-02T11:29:29Z</time>
      </trkpt>
      <trkpt lat="44.37978" lon="5.90916">
        <ele>606</ele>
        <time>2019-04-02T11:29:30Z</time>
      </trkpt>
      <trkpt lat="44.37982" lon="5.90925">
        <ele>606</ele>
        <time>2019-04-02T11:29:31Z</time>
      </trkpt>
      <trkpt lat="44.37986" lon="5.90934">
        <ele>606</ele>
        <time>2019-04-02T11:29:32Z</time>
      </trkpt>
      <trkpt lat="44.37991" lon="5.90943">
        <ele>606</ele>
        <time>2019-04-02T11:29:33Z</time>
      </trkpt>
      <trkpt lat="44.37995" lon="5.90952">
        <ele>606</ele>
        <time>2019-04-02T11:29:34Z</time>
      </trkpt>
      <trkpt lat="44.37999" lon="5.9096">
        <ele>606</ele>
        <time>2019-04-02T11:29:35Z</time>
      </trkpt>
      <trkpt lat="44.38002" lon="5.90969">
        <ele>606</ele>
        <time>2019-04-02T11:29:36Z</time>
      </trkpt>
      <trkpt lat="44.38007" lon="5.90977">
        <ele>606</ele>
        <time>2019-04-02T11:29:37Z</time>
      </trkpt>
      <trkpt lat="44.3801" lon="5.90986">
        <ele>606</ele>
        <time>2019-04-02T11:29:38Z</time>
      </trkpt>
      <trkpt lat="44.38014" lon="5.90995">
        <ele>606</ele>
        <time>2019-04-02T11:29:39Z</time>
      </trkpt>
      <trkpt lat="44.38018" lon="5.91003">
        <ele>606</ele>
        <time>2019-04-02T11:29:40Z</time>
      </trkpt>
      <trkpt lat="44.38021" lon="5.91012">
        <ele>606</ele>
        <time>2019-04-02T11:29:41Z</time>
      </trkpt>
      <trkpt lat="44.38025" lon="5.9102">
        <ele>606</ele>
        <time>2019-04-02T11:29:42Z</time>
      </trkpt>
      <trkpt lat="44.38028" lon="5.91029">
        <ele>606</ele>
        <time>2019-04-02T11:29:43Z</time>
      </trkpt>
      <trkpt lat="44.38032" lon="5.91037">
        <ele>606</ele>
        <time>2019-04-02T11:29:44Z</time>
      </trkpt>
      <trkpt lat="44.38035" lon="5.91046">
        <ele>606</ele>
        <time>2019-04-02T11:29:45Z</time>
      </trkpt>
      <trkpt lat="44.38039" lon="5.91054">
        <ele>606</ele>
        <time>2019-04-02T11:29:46Z</time>
      </trkpt>
      <trkpt lat="44.38042" lon="5.91063">
        <ele>606</ele>
        <time>2019-04-02T11:29:47Z</time>
      </trkpt>
      <trkpt lat="44.38046" lon="5.91071">
        <ele>606</ele>
        <time>2019-04-02T11:29:48Z</time>
      </trkpt>
      <trkpt lat="44.38049" lon="5.91079">
        <ele>606</ele>
        <time>2019-04-02T11:29:49Z</time>
      </trkpt>
      <trkpt lat="44.38053" lon="5.91088">
        <ele>606</ele>
        <time>2019-04-02T11:29:50Z</time>
      </trkpt>
      <trkpt lat="44.38056" lon="5.91096">
        <ele>606</ele>
        <time>2019-04-02T11:29:51Z</time>
      </trkpt>
      <trkpt lat="44.3806" lon="5.91105">
        <ele>606</ele>
        <time>2019-04-02T11:29:52Z</time>
      </trkpt>
      <trkpt lat="44.38063" lon="5.91114">
        <ele>606</ele>
        <time>2019-04-02T11:29:53Z</time>
      </trkpt>
      <trkpt lat="44.38067" lon="5.91122">
        <ele>606</ele>
        <time>2019-04-02T11:29:54Z</time>
      </trkpt>
      <trkpt lat="44.38071" lon="5.91131">
        <ele>606</ele>
        <time>2019-04-02T11:29:55Z</time>
      </trkpt>
      <trkpt lat="44.38074" lon="5.9114">
        <ele>606</ele>
        <time>2019-04-02T11:29:56Z</time>
      </trkpt>
      <trkpt lat="44.38078" lon="5.9115">
        <ele>606</ele>
        <time>2019-04-02T11:29:57Z</time>
      </trkpt>
      <trkpt lat="44.38081" lon="5.91159">
        <ele>606</ele>
        <time>2019-04-02T11:29:58Z</time>
      </trkpt>
      <trkpt lat="44.38085" lon="5.91168">
        <ele>606</ele>
        <time>2019-04-02T11:29:59Z</time>
      </trkpt>
      <trkpt lat="44.38089" lon="5.91178">
        <ele>606</ele>
        <time>2019-04-02T11:30:00Z</time>
      </trkpt>
      <trkpt lat="44.38092" lon="5.91187">
        <ele>606</ele>
        <time>2019-04-02T11:30:01Z</time>
      </trkpt>
      <trkpt lat="44.38096" lon="5.91196">
        <ele>606</ele>
        <time>2019-04-02T11:30:02Z</time>
      </trkpt>
      <trkpt lat="44.381" lon="5.91206">
        <ele>606</ele>
        <time>2019-04-02T11:30:03Z</time>
      </trkpt>
      <trkpt lat="44.38103" lon="5.91215">
        <ele>606</ele>
        <time>2019-04-02T11:30:04Z</time>
      </trkpt>
      <trkpt lat="44.38107" lon="5.91224">
        <ele>606</ele>
        <time>2019-04-02T11:30:05Z</time>
      </trkpt>
      <trkpt lat="44.38111" lon="5.91233">
        <ele>606</ele>
        <time>2019-04-02T11:30:06Z</time>
      </trkpt>
      <trkpt lat="44.38115" lon="5.91242">
        <ele>606</ele>
        <time>2019-04-02T11:30:07Z</time>
      </trkpt>
      <trkpt lat="44.38118" lon="5.91252">
        <ele>606</ele>
        <time>2019-04-02T11:30:08Z</time>
      </trkpt>
      <trkpt lat="44.38122" lon="5.91261">
        <ele>606</ele>
        <time>2019-04-02T11:30:09Z</time>
      </trkpt>
      <trkpt lat="44.38126" lon="5.9127">
        <ele>606</ele>
        <time>2019-04-02T11:30:10Z</time>
      </trkpt>
      <trkpt lat="44.38129" lon="5.91279">
        <ele>606</ele>
        <time>2019-04-02T11:30:11Z</time>
      </trkpt>
      <trkpt lat="44.38133" lon="5.91288">
        <ele>606</ele>
        <time>2019-04-02T11:30:12Z</time>
      </trkpt>
      <trkpt lat="44.38136" lon="5.91297">
        <ele>606</ele>
        <time>2019-04-02T11:30:13Z</time>
      </trkpt>
      <trkpt lat="44.3814" lon="5.91307">
        <ele>606</ele>
        <time>2019-04-02T11:30:14Z</time>
      </trkpt>
      <trkpt lat="44.38144" lon="5.91316">
        <ele>606</ele>
        <time>2019-04-02T11:30:15Z</time>
      </trkpt>
      <trkpt lat="44.38147" lon="5.91325">
        <ele>606</ele>
        <time>2019-04-02T11:30:16Z</time>
      </trkpt>
      <trkpt lat="44.38151" lon="5.91334">
        <ele>606</ele>
        <time>2019-04-02T11:30:17Z</time>
      </trkpt>
      <trkpt lat="44.38155" lon="5.91342">
        <ele>606</ele>
        <time>2019-04-02T11:30:18Z</time>
      </trkpt>
      <trkpt lat="44.38159" lon="5.91351">
        <ele>606</ele>
        <time>2019-04-02T11:30:19Z</time>
      </trkpt>
      <trkpt lat="44.38163" lon="5.9136">
        <ele>606</ele>
        <time>2019-04-02T11:30:20Z</time>
      </trkpt>
      <trkpt lat="44.38166" lon="5.91369">
        <ele>606</ele>
        <time>2019-04-02T11:30:21Z</time>
      </trkpt>
      <trkpt lat="44.38171" lon="5.91377">
        <ele>606</ele>
        <time>2019-04-02T11:30:22Z</time>
      </trkpt>
      <trkpt lat="44.38175" lon="5.91386">
        <ele>606</ele>
        <time>2019-04-02T11:30:23Z</time>
      </trkpt>
      <trkpt lat="44.38179" lon="5.91394">
        <ele>606</ele>
        <time>2019-04-02T11:30:24Z</time>
      </trkpt>
      <trkpt lat="44.38184" lon="5.91402">
        <ele>606</ele>
        <time>2019-04-02T11:30:25Z</time>
      </trkpt>
      <trkpt lat="44.38188" lon="5.91411">
        <ele>606</ele>
        <time>2019-04-02T11:30:26Z</time>
      </trkpt>
      <trkpt lat="44.38193" lon="5.91419">
        <ele>606</ele>
        <time>2019-04-02T11:30:27Z</time>
      </trkpt>
      <trkpt lat="44.38197" lon="5.91427">
        <ele>606</ele>
        <time>2019-04-02T11:30:28Z</time>
      </trkpt>
      <trkpt lat="44.38202" lon="5.91436">
        <ele>606</ele>
        <time>2019-04-02T11:30:29Z</time>
      </trkpt>
      <trkpt lat="44.38206" lon="5.91444">
        <ele>606</ele>
        <time>2019-04-02T11:30:30Z</time>
      </trkpt>
      <trkpt lat="44.38211" lon="5.91453">
        <ele>606</ele>
        <time>2019-04-02T11:30:31Z</time>
      </trkpt>
      <trkpt lat="44.38216" lon="5.91461">
        <ele>606</ele>
        <time>2019-04-02T11:30:32Z</time>
      </trkpt>
      <trkpt lat="44.3822" lon="5.91469">
        <ele>606</ele>
        <time>2019-04-02T11:30:33Z</time>
      </trkpt>
      <trkpt lat="44.38224" lon="5.91476">
        <ele>606</ele>
        <time>2019-04-02T11:30:34Z</time>
      </trkpt>
      <trkpt lat="44.38229" lon="5.91484">
        <ele>606</ele>
        <time>2019-04-02T11:30:35Z</time>
      </trkpt>
      <trkpt lat="44.38233" lon="5.91493">
        <ele>606</ele>
        <time>2019-04-02T11:30:36Z</time>
      </trkpt>
      <trkpt lat="44.38237" lon="5.91501">
        <ele>606</ele>
        <time>2019-04-02T11:30:37Z</time>
      </trkpt>
      <trkpt lat="44.38242" lon="5.91509">
        <ele>606</ele>
        <time>2019-04-02T11:30:38Z</time>
      </trkpt>
      <trkpt lat="44.38246" lon="5.91517">
        <ele>606</ele>
        <time>2019-04-02T11:30:39Z</time>
      </trkpt>
      <trkpt lat="44.3825" lon="5.91525">
        <ele>606</ele>
        <time>2019-04-02T11:30:40Z</time>
      </trkpt>
      <trkpt lat="44.38254" lon="5.91533">
        <ele>606</ele>
        <time>2019-04-02T11:30:41Z</time>
      </trkpt>
      <trkpt lat="44.38258" lon="5.9154">
        <ele>606</ele>
        <time>2019-04-02T11:30:42Z</time>
      </trkpt>
      <trkpt lat="44.38262" lon="5.91548">
        <ele>606</ele>
        <time>2019-04-02T11:30:43Z</time>
      </trkpt>
      <trkpt lat="44.38266" lon="5.91556">
        <ele>606</ele>
        <time>2019-04-02T11:30:44Z</time>
      </trkpt>
      <trkpt lat="44.3827" lon="5.91563">
        <ele>606</ele>
        <time>2019-04-02T11:30:45Z</time>
      </trkpt>
      <trkpt lat="44.38274" lon="5.91571">
        <ele>606</ele>
        <time>2019-04-02T11:30:46Z</time>
      </trkpt>
      <trkpt lat="44.38278" lon="5.91578">
        <ele>606</ele>
        <time>2019-04-02T11:30:47Z</time>
      </trkpt>
      <trkpt lat="44.38282" lon="5.91585">
        <ele>606</ele>
        <time>2019-04-02T11:30:48Z</time>
      </trkpt>
      <trkpt lat="44.38286" lon="5.91593">
        <ele>606</ele>
        <time>2019-04-02T11:30:49Z</time>
      </trkpt>
      <trkpt lat="44.3829" lon="5.916">
        <ele>606</ele>
        <time>2019-04-02T11:30:50Z</time>
      </trkpt>
      <trkpt lat="44.38294" lon="5.91608">
        <ele>606</ele>
        <time>2019-04-02T11:30:51Z</time>
      </trkpt>
      <trkpt lat="44.38298" lon="5.91615">
        <ele>606</ele>
        <time>2019-04-02T11:30:52Z</time>
      </trkpt>
      <trkpt lat="44.38302" lon="5.91622">
        <ele>606</ele>
        <time>2019-04-02T11:30:53Z</time>
      </trkpt>
      <trkpt lat="44.38306" lon="5.9163">
        <ele>606</ele>
        <time>2019-04-02T11:30:54Z</time>
      </trkpt>
      <trkpt lat="44.3831" lon="5.91638">
        <ele>606</ele>
        <time>2019-04-02T11:30:55Z</time>
      </trkpt>
      <trkpt lat="44.38314" lon="5.91645">
        <ele>606</ele>
        <time>2019-04-02T11:30:56Z</time>
      </trkpt>
      <trkpt lat="44.38318" lon="5.91653">
        <ele>606</ele>
        <time>2019-04-02T11:30:57Z</time>
      </trkpt>
      <trkpt lat="44.38322" lon="5.91661">
        <ele>606</ele>
        <time>2019-04-02T11:30:58Z</time>
      </trkpt>
      <trkpt lat="44.38326" lon="5.91669">
        <ele>606</ele>
        <time>2019-04-02T11:30:59Z</time>
      </trkpt>
      <trkpt lat="44.3833" lon="5.91677">
        <ele>606</ele>
        <time>2019-04-02T11:31:00Z</time>
      </trkpt>
      <trkpt lat="44.38335" lon="5.91685">
        <ele>606</ele>
        <time>2019-04-02T11:31:01Z</time>
      </trkpt>
      <trkpt lat="44.38339" lon="5.91693">
        <ele>606</ele>
        <time>2019-04-02T11:31:02Z</time>
      </trkpt>
      <trkpt lat="44.38343" lon="5.91701">
        <ele>606</ele>
        <time>2019-04-02T11:31:03Z</time>
      </trkpt>
      <trkpt lat="44.38348" lon="5.91709">
        <ele>606</ele>
        <time>2019-04-02T11:31:04Z</time>
      </trkpt>
      <trkpt lat="44.38352" lon="5.91717">
        <ele>606</ele>
        <time>2019-04-02T11:31:05Z</time>
      </trkpt>
      <trkpt lat="44.38357" lon="5.91725">
        <ele>606</ele>
        <time>2019-04-02T11:31:06Z</time>
      </trkpt>
      <trkpt lat="44.38361" lon="5.91733">
        <ele>606</ele>
        <time>2019-04-02T11:31:07Z</time>
      </trkpt>
      <trkpt lat="44.38365" lon="5.91741">
        <ele>606</ele>
        <time>2019-04-02T11:31:08Z</time>
      </trkpt>
      <trkpt lat="44.38369" lon="5.91749">
        <ele>606</ele>
        <time>2019-04-02T11:31:09Z</time>
      </trkpt>
      <trkpt lat="44.38374" lon="5.91757">
        <ele>606</ele>
        <time>2019-04-02T11:31:10Z</time>
      </trkpt>
      <trkpt lat="44.38378" lon="5.91765">
        <ele>606</ele>
        <time>2019-04-02T11:31:11Z</time>
      </trkpt>
      <trkpt lat="44.38382" lon="5.91773">
        <ele>606</ele>
        <time>2019-04-02T11:31:12Z</time>
      </trkpt>
      <trkpt lat="44.38387" lon="5.91782">
        <ele>606</ele>
        <time>2019-04-02T11:31:13Z</time>
      </trkpt>
      <trkpt lat="44.38391" lon="5.9179">
        <ele>606</ele>
        <time>2019-04-02T11:31:14Z</time>
      </trkpt>
      <trkpt lat="44.38395" lon="5.91798">
        <ele>606</ele>
        <time>2019-04-02T11:31:15Z</time>
      </trkpt>
      <trkpt lat="44.384" lon="5.91806">
        <ele>606</ele>
        <time>2019-04-02T11:31:16Z</time>
      </trkpt>
      <trkpt lat="44.38404" lon="5.91814">
        <ele>606</ele>
        <time>2019-04-02T11:31:17Z</time>
      </trkpt>
      <trkpt lat="44.38408" lon="5.91823">
        <ele>605</ele>
        <time>2019-04-02T11:31:18Z</time>
      </trkpt>
      <trkpt lat="44.38413" lon="5.91831">
        <ele>605</ele>
        <time>2019-04-02T11:31:19Z</time>
      </trkpt>
      <trkpt lat="44.38417" lon="5.91839">
        <ele>605</ele>
        <time>2019-04-02T11:31:20Z</time>
      </trkpt>
      <trkpt lat="44.38422" lon="5.91848">
        <ele>605</ele>
        <time>2019-04-02T11:31:21Z</time>
      </trkpt>
      <trkpt lat="44.38427" lon="5.91856">
        <ele>605</ele>
        <time>2019-04-02T11:31:22Z</time>
      </trkpt>
      <trkpt lat="44.38431" lon="5.91865">
        <ele>604</ele>
        <time>2019-04-02T11:31:23Z</time>
      </trkpt>
      <trkpt lat="44.38436" lon="5.91874">
        <ele>604</ele>
        <time>2019-04-02T11:31:24Z</time>
      </trkpt>
      <trkpt lat="44.38441" lon="5.91883">
        <ele>604</ele>
        <time>2019-04-02T11:31:25Z</time>
      </trkpt>
      <trkpt lat="44.38446" lon="5.91892">
        <ele>604</ele>
        <time>2019-04-02T11:31:26Z</time>
      </trkpt>
      <trkpt lat="44.3845" lon="5.91901">
        <ele>604</ele>
        <time>2019-04-02T11:31:27Z</time>
      </trkpt>
      <trkpt lat="44.38455" lon="5.9191">
        <ele>604</ele>
        <time>2019-04-02T11:31:28Z</time>
      </trkpt>
      <trkpt lat="44.3846" lon="5.9192">
        <ele>603</ele>
        <time>2019-04-02T11:31:29Z</time>
      </trkpt>
      <trkpt lat="44.38464" lon="5.91928">
        <ele>603</ele>
        <time>2019-04-02T11:31:30Z</time>
      </trkpt>
      <trkpt lat="44.38469" lon="5.91937">
        <ele>603</ele>
        <time>2019-04-02T11:31:31Z</time>
      </trkpt>
      <trkpt lat="44.38475" lon="5.91947">
        <ele>603</ele>
        <time>2019-04-02T11:31:32Z</time>
      </trkpt>
      <trkpt lat="44.3848" lon="5.91956">
        <ele>603</ele>
        <time>2019-04-02T11:31:33Z</time>
      </trkpt>
      <trkpt lat="44.38485" lon="5.91965">
        <ele>603</ele>
        <time>2019-04-02T11:31:34Z</time>
      </trkpt>
      <trkpt lat="44.3849" lon="5.91974">
        <ele>603</ele>
        <time>2019-04-02T11:31:35Z</time>
      </trkpt>
      <trkpt lat="44.38494" lon="5.91983">
        <ele>603</ele>
        <time>2019-04-02T11:31:36Z</time>
      </trkpt>
      <trkpt lat="44.38499" lon="5.91992">
        <ele>602</ele>
        <time>2019-04-02T11:31:37Z</time>
      </trkpt>
      <trkpt lat="44.38504" lon="5.92002">
        <ele>602</ele>
        <time>2019-04-02T11:31:38Z</time>
      </trkpt>
      <trkpt lat="44.3851" lon="5.92011">
        <ele>602</ele>
        <time>2019-04-02T11:31:39Z</time>
      </trkpt>
      <trkpt lat="44.38515" lon="5.92021">
        <ele>602</ele>
        <time>2019-04-02T11:31:40Z</time>
      </trkpt>
      <trkpt lat="44.3852" lon="5.92031">
        <ele>601</ele>
        <time>2019-04-02T11:31:41Z</time>
      </trkpt>
      <trkpt lat="44.38525" lon="5.92041">
        <ele>601</ele>
        <time>2019-04-02T11:31:42Z</time>
      </trkpt>
      <trkpt lat="44.3853" lon="5.92051">
        <ele>601</ele>
        <time>2019-04-02T11:31:43Z</time>
      </trkpt>
      <trkpt lat="44.38536" lon="5.9206">
        <ele>601</ele>
        <time>2019-04-02T11:31:44Z</time>
      </trkpt>
      <trkpt lat="44.38541" lon="5.92069">
        <ele>601</ele>
        <time>2019-04-02T11:31:45Z</time>
      </trkpt>
      <trkpt lat="44.38546" lon="5.92079">
        <ele>601</ele>
        <time>2019-04-02T11:31:46Z</time>
      </trkpt>
      <trkpt lat="44.38551" lon="5.92088">
        <ele>601</ele>
        <time>2019-04-02T11:31:47Z</time>
      </trkpt>
      <trkpt lat="44.38556" lon="5.92098">
        <ele>601</ele>
        <time>2019-04-02T11:31:48Z</time>
      </trkpt>
      <trkpt lat="44.3856" lon="5.92107">
        <ele>601</ele>
        <time>2019-04-02T11:31:49Z</time>
      </trkpt>
      <trkpt lat="44.38564" lon="5.92117">
        <ele>600</ele>
        <time>2019-04-02T11:31:50Z</time>
      </trkpt>
      <trkpt lat="44.38568" lon="5.92127">
        <ele>600</ele>
        <time>2019-04-02T11:31:51Z</time>
      </trkpt>
      <trkpt lat="44.38571" lon="5.92137">
        <ele>600</ele>
        <time>2019-04-02T11:31:52Z</time>
      </trkpt>
      <trkpt lat="44.38574" lon="5.92147">
        <ele>600</ele>
        <time>2019-04-02T11:31:53Z</time>
      </trkpt>
      <trkpt lat="44.38577" lon="5.92158">
        <ele>600</ele>
        <time>2019-04-02T11:31:54Z</time>
      </trkpt>
      <trkpt lat="44.3858" lon="5.92168">
        <ele>600</ele>
        <time>2019-04-02T11:31:55Z</time>
      </trkpt>
      <trkpt lat="44.38583" lon="5.92177">
        <ele>600</ele>
        <time>2019-04-02T11:31:56Z</time>
      </trkpt>
      <trkpt lat="44.38586" lon="5.92187">
        <ele>600</ele>
        <time>2019-04-02T11:31:57Z</time>
      </trkpt>
      <trkpt lat="44.38588" lon="5.92197">
        <ele>600</ele>
        <time>2019-04-02T11:31:58Z</time>
      </trkpt>
      <trkpt lat="44.38591" lon="5.92206">
        <ele>600</ele>
        <time>2019-04-02T11:31:59Z</time>
      </trkpt>
      <trkpt lat="44.38594" lon="5.92216">
        <ele>600</ele>
        <time>2019-04-02T11:32:00Z</time>
      </trkpt>
      <trkpt lat="44.38596" lon="5.92225">
        <ele>600</ele>
        <time>2019-04-02T11:32:01Z</time>
      </trkpt>
      <trkpt lat="44.38599" lon="5.92233">
        <ele>600</ele>
        <time>2019-04-02T11:32:02Z</time>
      </trkpt>
      <trkpt lat="44.38601" lon="5.92241">
        <ele>600</ele>
        <time>2019-04-02T11:32:03Z</time>
      </trkpt>
      <trkpt lat="44.38604" lon="5.92249">
        <ele>600</ele>
        <time>2019-04-02T11:32:04Z</time>
      </trkpt>
      <trkpt lat="44.38606" lon="5.92257">
        <ele>600</ele>
        <time>2019-04-02T11:32:05Z</time>
      </trkpt>
      <trkpt lat="44.38609" lon="5.92264">
        <ele>600</ele>
        <time>2019-04-02T11:32:06Z</time>
      </trkpt>
      <trkpt lat="44.38612" lon="5.92271">
        <ele>600</ele>
        <time>2019-04-02T11:32:07Z</time>
      </trkpt>
      <trkpt lat="44.38614" lon="5.92278">
        <ele>600</ele>
        <time>2019-04-02T11:32:08Z</time>
      </trkpt>
      <trkpt lat="44.38617" lon="5.92285">
        <ele>600</ele>
        <time>2019-04-02T11:32:09Z</time>
      </trkpt>
      <trkpt lat="44.3862" lon="5.92292">
        <ele>600</ele>
        <time>2019-04-02T11:32:10Z</time>
      </trkpt>
      <trkpt lat="44.38623" lon="5.92299">
        <ele>600</ele>
        <time>2019-04-02T11:32:11Z</time>
      </trkpt>
      <trkpt lat="44.38625" lon="5.92306">
        <ele>600</ele>
        <time>2019-04-02T11:32:12Z</time>
      </trkpt>
      <trkpt lat="44.38628" lon="5.92312">
        <ele>600</ele>
        <time>2019-04-02T11:32:13Z</time>
      </trkpt>
      <trkpt lat="44.38631" lon="5.92319">
        <ele>600</ele>
        <time>2019-04-02T11:32:14Z</time>
      </trkpt>
      <trkpt lat="44.38634" lon="5.92327">
        <ele>600</ele>
        <time>2019-04-02T11:32:15Z</time>
      </trkpt>
      <trkpt lat="44.38637" lon="5.92334">
        <ele>600</ele>
        <time>2019-04-02T11:32:16Z</time>
      </trkpt>
      <trkpt lat="44.3864" lon="5.92341">
        <ele>600</ele>
        <time>2019-04-02T11:32:17Z</time>
      </trkpt>
      <trkpt lat="44.38643" lon="5.92349">
        <ele>600</ele>
        <time>2019-04-02T11:32:18Z</time>
      </trkpt>
      <trkpt lat="44.38645" lon="5.92356">
        <ele>600</ele>
        <time>2019-04-02T11:32:19Z</time>
      </trkpt>
      <trkpt lat="44.38648" lon="5.92364">
        <ele>600</ele>
        <time>2019-04-02T11:32:20Z</time>
      </trkpt>
      <trkpt lat="44.3865" lon="5.92373">
        <ele>600</ele>
        <time>2019-04-02T11:32:21Z</time>
      </trkpt>
      <trkpt lat="44.38652" lon="5.92381">
        <ele>600</ele>
        <time>2019-04-02T11:32:22Z</time>
      </trkpt>
      <trkpt lat="44.38654" lon="5.92389">
        <ele>600</ele>
        <time>2019-04-02T11:32:23Z</time>
      </trkpt>
      <trkpt lat="44.38655" lon="5.92398">
        <ele>600</ele>
        <time>2019-04-02T11:32:24Z</time>
      </trkpt>
      <trkpt lat="44.38657" lon="5.92407">
        <ele>600</ele>
        <time>2019-04-02T11:32:25Z</time>
      </trkpt>
      <trkpt lat="44.38657" lon="5.92417">
        <ele>600</ele>
        <time>2019-04-02T11:32:26Z</time>
      </trkpt>
      <trkpt lat="44.38658" lon="5.92426">
        <ele>600</ele>
        <time>2019-04-02T11:32:27Z</time>
      </trkpt>
      <trkpt lat="44.38659" lon="5.92436">
        <ele>600</ele>
        <time>2019-04-02T11:32:28Z</time>
      </trkpt>
      <trkpt lat="44.3866" lon="5.92446">
        <ele>600</ele>
        <time>2019-04-02T11:32:29Z</time>
      </trkpt>
      <trkpt lat="44.3866" lon="5.92456">
        <ele>600</ele>
        <time>2019-04-02T11:32:30Z</time>
      </trkpt>
      <trkpt lat="44.3866" lon="5.92466">
        <ele>600</ele>
        <time>2019-04-02T11:32:31Z</time>
      </trkpt>
      <trkpt lat="44.3866" lon="5.92477">
        <ele>600</ele>
        <time>2019-04-02T11:32:32Z</time>
      </trkpt>
      <trkpt lat="44.3866" lon="5.92487">
        <ele>600</ele>
        <time>2019-04-02T11:32:33Z</time>
      </trkpt>
      <trkpt lat="44.38661" lon="5.92497">
        <ele>600</ele>
        <time>2019-04-02T11:32:34Z</time>
      </trkpt>
      <trkpt lat="44.38661" lon="5.92508">
        <ele>600</ele>
        <time>2019-04-02T11:32:35Z</time>
      </trkpt>
      <trkpt lat="44.38662" lon="5.92519">
        <ele>600</ele>
        <time>2019-04-02T11:32:36Z</time>
      </trkpt>
      <trkpt lat="44.38662" lon="5.92529">
        <ele>600</ele>
        <time>2019-04-02T11:32:37Z</time>
      </trkpt>
      <trkpt lat="44.38663" lon="5.9254">
        <ele>600</ele>
        <time>2019-04-02T11:32:38Z</time>
      </trkpt>
      <trkpt lat="44.38664" lon="5.92551">
        <ele>600</ele>
        <time>2019-04-02T11:32:39Z</time>
      </trkpt>
      <trkpt lat="44.38666" lon="5.92561">
        <ele>600</ele>
        <time>2019-04-02T11:32:40Z</time>
      </trkpt>
      <trkpt lat="44.38668" lon="5.92573">
        <ele>600</ele>
        <time>2019-04-02T11:32:41Z</time>
      </trkpt>
      <trkpt lat="44.3867" lon="5.92584">
        <ele>600</ele>
        <time>2019-04-02T11:32:42Z</time>
      </trkpt>
      <trkpt lat="44.38673" lon="5.92596">
        <ele>600</ele>
        <time>2019-04-02T11:32:43Z</time>
      </trkpt>
      <trkpt lat="44.38675" lon="5.92607">
        <ele>600</ele>
        <time>2019-04-02T11:32:44Z</time>
      </trkpt>
      <trkpt lat="44.38678" lon="5.9262">
        <ele>600</ele>
        <time>2019-04-02T11:32:45Z</time>
      </trkpt>
      <trkpt lat="44.38681" lon="5.92632">
        <ele>600</ele>
        <time>2019-04-02T11:32:46Z</time>
      </trkpt>
      <trkpt lat="44.38684" lon="5.92644">
        <ele>599</ele>
        <time>2019-04-02T11:32:47Z</time>
      </trkpt>
      <trkpt lat="44.38687" lon="5.92657">
        <ele>599</ele>
        <time>2019-04-02T11:32:48Z</time>
      </trkpt>
      <trkpt lat="44.3869" lon="5.92669">
        <ele>598</ele>
        <time>2019-04-02T11:32:49Z</time>
      </trkpt>
      <trkpt lat="44.38693" lon="5.92682">
        <ele>598</ele>
        <time>2019-04-02T11:32:50Z</time>
      </trkpt>
      <trkpt lat="44.38695" lon="5.92696">
        <ele>597</ele>
        <time>2019-04-02T11:32:51Z</time>
      </trkpt>
      <trkpt lat="44.38697" lon="5.92709">
        <ele>597</ele>
        <time>2019-04-02T11:32:52Z</time>
      </trkpt>
      <trkpt lat="44.38697" lon="5.92723">
        <ele>596</ele>
        <time>2019-04-02T11:32:53Z</time>
      </trkpt>
      <trkpt lat="44.38696" lon="5.92736">
        <ele>596</ele>
        <time>2019-04-02T11:32:54Z</time>
      </trkpt>
      <trkpt lat="44.38694" lon="5.92749">
        <ele>596</ele>
        <time>2019-04-02T11:32:55Z</time>
      </trkpt>
      <trkpt lat="44.38692" lon="5.92762">
        <ele>595</ele>
        <time>2019-04-02T11:32:56Z</time>
      </trkpt>
      <trkpt lat="44.3869" lon="5.92775">
        <ele>595</ele>
        <time>2019-04-02T11:32:57Z</time>
      </trkpt>
      <trkpt lat="44.38688" lon="5.92788">
        <ele>595</ele>
        <time>2019-04-02T11:32:58Z</time>
      </trkpt>
      <trkpt lat="44.38686" lon="5.928">
        <ele>595</ele>
        <time>2019-04-02T11:32:59Z</time>
      </trkpt>
      <trkpt lat="44.38684" lon="5.92811">
        <ele>595</ele>
        <time>2019-04-02T11:33:00Z</time>
      </trkpt>
      <trkpt lat="44.38683" lon="5.92823">
        <ele>595</ele>
        <time>2019-04-02T11:33:01Z</time>
      </trkpt>
      <trkpt lat="44.38683" lon="5.92835">
        <ele>595</ele>
        <time>2019-04-02T11:33:02Z</time>
      </trkpt>
      <trkpt lat="44.38683" lon="5.92846">
        <ele>595</ele>
        <time>2019-04-02T11:33:03Z</time>
      </trkpt>
      <trkpt lat="44.38683" lon="5.92858">
        <ele>595</ele>
        <time>2019-04-02T11:33:04Z</time>
      </trkpt>
      <trkpt lat="44.38683" lon="5.92869">
        <ele>595</ele>
        <time>2019-04-02T11:33:05Z</time>
      </trkpt>
      <trkpt lat="44.38683" lon="5.92881">
        <ele>594</ele>
        <time>2019-04-02T11:33:06Z</time>
      </trkpt>
      <trkpt lat="44.38682" lon="5.92892">
        <ele>594</ele>
        <time>2019-04-02T11:33:07Z</time>
      </trkpt>
      <trkpt lat="44.38681" lon="5.92904">
        <ele>594</ele>
        <time>2019-04-02T11:33:08Z</time>
      </trkpt>
      <trkpt lat="44.3868" lon="5.92915">
        <ele>594</ele>
        <time>2019-04-02T11:33:09Z</time>
      </trkpt>
      <trkpt lat="44.38677" lon="5.92927">
        <ele>594</ele>
        <time>2019-04-02T11:33:10Z</time>
      </trkpt>
      <trkpt lat="44.38675" lon="5.92938">
        <ele>593</ele>
        <time>2019-04-02T11:33:11Z</time>
      </trkpt>
      <trkpt lat="44.38672" lon="5.92949">
        <ele>593</ele>
        <time>2019-04-02T11:33:12Z</time>
      </trkpt>
      <trkpt lat="44.38669" lon="5.9296">
        <ele>593</ele>
        <time>2019-04-02T11:33:13Z</time>
      </trkpt>
      <trkpt lat="44.38667" lon="5.92971">
        <ele>593</ele>
        <time>2019-04-02T11:33:14Z</time>
      </trkpt>
      <trkpt lat="44.38665" lon="5.92982">
        <ele>593</ele>
        <time>2019-04-02T11:33:15Z</time>
      </trkpt>
      <trkpt lat="44.38664" lon="5.92993">
        <ele>593</ele>
        <time>2019-04-02T11:33:16Z</time>
      </trkpt>
      <trkpt lat="44.38664" lon="5.93005">
        <ele>592</ele>
        <time>2019-04-02T11:33:17Z</time>
      </trkpt>
      <trkpt lat="44.38664" lon="5.93016">
        <ele>592</ele>
        <time>2019-04-02T11:33:18Z</time>
      </trkpt>
      <trkpt lat="44.38665" lon="5.93028">
        <ele>592</ele>
        <time>2019-04-02T11:33:19Z</time>
      </trkpt>
      <trkpt lat="44.38666" lon="5.9304">
        <ele>592</ele>
        <time>2019-04-02T11:33:20Z</time>
      </trkpt>
      <trkpt lat="44.38668" lon="5.93051">
        <ele>592</ele>
        <time>2019-04-02T11:33:21Z</time>
      </trkpt>
      <trkpt lat="44.3867" lon="5.93063">
        <ele>592</ele>
        <time>2019-04-02T11:33:22Z</time>
      </trkpt>
      <trkpt lat="44.38672" lon="5.93074">
        <ele>591</ele>
        <time>2019-04-02T11:33:23Z</time>
      </trkpt>
      <trkpt lat="44.38675" lon="5.93086">
        <ele>591</ele>
        <time>2019-04-02T11:33:24Z</time>
      </trkpt>
      <trkpt lat="44.38677" lon="5.93098">
        <ele>591</ele>
        <time>2019-04-02T11:33:25Z</time>
      </trkpt>
      <trkpt lat="44.38679" lon="5.93109">
        <ele>591</ele>
        <time>2019-04-02T11:33:26Z</time>
      </trkpt>
      <trkpt lat="44.38681" lon="5.93121">
        <ele>591</ele>
        <time>2019-04-02T11:33:27Z</time>
      </trkpt>
      <trkpt lat="44.38683" lon="5.93132">
        <ele>591</ele>
        <time>2019-04-02T11:33:28Z</time>
      </trkpt>
      <trkpt lat="44.38685" lon="5.93144">
        <ele>591</ele>
        <time>2019-04-02T11:33:29Z</time>
      </trkpt>
      <trkpt lat="44.38687" lon="5.93156">
        <ele>590</ele>
        <time>2019-04-02T11:33:30Z</time>
      </trkpt>
      <trkpt lat="44.3869" lon="5.93167">
        <ele>590</ele>
        <time>2019-04-02T11:33:31Z</time>
      </trkpt>
      <trkpt lat="44.38692" lon="5.93178">
        <ele>590</ele>
        <time>2019-04-02T11:33:32Z</time>
      </trkpt>
      <trkpt lat="44.38695" lon="5.93189">
        <ele>590</ele>
        <time>2019-04-02T11:33:33Z</time>
      </trkpt>
      <trkpt lat="44.38698" lon="5.93201">
        <ele>590</ele>
        <time>2019-04-02T11:33:34Z</time>
      </trkpt>
      <trkpt lat="44.38701" lon="5.93212">
        <ele>589</ele>
        <time>2019-04-02T11:33:35Z</time>
      </trkpt>
      <trkpt lat="44.38704" lon="5.93223">
        <ele>589</ele>
        <time>2019-04-02T11:33:36Z</time>
      </trkpt>
      <trkpt lat="44.38707" lon="5.93234">
        <ele>589</ele>
        <time>2019-04-02T11:33:37Z</time>
      </trkpt>
      <trkpt lat="44.3871" lon="5.93246">
        <ele>589</ele>
        <time>2019-04-02T11:33:38Z</time>
      </trkpt>
      <trkpt lat="44.38712" lon="5.93257">
        <ele>588</ele>
        <time>2019-04-02T11:33:39Z</time>
      </trkpt>
      <trkpt lat="44.38715" lon="5.93269">
        <ele>588</ele>
        <time>2019-04-02T11:33:40Z</time>
      </trkpt>
      <trkpt lat="44.38718" lon="5.93281">
        <ele>588</ele>
        <time>2019-04-02T11:33:41Z</time>
      </trkpt>
      <trkpt lat="44.3872" lon="5.93293">
        <ele>588</ele>
        <time>2019-04-02T11:33:42Z</time>
      </trkpt>
      <trkpt lat="44.38721" lon="5.93304">
        <ele>587</ele>
        <time>2019-04-02T11:33:43Z</time>
      </trkpt>
      <trkpt lat="44.38722" lon="5.93317">
        <ele>587</ele>
        <time>2019-04-02T11:33:44Z</time>
      </trkpt>
      <trkpt lat="44.38723" lon="5.93329">
        <ele>587</ele>
        <time>2019-04-02T11:33:45Z</time>
      </trkpt>
      <trkpt lat="44.38723" lon="5.93341">
        <ele>587</ele>
        <time>2019-04-02T11:33:46Z</time>
      </trkpt>
      <trkpt lat="44.38723" lon="5.93354">
        <ele>586</ele>
        <time>2019-04-02T11:33:47Z</time>
      </trkpt>
      <trkpt lat="44.38722" lon="5.93366">
        <ele>586</ele>
        <time>2019-04-02T11:33:48Z</time>
      </trkpt>
      <trkpt lat="44.38721" lon="5.93378">
        <ele>586</ele>
        <time>2019-04-02T11:33:49Z</time>
      </trkpt>
      <trkpt lat="44.3872" lon="5.93391">
        <ele>586</ele>
        <time>2019-04-02T11:33:50Z</time>
      </trkpt>
      <trkpt lat="44.38719" lon="5.93403">
        <ele>585</ele>
        <time>2019-04-02T11:33:51Z</time>
      </trkpt>
      <trkpt lat="44.38718" lon="5.93416">
        <ele>585</ele>
        <time>2019-04-02T11:33:52Z</time>
      </trkpt>
      <trkpt lat="44.38717" lon="5.93429">
        <ele>585</ele>
        <time>2019-04-02T11:33:53Z</time>
      </trkpt>
      <trkpt lat="44.38716" lon="5.93442">
        <ele>584</ele>
        <time>2019-04-02T11:33:54Z</time>
      </trkpt>
      <trkpt lat="44.38715" lon="5.93455">
        <ele>584</ele>
        <time>2019-04-02T11:33:55Z</time>
      </trkpt>
      <trkpt lat="44.38715" lon="5.93468">
        <ele>584</ele>
        <time>2019-04-02T11:33:56Z</time>
      </trkpt>
      <trkpt lat="44.38713" lon="5.93482">
        <ele>583</ele>
        <time>2019-04-02T11:33:57Z</time>
      </trkpt>
      <trkpt lat="44.38712" lon="5.93496">
        <ele>583</ele>
        <time>2019-04-02T11:33:58Z</time>
      </trkpt>
      <trkpt lat="44.38711" lon="5.93509">
        <ele>582</ele>
        <time>2019-04-02T11:33:59Z</time>
      </trkpt>
      <trkpt lat="44.3871" lon="5.93523">
        <ele>581</ele>
        <time>2019-04-02T11:34:00Z</time>
      </trkpt>
      <trkpt lat="44.3871" lon="5.93537">
        <ele>581</ele>
        <time>2019-04-02T11:34:01Z</time>
      </trkpt>
      <trkpt lat="44.38709" lon="5.93551">
        <ele>580</ele>
        <time>2019-04-02T11:34:02Z</time>
      </trkpt>
      <trkpt lat="44.38708" lon="5.93566">
        <ele>580</ele>
        <time>2019-04-02T11:34:03Z</time>
      </trkpt>
      <trkpt lat="44.38707" lon="5.9358">
        <ele>579</ele>
        <time>2019-04-02T11:34:04Z</time>
      </trkpt>
      <trkpt lat="44.38707" lon="5.93594">
        <ele>579</ele>
        <time>2019-04-02T11:34:05Z</time>
      </trkpt>
      <trkpt lat="44.38706" lon="5.93608">
        <ele>579</ele>
        <time>2019-04-02T11:34:06Z</time>
      </trkpt>
      <trkpt lat="44.38705" lon="5.93621">
        <ele>578</ele>
        <time>2019-04-02T11:34:07Z</time>
      </trkpt>
      <trkpt lat="44.38704" lon="5.93635">
        <ele>578</ele>
        <time>2019-04-02T11:34:08Z</time>
      </trkpt>
      <trkpt lat="44.38704" lon="5.93649">
        <ele>578</ele>
        <time>2019-04-02T11:34:09Z</time>
      </trkpt>
      <trkpt lat="44.38703" lon="5.93662">
        <ele>578</ele>
        <time>2019-04-02T11:34:10Z</time>
      </trkpt>
      <trkpt lat="44.38702" lon="5.93675">
        <ele>578</ele>
        <time>2019-04-02T11:34:11Z</time>
      </trkpt>
      <trkpt lat="44.38701" lon="5.93688">
        <ele>578</ele>
        <time>2019-04-02T11:34:12Z</time>
      </trkpt>
      <trkpt lat="44.387" lon="5.93701">
        <ele>577</ele>
        <time>2019-04-02T11:34:13Z</time>
      </trkpt>
      <trkpt lat="44.387" lon="5.93714">
        <ele>577</ele>
        <time>2019-04-02T11:34:14Z</time>
      </trkpt>
      <trkpt lat="44.38699" lon="5.93726">
        <ele>577</ele>
        <time>2019-04-02T11:34:15Z</time>
      </trkpt>
      <trkpt lat="44.38698" lon="5.93739">
        <ele>577</ele>
        <time>2019-04-02T11:34:16Z</time>
      </trkpt>
      <trkpt lat="44.38697" lon="5.93751">
        <ele>577</ele>
        <time>2019-04-02T11:34:17Z</time>
      </trkpt>
      <trkpt lat="44.38697" lon="5.93764">
        <ele>576</ele>
        <time>2019-04-02T11:34:18Z</time>
      </trkpt>
      <trkpt lat="44.38696" lon="5.93777">
        <ele>576</ele>
        <time>2019-04-02T11:34:19Z</time>
      </trkpt>
      <trkpt lat="44.38696" lon="5.9379">
        <ele>576</ele>
        <time>2019-04-02T11:34:20Z</time>
      </trkpt>
      <trkpt lat="44.38695" lon="5.93802">
        <ele>575</ele>
        <time>2019-04-02T11:34:21Z</time>
      </trkpt>
      <trkpt lat="44.38694" lon="5.93816">
        <ele>575</ele>
        <time>2019-04-02T11:34:22Z</time>
      </trkpt>
      <trkpt lat="44.38693" lon="5.93828">
        <ele>575</ele>
        <time>2019-04-02T11:34:23Z</time>
      </trkpt>
      <trkpt lat="44.38693" lon="5.93841">
        <ele>574</ele>
        <time>2019-04-02T11:34:24Z</time>
      </trkpt>
      <trkpt lat="44.38692" lon="5.93854">
        <ele>574</ele>
        <time>2019-04-02T11:34:25Z</time>
      </trkpt>
      <trkpt lat="44.38692" lon="5.93865">
        <ele>573</ele>
        <time>2019-04-02T11:34:26Z</time>
      </trkpt>
      <trkpt lat="44.3869" lon="5.93877">
        <ele>573</ele>
        <time>2019-04-02T11:34:27Z</time>
      </trkpt>
      <trkpt lat="44.38688" lon="5.93887">
        <ele>572</ele>
        <time>2019-04-02T11:34:28Z</time>
      </trkpt>
      <trkpt lat="44.38683" lon="5.93897">
        <ele>572</ele>
        <time>2019-04-02T11:34:29Z</time>
      </trkpt>
      <trkpt lat="44.38677" lon="5.93906">
        <ele>571</ele>
        <time>2019-04-02T11:34:30Z</time>
      </trkpt>
      <trkpt lat="44.38668" lon="5.93912">
        <ele>570</ele>
        <time>2019-04-02T11:34:31Z</time>
      </trkpt>
      <trkpt lat="44.38659" lon="5.93914">
        <ele>570</ele>
        <time>2019-04-02T11:34:32Z</time>
      </trkpt>
      <trkpt lat="44.3865" lon="5.93916">
        <ele>569</ele>
        <time>2019-04-02T11:34:33Z</time>
      </trkpt>
      <trkpt lat="44.3864" lon="5.93918">
        <ele>568</ele>
        <time>2019-04-02T11:34:34Z</time>
      </trkpt>
      <trkpt lat="44.3863" lon="5.93919">
        <ele>567</ele>
        <time>2019-04-02T11:34:35Z</time>
      </trkpt>
      <trkpt lat="44.3862" lon="5.93921">
        <ele>566</ele>
        <time>2019-04-02T11:34:36Z</time>
      </trkpt>
      <trkpt lat="44.38609" lon="5.93923">
        <ele>565</ele>
        <time>2019-04-02T11:34:37Z</time>
      </trkpt>
      <trkpt lat="44.38599" lon="5.93924">
        <ele>565</ele>
        <time>2019-04-02T11:34:38Z</time>
      </trkpt>
      <trkpt lat="44.38588" lon="5.93926">
        <ele>564</ele>
        <time>2019-04-02T11:34:39Z</time>
      </trkpt>
      <trkpt lat="44.38577" lon="5.93928">
        <ele>563</ele>
        <time>2019-04-02T11:34:40Z</time>
      </trkpt>
      <trkpt lat="44.38567" lon="5.93929">
        <ele>562</ele>
        <time>2019-04-02T11:34:41Z</time>
      </trkpt>
      <trkpt lat="44.38557" lon="5.93931">
        <ele>561</ele>
        <time>2019-04-02T11:34:42Z</time>
      </trkpt>
      <trkpt lat="44.38547" lon="5.93933">
        <ele>561</ele>
        <time>2019-04-02T11:34:43Z</time>
      </trkpt>
      <trkpt lat="44.38538" lon="5.93935">
        <ele>560</ele>
        <time>2019-04-02T11:34:44Z</time>
      </trkpt>
      <trkpt lat="44.38529" lon="5.93936">
        <ele>559</ele>
        <time>2019-04-02T11:34:45Z</time>
      </trkpt>
      <trkpt lat="44.38521" lon="5.93938">
        <ele>558</ele>
        <time>2019-04-02T11:34:46Z</time>
      </trkpt>
      <trkpt lat="44.38513" lon="5.93942">
        <ele>557</ele>
        <time>2019-04-02T11:34:47Z</time>
      </trkpt>
      <trkpt lat="44.38507" lon="5.93948">
        <ele>557</ele>
        <time>2019-04-02T11:34:48Z</time>
      </trkpt>
      <trkpt lat="44.38502" lon="5.93956">
        <ele>556</ele>
        <time>2019-04-02T11:34:49Z</time>
      </trkpt>
      <trkpt lat="44.38499" lon="5.93965">
        <ele>556</ele>
        <time>2019-04-02T11:34:50Z</time>
      </trkpt>
      <trkpt lat="44.38498" lon="5.93974">
        <ele>556</ele>
        <time>2019-04-02T11:34:51Z</time>
      </trkpt>
      <trkpt lat="44.38499" lon="5.93984">
        <ele>555</ele>
        <time>2019-04-02T11:34:52Z</time>
      </trkpt>
      <trkpt lat="44.38499" lon="5.93994">
        <ele>555</ele>
        <time>2019-04-02T11:34:53Z</time>
      </trkpt>
      <trkpt lat="44.385" lon="5.94003">
        <ele>555</ele>
        <time>2019-04-02T11:34:54Z</time>
      </trkpt>
      <trkpt lat="44.38501" lon="5.94012">
        <ele>555</ele>
        <time>2019-04-02T11:34:55Z</time>
      </trkpt>
      <trkpt lat="44.38503" lon="5.94022">
        <ele>555</ele>
        <time>2019-04-02T11:34:56Z</time>
      </trkpt>
      <trkpt lat="44.38504" lon="5.94031">
        <ele>555</ele>
        <time>2019-04-02T11:34:57Z</time>
      </trkpt>
      <trkpt lat="44.38504" lon="5.9404">
        <ele>555</ele>
        <time>2019-04-02T11:34:58Z</time>
      </trkpt>
      <trkpt lat="44.38504" lon="5.9405">
        <ele>555</ele>
        <time>2019-04-02T11:34:59Z</time>
      </trkpt>
      <trkpt lat="44.38504" lon="5.94058">
        <ele>555</ele>
        <time>2019-04-02T11:35:00Z</time>
      </trkpt>
      <trkpt lat="44.38504" lon="5.94066">
        <ele>555</ele>
        <time>2019-04-02T11:35:01Z</time>
      </trkpt>
      <trkpt lat="44.38504" lon="5.94075">
        <ele>555</ele>
        <time>2019-04-02T11:35:02Z</time>
      </trkpt>
      <trkpt lat="44.38504" lon="5.94083">
        <ele>555</ele>
        <time>2019-04-02T11:35:03Z</time>
      </trkpt>
      <trkpt lat="44.38504" lon="5.94091">
        <ele>555</ele>
        <time>2019-04-02T11:35:04Z</time>
      </trkpt>
      <trkpt lat="44.38503" lon="5.941">
        <ele>555</ele>
        <time>2019-04-02T11:35:05Z</time>
      </trkpt>
      <trkpt lat="44.38503" lon="5.94109">
        <ele>555</ele>
        <time>2019-04-02T11:35:06Z</time>
      </trkpt>
      <trkpt lat="44.38502" lon="5.94117">
        <ele>555</ele>
        <time>2019-04-02T11:35:07Z</time>
      </trkpt>
      <trkpt lat="44.38501" lon="5.94126">
        <ele>555</ele>
        <time>2019-04-02T11:35:08Z</time>
      </trkpt>
      <trkpt lat="44.385" lon="5.94135">
        <ele>555</ele>
        <time>2019-04-02T11:35:09Z</time>
      </trkpt>
      <trkpt lat="44.38498" lon="5.94144">
        <ele>555</ele>
        <time>2019-04-02T11:35:10Z</time>
      </trkpt>
      <trkpt lat="44.38496" lon="5.94153">
        <ele>555</ele>
        <time>2019-04-02T11:35:11Z</time>
      </trkpt>
      <trkpt lat="44.38495" lon="5.94161">
        <ele>555</ele>
        <time>2019-04-02T11:35:12Z</time>
      </trkpt>
      <trkpt lat="44.38493" lon="5.94169">
        <ele>555</ele>
        <time>2019-04-02T11:35:13Z</time>
      </trkpt>
      <trkpt lat="44.38493" lon="5.94177">
        <ele>555</ele>
        <time>2019-04-02T11:35:14Z</time>
      </trkpt>
      <trkpt lat="44.38491" lon="5.94184">
        <ele>555</ele>
        <time>2019-04-02T11:35:15Z</time>
      </trkpt>
      <trkpt lat="44.3849" lon="5.94192">
        <ele>555</ele>
        <time>2019-04-02T11:35:16Z</time>
      </trkpt>
      <trkpt lat="44.38489" lon="5.94199">
        <ele>555</ele>
        <time>2019-04-02T11:35:17Z</time>
      </trkpt>
      <trkpt lat="44.3849" lon="5.94206">
        <ele>555</ele>
        <time>2019-04-02T11:35:18Z</time>
      </trkpt>
      <trkpt lat="44.3849" lon="5.94212">
        <ele>555</ele>
        <time>2019-04-02T11:35:19Z</time>
      </trkpt>
      <trkpt lat="44.3849" lon="5.94219">
        <ele>555</ele>
        <time>2019-04-02T11:35:20Z</time>
      </trkpt>
      <trkpt lat="44.3849" lon="5.94226">
        <ele>555</ele>
        <time>2019-04-02T11:35:21Z</time>
      </trkpt>
      <trkpt lat="44.38491" lon="5.94232">
        <ele>555</ele>
        <time>2019-04-02T11:35:22Z</time>
      </trkpt>
      <trkpt lat="44.38491" lon="5.94239">
        <ele>555</ele>
        <time>2019-04-02T11:35:23Z</time>
      </trkpt>
      <trkpt lat="44.38491" lon="5.94246">
        <ele>555</ele>
        <time>2019-04-02T11:35:24Z</time>
      </trkpt>
      <trkpt lat="44.38491" lon="5.94254">
        <ele>555</ele>
        <time>2019-04-02T11:35:25Z</time>
      </trkpt>
      <trkpt lat="44.38489" lon="5.94262">
        <ele>555</ele>
        <time>2019-04-02T11:35:26Z</time>
      </trkpt>
      <trkpt lat="44.38485" lon="5.94268">
        <ele>555</ele>
        <time>2019-04-02T11:35:27Z</time>
      </trkpt>
      <trkpt lat="44.38479" lon="5.94275">
        <ele>555</ele>
        <time>2019-04-02T11:35:28Z</time>
      </trkpt>
      <trkpt lat="44.38473" lon="5.94278">
        <ele>555</ele>
        <time>2019-04-02T11:35:29Z</time>
      </trkpt>
      <trkpt lat="44.38466" lon="5.9428">
        <ele>555</ele>
        <time>2019-04-02T11:35:30Z</time>
      </trkpt>
      <trkpt lat="44.38459" lon="5.94279">
        <ele>555</ele>
        <time>2019-04-02T11:35:31Z</time>
      </trkpt>
      <trkpt lat="44.38452" lon="5.94277">
        <ele>555</ele>
        <time>2019-04-02T11:35:32Z</time>
      </trkpt>
      <trkpt lat="44.38445" lon="5.94273">
        <ele>555</ele>
        <time>2019-04-02T11:35:33Z</time>
      </trkpt>
      <trkpt lat="44.38438" lon="5.94269">
        <ele>555</ele>
        <time>2019-04-02T11:35:34Z</time>
      </trkpt>
      <trkpt lat="44.38431" lon="5.94264">
        <ele>554</ele>
        <time>2019-04-02T11:35:35Z</time>
      </trkpt>
      <trkpt lat="44.38424" lon="5.9426">
        <ele>554</ele>
        <time>2019-04-02T11:35:36Z</time>
      </trkpt>
      <trkpt lat="44.38417" lon="5.94256">
        <ele>553</ele>
        <time>2019-04-02T11:35:37Z</time>
      </trkpt>
      <trkpt lat="44.3841" lon="5.94251">
        <ele>553</ele>
        <time>2019-04-02T11:35:38Z</time>
      </trkpt>
      <trkpt lat="44.38403" lon="5.94247">
        <ele>553</ele>
        <time>2019-04-02T11:35:39Z</time>
      </trkpt>
      <trkpt lat="44.38396" lon="5.94242">
        <ele>552</ele>
        <time>2019-04-02T11:35:40Z</time>
      </trkpt>
      <trkpt lat="44.3839" lon="5.94236">
        <ele>552</ele>
        <time>2019-04-02T11:35:41Z</time>
      </trkpt>
      <trkpt lat="44.38384" lon="5.94229">
        <ele>552</ele>
        <time>2019-04-02T11:35:42Z</time>
      </trkpt>
      <trkpt lat="44.38379" lon="5.9422">
        <ele>552</ele>
        <time>2019-04-02T11:35:43Z</time>
      </trkpt>
      <trkpt lat="44.38374" lon="5.94211">
        <ele>551</ele>
        <time>2019-04-02T11:35:44Z</time>
      </trkpt>
      <trkpt lat="44.3837" lon="5.94201">
        <ele>551</ele>
        <time>2019-04-02T11:35:45Z</time>
      </trkpt>
      <trkpt lat="44.38366" lon="5.9419">
        <ele>550</ele>
        <time>2019-04-02T11:35:46Z</time>
      </trkpt>
      <trkpt lat="44.38363" lon="5.9418">
        <ele>550</ele>
        <time>2019-04-02T11:35:47Z</time>
      </trkpt>
      <trkpt lat="44.38359" lon="5.9417">
        <ele>549</ele>
        <time>2019-04-02T11:35:48Z</time>
      </trkpt>
      <trkpt lat="44.38353" lon="5.94161">
        <ele>549</ele>
        <time>2019-04-02T11:35:49Z</time>
      </trkpt>
      <trkpt lat="44.38348" lon="5.94153">
        <ele>548</ele>
        <time>2019-04-02T11:35:50Z</time>
      </trkpt>
      <trkpt lat="44.38341" lon="5.94146">
        <ele>548</ele>
        <time>2019-04-02T11:35:51Z</time>
      </trkpt>
      <trkpt lat="44.38334" lon="5.94141">
        <ele>548</ele>
        <time>2019-04-02T11:35:52Z</time>
      </trkpt>
      <trkpt lat="44.38327" lon="5.94138">
        <ele>548</ele>
        <time>2019-04-02T11:35:53Z</time>
      </trkpt>
      <trkpt lat="44.38319" lon="5.94139">
        <ele>548</ele>
        <time>2019-04-02T11:35:54Z</time>
      </trkpt>
      <trkpt lat="44.38312" lon="5.94143">
        <ele>548</ele>
        <time>2019-04-02T11:35:55Z</time>
      </trkpt>
      <trkpt lat="44.38306" lon="5.9415">
        <ele>548</ele>
        <time>2019-04-02T11:35:56Z</time>
      </trkpt>
      <trkpt lat="44.383" lon="5.9416">
        <ele>547</ele>
        <time>2019-04-02T11:35:57Z</time>
      </trkpt>
      <trkpt lat="44.38295" lon="5.9417">
        <ele>547</ele>
        <time>2019-04-02T11:35:58Z</time>
      </trkpt>
      <trkpt lat="44.3829" lon="5.9418">
        <ele>546</ele>
        <time>2019-04-02T11:35:59Z</time>
      </trkpt>
      <trkpt lat="44.38285" lon="5.9419">
        <ele>546</ele>
        <time>2019-04-02T11:36:00Z</time>
      </trkpt>
      <trkpt lat="44.38281" lon="5.942">
        <ele>545</ele>
        <time>2019-04-02T11:36:01Z</time>
      </trkpt>
      <trkpt lat="44.38276" lon="5.94211">
        <ele>545</ele>
        <time>2019-04-02T11:36:02Z</time>
      </trkpt>
      <trkpt lat="44.38271" lon="5.94221">
        <ele>545</ele>
        <time>2019-04-02T11:36:03Z</time>
      </trkpt>
      <trkpt lat="44.38266" lon="5.94232">
        <ele>544</ele>
        <time>2019-04-02T11:36:04Z</time>
      </trkpt>
      <trkpt lat="44.38261" lon="5.94242">
        <ele>544</ele>
        <time>2019-04-02T11:36:05Z</time>
      </trkpt>
      <trkpt lat="44.38256" lon="5.94252">
        <ele>544</ele>
        <time>2019-04-02T11:36:06Z</time>
      </trkpt>
      <trkpt lat="44.38252" lon="5.94262">
        <ele>543</ele>
        <time>2019-04-02T11:36:07Z</time>
      </trkpt>
      <trkpt lat="44.38247" lon="5.94272">
        <ele>543</ele>
        <time>2019-04-02T11:36:08Z</time>
      </trkpt>
      <trkpt lat="44.38242" lon="5.94281">
        <ele>543</ele>
        <time>2019-04-02T11:36:09Z</time>
      </trkpt>
      <trkpt lat="44.38238" lon="5.94291">
        <ele>542</ele>
        <time>2019-04-02T11:36:10Z</time>
      </trkpt>
      <trkpt lat="44.38233" lon="5.943">
        <ele>542</ele>
        <time>2019-04-02T11:36:11Z</time>
      </trkpt>
      <trkpt lat="44.38228" lon="5.94309">
        <ele>542</ele>
        <time>2019-04-02T11:36:12Z</time>
      </trkpt>
      <trkpt lat="44.38223" lon="5.94317">
        <ele>542</ele>
        <time>2019-04-02T11:36:13Z</time>
      </trkpt>
      <trkpt lat="44.38218" lon="5.94325">
        <ele>541</ele>
        <time>2019-04-02T11:36:14Z</time>
      </trkpt>
      <trkpt lat="44.38212" lon="5.94331">
        <ele>541</ele>
        <time>2019-04-02T11:36:15Z</time>
      </trkpt>
      <trkpt lat="44.38206" lon="5.94338">
        <ele>541</ele>
        <time>2019-04-02T11:36:16Z</time>
      </trkpt>
      <trkpt lat="44.38201" lon="5.94344">
        <ele>541</ele>
        <time>2019-04-02T11:36:17Z</time>
      </trkpt>
      <trkpt lat="44.38195" lon="5.9435">
        <ele>541</ele>
        <time>2019-04-02T11:36:18Z</time>
      </trkpt>
      <trkpt lat="44.38189" lon="5.94356">
        <ele>541</ele>
        <time>2019-04-02T11:36:19Z</time>
      </trkpt>
      <trkpt lat="44.38183" lon="5.94361">
        <ele>541</ele>
        <time>2019-04-02T11:36:20Z</time>
      </trkpt>
      <trkpt lat="44.38178" lon="5.94367">
        <ele>541</ele>
        <time>2019-04-02T11:36:21Z</time>
      </trkpt>
      <trkpt lat="44.38172" lon="5.94373">
        <ele>541</ele>
        <time>2019-04-02T11:36:22Z</time>
      </trkpt>
      <trkpt lat="44.38167" lon="5.94378">
        <ele>541</ele>
        <time>2019-04-02T11:36:23Z</time>
      </trkpt>
      <trkpt lat="44.38161" lon="5.94384">
        <ele>541</ele>
        <time>2019-04-02T11:36:24Z</time>
      </trkpt>
      <trkpt lat="44.38155" lon="5.94389">
        <ele>541</ele>
        <time>2019-04-02T11:36:25Z</time>
      </trkpt>
      <trkpt lat="44.3815" lon="5.94395">
        <ele>541</ele>
        <time>2019-04-02T11:36:26Z</time>
      </trkpt>
      <trkpt lat="44.38145" lon="5.944">
        <ele>541</ele>
        <time>2019-04-02T11:36:27Z</time>
      </trkpt>
      <trkpt lat="44.38139" lon="5.94405">
        <ele>541</ele>
        <time>2019-04-02T11:36:28Z</time>
      </trkpt>
      <trkpt lat="44.38134" lon="5.9441">
        <ele>541</ele>
        <time>2019-04-02T11:36:29Z</time>
      </trkpt>
      <trkpt lat="44.38128" lon="5.94414">
        <ele>541</ele>
        <time>2019-04-02T11:36:30Z</time>
      </trkpt>
      <trkpt lat="44.38122" lon="5.94416">
        <ele>541</ele>
        <time>2019-04-02T11:36:31Z</time>
      </trkpt>
      <trkpt lat="44.38116" lon="5.94419">
        <ele>541</ele>
        <time>2019-04-02T11:36:32Z</time>
      </trkpt>
      <trkpt lat="44.38111" lon="5.94421">
        <ele>541</ele>
        <time>2019-04-02T11:36:33Z</time>
      </trkpt>
      <trkpt lat="44.38105" lon="5.94423">
        <ele>541</ele>
        <time>2019-04-02T11:36:34Z</time>
      </trkpt>
      <trkpt lat="44.381" lon="5.94424">
        <ele>541</ele>
        <time>2019-04-02T11:36:35Z</time>
      </trkpt>
      <trkpt lat="44.38094" lon="5.94427">
        <ele>541</ele>
        <time>2019-04-02T11:36:36Z</time>
      </trkpt>
      <trkpt lat="44.38089" lon="5.94429">
        <ele>541</ele>
        <time>2019-04-02T11:36:37Z</time>
      </trkpt>
      <trkpt lat="44.38084" lon="5.94433">
        <ele>541</ele>
        <time>2019-04-02T11:36:38Z</time>
      </trkpt>
      <trkpt lat="44.38079" lon="5.94437">
        <ele>541</ele>
        <time>2019-04-02T11:36:39Z</time>
      </trkpt>
      <trkpt lat="44.38075" lon="5.94442">
        <ele>541</ele>
        <time>2019-04-02T11:36:40Z</time>
      </trkpt>
      <trkpt lat="44.38071" lon="5.94448">
        <ele>541</ele>
        <time>2019-04-02T11:36:41Z</time>
      </trkpt>
      <trkpt lat="44.38068" lon="5.94454">
        <ele>541</ele>
        <time>2019-04-02T11:36:42Z</time>
      </trkpt>
      <trkpt lat="44.38065" lon="5.94461">
        <ele>541</ele>
        <time>2019-04-02T11:36:43Z</time>
      </trkpt>
      <trkpt lat="44.38062" lon="5.94469">
        <ele>541</ele>
        <time>2019-04-02T11:36:44Z</time>
      </trkpt>
      <trkpt lat="44.3806" lon="5.94477">
        <ele>541</ele>
        <time>2019-04-02T11:36:45Z</time>
      </trkpt>
      <trkpt lat="44.38058" lon="5.94484">
        <ele>541</ele>
        <time>2019-04-02T11:36:46Z</time>
      </trkpt>
      <trkpt lat="44.38056" lon="5.94492">
        <ele>541</ele>
        <time>2019-04-02T11:36:47Z</time>
      </trkpt>
      <trkpt lat="44.38054" lon="5.94499">
        <ele>541</ele>
        <time>2019-04-02T11:36:48Z</time>
      </trkpt>
      <trkpt lat="44.38052" lon="5.94507">
        <ele>541</ele>
        <time>2019-04-02T11:36:49Z</time>
      </trkpt>
      <trkpt lat="44.3805" lon="5.94515">
        <ele>541</ele>
        <time>2019-04-02T11:36:50Z</time>
      </trkpt>
      <trkpt lat="44.38048" lon="5.94522">
        <ele>541</ele>
        <time>2019-04-02T11:36:51Z</time>
      </trkpt>
      <trkpt lat="44.38046" lon="5.9453">
        <ele>541</ele>
        <time>2019-04-02T11:36:52Z</time>
      </trkpt>
      <trkpt lat="44.38044" lon="5.94538">
        <ele>541</ele>
        <time>2019-04-02T11:36:53Z</time>
      </trkpt>
      <trkpt lat="44.38042" lon="5.94546">
        <ele>541</ele>
        <time>2019-04-02T11:36:54Z</time>
      </trkpt>
      <trkpt lat="44.3804" lon="5.94554">
        <ele>541</ele>
        <time>2019-04-02T11:36:55Z</time>
      </trkpt>
      <trkpt lat="44.38037" lon="5.94562">
        <ele>541</ele>
        <time>2019-04-02T11:36:56Z</time>
      </trkpt>
      <trkpt lat="44.38035" lon="5.9457">
        <ele>541</ele>
        <time>2019-04-02T11:36:57Z</time>
      </trkpt>
      <trkpt lat="44.38033" lon="5.94578">
        <ele>541</ele>
        <time>2019-04-02T11:36:58Z</time>
      </trkpt>
      <trkpt lat="44.38031" lon="5.94586">
        <ele>541</ele>
        <time>2019-04-02T11:36:59Z</time>
      </trkpt>
      <trkpt lat="44.38028" lon="5.94594">
        <ele>541</ele>
        <time>2019-04-02T11:37:00Z</time>
      </trkpt>
      <trkpt lat="44.38026" lon="5.94602">
        <ele>541</ele>
        <time>2019-04-02T11:37:01Z</time>
      </trkpt>
      <trkpt lat="44.38024" lon="5.9461">
        <ele>541</ele>
        <time>2019-04-02T11:37:02Z</time>
      </trkpt>
      <trkpt lat="44.38022" lon="5.94618">
        <ele>541</ele>
        <time>2019-04-02T11:37:03Z</time>
      </trkpt>
      <trkpt lat="44.38019" lon="5.94626">
        <ele>541</ele>
        <time>2019-04-02T11:37:04Z</time>
      </trkpt>
      <trkpt lat="44.38016" lon="5.94634">
        <ele>541</ele>
        <time>2019-04-02T11:37:05Z</time>
      </trkpt>
      <trkpt lat="44.38012" lon="5.94641">
        <ele>541</ele>
        <time>2019-04-02T11:37:06Z</time>
      </trkpt>
      <trkpt lat="44.38007" lon="5.94648">
        <ele>541</ele>
        <time>2019-04-02T11:37:07Z</time>
      </trkpt>
      <trkpt lat="44.38002" lon="5.94653">
        <ele>541</ele>
        <time>2019-04-02T11:37:08Z</time>
      </trkpt>
      <trkpt lat="44.37997" lon="5.94657">
        <ele>541</ele>
        <time>2019-04-02T11:37:09Z</time>
      </trkpt>
      <trkpt lat="44.37991" lon="5.9466">
        <ele>541</ele>
        <time>2019-04-02T11:37:10Z</time>
      </trkpt>
      <trkpt lat="44.37986" lon="5.94663">
        <ele>541</ele>
        <time>2019-04-02T11:37:11Z</time>
      </trkpt>
      <trkpt lat="44.3798" lon="5.94665">
        <ele>541</ele>
        <time>2019-04-02T11:37:12Z</time>
      </trkpt>
      <trkpt lat="44.37975" lon="5.94666">
        <ele>541</ele>
        <time>2019-04-02T11:37:13Z</time>
      </trkpt>
      <trkpt lat="44.37969" lon="5.94668">
        <ele>541</ele>
        <time>2019-04-02T11:37:14Z</time>
      </trkpt>
      <trkpt lat="44.37964" lon="5.94668">
        <ele>541</ele>
        <time>2019-04-02T11:37:15Z</time>
      </trkpt>
      <trkpt lat="44.37958" lon="5.94669">
        <ele>541</ele>
        <time>2019-04-02T11:37:16Z</time>
      </trkpt>
      <trkpt lat="44.37953" lon="5.94671">
        <ele>541</ele>
        <time>2019-04-02T11:37:17Z</time>
      </trkpt>
      <trkpt lat="44.37948" lon="5.94673">
        <ele>541</ele>
        <time>2019-04-02T11:37:18Z</time>
      </trkpt>
      <trkpt lat="44.37943" lon="5.94676">
        <ele>541</ele>
        <time>2019-04-02T11:37:19Z</time>
      </trkpt>
      <trkpt lat="44.37938" lon="5.94679">
        <ele>541</ele>
        <time>2019-04-02T11:37:20Z</time>
      </trkpt>
      <trkpt lat="44.37934" lon="5.94683">
        <ele>541</ele>
        <time>2019-04-02T11:37:21Z</time>
      </trkpt>
      <trkpt lat="44.3793" lon="5.94687">
        <ele>541</ele>
        <time>2019-04-02T11:37:22Z</time>
      </trkpt>
      <trkpt lat="44.37925" lon="5.94691">
        <ele>541</ele>
        <time>2019-04-02T11:37:23Z</time>
      </trkpt>
      <trkpt lat="44.37921" lon="5.94696">
        <ele>541</ele>
        <time>2019-04-02T11:37:24Z</time>
      </trkpt>
      <trkpt lat="44.37917" lon="5.94701">
        <ele>541</ele>
        <time>2019-04-02T11:37:25Z</time>
      </trkpt>
      <trkpt lat="44.37914" lon="5.94706">
        <ele>541</ele>
        <time>2019-04-02T11:37:26Z</time>
      </trkpt>
      <trkpt lat="44.3791" lon="5.94711">
        <ele>541</ele>
        <time>2019-04-02T11:37:27Z</time>
      </trkpt>
      <trkpt lat="44.37907" lon="5.94716">
        <ele>541</ele>
        <time>2019-04-02T11:37:28Z</time>
      </trkpt>
      <trkpt lat="44.37904" lon="5.94722">
        <ele>541</ele>
        <time>2019-04-02T11:37:29Z</time>
      </trkpt>
      <trkpt lat="44.37901" lon="5.94727">
        <ele>541</ele>
        <time>2019-04-02T11:37:30Z</time>
      </trkpt>
      <trkpt lat="44.37899" lon="5.94733">
        <ele>541</ele>
        <time>2019-04-02T11:37:31Z</time>
      </trkpt>
      <trkpt lat="44.37896" lon="5.94738">
        <ele>542</ele>
        <time>2019-04-02T11:37:32Z</time>
      </trkpt>
      <trkpt lat="44.37892" lon="5.94744">
        <ele>542</ele>
        <time>2019-04-02T11:37:33Z</time>
      </trkpt>
      <trkpt lat="44.37889" lon="5.94749">
        <ele>542</ele>
        <time>2019-04-02T11:37:34Z</time>
      </trkpt>
      <trkpt lat="44.37886" lon="5.94754">
        <ele>542</ele>
        <time>2019-04-02T11:37:35Z</time>
      </trkpt>
      <trkpt lat="44.37882" lon="5.94758">
        <ele>543</ele>
        <time>2019-04-02T11:37:36Z</time>
      </trkpt>
      <trkpt lat="44.37878" lon="5.94762">
        <ele>543</ele>
        <time>2019-04-02T11:37:37Z</time>
      </trkpt>
      <trkpt lat="44.37875" lon="5.94766">
        <ele>543</ele>
        <time>2019-04-02T11:37:38Z</time>
      </trkpt>
      <trkpt lat="44.37871" lon="5.94769">
        <ele>543</ele>
        <time>2019-04-02T11:37:39Z</time>
      </trkpt>
      <trkpt lat="44.37867" lon="5.94772">
        <ele>544</ele>
        <time>2019-04-02T11:37:40Z</time>
      </trkpt>
      <trkpt lat="44.37862" lon="5.94774">
        <ele>544</ele>
        <time>2019-04-02T11:37:41Z</time>
      </trkpt>
      <trkpt lat="44.37858" lon="5.94777">
        <ele>544</ele>
        <time>2019-04-02T11:37:42Z</time>
      </trkpt>
      <trkpt lat="44.37854" lon="5.9478">
        <ele>544</ele>
        <time>2019-04-02T11:37:43Z</time>
      </trkpt>
      <trkpt lat="44.3785" lon="5.94783">
        <ele>545</ele>
        <time>2019-04-02T11:37:44Z</time>
      </trkpt>
      <trkpt lat="44.37846" lon="5.94787">
        <ele>545</ele>
        <time>2019-04-02T11:37:45Z</time>
      </trkpt>
      <trkpt lat="44.37843" lon="5.94792">
        <ele>545</ele>
        <time>2019-04-02T11:37:46Z</time>
      </trkpt>
      <trkpt lat="44.3784" lon="5.94796">
        <ele>545</ele>
        <time>2019-04-02T11:37:47Z</time>
      </trkpt>
      <trkpt lat="44.37838" lon="5.94801">
        <ele>546</ele>
        <time>2019-04-02T11:37:48Z</time>
      </trkpt>
      <trkpt lat="44.37836" lon="5.94806">
        <ele>546</ele>
        <time>2019-04-02T11:37:49Z</time>
      </trkpt>
      <trkpt lat="44.37835" lon="5.94811">
        <ele>546</ele>
        <time>2019-04-02T11:37:50Z</time>
      </trkpt>
      <trkpt lat="44.37835" lon="5.94817">
        <ele>547</ele>
        <time>2019-04-02T11:37:51Z</time>
      </trkpt>
      <trkpt lat="44.37834" lon="5.94823">
        <ele>547</ele>
        <time>2019-04-02T11:37:52Z</time>
      </trkpt>
      <trkpt lat="44.37834" lon="5.94828">
        <ele>548</ele>
        <time>2019-04-02T11:37:53Z</time>
      </trkpt>
      <trkpt lat="44.37834" lon="5.94834">
        <ele>548</ele>
        <time>2019-04-02T11:37:54Z</time>
      </trkpt>
      <trkpt lat="44.37834" lon="5.94839">
        <ele>549</ele>
        <time>2019-04-02T11:37:55Z</time>
      </trkpt>
      <trkpt lat="44.37833" lon="5.94845">
        <ele>549</ele>
        <time>2019-04-02T11:37:56Z</time>
      </trkpt>
      <trkpt lat="44.37833" lon="5.9485">
        <ele>550</ele>
        <time>2019-04-02T11:37:57Z</time>
      </trkpt>
      <trkpt lat="44.37833" lon="5.94856">
        <ele>550</ele>
        <time>2019-04-02T11:37:58Z</time>
      </trkpt>
      <trkpt lat="44.37833" lon="5.94862">
        <ele>550</ele>
        <time>2019-04-02T11:37:59Z</time>
      </trkpt>
      <trkpt lat="44.37833" lon="5.94868">
        <ele>551</ele>
        <time>2019-04-02T11:38:00Z</time>
      </trkpt>
      <trkpt lat="44.37832" lon="5.94873">
        <ele>551</ele>
        <time>2019-04-02T11:38:01Z</time>
      </trkpt>
      <trkpt lat="44.37832" lon="5.94878">
        <ele>551</ele>
        <time>2019-04-02T11:38:02Z</time>
      </trkpt>
      <trkpt lat="44.37831" lon="5.94884">
        <ele>552</ele>
        <time>2019-04-02T11:38:03Z</time>
      </trkpt>
      <trkpt lat="44.3783" lon="5.94889">
        <ele>552</ele>
        <time>2019-04-02T11:38:04Z</time>
      </trkpt>
      <trkpt lat="44.37829" lon="5.94894">
        <ele>553</ele>
        <time>2019-04-02T11:38:05Z</time>
      </trkpt>
      <trkpt lat="44.37828" lon="5.94898">
        <ele>553</ele>
        <time>2019-04-02T11:38:06Z</time>
      </trkpt>
      <trkpt lat="44.37827" lon="5.94903">
        <ele>553</ele>
        <time>2019-04-02T11:38:07Z</time>
      </trkpt>
      <trkpt lat="44.37827" lon="5.94908">
        <ele>554</ele>
        <time>2019-04-02T11:38:08Z</time>
      </trkpt>
      <trkpt lat="44.37826" lon="5.94913">
        <ele>554</ele>
        <time>2019-04-02T11:38:09Z</time>
      </trkpt>
      <trkpt lat="44.37825" lon="5.94918">
        <ele>554</ele>
        <time>2019-04-02T11:38:11Z</time>
      </trkpt>
      <trkpt lat="44.37825" lon="5.94923">
        <ele>554</ele>
        <time>2019-04-02T11:38:11Z</time>
      </trkpt>
      <trkpt lat="44.37824" lon="5.94928">
        <ele>555</ele>
        <time>2019-04-02T11:38:12Z</time>
      </trkpt>
      <trkpt lat="44.37823" lon="5.94933">
        <ele>555</ele>
        <time>2019-04-02T11:38:13Z</time>
      </trkpt>
      <trkpt lat="44.37822" lon="5.94938">
        <ele>555</ele>
        <time>2019-04-02T11:38:14Z</time>
      </trkpt>
      <trkpt lat="44.37822" lon="5.94942">
        <ele>556</ele>
        <time>2019-04-02T11:38:15Z</time>
      </trkpt>
      <trkpt lat="44.37821" lon="5.94947">
        <ele>556</ele>
        <time>2019-04-02T11:38:16Z</time>
      </trkpt>
      <trkpt lat="44.3782" lon="5.94951">
        <ele>556</ele>
        <time>2019-04-02T11:38:17Z</time>
      </trkpt>
      <trkpt lat="44.37819" lon="5.94956">
        <ele>556</ele>
        <time>2019-04-02T11:38:18Z</time>
      </trkpt>
      <trkpt lat="44.37818" lon="5.9496">
        <ele>557</ele>
        <time>2019-04-02T11:38:19Z</time>
      </trkpt>
      <trkpt lat="44.37817" lon="5.94965">
        <ele>557</ele>
        <time>2019-04-02T11:38:20Z</time>
      </trkpt>
      <trkpt lat="44.37816" lon="5.94969">
        <ele>557</ele>
        <time>2019-04-02T11:38:21Z</time>
      </trkpt>
      <trkpt lat="44.37815" lon="5.94973">
        <ele>557</ele>
        <time>2019-04-02T11:38:22Z</time>
      </trkpt>
      <trkpt lat="44.37815" lon="5.94977">
        <ele>557</ele>
        <time>2019-04-02T11:38:23Z</time>
      </trkpt>
      <trkpt lat="44.37814" lon="5.94981">
        <ele>557</ele>
        <time>2019-04-02T11:38:24Z</time>
      </trkpt>
      <trkpt lat="44.37814" lon="5.94985">
        <ele>557</ele>
        <time>2019-04-02T11:38:26Z</time>
      </trkpt>
      <trkpt lat="44.37813" lon="5.94989">
        <ele>557</ele>
        <time>2019-04-02T11:38:26Z</time>
      </trkpt>
      <trkpt lat="44.37812" lon="5.94993">
        <ele>557</ele>
        <time>2019-04-02T11:38:27Z</time>
      </trkpt>
      <trkpt lat="44.37811" lon="5.94997">
        <ele>557</ele>
        <time>2019-04-02T11:38:28Z</time>
      </trkpt>
      <trkpt lat="44.3781" lon="5.95001">
        <ele>557</ele>
        <time>2019-04-02T11:38:29Z</time>
      </trkpt>
      <trkpt lat="44.37809" lon="5.95004">
        <ele>557</ele>
        <time>2019-04-02T11:38:30Z</time>
      </trkpt>
      <trkpt lat="44.37808" lon="5.95007">
        <ele>558</ele>
        <time>2019-04-02T11:38:31Z</time>
      </trkpt>
      <trkpt lat="44.37807" lon="5.95011">
        <ele>558</ele>
        <time>2019-04-02T11:38:32Z</time>
      </trkpt>
      <trkpt lat="44.37807" lon="5.95014">
        <ele>558</ele>
        <time>2019-04-02T11:38:33Z</time>
      </trkpt>
      <trkpt lat="44.37806" lon="5.95018">
        <ele>558</ele>
        <time>2019-04-02T11:38:34Z</time>
      </trkpt>
      <trkpt lat="44.37804" lon="5.95021">
        <ele>558</ele>
        <time>2019-04-02T11:38:35Z</time>
      </trkpt>
      <trkpt lat="44.37803" lon="5.95024">
        <ele>558</ele>
        <time>2019-04-02T11:38:36Z</time>
      </trkpt>
      <trkpt lat="44.37801" lon="5.95027">
        <ele>559</ele>
        <time>2019-04-02T11:38:37Z</time>
      </trkpt>
      <trkpt lat="44.37798" lon="5.9503">
        <ele>559</ele>
        <time>2019-04-02T11:38:38Z</time>
      </trkpt>
      <trkpt lat="44.37796" lon="5.95033">
        <ele>559</ele>
        <time>2019-04-02T11:38:39Z</time>
      </trkpt>
      <trkpt lat="44.37794" lon="5.95035">
        <ele>559</ele>
        <time>2019-04-02T11:38:40Z</time>
      </trkpt>
      <trkpt lat="44.37791" lon="5.95038">
        <ele>560</ele>
        <time>2019-04-02T11:38:41Z</time>
      </trkpt>
      <trkpt lat="44.37789" lon="5.9504">
        <ele>560</ele>
        <time>2019-04-02T11:38:42Z</time>
      </trkpt>
      <trkpt lat="44.37786" lon="5.95042">
        <ele>560</ele>
        <time>2019-04-02T11:38:43Z</time>
      </trkpt>
      <trkpt lat="44.37783" lon="5.95043">
        <ele>560</ele>
        <time>2019-04-02T11:38:44Z</time>
      </trkpt>
      <trkpt lat="44.3778" lon="5.95045">
        <ele>560</ele>
        <time>2019-04-02T11:38:45Z</time>
      </trkpt>
      <trkpt lat="44.37778" lon="5.95047">
        <ele>560</ele>
        <time>2019-04-02T11:38:46Z</time>
      </trkpt>
      <trkpt lat="44.37775" lon="5.95048">
        <ele>560</ele>
        <time>2019-04-02T11:38:47Z</time>
      </trkpt>
      <trkpt lat="44.37772" lon="5.9505">
        <ele>561</ele>
        <time>2019-04-02T11:38:48Z</time>
      </trkpt>
      <trkpt lat="44.37769" lon="5.95051">
        <ele>561</ele>
        <time>2019-04-02T11:38:49Z</time>
      </trkpt>
      <trkpt lat="44.37766" lon="5.95053">
        <ele>561</ele>
        <time>2019-04-02T11:38:50Z</time>
      </trkpt>
      <trkpt lat="44.37763" lon="5.95054">
        <ele>561</ele>
        <time>2019-04-02T11:38:51Z</time>
      </trkpt>
      <trkpt lat="44.3776" lon="5.95056">
        <ele>561</ele>
        <time>2019-04-02T11:38:52Z</time>
      </trkpt>
      <trkpt lat="44.37757" lon="5.95057">
        <ele>561</ele>
        <time>2019-04-02T11:38:53Z</time>
      </trkpt>
      <trkpt lat="44.37754" lon="5.95059">
        <ele>561</ele>
        <time>2019-04-02T11:38:54Z</time>
      </trkpt>
      <trkpt lat="44.37751" lon="5.9506">
        <ele>562</ele>
        <time>2019-04-02T11:38:55Z</time>
      </trkpt>
      <trkpt lat="44.37749" lon="5.95062">
        <ele>562</ele>
        <time>2019-04-02T11:38:56Z</time>
      </trkpt>
      <trkpt lat="44.37746" lon="5.95064">
        <ele>562</ele>
        <time>2019-04-02T11:38:57Z</time>
      </trkpt>
      <trkpt lat="44.37743" lon="5.95065">
        <ele>562</ele>
        <time>2019-04-02T11:38:58Z</time>
      </trkpt>
      <trkpt lat="44.3774" lon="5.95067">
        <ele>562</ele>
        <time>2019-04-02T11:38:59Z</time>
      </trkpt>
      <trkpt lat="44.37737" lon="5.95068">
        <ele>563</ele>
        <time>2019-04-02T11:39:00Z</time>
      </trkpt>
      <trkpt lat="44.37733" lon="5.9507">
        <ele>563</ele>
        <time>2019-04-02T11:39:01Z</time>
      </trkpt>
      <trkpt lat="44.3773" lon="5.95071">
        <ele>563</ele>
        <time>2019-04-02T11:39:02Z</time>
      </trkpt>
      <trkpt lat="44.37727" lon="5.95073">
        <ele>563</ele>
        <time>2019-04-02T11:39:03Z</time>
      </trkpt>
      <trkpt lat="44.37723" lon="5.95075">
        <ele>563</ele>
        <time>2019-04-02T11:39:04Z</time>
      </trkpt>
      <trkpt lat="44.37719" lon="5.95077">
        <ele>563</ele>
        <time>2019-04-02T11:39:05Z</time>
      </trkpt>
      <trkpt lat="44.37716" lon="5.95078">
        <ele>564</ele>
        <time>2019-04-02T11:39:06Z</time>
      </trkpt>
      <trkpt lat="44.37713" lon="5.95079">
        <ele>564</ele>
        <time>2019-04-02T11:39:07Z</time>
      </trkpt>
      <trkpt lat="44.3771" lon="5.95081">
        <ele>564</ele>
        <time>2019-04-02T11:39:08Z</time>
      </trkpt>
      <trkpt lat="44.37707" lon="5.95082">
        <ele>564</ele>
        <time>2019-04-02T11:39:09Z</time>
      </trkpt>
      <trkpt lat="44.37704" lon="5.95083">
        <ele>564</ele>
        <time>2019-04-02T11:39:10Z</time>
      </trkpt>
      <trkpt lat="44.37701" lon="5.95084">
        <ele>565</ele>
        <time>2019-04-02T11:39:11Z</time>
      </trkpt>
      <trkpt lat="44.37698" lon="5.95086">
        <ele>565</ele>
        <time>2019-04-02T11:39:12Z</time>
      </trkpt>
      <trkpt lat="44.37695" lon="5.95087">
        <ele>565</ele>
        <time>2019-04-02T11:39:13Z</time>
      </trkpt>
      <trkpt lat="44.37691" lon="5.95089">
        <ele>565</ele>
        <time>2019-04-02T11:39:14Z</time>
      </trkpt>
      <trkpt lat="44.37688" lon="5.9509">
        <ele>565</ele>
        <time>2019-04-02T11:39:15Z</time>
      </trkpt>
      <trkpt lat="44.37685" lon="5.95091">
        <ele>566</ele>
        <time>2019-04-02T11:39:16Z</time>
      </trkpt>
      <trkpt lat="44.37682" lon="5.95092">
        <ele>566</ele>
        <time>2019-04-02T11:39:17Z</time>
      </trkpt>
      <trkpt lat="44.37679" lon="5.95094">
        <ele>566</ele>
        <time>2019-04-02T11:39:18Z</time>
      </trkpt>
      <trkpt lat="44.37676" lon="5.95095">
        <ele>566</ele>
        <time>2019-04-02T11:39:19Z</time>
      </trkpt>
      <trkpt lat="44.37673" lon="5.95097">
        <ele>566</ele>
        <time>2019-04-02T11:39:20Z</time>
      </trkpt>
      <trkpt lat="44.37669" lon="5.95098">
        <ele>567</ele>
        <time>2019-04-02T11:39:21Z</time>
      </trkpt>
      <trkpt lat="44.37666" lon="5.951">
        <ele>567</ele>
        <time>2019-04-02T11:39:22Z</time>
      </trkpt>
      <trkpt lat="44.37663" lon="5.95101">
        <ele>567</ele>
        <time>2019-04-02T11:39:23Z</time>
      </trkpt>
      <trkpt lat="44.37659" lon="5.95103">
        <ele>567</ele>
        <time>2019-04-02T11:39:24Z</time>
      </trkpt>
      <trkpt lat="44.37656" lon="5.95104">
        <ele>567</ele>
        <time>2019-04-02T11:39:25Z</time>
      </trkpt>
      <trkpt lat="44.37653" lon="5.95106">
        <ele>567</ele>
        <time>2019-04-02T11:39:26Z</time>
      </trkpt>
      <trkpt lat="44.3765" lon="5.95107">
        <ele>567</ele>
        <time>2019-04-02T11:39:27Z</time>
      </trkpt>
      <trkpt lat="44.37647" lon="5.95109">
        <ele>567</ele>
        <time>2019-04-02T11:39:28Z</time>
      </trkpt>
      <trkpt lat="44.37644" lon="5.9511">
        <ele>568</ele>
        <time>2019-04-02T11:39:29Z</time>
      </trkpt>
      <trkpt lat="44.3764" lon="5.95112">
        <ele>568</ele>
        <time>2019-04-02T11:39:30Z</time>
      </trkpt>
      <trkpt lat="44.37637" lon="5.95113">
        <ele>568</ele>
        <time>2019-04-02T11:39:31Z</time>
      </trkpt>
      <trkpt lat="44.37634" lon="5.95114">
        <ele>568</ele>
        <time>2019-04-02T11:39:32Z</time>
      </trkpt>
      <trkpt lat="44.37631" lon="5.95116">
        <ele>568</ele>
        <time>2019-04-02T11:39:33Z</time>
      </trkpt>
      <trkpt lat="44.37628" lon="5.95118">
        <ele>568</ele>
        <time>2019-04-02T11:39:34Z</time>
      </trkpt>
      <trkpt lat="44.37625" lon="5.95119">
        <ele>568</ele>
        <time>2019-04-02T11:39:35Z</time>
      </trkpt>
      <trkpt lat="44.37622" lon="5.9512">
        <ele>568</ele>
        <time>2019-04-02T11:39:36Z</time>
      </trkpt>
      <trkpt lat="44.37618" lon="5.95122">
        <ele>569</ele>
        <time>2019-04-02T11:39:37Z</time>
      </trkpt>
      <trkpt lat="44.37615" lon="5.95123">
        <ele>569</ele>
        <time>2019-04-02T11:39:38Z</time>
      </trkpt>
      <trkpt lat="44.37612" lon="5.95124">
        <ele>569</ele>
        <time>2019-04-02T11:39:39Z</time>
      </trkpt>
      <trkpt lat="44.37609" lon="5.95126">
        <ele>569</ele>
        <time>2019-04-02T11:39:40Z</time>
      </trkpt>
      <trkpt lat="44.37606" lon="5.95127">
        <ele>569</ele>
        <time>2019-04-02T11:39:41Z</time>
      </trkpt>
      <trkpt lat="44.37603" lon="5.95128">
        <ele>569</ele>
        <time>2019-04-02T11:39:42Z</time>
      </trkpt>
      <trkpt lat="44.37599" lon="5.9513">
        <ele>570</ele>
        <time>2019-04-02T11:39:43Z</time>
      </trkpt>
      <trkpt lat="44.37596" lon="5.95132">
        <ele>570</ele>
        <time>2019-04-02T11:39:44Z</time>
      </trkpt>
      <trkpt lat="44.37592" lon="5.95133">
        <ele>570</ele>
        <time>2019-04-02T11:39:45Z</time>
      </trkpt>
      <trkpt lat="44.37589" lon="5.95134">
        <ele>570</ele>
        <time>2019-04-02T11:39:46Z</time>
      </trkpt>
      <trkpt lat="44.37586" lon="5.95136">
        <ele>570</ele>
        <time>2019-04-02T11:39:47Z</time>
      </trkpt>
      <trkpt lat="44.37583" lon="5.95138">
        <ele>570</ele>
        <time>2019-04-02T11:39:48Z</time>
      </trkpt>
      <trkpt lat="44.3758" lon="5.95139">
        <ele>570</ele>
        <time>2019-04-02T11:39:49Z</time>
      </trkpt>
      <trkpt lat="44.37576" lon="5.95141">
        <ele>570</ele>
        <time>2019-04-02T11:39:50Z</time>
      </trkpt>
      <trkpt lat="44.37572" lon="5.95142">
        <ele>571</ele>
        <time>2019-04-02T11:39:51Z</time>
      </trkpt>
      <trkpt lat="44.37568" lon="5.95144">
        <ele>571</ele>
        <time>2019-04-02T11:39:52Z</time>
      </trkpt>
      <trkpt lat="44.37564" lon="5.95146">
        <ele>571</ele>
        <time>2019-04-02T11:39:53Z</time>
      </trkpt>
      <trkpt lat="44.3756" lon="5.95147">
        <ele>571</ele>
        <time>2019-04-02T11:39:54Z</time>
      </trkpt>
      <trkpt lat="44.37555" lon="5.95147">
        <ele>571</ele>
        <time>2019-04-02T11:39:55Z</time>
      </trkpt>
      <trkpt lat="44.3755" lon="5.95147">
        <ele>571</ele>
        <time>2019-04-02T11:39:56Z</time>
      </trkpt>
      <trkpt lat="44.37545" lon="5.95146">
        <ele>571</ele>
        <time>2019-04-02T11:39:57Z</time>
      </trkpt>
      <trkpt lat="44.3754" lon="5.95145">
        <ele>571</ele>
        <time>2019-04-02T11:39:58Z</time>
      </trkpt>
      <trkpt lat="44.37534" lon="5.95143">
        <ele>571</ele>
        <time>2019-04-02T11:39:59Z</time>
      </trkpt>
      <trkpt lat="44.37529" lon="5.95141">
        <ele>571</ele>
        <time>2019-04-02T11:40:00Z</time>
      </trkpt>
      <trkpt lat="44.37523" lon="5.95139">
        <ele>571</ele>
        <time>2019-04-02T11:40:01Z</time>
      </trkpt>
      <trkpt lat="44.37518" lon="5.95136">
        <ele>571</ele>
        <time>2019-04-02T11:40:02Z</time>
      </trkpt>
      <trkpt lat="44.37513" lon="5.95133">
        <ele>571</ele>
        <time>2019-04-02T11:40:03Z</time>
      </trkpt>
      <trkpt lat="44.37507" lon="5.95131">
        <ele>571</ele>
        <time>2019-04-02T11:40:04Z</time>
      </trkpt>
      <trkpt lat="44.37502" lon="5.95129">
        <ele>571</ele>
        <time>2019-04-02T11:40:05Z</time>
      </trkpt>
      <trkpt lat="44.37497" lon="5.95127">
        <ele>571</ele>
        <time>2019-04-02T11:40:06Z</time>
      </trkpt>
      <trkpt lat="44.37492" lon="5.95124">
        <ele>571</ele>
        <time>2019-04-02T11:40:07Z</time>
      </trkpt>
      <trkpt lat="44.37487" lon="5.95122">
        <ele>571</ele>
        <time>2019-04-02T11:40:08Z</time>
      </trkpt>
      <trkpt lat="44.37482" lon="5.9512">
        <ele>571</ele>
        <time>2019-04-02T11:40:09Z</time>
      </trkpt>
      <trkpt lat="44.37477" lon="5.95117">
        <ele>571</ele>
        <time>2019-04-02T11:40:10Z</time>
      </trkpt>
      <trkpt lat="44.37473" lon="5.95114">
        <ele>571</ele>
        <time>2019-04-02T11:40:11Z</time>
      </trkpt>
      <trkpt lat="44.37468" lon="5.9511">
        <ele>571</ele>
        <time>2019-04-02T11:40:12Z</time>
      </trkpt>
      <trkpt lat="44.37464" lon="5.95106">
        <ele>571</ele>
        <time>2019-04-02T11:40:13Z</time>
      </trkpt>
      <trkpt lat="44.3746" lon="5.95101">
        <ele>571</ele>
        <time>2019-04-02T11:40:14Z</time>
      </trkpt>
      <trkpt lat="44.37457" lon="5.95097">
        <ele>571</ele>
        <time>2019-04-02T11:40:15Z</time>
      </trkpt>
      <trkpt lat="44.37453" lon="5.95093">
        <ele>571</ele>
        <time>2019-04-02T11:40:16Z</time>
      </trkpt>
      <trkpt lat="44.37451" lon="5.95088">
        <ele>571</ele>
        <time>2019-04-02T11:40:17Z</time>
      </trkpt>
      <trkpt lat="44.37448" lon="5.95084">
        <ele>571</ele>
        <time>2019-04-02T11:40:18Z</time>
      </trkpt>
      <trkpt lat="44.37446" lon="5.9508">
        <ele>571</ele>
        <time>2019-04-02T11:40:19Z</time>
      </trkpt>
      <trkpt lat="44.37444" lon="5.95076">
        <ele>571</ele>
        <time>2019-04-02T11:40:20Z</time>
      </trkpt>
      <trkpt lat="44.37442" lon="5.95073">
        <ele>571</ele>
        <time>2019-04-02T11:40:21Z</time>
      </trkpt>
      <trkpt lat="44.37439" lon="5.9507">
        <ele>571</ele>
        <time>2019-04-02T11:40:22Z</time>
      </trkpt>
      <trkpt lat="44.37438" lon="5.95067">
        <ele>571</ele>
        <time>2019-04-02T11:40:23Z</time>
      </trkpt>
      <trkpt lat="44.37437" lon="5.95065">
        <ele>571</ele>
        <time>2019-04-02T11:40:24Z</time>
      </trkpt>
      <trkpt lat="44.37436" lon="5.95064">
        <ele>572</ele>
        <time>2019-04-02T11:40:25Z</time>
      </trkpt>
      <trkpt lat="44.37435" lon="5.95061">
        <ele>573</ele>
        <time>2019-04-02T11:41:05Z</time>
      </trkpt>
      <trkpt lat="44.37434" lon="5.95059">
        <ele>573</ele>
        <time>2019-04-02T11:41:07Z</time>
      </trkpt>
      <trkpt lat="44.37432" lon="5.95057">
        <ele>573</ele>
        <time>2019-04-02T11:41:08Z</time>
      </trkpt>
      <trkpt lat="44.37431" lon="5.95055">
        <ele>573</ele>
        <time>2019-04-02T11:41:09Z</time>
      </trkpt>
      <trkpt lat="44.37429" lon="5.95052">
        <ele>573</ele>
        <time>2019-04-02T11:41:10Z</time>
      </trkpt>
      <trkpt lat="44.37427" lon="5.95049">
        <ele>573</ele>
        <time>2019-04-02T11:41:11Z</time>
      </trkpt>
      <trkpt lat="44.37425" lon="5.95046">
        <ele>573</ele>
        <time>2019-04-02T11:41:12Z</time>
      </trkpt>
      <trkpt lat="44.37423" lon="5.95042">
        <ele>573</ele>
        <time>2019-04-02T11:41:13Z</time>
      </trkpt>
      <trkpt lat="44.37421" lon="5.95038">
        <ele>573</ele>
        <time>2019-04-02T11:41:14Z</time>
      </trkpt>
      <trkpt lat="44.37419" lon="5.95035">
        <ele>573</ele>
        <time>2019-04-02T11:41:15Z</time>
      </trkpt>
      <trkpt lat="44.37416" lon="5.95031">
        <ele>573</ele>
        <time>2019-04-02T11:41:16Z</time>
      </trkpt>
      <trkpt lat="44.37414" lon="5.95027">
        <ele>573</ele>
        <time>2019-04-02T11:41:17Z</time>
      </trkpt>
      <trkpt lat="44.37411" lon="5.95024">
        <ele>573</ele>
        <time>2019-04-02T11:41:18Z</time>
      </trkpt>
      <trkpt lat="44.37409" lon="5.95021">
        <ele>573</ele>
        <time>2019-04-02T11:41:19Z</time>
      </trkpt>
      <trkpt lat="44.37406" lon="5.95017">
        <ele>573</ele>
        <time>2019-04-02T11:41:20Z</time>
      </trkpt>
      <trkpt lat="44.37404" lon="5.95014">
        <ele>574</ele>
        <time>2019-04-02T11:41:21Z</time>
      </trkpt>
      <trkpt lat="44.37401" lon="5.9501">
        <ele>574</ele>
        <time>2019-04-02T11:41:22Z</time>
      </trkpt>
      <trkpt lat="44.37398" lon="5.95006">
        <ele>574</ele>
        <time>2019-04-02T11:41:23Z</time>
      </trkpt>
      <trkpt lat="44.37396" lon="5.95002">
        <ele>574</ele>
        <time>2019-04-02T11:41:24Z</time>
      </trkpt>
      <trkpt lat="44.37393" lon="5.94998">
        <ele>574</ele>
        <time>2019-04-02T11:41:25Z</time>
      </trkpt>
      <trkpt lat="44.3739" lon="5.94994">
        <ele>574</ele>
        <time>2019-04-02T11:41:26Z</time>
      </trkpt>
      <trkpt lat="44.37387" lon="5.94991">
        <ele>575</ele>
        <time>2019-04-02T11:41:27Z</time>
      </trkpt>
      <trkpt lat="44.37384" lon="5.94987">
        <ele>575</ele>
        <time>2019-04-02T11:41:28Z</time>
      </trkpt>
      <trkpt lat="44.37381" lon="5.94983">
        <ele>575</ele>
        <time>2019-04-02T11:41:29Z</time>
      </trkpt>
      <trkpt lat="44.37378" lon="5.9498">
        <ele>575</ele>
        <time>2019-04-02T11:41:30Z</time>
      </trkpt>
      <trkpt lat="44.37376" lon="5.94976">
        <ele>576</ele>
        <time>2019-04-02T11:41:31Z</time>
      </trkpt>
      <trkpt lat="44.37373" lon="5.94973">
        <ele>576</ele>
        <time>2019-04-02T11:41:32Z</time>
      </trkpt>
      <trkpt lat="44.3737" lon="5.94969">
        <ele>576</ele>
        <time>2019-04-02T11:41:33Z</time>
      </trkpt>
      <trkpt lat="44.37367" lon="5.94965">
        <ele>576</ele>
        <time>2019-04-02T11:41:34Z</time>
      </trkpt>
      <trkpt lat="44.37364" lon="5.94961">
        <ele>576</ele>
        <time>2019-04-02T11:41:35Z</time>
      </trkpt>
      <trkpt lat="44.37361" lon="5.94957">
        <ele>576</ele>
        <time>2019-04-02T11:41:36Z</time>
      </trkpt>
      <trkpt lat="44.37358" lon="5.94953">
        <ele>577</ele>
        <time>2019-04-02T11:41:37Z</time>
      </trkpt>
      <trkpt lat="44.37355" lon="5.94949">
        <ele>577</ele>
        <time>2019-04-02T11:41:38Z</time>
      </trkpt>
      <trkpt lat="44.37352" lon="5.94946">
        <ele>577</ele>
        <time>2019-04-02T11:41:39Z</time>
      </trkpt>
      <trkpt lat="44.37349" lon="5.94942">
        <ele>577</ele>
        <time>2019-04-02T11:41:40Z</time>
      </trkpt>
      <trkpt lat="44.37345" lon="5.94939">
        <ele>577</ele>
        <time>2019-04-02T11:41:41Z</time>
      </trkpt>
      <trkpt lat="44.37342" lon="5.94936">
        <ele>577</ele>
        <time>2019-04-02T11:41:42Z</time>
      </trkpt>
      <trkpt lat="44.37339" lon="5.94933">
        <ele>577</ele>
        <time>2019-04-02T11:41:43Z</time>
      </trkpt>
      <trkpt lat="44.37335" lon="5.9493">
        <ele>577</ele>
        <time>2019-04-02T11:41:44Z</time>
      </trkpt>
      <trkpt lat="44.37331" lon="5.94928">
        <ele>577</ele>
        <time>2019-04-02T11:41:45Z</time>
      </trkpt>
      <trkpt lat="44.37328" lon="5.94926">
        <ele>577</ele>
        <time>2019-04-02T11:41:46Z</time>
      </trkpt>
      <trkpt lat="44.37323" lon="5.94925">
        <ele>577</ele>
        <time>2019-04-02T11:41:47Z</time>
      </trkpt>
      <trkpt lat="44.37319" lon="5.94924">
        <ele>577</ele>
        <time>2019-04-02T11:41:48Z</time>
      </trkpt>
      <trkpt lat="44.37314" lon="5.94923">
        <ele>577</ele>
        <time>2019-04-02T11:41:49Z</time>
      </trkpt>
      <trkpt lat="44.37309" lon="5.94922">
        <ele>577</ele>
        <time>2019-04-02T11:41:50Z</time>
      </trkpt>
      <trkpt lat="44.37303" lon="5.94921">
        <ele>577</ele>
        <time>2019-04-02T11:41:51Z</time>
      </trkpt>
      <trkpt lat="44.37297" lon="5.9492">
        <ele>577</ele>
        <time>2019-04-02T11:41:52Z</time>
      </trkpt>
      <trkpt lat="44.37291" lon="5.94919">
        <ele>577</ele>
        <time>2019-04-02T11:41:53Z</time>
      </trkpt>
      <trkpt lat="44.37285" lon="5.94917">
        <ele>577</ele>
        <time>2019-04-02T11:41:54Z</time>
      </trkpt>
      <trkpt lat="44.37278" lon="5.94916">
        <ele>577</ele>
        <time>2019-04-02T11:41:55Z</time>
      </trkpt>
      <trkpt lat="44.37271" lon="5.94915">
        <ele>577</ele>
        <time>2019-04-02T11:41:56Z</time>
      </trkpt>
      <trkpt lat="44.37263" lon="5.94914">
        <ele>577</ele>
        <time>2019-04-02T11:41:57Z</time>
      </trkpt>
      <trkpt lat="44.37256" lon="5.94912">
        <ele>577</ele>
        <time>2019-04-02T11:41:58Z</time>
      </trkpt>
      <trkpt lat="44.37248" lon="5.9491">
        <ele>577</ele>
        <time>2019-04-02T11:41:59Z</time>
      </trkpt>
      <trkpt lat="44.3724" lon="5.94909">
        <ele>577</ele>
        <time>2019-04-02T11:42:00Z</time>
      </trkpt>
      <trkpt lat="44.37231" lon="5.94907">
        <ele>577</ele>
        <time>2019-04-02T11:42:01Z</time>
      </trkpt>
      <trkpt lat="44.37223" lon="5.94906">
        <ele>576</ele>
        <time>2019-04-02T11:42:02Z</time>
      </trkpt>
      <trkpt lat="44.37215" lon="5.94904">
        <ele>576</ele>
        <time>2019-04-02T11:42:03Z</time>
      </trkpt>
      <trkpt lat="44.37206" lon="5.94903">
        <ele>575</ele>
        <time>2019-04-02T11:42:04Z</time>
      </trkpt>
      <trkpt lat="44.37198" lon="5.94901">
        <ele>575</ele>
        <time>2019-04-02T11:42:05Z</time>
      </trkpt>
      <trkpt lat="44.37191" lon="5.949">
        <ele>574</ele>
        <time>2019-04-02T11:42:06Z</time>
      </trkpt>
      <trkpt lat="44.37183" lon="5.94899">
        <ele>574</ele>
        <time>2019-04-02T11:42:07Z</time>
      </trkpt>
      <trkpt lat="44.37175" lon="5.94898">
        <ele>573</ele>
        <time>2019-04-02T11:42:08Z</time>
      </trkpt>
      <trkpt lat="44.37167" lon="5.94895">
        <ele>573</ele>
        <time>2019-04-02T11:42:09Z</time>
      </trkpt>
      <trkpt lat="44.37159" lon="5.94892">
        <ele>572</ele>
        <time>2019-04-02T11:42:10Z</time>
      </trkpt>
      <trkpt lat="44.37151" lon="5.94886">
        <ele>571</ele>
        <time>2019-04-02T11:42:11Z</time>
      </trkpt>
      <trkpt lat="44.37144" lon="5.94878">
        <ele>571</ele>
        <time>2019-04-02T11:42:12Z</time>
      </trkpt>
      <trkpt lat="44.37137" lon="5.9487">
        <ele>570</ele>
        <time>2019-04-02T11:42:13Z</time>
      </trkpt>
      <trkpt lat="44.3713" lon="5.94861">
        <ele>569</ele>
        <time>2019-04-02T11:42:14Z</time>
      </trkpt>
      <trkpt lat="44.37124" lon="5.94852">
        <ele>569</ele>
        <time>2019-04-02T11:42:15Z</time>
      </trkpt>
      <trkpt lat="44.37118" lon="5.94843">
        <ele>568</ele>
        <time>2019-04-02T11:42:16Z</time>
      </trkpt>
      <trkpt lat="44.37112" lon="5.94833">
        <ele>567</ele>
        <time>2019-04-02T11:42:17Z</time>
      </trkpt>
      <trkpt lat="44.37106" lon="5.94824">
        <ele>567</ele>
        <time>2019-04-02T11:42:18Z</time>
      </trkpt>
      <trkpt lat="44.371" lon="5.94814">
        <ele>566</ele>
        <time>2019-04-02T11:42:19Z</time>
      </trkpt>
      <trkpt lat="44.37093" lon="5.94805">
        <ele>566</ele>
        <time>2019-04-02T11:42:20Z</time>
      </trkpt>
      <trkpt lat="44.37086" lon="5.94796">
        <ele>565</ele>
        <time>2019-04-02T11:42:21Z</time>
      </trkpt>
      <trkpt lat="44.37079" lon="5.94786">
        <ele>564</ele>
        <time>2019-04-02T11:42:22Z</time>
      </trkpt>
      <trkpt lat="44.37072" lon="5.94778">
        <ele>564</ele>
        <time>2019-04-02T11:42:23Z</time>
      </trkpt>
      <trkpt lat="44.37064" lon="5.94769">
        <ele>563</ele>
        <time>2019-04-02T11:42:24Z</time>
      </trkpt>
      <trkpt lat="44.37056" lon="5.94761">
        <ele>562</ele>
        <time>2019-04-02T11:42:25Z</time>
      </trkpt>
      <trkpt lat="44.37048" lon="5.94753">
        <ele>562</ele>
        <time>2019-04-02T11:42:26Z</time>
      </trkpt>
      <trkpt lat="44.3704" lon="5.94746">
        <ele>561</ele>
        <time>2019-04-02T11:42:27Z</time>
      </trkpt>
      <trkpt lat="44.37033" lon="5.94739">
        <ele>561</ele>
        <time>2019-04-02T11:42:28Z</time>
      </trkpt>
      <trkpt lat="44.37025" lon="5.94732">
        <ele>560</ele>
        <time>2019-04-02T11:42:29Z</time>
      </trkpt>
      <trkpt lat="44.37018" lon="5.94725">
        <ele>560</ele>
        <time>2019-04-02T11:42:30Z</time>
      </trkpt>
      <trkpt lat="44.37011" lon="5.94718">
        <ele>559</ele>
        <time>2019-04-02T11:42:31Z</time>
      </trkpt>
      <trkpt lat="44.37004" lon="5.94712">
        <ele>559</ele>
        <time>2019-04-02T11:42:32Z</time>
      </trkpt>
      <trkpt lat="44.36996" lon="5.94706">
        <ele>558</ele>
        <time>2019-04-02T11:42:33Z</time>
      </trkpt>
      <trkpt lat="44.36988" lon="5.94702">
        <ele>558</ele>
        <time>2019-04-02T11:42:34Z</time>
      </trkpt>
      <trkpt lat="44.36981" lon="5.94698">
        <ele>557</ele>
        <time>2019-04-02T11:42:35Z</time>
      </trkpt>
      <trkpt lat="44.36973" lon="5.94693">
        <ele>557</ele>
        <time>2019-04-02T11:42:36Z</time>
      </trkpt>
      <trkpt lat="44.36965" lon="5.94689">
        <ele>556</ele>
        <time>2019-04-02T11:42:37Z</time>
      </trkpt>
      <trkpt lat="44.36957" lon="5.94686">
        <ele>556</ele>
        <time>2019-04-02T11:42:38Z</time>
      </trkpt>
      <trkpt lat="44.36949" lon="5.94683">
        <ele>555</ele>
        <time>2019-04-02T11:42:39Z</time>
      </trkpt>
      <trkpt lat="44.3694" lon="5.94682">
        <ele>554</ele>
        <time>2019-04-02T11:42:40Z</time>
      </trkpt>
      <trkpt lat="44.36932" lon="5.94683">
        <ele>554</ele>
        <time>2019-04-02T11:42:41Z</time>
      </trkpt>
      <trkpt lat="44.36923" lon="5.94685">
        <ele>554</ele>
        <time>2019-04-02T11:42:42Z</time>
      </trkpt>
      <trkpt lat="44.36914" lon="5.94688">
        <ele>553</ele>
        <time>2019-04-02T11:42:43Z</time>
      </trkpt>
      <trkpt lat="44.36906" lon="5.94691">
        <ele>553</ele>
        <time>2019-04-02T11:42:44Z</time>
      </trkpt>
      <trkpt lat="44.36898" lon="5.94695">
        <ele>552</ele>
        <time>2019-04-02T11:42:45Z</time>
      </trkpt>
      <trkpt lat="44.36889" lon="5.94699">
        <ele>552</ele>
        <time>2019-04-02T11:42:46Z</time>
      </trkpt>
      <trkpt lat="44.36881" lon="5.94702">
        <ele>551</ele>
        <time>2019-04-02T11:42:47Z</time>
      </trkpt>
      <trkpt lat="44.36873" lon="5.94704">
        <ele>551</ele>
        <time>2019-04-02T11:42:48Z</time>
      </trkpt>
      <trkpt lat="44.36865" lon="5.94705">
        <ele>551</ele>
        <time>2019-04-02T11:42:49Z</time>
      </trkpt>
      <trkpt lat="44.36857" lon="5.94705">
        <ele>551</ele>
        <time>2019-04-02T11:42:50Z</time>
      </trkpt>
      <trkpt lat="44.3685" lon="5.94705">
        <ele>551</ele>
        <time>2019-04-02T11:42:51Z</time>
      </trkpt>
      <trkpt lat="44.36843" lon="5.94705">
        <ele>551</ele>
        <time>2019-04-02T11:42:52Z</time>
      </trkpt>
      <trkpt lat="44.36836" lon="5.94705">
        <ele>551</ele>
        <time>2019-04-02T11:42:53Z</time>
      </trkpt>
      <trkpt lat="44.36829" lon="5.94706">
        <ele>551</ele>
        <time>2019-04-02T11:42:54Z</time>
      </trkpt>
      <trkpt lat="44.36823" lon="5.94707">
        <ele>551</ele>
        <time>2019-04-02T11:42:55Z</time>
      </trkpt>
      <trkpt lat="44.36816" lon="5.94707">
        <ele>551</ele>
        <time>2019-04-02T11:42:56Z</time>
      </trkpt>
      <trkpt lat="44.3681" lon="5.94708">
        <ele>551</ele>
        <time>2019-04-02T11:42:57Z</time>
      </trkpt>
      <trkpt lat="44.36803" lon="5.94708">
        <ele>551</ele>
        <time>2019-04-02T11:42:58Z</time>
      </trkpt>
      <trkpt lat="44.36797" lon="5.94709">
        <ele>551</ele>
        <time>2019-04-02T11:42:59Z</time>
      </trkpt>
      <trkpt lat="44.36791" lon="5.9471">
        <ele>551</ele>
        <time>2019-04-02T11:43:00Z</time>
      </trkpt>
      <trkpt lat="44.36785" lon="5.9471">
        <ele>551</ele>
        <time>2019-04-02T11:43:01Z</time>
      </trkpt>
      <trkpt lat="44.36779" lon="5.94711">
        <ele>551</ele>
        <time>2019-04-02T11:43:02Z</time>
      </trkpt>
      <trkpt lat="44.36773" lon="5.94712">
        <ele>551</ele>
        <time>2019-04-02T11:43:03Z</time>
      </trkpt>
      <trkpt lat="44.36767" lon="5.94713">
        <ele>551</ele>
        <time>2019-04-02T11:43:04Z</time>
      </trkpt>
      <trkpt lat="44.3676" lon="5.94714">
        <ele>551</ele>
        <time>2019-04-02T11:43:05Z</time>
      </trkpt>
      <trkpt lat="44.36754" lon="5.94715">
        <ele>551</ele>
        <time>2019-04-02T11:43:06Z</time>
      </trkpt>
      <trkpt lat="44.36748" lon="5.94716">
        <ele>551</ele>
        <time>2019-04-02T11:43:07Z</time>
      </trkpt>
      <trkpt lat="44.36741" lon="5.94717">
        <ele>551</ele>
        <time>2019-04-02T11:43:08Z</time>
      </trkpt>
      <trkpt lat="44.36735" lon="5.94717">
        <ele>551</ele>
        <time>2019-04-02T11:43:09Z</time>
      </trkpt>
      <trkpt lat="44.36728" lon="5.94718">
        <ele>551</ele>
        <time>2019-04-02T11:43:10Z</time>
      </trkpt>
      <trkpt lat="44.36721" lon="5.94717">
        <ele>551</ele>
        <time>2019-04-02T11:43:11Z</time>
      </trkpt>
      <trkpt lat="44.36715" lon="5.94716">
        <ele>551</ele>
        <time>2019-04-02T11:43:12Z</time>
      </trkpt>
      <trkpt lat="44.36709" lon="5.94714">
        <ele>551</ele>
        <time>2019-04-02T11:43:13Z</time>
      </trkpt>
      <trkpt lat="44.36703" lon="5.94713">
        <ele>551</ele>
        <time>2019-04-02T11:43:14Z</time>
      </trkpt>
      <trkpt lat="44.36697" lon="5.94711">
        <ele>551</ele>
        <time>2019-04-02T11:43:15Z</time>
      </trkpt>
      <trkpt lat="44.36691" lon="5.94709">
        <ele>551</ele>
        <time>2019-04-02T11:43:16Z</time>
      </trkpt>
      <trkpt lat="44.36685" lon="5.94706">
        <ele>551</ele>
        <time>2019-04-02T11:43:17Z</time>
      </trkpt>
      <trkpt lat="44.3668" lon="5.94703">
        <ele>551</ele>
        <time>2019-04-02T11:43:18Z</time>
      </trkpt>
      <trkpt lat="44.36674" lon="5.94701">
        <ele>551</ele>
        <time>2019-04-02T11:43:19Z</time>
      </trkpt>
      <trkpt lat="44.36668" lon="5.94699">
        <ele>551</ele>
        <time>2019-04-02T11:43:20Z</time>
      </trkpt>
      <trkpt lat="44.36663" lon="5.94696">
        <ele>551</ele>
        <time>2019-04-02T11:43:21Z</time>
      </trkpt>
      <trkpt lat="44.36657" lon="5.94694">
        <ele>551</ele>
        <time>2019-04-02T11:43:22Z</time>
      </trkpt>
      <trkpt lat="44.36651" lon="5.94691">
        <ele>551</ele>
        <time>2019-04-02T11:43:23Z</time>
      </trkpt>
      <trkpt lat="44.36646" lon="5.94688">
        <ele>551</ele>
        <time>2019-04-02T11:43:24Z</time>
      </trkpt>
      <trkpt lat="44.3664" lon="5.94686">
        <ele>551</ele>
        <time>2019-04-02T11:43:25Z</time>
      </trkpt>
      <trkpt lat="44.36635" lon="5.94683">
        <ele>551</ele>
        <time>2019-04-02T11:43:26Z</time>
      </trkpt>
      <trkpt lat="44.36631" lon="5.94681">
        <ele>551</ele>
        <time>2019-04-02T11:43:27Z</time>
      </trkpt>
      <trkpt lat="44.36626" lon="5.94679">
        <ele>551</ele>
        <time>2019-04-02T11:43:28Z</time>
      </trkpt>
      <trkpt lat="44.36622" lon="5.94678">
        <ele>551</ele>
        <time>2019-04-02T11:43:29Z</time>
      </trkpt>
      <trkpt lat="44.36618" lon="5.94677">
        <ele>551</ele>
        <time>2019-04-02T11:43:30Z</time>
      </trkpt>
      <trkpt lat="44.36615" lon="5.94676">
        <ele>551</ele>
        <time>2019-04-02T11:43:31Z</time>
      </trkpt>
      <trkpt lat="44.36611" lon="5.94675">
        <ele>551</ele>
        <time>2019-04-02T11:43:32Z</time>
      </trkpt>
      <trkpt lat="44.36607" lon="5.94674">
        <ele>551</ele>
        <time>2019-04-02T11:43:33Z</time>
      </trkpt>
      <trkpt lat="44.36604" lon="5.94673">
        <ele>551</ele>
        <time>2019-04-02T11:43:34Z</time>
      </trkpt>
      <trkpt lat="44.366" lon="5.94672">
        <ele>551</ele>
        <time>2019-04-02T11:43:35Z</time>
      </trkpt>
      <trkpt lat="44.36596" lon="5.94672">
        <ele>551</ele>
        <time>2019-04-02T11:43:36Z</time>
      </trkpt>
      <trkpt lat="44.36592" lon="5.94671">
        <ele>551</ele>
        <time>2019-04-02T11:43:37Z</time>
      </trkpt>
      <trkpt lat="44.36589" lon="5.94671">
        <ele>551</ele>
        <time>2019-04-02T11:43:38Z</time>
      </trkpt>
      <trkpt lat="44.36585" lon="5.94671">
        <ele>551</ele>
        <time>2019-04-02T11:43:39Z</time>
      </trkpt>
      <trkpt lat="44.36581" lon="5.94671">
        <ele>551</ele>
        <time>2019-04-02T11:43:40Z</time>
      </trkpt>
      <trkpt lat="44.36578" lon="5.94671">
        <ele>551</ele>
        <time>2019-04-02T11:43:41Z</time>
      </trkpt>
      <trkpt lat="44.36574" lon="5.94672">
        <ele>551</ele>
        <time>2019-04-02T11:43:42Z</time>
      </trkpt>
      <trkpt lat="44.36571" lon="5.94672">
        <ele>552</ele>
        <time>2019-04-02T11:43:43Z</time>
      </trkpt>
      <trkpt lat="44.36567" lon="5.94672">
        <ele>552</ele>
        <time>2019-04-02T11:43:44Z</time>
      </trkpt>
      <trkpt lat="44.36564" lon="5.94673">
        <ele>553</ele>
        <time>2019-04-02T11:43:45Z</time>
      </trkpt>
      <trkpt lat="44.3656" lon="5.94674">
        <ele>553</ele>
        <time>2019-04-02T11:43:46Z</time>
      </trkpt>
      <trkpt lat="44.36557" lon="5.94675">
        <ele>553</ele>
        <time>2019-04-02T11:43:47Z</time>
      </trkpt>
      <trkpt lat="44.36553" lon="5.94676">
        <ele>554</ele>
        <time>2019-04-02T11:43:48Z</time>
      </trkpt>
      <trkpt lat="44.36549" lon="5.94677">
        <ele>554</ele>
        <time>2019-04-02T11:43:49Z</time>
      </trkpt>
      <trkpt lat="44.36545" lon="5.94678">
        <ele>554</ele>
        <time>2019-04-02T11:43:50Z</time>
      </trkpt>
      <trkpt lat="44.36541" lon="5.94679">
        <ele>555</ele>
        <time>2019-04-02T11:43:51Z</time>
      </trkpt>
      <trkpt lat="44.36536" lon="5.9468">
        <ele>555</ele>
        <time>2019-04-02T11:43:52Z</time>
      </trkpt>
      <trkpt lat="44.36533" lon="5.9468">
        <ele>555</ele>
        <time>2019-04-02T11:43:53Z</time>
      </trkpt>
      <trkpt lat="44.36528" lon="5.9468">
        <ele>555</ele>
        <time>2019-04-02T11:43:54Z</time>
      </trkpt>
      <trkpt lat="44.36525" lon="5.94681">
        <ele>555</ele>
        <time>2019-04-02T11:43:55Z</time>
      </trkpt>
      <trkpt lat="44.3652" lon="5.94681">
        <ele>555</ele>
        <time>2019-04-02T11:43:56Z</time>
      </trkpt>
      <trkpt lat="44.36517" lon="5.94681">
        <ele>555</ele>
        <time>2019-04-02T11:43:57Z</time>
      </trkpt>
      <trkpt lat="44.36513" lon="5.94681">
        <ele>556</ele>
        <time>2019-04-02T11:43:58Z</time>
      </trkpt>
      <trkpt lat="44.36509" lon="5.94682">
        <ele>556</ele>
        <time>2019-04-02T11:43:59Z</time>
      </trkpt>
      <trkpt lat="44.36506" lon="5.94682">
        <ele>556</ele>
        <time>2019-04-02T11:44:00Z</time>
      </trkpt>
      <trkpt lat="44.36502" lon="5.94681">
        <ele>556</ele>
        <time>2019-04-02T11:44:01Z</time>
      </trkpt>
      <trkpt lat="44.36499" lon="5.94681">
        <ele>556</ele>
        <time>2019-04-02T11:44:02Z</time>
      </trkpt>
      <trkpt lat="44.36495" lon="5.94681">
        <ele>556</ele>
        <time>2019-04-02T11:44:03Z</time>
      </trkpt>
      <trkpt lat="44.36491" lon="5.9468">
        <ele>556</ele>
        <time>2019-04-02T11:44:04Z</time>
      </trkpt>
      <trkpt lat="44.36488" lon="5.94679">
        <ele>557</ele>
        <time>2019-04-02T11:44:05Z</time>
      </trkpt>
      <trkpt lat="44.36484" lon="5.94678">
        <ele>557</ele>
        <time>2019-04-02T11:44:06Z</time>
      </trkpt>
      <trkpt lat="44.3648" lon="5.94677">
        <ele>557</ele>
        <time>2019-04-02T11:44:07Z</time>
      </trkpt>
      <trkpt lat="44.36476" lon="5.94676">
        <ele>557</ele>
        <time>2019-04-02T11:44:08Z</time>
      </trkpt>
      <trkpt lat="44.36472" lon="5.94675">
        <ele>558</ele>
        <time>2019-04-02T11:44:09Z</time>
      </trkpt>
      <trkpt lat="44.36468" lon="5.94673">
        <ele>558</ele>
        <time>2019-04-02T11:44:10Z</time>
      </trkpt>
      <trkpt lat="44.36465" lon="5.94671">
        <ele>558</ele>
        <time>2019-04-02T11:44:11Z</time>
      </trkpt>
      <trkpt lat="44.36461" lon="5.94669">
        <ele>558</ele>
        <time>2019-04-02T11:44:12Z</time>
      </trkpt>
      <trkpt lat="44.36458" lon="5.94667">
        <ele>558</ele>
        <time>2019-04-02T11:44:13Z</time>
      </trkpt>
      <trkpt lat="44.36454" lon="5.94664">
        <ele>558</ele>
        <time>2019-04-02T11:44:14Z</time>
      </trkpt>
      <trkpt lat="44.36451" lon="5.94662">
        <ele>559</ele>
        <time>2019-04-02T11:44:15Z</time>
      </trkpt>
      <trkpt lat="44.36448" lon="5.9466">
        <ele>559</ele>
        <time>2019-04-02T11:44:16Z</time>
      </trkpt>
      <trkpt lat="44.36444" lon="5.94657">
        <ele>559</ele>
        <time>2019-04-02T11:44:17Z</time>
      </trkpt>
      <trkpt lat="44.3644" lon="5.94655">
        <ele>559</ele>
        <time>2019-04-02T11:44:18Z</time>
      </trkpt>
      <trkpt lat="44.36436" lon="5.94652">
        <ele>559</ele>
        <time>2019-04-02T11:44:19Z</time>
      </trkpt>
      <trkpt lat="44.36433" lon="5.94649">
        <ele>559</ele>
        <time>2019-04-02T11:44:20Z</time>
      </trkpt>
      <trkpt lat="44.36428" lon="5.94646">
        <ele>559</ele>
        <time>2019-04-02T11:44:21Z</time>
      </trkpt>
      <trkpt lat="44.36425" lon="5.94643">
        <ele>559</ele>
        <time>2019-04-02T11:44:22Z</time>
      </trkpt>
      <trkpt lat="44.36421" lon="5.9464">
        <ele>559</ele>
        <time>2019-04-02T11:44:23Z</time>
      </trkpt>
      <trkpt lat="44.36417" lon="5.94637">
        <ele>559</ele>
        <time>2019-04-02T11:44:24Z</time>
      </trkpt>
      <trkpt lat="44.36413" lon="5.94633">
        <ele>559</ele>
        <time>2019-04-02T11:44:25Z</time>
      </trkpt>
      <trkpt lat="44.36409" lon="5.94629">
        <ele>559</ele>
        <time>2019-04-02T11:44:26Z</time>
      </trkpt>
      <trkpt lat="44.36405" lon="5.94626">
        <ele>559</ele>
        <time>2019-04-02T11:44:27Z</time>
      </trkpt>
      <trkpt lat="44.36401" lon="5.94622">
        <ele>559</ele>
        <time>2019-04-02T11:44:28Z</time>
      </trkpt>
      <trkpt lat="44.36397" lon="5.94617">
        <ele>559</ele>
        <time>2019-04-02T11:44:29Z</time>
      </trkpt>
      <trkpt lat="44.36393" lon="5.94613">
        <ele>559</ele>
        <time>2019-04-02T11:44:30Z</time>
      </trkpt>
      <trkpt lat="44.36389" lon="5.94609">
        <ele>559</ele>
        <time>2019-04-02T11:44:31Z</time>
      </trkpt>
      <trkpt lat="44.36385" lon="5.94604">
        <ele>559</ele>
        <time>2019-04-02T11:44:32Z</time>
      </trkpt>
      <trkpt lat="44.36381" lon="5.946">
        <ele>559</ele>
        <time>2019-04-02T11:44:33Z</time>
      </trkpt>
      <trkpt lat="44.36377" lon="5.94596">
        <ele>559</ele>
        <time>2019-04-02T11:44:34Z</time>
      </trkpt>
      <trkpt lat="44.36373" lon="5.94592">
        <ele>559</ele>
        <time>2019-04-02T11:44:35Z</time>
      </trkpt>
      <trkpt lat="44.36369" lon="5.94588">
        <ele>559</ele>
        <time>2019-04-02T11:44:36Z</time>
      </trkpt>
      <trkpt lat="44.36364" lon="5.94585">
        <ele>559</ele>
        <time>2019-04-02T11:44:37Z</time>
      </trkpt>
      <trkpt lat="44.3636" lon="5.94583">
        <ele>559</ele>
        <time>2019-04-02T11:44:38Z</time>
      </trkpt>
      <trkpt lat="44.36356" lon="5.9458">
        <ele>559</ele>
        <time>2019-04-02T11:44:39Z</time>
      </trkpt>
      <trkpt lat="44.36351" lon="5.94579">
        <ele>559</ele>
        <time>2019-04-02T11:44:40Z</time>
      </trkpt>
      <trkpt lat="44.36346" lon="5.94577">
        <ele>559</ele>
        <time>2019-04-02T11:44:41Z</time>
      </trkpt>
      <trkpt lat="44.36341" lon="5.94574">
        <ele>559</ele>
        <time>2019-04-02T11:44:42Z</time>
      </trkpt>
      <trkpt lat="44.36335" lon="5.94572">
        <ele>559</ele>
        <time>2019-04-02T11:44:43Z</time>
      </trkpt>
      <trkpt lat="44.36329" lon="5.94569">
        <ele>559</ele>
        <time>2019-04-02T11:44:44Z</time>
      </trkpt>
      <trkpt lat="44.36323" lon="5.94566">
        <ele>559</ele>
        <time>2019-04-02T11:44:45Z</time>
      </trkpt>
      <trkpt lat="44.36316" lon="5.94562">
        <ele>559</ele>
        <time>2019-04-02T11:44:46Z</time>
      </trkpt>
      <trkpt lat="44.36309" lon="5.94557">
        <ele>559</ele>
        <time>2019-04-02T11:44:47Z</time>
      </trkpt>
      <trkpt lat="44.36302" lon="5.94553">
        <ele>559</ele>
        <time>2019-04-02T11:44:48Z</time>
      </trkpt>
      <trkpt lat="44.36293" lon="5.9455">
        <ele>559</ele>
        <time>2019-04-02T11:44:49Z</time>
      </trkpt>
      <trkpt lat="44.36285" lon="5.94548">
        <ele>559</ele>
        <time>2019-04-02T11:44:50Z</time>
      </trkpt>
      <trkpt lat="44.36276" lon="5.94547">
        <ele>559</ele>
        <time>2019-04-02T11:44:51Z</time>
      </trkpt>
      <trkpt lat="44.36267" lon="5.94547">
        <ele>559</ele>
        <time>2019-04-02T11:44:52Z</time>
      </trkpt>
      <trkpt lat="44.36258" lon="5.94547">
        <ele>558</ele>
        <time>2019-04-02T11:44:53Z</time>
      </trkpt>
      <trkpt lat="44.36249" lon="5.94548">
        <ele>558</ele>
        <time>2019-04-02T11:44:54Z</time>
      </trkpt>
      <trkpt lat="44.3624" lon="5.94549">
        <ele>557</ele>
        <time>2019-04-02T11:44:55Z</time>
      </trkpt>
      <trkpt lat="44.36231" lon="5.94549">
        <ele>556</ele>
        <time>2019-04-02T11:44:56Z</time>
      </trkpt>
      <trkpt lat="44.36222" lon="5.94548">
        <ele>556</ele>
        <time>2019-04-02T11:44:57Z</time>
      </trkpt>
      <trkpt lat="44.36213" lon="5.94546">
        <ele>555</ele>
        <time>2019-04-02T11:44:58Z</time>
      </trkpt>
      <trkpt lat="44.36206" lon="5.94541">
        <ele>555</ele>
        <time>2019-04-02T11:44:59Z</time>
      </trkpt>
      <trkpt lat="44.36199" lon="5.94535">
        <ele>555</ele>
        <time>2019-04-02T11:45:00Z</time>
      </trkpt>
      <trkpt lat="44.36193" lon="5.94529">
        <ele>555</ele>
        <time>2019-04-02T11:45:01Z</time>
      </trkpt>
      <trkpt lat="44.36189" lon="5.94522">
        <ele>555</ele>
        <time>2019-04-02T11:45:02Z</time>
      </trkpt>
      <trkpt lat="44.36184" lon="5.94516">
        <ele>555</ele>
        <time>2019-04-02T11:45:03Z</time>
      </trkpt>
      <trkpt lat="44.3618" lon="5.9451">
        <ele>555</ele>
        <time>2019-04-02T11:45:04Z</time>
      </trkpt>
      <trkpt lat="44.36177" lon="5.94505">
        <ele>555</ele>
        <time>2019-04-02T11:45:05Z</time>
      </trkpt>
      <trkpt lat="44.36173" lon="5.94501">
        <ele>555</ele>
        <time>2019-04-02T11:45:06Z</time>
      </trkpt>
      <trkpt lat="44.36169" lon="5.94497">
        <ele>555</ele>
        <time>2019-04-02T11:45:07Z</time>
      </trkpt>
      <trkpt lat="44.36166" lon="5.94493">
        <ele>555</ele>
        <time>2019-04-02T11:45:08Z</time>
      </trkpt>
      <trkpt lat="44.36162" lon="5.9449">
        <ele>555</ele>
        <time>2019-04-02T11:45:09Z</time>
      </trkpt>
      <trkpt lat="44.36158" lon="5.94488">
        <ele>555</ele>
        <time>2019-04-02T11:45:10Z</time>
      </trkpt>
      <trkpt lat="44.36155" lon="5.94486">
        <ele>555</ele>
        <time>2019-04-02T11:45:11Z</time>
      </trkpt>
      <trkpt lat="44.36152" lon="5.94484">
        <ele>555</ele>
        <time>2019-04-02T11:45:12Z</time>
      </trkpt>
      <trkpt lat="44.36148" lon="5.94482">
        <ele>555</ele>
        <time>2019-04-02T11:45:13Z</time>
      </trkpt>
      <trkpt lat="44.36145" lon="5.94481">
        <ele>555</ele>
        <time>2019-04-02T11:45:14Z</time>
      </trkpt>
      <trkpt lat="44.36142" lon="5.94481">
        <ele>555</ele>
        <time>2019-04-02T11:45:15Z</time>
      </trkpt>
      <trkpt lat="44.36139" lon="5.9448">
        <ele>555</ele>
        <time>2019-04-02T11:45:16Z</time>
      </trkpt>
      <trkpt lat="44.36136" lon="5.94481">
        <ele>555</ele>
        <time>2019-04-02T11:45:17Z</time>
      </trkpt>
      <trkpt lat="44.36134" lon="5.9448">
        <ele>556</ele>
        <time>2019-04-02T11:45:18Z</time>
      </trkpt>
      <trkpt lat="44.36131" lon="5.9448">
        <ele>556</ele>
        <time>2019-04-02T11:45:19Z</time>
      </trkpt>
      <trkpt lat="44.36129" lon="5.94479">
        <ele>556</ele>
        <time>2019-04-02T11:45:20Z</time>
      </trkpt>
      <trkpt lat="44.36126" lon="5.94477">
        <ele>557</ele>
        <time>2019-04-02T11:45:21Z</time>
      </trkpt>
      <trkpt lat="44.36124" lon="5.94476">
        <ele>557</ele>
        <time>2019-04-02T11:45:22Z</time>
      </trkpt>
      <trkpt lat="44.36121" lon="5.94475">
        <ele>558</ele>
        <time>2019-04-02T11:45:23Z</time>
      </trkpt>
      <trkpt lat="44.36118" lon="5.94475">
        <ele>558</ele>
        <time>2019-04-02T11:45:24Z</time>
      </trkpt>
      <trkpt lat="44.36115" lon="5.94474">
        <ele>558</ele>
        <time>2019-04-02T11:45:25Z</time>
      </trkpt>
      <trkpt lat="44.36112" lon="5.94473">
        <ele>558</ele>
        <time>2019-04-02T11:45:26Z</time>
      </trkpt>
      <trkpt lat="44.36109" lon="5.94472">
        <ele>559</ele>
        <time>2019-04-02T11:45:27Z</time>
      </trkpt>
      <trkpt lat="44.36106" lon="5.94472">
        <ele>559</ele>
        <time>2019-04-02T11:45:28Z</time>
      </trkpt>
      <trkpt lat="44.36104" lon="5.94471">
        <ele>559</ele>
        <time>2019-04-02T11:45:29Z</time>
      </trkpt>
      <trkpt lat="44.36102" lon="5.9447">
        <ele>559</ele>
        <time>2019-04-02T11:45:30Z</time>
      </trkpt>
      <trkpt lat="44.36099" lon="5.94469">
        <ele>560</ele>
        <time>2019-04-02T11:45:31Z</time>
      </trkpt>
      <trkpt lat="44.36097" lon="5.94469">
        <ele>560</ele>
        <time>2019-04-02T11:45:32Z</time>
      </trkpt>
      <trkpt lat="44.36095" lon="5.94468">
        <ele>560</ele>
        <time>2019-04-02T11:45:33Z</time>
      </trkpt>
      <trkpt lat="44.36092" lon="5.94467">
        <ele>560</ele>
        <time>2019-04-02T11:45:34Z</time>
      </trkpt>
      <trkpt lat="44.3609" lon="5.94467">
        <ele>560</ele>
        <time>2019-04-02T11:45:35Z</time>
      </trkpt>
      <trkpt lat="44.36088" lon="5.94466">
        <ele>561</ele>
        <time>2019-04-02T11:45:36Z</time>
      </trkpt>
      <trkpt lat="44.36086" lon="5.94466">
        <ele>561</ele>
        <time>2019-04-02T11:45:37Z</time>
      </trkpt>
      <trkpt lat="44.36084" lon="5.94465">
        <ele>561</ele>
        <time>2019-04-02T11:45:38Z</time>
      </trkpt>
      <trkpt lat="44.36082" lon="5.94464">
        <ele>561</ele>
        <time>2019-04-02T11:45:39Z</time>
      </trkpt>
      <trkpt lat="44.36079" lon="5.94464">
        <ele>561</ele>
        <time>2019-04-02T11:45:40Z</time>
      </trkpt>
      <trkpt lat="44.36077" lon="5.94463">
        <ele>562</ele>
        <time>2019-04-02T11:45:41Z</time>
      </trkpt>
      <trkpt lat="44.36075" lon="5.94462">
        <ele>562</ele>
        <time>2019-04-02T11:45:42Z</time>
      </trkpt>
      <trkpt lat="44.36072" lon="5.94462">
        <ele>562</ele>
        <time>2019-04-02T11:45:43Z</time>
      </trkpt>
      <trkpt lat="44.3607" lon="5.94461">
        <ele>562</ele>
        <time>2019-04-02T11:45:44Z</time>
      </trkpt>
      <trkpt lat="44.36068" lon="5.9446">
        <ele>562</ele>
        <time>2019-04-02T11:45:45Z</time>
      </trkpt>
      <trkpt lat="44.36065" lon="5.94459">
        <ele>562</ele>
        <time>2019-04-02T11:45:46Z</time>
      </trkpt>
      <trkpt lat="44.36062" lon="5.94459">
        <ele>563</ele>
        <time>2019-04-02T11:45:47Z</time>
      </trkpt>
      <trkpt lat="44.3606" lon="5.94458">
        <ele>563</ele>
        <time>2019-04-02T11:45:48Z</time>
      </trkpt>
      <trkpt lat="44.36057" lon="5.94458">
        <ele>563</ele>
        <time>2019-04-02T11:45:49Z</time>
      </trkpt>
      <trkpt lat="44.36054" lon="5.94457">
        <ele>563</ele>
        <time>2019-04-02T11:45:50Z</time>
      </trkpt>
      <trkpt lat="44.36051" lon="5.94457">
        <ele>563</ele>
        <time>2019-04-02T11:45:51Z</time>
      </trkpt>
      <trkpt lat="44.36049" lon="5.94456">
        <ele>563</ele>
        <time>2019-04-02T11:45:52Z</time>
      </trkpt>
      <trkpt lat="44.36046" lon="5.94455">
        <ele>563</ele>
        <time>2019-04-02T11:45:53Z</time>
      </trkpt>
      <trkpt lat="44.36043" lon="5.94454">
        <ele>563</ele>
        <time>2019-04-02T11:45:54Z</time>
      </trkpt>
      <trkpt lat="44.3604" lon="5.94454">
        <ele>563</ele>
        <time>2019-04-02T11:45:55Z</time>
      </trkpt>
      <trkpt lat="44.36037" lon="5.94453">
        <ele>564</ele>
        <time>2019-04-02T11:45:56Z</time>
      </trkpt>
      <trkpt lat="44.36034" lon="5.94452">
        <ele>564</ele>
        <time>2019-04-02T11:45:57Z</time>
      </trkpt>
      <trkpt lat="44.36031" lon="5.94451">
        <ele>564</ele>
        <time>2019-04-02T11:45:58Z</time>
      </trkpt>
      <trkpt lat="44.36028" lon="5.9445">
        <ele>564</ele>
        <time>2019-04-02T11:45:59Z</time>
      </trkpt>
      <trkpt lat="44.36025" lon="5.94449">
        <ele>564</ele>
        <time>2019-04-02T11:46:00Z</time>
      </trkpt>
      <trkpt lat="44.36022" lon="5.94448">
        <ele>564</ele>
        <time>2019-04-02T11:46:01Z</time>
      </trkpt>
      <trkpt lat="44.36018" lon="5.94447">
        <ele>564</ele>
        <time>2019-04-02T11:46:02Z</time>
      </trkpt>
      <trkpt lat="44.36015" lon="5.94445">
        <ele>564</ele>
        <time>2019-04-02T11:46:03Z</time>
      </trkpt>
      <trkpt lat="44.36011" lon="5.94444">
        <ele>564</ele>
        <time>2019-04-02T11:46:04Z</time>
      </trkpt>
      <trkpt lat="44.36007" lon="5.94442">
        <ele>564</ele>
        <time>2019-04-02T11:46:05Z</time>
      </trkpt>
      <trkpt lat="44.36002" lon="5.94441">
        <ele>564</ele>
        <time>2019-04-02T11:46:06Z</time>
      </trkpt>
      <trkpt lat="44.35998" lon="5.94439">
        <ele>564</ele>
        <time>2019-04-02T11:46:07Z</time>
      </trkpt>
      <trkpt lat="44.35993" lon="5.94436">
        <ele>564</ele>
        <time>2019-04-02T11:46:08Z</time>
      </trkpt>
      <trkpt lat="44.35988" lon="5.94433">
        <ele>564</ele>
        <time>2019-04-02T11:46:09Z</time>
      </trkpt>
      <trkpt lat="44.35984" lon="5.94429">
        <ele>564</ele>
        <time>2019-04-02T11:46:10Z</time>
      </trkpt>
      <trkpt lat="44.35979" lon="5.94425">
        <ele>564</ele>
        <time>2019-04-02T11:46:11Z</time>
      </trkpt>
      <trkpt lat="44.35975" lon="5.9442">
        <ele>564</ele>
        <time>2019-04-02T11:46:12Z</time>
      </trkpt>
      <trkpt lat="44.35971" lon="5.94415">
        <ele>564</ele>
        <time>2019-04-02T11:46:13Z</time>
      </trkpt>
      <trkpt lat="44.35968" lon="5.9441">
        <ele>564</ele>
        <time>2019-04-02T11:46:14Z</time>
      </trkpt>
      <trkpt lat="44.35964" lon="5.94405">
        <ele>564</ele>
        <time>2019-04-02T11:46:15Z</time>
      </trkpt>
      <trkpt lat="44.35961" lon="5.94399">
        <ele>564</ele>
        <time>2019-04-02T11:46:16Z</time>
      </trkpt>
      <trkpt lat="44.35958" lon="5.94393">
        <ele>564</ele>
        <time>2019-04-02T11:46:17Z</time>
      </trkpt>
      <trkpt lat="44.35956" lon="5.94387">
        <ele>564</ele>
        <time>2019-04-02T11:46:18Z</time>
      </trkpt>
      <trkpt lat="44.35953" lon="5.94382">
        <ele>564</ele>
        <time>2019-04-02T11:46:19Z</time>
      </trkpt>
      <trkpt lat="44.3595" lon="5.94377">
        <ele>564</ele>
        <time>2019-04-02T11:46:20Z</time>
      </trkpt>
      <trkpt lat="44.35948" lon="5.94372">
        <ele>564</ele>
        <time>2019-04-02T11:46:21Z</time>
      </trkpt>
      <trkpt lat="44.35945" lon="5.94367">
        <ele>564</ele>
        <time>2019-04-02T11:46:22Z</time>
      </trkpt>
      <trkpt lat="44.35942" lon="5.94362">
        <ele>564</ele>
        <time>2019-04-02T11:46:23Z</time>
      </trkpt>
      <trkpt lat="44.35939" lon="5.94358">
        <ele>564</ele>
        <time>2019-04-02T11:46:24Z</time>
      </trkpt>
      <trkpt lat="44.35936" lon="5.94355">
        <ele>564</ele>
        <time>2019-04-02T11:46:25Z</time>
      </trkpt>
      <trkpt lat="44.35932" lon="5.94351">
        <ele>564</ele>
        <time>2019-04-02T11:46:26Z</time>
      </trkpt>
      <trkpt lat="44.35928" lon="5.94348">
        <ele>564</ele>
        <time>2019-04-02T11:46:27Z</time>
      </trkpt>
      <trkpt lat="44.35924" lon="5.94345">
        <ele>564</ele>
        <time>2019-04-02T11:46:28Z</time>
      </trkpt>
      <trkpt lat="44.3592" lon="5.94341">
        <ele>564</ele>
        <time>2019-04-02T11:46:29Z</time>
      </trkpt>
      <trkpt lat="44.35915" lon="5.94338">
        <ele>564</ele>
        <time>2019-04-02T11:46:30Z</time>
      </trkpt>
      <trkpt lat="44.3591" lon="5.94335">
        <ele>564</ele>
        <time>2019-04-02T11:46:31Z</time>
      </trkpt>
      <trkpt lat="44.35905" lon="5.94331">
        <ele>564</ele>
        <time>2019-04-02T11:46:32Z</time>
      </trkpt>
      <trkpt lat="44.35901" lon="5.94328">
        <ele>564</ele>
        <time>2019-04-02T11:46:33Z</time>
      </trkpt>
      <trkpt lat="44.35897" lon="5.94323">
        <ele>564</ele>
        <time>2019-04-02T11:46:34Z</time>
      </trkpt>
      <trkpt lat="44.35893" lon="5.94318">
        <ele>564</ele>
        <time>2019-04-02T11:46:35Z</time>
      </trkpt>
      <trkpt lat="44.35889" lon="5.94313">
        <ele>564</ele>
        <time>2019-04-02T11:46:36Z</time>
      </trkpt>
      <trkpt lat="44.35886" lon="5.94308">
        <ele>564</ele>
        <time>2019-04-02T11:46:37Z</time>
      </trkpt>
      <trkpt lat="44.35883" lon="5.94303">
        <ele>564</ele>
        <time>2019-04-02T11:46:38Z</time>
      </trkpt>
      <trkpt lat="44.35881" lon="5.94298">
        <ele>564</ele>
        <time>2019-04-02T11:46:39Z</time>
      </trkpt>
      <trkpt lat="44.35878" lon="5.94293">
        <ele>564</ele>
        <time>2019-04-02T11:46:40Z</time>
      </trkpt>
      <trkpt lat="44.35876" lon="5.94288">
        <ele>564</ele>
        <time>2019-04-02T11:46:41Z</time>
      </trkpt>
      <trkpt lat="44.35873" lon="5.94284">
        <ele>565</ele>
        <time>2019-04-02T11:46:42Z</time>
      </trkpt>
      <trkpt lat="44.3587" lon="5.9428">
        <ele>565</ele>
        <time>2019-04-02T11:46:43Z</time>
      </trkpt>
      <trkpt lat="44.35868" lon="5.94276">
        <ele>565</ele>
        <time>2019-04-02T11:46:44Z</time>
      </trkpt>
      <trkpt lat="44.35865" lon="5.94272">
        <ele>565</ele>
        <time>2019-04-02T11:46:45Z</time>
      </trkpt>
      <trkpt lat="44.35862" lon="5.94268">
        <ele>565</ele>
        <time>2019-04-02T11:46:46Z</time>
      </trkpt>
      <trkpt lat="44.35859" lon="5.94263">
        <ele>566</ele>
        <time>2019-04-02T11:46:47Z</time>
      </trkpt>
      <trkpt lat="44.35855" lon="5.94259">
        <ele>566</ele>
        <time>2019-04-02T11:46:48Z</time>
      </trkpt>
      <trkpt lat="44.35852" lon="5.94254">
        <ele>566</ele>
        <time>2019-04-02T11:46:49Z</time>
      </trkpt>
      <trkpt lat="44.35849" lon="5.9425">
        <ele>566</ele>
        <time>2019-04-02T11:46:50Z</time>
      </trkpt>
      <trkpt lat="44.35846" lon="5.94246">
        <ele>566</ele>
        <time>2019-04-02T11:46:51Z</time>
      </trkpt>
      <trkpt lat="44.35842" lon="5.94242">
        <ele>566</ele>
        <time>2019-04-02T11:46:52Z</time>
      </trkpt>
      <trkpt lat="44.35838" lon="5.94238">
        <ele>566</ele>
        <time>2019-04-02T11:46:53Z</time>
      </trkpt>
      <trkpt lat="44.35835" lon="5.94234">
        <ele>566</ele>
        <time>2019-04-02T11:46:54Z</time>
      </trkpt>
      <trkpt lat="44.35831" lon="5.9423">
        <ele>567</ele>
        <time>2019-04-02T11:46:55Z</time>
      </trkpt>
      <trkpt lat="44.35827" lon="5.94225">
        <ele>567</ele>
        <time>2019-04-02T11:46:56Z</time>
      </trkpt>
      <trkpt lat="44.35824" lon="5.94221">
        <ele>567</ele>
        <time>2019-04-02T11:46:57Z</time>
      </trkpt>
      <trkpt lat="44.3582" lon="5.94217">
        <ele>567</ele>
        <time>2019-04-02T11:46:58Z</time>
      </trkpt>
      <trkpt lat="44.35816" lon="5.94213">
        <ele>567</ele>
        <time>2019-04-02T11:46:59Z</time>
      </trkpt>
      <trkpt lat="44.35812" lon="5.94209">
        <ele>568</ele>
        <time>2019-04-02T11:47:00Z</time>
      </trkpt>
      <trkpt lat="44.35808" lon="5.94205">
        <ele>568</ele>
        <time>2019-04-02T11:47:01Z</time>
      </trkpt>
      <trkpt lat="44.35804" lon="5.94201">
        <ele>568</ele>
        <time>2019-04-02T11:47:02Z</time>
      </trkpt>
      <trkpt lat="44.35801" lon="5.94198">
        <ele>568</ele>
        <time>2019-04-02T11:47:03Z</time>
      </trkpt>
      <trkpt lat="44.35796" lon="5.94194">
        <ele>568</ele>
        <time>2019-04-02T11:47:04Z</time>
      </trkpt>
      <trkpt lat="44.35793" lon="5.94191">
        <ele>568</ele>
        <time>2019-04-02T11:47:05Z</time>
      </trkpt>
      <trkpt lat="44.35788" lon="5.94187">
        <ele>568</ele>
        <time>2019-04-02T11:47:06Z</time>
      </trkpt>
      <trkpt lat="44.35785" lon="5.94184">
        <ele>568</ele>
        <time>2019-04-02T11:47:07Z</time>
      </trkpt>
      <trkpt lat="44.3578" lon="5.94181">
        <ele>569</ele>
        <time>2019-04-02T11:47:08Z</time>
      </trkpt>
      <trkpt lat="44.35777" lon="5.94179">
        <ele>569</ele>
        <time>2019-04-02T11:47:09Z</time>
      </trkpt>
      <trkpt lat="44.35772" lon="5.94176">
        <ele>569</ele>
        <time>2019-04-02T11:47:10Z</time>
      </trkpt>
      <trkpt lat="44.35769" lon="5.94173">
        <ele>569</ele>
        <time>2019-04-02T11:47:11Z</time>
      </trkpt>
      <trkpt lat="44.35764" lon="5.94171">
        <ele>569</ele>
        <time>2019-04-02T11:47:12Z</time>
      </trkpt>
      <trkpt lat="44.35761" lon="5.94168">
        <ele>569</ele>
        <time>2019-04-02T11:47:13Z</time>
      </trkpt>
      <trkpt lat="44.35757" lon="5.94165">
        <ele>569</ele>
        <time>2019-04-02T11:47:14Z</time>
      </trkpt>
      <trkpt lat="44.35753" lon="5.94162">
        <ele>569</ele>
        <time>2019-04-02T11:47:15Z</time>
      </trkpt>
      <trkpt lat="44.35749" lon="5.94159">
        <ele>569</ele>
        <time>2019-04-02T11:47:16Z</time>
      </trkpt>
      <trkpt lat="44.35746" lon="5.94157">
        <ele>569</ele>
        <time>2019-04-02T11:47:17Z</time>
      </trkpt>
      <trkpt lat="44.35742" lon="5.94154">
        <ele>570</ele>
        <time>2019-04-02T11:47:18Z</time>
      </trkpt>
      <trkpt lat="44.35738" lon="5.94151">
        <ele>570</ele>
        <time>2019-04-02T11:47:19Z</time>
      </trkpt>
      <trkpt lat="44.35734" lon="5.94149">
        <ele>570</ele>
        <time>2019-04-02T11:47:20Z</time>
      </trkpt>
      <trkpt lat="44.3573" lon="5.94146">
        <ele>570</ele>
        <time>2019-04-02T11:47:21Z</time>
      </trkpt>
      <trkpt lat="44.35727" lon="5.94144">
        <ele>570</ele>
        <time>2019-04-02T11:47:22Z</time>
      </trkpt>
      <trkpt lat="44.35723" lon="5.94142">
        <ele>570</ele>
        <time>2019-04-02T11:47:23Z</time>
      </trkpt>
      <trkpt lat="44.35719" lon="5.94139">
        <ele>570</ele>
        <time>2019-04-02T11:47:24Z</time>
      </trkpt>
      <trkpt lat="44.35715" lon="5.94137">
        <ele>570</ele>
        <time>2019-04-02T11:47:25Z</time>
      </trkpt>
      <trkpt lat="44.35712" lon="5.94135">
        <ele>570</ele>
        <time>2019-04-02T11:47:26Z</time>
      </trkpt>
      <trkpt lat="44.35707" lon="5.94133">
        <ele>570</ele>
        <time>2019-04-02T11:47:27Z</time>
      </trkpt>
      <trkpt lat="44.35703" lon="5.94131">
        <ele>570</ele>
        <time>2019-04-02T11:47:28Z</time>
      </trkpt>
      <trkpt lat="44.35698" lon="5.94129">
        <ele>570</ele>
        <time>2019-04-02T11:47:29Z</time>
      </trkpt>
      <trkpt lat="44.35693" lon="5.94126">
        <ele>570</ele>
        <time>2019-04-02T11:47:30Z</time>
      </trkpt>
      <trkpt lat="44.35689" lon="5.94124">
        <ele>570</ele>
        <time>2019-04-02T11:47:31Z</time>
      </trkpt>
      <trkpt lat="44.35684" lon="5.94122">
        <ele>570</ele>
        <time>2019-04-02T11:47:32Z</time>
      </trkpt>
      <trkpt lat="44.35679" lon="5.94119">
        <ele>570</ele>
        <time>2019-04-02T11:47:33Z</time>
      </trkpt>
      <trkpt lat="44.35675" lon="5.94117">
        <ele>570</ele>
        <time>2019-04-02T11:47:34Z</time>
      </trkpt>
      <trkpt lat="44.3567" lon="5.94114">
        <ele>570</ele>
        <time>2019-04-02T11:47:35Z</time>
      </trkpt>
      <trkpt lat="44.35666" lon="5.94112">
        <ele>570</ele>
        <time>2019-04-02T11:47:36Z</time>
      </trkpt>
      <trkpt lat="44.35661" lon="5.9411">
        <ele>570</ele>
        <time>2019-04-02T11:47:37Z</time>
      </trkpt>
      <trkpt lat="44.35657" lon="5.94108">
        <ele>570</ele>
        <time>2019-04-02T11:47:38Z</time>
      </trkpt>
      <trkpt lat="44.35653" lon="5.94106">
        <ele>570</ele>
        <time>2019-04-02T11:47:39Z</time>
      </trkpt>
      <trkpt lat="44.35649" lon="5.94104">
        <ele>570</ele>
        <time>2019-04-02T11:47:40Z</time>
      </trkpt>
      <trkpt lat="44.35645" lon="5.94102">
        <ele>570</ele>
        <time>2019-04-02T11:47:41Z</time>
      </trkpt>
      <trkpt lat="44.3564" lon="5.94099">
        <ele>570</ele>
        <time>2019-04-02T11:47:42Z</time>
      </trkpt>
      <trkpt lat="44.35636" lon="5.94097">
        <ele>570</ele>
        <time>2019-04-02T11:47:43Z</time>
      </trkpt>
      <trkpt lat="44.35632" lon="5.94094">
        <ele>570</ele>
        <time>2019-04-02T11:47:44Z</time>
      </trkpt>
      <trkpt lat="44.35628" lon="5.94092">
        <ele>570</ele>
        <time>2019-04-02T11:47:45Z</time>
      </trkpt>
      <trkpt lat="44.35624" lon="5.9409">
        <ele>570</ele>
        <time>2019-04-02T11:47:46Z</time>
      </trkpt>
      <trkpt lat="44.35619" lon="5.94087">
        <ele>570</ele>
        <time>2019-04-02T11:47:47Z</time>
      </trkpt>
      <trkpt lat="44.35615" lon="5.94085">
        <ele>570</ele>
        <time>2019-04-02T11:47:48Z</time>
      </trkpt>
      <trkpt lat="44.35611" lon="5.94083">
        <ele>570</ele>
        <time>2019-04-02T11:47:49Z</time>
      </trkpt>
      <trkpt lat="44.35607" lon="5.9408">
        <ele>570</ele>
        <time>2019-04-02T11:47:50Z</time>
      </trkpt>
      <trkpt lat="44.35603" lon="5.94078">
        <ele>570</ele>
        <time>2019-04-02T11:47:51Z</time>
      </trkpt>
      <trkpt lat="44.35599" lon="5.94076">
        <ele>570</ele>
        <time>2019-04-02T11:47:52Z</time>
      </trkpt>
      <trkpt lat="44.35595" lon="5.94074">
        <ele>570</ele>
        <time>2019-04-02T11:47:53Z</time>
      </trkpt>
      <trkpt lat="44.35591" lon="5.94072">
        <ele>570</ele>
        <time>2019-04-02T11:47:54Z</time>
      </trkpt>
      <trkpt lat="44.35587" lon="5.9407">
        <ele>570</ele>
        <time>2019-04-02T11:47:55Z</time>
      </trkpt>
      <trkpt lat="44.35583" lon="5.94067">
        <ele>570</ele>
        <time>2019-04-02T11:47:56Z</time>
      </trkpt>
      <trkpt lat="44.35579" lon="5.94065">
        <ele>570</ele>
        <time>2019-04-02T11:47:57Z</time>
      </trkpt>
      <trkpt lat="44.35575" lon="5.94063">
        <ele>570</ele>
        <time>2019-04-02T11:47:58Z</time>
      </trkpt>
      <trkpt lat="44.35571" lon="5.94061">
        <ele>570</ele>
        <time>2019-04-02T11:47:59Z</time>
      </trkpt>
      <trkpt lat="44.35567" lon="5.94058">
        <ele>570</ele>
        <time>2019-04-02T11:48:00Z</time>
      </trkpt>
      <trkpt lat="44.35563" lon="5.94056">
        <ele>570</ele>
        <time>2019-04-02T11:48:01Z</time>
      </trkpt>
      <trkpt lat="44.35559" lon="5.94054">
        <ele>570</ele>
        <time>2019-04-02T11:48:02Z</time>
      </trkpt>
      <trkpt lat="44.35554" lon="5.94052">
        <ele>570</ele>
        <time>2019-04-02T11:48:03Z</time>
      </trkpt>
      <trkpt lat="44.3555" lon="5.9405">
        <ele>570</ele>
        <time>2019-04-02T11:48:04Z</time>
      </trkpt>
      <trkpt lat="44.35545" lon="5.94048">
        <ele>570</ele>
        <time>2019-04-02T11:48:05Z</time>
      </trkpt>
      <trkpt lat="44.3554" lon="5.94047">
        <ele>570</ele>
        <time>2019-04-02T11:48:06Z</time>
      </trkpt>
      <trkpt lat="44.35534" lon="5.94045">
        <ele>570</ele>
        <time>2019-04-02T11:48:07Z</time>
      </trkpt>
      <trkpt lat="44.35527" lon="5.94044">
        <ele>570</ele>
        <time>2019-04-02T11:48:08Z</time>
      </trkpt>
      <trkpt lat="44.35521" lon="5.94044">
        <ele>570</ele>
        <time>2019-04-02T11:48:09Z</time>
      </trkpt>
      <trkpt lat="44.35514" lon="5.94043">
        <ele>570</ele>
        <time>2019-04-02T11:48:10Z</time>
      </trkpt>
      <trkpt lat="44.35507" lon="5.94044">
        <ele>570</ele>
        <time>2019-04-02T11:48:11Z</time>
      </trkpt>
      <trkpt lat="44.355" lon="5.94045">
        <ele>570</ele>
        <time>2019-04-02T11:48:12Z</time>
      </trkpt>
      <trkpt lat="44.35492" lon="5.94046">
        <ele>570</ele>
        <time>2019-04-02T11:48:13Z</time>
      </trkpt>
      <trkpt lat="44.35485" lon="5.94047">
        <ele>570</ele>
        <time>2019-04-02T11:48:14Z</time>
      </trkpt>
      <trkpt lat="44.35477" lon="5.94048">
        <ele>570</ele>
        <time>2019-04-02T11:48:15Z</time>
      </trkpt>
      <trkpt lat="44.35469" lon="5.94049">
        <ele>570</ele>
        <time>2019-04-02T11:48:16Z</time>
      </trkpt>
      <trkpt lat="44.3546" lon="5.94049">
        <ele>570</ele>
        <time>2019-04-02T11:48:17Z</time>
      </trkpt>
      <trkpt lat="44.35452" lon="5.94047">
        <ele>570</ele>
        <time>2019-04-02T11:48:18Z</time>
      </trkpt>
      <trkpt lat="44.35443" lon="5.94044">
        <ele>569</ele>
        <time>2019-04-02T11:48:19Z</time>
      </trkpt>
      <trkpt lat="44.35435" lon="5.94039">
        <ele>569</ele>
        <time>2019-04-02T11:48:20Z</time>
      </trkpt>
      <trkpt lat="44.35428" lon="5.94034">
        <ele>569</ele>
        <time>2019-04-02T11:48:21Z</time>
      </trkpt>
      <trkpt lat="44.35421" lon="5.94029">
        <ele>569</ele>
        <time>2019-04-02T11:48:22Z</time>
      </trkpt>
      <trkpt lat="44.35415" lon="5.94023">
        <ele>569</ele>
        <time>2019-04-02T11:48:23Z</time>
      </trkpt>
      <trkpt lat="44.35409" lon="5.94017">
        <ele>569</ele>
        <time>2019-04-02T11:48:24Z</time>
      </trkpt>
      <trkpt lat="44.35403" lon="5.94012">
        <ele>569</ele>
        <time>2019-04-02T11:48:25Z</time>
      </trkpt>
      <trkpt lat="44.35397" lon="5.94008">
        <ele>569</ele>
        <time>2019-04-02T11:48:26Z</time>
      </trkpt>
      <trkpt lat="44.35391" lon="5.94005">
        <ele>569</ele>
        <time>2019-04-02T11:48:27Z</time>
      </trkpt>
      <trkpt lat="44.35385" lon="5.94001">
        <ele>569</ele>
        <time>2019-04-02T11:48:28Z</time>
      </trkpt>
      <trkpt lat="44.35379" lon="5.93999">
        <ele>569</ele>
        <time>2019-04-02T11:48:29Z</time>
      </trkpt>
      <trkpt lat="44.35374" lon="5.93996">
        <ele>569</ele>
        <time>2019-04-02T11:48:30Z</time>
      </trkpt>
      <trkpt lat="44.35369" lon="5.93993">
        <ele>569</ele>
        <time>2019-04-02T11:48:31Z</time>
      </trkpt>
      <trkpt lat="44.35363" lon="5.93989">
        <ele>569</ele>
        <time>2019-04-02T11:48:32Z</time>
      </trkpt>
      <trkpt lat="44.35358" lon="5.93987">
        <ele>569</ele>
        <time>2019-04-02T11:48:33Z</time>
      </trkpt>
      <trkpt lat="44.35353" lon="5.93983">
        <ele>569</ele>
        <time>2019-04-02T11:48:34Z</time>
      </trkpt>
      <trkpt lat="44.35348" lon="5.9398">
        <ele>569</ele>
        <time>2019-04-02T11:48:35Z</time>
      </trkpt>
      <trkpt lat="44.35343" lon="5.93977">
        <ele>569</ele>
        <time>2019-04-02T11:48:36Z</time>
      </trkpt>
      <trkpt lat="44.35338" lon="5.93973">
        <ele>569</ele>
        <time>2019-04-02T11:48:37Z</time>
      </trkpt>
      <trkpt lat="44.35334" lon="5.9397">
        <ele>569</ele>
        <time>2019-04-02T11:48:38Z</time>
      </trkpt>
      <trkpt lat="44.35328" lon="5.93967">
        <ele>569</ele>
        <time>2019-04-02T11:48:39Z</time>
      </trkpt>
      <trkpt lat="44.35323" lon="5.93965">
        <ele>569</ele>
        <time>2019-04-02T11:48:40Z</time>
      </trkpt>
      <trkpt lat="44.35318" lon="5.93962">
        <ele>569</ele>
        <time>2019-04-02T11:48:41Z</time>
      </trkpt>
      <trkpt lat="44.35313" lon="5.93959">
        <ele>569</ele>
        <time>2019-04-02T11:48:42Z</time>
      </trkpt>
      <trkpt lat="44.35307" lon="5.93956">
        <ele>569</ele>
        <time>2019-04-02T11:48:43Z</time>
      </trkpt>
      <trkpt lat="44.35302" lon="5.93953">
        <ele>569</ele>
        <time>2019-04-02T11:48:44Z</time>
      </trkpt>
      <trkpt lat="44.35297" lon="5.9395">
        <ele>569</ele>
        <time>2019-04-02T11:48:45Z</time>
      </trkpt>
      <trkpt lat="44.35292" lon="5.93946">
        <ele>569</ele>
        <time>2019-04-02T11:48:46Z</time>
      </trkpt>
      <trkpt lat="44.35286" lon="5.93943">
        <ele>569</ele>
        <time>2019-04-02T11:48:47Z</time>
      </trkpt>
      <trkpt lat="44.35281" lon="5.9394">
        <ele>569</ele>
        <time>2019-04-02T11:48:48Z</time>
      </trkpt>
      <trkpt lat="44.35276" lon="5.93936">
        <ele>569</ele>
        <time>2019-04-02T11:48:49Z</time>
      </trkpt>
      <trkpt lat="44.35271" lon="5.93933">
        <ele>569</ele>
        <time>2019-04-02T11:48:50Z</time>
      </trkpt>
      <trkpt lat="44.35266" lon="5.9393">
        <ele>569</ele>
        <time>2019-04-02T11:48:51Z</time>
      </trkpt>
      <trkpt lat="44.35261" lon="5.93927">
        <ele>569</ele>
        <time>2019-04-02T11:48:52Z</time>
      </trkpt>
      <trkpt lat="44.35256" lon="5.93924">
        <ele>569</ele>
        <time>2019-04-02T11:48:53Z</time>
      </trkpt>
      <trkpt lat="44.35251" lon="5.93921">
        <ele>569</ele>
        <time>2019-04-02T11:48:54Z</time>
      </trkpt>
      <trkpt lat="44.35246" lon="5.93918">
        <ele>569</ele>
        <time>2019-04-02T11:48:55Z</time>
      </trkpt>
      <trkpt lat="44.35241" lon="5.93914">
        <ele>569</ele>
        <time>2019-04-02T11:48:56Z</time>
      </trkpt>
      <trkpt lat="44.35236" lon="5.93911">
        <ele>569</ele>
        <time>2019-04-02T11:48:57Z</time>
      </trkpt>
      <trkpt lat="44.35231" lon="5.93908">
        <ele>569</ele>
        <time>2019-04-02T11:48:58Z</time>
      </trkpt>
      <trkpt lat="44.35226" lon="5.93905">
        <ele>569</ele>
        <time>2019-04-02T11:48:59Z</time>
      </trkpt>
      <trkpt lat="44.35221" lon="5.93901">
        <ele>569</ele>
        <time>2019-04-02T11:49:00Z</time>
      </trkpt>
      <trkpt lat="44.35216" lon="5.93898">
        <ele>569</ele>
        <time>2019-04-02T11:49:01Z</time>
      </trkpt>
      <trkpt lat="44.35211" lon="5.93896">
        <ele>569</ele>
        <time>2019-04-02T11:49:02Z</time>
      </trkpt>
      <trkpt lat="44.35207" lon="5.93893">
        <ele>569</ele>
        <time>2019-04-02T11:49:03Z</time>
      </trkpt>
      <trkpt lat="44.35202" lon="5.9389">
        <ele>569</ele>
        <time>2019-04-02T11:49:04Z</time>
      </trkpt>
      <trkpt lat="44.35199" lon="5.93888">
        <ele>569</ele>
        <time>2019-04-02T11:49:05Z</time>
      </trkpt>
      <trkpt lat="44.35194" lon="5.93885">
        <ele>569</ele>
        <time>2019-04-02T11:49:06Z</time>
      </trkpt>
      <trkpt lat="44.3519" lon="5.93883">
        <ele>569</ele>
        <time>2019-04-02T11:49:07Z</time>
      </trkpt>
      <trkpt lat="44.35186" lon="5.9388">
        <ele>569</ele>
        <time>2019-04-02T11:49:08Z</time>
      </trkpt>
      <trkpt lat="44.35182" lon="5.93877">
        <ele>569</ele>
        <time>2019-04-02T11:49:09Z</time>
      </trkpt>
      <trkpt lat="44.35178" lon="5.93874">
        <ele>569</ele>
        <time>2019-04-02T11:49:10Z</time>
      </trkpt>
      <trkpt lat="44.35173" lon="5.93871">
        <ele>569</ele>
        <time>2019-04-02T11:49:11Z</time>
      </trkpt>
      <trkpt lat="44.35168" lon="5.93868">
        <ele>569</ele>
        <time>2019-04-02T11:49:12Z</time>
      </trkpt>
      <trkpt lat="44.35164" lon="5.93864">
        <ele>569</ele>
        <time>2019-04-02T11:49:13Z</time>
      </trkpt>
      <trkpt lat="44.35159" lon="5.93861">
        <ele>569</ele>
        <time>2019-04-02T11:49:14Z</time>
      </trkpt>
      <trkpt lat="44.35153" lon="5.93857">
        <ele>569</ele>
        <time>2019-04-02T11:49:15Z</time>
      </trkpt>
      <trkpt lat="44.35148" lon="5.93854">
        <ele>569</ele>
        <time>2019-04-02T11:49:16Z</time>
      </trkpt>
      <trkpt lat="44.35142" lon="5.93849">
        <ele>569</ele>
        <time>2019-04-02T11:49:17Z</time>
      </trkpt>
      <trkpt lat="44.35137" lon="5.93845">
        <ele>569</ele>
        <time>2019-04-02T11:49:18Z</time>
      </trkpt>
      <trkpt lat="44.35131" lon="5.93841">
        <ele>569</ele>
        <time>2019-04-02T11:49:19Z</time>
      </trkpt>
      <trkpt lat="44.35125" lon="5.93837">
        <ele>569</ele>
        <time>2019-04-02T11:49:20Z</time>
      </trkpt>
      <trkpt lat="44.3512" lon="5.93833">
        <ele>569</ele>
        <time>2019-04-02T11:49:21Z</time>
      </trkpt>
      <trkpt lat="44.35115" lon="5.93829">
        <ele>569</ele>
        <time>2019-04-02T11:49:22Z</time>
      </trkpt>
      <trkpt lat="44.35109" lon="5.93825">
        <ele>569</ele>
        <time>2019-04-02T11:49:23Z</time>
      </trkpt>
      <trkpt lat="44.35104" lon="5.93821">
        <ele>569</ele>
        <time>2019-04-02T11:49:24Z</time>
      </trkpt>
      <trkpt lat="44.35099" lon="5.93817">
        <ele>569</ele>
        <time>2019-04-02T11:49:25Z</time>
      </trkpt>
      <trkpt lat="44.35093" lon="5.93813">
        <ele>569</ele>
        <time>2019-04-02T11:49:26Z</time>
      </trkpt>
      <trkpt lat="44.35088" lon="5.9381">
        <ele>569</ele>
        <time>2019-04-02T11:49:27Z</time>
      </trkpt>
      <trkpt lat="44.35083" lon="5.93806">
        <ele>569</ele>
        <time>2019-04-02T11:49:28Z</time>
      </trkpt>
      <trkpt lat="44.35078" lon="5.93803">
        <ele>569</ele>
        <time>2019-04-02T11:49:29Z</time>
      </trkpt>
      <trkpt lat="44.35074" lon="5.938">
        <ele>569</ele>
        <time>2019-04-02T11:49:30Z</time>
      </trkpt>
      <trkpt lat="44.35069" lon="5.93797">
        <ele>569</ele>
        <time>2019-04-02T11:49:31Z</time>
      </trkpt>
      <trkpt lat="44.35064" lon="5.93794">
        <ele>569</ele>
        <time>2019-04-02T11:49:32Z</time>
      </trkpt>
      <trkpt lat="44.35059" lon="5.93792">
        <ele>569</ele>
        <time>2019-04-02T11:49:33Z</time>
      </trkpt>
      <trkpt lat="44.35055" lon="5.93789">
        <ele>569</ele>
        <time>2019-04-02T11:49:34Z</time>
      </trkpt>
      <trkpt lat="44.3505" lon="5.93787">
        <ele>569</ele>
        <time>2019-04-02T11:49:35Z</time>
      </trkpt>
      <trkpt lat="44.35045" lon="5.93785">
        <ele>569</ele>
        <time>2019-04-02T11:49:36Z</time>
      </trkpt>
      <trkpt lat="44.35041" lon="5.93783">
        <ele>569</ele>
        <time>2019-04-02T11:49:37Z</time>
      </trkpt>
      <trkpt lat="44.35036" lon="5.93781">
        <ele>569</ele>
        <time>2019-04-02T11:49:38Z</time>
      </trkpt>
      <trkpt lat="44.35031" lon="5.93779">
        <ele>569</ele>
        <time>2019-04-02T11:49:39Z</time>
      </trkpt>
      <trkpt lat="44.35027" lon="5.93778">
        <ele>569</ele>
        <time>2019-04-02T11:49:40Z</time>
      </trkpt>
      <trkpt lat="44.35022" lon="5.93776">
        <ele>569</ele>
        <time>2019-04-02T11:49:41Z</time>
      </trkpt>
      <trkpt lat="44.35017" lon="5.93774">
        <ele>569</ele>
        <time>2019-04-02T11:49:42Z</time>
      </trkpt>
      <trkpt lat="44.35013" lon="5.93772">
        <ele>569</ele>
        <time>2019-04-02T11:49:43Z</time>
      </trkpt>
      <trkpt lat="44.35008" lon="5.93769">
        <ele>569</ele>
        <time>2019-04-02T11:49:44Z</time>
      </trkpt>
      <trkpt lat="44.35003" lon="5.93767">
        <ele>569</ele>
        <time>2019-04-02T11:49:45Z</time>
      </trkpt>
      <trkpt lat="44.34999" lon="5.93765">
        <ele>569</ele>
        <time>2019-04-02T11:49:46Z</time>
      </trkpt>
      <trkpt lat="44.34994" lon="5.93763">
        <ele>569</ele>
        <time>2019-04-02T11:49:47Z</time>
      </trkpt>
      <trkpt lat="44.34989" lon="5.9376">
        <ele>569</ele>
        <time>2019-04-02T11:49:48Z</time>
      </trkpt>
      <trkpt lat="44.34984" lon="5.93758">
        <ele>569</ele>
        <time>2019-04-02T11:49:49Z</time>
      </trkpt>
      <trkpt lat="44.34979" lon="5.93755">
        <ele>569</ele>
        <time>2019-04-02T11:49:50Z</time>
      </trkpt>
      <trkpt lat="44.34973" lon="5.93751">
        <ele>569</ele>
        <time>2019-04-02T11:49:51Z</time>
      </trkpt>
      <trkpt lat="44.34968" lon="5.93748">
        <ele>569</ele>
        <time>2019-04-02T11:49:52Z</time>
      </trkpt>
      <trkpt lat="44.34962" lon="5.93744">
        <ele>569</ele>
        <time>2019-04-02T11:49:53Z</time>
      </trkpt>
      <trkpt lat="44.34956" lon="5.93741">
        <ele>569</ele>
        <time>2019-04-02T11:49:54Z</time>
      </trkpt>
      <trkpt lat="44.3495" lon="5.93737">
        <ele>569</ele>
        <time>2019-04-02T11:49:55Z</time>
      </trkpt>
      <trkpt lat="44.34943" lon="5.93733">
        <ele>569</ele>
        <time>2019-04-02T11:49:56Z</time>
      </trkpt>
      <trkpt lat="44.34937" lon="5.93729">
        <ele>569</ele>
        <time>2019-04-02T11:49:57Z</time>
      </trkpt>
      <trkpt lat="44.3493" lon="5.93724">
        <ele>569</ele>
        <time>2019-04-02T11:49:58Z</time>
      </trkpt>
      <trkpt lat="44.34922" lon="5.9372">
        <ele>569</ele>
        <time>2019-04-02T11:49:59Z</time>
      </trkpt>
      <trkpt lat="44.34915" lon="5.93715">
        <ele>569</ele>
        <time>2019-04-02T11:50:00Z</time>
      </trkpt>
      <trkpt lat="44.34907" lon="5.93711">
        <ele>569</ele>
        <time>2019-04-02T11:50:01Z</time>
      </trkpt>
      <trkpt lat="44.349" lon="5.93706">
        <ele>569</ele>
        <time>2019-04-02T11:50:02Z</time>
      </trkpt>
      <trkpt lat="44.34894" lon="5.93702">
        <ele>569</ele>
        <time>2019-04-02T11:50:03Z</time>
      </trkpt>
      <trkpt lat="44.34887" lon="5.93698">
        <ele>569</ele>
        <time>2019-04-02T11:50:04Z</time>
      </trkpt>
      <trkpt lat="44.34881" lon="5.93693">
        <ele>569</ele>
        <time>2019-04-02T11:50:05Z</time>
      </trkpt>
      <trkpt lat="44.34875" lon="5.93689">
        <ele>569</ele>
        <time>2019-04-02T11:50:06Z</time>
      </trkpt>
      <trkpt lat="44.34869" lon="5.93685">
        <ele>569</ele>
        <time>2019-04-02T11:50:07Z</time>
      </trkpt>
      <trkpt lat="44.34863" lon="5.93681">
        <ele>569</ele>
        <time>2019-04-02T11:50:08Z</time>
      </trkpt>
      <trkpt lat="44.34858" lon="5.93678">
        <ele>569</ele>
        <time>2019-04-02T11:50:09Z</time>
      </trkpt>
      <trkpt lat="44.34853" lon="5.93674">
        <ele>569</ele>
        <time>2019-04-02T11:50:10Z</time>
      </trkpt>
      <trkpt lat="44.34847" lon="5.9367">
        <ele>569</ele>
        <time>2019-04-02T11:50:11Z</time>
      </trkpt>
      <trkpt lat="44.34842" lon="5.93667">
        <ele>569</ele>
        <time>2019-04-02T11:50:12Z</time>
      </trkpt>
      <trkpt lat="44.34837" lon="5.93663">
        <ele>569</ele>
        <time>2019-04-02T11:50:13Z</time>
      </trkpt>
      <trkpt lat="44.34832" lon="5.93659">
        <ele>569</ele>
        <time>2019-04-02T11:50:14Z</time>
      </trkpt>
      <trkpt lat="44.34827" lon="5.93654">
        <ele>569</ele>
        <time>2019-04-02T11:50:15Z</time>
      </trkpt>
      <trkpt lat="44.34823" lon="5.9365">
        <ele>569</ele>
        <time>2019-04-02T11:50:16Z</time>
      </trkpt>
      <trkpt lat="44.34818" lon="5.93646">
        <ele>569</ele>
        <time>2019-04-02T11:50:17Z</time>
      </trkpt>
      <trkpt lat="44.34813" lon="5.93641">
        <ele>569</ele>
        <time>2019-04-02T11:50:18Z</time>
      </trkpt>
      <trkpt lat="44.34809" lon="5.93637">
        <ele>569</ele>
        <time>2019-04-02T11:50:19Z</time>
      </trkpt>
      <trkpt lat="44.34804" lon="5.93632">
        <ele>569</ele>
        <time>2019-04-02T11:50:20Z</time>
      </trkpt>
      <trkpt lat="44.348" lon="5.93628">
        <ele>569</ele>
        <time>2019-04-02T11:50:21Z</time>
      </trkpt>
      <trkpt lat="44.34795" lon="5.93623">
        <ele>569</ele>
        <time>2019-04-02T11:50:22Z</time>
      </trkpt>
      <trkpt lat="44.34791" lon="5.93618">
        <ele>569</ele>
        <time>2019-04-02T11:50:23Z</time>
      </trkpt>
      <trkpt lat="44.34787" lon="5.93614">
        <ele>569</ele>
        <time>2019-04-02T11:50:24Z</time>
      </trkpt>
      <trkpt lat="44.34782" lon="5.93609">
        <ele>569</ele>
        <time>2019-04-02T11:50:25Z</time>
      </trkpt>
      <trkpt lat="44.34777" lon="5.93604">
        <ele>569</ele>
        <time>2019-04-02T11:50:26Z</time>
      </trkpt>
      <trkpt lat="44.34773" lon="5.93599">
        <ele>569</ele>
        <time>2019-04-02T11:50:27Z</time>
      </trkpt>
      <trkpt lat="44.34768" lon="5.93594">
        <ele>569</ele>
        <time>2019-04-02T11:50:28Z</time>
      </trkpt>
      <trkpt lat="44.34763" lon="5.93588">
        <ele>569</ele>
        <time>2019-04-02T11:50:29Z</time>
      </trkpt>
      <trkpt lat="44.34758" lon="5.93582">
        <ele>569</ele>
        <time>2019-04-02T11:50:30Z</time>
      </trkpt>
      <trkpt lat="44.34753" lon="5.93577">
        <ele>569</ele>
        <time>2019-04-02T11:50:31Z</time>
      </trkpt>
      <trkpt lat="44.34747" lon="5.93571">
        <ele>569</ele>
        <time>2019-04-02T11:50:32Z</time>
      </trkpt>
      <trkpt lat="44.34742" lon="5.93566">
        <ele>569</ele>
        <time>2019-04-02T11:50:33Z</time>
      </trkpt>
      <trkpt lat="44.34737" lon="5.9356">
        <ele>569</ele>
        <time>2019-04-02T11:50:34Z</time>
      </trkpt>
      <trkpt lat="44.34733" lon="5.93555">
        <ele>569</ele>
        <time>2019-04-02T11:50:35Z</time>
      </trkpt>
      <trkpt lat="44.34728" lon="5.93549">
        <ele>569</ele>
        <time>2019-04-02T11:50:36Z</time>
      </trkpt>
      <trkpt lat="44.34723" lon="5.93544">
        <ele>569</ele>
        <time>2019-04-02T11:50:37Z</time>
      </trkpt>
      <trkpt lat="44.34718" lon="5.93539">
        <ele>569</ele>
        <time>2019-04-02T11:50:38Z</time>
      </trkpt>
      <trkpt lat="44.34713" lon="5.93533">
        <ele>569</ele>
        <time>2019-04-02T11:50:39Z</time>
      </trkpt>
      <trkpt lat="44.34708" lon="5.93528">
        <ele>569</ele>
        <time>2019-04-02T11:50:40Z</time>
      </trkpt>
      <trkpt lat="44.34703" lon="5.93522">
        <ele>569</ele>
        <time>2019-04-02T11:50:41Z</time>
      </trkpt>
      <trkpt lat="44.34698" lon="5.93516">
        <ele>569</ele>
        <time>2019-04-02T11:50:42Z</time>
      </trkpt>
      <trkpt lat="44.34693" lon="5.93511">
        <ele>569</ele>
        <time>2019-04-02T11:50:43Z</time>
      </trkpt>
      <trkpt lat="44.34688" lon="5.93505">
        <ele>569</ele>
        <time>2019-04-02T11:50:44Z</time>
      </trkpt>
      <trkpt lat="44.34683" lon="5.935">
        <ele>569</ele>
        <time>2019-04-02T11:50:45Z</time>
      </trkpt>
      <trkpt lat="44.34678" lon="5.93494">
        <ele>569</ele>
        <time>2019-04-02T11:50:46Z</time>
      </trkpt>
      <trkpt lat="44.34673" lon="5.93488">
        <ele>569</ele>
        <time>2019-04-02T11:50:47Z</time>
      </trkpt>
      <trkpt lat="44.34668" lon="5.93482">
        <ele>569</ele>
        <time>2019-04-02T11:50:48Z</time>
      </trkpt>
      <trkpt lat="44.34663" lon="5.93476">
        <ele>569</ele>
        <time>2019-04-02T11:50:49Z</time>
      </trkpt>
      <trkpt lat="44.34658" lon="5.93471">
        <ele>569</ele>
        <time>2019-04-02T11:50:50Z</time>
      </trkpt>
      <trkpt lat="44.34653" lon="5.93465">
        <ele>569</ele>
        <time>2019-04-02T11:50:51Z</time>
      </trkpt>
      <trkpt lat="44.34647" lon="5.9346">
        <ele>569</ele>
        <time>2019-04-02T11:50:52Z</time>
      </trkpt>
      <trkpt lat="44.34642" lon="5.93455">
        <ele>569</ele>
        <time>2019-04-02T11:50:53Z</time>
      </trkpt>
      <trkpt lat="44.34636" lon="5.93451">
        <ele>569</ele>
        <time>2019-04-02T11:50:54Z</time>
      </trkpt>
      <trkpt lat="44.3463" lon="5.93449">
        <ele>569</ele>
        <time>2019-04-02T11:50:55Z</time>
      </trkpt>
      <trkpt lat="44.34623" lon="5.93447">
        <ele>569</ele>
        <time>2019-04-02T11:50:56Z</time>
      </trkpt>
      <trkpt lat="44.34617" lon="5.93447">
        <ele>569</ele>
        <time>2019-04-02T11:50:57Z</time>
      </trkpt>
      <trkpt lat="44.3461" lon="5.93448">
        <ele>569</ele>
        <time>2019-04-02T11:50:58Z</time>
      </trkpt>
      <trkpt lat="44.34603" lon="5.93451">
        <ele>569</ele>
        <time>2019-04-02T11:50:59Z</time>
      </trkpt>
      <trkpt lat="44.34596" lon="5.93454">
        <ele>569</ele>
        <time>2019-04-02T11:51:00Z</time>
      </trkpt>
      <trkpt lat="44.34589" lon="5.93458">
        <ele>568</ele>
        <time>2019-04-02T11:51:01Z</time>
      </trkpt>
      <trkpt lat="44.34583" lon="5.93461">
        <ele>568</ele>
        <time>2019-04-02T11:51:02Z</time>
      </trkpt>
      <trkpt lat="44.34575" lon="5.93465">
        <ele>567</ele>
        <time>2019-04-02T11:51:03Z</time>
      </trkpt>
      <trkpt lat="44.34568" lon="5.93469">
        <ele>567</ele>
        <time>2019-04-02T11:51:04Z</time>
      </trkpt>
      <trkpt lat="44.34561" lon="5.93472">
        <ele>567</ele>
        <time>2019-04-02T11:51:05Z</time>
      </trkpt>
      <trkpt lat="44.34554" lon="5.93476">
        <ele>566</ele>
        <time>2019-04-02T11:51:06Z</time>
      </trkpt>
      <trkpt lat="44.34547" lon="5.93479">
        <ele>566</ele>
        <time>2019-04-02T11:51:07Z</time>
      </trkpt>
      <trkpt lat="44.34541" lon="5.93483">
        <ele>565</ele>
        <time>2019-04-02T11:51:08Z</time>
      </trkpt>
      <trkpt lat="44.34534" lon="5.93488">
        <ele>565</ele>
        <time>2019-04-02T11:51:09Z</time>
      </trkpt>
      <trkpt lat="44.34528" lon="5.93492">
        <ele>564</ele>
        <time>2019-04-02T11:51:10Z</time>
      </trkpt>
      <trkpt lat="44.34522" lon="5.93497">
        <ele>564</ele>
        <time>2019-04-02T11:51:11Z</time>
      </trkpt>
      <trkpt lat="44.34515" lon="5.93503">
        <ele>563</ele>
        <time>2019-04-02T11:51:12Z</time>
      </trkpt>
      <trkpt lat="44.34509" lon="5.93508">
        <ele>563</ele>
        <time>2019-04-02T11:51:13Z</time>
      </trkpt>
      <trkpt lat="44.34503" lon="5.93513">
        <ele>563</ele>
        <time>2019-04-02T11:51:14Z</time>
      </trkpt>
      <trkpt lat="44.34496" lon="5.93519">
        <ele>562</ele>
        <time>2019-04-02T11:51:15Z</time>
      </trkpt>
      <trkpt lat="44.34488" lon="5.93524">
        <ele>562</ele>
        <time>2019-04-02T11:51:16Z</time>
      </trkpt>
      <trkpt lat="44.3448" lon="5.93526">
        <ele>562</ele>
        <time>2019-04-02T11:51:17Z</time>
      </trkpt>
      <trkpt lat="44.34471" lon="5.93527">
        <ele>561</ele>
        <time>2019-04-02T11:51:18Z</time>
      </trkpt>
      <trkpt lat="44.34462" lon="5.93526">
        <ele>561</ele>
        <time>2019-04-02T11:51:19Z</time>
      </trkpt>
      <trkpt lat="44.34454" lon="5.93524">
        <ele>560</ele>
        <time>2019-04-02T11:51:20Z</time>
      </trkpt>
      <trkpt lat="44.34445" lon="5.93521">
        <ele>560</ele>
        <time>2019-04-02T11:51:21Z</time>
      </trkpt>
      <trkpt lat="44.34437" lon="5.93519">
        <ele>560</ele>
        <time>2019-04-02T11:51:22Z</time>
      </trkpt>
      <trkpt lat="44.34429" lon="5.93516">
        <ele>560</ele>
        <time>2019-04-02T11:51:23Z</time>
      </trkpt>
      <trkpt lat="44.34422" lon="5.93514">
        <ele>560</ele>
        <time>2019-04-02T11:51:24Z</time>
      </trkpt>
      <trkpt lat="44.34416" lon="5.93511">
        <ele>560</ele>
        <time>2019-04-02T11:51:25Z</time>
      </trkpt>
      <trkpt lat="44.3441" lon="5.93505">
        <ele>560</ele>
        <time>2019-04-02T11:51:26Z</time>
      </trkpt>
      <trkpt lat="44.34407" lon="5.93498">
        <ele>560</ele>
        <time>2019-04-02T11:51:27Z</time>
      </trkpt>
      <trkpt lat="44.34404" lon="5.9349">
        <ele>560</ele>
        <time>2019-04-02T11:51:28Z</time>
      </trkpt>
      <trkpt lat="44.34403" lon="5.93482">
        <ele>559</ele>
        <time>2019-04-02T11:51:29Z</time>
      </trkpt>
      <trkpt lat="44.34406" lon="5.93474">
        <ele>559</ele>
        <time>2019-04-02T11:51:30Z</time>
      </trkpt>
      <trkpt lat="44.34409" lon="5.93468">
        <ele>559</ele>
        <time>2019-04-02T11:51:31Z</time>
      </trkpt>
      <trkpt lat="44.34413" lon="5.93461">
        <ele>559</ele>
        <time>2019-04-02T11:51:32Z</time>
      </trkpt>
      <trkpt lat="44.34416" lon="5.93455">
        <ele>559</ele>
        <time>2019-04-02T11:51:33Z</time>
      </trkpt>
      <trkpt lat="44.3442" lon="5.93448">
        <ele>559</ele>
        <time>2019-04-02T11:51:34Z</time>
      </trkpt>
      <trkpt lat="44.34423" lon="5.93442">
        <ele>559</ele>
        <time>2019-04-02T11:51:35Z</time>
      </trkpt>
      <trkpt lat="44.34425" lon="5.93436">
        <ele>559</ele>
        <time>2019-04-02T11:51:36Z</time>
      </trkpt>
      <trkpt lat="44.34428" lon="5.9343">
        <ele>559</ele>
        <time>2019-04-02T11:51:37Z</time>
      </trkpt>
      <trkpt lat="44.3443" lon="5.93425">
        <ele>559</ele>
        <time>2019-04-02T11:51:38Z</time>
      </trkpt>
      <trkpt lat="44.34432" lon="5.93419">
        <ele>559</ele>
        <time>2019-04-02T11:51:39Z</time>
      </trkpt>
      <trkpt lat="44.34434" lon="5.93413">
        <ele>559</ele>
        <time>2019-04-02T11:51:40Z</time>
      </trkpt>
      <trkpt lat="44.34436" lon="5.93408">
        <ele>559</ele>
        <time>2019-04-02T11:51:41Z</time>
      </trkpt>
      <trkpt lat="44.34438" lon="5.93402">
        <ele>559</ele>
        <time>2019-04-02T11:51:42Z</time>
      </trkpt>
      <trkpt lat="44.3444" lon="5.93396">
        <ele>559</ele>
        <time>2019-04-02T11:51:43Z</time>
      </trkpt>
      <trkpt lat="44.34442" lon="5.9339">
        <ele>559</ele>
        <time>2019-04-02T11:51:44Z</time>
      </trkpt>
      <trkpt lat="44.34443" lon="5.93385">
        <ele>559</ele>
        <time>2019-04-02T11:51:45Z</time>
      </trkpt>
      <trkpt lat="44.34443" lon="5.93379">
        <ele>559</ele>
        <time>2019-04-02T11:51:46Z</time>
      </trkpt>
      <trkpt lat="44.34444" lon="5.93373">
        <ele>560</ele>
        <time>2019-04-02T11:51:47Z</time>
      </trkpt>
      <trkpt lat="44.34445" lon="5.93367">
        <ele>560</ele>
        <time>2019-04-02T11:51:48Z</time>
      </trkpt>
      <trkpt lat="44.34445" lon="5.93361">
        <ele>560</ele>
        <time>2019-04-02T11:51:49Z</time>
      </trkpt>
      <trkpt lat="44.34445" lon="5.93355">
        <ele>560</ele>
        <time>2019-04-02T11:51:50Z</time>
      </trkpt>
      <trkpt lat="44.34444" lon="5.93349">
        <ele>560</ele>
        <time>2019-04-02T11:51:51Z</time>
      </trkpt>
      <trkpt lat="44.34443" lon="5.93343">
        <ele>560</ele>
        <time>2019-04-02T11:51:52Z</time>
      </trkpt>
      <trkpt lat="44.34442" lon="5.93337">
        <ele>561</ele>
        <time>2019-04-02T11:51:53Z</time>
      </trkpt>
      <trkpt lat="44.34441" lon="5.93331">
        <ele>561</ele>
        <time>2019-04-02T11:51:54Z</time>
      </trkpt>
      <trkpt lat="44.3444" lon="5.93325">
        <ele>561</ele>
        <time>2019-04-02T11:51:55Z</time>
      </trkpt>
      <trkpt lat="44.34439" lon="5.93319">
        <ele>562</ele>
        <time>2019-04-02T11:51:56Z</time>
      </trkpt>
      <trkpt lat="44.34438" lon="5.93314">
        <ele>562</ele>
        <time>2019-04-02T11:51:57Z</time>
      </trkpt>
      <trkpt lat="44.34437" lon="5.93309">
        <ele>562</ele>
        <time>2019-04-02T11:51:58Z</time>
      </trkpt>
      <trkpt lat="44.34436" lon="5.93303">
        <ele>562</ele>
        <time>2019-04-02T11:51:59Z</time>
      </trkpt>
      <trkpt lat="44.34435" lon="5.93298">
        <ele>563</ele>
        <time>2019-04-02T11:52:00Z</time>
      </trkpt>
      <trkpt lat="44.34433" lon="5.93293">
        <ele>563</ele>
        <time>2019-04-02T11:52:01Z</time>
      </trkpt>
      <trkpt lat="44.34432" lon="5.93288">
        <ele>563</ele>
        <time>2019-04-02T11:52:02Z</time>
      </trkpt>
      <trkpt lat="44.34431" lon="5.93283">
        <ele>563</ele>
        <time>2019-04-02T11:52:03Z</time>
      </trkpt>
      <trkpt lat="44.34429" lon="5.93279">
        <ele>563</ele>
        <time>2019-04-02T11:52:04Z</time>
      </trkpt>
      <trkpt lat="44.34427" lon="5.93273">
        <ele>563</ele>
        <time>2019-04-02T11:52:05Z</time>
      </trkpt>
      <trkpt lat="44.34425" lon="5.93268">
        <ele>563</ele>
        <time>2019-04-02T11:52:06Z</time>
      </trkpt>
      <trkpt lat="44.34422" lon="5.93263">
        <ele>564</ele>
        <time>2019-04-02T11:52:07Z</time>
      </trkpt>
      <trkpt lat="44.3442" lon="5.93258">
        <ele>564</ele>
        <time>2019-04-02T11:52:08Z</time>
      </trkpt>
      <trkpt lat="44.34417" lon="5.93254">
        <ele>565</ele>
        <time>2019-04-02T11:52:09Z</time>
      </trkpt>
      <trkpt lat="44.34413" lon="5.9325">
        <ele>565</ele>
        <time>2019-04-02T11:52:10Z</time>
      </trkpt>
      <trkpt lat="44.34409" lon="5.93247">
        <ele>565</ele>
        <time>2019-04-02T11:52:11Z</time>
      </trkpt>
      <trkpt lat="44.34405" lon="5.93244">
        <ele>566</ele>
        <time>2019-04-02T11:52:12Z</time>
      </trkpt>
      <trkpt lat="44.34401" lon="5.93242">
        <ele>566</ele>
        <time>2019-04-02T11:52:13Z</time>
      </trkpt>
      <trkpt lat="44.34397" lon="5.9324">
        <ele>566</ele>
        <time>2019-04-02T11:52:14Z</time>
      </trkpt>
      <trkpt lat="44.34393" lon="5.93239">
        <ele>566</ele>
        <time>2019-04-02T11:52:15Z</time>
      </trkpt>
      <trkpt lat="44.34389" lon="5.93237">
        <ele>567</ele>
        <time>2019-04-02T11:52:16Z</time>
      </trkpt>
      <trkpt lat="44.34386" lon="5.93235">
        <ele>567</ele>
        <time>2019-04-02T11:52:17Z</time>
      </trkpt>
      <trkpt lat="44.34381" lon="5.93234">
        <ele>567</ele>
        <time>2019-04-02T11:52:18Z</time>
      </trkpt>
      <trkpt lat="44.34377" lon="5.93232">
        <ele>567</ele>
        <time>2019-04-02T11:52:19Z</time>
      </trkpt>
      <trkpt lat="44.34373" lon="5.9323">
        <ele>567</ele>
        <time>2019-04-02T11:52:20Z</time>
      </trkpt>
      <trkpt lat="44.34368" lon="5.93229">
        <ele>567</ele>
        <time>2019-04-02T11:52:21Z</time>
      </trkpt>
      <trkpt lat="44.34364" lon="5.93226">
        <ele>567</ele>
        <time>2019-04-02T11:52:22Z</time>
      </trkpt>
      <trkpt lat="44.34359" lon="5.93224">
        <ele>567</ele>
        <time>2019-04-02T11:52:23Z</time>
      </trkpt>
      <trkpt lat="44.34354" lon="5.93223">
        <ele>567</ele>
        <time>2019-04-02T11:52:24Z</time>
      </trkpt>
      <trkpt lat="44.34349" lon="5.93221">
        <ele>567</ele>
        <time>2019-04-02T11:52:25Z</time>
      </trkpt>
      <trkpt lat="44.34345" lon="5.9322">
        <ele>567</ele>
        <time>2019-04-02T11:52:26Z</time>
      </trkpt>
      <trkpt lat="44.3434" lon="5.93218">
        <ele>568</ele>
        <time>2019-04-02T11:52:27Z</time>
      </trkpt>
      <trkpt lat="44.34336" lon="5.93217">
        <ele>568</ele>
        <time>2019-04-02T11:52:28Z</time>
      </trkpt>
      <trkpt lat="44.34332" lon="5.93215">
        <ele>568</ele>
        <time>2019-04-02T11:52:29Z</time>
      </trkpt>
      <trkpt lat="44.34327" lon="5.93214">
        <ele>568</ele>
        <time>2019-04-02T11:52:30Z</time>
      </trkpt>
      <trkpt lat="44.34323" lon="5.93212">
        <ele>568</ele>
        <time>2019-04-02T11:52:31Z</time>
      </trkpt>
      <trkpt lat="44.34319" lon="5.93211">
        <ele>568</ele>
        <time>2019-04-02T11:52:32Z</time>
      </trkpt>
      <trkpt lat="44.34315" lon="5.93209">
        <ele>568</ele>
        <time>2019-04-02T11:52:33Z</time>
      </trkpt>
      <trkpt lat="44.34311" lon="5.93208">
        <ele>568</ele>
        <time>2019-04-02T11:52:34Z</time>
      </trkpt>
      <trkpt lat="44.34306" lon="5.93206">
        <ele>568</ele>
        <time>2019-04-02T11:52:35Z</time>
      </trkpt>
      <trkpt lat="44.34302" lon="5.93204">
        <ele>568</ele>
        <time>2019-04-02T11:52:36Z</time>
      </trkpt>
      <trkpt lat="44.34298" lon="5.93202">
        <ele>568</ele>
        <time>2019-04-02T11:52:37Z</time>
      </trkpt>
      <trkpt lat="44.34293" lon="5.93201">
        <ele>568</ele>
        <time>2019-04-02T11:52:38Z</time>
      </trkpt>
      <trkpt lat="44.34288" lon="5.93199">
        <ele>568</ele>
        <time>2019-04-02T11:52:39Z</time>
      </trkpt>
      <trkpt lat="44.34283" lon="5.93197">
        <ele>568</ele>
        <time>2019-04-02T11:52:40Z</time>
      </trkpt>
      <trkpt lat="44.34279" lon="5.93195">
        <ele>568</ele>
        <time>2019-04-02T11:52:41Z</time>
      </trkpt>
      <trkpt lat="44.34274" lon="5.93193">
        <ele>568</ele>
        <time>2019-04-02T11:52:42Z</time>
      </trkpt>
      <trkpt lat="44.34268" lon="5.93191">
        <ele>568</ele>
        <time>2019-04-02T11:52:43Z</time>
      </trkpt>
      <trkpt lat="44.34263" lon="5.9319">
        <ele>568</ele>
        <time>2019-04-02T11:52:44Z</time>
      </trkpt>
      <trkpt lat="44.34258" lon="5.93188">
        <ele>568</ele>
        <time>2019-04-02T11:52:45Z</time>
      </trkpt>
      <trkpt lat="44.34253" lon="5.93186">
        <ele>568</ele>
        <time>2019-04-02T11:52:46Z</time>
      </trkpt>
      <trkpt lat="44.34247" lon="5.93184">
        <ele>568</ele>
        <time>2019-04-02T11:52:47Z</time>
      </trkpt>
      <trkpt lat="44.34242" lon="5.93182">
        <ele>568</ele>
        <time>2019-04-02T11:52:48Z</time>
      </trkpt>
      <trkpt lat="44.34237" lon="5.9318">
        <ele>568</ele>
        <time>2019-04-02T11:52:49Z</time>
      </trkpt>
      <trkpt lat="44.34232" lon="5.93178">
        <ele>568</ele>
        <time>2019-04-02T11:52:50Z</time>
      </trkpt>
      <trkpt lat="44.34226" lon="5.93176">
        <ele>568</ele>
        <time>2019-04-02T11:52:51Z</time>
      </trkpt>
      <trkpt lat="44.34221" lon="5.93174">
        <ele>568</ele>
        <time>2019-04-02T11:52:52Z</time>
      </trkpt>
      <trkpt lat="44.34216" lon="5.93172">
        <ele>568</ele>
        <time>2019-04-02T11:52:53Z</time>
      </trkpt>
      <trkpt lat="44.3421" lon="5.9317">
        <ele>568</ele>
        <time>2019-04-02T11:52:54Z</time>
      </trkpt>
      <trkpt lat="44.34205" lon="5.93168">
        <ele>568</ele>
        <time>2019-04-02T11:52:55Z</time>
      </trkpt>
      <trkpt lat="44.342" lon="5.93166">
        <ele>568</ele>
        <time>2019-04-02T11:52:56Z</time>
      </trkpt>
      <trkpt lat="44.34194" lon="5.93164">
        <ele>568</ele>
        <time>2019-04-02T11:52:57Z</time>
      </trkpt>
      <trkpt lat="44.34189" lon="5.93162">
        <ele>568</ele>
        <time>2019-04-02T11:52:58Z</time>
      </trkpt>
      <trkpt lat="44.34184" lon="5.9316">
        <ele>568</ele>
        <time>2019-04-02T11:52:59Z</time>
      </trkpt>
      <trkpt lat="44.34178" lon="5.93158">
        <ele>568</ele>
        <time>2019-04-02T11:53:00Z</time>
      </trkpt>
      <trkpt lat="44.34173" lon="5.93156">
        <ele>568</ele>
        <time>2019-04-02T11:53:01Z</time>
      </trkpt>
      <trkpt lat="44.34168" lon="5.93154">
        <ele>568</ele>
        <time>2019-04-02T11:53:02Z</time>
      </trkpt>
      <trkpt lat="44.34162" lon="5.93152">
        <ele>568</ele>
        <time>2019-04-02T11:53:03Z</time>
      </trkpt>
      <trkpt lat="44.34157" lon="5.9315">
        <ele>568</ele>
        <time>2019-04-02T11:53:04Z</time>
      </trkpt>
      <trkpt lat="44.34152" lon="5.93148">
        <ele>568</ele>
        <time>2019-04-02T11:53:05Z</time>
      </trkpt>
      <trkpt lat="44.34147" lon="5.93146">
        <ele>568</ele>
        <time>2019-04-02T11:53:06Z</time>
      </trkpt>
      <trkpt lat="44.34142" lon="5.93144">
        <ele>568</ele>
        <time>2019-04-02T11:53:07Z</time>
      </trkpt>
      <trkpt lat="44.34137" lon="5.93142">
        <ele>568</ele>
        <time>2019-04-02T11:53:08Z</time>
      </trkpt>
      <trkpt lat="44.34132" lon="5.9314">
        <ele>568</ele>
        <time>2019-04-02T11:53:09Z</time>
      </trkpt>
      <trkpt lat="44.34127" lon="5.93138">
        <ele>568</ele>
        <time>2019-04-02T11:53:10Z</time>
      </trkpt>
      <trkpt lat="44.34122" lon="5.93137">
        <ele>568</ele>
        <time>2019-04-02T11:53:11Z</time>
      </trkpt>
      <trkpt lat="44.34117" lon="5.93135">
        <ele>568</ele>
        <time>2019-04-02T11:53:12Z</time>
      </trkpt>
      <trkpt lat="44.34112" lon="5.93133">
        <ele>568</ele>
        <time>2019-04-02T11:53:13Z</time>
      </trkpt>
      <trkpt lat="44.34108" lon="5.93131">
        <ele>568</ele>
        <time>2019-04-02T11:53:14Z</time>
      </trkpt>
      <trkpt lat="44.34103" lon="5.93129">
        <ele>568</ele>
        <time>2019-04-02T11:53:15Z</time>
      </trkpt>
      <trkpt lat="44.34098" lon="5.93127">
        <ele>568</ele>
        <time>2019-04-02T11:53:16Z</time>
      </trkpt>
      <trkpt lat="44.34092" lon="5.93125">
        <ele>568</ele>
        <time>2019-04-02T11:53:17Z</time>
      </trkpt>
      <trkpt lat="44.34087" lon="5.93123">
        <ele>568</ele>
        <time>2019-04-02T11:53:18Z</time>
      </trkpt>
      <trkpt lat="44.34082" lon="5.93121">
        <ele>568</ele>
        <time>2019-04-02T11:53:19Z</time>
      </trkpt>
      <trkpt lat="44.34077" lon="5.93119">
        <ele>568</ele>
        <time>2019-04-02T11:53:20Z</time>
      </trkpt>
      <trkpt lat="44.34072" lon="5.93117">
        <ele>568</ele>
        <time>2019-04-02T11:53:21Z</time>
      </trkpt>
      <trkpt lat="44.34067" lon="5.93116">
        <ele>568</ele>
        <time>2019-04-02T11:53:22Z</time>
      </trkpt>
      <trkpt lat="44.34062" lon="5.93114">
        <ele>568</ele>
        <time>2019-04-02T11:53:23Z</time>
      </trkpt>
      <trkpt lat="44.34057" lon="5.93112">
        <ele>568</ele>
        <time>2019-04-02T11:53:24Z</time>
      </trkpt>
      <trkpt lat="44.34052" lon="5.9311">
        <ele>568</ele>
        <time>2019-04-02T11:53:25Z</time>
      </trkpt>
      <trkpt lat="44.34047" lon="5.93108">
        <ele>568</ele>
        <time>2019-04-02T11:53:26Z</time>
      </trkpt>
      <trkpt lat="44.34042" lon="5.93106">
        <ele>568</ele>
        <time>2019-04-02T11:53:27Z</time>
      </trkpt>
      <trkpt lat="44.34037" lon="5.93104">
        <ele>568</ele>
        <time>2019-04-02T11:53:28Z</time>
      </trkpt>
      <trkpt lat="44.34031" lon="5.93102">
        <ele>568</ele>
        <time>2019-04-02T11:53:29Z</time>
      </trkpt>
      <trkpt lat="44.34026" lon="5.931">
        <ele>568</ele>
        <time>2019-04-02T11:53:30Z</time>
      </trkpt>
      <trkpt lat="44.34021" lon="5.93098">
        <ele>568</ele>
        <time>2019-04-02T11:53:31Z</time>
      </trkpt>
      <trkpt lat="44.34016" lon="5.93096">
        <ele>568</ele>
        <time>2019-04-02T11:53:32Z</time>
      </trkpt>
      <trkpt lat="44.34011" lon="5.93094">
        <ele>568</ele>
        <time>2019-04-02T11:53:33Z</time>
      </trkpt>
      <trkpt lat="44.34006" lon="5.93093">
        <ele>568</ele>
        <time>2019-04-02T11:53:34Z</time>
      </trkpt>
      <trkpt lat="44.34001" lon="5.93091">
        <ele>568</ele>
        <time>2019-04-02T11:53:35Z</time>
      </trkpt>
      <trkpt lat="44.33996" lon="5.93089">
        <ele>568</ele>
        <time>2019-04-02T11:53:36Z</time>
      </trkpt>
      <trkpt lat="44.33991" lon="5.93087">
        <ele>568</ele>
        <time>2019-04-02T11:53:37Z</time>
      </trkpt>
      <trkpt lat="44.33986" lon="5.93085">
        <ele>568</ele>
        <time>2019-04-02T11:53:38Z</time>
      </trkpt>
      <trkpt lat="44.33981" lon="5.93083">
        <ele>568</ele>
        <time>2019-04-02T11:53:39Z</time>
      </trkpt>
      <trkpt lat="44.33975" lon="5.93081">
        <ele>568</ele>
        <time>2019-04-02T11:53:40Z</time>
      </trkpt>
      <trkpt lat="44.3397" lon="5.93079">
        <ele>568</ele>
        <time>2019-04-02T11:53:41Z</time>
      </trkpt>
      <trkpt lat="44.33965" lon="5.93077">
        <ele>568</ele>
        <time>2019-04-02T11:53:42Z</time>
      </trkpt>
      <trkpt lat="44.3396" lon="5.93075">
        <ele>568</ele>
        <time>2019-04-02T11:53:43Z</time>
      </trkpt>
      <trkpt lat="44.33955" lon="5.93073">
        <ele>568</ele>
        <time>2019-04-02T11:53:44Z</time>
      </trkpt>
      <trkpt lat="44.3395" lon="5.93071">
        <ele>568</ele>
        <time>2019-04-02T11:53:45Z</time>
      </trkpt>
      <trkpt lat="44.33946" lon="5.93069">
        <ele>568</ele>
        <time>2019-04-02T11:53:46Z</time>
      </trkpt>
      <trkpt lat="44.33942" lon="5.93068">
        <ele>568</ele>
        <time>2019-04-02T11:53:47Z</time>
      </trkpt>
      <trkpt lat="44.33937" lon="5.93066">
        <ele>568</ele>
        <time>2019-04-02T11:53:48Z</time>
      </trkpt>
      <trkpt lat="44.33932" lon="5.93064">
        <ele>568</ele>
        <time>2019-04-02T11:53:49Z</time>
      </trkpt>
      <trkpt lat="44.33928" lon="5.93063">
        <ele>569</ele>
        <time>2019-04-02T11:53:50Z</time>
      </trkpt>
      <trkpt lat="44.33924" lon="5.93062">
        <ele>569</ele>
        <time>2019-04-02T11:53:51Z</time>
      </trkpt>
      <trkpt lat="44.3392" lon="5.9306">
        <ele>569</ele>
        <time>2019-04-02T11:53:52Z</time>
      </trkpt>
      <trkpt lat="44.33915" lon="5.93058">
        <ele>569</ele>
        <time>2019-04-02T11:53:53Z</time>
      </trkpt>
      <trkpt lat="44.3391" lon="5.93057">
        <ele>570</ele>
        <time>2019-04-02T11:53:54Z</time>
      </trkpt>
      <trkpt lat="44.33906" lon="5.93055">
        <ele>570</ele>
        <time>2019-04-02T11:53:55Z</time>
      </trkpt>
      <trkpt lat="44.33901" lon="5.93053">
        <ele>570</ele>
        <time>2019-04-02T11:53:56Z</time>
      </trkpt>
      <trkpt lat="44.33895" lon="5.93051">
        <ele>570</ele>
        <time>2019-04-02T11:53:57Z</time>
      </trkpt>
      <trkpt lat="44.3389" lon="5.93048">
        <ele>570</ele>
        <time>2019-04-02T11:53:58Z</time>
      </trkpt>
      <trkpt lat="44.33885" lon="5.93045">
        <ele>570</ele>
        <time>2019-04-02T11:53:59Z</time>
      </trkpt>
      <trkpt lat="44.3388" lon="5.93042">
        <ele>570</ele>
        <time>2019-04-02T11:54:00Z</time>
      </trkpt>
      <trkpt lat="44.33875" lon="5.93037">
        <ele>570</ele>
        <time>2019-04-02T11:54:01Z</time>
      </trkpt>
      <trkpt lat="44.3387" lon="5.93033">
        <ele>570</ele>
        <time>2019-04-02T11:54:02Z</time>
      </trkpt>
      <trkpt lat="44.33865" lon="5.93028">
        <ele>570</ele>
        <time>2019-04-02T11:54:03Z</time>
      </trkpt>
      <trkpt lat="44.33861" lon="5.93023">
        <ele>570</ele>
        <time>2019-04-02T11:54:04Z</time>
      </trkpt>
      <trkpt lat="44.33856" lon="5.93018">
        <ele>570</ele>
        <time>2019-04-02T11:54:05Z</time>
      </trkpt>
      <trkpt lat="44.33851" lon="5.93013">
        <ele>570</ele>
        <time>2019-04-02T11:54:06Z</time>
      </trkpt>
      <trkpt lat="44.33846" lon="5.93008">
        <ele>570</ele>
        <time>2019-04-02T11:54:07Z</time>
      </trkpt>
      <trkpt lat="44.33841" lon="5.93003">
        <ele>570</ele>
        <time>2019-04-02T11:54:08Z</time>
      </trkpt>
      <trkpt lat="44.33837" lon="5.92997">
        <ele>570</ele>
        <time>2019-04-02T11:54:09Z</time>
      </trkpt>
      <trkpt lat="44.33832" lon="5.92992">
        <ele>570</ele>
        <time>2019-04-02T11:54:10Z</time>
      </trkpt>
      <trkpt lat="44.33827" lon="5.92987">
        <ele>570</ele>
        <time>2019-04-02T11:54:11Z</time>
      </trkpt>
      <trkpt lat="44.33822" lon="5.92982">
        <ele>570</ele>
        <time>2019-04-02T11:54:12Z</time>
      </trkpt>
      <trkpt lat="44.33817" lon="5.92977">
        <ele>570</ele>
        <time>2019-04-02T11:54:13Z</time>
      </trkpt>
      <trkpt lat="44.33812" lon="5.92972">
        <ele>570</ele>
        <time>2019-04-02T11:54:14Z</time>
      </trkpt>
      <trkpt lat="44.33808" lon="5.92967">
        <ele>570</ele>
        <time>2019-04-02T11:54:15Z</time>
      </trkpt>
      <trkpt lat="44.33803" lon="5.92962">
        <ele>570</ele>
        <time>2019-04-02T11:54:16Z</time>
      </trkpt>
      <trkpt lat="44.33799" lon="5.92957">
        <ele>570</ele>
        <time>2019-04-02T11:54:17Z</time>
      </trkpt>
      <trkpt lat="44.33794" lon="5.92953">
        <ele>570</ele>
        <time>2019-04-02T11:54:18Z</time>
      </trkpt>
      <trkpt lat="44.33789" lon="5.92948">
        <ele>570</ele>
        <time>2019-04-02T11:54:19Z</time>
      </trkpt>
      <trkpt lat="44.33785" lon="5.92943">
        <ele>570</ele>
        <time>2019-04-02T11:54:20Z</time>
      </trkpt>
      <trkpt lat="44.3378" lon="5.92939">
        <ele>570</ele>
        <time>2019-04-02T11:54:21Z</time>
      </trkpt>
      <trkpt lat="44.33776" lon="5.92935">
        <ele>570</ele>
        <time>2019-04-02T11:54:22Z</time>
      </trkpt>
      <trkpt lat="44.33771" lon="5.9293">
        <ele>570</ele>
        <time>2019-04-02T11:54:23Z</time>
      </trkpt>
      <trkpt lat="44.33767" lon="5.92925">
        <ele>570</ele>
        <time>2019-04-02T11:54:24Z</time>
      </trkpt>
      <trkpt lat="44.33762" lon="5.9292">
        <ele>570</ele>
        <time>2019-04-02T11:54:25Z</time>
      </trkpt>
      <trkpt lat="44.33757" lon="5.92915">
        <ele>570</ele>
        <time>2019-04-02T11:54:26Z</time>
      </trkpt>
      <trkpt lat="44.33752" lon="5.92911">
        <ele>570</ele>
        <time>2019-04-02T11:54:27Z</time>
      </trkpt>
      <trkpt lat="44.33747" lon="5.92906">
        <ele>570</ele>
        <time>2019-04-02T11:54:28Z</time>
      </trkpt>
      <trkpt lat="44.33742" lon="5.92901">
        <ele>570</ele>
        <time>2019-04-02T11:54:29Z</time>
      </trkpt>
      <trkpt lat="44.33737" lon="5.92895">
        <ele>570</ele>
        <time>2019-04-02T11:54:30Z</time>
      </trkpt>
      <trkpt lat="44.33733" lon="5.9289">
        <ele>570</ele>
        <time>2019-04-02T11:54:31Z</time>
      </trkpt>
      <trkpt lat="44.33728" lon="5.92885">
        <ele>570</ele>
        <time>2019-04-02T11:54:32Z</time>
      </trkpt>
      <trkpt lat="44.33723" lon="5.9288">
        <ele>570</ele>
        <time>2019-04-02T11:54:33Z</time>
      </trkpt>
      <trkpt lat="44.33718" lon="5.92874">
        <ele>570</ele>
        <time>2019-04-02T11:54:34Z</time>
      </trkpt>
      <trkpt lat="44.33714" lon="5.92868">
        <ele>570</ele>
        <time>2019-04-02T11:54:35Z</time>
      </trkpt>
      <trkpt lat="44.3371" lon="5.92862">
        <ele>570</ele>
        <time>2019-04-02T11:54:36Z</time>
      </trkpt>
      <trkpt lat="44.33705" lon="5.92856">
        <ele>570</ele>
        <time>2019-04-02T11:54:37Z</time>
      </trkpt>
      <trkpt lat="44.33701" lon="5.9285">
        <ele>570</ele>
        <time>2019-04-02T11:54:38Z</time>
      </trkpt>
      <trkpt lat="44.33697" lon="5.92843">
        <ele>570</ele>
        <time>2019-04-02T11:54:39Z</time>
      </trkpt>
      <trkpt lat="44.33693" lon="5.92837">
        <ele>570</ele>
        <time>2019-04-02T11:54:40Z</time>
      </trkpt>
      <trkpt lat="44.33689" lon="5.92831">
        <ele>570</ele>
        <time>2019-04-02T11:54:41Z</time>
      </trkpt>
      <trkpt lat="44.33686" lon="5.92824">
        <ele>570</ele>
        <time>2019-04-02T11:54:42Z</time>
      </trkpt>
      <trkpt lat="44.33682" lon="5.92817">
        <ele>570</ele>
        <time>2019-04-02T11:54:43Z</time>
      </trkpt>
      <trkpt lat="44.33678" lon="5.92811">
        <ele>570</ele>
        <time>2019-04-02T11:54:44Z</time>
      </trkpt>
      <trkpt lat="44.33675" lon="5.92804">
        <ele>570</ele>
        <time>2019-04-02T11:54:45Z</time>
      </trkpt>
      <trkpt lat="44.33671" lon="5.92798">
        <ele>570</ele>
        <time>2019-04-02T11:54:46Z</time>
      </trkpt>
      <trkpt lat="44.33667" lon="5.92792">
        <ele>570</ele>
        <time>2019-04-02T11:54:47Z</time>
      </trkpt>
      <trkpt lat="44.33664" lon="5.92785">
        <ele>570</ele>
        <time>2019-04-02T11:54:48Z</time>
      </trkpt>
      <trkpt lat="44.3366" lon="5.92779">
        <ele>570</ele>
        <time>2019-04-02T11:54:49Z</time>
      </trkpt>
      <trkpt lat="44.33656" lon="5.92772">
        <ele>570</ele>
        <time>2019-04-02T11:54:50Z</time>
      </trkpt>
      <trkpt lat="44.33653" lon="5.92766">
        <ele>570</ele>
        <time>2019-04-02T11:54:51Z</time>
      </trkpt>
      <trkpt lat="44.33649" lon="5.9276">
        <ele>570</ele>
        <time>2019-04-02T11:54:52Z</time>
      </trkpt>
      <trkpt lat="44.33646" lon="5.92754">
        <ele>570</ele>
        <time>2019-04-02T11:54:53Z</time>
      </trkpt>
      <trkpt lat="44.33642" lon="5.92748">
        <ele>570</ele>
        <time>2019-04-02T11:54:54Z</time>
      </trkpt>
      <trkpt lat="44.33638" lon="5.92741">
        <ele>570</ele>
        <time>2019-04-02T11:54:55Z</time>
      </trkpt>
      <trkpt lat="44.33635" lon="5.92735">
        <ele>570</ele>
        <time>2019-04-02T11:54:56Z</time>
      </trkpt>
      <trkpt lat="44.33632" lon="5.92729">
        <ele>570</ele>
        <time>2019-04-02T11:54:57Z</time>
      </trkpt>
      <trkpt lat="44.33628" lon="5.92722">
        <ele>570</ele>
        <time>2019-04-02T11:54:58Z</time>
      </trkpt>
      <trkpt lat="44.33624" lon="5.92716">
        <ele>570</ele>
        <time>2019-04-02T11:54:59Z</time>
      </trkpt>
      <trkpt lat="44.33621" lon="5.9271">
        <ele>570</ele>
        <time>2019-04-02T11:55:00Z</time>
      </trkpt>
      <trkpt lat="44.33617" lon="5.92704">
        <ele>570</ele>
        <time>2019-04-02T11:55:01Z</time>
      </trkpt>
      <trkpt lat="44.33614" lon="5.92698">
        <ele>570</ele>
        <time>2019-04-02T11:55:02Z</time>
      </trkpt>
      <trkpt lat="44.3361" lon="5.92692">
        <ele>570</ele>
        <time>2019-04-02T11:55:03Z</time>
      </trkpt>
      <trkpt lat="44.33606" lon="5.92686">
        <ele>570</ele>
        <time>2019-04-02T11:55:04Z</time>
      </trkpt>
      <trkpt lat="44.33602" lon="5.9268">
        <ele>570</ele>
        <time>2019-04-02T11:55:05Z</time>
      </trkpt>
      <trkpt lat="44.33598" lon="5.92674">
        <ele>570</ele>
        <time>2019-04-02T11:55:06Z</time>
      </trkpt>
      <trkpt lat="44.33594" lon="5.92668">
        <ele>570</ele>
        <time>2019-04-02T11:55:07Z</time>
      </trkpt>
      <trkpt lat="44.3359" lon="5.92662">
        <ele>570</ele>
        <time>2019-04-02T11:55:08Z</time>
      </trkpt>
      <trkpt lat="44.33586" lon="5.92655">
        <ele>570</ele>
        <time>2019-04-02T11:55:09Z</time>
      </trkpt>
      <trkpt lat="44.33581" lon="5.92649">
        <ele>570</ele>
        <time>2019-04-02T11:55:10Z</time>
      </trkpt>
      <trkpt lat="44.33577" lon="5.92642">
        <ele>570</ele>
        <time>2019-04-02T11:55:11Z</time>
      </trkpt>
      <trkpt lat="44.33572" lon="5.92636">
        <ele>570</ele>
        <time>2019-04-02T11:55:12Z</time>
      </trkpt>
      <trkpt lat="44.33567" lon="5.92629">
        <ele>570</ele>
        <time>2019-04-02T11:55:13Z</time>
      </trkpt>
      <trkpt lat="44.33563" lon="5.92623">
        <ele>570</ele>
        <time>2019-04-02T11:55:14Z</time>
      </trkpt>
      <trkpt lat="44.33558" lon="5.92616">
        <ele>570</ele>
        <time>2019-04-02T11:55:15Z</time>
      </trkpt>
      <trkpt lat="44.33553" lon="5.9261">
        <ele>570</ele>
        <time>2019-04-02T11:55:16Z</time>
      </trkpt>
      <trkpt lat="44.33549" lon="5.92603">
        <ele>570</ele>
        <time>2019-04-02T11:55:17Z</time>
      </trkpt>
      <trkpt lat="44.33545" lon="5.92597">
        <ele>570</ele>
        <time>2019-04-02T11:55:18Z</time>
      </trkpt>
      <trkpt lat="44.3354" lon="5.9259">
        <ele>570</ele>
        <time>2019-04-02T11:55:19Z</time>
      </trkpt>
      <trkpt lat="44.33535" lon="5.92584">
        <ele>570</ele>
        <time>2019-04-02T11:55:20Z</time>
      </trkpt>
      <trkpt lat="44.33531" lon="5.92578">
        <ele>570</ele>
        <time>2019-04-02T11:55:21Z</time>
      </trkpt>
      <trkpt lat="44.33527" lon="5.92572">
        <ele>570</ele>
        <time>2019-04-02T11:55:22Z</time>
      </trkpt>
      <trkpt lat="44.33523" lon="5.92566">
        <ele>570</ele>
        <time>2019-04-02T11:55:23Z</time>
      </trkpt>
      <trkpt lat="44.33519" lon="5.9256">
        <ele>570</ele>
        <time>2019-04-02T11:55:24Z</time>
      </trkpt>
      <trkpt lat="44.33515" lon="5.92554">
        <ele>570</ele>
        <time>2019-04-02T11:55:25Z</time>
      </trkpt>
      <trkpt lat="44.33511" lon="5.92549">
        <ele>570</ele>
        <time>2019-04-02T11:55:26Z</time>
      </trkpt>
      <trkpt lat="44.33507" lon="5.92543">
        <ele>570</ele>
        <time>2019-04-02T11:55:27Z</time>
      </trkpt>
      <trkpt lat="44.33503" lon="5.92538">
        <ele>570</ele>
        <time>2019-04-02T11:55:28Z</time>
      </trkpt>
      <trkpt lat="44.33498" lon="5.92532">
        <ele>570</ele>
        <time>2019-04-02T11:55:29Z</time>
      </trkpt>
      <trkpt lat="44.33494" lon="5.92527">
        <ele>570</ele>
        <time>2019-04-02T11:55:30Z</time>
      </trkpt>
      <trkpt lat="44.3349" lon="5.92522">
        <ele>570</ele>
        <time>2019-04-02T11:55:31Z</time>
      </trkpt>
      <trkpt lat="44.33485" lon="5.92517">
        <ele>570</ele>
        <time>2019-04-02T11:55:32Z</time>
      </trkpt>
      <trkpt lat="44.3348" lon="5.92512">
        <ele>570</ele>
        <time>2019-04-02T11:55:33Z</time>
      </trkpt>
      <trkpt lat="44.33475" lon="5.92507">
        <ele>570</ele>
        <time>2019-04-02T11:55:34Z</time>
      </trkpt>
      <trkpt lat="44.3347" lon="5.92503">
        <ele>570</ele>
        <time>2019-04-02T11:55:35Z</time>
      </trkpt>
      <trkpt lat="44.33464" lon="5.92498">
        <ele>570</ele>
        <time>2019-04-02T11:55:36Z</time>
      </trkpt>
      <trkpt lat="44.33459" lon="5.92495">
        <ele>570</ele>
        <time>2019-04-02T11:55:37Z</time>
      </trkpt>
      <trkpt lat="44.33453" lon="5.92491">
        <ele>570</ele>
        <time>2019-04-02T11:55:38Z</time>
      </trkpt>
      <trkpt lat="44.33447" lon="5.92487">
        <ele>570</ele>
        <time>2019-04-02T11:55:39Z</time>
      </trkpt>
      <trkpt lat="44.33441" lon="5.92483">
        <ele>570</ele>
        <time>2019-04-02T11:55:40Z</time>
      </trkpt>
      <trkpt lat="44.33435" lon="5.92479">
        <ele>570</ele>
        <time>2019-04-02T11:55:41Z</time>
      </trkpt>
      <trkpt lat="44.33428" lon="5.92475">
        <ele>570</ele>
        <time>2019-04-02T11:55:42Z</time>
      </trkpt>
      <trkpt lat="44.33422" lon="5.92471">
        <ele>570</ele>
        <time>2019-04-02T11:55:43Z</time>
      </trkpt>
      <trkpt lat="44.33416" lon="5.92467">
        <ele>570</ele>
        <time>2019-04-02T11:55:44Z</time>
      </trkpt>
      <trkpt lat="44.33409" lon="5.92463">
        <ele>570</ele>
        <time>2019-04-02T11:55:45Z</time>
      </trkpt>
      <trkpt lat="44.33403" lon="5.92459">
        <ele>570</ele>
        <time>2019-04-02T11:55:46Z</time>
      </trkpt>
      <trkpt lat="44.33397" lon="5.92455">
        <ele>570</ele>
        <time>2019-04-02T11:55:47Z</time>
      </trkpt>
      <trkpt lat="44.3339" lon="5.92451">
        <ele>570</ele>
        <time>2019-04-02T11:55:48Z</time>
      </trkpt>
      <trkpt lat="44.33384" lon="5.92447">
        <ele>570</ele>
        <time>2019-04-02T11:55:49Z</time>
      </trkpt>
      <trkpt lat="44.33379" lon="5.92443">
        <ele>570</ele>
        <time>2019-04-02T11:55:50Z</time>
      </trkpt>
      <trkpt lat="44.33373" lon="5.9244">
        <ele>570</ele>
        <time>2019-04-02T11:55:51Z</time>
      </trkpt>
      <trkpt lat="44.33367" lon="5.92436">
        <ele>570</ele>
        <time>2019-04-02T11:55:52Z</time>
      </trkpt>
      <trkpt lat="44.33362" lon="5.92432">
        <ele>570</ele>
        <time>2019-04-02T11:55:53Z</time>
      </trkpt>
      <trkpt lat="44.33356" lon="5.92428">
        <ele>570</ele>
        <time>2019-04-02T11:55:54Z</time>
      </trkpt>
      <trkpt lat="44.3335" lon="5.92425">
        <ele>570</ele>
        <time>2019-04-02T11:55:55Z</time>
      </trkpt>
      <trkpt lat="44.33345" lon="5.92422">
        <ele>570</ele>
        <time>2019-04-02T11:55:56Z</time>
      </trkpt>
      <trkpt lat="44.33339" lon="5.92418">
        <ele>570</ele>
        <time>2019-04-02T11:55:57Z</time>
      </trkpt>
      <trkpt lat="44.33334" lon="5.92415">
        <ele>570</ele>
        <time>2019-04-02T11:55:58Z</time>
      </trkpt>
      <trkpt lat="44.33329" lon="5.92411">
        <ele>570</ele>
        <time>2019-04-02T11:55:59Z</time>
      </trkpt>
      <trkpt lat="44.33324" lon="5.92408">
        <ele>570</ele>
        <time>2019-04-02T11:56:00Z</time>
      </trkpt>
      <trkpt lat="44.33319" lon="5.92405">
        <ele>570</ele>
        <time>2019-04-02T11:56:01Z</time>
      </trkpt>
      <trkpt lat="44.33314" lon="5.92401">
        <ele>570</ele>
        <time>2019-04-02T11:56:02Z</time>
      </trkpt>
      <trkpt lat="44.33309" lon="5.92398">
        <ele>570</ele>
        <time>2019-04-02T11:56:03Z</time>
      </trkpt>
      <trkpt lat="44.33304" lon="5.92395">
        <ele>570</ele>
        <time>2019-04-02T11:56:04Z</time>
      </trkpt>
      <trkpt lat="44.33299" lon="5.92391">
        <ele>570</ele>
        <time>2019-04-02T11:56:05Z</time>
      </trkpt>
      <trkpt lat="44.33294" lon="5.92388">
        <ele>570</ele>
        <time>2019-04-02T11:56:06Z</time>
      </trkpt>
      <trkpt lat="44.33289" lon="5.92385">
        <ele>570</ele>
        <time>2019-04-02T11:56:07Z</time>
      </trkpt>
      <trkpt lat="44.33284" lon="5.92381">
        <ele>570</ele>
        <time>2019-04-02T11:56:08Z</time>
      </trkpt>
      <trkpt lat="44.33279" lon="5.92378">
        <ele>570</ele>
        <time>2019-04-02T11:56:09Z</time>
      </trkpt>
      <trkpt lat="44.33274" lon="5.92375">
        <ele>570</ele>
        <time>2019-04-02T11:56:10Z</time>
      </trkpt>
      <trkpt lat="44.33269" lon="5.92371">
        <ele>570</ele>
        <time>2019-04-02T11:56:11Z</time>
      </trkpt>
      <trkpt lat="44.33264" lon="5.92368">
        <ele>570</ele>
        <time>2019-04-02T11:56:12Z</time>
      </trkpt>
      <trkpt lat="44.33259" lon="5.92365">
        <ele>570</ele>
        <time>2019-04-02T11:56:13Z</time>
      </trkpt>
      <trkpt lat="44.33254" lon="5.92362">
        <ele>570</ele>
        <time>2019-04-02T11:56:14Z</time>
      </trkpt>
      <trkpt lat="44.3325" lon="5.92359">
        <ele>570</ele>
        <time>2019-04-02T11:56:15Z</time>
      </trkpt>
      <trkpt lat="44.33244" lon="5.92355">
        <ele>570</ele>
        <time>2019-04-02T11:56:16Z</time>
      </trkpt>
      <trkpt lat="44.33239" lon="5.92352">
        <ele>570</ele>
        <time>2019-04-02T11:56:17Z</time>
      </trkpt>
      <trkpt lat="44.33234" lon="5.92348">
        <ele>570</ele>
        <time>2019-04-02T11:56:18Z</time>
      </trkpt>
      <trkpt lat="44.33229" lon="5.92346">
        <ele>570</ele>
        <time>2019-04-02T11:56:19Z</time>
      </trkpt>
      <trkpt lat="44.33224" lon="5.92342">
        <ele>570</ele>
        <time>2019-04-02T11:56:20Z</time>
      </trkpt>
      <trkpt lat="44.3322" lon="5.92339">
        <ele>570</ele>
        <time>2019-04-02T11:56:21Z</time>
      </trkpt>
      <trkpt lat="44.33214" lon="5.92336">
        <ele>570</ele>
        <time>2019-04-02T11:56:22Z</time>
      </trkpt>
      <trkpt lat="44.33209" lon="5.92332">
        <ele>570</ele>
        <time>2019-04-02T11:56:23Z</time>
      </trkpt>
      <trkpt lat="44.33204" lon="5.92329">
        <ele>570</ele>
        <time>2019-04-02T11:56:24Z</time>
      </trkpt>
      <trkpt lat="44.33199" lon="5.92325">
        <ele>570</ele>
        <time>2019-04-02T11:56:25Z</time>
      </trkpt>
      <trkpt lat="44.33193" lon="5.92321">
        <ele>570</ele>
        <time>2019-04-02T11:56:26Z</time>
      </trkpt>
      <trkpt lat="44.33188" lon="5.92318">
        <ele>570</ele>
        <time>2019-04-02T11:56:27Z</time>
      </trkpt>
      <trkpt lat="44.33183" lon="5.92314">
        <ele>570</ele>
        <time>2019-04-02T11:56:28Z</time>
      </trkpt>
      <trkpt lat="44.33178" lon="5.92311">
        <ele>570</ele>
        <time>2019-04-02T11:56:29Z</time>
      </trkpt>
      <trkpt lat="44.33172" lon="5.92307">
        <ele>570</ele>
        <time>2019-04-02T11:56:30Z</time>
      </trkpt>
      <trkpt lat="44.33167" lon="5.92304">
        <ele>570</ele>
        <time>2019-04-02T11:56:31Z</time>
      </trkpt>
      <trkpt lat="44.33162" lon="5.92301">
        <ele>570</ele>
        <time>2019-04-02T11:56:32Z</time>
      </trkpt>
      <trkpt lat="44.33157" lon="5.92297">
        <ele>570</ele>
        <time>2019-04-02T11:56:33Z</time>
      </trkpt>
      <trkpt lat="44.33152" lon="5.92293">
        <ele>570</ele>
        <time>2019-04-02T11:56:34Z</time>
      </trkpt>
      <trkpt lat="44.33147" lon="5.92289">
        <ele>570</ele>
        <time>2019-04-02T11:56:35Z</time>
      </trkpt>
      <trkpt lat="44.33141" lon="5.92285">
        <ele>570</ele>
        <time>2019-04-02T11:56:36Z</time>
      </trkpt>
      <trkpt lat="44.33136" lon="5.92282">
        <ele>570</ele>
        <time>2019-04-02T11:56:37Z</time>
      </trkpt>
      <trkpt lat="44.33131" lon="5.92278">
        <ele>570</ele>
        <time>2019-04-02T11:56:38Z</time>
      </trkpt>
      <trkpt lat="44.33125" lon="5.92274">
        <ele>570</ele>
        <time>2019-04-02T11:56:39Z</time>
      </trkpt>
      <trkpt lat="44.3312" lon="5.92271">
        <ele>570</ele>
        <time>2019-04-02T11:56:40Z</time>
      </trkpt>
      <trkpt lat="44.33115" lon="5.92267">
        <ele>570</ele>
        <time>2019-04-02T11:56:41Z</time>
      </trkpt>
      <trkpt lat="44.3311" lon="5.92263">
        <ele>570</ele>
        <time>2019-04-02T11:56:42Z</time>
      </trkpt>
      <trkpt lat="44.33105" lon="5.9226">
        <ele>570</ele>
        <time>2019-04-02T11:56:43Z</time>
      </trkpt>
      <trkpt lat="44.331" lon="5.92256">
        <ele>570</ele>
        <time>2019-04-02T11:56:44Z</time>
      </trkpt>
      <trkpt lat="44.33094" lon="5.92252">
        <ele>570</ele>
        <time>2019-04-02T11:56:45Z</time>
      </trkpt>
      <trkpt lat="44.33089" lon="5.92248">
        <ele>570</ele>
        <time>2019-04-02T11:56:46Z</time>
      </trkpt>
      <trkpt lat="44.33084" lon="5.92245">
        <ele>570</ele>
        <time>2019-04-02T11:56:47Z</time>
      </trkpt>
      <trkpt lat="44.33079" lon="5.92241">
        <ele>570</ele>
        <time>2019-04-02T11:56:48Z</time>
      </trkpt>
      <trkpt lat="44.33074" lon="5.92237">
        <ele>570</ele>
        <time>2019-04-02T11:56:49Z</time>
      </trkpt>
      <trkpt lat="44.33069" lon="5.92233">
        <ele>570</ele>
        <time>2019-04-02T11:56:50Z</time>
      </trkpt>
      <trkpt lat="44.33064" lon="5.92229">
        <ele>570</ele>
        <time>2019-04-02T11:56:51Z</time>
      </trkpt>
      <trkpt lat="44.33059" lon="5.92226">
        <ele>570</ele>
        <time>2019-04-02T11:56:52Z</time>
      </trkpt>
      <trkpt lat="44.33054" lon="5.92222">
        <ele>570</ele>
        <time>2019-04-02T11:56:53Z</time>
      </trkpt>
      <trkpt lat="44.33049" lon="5.92218">
        <ele>570</ele>
        <time>2019-04-02T11:56:54Z</time>
      </trkpt>
      <trkpt lat="44.33044" lon="5.92215">
        <ele>570</ele>
        <time>2019-04-02T11:56:55Z</time>
      </trkpt>
      <trkpt lat="44.33039" lon="5.92211">
        <ele>570</ele>
        <time>2019-04-02T11:56:56Z</time>
      </trkpt>
      <trkpt lat="44.33034" lon="5.92207">
        <ele>570</ele>
        <time>2019-04-02T11:56:57Z</time>
      </trkpt>
      <trkpt lat="44.3303" lon="5.92204">
        <ele>570</ele>
        <time>2019-04-02T11:56:58Z</time>
      </trkpt>
      <trkpt lat="44.33025" lon="5.92201">
        <ele>570</ele>
        <time>2019-04-02T11:56:59Z</time>
      </trkpt>
      <trkpt lat="44.3302" lon="5.92198">
        <ele>570</ele>
        <time>2019-04-02T11:57:00Z</time>
      </trkpt>
      <trkpt lat="44.33016" lon="5.92194">
        <ele>570</ele>
        <time>2019-04-02T11:57:01Z</time>
      </trkpt>
      <trkpt lat="44.33011" lon="5.92191">
        <ele>570</ele>
        <time>2019-04-02T11:57:02Z</time>
      </trkpt>
      <trkpt lat="44.33006" lon="5.92187">
        <ele>570</ele>
        <time>2019-04-02T11:57:03Z</time>
      </trkpt>
      <trkpt lat="44.33002" lon="5.92183">
        <ele>570</ele>
        <time>2019-04-02T11:57:04Z</time>
      </trkpt>
      <trkpt lat="44.32997" lon="5.92179">
        <ele>570</ele>
        <time>2019-04-02T11:57:05Z</time>
      </trkpt>
      <trkpt lat="44.32993" lon="5.92174">
        <ele>570</ele>
        <time>2019-04-02T11:57:06Z</time>
      </trkpt>
      <trkpt lat="44.32988" lon="5.9217">
        <ele>570</ele>
        <time>2019-04-02T11:57:07Z</time>
      </trkpt>
      <trkpt lat="44.32983" lon="5.92165">
        <ele>570</ele>
        <time>2019-04-02T11:57:08Z</time>
      </trkpt>
      <trkpt lat="44.32979" lon="5.92161">
        <ele>570</ele>
        <time>2019-04-02T11:57:09Z</time>
      </trkpt>
      <trkpt lat="44.32975" lon="5.92157">
        <ele>570</ele>
        <time>2019-04-02T11:57:10Z</time>
      </trkpt>
      <trkpt lat="44.3297" lon="5.92152">
        <ele>570</ele>
        <time>2019-04-02T11:57:11Z</time>
      </trkpt>
      <trkpt lat="44.32965" lon="5.92148">
        <ele>570</ele>
        <time>2019-04-02T11:57:12Z</time>
      </trkpt>
      <trkpt lat="44.32961" lon="5.92144">
        <ele>570</ele>
        <time>2019-04-02T11:57:13Z</time>
      </trkpt>
      <trkpt lat="44.32956" lon="5.9214">
        <ele>570</ele>
        <time>2019-04-02T11:57:14Z</time>
      </trkpt>
      <trkpt lat="44.32951" lon="5.92136">
        <ele>570</ele>
        <time>2019-04-02T11:57:15Z</time>
      </trkpt>
      <trkpt lat="44.32945" lon="5.92132">
        <ele>570</ele>
        <time>2019-04-02T11:57:16Z</time>
      </trkpt>
      <trkpt lat="44.3294" lon="5.9213">
        <ele>570</ele>
        <time>2019-04-02T11:57:17Z</time>
      </trkpt>
      <trkpt lat="44.32934" lon="5.92127">
        <ele>570</ele>
        <time>2019-04-02T11:57:18Z</time>
      </trkpt>
      <trkpt lat="44.32928" lon="5.92124">
        <ele>570</ele>
        <time>2019-04-02T11:57:19Z</time>
      </trkpt>
      <trkpt lat="44.32923" lon="5.92122">
        <ele>570</ele>
        <time>2019-04-02T11:57:20Z</time>
      </trkpt>
      <trkpt lat="44.32918" lon="5.92119">
        <ele>570</ele>
        <time>2019-04-02T11:57:21Z</time>
      </trkpt>
      <trkpt lat="44.32912" lon="5.92117">
        <ele>570</ele>
        <time>2019-04-02T11:57:22Z</time>
      </trkpt>
      <trkpt lat="44.32907" lon="5.92114">
        <ele>570</ele>
        <time>2019-04-02T11:57:23Z</time>
      </trkpt>
      <trkpt lat="44.32902" lon="5.92112">
        <ele>570</ele>
        <time>2019-04-02T11:57:24Z</time>
      </trkpt>
      <trkpt lat="44.32897" lon="5.92109">
        <ele>570</ele>
        <time>2019-04-02T11:57:25Z</time>
      </trkpt>
      <trkpt lat="44.32891" lon="5.92107">
        <ele>570</ele>
        <time>2019-04-02T11:57:26Z</time>
      </trkpt>
      <trkpt lat="44.32886" lon="5.92105">
        <ele>570</ele>
        <time>2019-04-02T11:57:27Z</time>
      </trkpt>
      <trkpt lat="44.32881" lon="5.92104">
        <ele>570</ele>
        <time>2019-04-02T11:57:28Z</time>
      </trkpt>
      <trkpt lat="44.32876" lon="5.92102">
        <ele>570</ele>
        <time>2019-04-02T11:57:29Z</time>
      </trkpt>
      <trkpt lat="44.3287" lon="5.92101">
        <ele>570</ele>
        <time>2019-04-02T11:57:30Z</time>
      </trkpt>
      <trkpt lat="44.32865" lon="5.92101">
        <ele>570</ele>
        <time>2019-04-02T11:57:31Z</time>
      </trkpt>
      <trkpt lat="44.3286" lon="5.921">
        <ele>570</ele>
        <time>2019-04-02T11:57:32Z</time>
      </trkpt>
      <trkpt lat="44.32855" lon="5.921">
        <ele>570</ele>
        <time>2019-04-02T11:57:33Z</time>
      </trkpt>
      <trkpt lat="44.3285" lon="5.921">
        <ele>570</ele>
        <time>2019-04-02T11:57:34Z</time>
      </trkpt>
      <trkpt lat="44.32846" lon="5.921">
        <ele>570</ele>
        <time>2019-04-02T11:57:35Z</time>
      </trkpt>
      <trkpt lat="44.32841" lon="5.921">
        <ele>570</ele>
        <time>2019-04-02T11:57:36Z</time>
      </trkpt>
      <trkpt lat="44.32836" lon="5.921">
        <ele>570</ele>
        <time>2019-04-02T11:57:37Z</time>
      </trkpt>
      <trkpt lat="44.32831" lon="5.921">
        <ele>570</ele>
        <time>2019-04-02T11:57:38Z</time>
      </trkpt>
      <trkpt lat="44.32826" lon="5.921">
        <ele>570</ele>
        <time>2019-04-02T11:57:39Z</time>
      </trkpt>
      <trkpt lat="44.32821" lon="5.921">
        <ele>570</ele>
        <time>2019-04-02T11:57:40Z</time>
      </trkpt>
      <trkpt lat="44.32816" lon="5.921">
        <ele>570</ele>
        <time>2019-04-02T11:57:41Z</time>
      </trkpt>
      <trkpt lat="44.32811" lon="5.921">
        <ele>570</ele>
        <time>2019-04-02T11:57:42Z</time>
      </trkpt>
      <trkpt lat="44.32806" lon="5.921">
        <ele>570</ele>
        <time>2019-04-02T11:57:43Z</time>
      </trkpt>
      <trkpt lat="44.32801" lon="5.921">
        <ele>570</ele>
        <time>2019-04-02T11:57:44Z</time>
      </trkpt>
      <trkpt lat="44.32797" lon="5.921">
        <ele>570</ele>
        <time>2019-04-02T11:57:45Z</time>
      </trkpt>
      <trkpt lat="44.32792" lon="5.921">
        <ele>570</ele>
        <time>2019-04-02T11:57:46Z</time>
      </trkpt>
      <trkpt lat="44.32787" lon="5.921">
        <ele>570</ele>
        <time>2019-04-02T11:57:47Z</time>
      </trkpt>
      <trkpt lat="44.32782" lon="5.921">
        <ele>570</ele>
        <time>2019-04-02T11:57:48Z</time>
      </trkpt>
      <trkpt lat="44.32778" lon="5.92101">
        <ele>570</ele>
        <time>2019-04-02T11:57:49Z</time>
      </trkpt>
      <trkpt lat="44.32773" lon="5.92101">
        <ele>570</ele>
        <time>2019-04-02T11:57:50Z</time>
      </trkpt>
      <trkpt lat="44.32768" lon="5.92101">
        <ele>570</ele>
        <time>2019-04-02T11:57:51Z</time>
      </trkpt>
      <trkpt lat="44.32764" lon="5.92101">
        <ele>570</ele>
        <time>2019-04-02T11:57:52Z</time>
      </trkpt>
      <trkpt lat="44.32759" lon="5.92101">
        <ele>570</ele>
        <time>2019-04-02T11:57:53Z</time>
      </trkpt>
      <trkpt lat="44.32754" lon="5.92101">
        <ele>570</ele>
        <time>2019-04-02T11:57:54Z</time>
      </trkpt>
      <trkpt lat="44.3275" lon="5.921">
        <ele>570</ele>
        <time>2019-04-02T11:57:55Z</time>
      </trkpt>
      <trkpt lat="44.32745" lon="5.921">
        <ele>570</ele>
        <time>2019-04-02T11:57:56Z</time>
      </trkpt>
      <trkpt lat="44.3274" lon="5.921">
        <ele>571</ele>
        <time>2019-04-02T11:57:57Z</time>
      </trkpt>
      <trkpt lat="44.32735" lon="5.921">
        <ele>571</ele>
        <time>2019-04-02T11:57:58Z</time>
      </trkpt>
      <trkpt lat="44.3273" lon="5.921">
        <ele>571</ele>
        <time>2019-04-02T11:57:59Z</time>
      </trkpt>
      <trkpt lat="44.32725" lon="5.921">
        <ele>571</ele>
        <time>2019-04-02T11:58:00Z</time>
      </trkpt>
      <trkpt lat="44.3272" lon="5.921">
        <ele>571</ele>
        <time>2019-04-02T11:58:01Z</time>
      </trkpt>
      <trkpt lat="44.32716" lon="5.921">
        <ele>571</ele>
        <time>2019-04-02T11:58:02Z</time>
      </trkpt>
      <trkpt lat="44.32711" lon="5.921">
        <ele>571</ele>
        <time>2019-04-02T11:58:03Z</time>
      </trkpt>
      <trkpt lat="44.32706" lon="5.92099">
        <ele>572</ele>
        <time>2019-04-02T11:58:04Z</time>
      </trkpt>
      <trkpt lat="44.32701" lon="5.921">
        <ele>572</ele>
        <time>2019-04-02T11:58:05Z</time>
      </trkpt>
      <trkpt lat="44.32697" lon="5.92099">
        <ele>572</ele>
        <time>2019-04-02T11:58:06Z</time>
      </trkpt>
      <trkpt lat="44.32692" lon="5.92099">
        <ele>572</ele>
        <time>2019-04-02T11:58:07Z</time>
      </trkpt>
      <trkpt lat="44.32688" lon="5.921">
        <ele>572</ele>
        <time>2019-04-02T11:58:08Z</time>
      </trkpt>
      <trkpt lat="44.32683" lon="5.92099">
        <ele>572</ele>
        <time>2019-04-02T11:58:09Z</time>
      </trkpt>
      <trkpt lat="44.32679" lon="5.92099">
        <ele>572</ele>
        <time>2019-04-02T11:58:10Z</time>
      </trkpt>
      <trkpt lat="44.32674" lon="5.92099">
        <ele>572</ele>
        <time>2019-04-02T11:58:11Z</time>
      </trkpt>
      <trkpt lat="44.32669" lon="5.921">
        <ele>572</ele>
        <time>2019-04-02T11:58:12Z</time>
      </trkpt>
      <trkpt lat="44.32664" lon="5.921">
        <ele>572</ele>
        <time>2019-04-02T11:58:13Z</time>
      </trkpt>
      <trkpt lat="44.32659" lon="5.921">
        <ele>572</ele>
        <time>2019-04-02T11:58:14Z</time>
      </trkpt>
      <trkpt lat="44.32653" lon="5.921">
        <ele>572</ele>
        <time>2019-04-02T11:58:15Z</time>
      </trkpt>
      <trkpt lat="44.32648" lon="5.921">
        <ele>572</ele>
        <time>2019-04-02T11:58:16Z</time>
      </trkpt>
      <trkpt lat="44.32642" lon="5.921">
        <ele>572</ele>
        <time>2019-04-02T11:58:17Z</time>
      </trkpt>
      <trkpt lat="44.32637" lon="5.921">
        <ele>572</ele>
        <time>2019-04-02T11:58:18Z</time>
      </trkpt>
      <trkpt lat="44.32631" lon="5.921">
        <ele>572</ele>
        <time>2019-04-02T11:58:19Z</time>
      </trkpt>
      <trkpt lat="44.32626" lon="5.921">
        <ele>572</ele>
        <time>2019-04-02T11:58:20Z</time>
      </trkpt>
      <trkpt lat="44.3262" lon="5.92101">
        <ele>572</ele>
        <time>2019-04-02T11:58:21Z</time>
      </trkpt>
      <trkpt lat="44.32615" lon="5.92101">
        <ele>572</ele>
        <time>2019-04-02T11:58:22Z</time>
      </trkpt>
      <trkpt lat="44.32609" lon="5.921">
        <ele>572</ele>
        <time>2019-04-02T11:58:23Z</time>
      </trkpt>
      <trkpt lat="44.32603" lon="5.921">
        <ele>572</ele>
        <time>2019-04-02T11:58:24Z</time>
      </trkpt>
      <trkpt lat="44.32598" lon="5.921">
        <ele>572</ele>
        <time>2019-04-02T11:58:25Z</time>
      </trkpt>
      <trkpt lat="44.32592" lon="5.921">
        <ele>572</ele>
        <time>2019-04-02T11:58:26Z</time>
      </trkpt>
      <trkpt lat="44.32586" lon="5.92101">
        <ele>572</ele>
        <time>2019-04-02T11:58:27Z</time>
      </trkpt>
      <trkpt lat="44.32581" lon="5.92101">
        <ele>572</ele>
        <time>2019-04-02T11:58:28Z</time>
      </trkpt>
      <trkpt lat="44.32575" lon="5.92101">
        <ele>572</ele>
        <time>2019-04-02T11:58:29Z</time>
      </trkpt>
      <trkpt lat="44.32569" lon="5.92101">
        <ele>572</ele>
        <time>2019-04-02T11:58:30Z</time>
      </trkpt>
      <trkpt lat="44.32563" lon="5.92101">
        <ele>572</ele>
        <time>2019-04-02T11:58:31Z</time>
      </trkpt>
      <trkpt lat="44.32558" lon="5.92101">
        <ele>572</ele>
        <time>2019-04-02T11:58:32Z</time>
      </trkpt>
      <trkpt lat="44.32552" lon="5.92101">
        <ele>572</ele>
        <time>2019-04-02T11:58:33Z</time>
      </trkpt>
      <trkpt lat="44.32546" lon="5.92101">
        <ele>572</ele>
        <time>2019-04-02T11:58:34Z</time>
      </trkpt>
      <trkpt lat="44.3254" lon="5.92101">
        <ele>572</ele>
        <time>2019-04-02T11:58:35Z</time>
      </trkpt>
      <trkpt lat="44.32534" lon="5.92101">
        <ele>572</ele>
        <time>2019-04-02T11:58:36Z</time>
      </trkpt>
      <trkpt lat="44.32528" lon="5.92101">
        <ele>572</ele>
        <time>2019-04-02T11:58:37Z</time>
      </trkpt>
      <trkpt lat="44.32522" lon="5.92101">
        <ele>572</ele>
        <time>2019-04-02T11:58:38Z</time>
      </trkpt>
      <trkpt lat="44.32516" lon="5.92101">
        <ele>572</ele>
        <time>2019-04-02T11:58:39Z</time>
      </trkpt>
      <trkpt lat="44.3251" lon="5.92102">
        <ele>572</ele>
        <time>2019-04-02T11:58:40Z</time>
      </trkpt>
      <trkpt lat="44.32504" lon="5.92102">
        <ele>572</ele>
        <time>2019-04-02T11:58:41Z</time>
      </trkpt>
      <trkpt lat="44.32498" lon="5.92102">
        <ele>572</ele>
        <time>2019-04-02T11:58:42Z</time>
      </trkpt>
      <trkpt lat="44.32492" lon="5.92102">
        <ele>572</ele>
        <time>2019-04-02T11:58:43Z</time>
      </trkpt>
      <trkpt lat="44.32486" lon="5.92102">
        <ele>572</ele>
        <time>2019-04-02T11:58:44Z</time>
      </trkpt>
      <trkpt lat="44.3248" lon="5.92102">
        <ele>572</ele>
        <time>2019-04-02T11:58:45Z</time>
      </trkpt>
      <trkpt lat="44.32474" lon="5.92102">
        <ele>572</ele>
        <time>2019-04-02T11:58:46Z</time>
      </trkpt>
      <trkpt lat="44.32468" lon="5.92102">
        <ele>572</ele>
        <time>2019-04-02T11:58:47Z</time>
      </trkpt>
      <trkpt lat="44.32462" lon="5.92102">
        <ele>572</ele>
        <time>2019-04-02T11:58:48Z</time>
      </trkpt>
      <trkpt lat="44.32457" lon="5.92102">
        <ele>572</ele>
        <time>2019-04-02T11:58:49Z</time>
      </trkpt>
      <trkpt lat="44.32451" lon="5.92102">
        <ele>572</ele>
        <time>2019-04-02T11:58:50Z</time>
      </trkpt>
      <trkpt lat="44.32445" lon="5.92102">
        <ele>572</ele>
        <time>2019-04-02T11:58:51Z</time>
      </trkpt>
      <trkpt lat="44.32439" lon="5.92102">
        <ele>572</ele>
        <time>2019-04-02T11:58:52Z</time>
      </trkpt>
      <trkpt lat="44.32433" lon="5.92102">
        <ele>572</ele>
        <time>2019-04-02T11:58:53Z</time>
      </trkpt>
      <trkpt lat="44.32428" lon="5.92102">
        <ele>572</ele>
        <time>2019-04-02T11:58:54Z</time>
      </trkpt>
      <trkpt lat="44.32422" lon="5.92102">
        <ele>572</ele>
        <time>2019-04-02T11:58:55Z</time>
      </trkpt>
      <trkpt lat="44.32416" lon="5.92102">
        <ele>572</ele>
        <time>2019-04-02T11:58:56Z</time>
      </trkpt>
      <trkpt lat="44.3241" lon="5.92102">
        <ele>572</ele>
        <time>2019-04-02T11:58:57Z</time>
      </trkpt>
      <trkpt lat="44.32404" lon="5.92102">
        <ele>572</ele>
        <time>2019-04-02T11:58:58Z</time>
      </trkpt>
      <trkpt lat="44.32398" lon="5.92102">
        <ele>572</ele>
        <time>2019-04-02T11:58:59Z</time>
      </trkpt>
      <trkpt lat="44.32392" lon="5.92102">
        <ele>572</ele>
        <time>2019-04-02T11:59:00Z</time>
      </trkpt>
      <trkpt lat="44.32386" lon="5.92102">
        <ele>572</ele>
        <time>2019-04-02T11:59:01Z</time>
      </trkpt>
      <trkpt lat="44.3238" lon="5.92102">
        <ele>572</ele>
        <time>2019-04-02T11:59:02Z</time>
      </trkpt>
      <trkpt lat="44.32374" lon="5.92102">
        <ele>572</ele>
        <time>2019-04-02T11:59:03Z</time>
      </trkpt>
      <trkpt lat="44.32368" lon="5.92102">
        <ele>572</ele>
        <time>2019-04-02T11:59:04Z</time>
      </trkpt>
      <trkpt lat="44.32362" lon="5.92102">
        <ele>572</ele>
        <time>2019-04-02T11:59:05Z</time>
      </trkpt>
      <trkpt lat="44.32356" lon="5.92102">
        <ele>572</ele>
        <time>2019-04-02T11:59:06Z</time>
      </trkpt>
      <trkpt lat="44.3235" lon="5.92102">
        <ele>572</ele>
        <time>2019-04-02T11:59:07Z</time>
      </trkpt>
      <trkpt lat="44.32344" lon="5.92102">
        <ele>572</ele>
        <time>2019-04-02T11:59:08Z</time>
      </trkpt>
      <trkpt lat="44.32338" lon="5.92102">
        <ele>572</ele>
        <time>2019-04-02T11:59:09Z</time>
      </trkpt>
      <trkpt lat="44.32332" lon="5.92102">
        <ele>572</ele>
        <time>2019-04-02T11:59:10Z</time>
      </trkpt>
      <trkpt lat="44.32327" lon="5.92102">
        <ele>572</ele>
        <time>2019-04-02T11:59:11Z</time>
      </trkpt>
      <trkpt lat="44.32321" lon="5.92101">
        <ele>572</ele>
        <time>2019-04-02T11:59:12Z</time>
      </trkpt>
      <trkpt lat="44.32315" lon="5.92101">
        <ele>572</ele>
        <time>2019-04-02T11:59:13Z</time>
      </trkpt>
      <trkpt lat="44.3231" lon="5.921">
        <ele>572</ele>
        <time>2019-04-02T11:59:14Z</time>
      </trkpt>
      <trkpt lat="44.32304" lon="5.921">
        <ele>572</ele>
        <time>2019-04-02T11:59:15Z</time>
      </trkpt>
      <trkpt lat="44.32299" lon="5.92099">
        <ele>572</ele>
        <time>2019-04-02T11:59:16Z</time>
      </trkpt>
      <trkpt lat="44.32294" lon="5.92099">
        <ele>572</ele>
        <time>2019-04-02T11:59:17Z</time>
      </trkpt>
      <trkpt lat="44.32288" lon="5.92098">
        <ele>572</ele>
        <time>2019-04-02T11:59:18Z</time>
      </trkpt>
      <trkpt lat="44.32283" lon="5.92097">
        <ele>572</ele>
        <time>2019-04-02T11:59:19Z</time>
      </trkpt>
      <trkpt lat="44.32278" lon="5.92096">
        <ele>572</ele>
        <time>2019-04-02T11:59:20Z</time>
      </trkpt>
      <trkpt lat="44.32272" lon="5.92095">
        <ele>572</ele>
        <time>2019-04-02T11:59:21Z</time>
      </trkpt>
      <trkpt lat="44.32266" lon="5.92094">
        <ele>572</ele>
        <time>2019-04-02T11:59:22Z</time>
      </trkpt>
      <trkpt lat="44.32261" lon="5.92093">
        <ele>572</ele>
        <time>2019-04-02T11:59:23Z</time>
      </trkpt>
      <trkpt lat="44.32254" lon="5.92092">
        <ele>572</ele>
        <time>2019-04-02T11:59:24Z</time>
      </trkpt>
      <trkpt lat="44.32248" lon="5.92091">
        <ele>572</ele>
        <time>2019-04-02T11:59:25Z</time>
      </trkpt>
      <trkpt lat="44.32242" lon="5.9209">
        <ele>572</ele>
        <time>2019-04-02T11:59:26Z</time>
      </trkpt>
      <trkpt lat="44.32236" lon="5.92089">
        <ele>572</ele>
        <time>2019-04-02T11:59:27Z</time>
      </trkpt>
      <trkpt lat="44.3223" lon="5.92088">
        <ele>572</ele>
        <time>2019-04-02T11:59:28Z</time>
      </trkpt>
      <trkpt lat="44.32224" lon="5.92087">
        <ele>572</ele>
        <time>2019-04-02T11:59:29Z</time>
      </trkpt>
      <trkpt lat="44.32218" lon="5.92086">
        <ele>572</ele>
        <time>2019-04-02T11:59:30Z</time>
      </trkpt>
      <trkpt lat="44.32212" lon="5.92085">
        <ele>572</ele>
        <time>2019-04-02T11:59:31Z</time>
      </trkpt>
      <trkpt lat="44.32206" lon="5.92084">
        <ele>572</ele>
        <time>2019-04-02T11:59:32Z</time>
      </trkpt>
      <trkpt lat="44.32201" lon="5.92083">
        <ele>572</ele>
        <time>2019-04-02T11:59:33Z</time>
      </trkpt>
      <trkpt lat="44.32196" lon="5.92081">
        <ele>572</ele>
        <time>2019-04-02T11:59:34Z</time>
      </trkpt>
      <trkpt lat="44.3219" lon="5.9208">
        <ele>572</ele>
        <time>2019-04-02T11:59:35Z</time>
      </trkpt>
      <trkpt lat="44.32185" lon="5.92079">
        <ele>572</ele>
        <time>2019-04-02T11:59:36Z</time>
      </trkpt>
      <trkpt lat="44.32179" lon="5.92078">
        <ele>572</ele>
        <time>2019-04-02T11:59:37Z</time>
      </trkpt>
      <trkpt lat="44.32174" lon="5.92077">
        <ele>572</ele>
        <time>2019-04-02T11:59:38Z</time>
      </trkpt>
      <trkpt lat="44.32168" lon="5.92076">
        <ele>572</ele>
        <time>2019-04-02T11:59:39Z</time>
      </trkpt>
      <trkpt lat="44.32163" lon="5.92075">
        <ele>572</ele>
        <time>2019-04-02T11:59:40Z</time>
      </trkpt>
      <trkpt lat="44.32157" lon="5.92074">
        <ele>572</ele>
        <time>2019-04-02T11:59:41Z</time>
      </trkpt>
      <trkpt lat="44.32151" lon="5.92074">
        <ele>572</ele>
        <time>2019-04-02T11:59:42Z</time>
      </trkpt>
      <trkpt lat="44.32146" lon="5.92073">
        <ele>572</ele>
        <time>2019-04-02T11:59:43Z</time>
      </trkpt>
      <trkpt lat="44.3214" lon="5.92072">
        <ele>572</ele>
        <time>2019-04-02T11:59:44Z</time>
      </trkpt>
      <trkpt lat="44.32135" lon="5.9207">
        <ele>572</ele>
        <time>2019-04-02T11:59:45Z</time>
      </trkpt>
      <trkpt lat="44.32129" lon="5.92069">
        <ele>572</ele>
        <time>2019-04-02T11:59:46Z</time>
      </trkpt>
      <trkpt lat="44.32123" lon="5.92068">
        <ele>572</ele>
        <time>2019-04-02T11:59:47Z</time>
      </trkpt>
      <trkpt lat="44.32117" lon="5.92067">
        <ele>572</ele>
        <time>2019-04-02T11:59:48Z</time>
      </trkpt>
      <trkpt lat="44.32112" lon="5.92065">
        <ele>572</ele>
        <time>2019-04-02T11:59:49Z</time>
      </trkpt>
      <trkpt lat="44.32106" lon="5.92064">
        <ele>572</ele>
        <time>2019-04-02T11:59:50Z</time>
      </trkpt>
      <trkpt lat="44.321" lon="5.92063">
        <ele>572</ele>
        <time>2019-04-02T11:59:51Z</time>
      </trkpt>
      <trkpt lat="44.32095" lon="5.92062">
        <ele>572</ele>
        <time>2019-04-02T11:59:52Z</time>
      </trkpt>
      <trkpt lat="44.32089" lon="5.92061">
        <ele>572</ele>
        <time>2019-04-02T11:59:53Z</time>
      </trkpt>
      <trkpt lat="44.32083" lon="5.9206">
        <ele>572</ele>
        <time>2019-04-02T11:59:54Z</time>
      </trkpt>
      <trkpt lat="44.32077" lon="5.92059">
        <ele>571</ele>
        <time>2019-04-02T11:59:55Z</time>
      </trkpt>
      <trkpt lat="44.32071" lon="5.92058">
        <ele>571</ele>
        <time>2019-04-02T11:59:56Z</time>
      </trkpt>
      <trkpt lat="44.32066" lon="5.92056">
        <ele>571</ele>
        <time>2019-04-02T11:59:57Z</time>
      </trkpt>
      <trkpt lat="44.3206" lon="5.92055">
        <ele>571</ele>
        <time>2019-04-02T11:59:58Z</time>
      </trkpt>
      <trkpt lat="44.32054" lon="5.92054">
        <ele>571</ele>
        <time>2019-04-02T11:59:59Z</time>
      </trkpt>
      <trkpt lat="44.32048" lon="5.92053">
        <ele>571</ele>
        <time>2019-04-02T12:00:00Z</time>
      </trkpt>
      <trkpt lat="44.32042" lon="5.92052">
        <ele>571</ele>
        <time>2019-04-02T12:00:01Z</time>
      </trkpt>
      <trkpt lat="44.32037" lon="5.92052">
        <ele>571</ele>
        <time>2019-04-02T12:00:02Z</time>
      </trkpt>
      <trkpt lat="44.3203" lon="5.92051">
        <ele>571</ele>
        <time>2019-04-02T12:00:03Z</time>
      </trkpt>
      <trkpt lat="44.32025" lon="5.92051">
        <ele>571</ele>
        <time>2019-04-02T12:00:04Z</time>
      </trkpt>
      <trkpt lat="44.32019" lon="5.92052">
        <ele>571</ele>
        <time>2019-04-02T12:00:05Z</time>
      </trkpt>
      <trkpt lat="44.32013" lon="5.92053">
        <ele>571</ele>
        <time>2019-04-02T12:00:06Z</time>
      </trkpt>
      <trkpt lat="44.32007" lon="5.92055">
        <ele>571</ele>
        <time>2019-04-02T12:00:07Z</time>
      </trkpt>
      <trkpt lat="44.32001" lon="5.92058">
        <ele>571</ele>
        <time>2019-04-02T12:00:08Z</time>
      </trkpt>
      <trkpt lat="44.31996" lon="5.92061">
        <ele>571</ele>
        <time>2019-04-02T12:00:09Z</time>
      </trkpt>
      <trkpt lat="44.31991" lon="5.92065">
        <ele>571</ele>
        <time>2019-04-02T12:00:10Z</time>
      </trkpt>
      <trkpt lat="44.31986" lon="5.92069">
        <ele>571</ele>
        <time>2019-04-02T12:00:11Z</time>
      </trkpt>
      <trkpt lat="44.31981" lon="5.92073">
        <ele>571</ele>
        <time>2019-04-02T12:00:12Z</time>
      </trkpt>
      <trkpt lat="44.31976" lon="5.92076">
        <ele>571</ele>
        <time>2019-04-02T12:00:13Z</time>
      </trkpt>
      <trkpt lat="44.31971" lon="5.9208">
        <ele>571</ele>
        <time>2019-04-02T12:00:14Z</time>
      </trkpt>
      <trkpt lat="44.31966" lon="5.92083">
        <ele>571</ele>
        <time>2019-04-02T12:00:15Z</time>
      </trkpt>
      <trkpt lat="44.31961" lon="5.92087">
        <ele>571</ele>
        <time>2019-04-02T12:00:16Z</time>
      </trkpt>
      <trkpt lat="44.31956" lon="5.9209">
        <ele>571</ele>
        <time>2019-04-02T12:00:17Z</time>
      </trkpt>
      <trkpt lat="44.31952" lon="5.92093">
        <ele>571</ele>
        <time>2019-04-02T12:00:18Z</time>
      </trkpt>
      <trkpt lat="44.31947" lon="5.92096">
        <ele>571</ele>
        <time>2019-04-02T12:00:19Z</time>
      </trkpt>
      <trkpt lat="44.31943" lon="5.92099">
        <ele>571</ele>
        <time>2019-04-02T12:00:20Z</time>
      </trkpt>
      <trkpt lat="44.31939" lon="5.92102">
        <ele>571</ele>
        <time>2019-04-02T12:00:21Z</time>
      </trkpt>
      <trkpt lat="44.31934" lon="5.92105">
        <ele>571</ele>
        <time>2019-04-02T12:00:22Z</time>
      </trkpt>
      <trkpt lat="44.3193" lon="5.92108">
        <ele>571</ele>
        <time>2019-04-02T12:00:23Z</time>
      </trkpt>
      <trkpt lat="44.31925" lon="5.92111">
        <ele>571</ele>
        <time>2019-04-02T12:00:24Z</time>
      </trkpt>
      <trkpt lat="44.31921" lon="5.92114">
        <ele>571</ele>
        <time>2019-04-02T12:00:25Z</time>
      </trkpt>
      <trkpt lat="44.31916" lon="5.92118">
        <ele>571</ele>
        <time>2019-04-02T12:00:26Z</time>
      </trkpt>
      <trkpt lat="44.31912" lon="5.92121">
        <ele>571</ele>
        <time>2019-04-02T12:00:27Z</time>
      </trkpt>
      <trkpt lat="44.31907" lon="5.92124">
        <ele>571</ele>
        <time>2019-04-02T12:00:28Z</time>
      </trkpt>
      <trkpt lat="44.31903" lon="5.92126">
        <ele>571</ele>
        <time>2019-04-02T12:00:29Z</time>
      </trkpt>
      <trkpt lat="44.319" lon="5.92129">
        <ele>571</ele>
        <time>2019-04-02T12:00:30Z</time>
      </trkpt>
      <trkpt lat="44.31896" lon="5.92131">
        <ele>571</ele>
        <time>2019-04-02T12:00:31Z</time>
      </trkpt>
      <trkpt lat="44.31892" lon="5.92134">
        <ele>571</ele>
        <time>2019-04-02T12:00:32Z</time>
      </trkpt>
      <trkpt lat="44.31889" lon="5.92137">
        <ele>571</ele>
        <time>2019-04-02T12:00:33Z</time>
      </trkpt>
      <trkpt lat="44.31885" lon="5.92141">
        <ele>571</ele>
        <time>2019-04-02T12:00:34Z</time>
      </trkpt>
      <trkpt lat="44.31881" lon="5.92144">
        <ele>571</ele>
        <time>2019-04-02T12:00:35Z</time>
      </trkpt>
      <trkpt lat="44.31876" lon="5.92146">
        <ele>571</ele>
        <time>2019-04-02T12:00:36Z</time>
      </trkpt>
      <trkpt lat="44.31872" lon="5.92149">
        <ele>570</ele>
        <time>2019-04-02T12:00:37Z</time>
      </trkpt>
      <trkpt lat="44.31866" lon="5.92152">
        <ele>570</ele>
        <time>2019-04-02T12:00:38Z</time>
      </trkpt>
      <trkpt lat="44.31861" lon="5.92155">
        <ele>570</ele>
        <time>2019-04-02T12:00:39Z</time>
      </trkpt>
      <trkpt lat="44.31856" lon="5.92158">
        <ele>569</ele>
        <time>2019-04-02T12:00:40Z</time>
      </trkpt>
      <trkpt lat="44.31851" lon="5.92162">
        <ele>569</ele>
        <time>2019-04-02T12:00:41Z</time>
      </trkpt>
      <trkpt lat="44.31846" lon="5.92164">
        <ele>569</ele>
        <time>2019-04-02T12:00:42Z</time>
      </trkpt>
      <trkpt lat="44.31842" lon="5.92166">
        <ele>568</ele>
        <time>2019-04-02T12:00:43Z</time>
      </trkpt>
      <trkpt lat="44.31839" lon="5.92169">
        <ele>568</ele>
        <time>2019-04-02T12:00:44Z</time>
      </trkpt>
      <trkpt lat="44.31837" lon="5.92172">
        <ele>568</ele>
        <time>2019-04-02T12:00:45Z</time>
      </trkpt>
      <trkpt lat="44.31835" lon="5.92175">
        <ele>567</ele>
        <time>2019-04-02T12:00:46Z</time>
      </trkpt>
      <trkpt lat="44.31833" lon="5.92178">
        <ele>567</ele>
        <time>2019-04-02T12:00:47Z</time>
      </trkpt>
      <trkpt lat="44.31831" lon="5.9218">
        <ele>567</ele>
        <time>2019-04-02T12:00:48Z</time>
      </trkpt>
      <trkpt lat="44.31829" lon="5.92182">
        <ele>566</ele>
        <time>2019-04-02T12:00:49Z</time>
      </trkpt>
      <trkpt lat="44.31828" lon="5.92183">
        <ele>566</ele>
        <time>2019-04-02T12:00:50Z</time>
      </trkpt>
      <trkpt lat="44.31826" lon="5.92185">
        <ele>566</ele>
        <time>2019-04-02T12:00:52Z</time>
      </trkpt>
      <trkpt lat="44.31826" lon="5.92187">
        <ele>565</ele>
        <time>2019-04-02T12:00:54Z</time>
      </trkpt>
      <trkpt lat="44.31827" lon="5.92188">
        <ele>565</ele>
        <time>2019-04-02T12:01:14Z</time>
      </trkpt>
      <trkpt lat="44.31828" lon="5.92188">
        <ele>565</ele>
        <time>2019-04-02T12:01:16Z</time>
      </trkpt>
      <trkpt lat="44.31829" lon="5.92189">
        <ele>565</ele>
        <time>2019-04-02T12:01:20Z</time>
      </trkpt>
      <trkpt lat="44.31831" lon="5.9219">
        <ele>565</ele>
        <time>2019-04-02T12:01:23Z</time>
      </trkpt>
      <trkpt lat="44.31829" lon="5.92191">
        <ele>569</ele>
        <time>2019-04-02T12:02:06Z</time>
      </trkpt>
      <trkpt lat="44.31828" lon="5.92193">
        <ele>569</ele>
        <time>2019-04-02T12:02:22Z</time>
      </trkpt>
      <trkpt lat="44.31827" lon="5.92193">
        <ele>569</ele>
        <time>2019-04-02T12:02:31Z</time>
      </trkpt>
      <trkpt lat="44.31826" lon="5.92192">
        <ele>569</ele>
        <time>2019-04-02T12:02:46Z</time>
      </trkpt>
      <trkpt lat="44.31825" lon="5.92191">
        <ele>569</ele>
        <time>2019-04-02T12:02:55Z</time>
      </trkpt>
      <trkpt lat="44.31826" lon="5.92192">
        <ele>569</ele>
        <time>2019-04-02T12:03:22Z</time>
      </trkpt>
      <trkpt lat="44.31827" lon="5.92192">
        <ele>569</ele>
        <time>2019-04-02T12:03:27Z</time>
      </trkpt>
      <trkpt lat="44.31829" lon="5.92193">
        <ele>569</ele>
        <time>2019-04-02T12:03:37Z</time>
      </trkpt>
      <trkpt lat="44.3183" lon="5.92194">
        <ele>569</ele>
        <time>2019-04-02T12:03:39Z</time>
      </trkpt>
      <trkpt lat="44.31831" lon="5.92197">
        <ele>569</ele>
        <time>2019-04-02T12:03:41Z</time>
      </trkpt>
      <trkpt lat="44.31832" lon="5.92199">
        <ele>569</ele>
        <time>2019-04-02T12:03:42Z</time>
      </trkpt>
      <trkpt lat="44.31832" lon="5.92202">
        <ele>569</ele>
        <time>2019-04-02T12:03:43Z</time>
      </trkpt>
      <trkpt lat="44.31832" lon="5.92205">
        <ele>569</ele>
        <time>2019-04-02T12:03:44Z</time>
      </trkpt>
      <trkpt lat="44.31831" lon="5.92207">
        <ele>569</ele>
        <time>2019-04-02T12:03:45Z</time>
      </trkpt>
      <trkpt lat="44.31831" lon="5.9221">
        <ele>569</ele>
        <time>2019-04-02T12:03:46Z</time>
      </trkpt>
      <trkpt lat="44.31829" lon="5.92213">
        <ele>569</ele>
        <time>2019-04-02T12:03:47Z</time>
      </trkpt>
      <trkpt lat="44.31828" lon="5.92217">
        <ele>569</ele>
        <time>2019-04-02T12:03:48Z</time>
      </trkpt>
      <trkpt lat="44.31827" lon="5.92221">
        <ele>569</ele>
        <time>2019-04-02T12:03:49Z</time>
      </trkpt>
      <trkpt lat="44.31825" lon="5.92225">
        <ele>569</ele>
        <time>2019-04-02T12:03:50Z</time>
      </trkpt>
      <trkpt lat="44.31824" lon="5.9223">
        <ele>569</ele>
        <time>2019-04-02T12:03:51Z</time>
      </trkpt>
      <trkpt lat="44.31822" lon="5.92235">
        <ele>569</ele>
        <time>2019-04-02T12:03:52Z</time>
      </trkpt>
      <trkpt lat="44.3182" lon="5.92241">
        <ele>569</ele>
        <time>2019-04-02T12:03:53Z</time>
      </trkpt>
      <trkpt lat="44.31819" lon="5.92247">
        <ele>569</ele>
        <time>2019-04-02T12:03:54Z</time>
      </trkpt>
      <trkpt lat="44.31819" lon="5.92255">
        <ele>568</ele>
        <time>2019-04-02T12:03:55Z</time>
      </trkpt>
      <trkpt lat="44.3182" lon="5.92263">
        <ele>568</ele>
        <time>2019-04-02T12:03:56Z</time>
      </trkpt>
      <trkpt lat="44.31821" lon="5.9227">
        <ele>567</ele>
        <time>2019-04-02T12:03:57Z</time>
      </trkpt>
      <trkpt lat="44.31824" lon="5.92279">
        <ele>567</ele>
        <time>2019-04-02T12:03:58Z</time>
      </trkpt>
      <trkpt lat="44.31827" lon="5.92287">
        <ele>566</ele>
        <time>2019-04-02T12:03:59Z</time>
      </trkpt>
      <trkpt lat="44.3183" lon="5.92296">
        <ele>566</ele>
        <time>2019-04-02T12:04:00Z</time>
      </trkpt>
      <trkpt lat="44.31833" lon="5.92306">
        <ele>565</ele>
        <time>2019-04-02T12:04:01Z</time>
      </trkpt>
      <trkpt lat="44.31837" lon="5.92315">
        <ele>564</ele>
        <time>2019-04-02T12:04:02Z</time>
      </trkpt>
      <trkpt lat="44.3184" lon="5.92326">
        <ele>564</ele>
        <time>2019-04-02T12:04:03Z</time>
      </trkpt>
      <trkpt lat="44.31844" lon="5.92337">
        <ele>563</ele>
        <time>2019-04-02T12:04:04Z</time>
      </trkpt>
      <trkpt lat="44.31848" lon="5.92349">
        <ele>562</ele>
        <time>2019-04-02T12:04:05Z</time>
      </trkpt>
      <trkpt lat="44.31851" lon="5.92361">
        <ele>561</ele>
        <time>2019-04-02T12:04:06Z</time>
      </trkpt>
      <trkpt lat="44.31854" lon="5.92374">
        <ele>561</ele>
        <time>2019-04-02T12:04:07Z</time>
      </trkpt>
      <trkpt lat="44.31858" lon="5.92387">
        <ele>560</ele>
        <time>2019-04-02T12:04:08Z</time>
      </trkpt>
      <trkpt lat="44.31862" lon="5.924">
        <ele>559</ele>
        <time>2019-04-02T12:04:09Z</time>
      </trkpt>
      <trkpt lat="44.31866" lon="5.92413">
        <ele>558</ele>
        <time>2019-04-02T12:04:10Z</time>
      </trkpt>
      <trkpt lat="44.31869" lon="5.92424">
        <ele>557</ele>
        <time>2019-04-02T12:04:11Z</time>
      </trkpt>
      <trkpt lat="44.31872" lon="5.92434">
        <ele>556</ele>
        <time>2019-04-02T12:04:12Z</time>
      </trkpt>
      <trkpt lat="44.31873" lon="5.92444">
        <ele>555</ele>
        <time>2019-04-02T12:04:13Z</time>
      </trkpt>
      <trkpt lat="44.31873" lon="5.92453">
        <ele>555</ele>
        <time>2019-04-02T12:04:14Z</time>
      </trkpt>
      <trkpt lat="44.31871" lon="5.92462">
        <ele>554</ele>
        <time>2019-04-02T12:04:15Z</time>
      </trkpt>
      <trkpt lat="44.31865" lon="5.92469">
        <ele>553</ele>
        <time>2019-04-02T12:04:16Z</time>
      </trkpt>
      <trkpt lat="44.31858" lon="5.92473">
        <ele>553</ele>
        <time>2019-04-02T12:04:17Z</time>
      </trkpt>
      <trkpt lat="44.31848" lon="5.92473">
        <ele>552</ele>
        <time>2019-04-02T12:04:18Z</time>
      </trkpt>
      <trkpt lat="44.31839" lon="5.92471">
        <ele>551</ele>
        <time>2019-04-02T12:04:19Z</time>
      </trkpt>
      <trkpt lat="44.31832" lon="5.92465">
        <ele>551</ele>
        <time>2019-04-02T12:04:20Z</time>
      </trkpt>
      <trkpt lat="44.31826" lon="5.92458">
        <ele>551</ele>
        <time>2019-04-02T12:04:21Z</time>
      </trkpt>
      <trkpt lat="44.31821" lon="5.9245">
        <ele>550</ele>
        <time>2019-04-02T12:04:22Z</time>
      </trkpt>
      <trkpt lat="44.31816" lon="5.92442">
        <ele>550</ele>
        <time>2019-04-02T12:04:23Z</time>
      </trkpt>
      <trkpt lat="44.31812" lon="5.92434">
        <ele>550</ele>
        <time>2019-04-02T12:04:24Z</time>
      </trkpt>
      <trkpt lat="44.31807" lon="5.92426">
        <ele>549</ele>
        <time>2019-04-02T12:04:25Z</time>
      </trkpt>
      <trkpt lat="44.31802" lon="5.92417">
        <ele>549</ele>
        <time>2019-04-02T12:04:26Z</time>
      </trkpt>
      <trkpt lat="44.31797" lon="5.92409">
        <ele>549</ele>
        <time>2019-04-02T12:04:27Z</time>
      </trkpt>
      <trkpt lat="44.31794" lon="5.92399">
        <ele>549</ele>
        <time>2019-04-02T12:04:28Z</time>
      </trkpt>
      <trkpt lat="44.31789" lon="5.92389">
        <ele>549</ele>
        <time>2019-04-02T12:04:29Z</time>
      </trkpt>
      <trkpt lat="44.31786" lon="5.9238">
        <ele>549</ele>
        <time>2019-04-02T12:04:30Z</time>
      </trkpt>
      <trkpt lat="44.31782" lon="5.92372">
        <ele>549</ele>
        <time>2019-04-02T12:04:31Z</time>
      </trkpt>
      <trkpt lat="44.31776" lon="5.92364">
        <ele>549</ele>
        <time>2019-04-02T12:04:32Z</time>
      </trkpt>
      <trkpt lat="44.3177" lon="5.92357">
        <ele>549</ele>
        <time>2019-04-02T12:04:33Z</time>
      </trkpt>
      <trkpt lat="44.31763" lon="5.92352">
        <ele>548</ele>
        <time>2019-04-02T12:04:34Z</time>
      </trkpt>
      <trkpt lat="44.31757" lon="5.92348">
        <ele>548</ele>
        <time>2019-04-02T12:04:35Z</time>
      </trkpt>
      <trkpt lat="44.31749" lon="5.92346">
        <ele>548</ele>
        <time>2019-04-02T12:04:36Z</time>
      </trkpt>
      <trkpt lat="44.31742" lon="5.92345">
        <ele>548</ele>
        <time>2019-04-02T12:04:37Z</time>
      </trkpt>
      <trkpt lat="44.31735" lon="5.92345">
        <ele>548</ele>
        <time>2019-04-02T12:04:38Z</time>
      </trkpt>
      <trkpt lat="44.31728" lon="5.92348">
        <ele>547</ele>
        <time>2019-04-02T12:04:39Z</time>
      </trkpt>
      <trkpt lat="44.31722" lon="5.92351">
        <ele>547</ele>
        <time>2019-04-02T12:04:40Z</time>
      </trkpt>
      <trkpt lat="44.31716" lon="5.92356">
        <ele>547</ele>
        <time>2019-04-02T12:04:41Z</time>
      </trkpt>
      <trkpt lat="44.3171" lon="5.92362">
        <ele>547</ele>
        <time>2019-04-02T12:04:42Z</time>
      </trkpt>
      <trkpt lat="44.31705" lon="5.92368">
        <ele>546</ele>
        <time>2019-04-02T12:04:43Z</time>
      </trkpt>
      <trkpt lat="44.317" lon="5.92374">
        <ele>546</ele>
        <time>2019-04-02T12:04:44Z</time>
      </trkpt>
      <trkpt lat="44.31694" lon="5.9238">
        <ele>546</ele>
        <time>2019-04-02T12:04:45Z</time>
      </trkpt>
      <trkpt lat="44.31689" lon="5.92386">
        <ele>546</ele>
        <time>2019-04-02T12:04:46Z</time>
      </trkpt>
      <trkpt lat="44.31683" lon="5.92392">
        <ele>545</ele>
        <time>2019-04-02T12:04:47Z</time>
      </trkpt>
      <trkpt lat="44.31677" lon="5.92399">
        <ele>545</ele>
        <time>2019-04-02T12:04:48Z</time>
      </trkpt>
      <trkpt lat="44.3167" lon="5.92405">
        <ele>545</ele>
        <time>2019-04-02T12:04:49Z</time>
      </trkpt>
      <trkpt lat="44.31664" lon="5.92411">
        <ele>545</ele>
        <time>2019-04-02T12:04:50Z</time>
      </trkpt>
      <trkpt lat="44.31658" lon="5.92417">
        <ele>545</ele>
        <time>2019-04-02T12:04:51Z</time>
      </trkpt>
      <trkpt lat="44.31652" lon="5.92425">
        <ele>544</ele>
        <time>2019-04-02T12:04:52Z</time>
      </trkpt>
      <trkpt lat="44.31647" lon="5.92433">
        <ele>544</ele>
        <time>2019-04-02T12:04:53Z</time>
      </trkpt>
      <trkpt lat="44.31643" lon="5.92441">
        <ele>544</ele>
        <time>2019-04-02T12:04:54Z</time>
      </trkpt>
      <trkpt lat="44.31639" lon="5.92451">
        <ele>544</ele>
        <time>2019-04-02T12:04:55Z</time>
      </trkpt>
      <trkpt lat="44.31636" lon="5.9246">
        <ele>543</ele>
        <time>2019-04-02T12:04:56Z</time>
      </trkpt>
      <trkpt lat="44.31632" lon="5.92469">
        <ele>543</ele>
        <time>2019-04-02T12:04:57Z</time>
      </trkpt>
      <trkpt lat="44.31627" lon="5.92478">
        <ele>543</ele>
        <time>2019-04-02T12:04:58Z</time>
      </trkpt>
      <trkpt lat="44.31622" lon="5.92486">
        <ele>542</ele>
        <time>2019-04-02T12:04:59Z</time>
      </trkpt>
      <trkpt lat="44.31617" lon="5.92494">
        <ele>542</ele>
        <time>2019-04-02T12:05:00Z</time>
      </trkpt>
      <trkpt lat="44.31612" lon="5.92502">
        <ele>542</ele>
        <time>2019-04-02T12:05:01Z</time>
      </trkpt>
      <trkpt lat="44.31607" lon="5.92511">
        <ele>541</ele>
        <time>2019-04-02T12:05:02Z</time>
      </trkpt>
      <trkpt lat="44.31603" lon="5.9252">
        <ele>541</ele>
        <time>2019-04-02T12:05:03Z</time>
      </trkpt>
      <trkpt lat="44.31598" lon="5.92529">
        <ele>541</ele>
        <time>2019-04-02T12:05:04Z</time>
      </trkpt>
      <trkpt lat="44.31594" lon="5.92538">
        <ele>540</ele>
        <time>2019-04-02T12:05:05Z</time>
      </trkpt>
      <trkpt lat="44.31589" lon="5.92547">
        <ele>540</ele>
        <time>2019-04-02T12:05:06Z</time>
      </trkpt>
      <trkpt lat="44.31584" lon="5.92556">
        <ele>540</ele>
        <time>2019-04-02T12:05:07Z</time>
      </trkpt>
      <trkpt lat="44.31578" lon="5.92564">
        <ele>540</ele>
        <time>2019-04-02T12:05:08Z</time>
      </trkpt>
      <trkpt lat="44.31572" lon="5.92572">
        <ele>539</ele>
        <time>2019-04-02T12:05:09Z</time>
      </trkpt>
      <trkpt lat="44.31567" lon="5.92579">
        <ele>539</ele>
        <time>2019-04-02T12:05:10Z</time>
      </trkpt>
      <trkpt lat="44.3156" lon="5.92586">
        <ele>539</ele>
        <time>2019-04-02T12:05:11Z</time>
      </trkpt>
      <trkpt lat="44.31554" lon="5.92592">
        <ele>539</ele>
        <time>2019-04-02T12:05:12Z</time>
      </trkpt>
      <trkpt lat="44.31548" lon="5.92598">
        <ele>539</ele>
        <time>2019-04-02T12:05:13Z</time>
      </trkpt>
      <trkpt lat="44.31542" lon="5.92605">
        <ele>538</ele>
        <time>2019-04-02T12:05:14Z</time>
      </trkpt>
      <trkpt lat="44.31536" lon="5.92611">
        <ele>538</ele>
        <time>2019-04-02T12:05:15Z</time>
      </trkpt>
      <trkpt lat="44.3153" lon="5.92618">
        <ele>538</ele>
        <time>2019-04-02T12:05:16Z</time>
      </trkpt>
      <trkpt lat="44.31525" lon="5.92624">
        <ele>537</ele>
        <time>2019-04-02T12:05:17Z</time>
      </trkpt>
      <trkpt lat="44.31519" lon="5.9263">
        <ele>537</ele>
        <time>2019-04-02T12:05:18Z</time>
      </trkpt>
      <trkpt lat="44.31513" lon="5.92634">
        <ele>537</ele>
        <time>2019-04-02T12:05:19Z</time>
      </trkpt>
      <trkpt lat="44.31507" lon="5.92639">
        <ele>536</ele>
        <time>2019-04-02T12:05:20Z</time>
      </trkpt>
      <trkpt lat="44.31501" lon="5.92642">
        <ele>536</ele>
        <time>2019-04-02T12:05:21Z</time>
      </trkpt>
      <trkpt lat="44.31495" lon="5.92646">
        <ele>536</ele>
        <time>2019-04-02T12:05:22Z</time>
      </trkpt>
      <trkpt lat="44.31488" lon="5.92649">
        <ele>535</ele>
        <time>2019-04-02T12:05:23Z</time>
      </trkpt>
      <trkpt lat="44.31483" lon="5.92653">
        <ele>534</ele>
        <time>2019-04-02T12:05:24Z</time>
      </trkpt>
      <trkpt lat="44.31477" lon="5.92658">
        <ele>534</ele>
        <time>2019-04-02T12:05:25Z</time>
      </trkpt>
      <trkpt lat="44.31471" lon="5.92662">
        <ele>533</ele>
        <time>2019-04-02T12:05:26Z</time>
      </trkpt>
      <trkpt lat="44.31465" lon="5.92667">
        <ele>533</ele>
        <time>2019-04-02T12:05:27Z</time>
      </trkpt>
      <trkpt lat="44.31459" lon="5.92672">
        <ele>533</ele>
        <time>2019-04-02T12:05:28Z</time>
      </trkpt>
      <trkpt lat="44.31453" lon="5.92677">
        <ele>533</ele>
        <time>2019-04-02T12:05:29Z</time>
      </trkpt>
      <trkpt lat="44.31447" lon="5.92682">
        <ele>533</ele>
        <time>2019-04-02T12:05:30Z</time>
      </trkpt>
      <trkpt lat="44.3144" lon="5.92686">
        <ele>533</ele>
        <time>2019-04-02T12:05:31Z</time>
      </trkpt>
      <trkpt lat="44.31433" lon="5.92689">
        <ele>533</ele>
        <time>2019-04-02T12:05:32Z</time>
      </trkpt>
      <trkpt lat="44.31426" lon="5.92692">
        <ele>533</ele>
        <time>2019-04-02T12:05:33Z</time>
      </trkpt>
      <trkpt lat="44.31419" lon="5.92695">
        <ele>533</ele>
        <time>2019-04-02T12:05:34Z</time>
      </trkpt>
      <trkpt lat="44.31412" lon="5.92697">
        <ele>533</ele>
        <time>2019-04-02T12:05:35Z</time>
      </trkpt>
      <trkpt lat="44.31406" lon="5.927">
        <ele>533</ele>
        <time>2019-04-02T12:05:36Z</time>
      </trkpt>
      <trkpt lat="44.314" lon="5.92703">
        <ele>533</ele>
        <time>2019-04-02T12:05:37Z</time>
      </trkpt>
      <trkpt lat="44.31393" lon="5.92706">
        <ele>532</ele>
        <time>2019-04-02T12:05:38Z</time>
      </trkpt>
      <trkpt lat="44.31387" lon="5.9271">
        <ele>532</ele>
        <time>2019-04-02T12:05:39Z</time>
      </trkpt>
      <trkpt lat="44.31382" lon="5.92714">
        <ele>532</ele>
        <time>2019-04-02T12:05:40Z</time>
      </trkpt>
      <trkpt lat="44.31376" lon="5.92718">
        <ele>532</ele>
        <time>2019-04-02T12:05:41Z</time>
      </trkpt>
      <trkpt lat="44.3137" lon="5.92723">
        <ele>532</ele>
        <time>2019-04-02T12:05:42Z</time>
      </trkpt>
      <trkpt lat="44.31364" lon="5.92728">
        <ele>532</ele>
        <time>2019-04-02T12:05:43Z</time>
      </trkpt>
      <trkpt lat="44.31359" lon="5.92732">
        <ele>532</ele>
        <time>2019-04-02T12:05:44Z</time>
      </trkpt>
      <trkpt lat="44.31354" lon="5.92737">
        <ele>532</ele>
        <time>2019-04-02T12:05:45Z</time>
      </trkpt>
      <trkpt lat="44.31349" lon="5.92742">
        <ele>531</ele>
        <time>2019-04-02T12:05:46Z</time>
      </trkpt>
      <trkpt lat="44.31343" lon="5.92746">
        <ele>531</ele>
        <time>2019-04-02T12:05:47Z</time>
      </trkpt>
      <trkpt lat="44.31337" lon="5.9275">
        <ele>531</ele>
        <time>2019-04-02T12:05:48Z</time>
      </trkpt>
      <trkpt lat="44.31332" lon="5.92753">
        <ele>531</ele>
        <time>2019-04-02T12:05:49Z</time>
      </trkpt>
      <trkpt lat="44.31327" lon="5.92757">
        <ele>531</ele>
        <time>2019-04-02T12:05:50Z</time>
      </trkpt>
      <trkpt lat="44.31321" lon="5.9276">
        <ele>531</ele>
        <time>2019-04-02T12:05:51Z</time>
      </trkpt>
      <trkpt lat="44.31315" lon="5.92763">
        <ele>531</ele>
        <time>2019-04-02T12:05:52Z</time>
      </trkpt>
      <trkpt lat="44.31309" lon="5.92765">
        <ele>531</ele>
        <time>2019-04-02T12:05:53Z</time>
      </trkpt>
      <trkpt lat="44.31302" lon="5.92767">
        <ele>531</ele>
        <time>2019-04-02T12:05:54Z</time>
      </trkpt>
      <trkpt lat="44.31296" lon="5.92769">
        <ele>531</ele>
        <time>2019-04-02T12:05:55Z</time>
      </trkpt>
      <trkpt lat="44.31289" lon="5.92771">
        <ele>531</ele>
        <time>2019-04-02T12:05:56Z</time>
      </trkpt>
      <trkpt lat="44.31283" lon="5.92773">
        <ele>531</ele>
        <time>2019-04-02T12:05:57Z</time>
      </trkpt>
      <trkpt lat="44.31276" lon="5.92776">
        <ele>531</ele>
        <time>2019-04-02T12:05:58Z</time>
      </trkpt>
      <trkpt lat="44.31271" lon="5.9278">
        <ele>531</ele>
        <time>2019-04-02T12:05:59Z</time>
      </trkpt>
      <trkpt lat="44.31266" lon="5.92786">
        <ele>531</ele>
        <time>2019-04-02T12:06:00Z</time>
      </trkpt>
      <trkpt lat="44.31262" lon="5.92793">
        <ele>531</ele>
        <time>2019-04-02T12:06:01Z</time>
      </trkpt>
      <trkpt lat="44.31258" lon="5.928">
        <ele>531</ele>
        <time>2019-04-02T12:06:02Z</time>
      </trkpt>
      <trkpt lat="44.31256" lon="5.92807">
        <ele>531</ele>
        <time>2019-04-02T12:06:03Z</time>
      </trkpt>
      <trkpt lat="44.31253" lon="5.92815">
        <ele>531</ele>
        <time>2019-04-02T12:06:04Z</time>
      </trkpt>
      <trkpt lat="44.3125" lon="5.92824">
        <ele>531</ele>
        <time>2019-04-02T12:06:05Z</time>
      </trkpt>
      <trkpt lat="44.31248" lon="5.92832">
        <ele>531</ele>
        <time>2019-04-02T12:06:06Z</time>
      </trkpt>
      <trkpt lat="44.31245" lon="5.9284">
        <ele>531</ele>
        <time>2019-04-02T12:06:07Z</time>
      </trkpt>
      <trkpt lat="44.31241" lon="5.92848">
        <ele>531</ele>
        <time>2019-04-02T12:06:08Z</time>
      </trkpt>
      <trkpt lat="44.31238" lon="5.92857">
        <ele>531</ele>
        <time>2019-04-02T12:06:09Z</time>
      </trkpt>
      <trkpt lat="44.31236" lon="5.92865">
        <ele>530</ele>
        <time>2019-04-02T12:06:10Z</time>
      </trkpt>
      <trkpt lat="44.31236" lon="5.92875">
        <ele>530</ele>
        <time>2019-04-02T12:06:11Z</time>
      </trkpt>
      <trkpt lat="44.31237" lon="5.92884">
        <ele>530</ele>
        <time>2019-04-02T12:06:12Z</time>
      </trkpt>
      <trkpt lat="44.31239" lon="5.92893">
        <ele>530</ele>
        <time>2019-04-02T12:06:13Z</time>
      </trkpt>
      <trkpt lat="44.31243" lon="5.92902">
        <ele>529</ele>
        <time>2019-04-02T12:06:14Z</time>
      </trkpt>
      <trkpt lat="44.31247" lon="5.9291">
        <ele>529</ele>
        <time>2019-04-02T12:06:15Z</time>
      </trkpt>
      <trkpt lat="44.31253" lon="5.92917">
        <ele>529</ele>
        <time>2019-04-02T12:06:16Z</time>
      </trkpt>
      <trkpt lat="44.31259" lon="5.92925">
        <ele>529</ele>
        <time>2019-04-02T12:06:17Z</time>
      </trkpt>
      <trkpt lat="44.31265" lon="5.92933">
        <ele>528</ele>
        <time>2019-04-02T12:06:18Z</time>
      </trkpt>
      <trkpt lat="44.3127" lon="5.92942">
        <ele>528</ele>
        <time>2019-04-02T12:06:19Z</time>
      </trkpt>
      <trkpt lat="44.31273" lon="5.92953">
        <ele>528</ele>
        <time>2019-04-02T12:06:20Z</time>
      </trkpt>
      <trkpt lat="44.31274" lon="5.92965">
        <ele>527</ele>
        <time>2019-04-02T12:06:21Z</time>
      </trkpt>
      <trkpt lat="44.31273" lon="5.92978">
        <ele>527</ele>
        <time>2019-04-02T12:06:22Z</time>
      </trkpt>
      <trkpt lat="44.3127" lon="5.92989">
        <ele>527</ele>
        <time>2019-04-02T12:06:23Z</time>
      </trkpt>
      <trkpt lat="44.31264" lon="5.93">
        <ele>526</ele>
        <time>2019-04-02T12:06:24Z</time>
      </trkpt>
      <trkpt lat="44.31258" lon="5.93009">
        <ele>526</ele>
        <time>2019-04-02T12:06:25Z</time>
      </trkpt>
      <trkpt lat="44.31252" lon="5.93016">
        <ele>526</ele>
        <time>2019-04-02T12:06:26Z</time>
      </trkpt>
      <trkpt lat="44.31245" lon="5.9302">
        <ele>526</ele>
        <time>2019-04-02T12:06:27Z</time>
      </trkpt>
      <trkpt lat="44.3124" lon="5.93018">
        <ele>526</ele>
        <time>2019-04-02T12:06:28Z</time>
      </trkpt>
      <trkpt lat="44.31236" lon="5.93012">
        <ele>526</ele>
        <time>2019-04-02T12:06:29Z</time>
      </trkpt>
      <trkpt lat="44.31232" lon="5.93006">
        <ele>526</ele>
        <time>2019-04-02T12:06:30Z</time>
      </trkpt>
      <trkpt lat="44.31227" lon="5.92999">
        <ele>526</ele>
        <time>2019-04-02T12:06:31Z</time>
      </trkpt>
      <trkpt lat="44.31223" lon="5.92991">
        <ele>526</ele>
        <time>2019-04-02T12:06:32Z</time>
      </trkpt>
      <trkpt lat="44.31218" lon="5.92984">
        <ele>526</ele>
        <time>2019-04-02T12:06:33Z</time>
      </trkpt>
      <trkpt lat="44.31213" lon="5.92978">
        <ele>526</ele>
        <time>2019-04-02T12:06:34Z</time>
      </trkpt>
      <trkpt lat="44.31208" lon="5.92972">
        <ele>526</ele>
        <time>2019-04-02T12:06:35Z</time>
      </trkpt>
      <trkpt lat="44.31203" lon="5.92967">
        <ele>526</ele>
        <time>2019-04-02T12:06:36Z</time>
      </trkpt>
      <trkpt lat="44.31197" lon="5.92962">
        <ele>526</ele>
        <time>2019-04-02T12:06:37Z</time>
      </trkpt>
      <trkpt lat="44.31192" lon="5.92958">
        <ele>526</ele>
        <time>2019-04-02T12:06:38Z</time>
      </trkpt>
      <trkpt lat="44.31187" lon="5.92953">
        <ele>526</ele>
        <time>2019-04-02T12:06:39Z</time>
      </trkpt>
      <trkpt lat="44.31181" lon="5.92948">
        <ele>525</ele>
        <time>2019-04-02T12:06:40Z</time>
      </trkpt>
      <trkpt lat="44.31176" lon="5.92943">
        <ele>525</ele>
        <time>2019-04-02T12:06:41Z</time>
      </trkpt>
      <trkpt lat="44.31171" lon="5.92937">
        <ele>525</ele>
        <time>2019-04-02T12:06:42Z</time>
      </trkpt>
      <trkpt lat="44.31165" lon="5.92931">
        <ele>525</ele>
        <time>2019-04-02T12:06:43Z</time>
      </trkpt>
      <trkpt lat="44.31161" lon="5.92925">
        <ele>525</ele>
        <time>2019-04-02T12:06:44Z</time>
      </trkpt>
      <trkpt lat="44.31156" lon="5.92919">
        <ele>525</ele>
        <time>2019-04-02T12:06:45Z</time>
      </trkpt>
      <trkpt lat="44.31151" lon="5.92914">
        <ele>525</ele>
        <time>2019-04-02T12:06:46Z</time>
      </trkpt>
      <trkpt lat="44.31147" lon="5.9291">
        <ele>525</ele>
        <time>2019-04-02T12:06:47Z</time>
      </trkpt>
      <trkpt lat="44.31141" lon="5.92906">
        <ele>525</ele>
        <time>2019-04-02T12:06:48Z</time>
      </trkpt>
      <trkpt lat="44.31136" lon="5.92903">
        <ele>525</ele>
        <time>2019-04-02T12:06:49Z</time>
      </trkpt>
      <trkpt lat="44.31131" lon="5.92901">
        <ele>525</ele>
        <time>2019-04-02T12:06:50Z</time>
      </trkpt>
      <trkpt lat="44.31125" lon="5.92899">
        <ele>525</ele>
        <time>2019-04-02T12:06:51Z</time>
      </trkpt>
      <trkpt lat="44.3112" lon="5.92899">
        <ele>525</ele>
        <time>2019-04-02T12:06:52Z</time>
      </trkpt>
      <trkpt lat="44.31115" lon="5.929">
        <ele>525</ele>
        <time>2019-04-02T12:06:53Z</time>
      </trkpt>
      <trkpt lat="44.3111" lon="5.92901">
        <ele>525</ele>
        <time>2019-04-02T12:06:54Z</time>
      </trkpt>
      <trkpt lat="44.31106" lon="5.92902">
        <ele>525</ele>
        <time>2019-04-02T12:06:55Z</time>
      </trkpt>
      <trkpt lat="44.31102" lon="5.92904">
        <ele>525</ele>
        <time>2019-04-02T12:06:56Z</time>
      </trkpt>
      <trkpt lat="44.31097" lon="5.92906">
        <ele>525</ele>
        <time>2019-04-02T12:06:57Z</time>
      </trkpt>
      <trkpt lat="44.31093" lon="5.92908">
        <ele>525</ele>
        <time>2019-04-02T12:06:58Z</time>
      </trkpt>
      <trkpt lat="44.31089" lon="5.9291">
        <ele>525</ele>
        <time>2019-04-02T12:06:59Z</time>
      </trkpt>
      <trkpt lat="44.31086" lon="5.92912">
        <ele>525</ele>
        <time>2019-04-02T12:07:00Z</time>
      </trkpt>
      <trkpt lat="44.31082" lon="5.92914">
        <ele>525</ele>
        <time>2019-04-02T12:07:01Z</time>
      </trkpt>
      <trkpt lat="44.31078" lon="5.92917">
        <ele>525</ele>
        <time>2019-04-02T12:07:02Z</time>
      </trkpt>
      <trkpt lat="44.31074" lon="5.92919">
        <ele>525</ele>
        <time>2019-04-02T12:07:03Z</time>
      </trkpt>
      <trkpt lat="44.3107" lon="5.92921">
        <ele>525</ele>
        <time>2019-04-02T12:07:04Z</time>
      </trkpt>
      <trkpt lat="44.31066" lon="5.92923">
        <ele>525</ele>
        <time>2019-04-02T12:07:05Z</time>
      </trkpt>
      <trkpt lat="44.31062" lon="5.92926">
        <ele>525</ele>
        <time>2019-04-02T12:07:06Z</time>
      </trkpt>
      <trkpt lat="44.31058" lon="5.92928">
        <ele>525</ele>
        <time>2019-04-02T12:07:07Z</time>
      </trkpt>
      <trkpt lat="44.31054" lon="5.9293">
        <ele>525</ele>
        <time>2019-04-02T12:07:08Z</time>
      </trkpt>
      <trkpt lat="44.3105" lon="5.92933">
        <ele>525</ele>
        <time>2019-04-02T12:07:09Z</time>
      </trkpt>
      <trkpt lat="44.31046" lon="5.92935">
        <ele>525</ele>
        <time>2019-04-02T12:07:10Z</time>
      </trkpt>
      <trkpt lat="44.31041" lon="5.92938">
        <ele>525</ele>
        <time>2019-04-02T12:07:11Z</time>
      </trkpt>
      <trkpt lat="44.31036" lon="5.9294">
        <ele>525</ele>
        <time>2019-04-02T12:07:12Z</time>
      </trkpt>
      <trkpt lat="44.31031" lon="5.92943">
        <ele>525</ele>
        <time>2019-04-02T12:07:13Z</time>
      </trkpt>
      <trkpt lat="44.31026" lon="5.92946">
        <ele>525</ele>
        <time>2019-04-02T12:07:14Z</time>
      </trkpt>
      <trkpt lat="44.3102" lon="5.9295">
        <ele>525</ele>
        <time>2019-04-02T12:07:15Z</time>
      </trkpt>
      <trkpt lat="44.31015" lon="5.92953">
        <ele>525</ele>
        <time>2019-04-02T12:07:16Z</time>
      </trkpt>
      <trkpt lat="44.3101" lon="5.92957">
        <ele>525</ele>
        <time>2019-04-02T12:07:17Z</time>
      </trkpt>
      <trkpt lat="44.31005" lon="5.92961">
        <ele>525</ele>
        <time>2019-04-02T12:07:18Z</time>
      </trkpt>
      <trkpt lat="44.30999" lon="5.92965">
        <ele>525</ele>
        <time>2019-04-02T12:07:19Z</time>
      </trkpt>
      <trkpt lat="44.30993" lon="5.92969">
        <ele>525</ele>
        <time>2019-04-02T12:07:20Z</time>
      </trkpt>
      <trkpt lat="44.30987" lon="5.92973">
        <ele>525</ele>
        <time>2019-04-02T12:07:21Z</time>
      </trkpt>
      <trkpt lat="44.30981" lon="5.92977">
        <ele>525</ele>
        <time>2019-04-02T12:07:22Z</time>
      </trkpt>
      <trkpt lat="44.30974" lon="5.92981">
        <ele>525</ele>
        <time>2019-04-02T12:07:23Z</time>
      </trkpt>
      <trkpt lat="44.30967" lon="5.92984">
        <ele>525</ele>
        <time>2019-04-02T12:07:24Z</time>
      </trkpt>
      <trkpt lat="44.30959" lon="5.92988">
        <ele>525</ele>
        <time>2019-04-02T12:07:25Z</time>
      </trkpt>
      <trkpt lat="44.30952" lon="5.92992">
        <ele>524</ele>
        <time>2019-04-02T12:07:26Z</time>
      </trkpt>
      <trkpt lat="44.30945" lon="5.92996">
        <ele>524</ele>
        <time>2019-04-02T12:07:27Z</time>
      </trkpt>
      <trkpt lat="44.30938" lon="5.92999">
        <ele>523</ele>
        <time>2019-04-02T12:07:28Z</time>
      </trkpt>
      <trkpt lat="44.30931" lon="5.93003">
        <ele>523</ele>
        <time>2019-04-02T12:07:29Z</time>
      </trkpt>
      <trkpt lat="44.30924" lon="5.93006">
        <ele>523</ele>
        <time>2019-04-02T12:07:30Z</time>
      </trkpt>
      <trkpt lat="44.30917" lon="5.9301">
        <ele>523</ele>
        <time>2019-04-02T12:07:31Z</time>
      </trkpt>
      <trkpt lat="44.3091" lon="5.93013">
        <ele>522</ele>
        <time>2019-04-02T12:07:32Z</time>
      </trkpt>
      <trkpt lat="44.30904" lon="5.93017">
        <ele>522</ele>
        <time>2019-04-02T12:07:33Z</time>
      </trkpt>
      <trkpt lat="44.30897" lon="5.93021">
        <ele>522</ele>
        <time>2019-04-02T12:07:34Z</time>
      </trkpt>
      <trkpt lat="44.30891" lon="5.93024">
        <ele>522</ele>
        <time>2019-04-02T12:07:35Z</time>
      </trkpt>
      <trkpt lat="44.30884" lon="5.93027">
        <ele>522</ele>
        <time>2019-04-02T12:07:36Z</time>
      </trkpt>
      <trkpt lat="44.30878" lon="5.93031">
        <ele>522</ele>
        <time>2019-04-02T12:07:37Z</time>
      </trkpt>
      <trkpt lat="44.30872" lon="5.93034">
        <ele>522</ele>
        <time>2019-04-02T12:07:38Z</time>
      </trkpt>
      <trkpt lat="44.30866" lon="5.93037">
        <ele>522</ele>
        <time>2019-04-02T12:07:39Z</time>
      </trkpt>
      <trkpt lat="44.3086" lon="5.93041">
        <ele>522</ele>
        <time>2019-04-02T12:07:40Z</time>
      </trkpt>
      <trkpt lat="44.30854" lon="5.93044">
        <ele>522</ele>
        <time>2019-04-02T12:07:41Z</time>
      </trkpt>
      <trkpt lat="44.30848" lon="5.93047">
        <ele>522</ele>
        <time>2019-04-02T12:07:42Z</time>
      </trkpt>
      <trkpt lat="44.30842" lon="5.9305">
        <ele>522</ele>
        <time>2019-04-02T12:07:43Z</time>
      </trkpt>
      <trkpt lat="44.30836" lon="5.93053">
        <ele>522</ele>
        <time>2019-04-02T12:07:44Z</time>
      </trkpt>
      <trkpt lat="44.3083" lon="5.93056">
        <ele>522</ele>
        <time>2019-04-02T12:07:45Z</time>
      </trkpt>
      <trkpt lat="44.30825" lon="5.93059">
        <ele>522</ele>
        <time>2019-04-02T12:07:46Z</time>
      </trkpt>
      <trkpt lat="44.30819" lon="5.93061">
        <ele>522</ele>
        <time>2019-04-02T12:07:47Z</time>
      </trkpt>
      <trkpt lat="44.30814" lon="5.93064">
        <ele>522</ele>
        <time>2019-04-02T12:07:48Z</time>
      </trkpt>
      <trkpt lat="44.30808" lon="5.93068">
        <ele>522</ele>
        <time>2019-04-02T12:07:49Z</time>
      </trkpt>
      <trkpt lat="44.30803" lon="5.93071">
        <ele>522</ele>
        <time>2019-04-02T12:07:50Z</time>
      </trkpt>
      <trkpt lat="44.30798" lon="5.93073">
        <ele>522</ele>
        <time>2019-04-02T12:07:51Z</time>
      </trkpt>
      <trkpt lat="44.30792" lon="5.93076">
        <ele>521</ele>
        <time>2019-04-02T12:07:52Z</time>
      </trkpt>
      <trkpt lat="44.30787" lon="5.93079">
        <ele>521</ele>
        <time>2019-04-02T12:07:53Z</time>
      </trkpt>
      <trkpt lat="44.30782" lon="5.93082">
        <ele>521</ele>
        <time>2019-04-02T12:07:54Z</time>
      </trkpt>
      <trkpt lat="44.30777" lon="5.93085">
        <ele>521</ele>
        <time>2019-04-02T12:07:55Z</time>
      </trkpt>
      <trkpt lat="44.30771" lon="5.93087">
        <ele>521</ele>
        <time>2019-04-02T12:07:56Z</time>
      </trkpt>
      <trkpt lat="44.30766" lon="5.9309">
        <ele>521</ele>
        <time>2019-04-02T12:07:57Z</time>
      </trkpt>
      <trkpt lat="44.30761" lon="5.93093">
        <ele>521</ele>
        <time>2019-04-02T12:07:58Z</time>
      </trkpt>
      <trkpt lat="44.30756" lon="5.93096">
        <ele>521</ele>
        <time>2019-04-02T12:07:59Z</time>
      </trkpt>
      <trkpt lat="44.3075" lon="5.93099">
        <ele>521</ele>
        <time>2019-04-02T12:08:00Z</time>
      </trkpt>
      <trkpt lat="44.30745" lon="5.93101">
        <ele>521</ele>
        <time>2019-04-02T12:08:01Z</time>
      </trkpt>
      <trkpt lat="44.3074" lon="5.93104">
        <ele>521</ele>
        <time>2019-04-02T12:08:02Z</time>
      </trkpt>
      <trkpt lat="44.30735" lon="5.93107">
        <ele>521</ele>
        <time>2019-04-02T12:08:03Z</time>
      </trkpt>
      <trkpt lat="44.3073" lon="5.9311">
        <ele>521</ele>
        <time>2019-04-02T12:08:04Z</time>
      </trkpt>
      <trkpt lat="44.30726" lon="5.93112">
        <ele>521</ele>
        <time>2019-04-02T12:08:05Z</time>
      </trkpt>
      <trkpt lat="44.30721" lon="5.93115">
        <ele>521</ele>
        <time>2019-04-02T12:08:06Z</time>
      </trkpt>
      <trkpt lat="44.30716" lon="5.93118">
        <ele>521</ele>
        <time>2019-04-02T12:08:07Z</time>
      </trkpt>
      <trkpt lat="44.30711" lon="5.9312">
        <ele>521</ele>
        <time>2019-04-02T12:08:08Z</time>
      </trkpt>
      <trkpt lat="44.30706" lon="5.93123">
        <ele>521</ele>
        <time>2019-04-02T12:08:09Z</time>
      </trkpt>
      <trkpt lat="44.30701" lon="5.93125">
        <ele>521</ele>
        <time>2019-04-02T12:08:10Z</time>
      </trkpt>
      <trkpt lat="44.30696" lon="5.93128">
        <ele>521</ele>
        <time>2019-04-02T12:08:11Z</time>
      </trkpt>
      <trkpt lat="44.30691" lon="5.93131">
        <ele>521</ele>
        <time>2019-04-02T12:08:12Z</time>
      </trkpt>
      <trkpt lat="44.30687" lon="5.93134">
        <ele>521</ele>
        <time>2019-04-02T12:08:13Z</time>
      </trkpt>
      <trkpt lat="44.30682" lon="5.93136">
        <ele>521</ele>
        <time>2019-04-02T12:08:14Z</time>
      </trkpt>
      <trkpt lat="44.30677" lon="5.93139">
        <ele>521</ele>
        <time>2019-04-02T12:08:15Z</time>
      </trkpt>
      <trkpt lat="44.30672" lon="5.93142">
        <ele>521</ele>
        <time>2019-04-02T12:08:16Z</time>
      </trkpt>
      <trkpt lat="44.30667" lon="5.93145">
        <ele>521</ele>
        <time>2019-04-02T12:08:17Z</time>
      </trkpt>
      <trkpt lat="44.30662" lon="5.93147">
        <ele>521</ele>
        <time>2019-04-02T12:08:18Z</time>
      </trkpt>
      <trkpt lat="44.30658" lon="5.9315">
        <ele>521</ele>
        <time>2019-04-02T12:08:19Z</time>
      </trkpt>
      <trkpt lat="44.30653" lon="5.93152">
        <ele>521</ele>
        <time>2019-04-02T12:08:20Z</time>
      </trkpt>
      <trkpt lat="44.30648" lon="5.93155">
        <ele>521</ele>
        <time>2019-04-02T12:08:21Z</time>
      </trkpt>
      <trkpt lat="44.30643" lon="5.93157">
        <ele>521</ele>
        <time>2019-04-02T12:08:22Z</time>
      </trkpt>
      <trkpt lat="44.30639" lon="5.9316">
        <ele>521</ele>
        <time>2019-04-02T12:08:23Z</time>
      </trkpt>
      <trkpt lat="44.30634" lon="5.93163">
        <ele>521</ele>
        <time>2019-04-02T12:08:24Z</time>
      </trkpt>
      <trkpt lat="44.30629" lon="5.93165">
        <ele>521</ele>
        <time>2019-04-02T12:08:25Z</time>
      </trkpt>
      <trkpt lat="44.30624" lon="5.93168">
        <ele>521</ele>
        <time>2019-04-02T12:08:26Z</time>
      </trkpt>
      <trkpt lat="44.3062" lon="5.9317">
        <ele>521</ele>
        <time>2019-04-02T12:08:27Z</time>
      </trkpt>
      <trkpt lat="44.30615" lon="5.93173">
        <ele>521</ele>
        <time>2019-04-02T12:08:28Z</time>
      </trkpt>
      <trkpt lat="44.3061" lon="5.93175">
        <ele>521</ele>
        <time>2019-04-02T12:08:29Z</time>
      </trkpt>
      <trkpt lat="44.30605" lon="5.93178">
        <ele>521</ele>
        <time>2019-04-02T12:08:30Z</time>
      </trkpt>
      <trkpt lat="44.30601" lon="5.93181">
        <ele>521</ele>
        <time>2019-04-02T12:08:31Z</time>
      </trkpt>
      <trkpt lat="44.30596" lon="5.93183">
        <ele>521</ele>
        <time>2019-04-02T12:08:32Z</time>
      </trkpt>
      <trkpt lat="44.3059" lon="5.93185">
        <ele>521</ele>
        <time>2019-04-02T12:08:33Z</time>
      </trkpt>
      <trkpt lat="44.30585" lon="5.93188">
        <ele>521</ele>
        <time>2019-04-02T12:08:34Z</time>
      </trkpt>
      <trkpt lat="44.3058" lon="5.9319">
        <ele>521</ele>
        <time>2019-04-02T12:08:35Z</time>
      </trkpt>
      <trkpt lat="44.30575" lon="5.93192">
        <ele>521</ele>
        <time>2019-04-02T12:08:36Z</time>
      </trkpt>
      <trkpt lat="44.30569" lon="5.93194">
        <ele>521</ele>
        <time>2019-04-02T12:08:37Z</time>
      </trkpt>
      <trkpt lat="44.30564" lon="5.93196">
        <ele>521</ele>
        <time>2019-04-02T12:08:38Z</time>
      </trkpt>
      <trkpt lat="44.30559" lon="5.93198">
        <ele>521</ele>
        <time>2019-04-02T12:08:39Z</time>
      </trkpt>
      <trkpt lat="44.30554" lon="5.932">
        <ele>521</ele>
        <time>2019-04-02T12:08:40Z</time>
      </trkpt>
      <trkpt lat="44.30549" lon="5.93202">
        <ele>521</ele>
        <time>2019-04-02T12:08:41Z</time>
      </trkpt>
      <trkpt lat="44.30544" lon="5.93204">
        <ele>521</ele>
        <time>2019-04-02T12:08:42Z</time>
      </trkpt>
      <trkpt lat="44.30538" lon="5.93207">
        <ele>521</ele>
        <time>2019-04-02T12:08:43Z</time>
      </trkpt>
      <trkpt lat="44.30533" lon="5.93209">
        <ele>521</ele>
        <time>2019-04-02T12:08:44Z</time>
      </trkpt>
      <trkpt lat="44.30528" lon="5.93211">
        <ele>521</ele>
        <time>2019-04-02T12:08:45Z</time>
      </trkpt>
      <trkpt lat="44.30523" lon="5.93213">
        <ele>521</ele>
        <time>2019-04-02T12:08:46Z</time>
      </trkpt>
      <trkpt lat="44.30517" lon="5.93214">
        <ele>521</ele>
        <time>2019-04-02T12:08:47Z</time>
      </trkpt>
      <trkpt lat="44.30512" lon="5.93216">
        <ele>521</ele>
        <time>2019-04-02T12:08:48Z</time>
      </trkpt>
      <trkpt lat="44.30507" lon="5.93218">
        <ele>521</ele>
        <time>2019-04-02T12:08:49Z</time>
      </trkpt>
      <trkpt lat="44.30502" lon="5.9322">
        <ele>521</ele>
        <time>2019-04-02T12:08:50Z</time>
      </trkpt>
      <trkpt lat="44.30497" lon="5.93222">
        <ele>521</ele>
        <time>2019-04-02T12:08:51Z</time>
      </trkpt>
      <trkpt lat="44.30492" lon="5.93224">
        <ele>521</ele>
        <time>2019-04-02T12:08:52Z</time>
      </trkpt>
      <trkpt lat="44.30488" lon="5.93226">
        <ele>521</ele>
        <time>2019-04-02T12:08:53Z</time>
      </trkpt>
      <trkpt lat="44.30483" lon="5.93228">
        <ele>521</ele>
        <time>2019-04-02T12:08:54Z</time>
      </trkpt>
      <trkpt lat="44.30478" lon="5.9323">
        <ele>521</ele>
        <time>2019-04-02T12:08:55Z</time>
      </trkpt>
      <trkpt lat="44.30472" lon="5.93231">
        <ele>521</ele>
        <time>2019-04-02T12:08:56Z</time>
      </trkpt>
      <trkpt lat="44.30467" lon="5.93233">
        <ele>521</ele>
        <time>2019-04-02T12:08:57Z</time>
      </trkpt>
      <trkpt lat="44.30462" lon="5.93235">
        <ele>521</ele>
        <time>2019-04-02T12:08:58Z</time>
      </trkpt>
      <trkpt lat="44.30457" lon="5.93238">
        <ele>521</ele>
        <time>2019-04-02T12:08:59Z</time>
      </trkpt>
      <trkpt lat="44.30452" lon="5.9324">
        <ele>521</ele>
        <time>2019-04-02T12:09:00Z</time>
      </trkpt>
      <trkpt lat="44.30447" lon="5.93242">
        <ele>521</ele>
        <time>2019-04-02T12:09:01Z</time>
      </trkpt>
      <trkpt lat="44.30441" lon="5.93244">
        <ele>521</ele>
        <time>2019-04-02T12:09:02Z</time>
      </trkpt>
      <trkpt lat="44.30436" lon="5.93246">
        <ele>521</ele>
        <time>2019-04-02T12:09:03Z</time>
      </trkpt>
      <trkpt lat="44.30431" lon="5.93248">
        <ele>521</ele>
        <time>2019-04-02T12:09:04Z</time>
      </trkpt>
      <trkpt lat="44.30426" lon="5.9325">
        <ele>521</ele>
        <time>2019-04-02T12:09:05Z</time>
      </trkpt>
      <trkpt lat="44.30421" lon="5.93252">
        <ele>521</ele>
        <time>2019-04-02T12:09:06Z</time>
      </trkpt>
      <trkpt lat="44.30416" lon="5.93254">
        <ele>521</ele>
        <time>2019-04-02T12:09:07Z</time>
      </trkpt>
      <trkpt lat="44.3041" lon="5.93256">
        <ele>521</ele>
        <time>2019-04-02T12:09:08Z</time>
      </trkpt>
      <trkpt lat="44.30405" lon="5.93258">
        <ele>521</ele>
        <time>2019-04-02T12:09:09Z</time>
      </trkpt>
      <trkpt lat="44.304" lon="5.9326">
        <ele>521</ele>
        <time>2019-04-02T12:09:10Z</time>
      </trkpt>
      <trkpt lat="44.30395" lon="5.93263">
        <ele>521</ele>
        <time>2019-04-02T12:09:11Z</time>
      </trkpt>
      <trkpt lat="44.3039" lon="5.93265">
        <ele>521</ele>
        <time>2019-04-02T12:09:12Z</time>
      </trkpt>
      <trkpt lat="44.30385" lon="5.93267">
        <ele>521</ele>
        <time>2019-04-02T12:09:13Z</time>
      </trkpt>
      <trkpt lat="44.3038" lon="5.93269">
        <ele>521</ele>
        <time>2019-04-02T12:09:14Z</time>
      </trkpt>
      <trkpt lat="44.30375" lon="5.93271">
        <ele>521</ele>
        <time>2019-04-02T12:09:15Z</time>
      </trkpt>
      <trkpt lat="44.3037" lon="5.93273">
        <ele>521</ele>
        <time>2019-04-02T12:09:16Z</time>
      </trkpt>
      <trkpt lat="44.30364" lon="5.93275">
        <ele>521</ele>
        <time>2019-04-02T12:09:17Z</time>
      </trkpt>
      <trkpt lat="44.30359" lon="5.93277">
        <ele>521</ele>
        <time>2019-04-02T12:09:18Z</time>
      </trkpt>
      <trkpt lat="44.30354" lon="5.93279">
        <ele>521</ele>
        <time>2019-04-02T12:09:19Z</time>
      </trkpt>
      <trkpt lat="44.30349" lon="5.93281">
        <ele>521</ele>
        <time>2019-04-02T12:09:20Z</time>
      </trkpt>
      <trkpt lat="44.30343" lon="5.93283">
        <ele>521</ele>
        <time>2019-04-02T12:09:21Z</time>
      </trkpt>
      <trkpt lat="44.30338" lon="5.93285">
        <ele>521</ele>
        <time>2019-04-02T12:09:22Z</time>
      </trkpt>
      <trkpt lat="44.30333" lon="5.93287">
        <ele>521</ele>
        <time>2019-04-02T12:09:23Z</time>
      </trkpt>
      <trkpt lat="44.30327" lon="5.9329">
        <ele>521</ele>
        <time>2019-04-02T12:09:24Z</time>
      </trkpt>
      <trkpt lat="44.30322" lon="5.93292">
        <ele>521</ele>
        <time>2019-04-02T12:09:25Z</time>
      </trkpt>
      <trkpt lat="44.30316" lon="5.93294">
        <ele>521</ele>
        <time>2019-04-02T12:09:26Z</time>
      </trkpt>
      <trkpt lat="44.3031" lon="5.93296">
        <ele>521</ele>
        <time>2019-04-02T12:09:27Z</time>
      </trkpt>
      <trkpt lat="44.30305" lon="5.93299">
        <ele>521</ele>
        <time>2019-04-02T12:09:28Z</time>
      </trkpt>
      <trkpt lat="44.30299" lon="5.93301">
        <ele>521</ele>
        <time>2019-04-02T12:09:29Z</time>
      </trkpt>
      <trkpt lat="44.30294" lon="5.93303">
        <ele>521</ele>
        <time>2019-04-02T12:09:30Z</time>
      </trkpt>
      <trkpt lat="44.30288" lon="5.93305">
        <ele>521</ele>
        <time>2019-04-02T12:09:31Z</time>
      </trkpt>
      <trkpt lat="44.30282" lon="5.93307">
        <ele>521</ele>
        <time>2019-04-02T12:09:32Z</time>
      </trkpt>
      <trkpt lat="44.30276" lon="5.93309">
        <ele>521</ele>
        <time>2019-04-02T12:09:33Z</time>
      </trkpt>
      <trkpt lat="44.30271" lon="5.9331">
        <ele>521</ele>
        <time>2019-04-02T12:09:34Z</time>
      </trkpt>
      <trkpt lat="44.30265" lon="5.93312">
        <ele>521</ele>
        <time>2019-04-02T12:09:35Z</time>
      </trkpt>
      <trkpt lat="44.30259" lon="5.93313">
        <ele>521</ele>
        <time>2019-04-02T12:09:36Z</time>
      </trkpt>
      <trkpt lat="44.30253" lon="5.93315">
        <ele>521</ele>
        <time>2019-04-02T12:09:37Z</time>
      </trkpt>
      <trkpt lat="44.30247" lon="5.93316">
        <ele>521</ele>
        <time>2019-04-02T12:09:38Z</time>
      </trkpt>
      <trkpt lat="44.30242" lon="5.93318">
        <ele>521</ele>
        <time>2019-04-02T12:09:39Z</time>
      </trkpt>
      <trkpt lat="44.30236" lon="5.93319">
        <ele>521</ele>
        <time>2019-04-02T12:09:40Z</time>
      </trkpt>
      <trkpt lat="44.3023" lon="5.9332">
        <ele>521</ele>
        <time>2019-04-02T12:09:41Z</time>
      </trkpt>
      <trkpt lat="44.30225" lon="5.93321">
        <ele>521</ele>
        <time>2019-04-02T12:09:42Z</time>
      </trkpt>
      <trkpt lat="44.30219" lon="5.93322">
        <ele>521</ele>
        <time>2019-04-02T12:09:43Z</time>
      </trkpt>
      <trkpt lat="44.30214" lon="5.93323">
        <ele>521</ele>
        <time>2019-04-02T12:09:44Z</time>
      </trkpt>
      <trkpt lat="44.30208" lon="5.93324">
        <ele>521</ele>
        <time>2019-04-02T12:09:45Z</time>
      </trkpt>
      <trkpt lat="44.30203" lon="5.93325">
        <ele>521</ele>
        <time>2019-04-02T12:09:46Z</time>
      </trkpt>
      <trkpt lat="44.30198" lon="5.93326">
        <ele>521</ele>
        <time>2019-04-02T12:09:47Z</time>
      </trkpt>
      <trkpt lat="44.30193" lon="5.93327">
        <ele>521</ele>
        <time>2019-04-02T12:09:48Z</time>
      </trkpt>
      <trkpt lat="44.30187" lon="5.93328">
        <ele>521</ele>
        <time>2019-04-02T12:09:49Z</time>
      </trkpt>
      <trkpt lat="44.30182" lon="5.93329">
        <ele>521</ele>
        <time>2019-04-02T12:09:50Z</time>
      </trkpt>
      <trkpt lat="44.30176" lon="5.9333">
        <ele>521</ele>
        <time>2019-04-02T12:09:51Z</time>
      </trkpt>
      <trkpt lat="44.3017" lon="5.93332">
        <ele>521</ele>
        <time>2019-04-02T12:09:52Z</time>
      </trkpt>
      <trkpt lat="44.30165" lon="5.93333">
        <ele>521</ele>
        <time>2019-04-02T12:09:53Z</time>
      </trkpt>
      <trkpt lat="44.3016" lon="5.93334">
        <ele>520</ele>
        <time>2019-04-02T12:09:54Z</time>
      </trkpt>
      <trkpt lat="44.30154" lon="5.93336">
        <ele>520</ele>
        <time>2019-04-02T12:09:55Z</time>
      </trkpt>
      <trkpt lat="44.30149" lon="5.93337">
        <ele>519</ele>
        <time>2019-04-02T12:09:56Z</time>
      </trkpt>
      <trkpt lat="44.30144" lon="5.93338">
        <ele>519</ele>
        <time>2019-04-02T12:09:57Z</time>
      </trkpt>
      <trkpt lat="44.30138" lon="5.9334">
        <ele>518</ele>
        <time>2019-04-02T12:09:58Z</time>
      </trkpt>
      <trkpt lat="44.30133" lon="5.93341">
        <ele>518</ele>
        <time>2019-04-02T12:09:59Z</time>
      </trkpt>
      <trkpt lat="44.30128" lon="5.93342">
        <ele>517</ele>
        <time>2019-04-02T12:10:00Z</time>
      </trkpt>
      <trkpt lat="44.30123" lon="5.93343">
        <ele>517</ele>
        <time>2019-04-02T12:10:01Z</time>
      </trkpt>
      <trkpt lat="44.30118" lon="5.93344">
        <ele>517</ele>
        <time>2019-04-02T12:10:02Z</time>
      </trkpt>
      <trkpt lat="44.30113" lon="5.93345">
        <ele>516</ele>
        <time>2019-04-02T12:10:03Z</time>
      </trkpt>
      <trkpt lat="44.30108" lon="5.93347">
        <ele>516</ele>
        <time>2019-04-02T12:10:04Z</time>
      </trkpt>
      <trkpt lat="44.30103" lon="5.93348">
        <ele>516</ele>
        <time>2019-04-02T12:10:05Z</time>
      </trkpt>
      <trkpt lat="44.30097" lon="5.93349">
        <ele>516</ele>
        <time>2019-04-02T12:10:06Z</time>
      </trkpt>
      <trkpt lat="44.30092" lon="5.9335">
        <ele>516</ele>
        <time>2019-04-02T12:10:07Z</time>
      </trkpt>
      <trkpt lat="44.30086" lon="5.9335">
        <ele>516</ele>
        <time>2019-04-02T12:10:08Z</time>
      </trkpt>
      <trkpt lat="44.30081" lon="5.93351">
        <ele>516</ele>
        <time>2019-04-02T12:10:09Z</time>
      </trkpt>
      <trkpt lat="44.30075" lon="5.93351">
        <ele>516</ele>
        <time>2019-04-02T12:10:10Z</time>
      </trkpt>
      <trkpt lat="44.3007" lon="5.93351">
        <ele>516</ele>
        <time>2019-04-02T12:10:11Z</time>
      </trkpt>
      <trkpt lat="44.30064" lon="5.9335">
        <ele>516</ele>
        <time>2019-04-02T12:10:12Z</time>
      </trkpt>
      <trkpt lat="44.30058" lon="5.93349">
        <ele>516</ele>
        <time>2019-04-02T12:10:13Z</time>
      </trkpt>
      <trkpt lat="44.30052" lon="5.93348">
        <ele>516</ele>
        <time>2019-04-02T12:10:14Z</time>
      </trkpt>
      <trkpt lat="44.30046" lon="5.93347">
        <ele>516</ele>
        <time>2019-04-02T12:10:15Z</time>
      </trkpt>
      <trkpt lat="44.3004" lon="5.93345">
        <ele>516</ele>
        <time>2019-04-02T12:10:16Z</time>
      </trkpt>
      <trkpt lat="44.30035" lon="5.93344">
        <ele>516</ele>
        <time>2019-04-02T12:10:17Z</time>
      </trkpt>
      <trkpt lat="44.3003" lon="5.93343">
        <ele>516</ele>
        <time>2019-04-02T12:10:18Z</time>
      </trkpt>
      <trkpt lat="44.30025" lon="5.93341">
        <ele>517</ele>
        <time>2019-04-02T12:10:19Z</time>
      </trkpt>
      <trkpt lat="44.3002" lon="5.9334">
        <ele>517</ele>
        <time>2019-04-02T12:10:20Z</time>
      </trkpt>
      <trkpt lat="44.30015" lon="5.93338">
        <ele>517</ele>
        <time>2019-04-02T12:10:21Z</time>
      </trkpt>
      <trkpt lat="44.3001" lon="5.93337">
        <ele>518</ele>
        <time>2019-04-02T12:10:22Z</time>
      </trkpt>
      <trkpt lat="44.30005" lon="5.93335">
        <ele>518</ele>
        <time>2019-04-02T12:10:23Z</time>
      </trkpt>
      <trkpt lat="44.3" lon="5.93333">
        <ele>518</ele>
        <time>2019-04-02T12:10:24Z</time>
      </trkpt>
      <trkpt lat="44.29995" lon="5.93331">
        <ele>518</ele>
        <time>2019-04-02T12:10:25Z</time>
      </trkpt>
      <trkpt lat="44.29989" lon="5.93329">
        <ele>518</ele>
        <time>2019-04-02T12:10:26Z</time>
      </trkpt>
      <trkpt lat="44.29983" lon="5.93327">
        <ele>518</ele>
        <time>2019-04-02T12:10:27Z</time>
      </trkpt>
      <trkpt lat="44.29977" lon="5.93324">
        <ele>518</ele>
        <time>2019-04-02T12:10:28Z</time>
      </trkpt>
      <trkpt lat="44.29971" lon="5.93322">
        <ele>518</ele>
        <time>2019-04-02T12:10:29Z</time>
      </trkpt>
      <trkpt lat="44.29964" lon="5.93319">
        <ele>518</ele>
        <time>2019-04-02T12:10:30Z</time>
      </trkpt>
      <trkpt lat="44.29957" lon="5.93317">
        <ele>518</ele>
        <time>2019-04-02T12:10:31Z</time>
      </trkpt>
      <trkpt lat="44.2995" lon="5.93316">
        <ele>518</ele>
        <time>2019-04-02T12:10:32Z</time>
      </trkpt>
      <trkpt lat="44.29943" lon="5.93314">
        <ele>518</ele>
        <time>2019-04-02T12:10:33Z</time>
      </trkpt>
      <trkpt lat="44.29935" lon="5.93314">
        <ele>518</ele>
        <time>2019-04-02T12:10:34Z</time>
      </trkpt>
      <trkpt lat="44.29928" lon="5.93314">
        <ele>518</ele>
        <time>2019-04-02T12:10:35Z</time>
      </trkpt>
      <trkpt lat="44.29921" lon="5.93314">
        <ele>518</ele>
        <time>2019-04-02T12:10:36Z</time>
      </trkpt>
      <trkpt lat="44.29915" lon="5.93315">
        <ele>518</ele>
        <time>2019-04-02T12:10:37Z</time>
      </trkpt>
      <trkpt lat="44.29908" lon="5.93316">
        <ele>518</ele>
        <time>2019-04-02T12:10:38Z</time>
      </trkpt>
      <trkpt lat="44.29902" lon="5.93318">
        <ele>518</ele>
        <time>2019-04-02T12:10:39Z</time>
      </trkpt>
      <trkpt lat="44.29895" lon="5.93319">
        <ele>518</ele>
        <time>2019-04-02T12:10:40Z</time>
      </trkpt>
      <trkpt lat="44.2989" lon="5.9332">
        <ele>518</ele>
        <time>2019-04-02T12:10:41Z</time>
      </trkpt>
      <trkpt lat="44.29884" lon="5.93322">
        <ele>518</ele>
        <time>2019-04-02T12:10:42Z</time>
      </trkpt>
      <trkpt lat="44.29878" lon="5.93323">
        <ele>518</ele>
        <time>2019-04-02T12:10:43Z</time>
      </trkpt>
      <trkpt lat="44.29873" lon="5.93324">
        <ele>518</ele>
        <time>2019-04-02T12:10:44Z</time>
      </trkpt>
      <trkpt lat="44.29868" lon="5.93326">
        <ele>518</ele>
        <time>2019-04-02T12:10:45Z</time>
      </trkpt>
      <trkpt lat="44.29862" lon="5.93327">
        <ele>518</ele>
        <time>2019-04-02T12:10:46Z</time>
      </trkpt>
      <trkpt lat="44.29857" lon="5.93328">
        <ele>518</ele>
        <time>2019-04-02T12:10:47Z</time>
      </trkpt>
      <trkpt lat="44.29852" lon="5.93329">
        <ele>518</ele>
        <time>2019-04-02T12:10:48Z</time>
      </trkpt>
      <trkpt lat="44.29846" lon="5.93331">
        <ele>518</ele>
        <time>2019-04-02T12:10:49Z</time>
      </trkpt>
      <trkpt lat="44.29841" lon="5.93332">
        <ele>518</ele>
        <time>2019-04-02T12:10:50Z</time>
      </trkpt>
      <trkpt lat="44.29835" lon="5.93334">
        <ele>518</ele>
        <time>2019-04-02T12:10:51Z</time>
      </trkpt>
      <trkpt lat="44.2983" lon="5.93335">
        <ele>518</ele>
        <time>2019-04-02T12:10:52Z</time>
      </trkpt>
      <trkpt lat="44.29824" lon="5.93337">
        <ele>519</ele>
        <time>2019-04-02T12:10:53Z</time>
      </trkpt>
      <trkpt lat="44.29819" lon="5.93338">
        <ele>519</ele>
        <time>2019-04-02T12:10:54Z</time>
      </trkpt>
      <trkpt lat="44.29814" lon="5.9334">
        <ele>519</ele>
        <time>2019-04-02T12:10:55Z</time>
      </trkpt>
      <trkpt lat="44.29809" lon="5.93341">
        <ele>519</ele>
        <time>2019-04-02T12:10:56Z</time>
      </trkpt>
      <trkpt lat="44.29804" lon="5.93342">
        <ele>519</ele>
        <time>2019-04-02T12:10:57Z</time>
      </trkpt>
      <trkpt lat="44.29799" lon="5.93344">
        <ele>519</ele>
        <time>2019-04-02T12:10:58Z</time>
      </trkpt>
      <trkpt lat="44.29793" lon="5.93345">
        <ele>519</ele>
        <time>2019-04-02T12:10:59Z</time>
      </trkpt>
      <trkpt lat="44.29788" lon="5.93347">
        <ele>519</ele>
        <time>2019-04-02T12:11:00Z</time>
      </trkpt>
      <trkpt lat="44.29783" lon="5.93349">
        <ele>519</ele>
        <time>2019-04-02T12:11:01Z</time>
      </trkpt>
      <trkpt lat="44.29778" lon="5.9335">
        <ele>519</ele>
        <time>2019-04-02T12:11:02Z</time>
      </trkpt>
      <trkpt lat="44.29773" lon="5.93352">
        <ele>519</ele>
        <time>2019-04-02T12:11:03Z</time>
      </trkpt>
      <trkpt lat="44.29767" lon="5.93354">
        <ele>519</ele>
        <time>2019-04-02T12:11:04Z</time>
      </trkpt>
      <trkpt lat="44.29762" lon="5.93355">
        <ele>519</ele>
        <time>2019-04-02T12:11:05Z</time>
      </trkpt>
      <trkpt lat="44.29757" lon="5.93356">
        <ele>519</ele>
        <time>2019-04-02T12:11:06Z</time>
      </trkpt>
      <trkpt lat="44.29752" lon="5.93358">
        <ele>520</ele>
        <time>2019-04-02T12:11:07Z</time>
      </trkpt>
      <trkpt lat="44.29746" lon="5.93359">
        <ele>520</ele>
        <time>2019-04-02T12:11:08Z</time>
      </trkpt>
      <trkpt lat="44.29741" lon="5.9336">
        <ele>520</ele>
        <time>2019-04-02T12:11:09Z</time>
      </trkpt>
      <trkpt lat="44.29736" lon="5.93362">
        <ele>520</ele>
        <time>2019-04-02T12:11:10Z</time>
      </trkpt>
      <trkpt lat="44.29731" lon="5.93363">
        <ele>520</ele>
        <time>2019-04-02T12:11:11Z</time>
      </trkpt>
      <trkpt lat="44.29725" lon="5.93364">
        <ele>520</ele>
        <time>2019-04-02T12:11:12Z</time>
      </trkpt>
      <trkpt lat="44.2972" lon="5.93364">
        <ele>520</ele>
        <time>2019-04-02T12:11:13Z</time>
      </trkpt>
      <trkpt lat="44.29715" lon="5.93365">
        <ele>520</ele>
        <time>2019-04-02T12:11:14Z</time>
      </trkpt>
      <trkpt lat="44.2971" lon="5.93366">
        <ele>520</ele>
        <time>2019-04-02T12:11:15Z</time>
      </trkpt>
      <trkpt lat="44.29704" lon="5.93367">
        <ele>520</ele>
        <time>2019-04-02T12:11:16Z</time>
      </trkpt>
      <trkpt lat="44.29699" lon="5.93367">
        <ele>520</ele>
        <time>2019-04-02T12:11:17Z</time>
      </trkpt>
      <trkpt lat="44.29694" lon="5.93368">
        <ele>520</ele>
        <time>2019-04-02T12:11:18Z</time>
      </trkpt>
      <trkpt lat="44.29689" lon="5.93368">
        <ele>520</ele>
        <time>2019-04-02T12:11:19Z</time>
      </trkpt>
      <trkpt lat="44.29683" lon="5.93369">
        <ele>520</ele>
        <time>2019-04-02T12:11:20Z</time>
      </trkpt>
      <trkpt lat="44.29678" lon="5.9337">
        <ele>520</ele>
        <time>2019-04-02T12:11:21Z</time>
      </trkpt>
      <trkpt lat="44.29673" lon="5.9337">
        <ele>520</ele>
        <time>2019-04-02T12:11:22Z</time>
      </trkpt>
      <trkpt lat="44.29668" lon="5.93371">
        <ele>520</ele>
        <time>2019-04-02T12:11:23Z</time>
      </trkpt>
      <trkpt lat="44.29663" lon="5.93372">
        <ele>520</ele>
        <time>2019-04-02T12:11:24Z</time>
      </trkpt>
      <trkpt lat="44.29658" lon="5.93373">
        <ele>520</ele>
        <time>2019-04-02T12:11:25Z</time>
      </trkpt>
      <trkpt lat="44.29653" lon="5.93373">
        <ele>520</ele>
        <time>2019-04-02T12:11:26Z</time>
      </trkpt>
      <trkpt lat="44.29648" lon="5.93374">
        <ele>520</ele>
        <time>2019-04-02T12:11:27Z</time>
      </trkpt>
      <trkpt lat="44.29643" lon="5.93374">
        <ele>520</ele>
        <time>2019-04-02T12:11:28Z</time>
      </trkpt>
      <trkpt lat="44.29639" lon="5.93375">
        <ele>520</ele>
        <time>2019-04-02T12:11:29Z</time>
      </trkpt>
      <trkpt lat="44.29634" lon="5.93376">
        <ele>520</ele>
        <time>2019-04-02T12:11:30Z</time>
      </trkpt>
      <trkpt lat="44.29629" lon="5.93376">
        <ele>520</ele>
        <time>2019-04-02T12:11:31Z</time>
      </trkpt>
      <trkpt lat="44.29625" lon="5.93377">
        <ele>521</ele>
        <time>2019-04-02T12:11:32Z</time>
      </trkpt>
      <trkpt lat="44.2962" lon="5.93377">
        <ele>521</ele>
        <time>2019-04-02T12:11:33Z</time>
      </trkpt>
      <trkpt lat="44.29616" lon="5.93378">
        <ele>521</ele>
        <time>2019-04-02T12:11:34Z</time>
      </trkpt>
      <trkpt lat="44.29611" lon="5.93378">
        <ele>521</ele>
        <time>2019-04-02T12:11:35Z</time>
      </trkpt>
      <trkpt lat="44.29607" lon="5.93379">
        <ele>521</ele>
        <time>2019-04-02T12:11:36Z</time>
      </trkpt>
      <trkpt lat="44.29603" lon="5.93381">
        <ele>521</ele>
        <time>2019-04-02T12:11:37Z</time>
      </trkpt>
      <trkpt lat="44.29599" lon="5.93382">
        <ele>521</ele>
        <time>2019-04-02T12:11:38Z</time>
      </trkpt>
      <trkpt lat="44.29595" lon="5.93382">
        <ele>521</ele>
        <time>2019-04-02T12:11:39Z</time>
      </trkpt>
      <trkpt lat="44.29592" lon="5.93383">
        <ele>521</ele>
        <time>2019-04-02T12:11:40Z</time>
      </trkpt>
      <trkpt lat="44.29588" lon="5.93383">
        <ele>521</ele>
        <time>2019-04-02T12:11:41Z</time>
      </trkpt>
      <trkpt lat="44.29585" lon="5.93383">
        <ele>521</ele>
        <time>2019-04-02T12:11:42Z</time>
      </trkpt>
      <trkpt lat="44.29581" lon="5.93384">
        <ele>521</ele>
        <time>2019-04-02T12:11:43Z</time>
      </trkpt>
      <trkpt lat="44.29577" lon="5.93385">
        <ele>521</ele>
        <time>2019-04-02T12:11:44Z</time>
      </trkpt>
      <trkpt lat="44.29573" lon="5.93385">
        <ele>521</ele>
        <time>2019-04-02T12:11:45Z</time>
      </trkpt>
      <trkpt lat="44.2957" lon="5.93386">
        <ele>521</ele>
        <time>2019-04-02T12:11:46Z</time>
      </trkpt>
      <trkpt lat="44.29566" lon="5.93388">
        <ele>521</ele>
        <time>2019-04-02T12:11:47Z</time>
      </trkpt>
      <trkpt lat="44.29562" lon="5.93389">
        <ele>521</ele>
        <time>2019-04-02T12:11:48Z</time>
      </trkpt>
      <trkpt lat="44.29558" lon="5.9339">
        <ele>521</ele>
        <time>2019-04-02T12:11:49Z</time>
      </trkpt>
      <trkpt lat="44.29554" lon="5.93392">
        <ele>521</ele>
        <time>2019-04-02T12:11:50Z</time>
      </trkpt>
      <trkpt lat="44.29549" lon="5.93392">
        <ele>521</ele>
        <time>2019-04-02T12:11:51Z</time>
      </trkpt>
      <trkpt lat="44.29545" lon="5.93393">
        <ele>521</ele>
        <time>2019-04-02T12:11:52Z</time>
      </trkpt>
      <trkpt lat="44.29541" lon="5.93394">
        <ele>521</ele>
        <time>2019-04-02T12:11:53Z</time>
      </trkpt>
      <trkpt lat="44.29536" lon="5.93395">
        <ele>521</ele>
        <time>2019-04-02T12:11:54Z</time>
      </trkpt>
      <trkpt lat="44.29532" lon="5.93396">
        <ele>521</ele>
        <time>2019-04-02T12:11:55Z</time>
      </trkpt>
      <trkpt lat="44.29528" lon="5.93396">
        <ele>521</ele>
        <time>2019-04-02T12:11:56Z</time>
      </trkpt>
      <trkpt lat="44.29524" lon="5.93396">
        <ele>521</ele>
        <time>2019-04-02T12:11:57Z</time>
      </trkpt>
      <trkpt lat="44.29519" lon="5.93397">
        <ele>521</ele>
        <time>2019-04-02T12:11:58Z</time>
      </trkpt>
      <trkpt lat="44.29515" lon="5.93398">
        <ele>521</ele>
        <time>2019-04-02T12:11:59Z</time>
      </trkpt>
      <trkpt lat="44.2951" lon="5.93398">
        <ele>521</ele>
        <time>2019-04-02T12:12:00Z</time>
      </trkpt>
      <trkpt lat="44.29506" lon="5.93399">
        <ele>521</ele>
        <time>2019-04-02T12:12:01Z</time>
      </trkpt>
      <trkpt lat="44.29501" lon="5.93399">
        <ele>521</ele>
        <time>2019-04-02T12:12:02Z</time>
      </trkpt>
      <trkpt lat="44.29497" lon="5.93399">
        <ele>522</ele>
        <time>2019-04-02T12:12:03Z</time>
      </trkpt>
      <trkpt lat="44.29492" lon="5.93399">
        <ele>522</ele>
        <time>2019-04-02T12:12:04Z</time>
      </trkpt>
      <trkpt lat="44.29488" lon="5.93399">
        <ele>522</ele>
        <time>2019-04-02T12:12:05Z</time>
      </trkpt>
      <trkpt lat="44.29484" lon="5.93398">
        <ele>522</ele>
        <time>2019-04-02T12:12:06Z</time>
      </trkpt>
      <trkpt lat="44.2948" lon="5.93397">
        <ele>522</ele>
        <time>2019-04-02T12:12:07Z</time>
      </trkpt>
      <trkpt lat="44.29477" lon="5.93396">
        <ele>523</ele>
        <time>2019-04-02T12:12:08Z</time>
      </trkpt>
      <trkpt lat="44.29473" lon="5.93396">
        <ele>523</ele>
        <time>2019-04-02T12:12:09Z</time>
      </trkpt>
      <trkpt lat="44.29469" lon="5.93395">
        <ele>523</ele>
        <time>2019-04-02T12:12:10Z</time>
      </trkpt>
      <trkpt lat="44.29465" lon="5.93394">
        <ele>523</ele>
        <time>2019-04-02T12:12:11Z</time>
      </trkpt>
      <trkpt lat="44.29461" lon="5.93393">
        <ele>523</ele>
        <time>2019-04-02T12:12:12Z</time>
      </trkpt>
      <trkpt lat="44.29457" lon="5.93392">
        <ele>523</ele>
        <time>2019-04-02T12:12:13Z</time>
      </trkpt>
      <trkpt lat="44.29453" lon="5.93391">
        <ele>523</ele>
        <time>2019-04-02T12:12:14Z</time>
      </trkpt>
      <trkpt lat="44.29449" lon="5.9339">
        <ele>524</ele>
        <time>2019-04-02T12:12:15Z</time>
      </trkpt>
      <trkpt lat="44.29446" lon="5.93388">
        <ele>524</ele>
        <time>2019-04-02T12:12:16Z</time>
      </trkpt>
      <trkpt lat="44.29442" lon="5.93386">
        <ele>524</ele>
        <time>2019-04-02T12:12:17Z</time>
      </trkpt>
      <trkpt lat="44.29438" lon="5.93384">
        <ele>525</ele>
        <time>2019-04-02T12:12:18Z</time>
      </trkpt>
      <trkpt lat="44.29435" lon="5.93382">
        <ele>525</ele>
        <time>2019-04-02T12:12:19Z</time>
      </trkpt>
      <trkpt lat="44.29431" lon="5.9338">
        <ele>525</ele>
        <time>2019-04-02T12:12:20Z</time>
      </trkpt>
      <trkpt lat="44.29428" lon="5.93379">
        <ele>526</ele>
        <time>2019-04-02T12:12:21Z</time>
      </trkpt>
      <trkpt lat="44.29425" lon="5.93378">
        <ele>526</ele>
        <time>2019-04-02T12:12:22Z</time>
      </trkpt>
      <trkpt lat="44.29421" lon="5.93376">
        <ele>527</ele>
        <time>2019-04-02T12:12:23Z</time>
      </trkpt>
      <trkpt lat="44.29418" lon="5.93375">
        <ele>527</ele>
        <time>2019-04-02T12:12:24Z</time>
      </trkpt>
      <trkpt lat="44.29414" lon="5.93374">
        <ele>527</ele>
        <time>2019-04-02T12:12:25Z</time>
      </trkpt>
      <trkpt lat="44.29411" lon="5.93373">
        <ele>528</ele>
        <time>2019-04-02T12:12:26Z</time>
      </trkpt>
      <trkpt lat="44.29408" lon="5.93372">
        <ele>528</ele>
        <time>2019-04-02T12:12:27Z</time>
      </trkpt>
      <trkpt lat="44.29404" lon="5.93371">
        <ele>528</ele>
        <time>2019-04-02T12:12:28Z</time>
      </trkpt>
      <trkpt lat="44.294" lon="5.9337">
        <ele>528</ele>
        <time>2019-04-02T12:12:29Z</time>
      </trkpt>
      <trkpt lat="44.29396" lon="5.9337">
        <ele>529</ele>
        <time>2019-04-02T12:12:30Z</time>
      </trkpt>
      <trkpt lat="44.29393" lon="5.9337">
        <ele>529</ele>
        <time>2019-04-02T12:12:31Z</time>
      </trkpt>
      <trkpt lat="44.29389" lon="5.9337">
        <ele>530</ele>
        <time>2019-04-02T12:12:32Z</time>
      </trkpt>
      <trkpt lat="44.29385" lon="5.9337">
        <ele>530</ele>
        <time>2019-04-02T12:12:33Z</time>
      </trkpt>
      <trkpt lat="44.29382" lon="5.9337">
        <ele>530</ele>
        <time>2019-04-02T12:12:34Z</time>
      </trkpt>
      <trkpt lat="44.29379" lon="5.93369">
        <ele>531</ele>
        <time>2019-04-02T12:12:35Z</time>
      </trkpt>
      <trkpt lat="44.29375" lon="5.93369">
        <ele>531</ele>
        <time>2019-04-02T12:12:36Z</time>
      </trkpt>
      <trkpt lat="44.29372" lon="5.93369">
        <ele>531</ele>
        <time>2019-04-02T12:12:37Z</time>
      </trkpt>
      <trkpt lat="44.29368" lon="5.93369">
        <ele>532</ele>
        <time>2019-04-02T12:12:38Z</time>
      </trkpt>
      <trkpt lat="44.29365" lon="5.93368">
        <ele>532</ele>
        <time>2019-04-02T12:12:39Z</time>
      </trkpt>
      <trkpt lat="44.29361" lon="5.93368">
        <ele>532</ele>
        <time>2019-04-02T12:12:40Z</time>
      </trkpt>
      <trkpt lat="44.29358" lon="5.93368">
        <ele>533</ele>
        <time>2019-04-02T12:12:41Z</time>
      </trkpt>
      <trkpt lat="44.29354" lon="5.93368">
        <ele>533</ele>
        <time>2019-04-02T12:12:42Z</time>
      </trkpt>
      <trkpt lat="44.2935" lon="5.93367">
        <ele>533</ele>
        <time>2019-04-02T12:12:43Z</time>
      </trkpt>
      <trkpt lat="44.29347" lon="5.93367">
        <ele>534</ele>
        <time>2019-04-02T12:12:44Z</time>
      </trkpt>
      <trkpt lat="44.29343" lon="5.93367">
        <ele>534</ele>
        <time>2019-04-02T12:12:45Z</time>
      </trkpt>
      <trkpt lat="44.2934" lon="5.93367">
        <ele>534</ele>
        <time>2019-04-02T12:12:46Z</time>
      </trkpt>
      <trkpt lat="44.29336" lon="5.93367">
        <ele>534</ele>
        <time>2019-04-02T12:12:47Z</time>
      </trkpt>
      <trkpt lat="44.29332" lon="5.93366">
        <ele>535</ele>
        <time>2019-04-02T12:12:48Z</time>
      </trkpt>
      <trkpt lat="44.29328" lon="5.93366">
        <ele>535</ele>
        <time>2019-04-02T12:12:49Z</time>
      </trkpt>
      <trkpt lat="44.29324" lon="5.93366">
        <ele>535</ele>
        <time>2019-04-02T12:12:50Z</time>
      </trkpt>
      <trkpt lat="44.2932" lon="5.93366">
        <ele>535</ele>
        <time>2019-04-02T12:12:51Z</time>
      </trkpt>
      <trkpt lat="44.29316" lon="5.93366">
        <ele>535</ele>
        <time>2019-04-02T12:12:52Z</time>
      </trkpt>
      <trkpt lat="44.29312" lon="5.93365">
        <ele>536</ele>
        <time>2019-04-02T12:12:53Z</time>
      </trkpt>
      <trkpt lat="44.29308" lon="5.93366">
        <ele>536</ele>
        <time>2019-04-02T12:12:54Z</time>
      </trkpt>
      <trkpt lat="44.29303" lon="5.93366">
        <ele>536</ele>
        <time>2019-04-02T12:12:55Z</time>
      </trkpt>
      <trkpt lat="44.29299" lon="5.93366">
        <ele>536</ele>
        <time>2019-04-02T12:12:56Z</time>
      </trkpt>
      <trkpt lat="44.29295" lon="5.93367">
        <ele>536</ele>
        <time>2019-04-02T12:12:57Z</time>
      </trkpt>
      <trkpt lat="44.2929" lon="5.93367">
        <ele>536</ele>
        <time>2019-04-02T12:12:58Z</time>
      </trkpt>
      <trkpt lat="44.29286" lon="5.93367">
        <ele>536</ele>
        <time>2019-04-02T12:12:59Z</time>
      </trkpt>
      <trkpt lat="44.29282" lon="5.93368">
        <ele>536</ele>
        <time>2019-04-02T12:13:00Z</time>
      </trkpt>
      <trkpt lat="44.29277" lon="5.93369">
        <ele>536</ele>
        <time>2019-04-02T12:13:01Z</time>
      </trkpt>
      <trkpt lat="44.29272" lon="5.93369">
        <ele>536</ele>
        <time>2019-04-02T12:13:02Z</time>
      </trkpt>
      <trkpt lat="44.29267" lon="5.9337">
        <ele>536</ele>
        <time>2019-04-02T12:13:03Z</time>
      </trkpt>
      <trkpt lat="44.29262" lon="5.93371">
        <ele>536</ele>
        <time>2019-04-02T12:13:04Z</time>
      </trkpt>
      <trkpt lat="44.29257" lon="5.93372">
        <ele>536</ele>
        <time>2019-04-02T12:13:05Z</time>
      </trkpt>
      <trkpt lat="44.29252" lon="5.93373">
        <ele>536</ele>
        <time>2019-04-02T12:13:06Z</time>
      </trkpt>
      <trkpt lat="44.29247" lon="5.93374">
        <ele>536</ele>
        <time>2019-04-02T12:13:07Z</time>
      </trkpt>
      <trkpt lat="44.29242" lon="5.93374">
        <ele>536</ele>
        <time>2019-04-02T12:13:08Z</time>
      </trkpt>
      <trkpt lat="44.29237" lon="5.93375">
        <ele>536</ele>
        <time>2019-04-02T12:13:09Z</time>
      </trkpt>
      <trkpt lat="44.29232" lon="5.93376">
        <ele>536</ele>
        <time>2019-04-02T12:13:10Z</time>
      </trkpt>
      <trkpt lat="44.29227" lon="5.93377">
        <ele>536</ele>
        <time>2019-04-02T12:13:11Z</time>
      </trkpt>
      <trkpt lat="44.29222" lon="5.93378">
        <ele>536</ele>
        <time>2019-04-02T12:13:12Z</time>
      </trkpt>
      <trkpt lat="44.29216" lon="5.93379">
        <ele>536</ele>
        <time>2019-04-02T12:13:13Z</time>
      </trkpt>
      <trkpt lat="44.29211" lon="5.9338">
        <ele>536</ele>
        <time>2019-04-02T12:13:14Z</time>
      </trkpt>
      <trkpt lat="44.29205" lon="5.93381">
        <ele>536</ele>
        <time>2019-04-02T12:13:15Z</time>
      </trkpt>
      <trkpt lat="44.292" lon="5.93382">
        <ele>536</ele>
        <time>2019-04-02T12:13:16Z</time>
      </trkpt>
      <trkpt lat="44.29194" lon="5.93383">
        <ele>536</ele>
        <time>2019-04-02T12:13:17Z</time>
      </trkpt>
      <trkpt lat="44.29189" lon="5.93384">
        <ele>536</ele>
        <time>2019-04-02T12:13:18Z</time>
      </trkpt>
      <trkpt lat="44.29183" lon="5.93385">
        <ele>536</ele>
        <time>2019-04-02T12:13:19Z</time>
      </trkpt>
      <trkpt lat="44.29177" lon="5.93386">
        <ele>536</ele>
        <time>2019-04-02T12:13:20Z</time>
      </trkpt>
      <trkpt lat="44.29172" lon="5.93387">
        <ele>536</ele>
        <time>2019-04-02T12:13:21Z</time>
      </trkpt>
      <trkpt lat="44.29166" lon="5.93388">
        <ele>536</ele>
        <time>2019-04-02T12:13:22Z</time>
      </trkpt>
      <trkpt lat="44.2916" lon="5.93389">
        <ele>536</ele>
        <time>2019-04-02T12:13:23Z</time>
      </trkpt>
      <trkpt lat="44.29154" lon="5.9339">
        <ele>536</ele>
        <time>2019-04-02T12:13:24Z</time>
      </trkpt>
      <trkpt lat="44.29148" lon="5.93391">
        <ele>536</ele>
        <time>2019-04-02T12:13:25Z</time>
      </trkpt>
      <trkpt lat="44.29143" lon="5.93392">
        <ele>536</ele>
        <time>2019-04-02T12:13:26Z</time>
      </trkpt>
      <trkpt lat="44.29137" lon="5.93392">
        <ele>536</ele>
        <time>2019-04-02T12:13:27Z</time>
      </trkpt>
      <trkpt lat="44.29131" lon="5.93393">
        <ele>536</ele>
        <time>2019-04-02T12:13:28Z</time>
      </trkpt>
      <trkpt lat="44.29125" lon="5.93393">
        <ele>536</ele>
        <time>2019-04-02T12:13:29Z</time>
      </trkpt>
      <trkpt lat="44.29119" lon="5.93393">
        <ele>536</ele>
        <time>2019-04-02T12:13:30Z</time>
      </trkpt>
      <trkpt lat="44.29114" lon="5.93394">
        <ele>536</ele>
        <time>2019-04-02T12:13:31Z</time>
      </trkpt>
      <trkpt lat="44.29108" lon="5.93394">
        <ele>536</ele>
        <time>2019-04-02T12:13:32Z</time>
      </trkpt>
      <trkpt lat="44.29102" lon="5.93394">
        <ele>536</ele>
        <time>2019-04-02T12:13:33Z</time>
      </trkpt>
      <trkpt lat="44.29096" lon="5.93393">
        <ele>536</ele>
        <time>2019-04-02T12:13:34Z</time>
      </trkpt>
      <trkpt lat="44.2909" lon="5.93393">
        <ele>536</ele>
        <time>2019-04-02T12:13:35Z</time>
      </trkpt>
      <trkpt lat="44.29085" lon="5.93393">
        <ele>536</ele>
        <time>2019-04-02T12:13:36Z</time>
      </trkpt>
      <trkpt lat="44.29079" lon="5.93392">
        <ele>536</ele>
        <time>2019-04-02T12:13:37Z</time>
      </trkpt>
      <trkpt lat="44.29073" lon="5.93392">
        <ele>536</ele>
        <time>2019-04-02T12:13:38Z</time>
      </trkpt>
      <trkpt lat="44.29068" lon="5.93392">
        <ele>536</ele>
        <time>2019-04-02T12:13:39Z</time>
      </trkpt>
      <trkpt lat="44.29062" lon="5.93392">
        <ele>536</ele>
        <time>2019-04-02T12:13:40Z</time>
      </trkpt>
      <trkpt lat="44.29056" lon="5.93391">
        <ele>536</ele>
        <time>2019-04-02T12:13:41Z</time>
      </trkpt>
      <trkpt lat="44.2905" lon="5.93391">
        <ele>536</ele>
        <time>2019-04-02T12:13:42Z</time>
      </trkpt>
      <trkpt lat="44.29044" lon="5.9339">
        <ele>536</ele>
        <time>2019-04-02T12:13:43Z</time>
      </trkpt>
      <trkpt lat="44.29039" lon="5.9339">
        <ele>536</ele>
        <time>2019-04-02T12:13:44Z</time>
      </trkpt>
      <trkpt lat="44.29033" lon="5.9339">
        <ele>536</ele>
        <time>2019-04-02T12:13:45Z</time>
      </trkpt>
      <trkpt lat="44.29027" lon="5.9339">
        <ele>536</ele>
        <time>2019-04-02T12:13:46Z</time>
      </trkpt>
      <trkpt lat="44.29022" lon="5.93389">
        <ele>536</ele>
        <time>2019-04-02T12:13:47Z</time>
      </trkpt>
      <trkpt lat="44.29016" lon="5.93389">
        <ele>536</ele>
        <time>2019-04-02T12:13:48Z</time>
      </trkpt>
      <trkpt lat="44.2901" lon="5.93388">
        <ele>536</ele>
        <time>2019-04-02T12:13:49Z</time>
      </trkpt>
      <trkpt lat="44.29005" lon="5.93388">
        <ele>536</ele>
        <time>2019-04-02T12:13:50Z</time>
      </trkpt>
      <trkpt lat="44.28999" lon="5.93388">
        <ele>536</ele>
        <time>2019-04-02T12:13:51Z</time>
      </trkpt>
      <trkpt lat="44.28994" lon="5.93387">
        <ele>536</ele>
        <time>2019-04-02T12:13:52Z</time>
      </trkpt>
      <trkpt lat="44.28988" lon="5.93387">
        <ele>536</ele>
        <time>2019-04-02T12:13:53Z</time>
      </trkpt>
      <trkpt lat="44.28983" lon="5.93386">
        <ele>536</ele>
        <time>2019-04-02T12:13:54Z</time>
      </trkpt>
      <trkpt lat="44.28977" lon="5.93386">
        <ele>536</ele>
        <time>2019-04-02T12:13:55Z</time>
      </trkpt>
      <trkpt lat="44.28972" lon="5.93385">
        <ele>536</ele>
        <time>2019-04-02T12:13:56Z</time>
      </trkpt>
      <trkpt lat="44.28966" lon="5.93385">
        <ele>536</ele>
        <time>2019-04-02T12:13:57Z</time>
      </trkpt>
      <trkpt lat="44.28961" lon="5.93385">
        <ele>536</ele>
        <time>2019-04-02T12:13:58Z</time>
      </trkpt>
      <trkpt lat="44.28955" lon="5.93384">
        <ele>536</ele>
        <time>2019-04-02T12:13:59Z</time>
      </trkpt>
      <trkpt lat="44.2895" lon="5.93384">
        <ele>536</ele>
        <time>2019-04-02T12:14:00Z</time>
      </trkpt>
      <trkpt lat="44.28944" lon="5.93383">
        <ele>536</ele>
        <time>2019-04-02T12:14:01Z</time>
      </trkpt>
      <trkpt lat="44.28939" lon="5.93383">
        <ele>536</ele>
        <time>2019-04-02T12:14:02Z</time>
      </trkpt>
      <trkpt lat="44.28933" lon="5.93383">
        <ele>536</ele>
        <time>2019-04-02T12:14:03Z</time>
      </trkpt>
      <trkpt lat="44.28928" lon="5.93383">
        <ele>536</ele>
        <time>2019-04-02T12:14:04Z</time>
      </trkpt>
      <trkpt lat="44.28922" lon="5.93383">
        <ele>536</ele>
        <time>2019-04-02T12:14:05Z</time>
      </trkpt>
      <trkpt lat="44.28916" lon="5.93383">
        <ele>536</ele>
        <time>2019-04-02T12:14:06Z</time>
      </trkpt>
      <trkpt lat="44.2891" lon="5.93382">
        <ele>536</ele>
        <time>2019-04-02T12:14:07Z</time>
      </trkpt>
      <trkpt lat="44.28904" lon="5.93382">
        <ele>536</ele>
        <time>2019-04-02T12:14:08Z</time>
      </trkpt>
      <trkpt lat="44.28899" lon="5.93382">
        <ele>536</ele>
        <time>2019-04-02T12:14:09Z</time>
      </trkpt>
      <trkpt lat="44.28893" lon="5.93382">
        <ele>536</ele>
        <time>2019-04-02T12:14:10Z</time>
      </trkpt>
      <trkpt lat="44.28886" lon="5.93382">
        <ele>536</ele>
        <time>2019-04-02T12:14:11Z</time>
      </trkpt>
      <trkpt lat="44.2888" lon="5.93382">
        <ele>536</ele>
        <time>2019-04-02T12:14:12Z</time>
      </trkpt>
      <trkpt lat="44.28873" lon="5.93382">
        <ele>536</ele>
        <time>2019-04-02T12:14:13Z</time>
      </trkpt>
      <trkpt lat="44.28867" lon="5.93382">
        <ele>536</ele>
        <time>2019-04-02T12:14:14Z</time>
      </trkpt>
      <trkpt lat="44.2886" lon="5.93382">
        <ele>536</ele>
        <time>2019-04-02T12:14:15Z</time>
      </trkpt>
      <trkpt lat="44.28854" lon="5.93382">
        <ele>536</ele>
        <time>2019-04-02T12:14:16Z</time>
      </trkpt>
      <trkpt lat="44.28848" lon="5.93383">
        <ele>536</ele>
        <time>2019-04-02T12:14:17Z</time>
      </trkpt>
      <trkpt lat="44.28842" lon="5.93383">
        <ele>536</ele>
        <time>2019-04-02T12:14:18Z</time>
      </trkpt>
      <trkpt lat="44.28836" lon="5.93382">
        <ele>536</ele>
        <time>2019-04-02T12:14:19Z</time>
      </trkpt>
      <trkpt lat="44.2883" lon="5.93382">
        <ele>536</ele>
        <time>2019-04-02T12:14:20Z</time>
      </trkpt>
      <trkpt lat="44.28824" lon="5.93383">
        <ele>536</ele>
        <time>2019-04-02T12:14:21Z</time>
      </trkpt>
      <trkpt lat="44.28817" lon="5.93383">
        <ele>536</ele>
        <time>2019-04-02T12:14:22Z</time>
      </trkpt>
      <trkpt lat="44.28811" lon="5.93384">
        <ele>536</ele>
        <time>2019-04-02T12:14:23Z</time>
      </trkpt>
      <trkpt lat="44.28805" lon="5.93384">
        <ele>536</ele>
        <time>2019-04-02T12:14:24Z</time>
      </trkpt>
      <trkpt lat="44.28799" lon="5.93385">
        <ele>536</ele>
        <time>2019-04-02T12:14:25Z</time>
      </trkpt>
      <trkpt lat="44.28793" lon="5.93386">
        <ele>536</ele>
        <time>2019-04-02T12:14:26Z</time>
      </trkpt>
      <trkpt lat="44.28787" lon="5.93386">
        <ele>536</ele>
        <time>2019-04-02T12:14:27Z</time>
      </trkpt>
      <trkpt lat="44.28781" lon="5.93387">
        <ele>536</ele>
        <time>2019-04-02T12:14:28Z</time>
      </trkpt>
      <trkpt lat="44.28775" lon="5.93388">
        <ele>536</ele>
        <time>2019-04-02T12:14:29Z</time>
      </trkpt>
      <trkpt lat="44.28769" lon="5.93389">
        <ele>536</ele>
        <time>2019-04-02T12:14:30Z</time>
      </trkpt>
      <trkpt lat="44.28763" lon="5.9339">
        <ele>536</ele>
        <time>2019-04-02T12:14:31Z</time>
      </trkpt>
      <trkpt lat="44.28757" lon="5.93391">
        <ele>536</ele>
        <time>2019-04-02T12:14:32Z</time>
      </trkpt>
      <trkpt lat="44.28751" lon="5.93392">
        <ele>536</ele>
        <time>2019-04-02T12:14:33Z</time>
      </trkpt>
      <trkpt lat="44.28746" lon="5.93393">
        <ele>536</ele>
        <time>2019-04-02T12:14:34Z</time>
      </trkpt>
      <trkpt lat="44.2874" lon="5.93394">
        <ele>536</ele>
        <time>2019-04-02T12:14:35Z</time>
      </trkpt>
      <trkpt lat="44.28735" lon="5.93394">
        <ele>536</ele>
        <time>2019-04-02T12:14:36Z</time>
      </trkpt>
      <trkpt lat="44.28729" lon="5.93395">
        <ele>536</ele>
        <time>2019-04-02T12:14:37Z</time>
      </trkpt>
      <trkpt lat="44.28723" lon="5.93396">
        <ele>536</ele>
        <time>2019-04-02T12:14:38Z</time>
      </trkpt>
      <trkpt lat="44.28717" lon="5.93397">
        <ele>536</ele>
        <time>2019-04-02T12:14:39Z</time>
      </trkpt>
      <trkpt lat="44.28712" lon="5.93398">
        <ele>536</ele>
        <time>2019-04-02T12:14:40Z</time>
      </trkpt>
      <trkpt lat="44.28706" lon="5.934">
        <ele>536</ele>
        <time>2019-04-02T12:14:41Z</time>
      </trkpt>
      <trkpt lat="44.287" lon="5.93401">
        <ele>536</ele>
        <time>2019-04-02T12:14:42Z</time>
      </trkpt>
      <trkpt lat="44.28695" lon="5.93402">
        <ele>536</ele>
        <time>2019-04-02T12:14:43Z</time>
      </trkpt>
      <trkpt lat="44.28689" lon="5.93404">
        <ele>536</ele>
        <time>2019-04-02T12:14:44Z</time>
      </trkpt>
      <trkpt lat="44.28683" lon="5.93405">
        <ele>536</ele>
        <time>2019-04-02T12:14:45Z</time>
      </trkpt>
      <trkpt lat="44.28677" lon="5.93406">
        <ele>536</ele>
        <time>2019-04-02T12:14:46Z</time>
      </trkpt>
      <trkpt lat="44.28672" lon="5.93407">
        <ele>536</ele>
        <time>2019-04-02T12:14:47Z</time>
      </trkpt>
      <trkpt lat="44.28666" lon="5.93408">
        <ele>536</ele>
        <time>2019-04-02T12:14:48Z</time>
      </trkpt>
      <trkpt lat="44.28661" lon="5.93409">
        <ele>536</ele>
        <time>2019-04-02T12:14:49Z</time>
      </trkpt>
      <trkpt lat="44.28655" lon="5.9341">
        <ele>536</ele>
        <time>2019-04-02T12:14:50Z</time>
      </trkpt>
      <trkpt lat="44.2865" lon="5.93412">
        <ele>536</ele>
        <time>2019-04-02T12:14:51Z</time>
      </trkpt>
      <trkpt lat="44.28644" lon="5.93413">
        <ele>536</ele>
        <time>2019-04-02T12:14:52Z</time>
      </trkpt>
      <trkpt lat="44.28638" lon="5.93414">
        <ele>536</ele>
        <time>2019-04-02T12:14:53Z</time>
      </trkpt>
      <trkpt lat="44.28633" lon="5.93416">
        <ele>536</ele>
        <time>2019-04-02T12:14:54Z</time>
      </trkpt>
      <trkpt lat="44.28627" lon="5.93417">
        <ele>536</ele>
        <time>2019-04-02T12:14:55Z</time>
      </trkpt>
      <trkpt lat="44.28622" lon="5.93419">
        <ele>536</ele>
        <time>2019-04-02T12:14:56Z</time>
      </trkpt>
      <trkpt lat="44.28616" lon="5.9342">
        <ele>536</ele>
        <time>2019-04-02T12:14:57Z</time>
      </trkpt>
      <trkpt lat="44.2861" lon="5.93421">
        <ele>536</ele>
        <time>2019-04-02T12:14:58Z</time>
      </trkpt>
      <trkpt lat="44.28604" lon="5.93422">
        <ele>536</ele>
        <time>2019-04-02T12:14:59Z</time>
      </trkpt>
      <trkpt lat="44.28598" lon="5.93424">
        <ele>536</ele>
        <time>2019-04-02T12:15:00Z</time>
      </trkpt>
      <trkpt lat="44.28592" lon="5.93425">
        <ele>536</ele>
        <time>2019-04-02T12:15:01Z</time>
      </trkpt>
      <trkpt lat="44.28586" lon="5.93426">
        <ele>536</ele>
        <time>2019-04-02T12:15:02Z</time>
      </trkpt>
      <trkpt lat="44.2858" lon="5.93428">
        <ele>536</ele>
        <time>2019-04-02T12:15:03Z</time>
      </trkpt>
      <trkpt lat="44.28574" lon="5.93428">
        <ele>536</ele>
        <time>2019-04-02T12:15:04Z</time>
      </trkpt>
      <trkpt lat="44.28568" lon="5.93429">
        <ele>536</ele>
        <time>2019-04-02T12:15:05Z</time>
      </trkpt>
      <trkpt lat="44.28562" lon="5.9343">
        <ele>536</ele>
        <time>2019-04-02T12:15:06Z</time>
      </trkpt>
      <trkpt lat="44.28556" lon="5.9343">
        <ele>536</ele>
        <time>2019-04-02T12:15:07Z</time>
      </trkpt>
      <trkpt lat="44.2855" lon="5.93431">
        <ele>536</ele>
        <time>2019-04-02T12:15:08Z</time>
      </trkpt>
      <trkpt lat="44.28544" lon="5.93432">
        <ele>536</ele>
        <time>2019-04-02T12:15:09Z</time>
      </trkpt>
      <trkpt lat="44.28538" lon="5.93432">
        <ele>536</ele>
        <time>2019-04-02T12:15:10Z</time>
      </trkpt>
      <trkpt lat="44.28532" lon="5.93433">
        <ele>536</ele>
        <time>2019-04-02T12:15:11Z</time>
      </trkpt>
      <trkpt lat="44.28526" lon="5.93433">
        <ele>536</ele>
        <time>2019-04-02T12:15:12Z</time>
      </trkpt>
      <trkpt lat="44.2852" lon="5.93433">
        <ele>536</ele>
        <time>2019-04-02T12:15:13Z</time>
      </trkpt>
      <trkpt lat="44.28514" lon="5.93434">
        <ele>536</ele>
        <time>2019-04-02T12:15:14Z</time>
      </trkpt>
      <trkpt lat="44.28508" lon="5.93434">
        <ele>536</ele>
        <time>2019-04-02T12:15:15Z</time>
      </trkpt>
      <trkpt lat="44.28503" lon="5.93434">
        <ele>536</ele>
        <time>2019-04-02T12:15:16Z</time>
      </trkpt>
      <trkpt lat="44.28497" lon="5.93435">
        <ele>536</ele>
        <time>2019-04-02T12:15:17Z</time>
      </trkpt>
      <trkpt lat="44.28491" lon="5.93435">
        <ele>536</ele>
        <time>2019-04-02T12:15:18Z</time>
      </trkpt>
      <trkpt lat="44.28486" lon="5.93435">
        <ele>536</ele>
        <time>2019-04-02T12:15:19Z</time>
      </trkpt>
      <trkpt lat="44.2848" lon="5.93436">
        <ele>536</ele>
        <time>2019-04-02T12:15:20Z</time>
      </trkpt>
      <trkpt lat="44.28475" lon="5.93436">
        <ele>536</ele>
        <time>2019-04-02T12:15:21Z</time>
      </trkpt>
      <trkpt lat="44.28469" lon="5.93436">
        <ele>536</ele>
        <time>2019-04-02T12:15:22Z</time>
      </trkpt>
      <trkpt lat="44.28464" lon="5.93437">
        <ele>536</ele>
        <time>2019-04-02T12:15:23Z</time>
      </trkpt>
      <trkpt lat="44.28458" lon="5.93437">
        <ele>536</ele>
        <time>2019-04-02T12:15:24Z</time>
      </trkpt>
      <trkpt lat="44.28452" lon="5.93437">
        <ele>536</ele>
        <time>2019-04-02T12:15:25Z</time>
      </trkpt>
      <trkpt lat="44.28447" lon="5.93438">
        <ele>536</ele>
        <time>2019-04-02T12:15:26Z</time>
      </trkpt>
      <trkpt lat="44.28441" lon="5.93438">
        <ele>536</ele>
        <time>2019-04-02T12:15:27Z</time>
      </trkpt>
      <trkpt lat="44.28435" lon="5.93439">
        <ele>535</ele>
        <time>2019-04-02T12:15:28Z</time>
      </trkpt>
      <trkpt lat="44.28429" lon="5.93439">
        <ele>535</ele>
        <time>2019-04-02T12:15:29Z</time>
      </trkpt>
      <trkpt lat="44.28424" lon="5.93439">
        <ele>535</ele>
        <time>2019-04-02T12:15:30Z</time>
      </trkpt>
      <trkpt lat="44.28418" lon="5.93439">
        <ele>535</ele>
        <time>2019-04-02T12:15:31Z</time>
      </trkpt>
      <trkpt lat="44.28413" lon="5.93439">
        <ele>535</ele>
        <time>2019-04-02T12:15:32Z</time>
      </trkpt>
      <trkpt lat="44.28407" lon="5.93439">
        <ele>535</ele>
        <time>2019-04-02T12:15:33Z</time>
      </trkpt>
      <trkpt lat="44.28401" lon="5.93439">
        <ele>535</ele>
        <time>2019-04-02T12:15:34Z</time>
      </trkpt>
      <trkpt lat="44.28395" lon="5.93439">
        <ele>535</ele>
        <time>2019-04-02T12:15:35Z</time>
      </trkpt>
      <trkpt lat="44.2839" lon="5.93439">
        <ele>535</ele>
        <time>2019-04-02T12:15:36Z</time>
      </trkpt>
      <trkpt lat="44.28384" lon="5.93439">
        <ele>535</ele>
        <time>2019-04-02T12:15:37Z</time>
      </trkpt>
      <trkpt lat="44.28378" lon="5.93438">
        <ele>535</ele>
        <time>2019-04-02T12:15:38Z</time>
      </trkpt>
      <trkpt lat="44.28373" lon="5.93438">
        <ele>535</ele>
        <time>2019-04-02T12:15:39Z</time>
      </trkpt>
      <trkpt lat="44.28367" lon="5.93437">
        <ele>535</ele>
        <time>2019-04-02T12:15:40Z</time>
      </trkpt>
      <trkpt lat="44.28361" lon="5.93436">
        <ele>535</ele>
        <time>2019-04-02T12:15:41Z</time>
      </trkpt>
      <trkpt lat="44.28355" lon="5.93435">
        <ele>535</ele>
        <time>2019-04-02T12:15:42Z</time>
      </trkpt>
      <trkpt lat="44.2835" lon="5.93435">
        <ele>535</ele>
        <time>2019-04-02T12:15:43Z</time>
      </trkpt>
      <trkpt lat="44.28344" lon="5.93434">
        <ele>535</ele>
        <time>2019-04-02T12:15:44Z</time>
      </trkpt>
      <trkpt lat="44.28338" lon="5.93434">
        <ele>535</ele>
        <time>2019-04-02T12:15:45Z</time>
      </trkpt>
      <trkpt lat="44.28333" lon="5.93433">
        <ele>535</ele>
        <time>2019-04-02T12:15:46Z</time>
      </trkpt>
      <trkpt lat="44.28327" lon="5.93432">
        <ele>535</ele>
        <time>2019-04-02T12:15:47Z</time>
      </trkpt>
      <trkpt lat="44.28321" lon="5.93431">
        <ele>535</ele>
        <time>2019-04-02T12:15:48Z</time>
      </trkpt>
      <trkpt lat="44.28315" lon="5.9343">
        <ele>535</ele>
        <time>2019-04-02T12:15:49Z</time>
      </trkpt>
      <trkpt lat="44.28309" lon="5.93429">
        <ele>535</ele>
        <time>2019-04-02T12:15:50Z</time>
      </trkpt>
      <trkpt lat="44.28303" lon="5.93428">
        <ele>535</ele>
        <time>2019-04-02T12:15:51Z</time>
      </trkpt>
      <trkpt lat="44.28297" lon="5.93427">
        <ele>535</ele>
        <time>2019-04-02T12:15:52Z</time>
      </trkpt>
      <trkpt lat="44.28291" lon="5.93426">
        <ele>535</ele>
        <time>2019-04-02T12:15:53Z</time>
      </trkpt>
      <trkpt lat="44.28285" lon="5.93425">
        <ele>535</ele>
        <time>2019-04-02T12:15:54Z</time>
      </trkpt>
      <trkpt lat="44.28279" lon="5.93425">
        <ele>535</ele>
        <time>2019-04-02T12:15:55Z</time>
      </trkpt>
      <trkpt lat="44.28273" lon="5.93424">
        <ele>535</ele>
        <time>2019-04-02T12:15:56Z</time>
      </trkpt>
      <trkpt lat="44.28267" lon="5.93423">
        <ele>535</ele>
        <time>2019-04-02T12:15:57Z</time>
      </trkpt>
      <trkpt lat="44.28261" lon="5.93422">
        <ele>535</ele>
        <time>2019-04-02T12:15:58Z</time>
      </trkpt>
      <trkpt lat="44.28255" lon="5.93422">
        <ele>535</ele>
        <time>2019-04-02T12:15:59Z</time>
      </trkpt>
      <trkpt lat="44.2825" lon="5.93421">
        <ele>535</ele>
        <time>2019-04-02T12:16:00Z</time>
      </trkpt>
      <trkpt lat="44.28244" lon="5.9342">
        <ele>535</ele>
        <time>2019-04-02T12:16:01Z</time>
      </trkpt>
      <trkpt lat="44.28239" lon="5.9342">
        <ele>535</ele>
        <time>2019-04-02T12:16:02Z</time>
      </trkpt>
      <trkpt lat="44.28233" lon="5.93419">
        <ele>535</ele>
        <time>2019-04-02T12:16:03Z</time>
      </trkpt>
      <trkpt lat="44.28227" lon="5.93418">
        <ele>535</ele>
        <time>2019-04-02T12:16:04Z</time>
      </trkpt>
      <trkpt lat="44.28222" lon="5.93417">
        <ele>535</ele>
        <time>2019-04-02T12:16:05Z</time>
      </trkpt>
      <trkpt lat="44.28216" lon="5.93416">
        <ele>535</ele>
        <time>2019-04-02T12:16:06Z</time>
      </trkpt>
      <trkpt lat="44.2821" lon="5.93416">
        <ele>535</ele>
        <time>2019-04-02T12:16:07Z</time>
      </trkpt>
      <trkpt lat="44.28205" lon="5.93415">
        <ele>535</ele>
        <time>2019-04-02T12:16:08Z</time>
      </trkpt>
      <trkpt lat="44.28199" lon="5.93415">
        <ele>535</ele>
        <time>2019-04-02T12:16:09Z</time>
      </trkpt>
      <trkpt lat="44.28194" lon="5.93414">
        <ele>535</ele>
        <time>2019-04-02T12:16:10Z</time>
      </trkpt>
      <trkpt lat="44.28188" lon="5.93413">
        <ele>535</ele>
        <time>2019-04-02T12:16:11Z</time>
      </trkpt>
      <trkpt lat="44.28183" lon="5.93412">
        <ele>535</ele>
        <time>2019-04-02T12:16:12Z</time>
      </trkpt>
      <trkpt lat="44.28178" lon="5.93412">
        <ele>535</ele>
        <time>2019-04-02T12:16:13Z</time>
      </trkpt>
      <trkpt lat="44.28172" lon="5.93411">
        <ele>535</ele>
        <time>2019-04-02T12:16:14Z</time>
      </trkpt>
      <trkpt lat="44.28166" lon="5.93411">
        <ele>535</ele>
        <time>2019-04-02T12:16:15Z</time>
      </trkpt>
      <trkpt lat="44.28161" lon="5.9341">
        <ele>535</ele>
        <time>2019-04-02T12:16:16Z</time>
      </trkpt>
      <trkpt lat="44.28155" lon="5.93409">
        <ele>535</ele>
        <time>2019-04-02T12:16:17Z</time>
      </trkpt>
      <trkpt lat="44.28149" lon="5.93409">
        <ele>535</ele>
        <time>2019-04-02T12:16:18Z</time>
      </trkpt>
      <trkpt lat="44.28143" lon="5.93408">
        <ele>535</ele>
        <time>2019-04-02T12:16:19Z</time>
      </trkpt>
      <trkpt lat="44.28138" lon="5.93407">
        <ele>535</ele>
        <time>2019-04-02T12:16:20Z</time>
      </trkpt>
      <trkpt lat="44.28132" lon="5.93407">
        <ele>535</ele>
        <time>2019-04-02T12:16:21Z</time>
      </trkpt>
      <trkpt lat="44.28126" lon="5.93406">
        <ele>535</ele>
        <time>2019-04-02T12:16:22Z</time>
      </trkpt>
      <trkpt lat="44.2812" lon="5.93405">
        <ele>535</ele>
        <time>2019-04-02T12:16:23Z</time>
      </trkpt>
      <trkpt lat="44.28115" lon="5.93404">
        <ele>535</ele>
        <time>2019-04-02T12:16:24Z</time>
      </trkpt>
      <trkpt lat="44.28109" lon="5.93403">
        <ele>535</ele>
        <time>2019-04-02T12:16:25Z</time>
      </trkpt>
      <trkpt lat="44.28104" lon="5.93401">
        <ele>535</ele>
        <time>2019-04-02T12:16:26Z</time>
      </trkpt>
      <trkpt lat="44.28098" lon="5.934">
        <ele>535</ele>
        <time>2019-04-02T12:16:27Z</time>
      </trkpt>
      <trkpt lat="44.28093" lon="5.93399">
        <ele>535</ele>
        <time>2019-04-02T12:16:28Z</time>
      </trkpt>
      <trkpt lat="44.28087" lon="5.93398">
        <ele>535</ele>
        <time>2019-04-02T12:16:29Z</time>
      </trkpt>
      <trkpt lat="44.28082" lon="5.93396">
        <ele>535</ele>
        <time>2019-04-02T12:16:30Z</time>
      </trkpt>
      <trkpt lat="44.28077" lon="5.93395">
        <ele>535</ele>
        <time>2019-04-02T12:16:31Z</time>
      </trkpt>
      <trkpt lat="44.28071" lon="5.93393">
        <ele>535</ele>
        <time>2019-04-02T12:16:32Z</time>
      </trkpt>
      <trkpt lat="44.28066" lon="5.93392">
        <ele>535</ele>
        <time>2019-04-02T12:16:33Z</time>
      </trkpt>
      <trkpt lat="44.28061" lon="5.9339">
        <ele>535</ele>
        <time>2019-04-02T12:16:34Z</time>
      </trkpt>
      <trkpt lat="44.28056" lon="5.93388">
        <ele>535</ele>
        <time>2019-04-02T12:16:35Z</time>
      </trkpt>
      <trkpt lat="44.2805" lon="5.93387">
        <ele>535</ele>
        <time>2019-04-02T12:16:36Z</time>
      </trkpt>
      <trkpt lat="44.28045" lon="5.93386">
        <ele>535</ele>
        <time>2019-04-02T12:16:37Z</time>
      </trkpt>
      <trkpt lat="44.2804" lon="5.93384">
        <ele>535</ele>
        <time>2019-04-02T12:16:38Z</time>
      </trkpt>
      <trkpt lat="44.28035" lon="5.93382">
        <ele>535</ele>
        <time>2019-04-02T12:16:39Z</time>
      </trkpt>
      <trkpt lat="44.28029" lon="5.93381">
        <ele>535</ele>
        <time>2019-04-02T12:16:40Z</time>
      </trkpt>
      <trkpt lat="44.28024" lon="5.93379">
        <ele>535</ele>
        <time>2019-04-02T12:16:41Z</time>
      </trkpt>
      <trkpt lat="44.28019" lon="5.93377">
        <ele>535</ele>
        <time>2019-04-02T12:16:42Z</time>
      </trkpt>
      <trkpt lat="44.28013" lon="5.93376">
        <ele>535</ele>
        <time>2019-04-02T12:16:43Z</time>
      </trkpt>
      <trkpt lat="44.28008" lon="5.93375">
        <ele>535</ele>
        <time>2019-04-02T12:16:44Z</time>
      </trkpt>
      <trkpt lat="44.28003" lon="5.93373">
        <ele>535</ele>
        <time>2019-04-02T12:16:45Z</time>
      </trkpt>
      <trkpt lat="44.27998" lon="5.93372">
        <ele>535</ele>
        <time>2019-04-02T12:16:46Z</time>
      </trkpt>
      <trkpt lat="44.27992" lon="5.93371">
        <ele>535</ele>
        <time>2019-04-02T12:16:47Z</time>
      </trkpt>
      <trkpt lat="44.27987" lon="5.93369">
        <ele>535</ele>
        <time>2019-04-02T12:16:48Z</time>
      </trkpt>
      <trkpt lat="44.27982" lon="5.93367">
        <ele>535</ele>
        <time>2019-04-02T12:16:49Z</time>
      </trkpt>
      <trkpt lat="44.27976" lon="5.93366">
        <ele>535</ele>
        <time>2019-04-02T12:16:50Z</time>
      </trkpt>
      <trkpt lat="44.27971" lon="5.93364">
        <ele>535</ele>
        <time>2019-04-02T12:16:51Z</time>
      </trkpt>
      <trkpt lat="44.27966" lon="5.93363">
        <ele>535</ele>
        <time>2019-04-02T12:16:52Z</time>
      </trkpt>
      <trkpt lat="44.2796" lon="5.93362">
        <ele>535</ele>
        <time>2019-04-02T12:16:53Z</time>
      </trkpt>
      <trkpt lat="44.27955" lon="5.9336">
        <ele>535</ele>
        <time>2019-04-02T12:16:54Z</time>
      </trkpt>
      <trkpt lat="44.27949" lon="5.93359">
        <ele>535</ele>
        <time>2019-04-02T12:16:55Z</time>
      </trkpt>
      <trkpt lat="44.27944" lon="5.93357">
        <ele>535</ele>
        <time>2019-04-02T12:16:56Z</time>
      </trkpt>
      <trkpt lat="44.27938" lon="5.93355">
        <ele>535</ele>
        <time>2019-04-02T12:16:57Z</time>
      </trkpt>
      <trkpt lat="44.27933" lon="5.93354">
        <ele>535</ele>
        <time>2019-04-02T12:16:58Z</time>
      </trkpt>
      <trkpt lat="44.27927" lon="5.93352">
        <ele>535</ele>
        <time>2019-04-02T12:16:59Z</time>
      </trkpt>
      <trkpt lat="44.27921" lon="5.93351">
        <ele>535</ele>
        <time>2019-04-02T12:17:00Z</time>
      </trkpt>
      <trkpt lat="44.27915" lon="5.93349">
        <ele>535</ele>
        <time>2019-04-02T12:17:01Z</time>
      </trkpt>
      <trkpt lat="44.27909" lon="5.93348">
        <ele>535</ele>
        <time>2019-04-02T12:17:02Z</time>
      </trkpt>
      <trkpt lat="44.27904" lon="5.93346">
        <ele>535</ele>
        <time>2019-04-02T12:17:03Z</time>
      </trkpt>
      <trkpt lat="44.27898" lon="5.93344">
        <ele>535</ele>
        <time>2019-04-02T12:17:04Z</time>
      </trkpt>
      <trkpt lat="44.27892" lon="5.93343">
        <ele>535</ele>
        <time>2019-04-02T12:17:05Z</time>
      </trkpt>
      <trkpt lat="44.27887" lon="5.93341">
        <ele>535</ele>
        <time>2019-04-02T12:17:06Z</time>
      </trkpt>
      <trkpt lat="44.27881" lon="5.93339">
        <ele>535</ele>
        <time>2019-04-02T12:17:07Z</time>
      </trkpt>
      <trkpt lat="44.27876" lon="5.93337">
        <ele>534</ele>
        <time>2019-04-02T12:17:08Z</time>
      </trkpt>
      <trkpt lat="44.2787" lon="5.93335">
        <ele>534</ele>
        <time>2019-04-02T12:17:09Z</time>
      </trkpt>
      <trkpt lat="44.27864" lon="5.93333">
        <ele>534</ele>
        <time>2019-04-02T12:17:10Z</time>
      </trkpt>
      <trkpt lat="44.27858" lon="5.93331">
        <ele>534</ele>
        <time>2019-04-02T12:17:11Z</time>
      </trkpt>
      <trkpt lat="44.27853" lon="5.93329">
        <ele>534</ele>
        <time>2019-04-02T12:17:12Z</time>
      </trkpt>
      <trkpt lat="44.27847" lon="5.93326">
        <ele>534</ele>
        <time>2019-04-02T12:17:13Z</time>
      </trkpt>
      <trkpt lat="44.27842" lon="5.93324">
        <ele>534</ele>
        <time>2019-04-02T12:17:14Z</time>
      </trkpt>
      <trkpt lat="44.27836" lon="5.93322">
        <ele>534</ele>
        <time>2019-04-02T12:17:15Z</time>
      </trkpt>
      <trkpt lat="44.2783" lon="5.9332">
        <ele>534</ele>
        <time>2019-04-02T12:17:16Z</time>
      </trkpt>
      <trkpt lat="44.27824" lon="5.93317">
        <ele>534</ele>
        <time>2019-04-02T12:17:17Z</time>
      </trkpt>
      <trkpt lat="44.27819" lon="5.93316">
        <ele>534</ele>
        <time>2019-04-02T12:17:18Z</time>
      </trkpt>
      <trkpt lat="44.27813" lon="5.93314">
        <ele>534</ele>
        <time>2019-04-02T12:17:19Z</time>
      </trkpt>
      <trkpt lat="44.27807" lon="5.93312">
        <ele>534</ele>
        <time>2019-04-02T12:17:20Z</time>
      </trkpt>
      <trkpt lat="44.27802" lon="5.9331">
        <ele>534</ele>
        <time>2019-04-02T12:17:21Z</time>
      </trkpt>
      <trkpt lat="44.27796" lon="5.93308">
        <ele>534</ele>
        <time>2019-04-02T12:17:22Z</time>
      </trkpt>
      <trkpt lat="44.2779" lon="5.93306">
        <ele>534</ele>
        <time>2019-04-02T12:17:23Z</time>
      </trkpt>
      <trkpt lat="44.27784" lon="5.93305">
        <ele>534</ele>
        <time>2019-04-02T12:17:24Z</time>
      </trkpt>
      <trkpt lat="44.27779" lon="5.93304">
        <ele>534</ele>
        <time>2019-04-02T12:17:25Z</time>
      </trkpt>
      <trkpt lat="44.27773" lon="5.93302">
        <ele>534</ele>
        <time>2019-04-02T12:17:26Z</time>
      </trkpt>
      <trkpt lat="44.27767" lon="5.93301">
        <ele>534</ele>
        <time>2019-04-02T12:17:27Z</time>
      </trkpt>
      <trkpt lat="44.27762" lon="5.93299">
        <ele>534</ele>
        <time>2019-04-02T12:17:28Z</time>
      </trkpt>
      <trkpt lat="44.27756" lon="5.93298">
        <ele>533</ele>
        <time>2019-04-02T12:17:29Z</time>
      </trkpt>
      <trkpt lat="44.2775" lon="5.93298">
        <ele>533</ele>
        <time>2019-04-02T12:17:30Z</time>
      </trkpt>
      <trkpt lat="44.27744" lon="5.93297">
        <ele>533</ele>
        <time>2019-04-02T12:17:31Z</time>
      </trkpt>
      <trkpt lat="44.27738" lon="5.93296">
        <ele>533</ele>
        <time>2019-04-02T12:17:32Z</time>
      </trkpt>
      <trkpt lat="44.27732" lon="5.93296">
        <ele>533</ele>
        <time>2019-04-02T12:17:33Z</time>
      </trkpt>
      <trkpt lat="44.27726" lon="5.93295">
        <ele>533</ele>
        <time>2019-04-02T12:17:34Z</time>
      </trkpt>
      <trkpt lat="44.2772" lon="5.93295">
        <ele>533</ele>
        <time>2019-04-02T12:17:35Z</time>
      </trkpt>
      <trkpt lat="44.27714" lon="5.93295">
        <ele>533</ele>
        <time>2019-04-02T12:17:36Z</time>
      </trkpt>
      <trkpt lat="44.27708" lon="5.93295">
        <ele>533</ele>
        <time>2019-04-02T12:17:37Z</time>
      </trkpt>
      <trkpt lat="44.27702" lon="5.93295">
        <ele>533</ele>
        <time>2019-04-02T12:17:38Z</time>
      </trkpt>
      <trkpt lat="44.27697" lon="5.93295">
        <ele>533</ele>
        <time>2019-04-02T12:17:39Z</time>
      </trkpt>
      <trkpt lat="44.27691" lon="5.93295">
        <ele>533</ele>
        <time>2019-04-02T12:17:40Z</time>
      </trkpt>
      <trkpt lat="44.27685" lon="5.93294">
        <ele>533</ele>
        <time>2019-04-02T12:17:41Z</time>
      </trkpt>
      <trkpt lat="44.27679" lon="5.93293">
        <ele>533</ele>
        <time>2019-04-02T12:17:42Z</time>
      </trkpt>
      <trkpt lat="44.27674" lon="5.93292">
        <ele>533</ele>
        <time>2019-04-02T12:17:43Z</time>
      </trkpt>
      <trkpt lat="44.27668" lon="5.9329">
        <ele>533</ele>
        <time>2019-04-02T12:17:44Z</time>
      </trkpt>
      <trkpt lat="44.27663" lon="5.93288">
        <ele>532</ele>
        <time>2019-04-02T12:17:45Z</time>
      </trkpt>
      <trkpt lat="44.27657" lon="5.93285">
        <ele>532</ele>
        <time>2019-04-02T12:17:46Z</time>
      </trkpt>
      <trkpt lat="44.27652" lon="5.93282">
        <ele>532</ele>
        <time>2019-04-02T12:17:47Z</time>
      </trkpt>
      <trkpt lat="44.27647" lon="5.93279">
        <ele>532</ele>
        <time>2019-04-02T12:17:48Z</time>
      </trkpt>
      <trkpt lat="44.27642" lon="5.93276">
        <ele>532</ele>
        <time>2019-04-02T12:17:49Z</time>
      </trkpt>
      <trkpt lat="44.27637" lon="5.93272">
        <ele>532</ele>
        <time>2019-04-02T12:17:50Z</time>
      </trkpt>
      <trkpt lat="44.27632" lon="5.93269">
        <ele>532</ele>
        <time>2019-04-02T12:17:51Z</time>
      </trkpt>
      <trkpt lat="44.27627" lon="5.93266">
        <ele>532</ele>
        <time>2019-04-02T12:17:52Z</time>
      </trkpt>
      <trkpt lat="44.27623" lon="5.93263">
        <ele>532</ele>
        <time>2019-04-02T12:17:53Z</time>
      </trkpt>
      <trkpt lat="44.27618" lon="5.9326">
        <ele>532</ele>
        <time>2019-04-02T12:17:54Z</time>
      </trkpt>
      <trkpt lat="44.27613" lon="5.93258">
        <ele>532</ele>
        <time>2019-04-02T12:17:55Z</time>
      </trkpt>
      <trkpt lat="44.27607" lon="5.93255">
        <ele>532</ele>
        <time>2019-04-02T12:17:56Z</time>
      </trkpt>
      <trkpt lat="44.27601" lon="5.93253">
        <ele>532</ele>
        <time>2019-04-02T12:17:57Z</time>
      </trkpt>
      <trkpt lat="44.27595" lon="5.93251">
        <ele>532</ele>
        <time>2019-04-02T12:17:58Z</time>
      </trkpt>
      <trkpt lat="44.27589" lon="5.9325">
        <ele>532</ele>
        <time>2019-04-02T12:17:59Z</time>
      </trkpt>
      <trkpt lat="44.27583" lon="5.93249">
        <ele>532</ele>
        <time>2019-04-02T12:18:00Z</time>
      </trkpt>
      <trkpt lat="44.27578" lon="5.93248">
        <ele>532</ele>
        <time>2019-04-02T12:18:01Z</time>
      </trkpt>
      <trkpt lat="44.27572" lon="5.93247">
        <ele>532</ele>
        <time>2019-04-02T12:18:02Z</time>
      </trkpt>
      <trkpt lat="44.27566" lon="5.93246">
        <ele>532</ele>
        <time>2019-04-02T12:18:03Z</time>
      </trkpt>
      <trkpt lat="44.2756" lon="5.93245">
        <ele>532</ele>
        <time>2019-04-02T12:18:04Z</time>
      </trkpt>
      <trkpt lat="44.27554" lon="5.93244">
        <ele>532</ele>
        <time>2019-04-02T12:18:05Z</time>
      </trkpt>
      <trkpt lat="44.27548" lon="5.93243">
        <ele>532</ele>
        <time>2019-04-02T12:18:06Z</time>
      </trkpt>
      <trkpt lat="44.27542" lon="5.93242">
        <ele>532</ele>
        <time>2019-04-02T12:18:07Z</time>
      </trkpt>
      <trkpt lat="44.27536" lon="5.93241">
        <ele>532</ele>
        <time>2019-04-02T12:18:08Z</time>
      </trkpt>
      <trkpt lat="44.27531" lon="5.9324">
        <ele>532</ele>
        <time>2019-04-02T12:18:09Z</time>
      </trkpt>
      <trkpt lat="44.27525" lon="5.93239">
        <ele>532</ele>
        <time>2019-04-02T12:18:10Z</time>
      </trkpt>
      <trkpt lat="44.27519" lon="5.93238">
        <ele>532</ele>
        <time>2019-04-02T12:18:11Z</time>
      </trkpt>
      <trkpt lat="44.27514" lon="5.93237">
        <ele>532</ele>
        <time>2019-04-02T12:18:12Z</time>
      </trkpt>
      <trkpt lat="44.27508" lon="5.93236">
        <ele>532</ele>
        <time>2019-04-02T12:18:13Z</time>
      </trkpt>
      <trkpt lat="44.27502" lon="5.93236">
        <ele>532</ele>
        <time>2019-04-02T12:18:14Z</time>
      </trkpt>
      <trkpt lat="44.27496" lon="5.93235">
        <ele>532</ele>
        <time>2019-04-02T12:18:15Z</time>
      </trkpt>
      <trkpt lat="44.27491" lon="5.93234">
        <ele>532</ele>
        <time>2019-04-02T12:18:16Z</time>
      </trkpt>
      <trkpt lat="44.27485" lon="5.93234">
        <ele>532</ele>
        <time>2019-04-02T12:18:17Z</time>
      </trkpt>
      <trkpt lat="44.2748" lon="5.93233">
        <ele>532</ele>
        <time>2019-04-02T12:18:18Z</time>
      </trkpt>
      <trkpt lat="44.27474" lon="5.93232">
        <ele>532</ele>
        <time>2019-04-02T12:18:19Z</time>
      </trkpt>
      <trkpt lat="44.27468" lon="5.93232">
        <ele>532</ele>
        <time>2019-04-02T12:18:20Z</time>
      </trkpt>
      <trkpt lat="44.27462" lon="5.93231">
        <ele>532</ele>
        <time>2019-04-02T12:18:21Z</time>
      </trkpt>
      <trkpt lat="44.27456" lon="5.93231">
        <ele>532</ele>
        <time>2019-04-02T12:18:22Z</time>
      </trkpt>
      <trkpt lat="44.2745" lon="5.93231">
        <ele>532</ele>
        <time>2019-04-02T12:18:23Z</time>
      </trkpt>
      <trkpt lat="44.27444" lon="5.93231">
        <ele>532</ele>
        <time>2019-04-02T12:18:24Z</time>
      </trkpt>
      <trkpt lat="44.27438" lon="5.9323">
        <ele>531</ele>
        <time>2019-04-02T12:18:25Z</time>
      </trkpt>
      <trkpt lat="44.27432" lon="5.93229">
        <ele>531</ele>
        <time>2019-04-02T12:18:26Z</time>
      </trkpt>
      <trkpt lat="44.27426" lon="5.93229">
        <ele>531</ele>
        <time>2019-04-02T12:18:27Z</time>
      </trkpt>
      <trkpt lat="44.2742" lon="5.93228">
        <ele>531</ele>
        <time>2019-04-02T12:18:28Z</time>
      </trkpt>
      <trkpt lat="44.27414" lon="5.93227">
        <ele>531</ele>
        <time>2019-04-02T12:18:29Z</time>
      </trkpt>
      <trkpt lat="44.27408" lon="5.93226">
        <ele>531</ele>
        <time>2019-04-02T12:18:30Z</time>
      </trkpt>
      <trkpt lat="44.27402" lon="5.93225">
        <ele>531</ele>
        <time>2019-04-02T12:18:31Z</time>
      </trkpt>
      <trkpt lat="44.27396" lon="5.93224">
        <ele>531</ele>
        <time>2019-04-02T12:18:32Z</time>
      </trkpt>
      <trkpt lat="44.2739" lon="5.93223">
        <ele>531</ele>
        <time>2019-04-02T12:18:33Z</time>
      </trkpt>
      <trkpt lat="44.27385" lon="5.93222">
        <ele>531</ele>
        <time>2019-04-02T12:18:34Z</time>
      </trkpt>
      <trkpt lat="44.27379" lon="5.9322">
        <ele>531</ele>
        <time>2019-04-02T12:18:35Z</time>
      </trkpt>
      <trkpt lat="44.27373" lon="5.93219">
        <ele>531</ele>
        <time>2019-04-02T12:18:36Z</time>
      </trkpt>
      <trkpt lat="44.27367" lon="5.93218">
        <ele>531</ele>
        <time>2019-04-02T12:18:37Z</time>
      </trkpt>
      <trkpt lat="44.27361" lon="5.93216">
        <ele>531</ele>
        <time>2019-04-02T12:18:38Z</time>
      </trkpt>
      <trkpt lat="44.27355" lon="5.93215">
        <ele>531</ele>
        <time>2019-04-02T12:18:39Z</time>
      </trkpt>
      <trkpt lat="44.27348" lon="5.93213">
        <ele>531</ele>
        <time>2019-04-02T12:18:40Z</time>
      </trkpt>
      <trkpt lat="44.27342" lon="5.93212">
        <ele>530</ele>
        <time>2019-04-02T12:18:41Z</time>
      </trkpt>
      <trkpt lat="44.27336" lon="5.93211">
        <ele>530</ele>
        <time>2019-04-02T12:18:42Z</time>
      </trkpt>
      <trkpt lat="44.2733" lon="5.93209">
        <ele>530</ele>
        <time>2019-04-02T12:18:43Z</time>
      </trkpt>
      <trkpt lat="44.27324" lon="5.93208">
        <ele>530</ele>
        <time>2019-04-02T12:18:44Z</time>
      </trkpt>
      <trkpt lat="44.27317" lon="5.93207">
        <ele>530</ele>
        <time>2019-04-02T12:18:45Z</time>
      </trkpt>
      <trkpt lat="44.27311" lon="5.93205">
        <ele>530</ele>
        <time>2019-04-02T12:18:46Z</time>
      </trkpt>
      <trkpt lat="44.27305" lon="5.93204">
        <ele>530</ele>
        <time>2019-04-02T12:18:47Z</time>
      </trkpt>
      <trkpt lat="44.27298" lon="5.93203">
        <ele>530</ele>
        <time>2019-04-02T12:18:48Z</time>
      </trkpt>
      <trkpt lat="44.27292" lon="5.93202">
        <ele>530</ele>
        <time>2019-04-02T12:18:49Z</time>
      </trkpt>
      <trkpt lat="44.27286" lon="5.932">
        <ele>530</ele>
        <time>2019-04-02T12:18:50Z</time>
      </trkpt>
      <trkpt lat="44.2728" lon="5.93199">
        <ele>530</ele>
        <time>2019-04-02T12:18:51Z</time>
      </trkpt>
      <trkpt lat="44.27274" lon="5.93198">
        <ele>530</ele>
        <time>2019-04-02T12:18:52Z</time>
      </trkpt>
      <trkpt lat="44.27267" lon="5.93196">
        <ele>530</ele>
        <time>2019-04-02T12:18:53Z</time>
      </trkpt>
      <trkpt lat="44.27261" lon="5.93195">
        <ele>530</ele>
        <time>2019-04-02T12:18:54Z</time>
      </trkpt>
      <trkpt lat="44.27255" lon="5.93194">
        <ele>530</ele>
        <time>2019-04-02T12:18:55Z</time>
      </trkpt>
      <trkpt lat="44.27249" lon="5.93193">
        <ele>530</ele>
        <time>2019-04-02T12:18:56Z</time>
      </trkpt>
      <trkpt lat="44.27243" lon="5.93192">
        <ele>530</ele>
        <time>2019-04-02T12:18:57Z</time>
      </trkpt>
      <trkpt lat="44.27237" lon="5.93191">
        <ele>530</ele>
        <time>2019-04-02T12:18:58Z</time>
      </trkpt>
      <trkpt lat="44.27231" lon="5.93189">
        <ele>530</ele>
        <time>2019-04-02T12:18:59Z</time>
      </trkpt>
      <trkpt lat="44.27225" lon="5.93187">
        <ele>530</ele>
        <time>2019-04-02T12:19:00Z</time>
      </trkpt>
      <trkpt lat="44.2722" lon="5.93185">
        <ele>530</ele>
        <time>2019-04-02T12:19:01Z</time>
      </trkpt>
      <trkpt lat="44.27214" lon="5.93184">
        <ele>530</ele>
        <time>2019-04-02T12:19:02Z</time>
      </trkpt>
      <trkpt lat="44.27208" lon="5.93182">
        <ele>530</ele>
        <time>2019-04-02T12:19:03Z</time>
      </trkpt>
      <trkpt lat="44.27202" lon="5.93181">
        <ele>530</ele>
        <time>2019-04-02T12:19:04Z</time>
      </trkpt>
      <trkpt lat="44.27197" lon="5.93179">
        <ele>530</ele>
        <time>2019-04-02T12:19:05Z</time>
      </trkpt>
      <trkpt lat="44.2719" lon="5.93177">
        <ele>530</ele>
        <time>2019-04-02T12:19:06Z</time>
      </trkpt>
      <trkpt lat="44.27185" lon="5.93175">
        <ele>530</ele>
        <time>2019-04-02T12:19:07Z</time>
      </trkpt>
      <trkpt lat="44.27179" lon="5.93173">
        <ele>530</ele>
        <time>2019-04-02T12:19:08Z</time>
      </trkpt>
      <trkpt lat="44.27173" lon="5.93171">
        <ele>530</ele>
        <time>2019-04-02T12:19:09Z</time>
      </trkpt>
      <trkpt lat="44.27167" lon="5.93169">
        <ele>530</ele>
        <time>2019-04-02T12:19:10Z</time>
      </trkpt>
      <trkpt lat="44.27161" lon="5.93167">
        <ele>530</ele>
        <time>2019-04-02T12:19:11Z</time>
      </trkpt>
      <trkpt lat="44.27155" lon="5.93165">
        <ele>530</ele>
        <time>2019-04-02T12:19:12Z</time>
      </trkpt>
      <trkpt lat="44.27149" lon="5.93164">
        <ele>530</ele>
        <time>2019-04-02T12:19:13Z</time>
      </trkpt>
      <trkpt lat="44.27142" lon="5.93162">
        <ele>530</ele>
        <time>2019-04-02T12:19:14Z</time>
      </trkpt>
      <trkpt lat="44.27135" lon="5.9316">
        <ele>530</ele>
        <time>2019-04-02T12:19:15Z</time>
      </trkpt>
      <trkpt lat="44.27129" lon="5.93158">
        <ele>530</ele>
        <time>2019-04-02T12:19:16Z</time>
      </trkpt>
      <trkpt lat="44.27122" lon="5.93156">
        <ele>530</ele>
        <time>2019-04-02T12:19:17Z</time>
      </trkpt>
      <trkpt lat="44.27116" lon="5.93154">
        <ele>530</ele>
        <time>2019-04-02T12:19:18Z</time>
      </trkpt>
      <trkpt lat="44.27109" lon="5.93153">
        <ele>530</ele>
        <time>2019-04-02T12:19:19Z</time>
      </trkpt>
      <trkpt lat="44.27102" lon="5.93151">
        <ele>530</ele>
        <time>2019-04-02T12:19:20Z</time>
      </trkpt>
      <trkpt lat="44.27096" lon="5.93149">
        <ele>530</ele>
        <time>2019-04-02T12:19:21Z</time>
      </trkpt>
      <trkpt lat="44.27089" lon="5.93147">
        <ele>530</ele>
        <time>2019-04-02T12:19:22Z</time>
      </trkpt>
      <trkpt lat="44.27083" lon="5.93145">
        <ele>530</ele>
        <time>2019-04-02T12:19:23Z</time>
      </trkpt>
      <trkpt lat="44.27076" lon="5.93143">
        <ele>530</ele>
        <time>2019-04-02T12:19:24Z</time>
      </trkpt>
      <trkpt lat="44.2707" lon="5.93141">
        <ele>530</ele>
        <time>2019-04-02T12:19:25Z</time>
      </trkpt>
      <trkpt lat="44.27064" lon="5.93138">
        <ele>530</ele>
        <time>2019-04-02T12:19:26Z</time>
      </trkpt>
      <trkpt lat="44.27057" lon="5.93136">
        <ele>530</ele>
        <time>2019-04-02T12:19:27Z</time>
      </trkpt>
      <trkpt lat="44.27051" lon="5.93133">
        <ele>530</ele>
        <time>2019-04-02T12:19:28Z</time>
      </trkpt>
      <trkpt lat="44.27045" lon="5.93131">
        <ele>530</ele>
        <time>2019-04-02T12:19:29Z</time>
      </trkpt>
      <trkpt lat="44.27038" lon="5.93129">
        <ele>529</ele>
        <time>2019-04-02T12:19:30Z</time>
      </trkpt>
      <trkpt lat="44.27032" lon="5.93127">
        <ele>529</ele>
        <time>2019-04-02T12:19:31Z</time>
      </trkpt>
      <trkpt lat="44.27026" lon="5.93125">
        <ele>529</ele>
        <time>2019-04-02T12:19:32Z</time>
      </trkpt>
      <trkpt lat="44.2702" lon="5.93122">
        <ele>529</ele>
        <time>2019-04-02T12:19:33Z</time>
      </trkpt>
      <trkpt lat="44.27013" lon="5.9312">
        <ele>529</ele>
        <time>2019-04-02T12:19:34Z</time>
      </trkpt>
      <trkpt lat="44.27007" lon="5.93118">
        <ele>529</ele>
        <time>2019-04-02T12:19:35Z</time>
      </trkpt>
      <trkpt lat="44.27" lon="5.93115">
        <ele>529</ele>
        <time>2019-04-02T12:19:36Z</time>
      </trkpt>
      <trkpt lat="44.26994" lon="5.93113">
        <ele>529</ele>
        <time>2019-04-02T12:19:37Z</time>
      </trkpt>
      <trkpt lat="44.26987" lon="5.9311">
        <ele>529</ele>
        <time>2019-04-02T12:19:38Z</time>
      </trkpt>
      <trkpt lat="44.26981" lon="5.93108">
        <ele>529</ele>
        <time>2019-04-02T12:19:39Z</time>
      </trkpt>
      <trkpt lat="44.26974" lon="5.93105">
        <ele>529</ele>
        <time>2019-04-02T12:19:40Z</time>
      </trkpt>
      <trkpt lat="44.26968" lon="5.93102">
        <ele>529</ele>
        <time>2019-04-02T12:19:41Z</time>
      </trkpt>
      <trkpt lat="44.26961" lon="5.931">
        <ele>529</ele>
        <time>2019-04-02T12:19:42Z</time>
      </trkpt>
      <trkpt lat="44.26955" lon="5.93098">
        <ele>529</ele>
        <time>2019-04-02T12:19:43Z</time>
      </trkpt>
      <trkpt lat="44.26948" lon="5.93095">
        <ele>529</ele>
        <time>2019-04-02T12:19:44Z</time>
      </trkpt>
      <trkpt lat="44.26942" lon="5.93093">
        <ele>529</ele>
        <time>2019-04-02T12:19:45Z</time>
      </trkpt>
      <trkpt lat="44.26936" lon="5.9309">
        <ele>529</ele>
        <time>2019-04-02T12:19:46Z</time>
      </trkpt>
      <trkpt lat="44.26929" lon="5.93088">
        <ele>529</ele>
        <time>2019-04-02T12:19:47Z</time>
      </trkpt>
      <trkpt lat="44.26923" lon="5.93086">
        <ele>529</ele>
        <time>2019-04-02T12:19:48Z</time>
      </trkpt>
      <trkpt lat="44.26917" lon="5.93084">
        <ele>528</ele>
        <time>2019-04-02T12:19:49Z</time>
      </trkpt>
      <trkpt lat="44.26911" lon="5.93081">
        <ele>528</ele>
        <time>2019-04-02T12:19:50Z</time>
      </trkpt>
      <trkpt lat="44.26905" lon="5.93078">
        <ele>528</ele>
        <time>2019-04-02T12:19:51Z</time>
      </trkpt>
      <trkpt lat="44.26899" lon="5.93075">
        <ele>528</ele>
        <time>2019-04-02T12:19:52Z</time>
      </trkpt>
      <trkpt lat="44.26893" lon="5.93071">
        <ele>528</ele>
        <time>2019-04-02T12:19:53Z</time>
      </trkpt>
      <trkpt lat="44.26887" lon="5.93067">
        <ele>528</ele>
        <time>2019-04-02T12:19:54Z</time>
      </trkpt>
      <trkpt lat="44.26882" lon="5.93063">
        <ele>528</ele>
        <time>2019-04-02T12:19:55Z</time>
      </trkpt>
      <trkpt lat="44.26876" lon="5.93059">
        <ele>528</ele>
        <time>2019-04-02T12:19:56Z</time>
      </trkpt>
      <trkpt lat="44.2687" lon="5.93055">
        <ele>528</ele>
        <time>2019-04-02T12:19:57Z</time>
      </trkpt>
      <trkpt lat="44.26865" lon="5.93051">
        <ele>528</ele>
        <time>2019-04-02T12:19:58Z</time>
      </trkpt>
      <trkpt lat="44.2686" lon="5.93047">
        <ele>528</ele>
        <time>2019-04-02T12:19:59Z</time>
      </trkpt>
      <trkpt lat="44.26854" lon="5.93043">
        <ele>528</ele>
        <time>2019-04-02T12:20:00Z</time>
      </trkpt>
      <trkpt lat="44.26849" lon="5.9304">
        <ele>528</ele>
        <time>2019-04-02T12:20:01Z</time>
      </trkpt>
      <trkpt lat="44.26843" lon="5.93037">
        <ele>528</ele>
        <time>2019-04-02T12:20:02Z</time>
      </trkpt>
      <trkpt lat="44.26838" lon="5.93034">
        <ele>528</ele>
        <time>2019-04-02T12:20:03Z</time>
      </trkpt>
      <trkpt lat="44.26832" lon="5.93032">
        <ele>528</ele>
        <time>2019-04-02T12:20:04Z</time>
      </trkpt>
      <trkpt lat="44.26827" lon="5.93029">
        <ele>528</ele>
        <time>2019-04-02T12:20:05Z</time>
      </trkpt>
      <trkpt lat="44.26821" lon="5.93027">
        <ele>527</ele>
        <time>2019-04-02T12:20:06Z</time>
      </trkpt>
      <trkpt lat="44.26816" lon="5.93025">
        <ele>527</ele>
        <time>2019-04-02T12:20:07Z</time>
      </trkpt>
      <trkpt lat="44.2681" lon="5.93023">
        <ele>527</ele>
        <time>2019-04-02T12:20:08Z</time>
      </trkpt>
      <trkpt lat="44.26804" lon="5.93021">
        <ele>527</ele>
        <time>2019-04-02T12:20:09Z</time>
      </trkpt>
      <trkpt lat="44.26799" lon="5.9302">
        <ele>527</ele>
        <time>2019-04-02T12:20:10Z</time>
      </trkpt>
      <trkpt lat="44.26794" lon="5.93018">
        <ele>527</ele>
        <time>2019-04-02T12:20:11Z</time>
      </trkpt>
      <trkpt lat="44.26788" lon="5.93016">
        <ele>527</ele>
        <time>2019-04-02T12:20:12Z</time>
      </trkpt>
      <trkpt lat="44.26783" lon="5.93015">
        <ele>527</ele>
        <time>2019-04-02T12:20:13Z</time>
      </trkpt>
      <trkpt lat="44.26777" lon="5.93013">
        <ele>527</ele>
        <time>2019-04-02T12:20:14Z</time>
      </trkpt>
      <trkpt lat="44.26772" lon="5.93011">
        <ele>527</ele>
        <time>2019-04-02T12:20:15Z</time>
      </trkpt>
      <trkpt lat="44.26766" lon="5.9301">
        <ele>527</ele>
        <time>2019-04-02T12:20:16Z</time>
      </trkpt>
      <trkpt lat="44.26761" lon="5.93008">
        <ele>527</ele>
        <time>2019-04-02T12:20:17Z</time>
      </trkpt>
      <trkpt lat="44.26755" lon="5.93007">
        <ele>527</ele>
        <time>2019-04-02T12:20:18Z</time>
      </trkpt>
      <trkpt lat="44.2675" lon="5.93005">
        <ele>527</ele>
        <time>2019-04-02T12:20:19Z</time>
      </trkpt>
      <trkpt lat="44.26744" lon="5.93004">
        <ele>527</ele>
        <time>2019-04-02T12:20:20Z</time>
      </trkpt>
      <trkpt lat="44.26739" lon="5.93002">
        <ele>527</ele>
        <time>2019-04-02T12:20:21Z</time>
      </trkpt>
      <trkpt lat="44.26733" lon="5.93001">
        <ele>527</ele>
        <time>2019-04-02T12:20:22Z</time>
      </trkpt>
      <trkpt lat="44.26728" lon="5.92999">
        <ele>527</ele>
        <time>2019-04-02T12:20:23Z</time>
      </trkpt>
      <trkpt lat="44.26722" lon="5.92997">
        <ele>527</ele>
        <time>2019-04-02T12:20:24Z</time>
      </trkpt>
      <trkpt lat="44.26717" lon="5.92995">
        <ele>527</ele>
        <time>2019-04-02T12:20:25Z</time>
      </trkpt>
      <trkpt lat="44.26711" lon="5.92994">
        <ele>527</ele>
        <time>2019-04-02T12:20:26Z</time>
      </trkpt>
      <trkpt lat="44.26705" lon="5.92993">
        <ele>527</ele>
        <time>2019-04-02T12:20:27Z</time>
      </trkpt>
      <trkpt lat="44.267" lon="5.92991">
        <ele>527</ele>
        <time>2019-04-02T12:20:28Z</time>
      </trkpt>
      <trkpt lat="44.26694" lon="5.9299">
        <ele>527</ele>
        <time>2019-04-02T12:20:29Z</time>
      </trkpt>
      <trkpt lat="44.26688" lon="5.92988">
        <ele>527</ele>
        <time>2019-04-02T12:20:30Z</time>
      </trkpt>
      <trkpt lat="44.26683" lon="5.92987">
        <ele>527</ele>
        <time>2019-04-02T12:20:31Z</time>
      </trkpt>
      <trkpt lat="44.26677" lon="5.92985">
        <ele>527</ele>
        <time>2019-04-02T12:20:32Z</time>
      </trkpt>
      <trkpt lat="44.26672" lon="5.92984">
        <ele>527</ele>
        <time>2019-04-02T12:20:33Z</time>
      </trkpt>
      <trkpt lat="44.26666" lon="5.92982">
        <ele>527</ele>
        <time>2019-04-02T12:20:34Z</time>
      </trkpt>
      <trkpt lat="44.2666" lon="5.92981">
        <ele>527</ele>
        <time>2019-04-02T12:20:35Z</time>
      </trkpt>
      <trkpt lat="44.26655" lon="5.92979">
        <ele>527</ele>
        <time>2019-04-02T12:20:36Z</time>
      </trkpt>
      <trkpt lat="44.26649" lon="5.92978">
        <ele>527</ele>
        <time>2019-04-02T12:20:37Z</time>
      </trkpt>
      <trkpt lat="44.26644" lon="5.92976">
        <ele>527</ele>
        <time>2019-04-02T12:20:38Z</time>
      </trkpt>
      <trkpt lat="44.26638" lon="5.92975">
        <ele>527</ele>
        <time>2019-04-02T12:20:39Z</time>
      </trkpt>
      <trkpt lat="44.26632" lon="5.92973">
        <ele>527</ele>
        <time>2019-04-02T12:20:40Z</time>
      </trkpt>
      <trkpt lat="44.26627" lon="5.92972">
        <ele>527</ele>
        <time>2019-04-02T12:20:41Z</time>
      </trkpt>
      <trkpt lat="44.26621" lon="5.9297">
        <ele>527</ele>
        <time>2019-04-02T12:20:42Z</time>
      </trkpt>
      <trkpt lat="44.26615" lon="5.92969">
        <ele>527</ele>
        <time>2019-04-02T12:20:43Z</time>
      </trkpt>
      <trkpt lat="44.26609" lon="5.92967">
        <ele>527</ele>
        <time>2019-04-02T12:20:44Z</time>
      </trkpt>
      <trkpt lat="44.26603" lon="5.92966">
        <ele>527</ele>
        <time>2019-04-02T12:20:45Z</time>
      </trkpt>
      <trkpt lat="44.26598" lon="5.92965">
        <ele>527</ele>
        <time>2019-04-02T12:20:46Z</time>
      </trkpt>
      <trkpt lat="44.26592" lon="5.92963">
        <ele>527</ele>
        <time>2019-04-02T12:20:47Z</time>
      </trkpt>
      <trkpt lat="44.26586" lon="5.92962">
        <ele>527</ele>
        <time>2019-04-02T12:20:48Z</time>
      </trkpt>
      <trkpt lat="44.2658" lon="5.92961">
        <ele>527</ele>
        <time>2019-04-02T12:20:49Z</time>
      </trkpt>
      <trkpt lat="44.26574" lon="5.9296">
        <ele>527</ele>
        <time>2019-04-02T12:20:50Z</time>
      </trkpt>
      <trkpt lat="44.26569" lon="5.92958">
        <ele>527</ele>
        <time>2019-04-02T12:20:51Z</time>
      </trkpt>
      <trkpt lat="44.26563" lon="5.92957">
        <ele>527</ele>
        <time>2019-04-02T12:20:52Z</time>
      </trkpt>
      <trkpt lat="44.26557" lon="5.92956">
        <ele>527</ele>
        <time>2019-04-02T12:20:53Z</time>
      </trkpt>
      <trkpt lat="44.26551" lon="5.92955">
        <ele>527</ele>
        <time>2019-04-02T12:20:54Z</time>
      </trkpt>
      <trkpt lat="44.26545" lon="5.92954">
        <ele>527</ele>
        <time>2019-04-02T12:20:55Z</time>
      </trkpt>
      <trkpt lat="44.26539" lon="5.92953">
        <ele>527</ele>
        <time>2019-04-02T12:20:56Z</time>
      </trkpt>
      <trkpt lat="44.26533" lon="5.92953">
        <ele>527</ele>
        <time>2019-04-02T12:20:57Z</time>
      </trkpt>
      <trkpt lat="44.26527" lon="5.92953">
        <ele>527</ele>
        <time>2019-04-02T12:20:58Z</time>
      </trkpt>
      <trkpt lat="44.26522" lon="5.92952">
        <ele>527</ele>
        <time>2019-04-02T12:20:59Z</time>
      </trkpt>
      <trkpt lat="44.26516" lon="5.92952">
        <ele>527</ele>
        <time>2019-04-02T12:21:00Z</time>
      </trkpt>
      <trkpt lat="44.26509" lon="5.92952">
        <ele>527</ele>
        <time>2019-04-02T12:21:01Z</time>
      </trkpt>
      <trkpt lat="44.26503" lon="5.92952">
        <ele>527</ele>
        <time>2019-04-02T12:21:02Z</time>
      </trkpt>
      <trkpt lat="44.26498" lon="5.92953">
        <ele>527</ele>
        <time>2019-04-02T12:21:03Z</time>
      </trkpt>
      <trkpt lat="44.26492" lon="5.92953">
        <ele>527</ele>
        <time>2019-04-02T12:21:04Z</time>
      </trkpt>
      <trkpt lat="44.26485" lon="5.92953">
        <ele>527</ele>
        <time>2019-04-02T12:21:05Z</time>
      </trkpt>
      <trkpt lat="44.26479" lon="5.92954">
        <ele>527</ele>
        <time>2019-04-02T12:21:06Z</time>
      </trkpt>
      <trkpt lat="44.26474" lon="5.92954">
        <ele>527</ele>
        <time>2019-04-02T12:21:07Z</time>
      </trkpt>
      <trkpt lat="44.26468" lon="5.92954">
        <ele>527</ele>
        <time>2019-04-02T12:21:08Z</time>
      </trkpt>
      <trkpt lat="44.26462" lon="5.92955">
        <ele>527</ele>
        <time>2019-04-02T12:21:09Z</time>
      </trkpt>
      <trkpt lat="44.26456" lon="5.92955">
        <ele>527</ele>
        <time>2019-04-02T12:21:10Z</time>
      </trkpt>
      <trkpt lat="44.2645" lon="5.92956">
        <ele>527</ele>
        <time>2019-04-02T12:21:11Z</time>
      </trkpt>
      <trkpt lat="44.26444" lon="5.92956">
        <ele>527</ele>
        <time>2019-04-02T12:21:12Z</time>
      </trkpt>
      <trkpt lat="44.26438" lon="5.92956">
        <ele>527</ele>
        <time>2019-04-02T12:21:13Z</time>
      </trkpt>
      <trkpt lat="44.26432" lon="5.92956">
        <ele>527</ele>
        <time>2019-04-02T12:21:14Z</time>
      </trkpt>
      <trkpt lat="44.26426" lon="5.92956">
        <ele>527</ele>
        <time>2019-04-02T12:21:15Z</time>
      </trkpt>
      <trkpt lat="44.26421" lon="5.92956">
        <ele>527</ele>
        <time>2019-04-02T12:21:16Z</time>
      </trkpt>
      <trkpt lat="44.26415" lon="5.92956">
        <ele>527</ele>
        <time>2019-04-02T12:21:17Z</time>
      </trkpt>
      <trkpt lat="44.26409" lon="5.92956">
        <ele>527</ele>
        <time>2019-04-02T12:21:18Z</time>
      </trkpt>
      <trkpt lat="44.26403" lon="5.92956">
        <ele>527</ele>
        <time>2019-04-02T12:21:19Z</time>
      </trkpt>
      <trkpt lat="44.26397" lon="5.92956">
        <ele>527</ele>
        <time>2019-04-02T12:21:20Z</time>
      </trkpt>
      <trkpt lat="44.26391" lon="5.92955">
        <ele>527</ele>
        <time>2019-04-02T12:21:21Z</time>
      </trkpt>
      <trkpt lat="44.26385" lon="5.92955">
        <ele>527</ele>
        <time>2019-04-02T12:21:22Z</time>
      </trkpt>
      <trkpt lat="44.26379" lon="5.92955">
        <ele>527</ele>
        <time>2019-04-02T12:21:23Z</time>
      </trkpt>
      <trkpt lat="44.26373" lon="5.92955">
        <ele>527</ele>
        <time>2019-04-02T12:21:24Z</time>
      </trkpt>
      <trkpt lat="44.26367" lon="5.92955">
        <ele>527</ele>
        <time>2019-04-02T12:21:25Z</time>
      </trkpt>
      <trkpt lat="44.26361" lon="5.92955">
        <ele>527</ele>
        <time>2019-04-02T12:21:26Z</time>
      </trkpt>
      <trkpt lat="44.26355" lon="5.92955">
        <ele>527</ele>
        <time>2019-04-02T12:21:27Z</time>
      </trkpt>
      <trkpt lat="44.26349" lon="5.92955">
        <ele>527</ele>
        <time>2019-04-02T12:21:28Z</time>
      </trkpt>
      <trkpt lat="44.26343" lon="5.92955">
        <ele>527</ele>
        <time>2019-04-02T12:21:29Z</time>
      </trkpt>
      <trkpt lat="44.26337" lon="5.92955">
        <ele>527</ele>
        <time>2019-04-02T12:21:30Z</time>
      </trkpt>
      <trkpt lat="44.26331" lon="5.92955">
        <ele>527</ele>
        <time>2019-04-02T12:21:31Z</time>
      </trkpt>
      <trkpt lat="44.26325" lon="5.92955">
        <ele>527</ele>
        <time>2019-04-02T12:21:32Z</time>
      </trkpt>
      <trkpt lat="44.26319" lon="5.92955">
        <ele>527</ele>
        <time>2019-04-02T12:21:33Z</time>
      </trkpt>
      <trkpt lat="44.26313" lon="5.92954">
        <ele>527</ele>
        <time>2019-04-02T12:21:34Z</time>
      </trkpt>
      <trkpt lat="44.26307" lon="5.92954">
        <ele>527</ele>
        <time>2019-04-02T12:21:35Z</time>
      </trkpt>
      <trkpt lat="44.26301" lon="5.92954">
        <ele>527</ele>
        <time>2019-04-02T12:21:36Z</time>
      </trkpt>
      <trkpt lat="44.26295" lon="5.92954">
        <ele>527</ele>
        <time>2019-04-02T12:21:37Z</time>
      </trkpt>
      <trkpt lat="44.26289" lon="5.92954">
        <ele>527</ele>
        <time>2019-04-02T12:21:38Z</time>
      </trkpt>
      <trkpt lat="44.26283" lon="5.92954">
        <ele>527</ele>
        <time>2019-04-02T12:21:39Z</time>
      </trkpt>
      <trkpt lat="44.26277" lon="5.92954">
        <ele>527</ele>
        <time>2019-04-02T12:21:40Z</time>
      </trkpt>
      <trkpt lat="44.26271" lon="5.92954">
        <ele>527</ele>
        <time>2019-04-02T12:21:41Z</time>
      </trkpt>
      <trkpt lat="44.26265" lon="5.92953">
        <ele>527</ele>
        <time>2019-04-02T12:21:42Z</time>
      </trkpt>
      <trkpt lat="44.26259" lon="5.92953">
        <ele>526</ele>
        <time>2019-04-02T12:21:43Z</time>
      </trkpt>
      <trkpt lat="44.26253" lon="5.92953">
        <ele>526</ele>
        <time>2019-04-02T12:21:44Z</time>
      </trkpt>
      <trkpt lat="44.26247" lon="5.92953">
        <ele>526</ele>
        <time>2019-04-02T12:21:45Z</time>
      </trkpt>
      <trkpt lat="44.26241" lon="5.92953">
        <ele>526</ele>
        <time>2019-04-02T12:21:46Z</time>
      </trkpt>
      <trkpt lat="44.26235" lon="5.92953">
        <ele>526</ele>
        <time>2019-04-02T12:21:47Z</time>
      </trkpt>
      <trkpt lat="44.26229" lon="5.92953">
        <ele>526</ele>
        <time>2019-04-02T12:21:48Z</time>
      </trkpt>
      <trkpt lat="44.26223" lon="5.92953">
        <ele>526</ele>
        <time>2019-04-02T12:21:49Z</time>
      </trkpt>
      <trkpt lat="44.26217" lon="5.92953">
        <ele>526</ele>
        <time>2019-04-02T12:21:50Z</time>
      </trkpt>
      <trkpt lat="44.2621" lon="5.92952">
        <ele>526</ele>
        <time>2019-04-02T12:21:51Z</time>
      </trkpt>
      <trkpt lat="44.26204" lon="5.92952">
        <ele>526</ele>
        <time>2019-04-02T12:21:52Z</time>
      </trkpt>
      <trkpt lat="44.26198" lon="5.92952">
        <ele>526</ele>
        <time>2019-04-02T12:21:53Z</time>
      </trkpt>
      <trkpt lat="44.26192" lon="5.92952">
        <ele>526</ele>
        <time>2019-04-02T12:21:54Z</time>
      </trkpt>
      <trkpt lat="44.26186" lon="5.92952">
        <ele>526</ele>
        <time>2019-04-02T12:21:55Z</time>
      </trkpt>
      <trkpt lat="44.2618" lon="5.92952">
        <ele>526</ele>
        <time>2019-04-02T12:21:56Z</time>
      </trkpt>
      <trkpt lat="44.26173" lon="5.92952">
        <ele>526</ele>
        <time>2019-04-02T12:21:57Z</time>
      </trkpt>
      <trkpt lat="44.26167" lon="5.92952">
        <ele>526</ele>
        <time>2019-04-02T12:21:58Z</time>
      </trkpt>
      <trkpt lat="44.26161" lon="5.92952">
        <ele>526</ele>
        <time>2019-04-02T12:21:59Z</time>
      </trkpt>
      <trkpt lat="44.26155" lon="5.92951">
        <ele>526</ele>
        <time>2019-04-02T12:22:00Z</time>
      </trkpt>
      <trkpt lat="44.26149" lon="5.92951">
        <ele>525</ele>
        <time>2019-04-02T12:22:01Z</time>
      </trkpt>
      <trkpt lat="44.26142" lon="5.92951">
        <ele>525</ele>
        <time>2019-04-02T12:22:02Z</time>
      </trkpt>
      <trkpt lat="44.26136" lon="5.9295">
        <ele>525</ele>
        <time>2019-04-02T12:22:03Z</time>
      </trkpt>
      <trkpt lat="44.26129" lon="5.92949">
        <ele>525</ele>
        <time>2019-04-02T12:22:04Z</time>
      </trkpt>
      <trkpt lat="44.26122" lon="5.92947">
        <ele>524</ele>
        <time>2019-04-02T12:22:05Z</time>
      </trkpt>
      <trkpt lat="44.26114" lon="5.92945">
        <ele>524</ele>
        <time>2019-04-02T12:22:06Z</time>
      </trkpt>
      <trkpt lat="44.26107" lon="5.92942">
        <ele>524</ele>
        <time>2019-04-02T12:22:07Z</time>
      </trkpt>
      <trkpt lat="44.26101" lon="5.92939">
        <ele>523</ele>
        <time>2019-04-02T12:22:08Z</time>
      </trkpt>
      <trkpt lat="44.26094" lon="5.92935">
        <ele>523</ele>
        <time>2019-04-02T12:22:09Z</time>
      </trkpt>
      <trkpt lat="44.26088" lon="5.92932">
        <ele>522</ele>
        <time>2019-04-02T12:22:10Z</time>
      </trkpt>
      <trkpt lat="44.26081" lon="5.92928">
        <ele>522</ele>
        <time>2019-04-02T12:22:11Z</time>
      </trkpt>
      <trkpt lat="44.26075" lon="5.92924">
        <ele>521</ele>
        <time>2019-04-02T12:22:12Z</time>
      </trkpt>
      <trkpt lat="44.26069" lon="5.9292">
        <ele>521</ele>
        <time>2019-04-02T12:22:13Z</time>
      </trkpt>
      <trkpt lat="44.26063" lon="5.92916">
        <ele>521</ele>
        <time>2019-04-02T12:22:14Z</time>
      </trkpt>
      <trkpt lat="44.26057" lon="5.92912">
        <ele>521</ele>
        <time>2019-04-02T12:22:15Z</time>
      </trkpt>
      <trkpt lat="44.26051" lon="5.92909">
        <ele>521</ele>
        <time>2019-04-02T12:22:16Z</time>
      </trkpt>
      <trkpt lat="44.26045" lon="5.92906">
        <ele>520</ele>
        <time>2019-04-02T12:22:17Z</time>
      </trkpt>
      <trkpt lat="44.26039" lon="5.92903">
        <ele>520</ele>
        <time>2019-04-02T12:22:18Z</time>
      </trkpt>
      <trkpt lat="44.26032" lon="5.929">
        <ele>520</ele>
        <time>2019-04-02T12:22:19Z</time>
      </trkpt>
      <trkpt lat="44.26026" lon="5.92897">
        <ele>520</ele>
        <time>2019-04-02T12:22:20Z</time>
      </trkpt>
      <trkpt lat="44.2602" lon="5.92893">
        <ele>520</ele>
        <time>2019-04-02T12:22:21Z</time>
      </trkpt>
      <trkpt lat="44.26014" lon="5.9289">
        <ele>520</ele>
        <time>2019-04-02T12:22:22Z</time>
      </trkpt>
      <trkpt lat="44.26008" lon="5.92888">
        <ele>520</ele>
        <time>2019-04-02T12:22:23Z</time>
      </trkpt>
      <trkpt lat="44.26001" lon="5.92885">
        <ele>520</ele>
        <time>2019-04-02T12:22:24Z</time>
      </trkpt>
      <trkpt lat="44.25995" lon="5.92882">
        <ele>520</ele>
        <time>2019-04-02T12:22:25Z</time>
      </trkpt>
      <trkpt lat="44.25989" lon="5.9288">
        <ele>520</ele>
        <time>2019-04-02T12:22:26Z</time>
      </trkpt>
      <trkpt lat="44.25983" lon="5.92877">
        <ele>520</ele>
        <time>2019-04-02T12:22:27Z</time>
      </trkpt>
      <trkpt lat="44.25977" lon="5.92875">
        <ele>520</ele>
        <time>2019-04-02T12:22:28Z</time>
      </trkpt>
      <trkpt lat="44.25971" lon="5.92872">
        <ele>520</ele>
        <time>2019-04-02T12:22:29Z</time>
      </trkpt>
      <trkpt lat="44.25965" lon="5.9287">
        <ele>520</ele>
        <time>2019-04-02T12:22:30Z</time>
      </trkpt>
      <trkpt lat="44.25959" lon="5.92868">
        <ele>520</ele>
        <time>2019-04-02T12:22:31Z</time>
      </trkpt>
      <trkpt lat="44.25954" lon="5.92867">
        <ele>520</ele>
        <time>2019-04-02T12:22:32Z</time>
      </trkpt>
      <trkpt lat="44.25948" lon="5.92865">
        <ele>520</ele>
        <time>2019-04-02T12:22:33Z</time>
      </trkpt>
      <trkpt lat="44.25942" lon="5.92864">
        <ele>520</ele>
        <time>2019-04-02T12:22:34Z</time>
      </trkpt>
      <trkpt lat="44.25936" lon="5.92863">
        <ele>520</ele>
        <time>2019-04-02T12:22:35Z</time>
      </trkpt>
      <trkpt lat="44.2593" lon="5.92862">
        <ele>520</ele>
        <time>2019-04-02T12:22:36Z</time>
      </trkpt>
      <trkpt lat="44.25925" lon="5.92862">
        <ele>520</ele>
        <time>2019-04-02T12:22:37Z</time>
      </trkpt>
      <trkpt lat="44.25919" lon="5.92862">
        <ele>520</ele>
        <time>2019-04-02T12:22:38Z</time>
      </trkpt>
      <trkpt lat="44.25913" lon="5.92862">
        <ele>520</ele>
        <time>2019-04-02T12:22:39Z</time>
      </trkpt>
      <trkpt lat="44.25908" lon="5.92862">
        <ele>520</ele>
        <time>2019-04-02T12:22:40Z</time>
      </trkpt>
      <trkpt lat="44.25902" lon="5.92863">
        <ele>520</ele>
        <time>2019-04-02T12:22:41Z</time>
      </trkpt>
      <trkpt lat="44.25896" lon="5.92864">
        <ele>520</ele>
        <time>2019-04-02T12:22:42Z</time>
      </trkpt>
      <trkpt lat="44.2589" lon="5.92864">
        <ele>520</ele>
        <time>2019-04-02T12:22:43Z</time>
      </trkpt>
      <trkpt lat="44.25884" lon="5.92865">
        <ele>520</ele>
        <time>2019-04-02T12:22:44Z</time>
      </trkpt>
      <trkpt lat="44.25879" lon="5.92867">
        <ele>520</ele>
        <time>2019-04-02T12:22:45Z</time>
      </trkpt>
      <trkpt lat="44.25873" lon="5.92868">
        <ele>520</ele>
        <time>2019-04-02T12:22:46Z</time>
      </trkpt>
      <trkpt lat="44.25867" lon="5.92869">
        <ele>520</ele>
        <time>2019-04-02T12:22:47Z</time>
      </trkpt>
      <trkpt lat="44.25861" lon="5.92871">
        <ele>520</ele>
        <time>2019-04-02T12:22:48Z</time>
      </trkpt>
      <trkpt lat="44.25855" lon="5.92872">
        <ele>520</ele>
        <time>2019-04-02T12:22:49Z</time>
      </trkpt>
      <trkpt lat="44.25849" lon="5.92873">
        <ele>520</ele>
        <time>2019-04-02T12:22:50Z</time>
      </trkpt>
      <trkpt lat="44.25843" lon="5.92875">
        <ele>520</ele>
        <time>2019-04-02T12:22:51Z</time>
      </trkpt>
      <trkpt lat="44.25837" lon="5.92876">
        <ele>520</ele>
        <time>2019-04-02T12:22:52Z</time>
      </trkpt>
      <trkpt lat="44.25831" lon="5.92879">
        <ele>520</ele>
        <time>2019-04-02T12:22:53Z</time>
      </trkpt>
      <trkpt lat="44.25825" lon="5.92881">
        <ele>520</ele>
        <time>2019-04-02T12:22:54Z</time>
      </trkpt>
      <trkpt lat="44.25819" lon="5.92883">
        <ele>520</ele>
        <time>2019-04-02T12:22:55Z</time>
      </trkpt>
      <trkpt lat="44.25813" lon="5.92885">
        <ele>520</ele>
        <time>2019-04-02T12:22:56Z</time>
      </trkpt>
      <trkpt lat="44.25807" lon="5.92888">
        <ele>520</ele>
        <time>2019-04-02T12:22:57Z</time>
      </trkpt>
      <trkpt lat="44.25801" lon="5.92891">
        <ele>520</ele>
        <time>2019-04-02T12:22:58Z</time>
      </trkpt>
      <trkpt lat="44.25795" lon="5.92893">
        <ele>520</ele>
        <time>2019-04-02T12:22:59Z</time>
      </trkpt>
      <trkpt lat="44.25789" lon="5.92896">
        <ele>520</ele>
        <time>2019-04-02T12:23:00Z</time>
      </trkpt>
      <trkpt lat="44.25783" lon="5.92898">
        <ele>520</ele>
        <time>2019-04-02T12:23:01Z</time>
      </trkpt>
      <trkpt lat="44.25777" lon="5.92901">
        <ele>520</ele>
        <time>2019-04-02T12:23:02Z</time>
      </trkpt>
      <trkpt lat="44.25771" lon="5.92904">
        <ele>520</ele>
        <time>2019-04-02T12:23:03Z</time>
      </trkpt>
      <trkpt lat="44.25766" lon="5.92907">
        <ele>520</ele>
        <time>2019-04-02T12:23:04Z</time>
      </trkpt>
      <trkpt lat="44.2576" lon="5.92909">
        <ele>520</ele>
        <time>2019-04-02T12:23:05Z</time>
      </trkpt>
      <trkpt lat="44.25753" lon="5.92912">
        <ele>520</ele>
        <time>2019-04-02T12:23:06Z</time>
      </trkpt>
      <trkpt lat="44.25747" lon="5.92915">
        <ele>520</ele>
        <time>2019-04-02T12:23:07Z</time>
      </trkpt>
      <trkpt lat="44.25741" lon="5.92918">
        <ele>520</ele>
        <time>2019-04-02T12:23:08Z</time>
      </trkpt>
      <trkpt lat="44.25735" lon="5.9292">
        <ele>520</ele>
        <time>2019-04-02T12:23:09Z</time>
      </trkpt>
      <trkpt lat="44.25729" lon="5.92923">
        <ele>520</ele>
        <time>2019-04-02T12:23:10Z</time>
      </trkpt>
      <trkpt lat="44.25722" lon="5.92926">
        <ele>520</ele>
        <time>2019-04-02T12:23:11Z</time>
      </trkpt>
      <trkpt lat="44.25716" lon="5.92929">
        <ele>520</ele>
        <time>2019-04-02T12:23:12Z</time>
      </trkpt>
      <trkpt lat="44.2571" lon="5.92932">
        <ele>520</ele>
        <time>2019-04-02T12:23:13Z</time>
      </trkpt>
      <trkpt lat="44.25704" lon="5.92935">
        <ele>520</ele>
        <time>2019-04-02T12:23:14Z</time>
      </trkpt>
      <trkpt lat="44.25698" lon="5.92938">
        <ele>520</ele>
        <time>2019-04-02T12:23:15Z</time>
      </trkpt>
      <trkpt lat="44.25692" lon="5.92941">
        <ele>520</ele>
        <time>2019-04-02T12:23:16Z</time>
      </trkpt>
      <trkpt lat="44.25686" lon="5.92943">
        <ele>520</ele>
        <time>2019-04-02T12:23:17Z</time>
      </trkpt>
      <trkpt lat="44.2568" lon="5.92946">
        <ele>520</ele>
        <time>2019-04-02T12:23:18Z</time>
      </trkpt>
      <trkpt lat="44.25674" lon="5.92948">
        <ele>520</ele>
        <time>2019-04-02T12:23:19Z</time>
      </trkpt>
      <trkpt lat="44.25668" lon="5.92951">
        <ele>520</ele>
        <time>2019-04-02T12:23:20Z</time>
      </trkpt>
      <trkpt lat="44.25661" lon="5.92954">
        <ele>520</ele>
        <time>2019-04-02T12:23:21Z</time>
      </trkpt>
      <trkpt lat="44.25655" lon="5.92956">
        <ele>520</ele>
        <time>2019-04-02T12:23:22Z</time>
      </trkpt>
      <trkpt lat="44.25649" lon="5.92959">
        <ele>520</ele>
        <time>2019-04-02T12:23:23Z</time>
      </trkpt>
      <trkpt lat="44.25643" lon="5.92962">
        <ele>520</ele>
        <time>2019-04-02T12:23:24Z</time>
      </trkpt>
      <trkpt lat="44.25637" lon="5.92964">
        <ele>520</ele>
        <time>2019-04-02T12:23:25Z</time>
      </trkpt>
      <trkpt lat="44.25631" lon="5.92966">
        <ele>520</ele>
        <time>2019-04-02T12:23:26Z</time>
      </trkpt>
      <trkpt lat="44.25624" lon="5.92968">
        <ele>520</ele>
        <time>2019-04-02T12:23:27Z</time>
      </trkpt>
      <trkpt lat="44.25618" lon="5.9297">
        <ele>520</ele>
        <time>2019-04-02T12:23:28Z</time>
      </trkpt>
      <trkpt lat="44.25612" lon="5.92972">
        <ele>520</ele>
        <time>2019-04-02T12:23:29Z</time>
      </trkpt>
      <trkpt lat="44.25605" lon="5.92973">
        <ele>520</ele>
        <time>2019-04-02T12:23:30Z</time>
      </trkpt>
      <trkpt lat="44.25599" lon="5.92975">
        <ele>520</ele>
        <time>2019-04-02T12:23:31Z</time>
      </trkpt>
      <trkpt lat="44.25592" lon="5.92976">
        <ele>520</ele>
        <time>2019-04-02T12:23:32Z</time>
      </trkpt>
      <trkpt lat="44.25586" lon="5.92977">
        <ele>520</ele>
        <time>2019-04-02T12:23:33Z</time>
      </trkpt>
      <trkpt lat="44.25579" lon="5.92978">
        <ele>519</ele>
        <time>2019-04-02T12:23:34Z</time>
      </trkpt>
      <trkpt lat="44.25573" lon="5.92979">
        <ele>519</ele>
        <time>2019-04-02T12:23:35Z</time>
      </trkpt>
      <trkpt lat="44.25566" lon="5.9298">
        <ele>519</ele>
        <time>2019-04-02T12:23:36Z</time>
      </trkpt>
      <trkpt lat="44.2556" lon="5.92981">
        <ele>519</ele>
        <time>2019-04-02T12:23:37Z</time>
      </trkpt>
      <trkpt lat="44.25554" lon="5.92982">
        <ele>519</ele>
        <time>2019-04-02T12:23:38Z</time>
      </trkpt>
      <trkpt lat="44.25548" lon="5.92983">
        <ele>519</ele>
        <time>2019-04-02T12:23:39Z</time>
      </trkpt>
      <trkpt lat="44.25542" lon="5.92983">
        <ele>519</ele>
        <time>2019-04-02T12:23:40Z</time>
      </trkpt>
      <trkpt lat="44.25536" lon="5.92984">
        <ele>519</ele>
        <time>2019-04-02T12:23:41Z</time>
      </trkpt>
      <trkpt lat="44.2553" lon="5.92984">
        <ele>519</ele>
        <time>2019-04-02T12:23:42Z</time>
      </trkpt>
      <trkpt lat="44.25524" lon="5.92984">
        <ele>519</ele>
        <time>2019-04-02T12:23:43Z</time>
      </trkpt>
      <trkpt lat="44.25518" lon="5.92985">
        <ele>519</ele>
        <time>2019-04-02T12:23:44Z</time>
      </trkpt>
      <trkpt lat="44.25512" lon="5.92986">
        <ele>519</ele>
        <time>2019-04-02T12:23:45Z</time>
      </trkpt>
      <trkpt lat="44.25505" lon="5.92987">
        <ele>519</ele>
        <time>2019-04-02T12:23:46Z</time>
      </trkpt>
      <trkpt lat="44.25498" lon="5.92988">
        <ele>519</ele>
        <time>2019-04-02T12:23:47Z</time>
      </trkpt>
      <trkpt lat="44.25491" lon="5.92989">
        <ele>518</ele>
        <time>2019-04-02T12:23:48Z</time>
      </trkpt>
      <trkpt lat="44.25484" lon="5.92991">
        <ele>518</ele>
        <time>2019-04-02T12:23:49Z</time>
      </trkpt>
      <trkpt lat="44.25476" lon="5.92992">
        <ele>518</ele>
        <time>2019-04-02T12:23:50Z</time>
      </trkpt>
      <trkpt lat="44.25469" lon="5.92994">
        <ele>517</ele>
        <time>2019-04-02T12:23:51Z</time>
      </trkpt>
      <trkpt lat="44.25461" lon="5.92995">
        <ele>517</ele>
        <time>2019-04-02T12:23:52Z</time>
      </trkpt>
      <trkpt lat="44.25452" lon="5.92997">
        <ele>516</ele>
        <time>2019-04-02T12:23:53Z</time>
      </trkpt>
      <trkpt lat="44.25444" lon="5.92998">
        <ele>515</ele>
        <time>2019-04-02T12:23:54Z</time>
      </trkpt>
      <trkpt lat="44.25436" lon="5.93">
        <ele>515</ele>
        <time>2019-04-02T12:23:55Z</time>
      </trkpt>
      <trkpt lat="44.25427" lon="5.93002">
        <ele>514</ele>
        <time>2019-04-02T12:23:56Z</time>
      </trkpt>
      <trkpt lat="44.25418" lon="5.93004">
        <ele>514</ele>
        <time>2019-04-02T12:23:57Z</time>
      </trkpt>
      <trkpt lat="44.2541" lon="5.93006">
        <ele>513</ele>
        <time>2019-04-02T12:23:58Z</time>
      </trkpt>
      <trkpt lat="44.25401" lon="5.93009">
        <ele>513</ele>
        <time>2019-04-02T12:23:59Z</time>
      </trkpt>
      <trkpt lat="44.25392" lon="5.93011">
        <ele>512</ele>
        <time>2019-04-02T12:24:00Z</time>
      </trkpt>
      <trkpt lat="44.25383" lon="5.93012">
        <ele>512</ele>
        <time>2019-04-02T12:24:01Z</time>
      </trkpt>
      <trkpt lat="44.25374" lon="5.93014">
        <ele>511</ele>
        <time>2019-04-02T12:24:02Z</time>
      </trkpt>
      <trkpt lat="44.25365" lon="5.93016">
        <ele>510</ele>
        <time>2019-04-02T12:24:03Z</time>
      </trkpt>
      <trkpt lat="44.25355" lon="5.93018">
        <ele>510</ele>
        <time>2019-04-02T12:24:04Z</time>
      </trkpt>
      <trkpt lat="44.25346" lon="5.93018">
        <ele>509</ele>
        <time>2019-04-02T12:24:05Z</time>
      </trkpt>
      <trkpt lat="44.25336" lon="5.93018">
        <ele>508</ele>
        <time>2019-04-02T12:24:06Z</time>
      </trkpt>
      <trkpt lat="44.25327" lon="5.93016">
        <ele>507</ele>
        <time>2019-04-02T12:24:07Z</time>
      </trkpt>
      <trkpt lat="44.25317" lon="5.93013">
        <ele>507</ele>
        <time>2019-04-02T12:24:08Z</time>
      </trkpt>
      <trkpt lat="44.25309" lon="5.93009">
        <ele>506</ele>
        <time>2019-04-02T12:24:09Z</time>
      </trkpt>
      <trkpt lat="44.253" lon="5.93004">
        <ele>505</ele>
        <time>2019-04-02T12:24:10Z</time>
      </trkpt>
      <trkpt lat="44.25292" lon="5.92999">
        <ele>505</ele>
        <time>2019-04-02T12:24:11Z</time>
      </trkpt>
      <trkpt lat="44.25284" lon="5.92994">
        <ele>504</ele>
        <time>2019-04-02T12:24:12Z</time>
      </trkpt>
      <trkpt lat="44.25276" lon="5.9299">
        <ele>503</ele>
        <time>2019-04-02T12:24:13Z</time>
      </trkpt>
      <trkpt lat="44.25269" lon="5.92985">
        <ele>503</ele>
        <time>2019-04-02T12:24:14Z</time>
      </trkpt>
      <trkpt lat="44.25262" lon="5.9298">
        <ele>502</ele>
        <time>2019-04-02T12:24:15Z</time>
      </trkpt>
      <trkpt lat="44.25255" lon="5.92977">
        <ele>501</ele>
        <time>2019-04-02T12:24:16Z</time>
      </trkpt>
      <trkpt lat="44.25249" lon="5.92973">
        <ele>501</ele>
        <time>2019-04-02T12:24:17Z</time>
      </trkpt>
      <trkpt lat="44.25244" lon="5.9297">
        <ele>500</ele>
        <time>2019-04-02T12:24:18Z</time>
      </trkpt>
      <trkpt lat="44.25239" lon="5.92968">
        <ele>500</ele>
        <time>2019-04-02T12:24:19Z</time>
      </trkpt>
      <trkpt lat="44.25235" lon="5.92966">
        <ele>499</ele>
        <time>2019-04-02T12:24:20Z</time>
      </trkpt>
      <trkpt lat="44.25231" lon="5.92966">
        <ele>499</ele>
        <time>2019-04-02T12:24:21Z</time>
      </trkpt>
      <trkpt lat="44.25228" lon="5.92966">
        <ele>498</ele>
        <time>2019-04-02T12:24:22Z</time>
      </trkpt>
      <trkpt lat="44.25224" lon="5.92967">
        <ele>498</ele>
        <time>2019-04-02T12:24:23Z</time>
      </trkpt>
      <trkpt lat="44.25221" lon="5.9297">
        <ele>498</ele>
        <time>2019-04-02T12:24:24Z</time>
      </trkpt>
      <trkpt lat="44.25219" lon="5.92975">
        <ele>498</ele>
        <time>2019-04-02T12:24:25Z</time>
      </trkpt>
      <trkpt lat="44.25218" lon="5.9298">
        <ele>497</ele>
        <time>2019-04-02T12:24:26Z</time>
      </trkpt>
      <trkpt lat="44.25219" lon="5.92987">
        <ele>497</ele>
        <time>2019-04-02T12:24:27Z</time>
      </trkpt>
      <trkpt lat="44.2522" lon="5.92993">
        <ele>497</ele>
        <time>2019-04-02T12:24:28Z</time>
      </trkpt>
      <trkpt lat="44.25222" lon="5.93">
        <ele>497</ele>
        <time>2019-04-02T12:24:29Z</time>
      </trkpt>
      <trkpt lat="44.25225" lon="5.93006">
        <ele>497</ele>
        <time>2019-04-02T12:24:30Z</time>
      </trkpt>
      <trkpt lat="44.25228" lon="5.93013">
        <ele>497</ele>
        <time>2019-04-02T12:24:31Z</time>
      </trkpt>
      <trkpt lat="44.25231" lon="5.9302">
        <ele>496</ele>
        <time>2019-04-02T12:24:32Z</time>
      </trkpt>
      <trkpt lat="44.25234" lon="5.93027">
        <ele>496</ele>
        <time>2019-04-02T12:24:33Z</time>
      </trkpt>
      <trkpt lat="44.25237" lon="5.93035">
        <ele>496</ele>
        <time>2019-04-02T12:24:34Z</time>
      </trkpt>
      <trkpt lat="44.2524" lon="5.93043">
        <ele>496</ele>
        <time>2019-04-02T12:24:35Z</time>
      </trkpt>
      <trkpt lat="44.25243" lon="5.93051">
        <ele>496</ele>
        <time>2019-04-02T12:24:36Z</time>
      </trkpt>
      <trkpt lat="44.25246" lon="5.9306">
        <ele>495</ele>
        <time>2019-04-02T12:24:37Z</time>
      </trkpt>
      <trkpt lat="44.25249" lon="5.93069">
        <ele>495</ele>
        <time>2019-04-02T12:24:38Z</time>
      </trkpt>
      <trkpt lat="44.25252" lon="5.93078">
        <ele>495</ele>
        <time>2019-04-02T12:24:39Z</time>
      </trkpt>
      <trkpt lat="44.25256" lon="5.93087">
        <ele>495</ele>
        <time>2019-04-02T12:24:40Z</time>
      </trkpt>
      <trkpt lat="44.25259" lon="5.93096">
        <ele>494</ele>
        <time>2019-04-02T12:24:41Z</time>
      </trkpt>
      <trkpt lat="44.25263" lon="5.93106">
        <ele>494</ele>
        <time>2019-04-02T12:24:42Z</time>
      </trkpt>
      <trkpt lat="44.25266" lon="5.93116">
        <ele>494</ele>
        <time>2019-04-02T12:24:43Z</time>
      </trkpt>
      <trkpt lat="44.25269" lon="5.93125">
        <ele>494</ele>
        <time>2019-04-02T12:24:44Z</time>
      </trkpt>
      <trkpt lat="44.25273" lon="5.93135">
        <ele>493</ele>
        <time>2019-04-02T12:24:45Z</time>
      </trkpt>
      <trkpt lat="44.25277" lon="5.93145">
        <ele>493</ele>
        <time>2019-04-02T12:24:46Z</time>
      </trkpt>
      <trkpt lat="44.2528" lon="5.93154">
        <ele>493</ele>
        <time>2019-04-02T12:24:47Z</time>
      </trkpt>
      <trkpt lat="44.25285" lon="5.93164">
        <ele>493</ele>
        <time>2019-04-02T12:24:48Z</time>
      </trkpt>
      <trkpt lat="44.25289" lon="5.93173">
        <ele>492</ele>
        <time>2019-04-02T12:24:49Z</time>
      </trkpt>
      <trkpt lat="44.25294" lon="5.93181">
        <ele>492</ele>
        <time>2019-04-02T12:24:50Z</time>
      </trkpt>
      <trkpt lat="44.253" lon="5.93188">
        <ele>492</ele>
        <time>2019-04-02T12:24:51Z</time>
      </trkpt>
      <trkpt lat="44.25305" lon="5.93195">
        <ele>492</ele>
        <time>2019-04-02T12:24:52Z</time>
      </trkpt>
      <trkpt lat="44.25311" lon="5.93202">
        <ele>492</ele>
        <time>2019-04-02T12:24:53Z</time>
      </trkpt>
      <trkpt lat="44.25317" lon="5.93208">
        <ele>492</ele>
        <time>2019-04-02T12:24:54Z</time>
      </trkpt>
      <trkpt lat="44.25323" lon="5.93213">
        <ele>492</ele>
        <time>2019-04-02T12:24:55Z</time>
      </trkpt>
      <trkpt lat="44.25329" lon="5.93219">
        <ele>492</ele>
        <time>2019-04-02T12:24:56Z</time>
      </trkpt>
      <trkpt lat="44.25335" lon="5.93224">
        <ele>492</ele>
        <time>2019-04-02T12:24:57Z</time>
      </trkpt>
      <trkpt lat="44.25341" lon="5.93229">
        <ele>492</ele>
        <time>2019-04-02T12:24:58Z</time>
      </trkpt>
      <trkpt lat="44.25347" lon="5.93235">
        <ele>492</ele>
        <time>2019-04-02T12:24:59Z</time>
      </trkpt>
      <trkpt lat="44.25352" lon="5.93241">
        <ele>492</ele>
        <time>2019-04-02T12:25:00Z</time>
      </trkpt>
      <trkpt lat="44.25358" lon="5.93247">
        <ele>492</ele>
        <time>2019-04-02T12:25:01Z</time>
      </trkpt>
      <trkpt lat="44.25363" lon="5.93254">
        <ele>492</ele>
        <time>2019-04-02T12:25:02Z</time>
      </trkpt>
      <trkpt lat="44.25367" lon="5.93262">
        <ele>492</ele>
        <time>2019-04-02T12:25:03Z</time>
      </trkpt>
      <trkpt lat="44.2537" lon="5.9327">
        <ele>492</ele>
        <time>2019-04-02T12:25:04Z</time>
      </trkpt>
      <trkpt lat="44.25373" lon="5.93279">
        <ele>492</ele>
        <time>2019-04-02T12:25:05Z</time>
      </trkpt>
      <trkpt lat="44.25375" lon="5.93288">
        <ele>492</ele>
        <time>2019-04-02T12:25:06Z</time>
      </trkpt>
      <trkpt lat="44.25377" lon="5.93297">
        <ele>492</ele>
        <time>2019-04-02T12:25:07Z</time>
      </trkpt>
      <trkpt lat="44.25378" lon="5.93306">
        <ele>492</ele>
        <time>2019-04-02T12:25:08Z</time>
      </trkpt>
      <trkpt lat="44.25378" lon="5.93315">
        <ele>492</ele>
        <time>2019-04-02T12:25:09Z</time>
      </trkpt>
      <trkpt lat="44.25379" lon="5.93323">
        <ele>492</ele>
        <time>2019-04-02T12:25:10Z</time>
      </trkpt>
      <trkpt lat="44.2538" lon="5.93332">
        <ele>492</ele>
        <time>2019-04-02T12:25:12Z</time>
      </trkpt>
      <trkpt lat="44.25381" lon="5.93341">
        <ele>492</ele>
        <time>2019-04-02T12:25:12Z</time>
      </trkpt>
      <trkpt lat="44.25382" lon="5.9335">
        <ele>492</ele>
        <time>2019-04-02T12:25:13Z</time>
      </trkpt>
      <trkpt lat="44.25383" lon="5.93359">
        <ele>492</ele>
        <time>2019-04-02T12:25:14Z</time>
      </trkpt>
      <trkpt lat="44.25385" lon="5.93368">
        <ele>492</ele>
        <time>2019-04-02T12:25:15Z</time>
      </trkpt>
      <trkpt lat="44.25387" lon="5.93376">
        <ele>492</ele>
        <time>2019-04-02T12:25:16Z</time>
      </trkpt>
      <trkpt lat="44.2539" lon="5.93384">
        <ele>492</ele>
        <time>2019-04-02T12:25:17Z</time>
      </trkpt>
      <trkpt lat="44.25394" lon="5.93392">
        <ele>492</ele>
        <time>2019-04-02T12:25:18Z</time>
      </trkpt>
      <trkpt lat="44.25397" lon="5.93399">
        <ele>492</ele>
        <time>2019-04-02T12:25:19Z</time>
      </trkpt>
      <trkpt lat="44.25401" lon="5.93406">
        <ele>492</ele>
        <time>2019-04-02T12:25:20Z</time>
      </trkpt>
      <trkpt lat="44.25404" lon="5.93413">
        <ele>492</ele>
        <time>2019-04-02T12:25:21Z</time>
      </trkpt>
      <trkpt lat="44.25408" lon="5.9342">
        <ele>492</ele>
        <time>2019-04-02T12:25:22Z</time>
      </trkpt>
      <trkpt lat="44.25412" lon="5.93428">
        <ele>492</ele>
        <time>2019-04-02T12:25:23Z</time>
      </trkpt>
      <trkpt lat="44.25415" lon="5.93434">
        <ele>492</ele>
        <time>2019-04-02T12:25:24Z</time>
      </trkpt>
      <trkpt lat="44.25418" lon="5.93441">
        <ele>492</ele>
        <time>2019-04-02T12:25:25Z</time>
      </trkpt>
      <trkpt lat="44.25421" lon="5.93448">
        <ele>492</ele>
        <time>2019-04-02T12:25:26Z</time>
      </trkpt>
      <trkpt lat="44.25424" lon="5.93456">
        <ele>492</ele>
        <time>2019-04-02T12:25:27Z</time>
      </trkpt>
      <trkpt lat="44.25426" lon="5.93463">
        <ele>492</ele>
        <time>2019-04-02T12:25:28Z</time>
      </trkpt>
      <trkpt lat="44.25428" lon="5.93471">
        <ele>492</ele>
        <time>2019-04-02T12:25:29Z</time>
      </trkpt>
      <trkpt lat="44.25429" lon="5.93479">
        <ele>492</ele>
        <time>2019-04-02T12:25:30Z</time>
      </trkpt>
      <trkpt lat="44.2543" lon="5.93487">
        <ele>492</ele>
        <time>2019-04-02T12:25:31Z</time>
      </trkpt>
      <trkpt lat="44.2543" lon="5.93495">
        <ele>492</ele>
        <time>2019-04-02T12:25:32Z</time>
      </trkpt>
      <trkpt lat="44.2543" lon="5.93503">
        <ele>492</ele>
        <time>2019-04-02T12:25:33Z</time>
      </trkpt>
      <trkpt lat="44.2543" lon="5.93511">
        <ele>492</ele>
        <time>2019-04-02T12:25:34Z</time>
      </trkpt>
      <trkpt lat="44.25429" lon="5.93519">
        <ele>492</ele>
        <time>2019-04-02T12:25:35Z</time>
      </trkpt>
      <trkpt lat="44.25428" lon="5.93527">
        <ele>492</ele>
        <time>2019-04-02T12:25:36Z</time>
      </trkpt>
      <trkpt lat="44.25427" lon="5.93535">
        <ele>492</ele>
        <time>2019-04-02T12:25:37Z</time>
      </trkpt>
      <trkpt lat="44.25426" lon="5.93543">
        <ele>492</ele>
        <time>2019-04-02T12:25:38Z</time>
      </trkpt>
      <trkpt lat="44.25425" lon="5.93551">
        <ele>492</ele>
        <time>2019-04-02T12:25:39Z</time>
      </trkpt>
      <trkpt lat="44.25425" lon="5.93559">
        <ele>492</ele>
        <time>2019-04-02T12:25:40Z</time>
      </trkpt>
      <trkpt lat="44.25423" lon="5.93566">
        <ele>492</ele>
        <time>2019-04-02T12:25:41Z</time>
      </trkpt>
      <trkpt lat="44.25423" lon="5.93574">
        <ele>492</ele>
        <time>2019-04-02T12:25:42Z</time>
      </trkpt>
      <trkpt lat="44.25422" lon="5.93582">
        <ele>492</ele>
        <time>2019-04-02T12:25:43Z</time>
      </trkpt>
      <trkpt lat="44.25421" lon="5.93591">
        <ele>492</ele>
        <time>2019-04-02T12:25:44Z</time>
      </trkpt>
      <trkpt lat="44.2542" lon="5.93599">
        <ele>492</ele>
        <time>2019-04-02T12:25:45Z</time>
      </trkpt>
      <trkpt lat="44.25419" lon="5.93608">
        <ele>492</ele>
        <time>2019-04-02T12:25:46Z</time>
      </trkpt>
      <trkpt lat="44.25417" lon="5.93616">
        <ele>492</ele>
        <time>2019-04-02T12:25:47Z</time>
      </trkpt>
      <trkpt lat="44.25417" lon="5.93624">
        <ele>492</ele>
        <time>2019-04-02T12:25:48Z</time>
      </trkpt>
      <trkpt lat="44.25415" lon="5.93632">
        <ele>492</ele>
        <time>2019-04-02T12:25:49Z</time>
      </trkpt>
      <trkpt lat="44.25414" lon="5.9364">
        <ele>492</ele>
        <time>2019-04-02T12:25:50Z</time>
      </trkpt>
      <trkpt lat="44.25413" lon="5.93648">
        <ele>492</ele>
        <time>2019-04-02T12:25:51Z</time>
      </trkpt>
      <trkpt lat="44.25412" lon="5.93657">
        <ele>492</ele>
        <time>2019-04-02T12:25:52Z</time>
      </trkpt>
      <trkpt lat="44.25411" lon="5.93665">
        <ele>492</ele>
        <time>2019-04-02T12:25:53Z</time>
      </trkpt>
      <trkpt lat="44.2541" lon="5.93673">
        <ele>492</ele>
        <time>2019-04-02T12:25:54Z</time>
      </trkpt>
      <trkpt lat="44.25409" lon="5.93681">
        <ele>493</ele>
        <time>2019-04-02T12:25:55Z</time>
      </trkpt>
      <trkpt lat="44.25408" lon="5.93689">
        <ele>493</ele>
        <time>2019-04-02T12:25:56Z</time>
      </trkpt>
      <trkpt lat="44.25407" lon="5.93697">
        <ele>493</ele>
        <time>2019-04-02T12:25:57Z</time>
      </trkpt>
      <trkpt lat="44.25407" lon="5.93705">
        <ele>493</ele>
        <time>2019-04-02T12:25:58Z</time>
      </trkpt>
      <trkpt lat="44.25406" lon="5.93713">
        <ele>493</ele>
        <time>2019-04-02T12:25:59Z</time>
      </trkpt>
      <trkpt lat="44.25404" lon="5.9372">
        <ele>494</ele>
        <time>2019-04-02T12:26:00Z</time>
      </trkpt>
      <trkpt lat="44.25404" lon="5.93728">
        <ele>494</ele>
        <time>2019-04-02T12:26:01Z</time>
      </trkpt>
      <trkpt lat="44.25403" lon="5.93736">
        <ele>494</ele>
        <time>2019-04-02T12:26:02Z</time>
      </trkpt>
      <trkpt lat="44.25402" lon="5.93744">
        <ele>495</ele>
        <time>2019-04-02T12:26:03Z</time>
      </trkpt>
      <trkpt lat="44.25402" lon="5.93752">
        <ele>495</ele>
        <time>2019-04-02T12:26:04Z</time>
      </trkpt>
      <trkpt lat="44.25402" lon="5.9376">
        <ele>495</ele>
        <time>2019-04-02T12:26:05Z</time>
      </trkpt>
      <trkpt lat="44.25402" lon="5.93767">
        <ele>495</ele>
        <time>2019-04-02T12:26:06Z</time>
      </trkpt>
      <trkpt lat="44.25402" lon="5.93775">
        <ele>496</ele>
        <time>2019-04-02T12:26:07Z</time>
      </trkpt>
      <trkpt lat="44.25403" lon="5.93783">
        <ele>496</ele>
        <time>2019-04-02T12:26:08Z</time>
      </trkpt>
      <trkpt lat="44.25403" lon="5.9379">
        <ele>496</ele>
        <time>2019-04-02T12:26:09Z</time>
      </trkpt>
      <trkpt lat="44.25404" lon="5.93798">
        <ele>496</ele>
        <time>2019-04-02T12:26:10Z</time>
      </trkpt>
      <trkpt lat="44.25406" lon="5.93805">
        <ele>496</ele>
        <time>2019-04-02T12:26:11Z</time>
      </trkpt>
      <trkpt lat="44.25407" lon="5.93813">
        <ele>496</ele>
        <time>2019-04-02T12:26:12Z</time>
      </trkpt>
      <trkpt lat="44.25409" lon="5.9382">
        <ele>496</ele>
        <time>2019-04-02T12:26:13Z</time>
      </trkpt>
      <trkpt lat="44.25411" lon="5.93827">
        <ele>496</ele>
        <time>2019-04-02T12:26:14Z</time>
      </trkpt>
      <trkpt lat="44.25413" lon="5.93834">
        <ele>496</ele>
        <time>2019-04-02T12:26:15Z</time>
      </trkpt>
      <trkpt lat="44.25416" lon="5.93841">
        <ele>496</ele>
        <time>2019-04-02T12:26:16Z</time>
      </trkpt>
      <trkpt lat="44.25418" lon="5.93848">
        <ele>496</ele>
        <time>2019-04-02T12:26:17Z</time>
      </trkpt>
      <trkpt lat="44.25422" lon="5.93855">
        <ele>496</ele>
        <time>2019-04-02T12:26:18Z</time>
      </trkpt>
      <trkpt lat="44.25425" lon="5.93861">
        <ele>496</ele>
        <time>2019-04-02T12:26:19Z</time>
      </trkpt>
      <trkpt lat="44.25428" lon="5.93867">
        <ele>496</ele>
        <time>2019-04-02T12:26:20Z</time>
      </trkpt>
      <trkpt lat="44.25431" lon="5.93874">
        <ele>496</ele>
        <time>2019-04-02T12:26:21Z</time>
      </trkpt>
      <trkpt lat="44.25434" lon="5.9388">
        <ele>496</ele>
        <time>2019-04-02T12:26:22Z</time>
      </trkpt>
      <trkpt lat="44.25438" lon="5.93887">
        <ele>496</ele>
        <time>2019-04-02T12:26:23Z</time>
      </trkpt>
      <trkpt lat="44.25441" lon="5.93893">
        <ele>496</ele>
        <time>2019-04-02T12:26:24Z</time>
      </trkpt>
      <trkpt lat="44.25445" lon="5.939">
        <ele>496</ele>
        <time>2019-04-02T12:26:25Z</time>
      </trkpt>
      <trkpt lat="44.25448" lon="5.93906">
        <ele>496</ele>
        <time>2019-04-02T12:26:26Z</time>
      </trkpt>
      <trkpt lat="44.25451" lon="5.93913">
        <ele>496</ele>
        <time>2019-04-02T12:26:27Z</time>
      </trkpt>
      <trkpt lat="44.25455" lon="5.93919">
        <ele>496</ele>
        <time>2019-04-02T12:26:28Z</time>
      </trkpt>
      <trkpt lat="44.25458" lon="5.93926">
        <ele>496</ele>
        <time>2019-04-02T12:26:29Z</time>
      </trkpt>
      <trkpt lat="44.25462" lon="5.93932">
        <ele>496</ele>
        <time>2019-04-02T12:26:30Z</time>
      </trkpt>
      <trkpt lat="44.25465" lon="5.93938">
        <ele>496</ele>
        <time>2019-04-02T12:26:31Z</time>
      </trkpt>
      <trkpt lat="44.25468" lon="5.93945">
        <ele>496</ele>
        <time>2019-04-02T12:26:32Z</time>
      </trkpt>
      <trkpt lat="44.25472" lon="5.93952">
        <ele>496</ele>
        <time>2019-04-02T12:26:33Z</time>
      </trkpt>
      <trkpt lat="44.25475" lon="5.93958">
        <ele>496</ele>
        <time>2019-04-02T12:26:34Z</time>
      </trkpt>
      <trkpt lat="44.25479" lon="5.93965">
        <ele>496</ele>
        <time>2019-04-02T12:26:35Z</time>
      </trkpt>
      <trkpt lat="44.25482" lon="5.93972">
        <ele>496</ele>
        <time>2019-04-02T12:26:36Z</time>
      </trkpt>
      <trkpt lat="44.25486" lon="5.93979">
        <ele>496</ele>
        <time>2019-04-02T12:26:37Z</time>
      </trkpt>
      <trkpt lat="44.25489" lon="5.93985">
        <ele>496</ele>
        <time>2019-04-02T12:26:38Z</time>
      </trkpt>
      <trkpt lat="44.25492" lon="5.93992">
        <ele>496</ele>
        <time>2019-04-02T12:26:39Z</time>
      </trkpt>
      <trkpt lat="44.25496" lon="5.93998">
        <ele>496</ele>
        <time>2019-04-02T12:26:40Z</time>
      </trkpt>
      <trkpt lat="44.25499" lon="5.94005">
        <ele>496</ele>
        <time>2019-04-02T12:26:41Z</time>
      </trkpt>
      <trkpt lat="44.25503" lon="5.94012">
        <ele>496</ele>
        <time>2019-04-02T12:26:42Z</time>
      </trkpt>
      <trkpt lat="44.25507" lon="5.94018">
        <ele>496</ele>
        <time>2019-04-02T12:26:43Z</time>
      </trkpt>
      <trkpt lat="44.25511" lon="5.94025">
        <ele>496</ele>
        <time>2019-04-02T12:26:44Z</time>
      </trkpt>
      <trkpt lat="44.25515" lon="5.94031">
        <ele>496</ele>
        <time>2019-04-02T12:26:45Z</time>
      </trkpt>
      <trkpt lat="44.2552" lon="5.94037">
        <ele>496</ele>
        <time>2019-04-02T12:26:46Z</time>
      </trkpt>
      <trkpt lat="44.25524" lon="5.94042">
        <ele>496</ele>
        <time>2019-04-02T12:26:47Z</time>
      </trkpt>
      <trkpt lat="44.25528" lon="5.94048">
        <ele>496</ele>
        <time>2019-04-02T12:26:48Z</time>
      </trkpt>
      <trkpt lat="44.25533" lon="5.94053">
        <ele>496</ele>
        <time>2019-04-02T12:26:49Z</time>
      </trkpt>
      <trkpt lat="44.25537" lon="5.94058">
        <ele>496</ele>
        <time>2019-04-02T12:26:50Z</time>
      </trkpt>
      <trkpt lat="44.25542" lon="5.94063">
        <ele>496</ele>
        <time>2019-04-02T12:26:51Z</time>
      </trkpt>
      <trkpt lat="44.25546" lon="5.94068">
        <ele>496</ele>
        <time>2019-04-02T12:26:52Z</time>
      </trkpt>
      <trkpt lat="44.25551" lon="5.94073">
        <ele>496</ele>
        <time>2019-04-02T12:26:53Z</time>
      </trkpt>
      <trkpt lat="44.25555" lon="5.94078">
        <ele>496</ele>
        <time>2019-04-02T12:26:54Z</time>
      </trkpt>
      <trkpt lat="44.2556" lon="5.94084">
        <ele>496</ele>
        <time>2019-04-02T12:26:55Z</time>
      </trkpt>
      <trkpt lat="44.25564" lon="5.94089">
        <ele>496</ele>
        <time>2019-04-02T12:26:56Z</time>
      </trkpt>
      <trkpt lat="44.25568" lon="5.94094">
        <ele>496</ele>
        <time>2019-04-02T12:26:57Z</time>
      </trkpt>
      <trkpt lat="44.25573" lon="5.94099">
        <ele>496</ele>
        <time>2019-04-02T12:26:58Z</time>
      </trkpt>
      <trkpt lat="44.25578" lon="5.94104">
        <ele>496</ele>
        <time>2019-04-02T12:26:59Z</time>
      </trkpt>
      <trkpt lat="44.25582" lon="5.94109">
        <ele>496</ele>
        <time>2019-04-02T12:27:00Z</time>
      </trkpt>
      <trkpt lat="44.25587" lon="5.94113">
        <ele>496</ele>
        <time>2019-04-02T12:27:01Z</time>
      </trkpt>
      <trkpt lat="44.25592" lon="5.94118">
        <ele>496</ele>
        <time>2019-04-02T12:27:02Z</time>
      </trkpt>
      <trkpt lat="44.25597" lon="5.94123">
        <ele>496</ele>
        <time>2019-04-02T12:27:03Z</time>
      </trkpt>
      <trkpt lat="44.25602" lon="5.94127">
        <ele>497</ele>
        <time>2019-04-02T12:27:04Z</time>
      </trkpt>
      <trkpt lat="44.25607" lon="5.94131">
        <ele>497</ele>
        <time>2019-04-02T12:27:05Z</time>
      </trkpt>
      <trkpt lat="44.25613" lon="5.94134">
        <ele>497</ele>
        <time>2019-04-02T12:27:06Z</time>
      </trkpt>
      <trkpt lat="44.25619" lon="5.94137">
        <ele>497</ele>
        <time>2019-04-02T12:27:07Z</time>
      </trkpt>
      <trkpt lat="44.25624" lon="5.9414">
        <ele>497</ele>
        <time>2019-04-02T12:27:08Z</time>
      </trkpt>
      <trkpt lat="44.2563" lon="5.94143">
        <ele>497</ele>
        <time>2019-04-02T12:27:09Z</time>
      </trkpt>
      <trkpt lat="44.25636" lon="5.94146">
        <ele>497</ele>
        <time>2019-04-02T12:27:10Z</time>
      </trkpt>
      <trkpt lat="44.25642" lon="5.94149">
        <ele>498</ele>
        <time>2019-04-02T12:27:11Z</time>
      </trkpt>
      <trkpt lat="44.25648" lon="5.94151">
        <ele>498</ele>
        <time>2019-04-02T12:27:12Z</time>
      </trkpt>
      <trkpt lat="44.25654" lon="5.94154">
        <ele>498</ele>
        <time>2019-04-02T12:27:13Z</time>
      </trkpt>
      <trkpt lat="44.2566" lon="5.94157">
        <ele>498</ele>
        <time>2019-04-02T12:27:14Z</time>
      </trkpt>
      <trkpt lat="44.25666" lon="5.9416">
        <ele>498</ele>
        <time>2019-04-02T12:27:15Z</time>
      </trkpt>
      <trkpt lat="44.25671" lon="5.94164">
        <ele>498</ele>
        <time>2019-04-02T12:27:16Z</time>
      </trkpt>
      <trkpt lat="44.25677" lon="5.94169">
        <ele>498</ele>
        <time>2019-04-02T12:27:17Z</time>
      </trkpt>
      <trkpt lat="44.25682" lon="5.94173">
        <ele>498</ele>
        <time>2019-04-02T12:27:18Z</time>
      </trkpt>
      <trkpt lat="44.25687" lon="5.94179">
        <ele>498</ele>
        <time>2019-04-02T12:27:19Z</time>
      </trkpt>
      <trkpt lat="44.25692" lon="5.94185">
        <ele>498</ele>
        <time>2019-04-02T12:27:20Z</time>
      </trkpt>
      <trkpt lat="44.25696" lon="5.94191">
        <ele>498</ele>
        <time>2019-04-02T12:27:21Z</time>
      </trkpt>
      <trkpt lat="44.257" lon="5.94197">
        <ele>498</ele>
        <time>2019-04-02T12:27:22Z</time>
      </trkpt>
      <trkpt lat="44.25704" lon="5.94204">
        <ele>498</ele>
        <time>2019-04-02T12:27:23Z</time>
      </trkpt>
      <trkpt lat="44.25708" lon="5.94211">
        <ele>498</ele>
        <time>2019-04-02T12:27:24Z</time>
      </trkpt>
      <trkpt lat="44.25711" lon="5.94218">
        <ele>498</ele>
        <time>2019-04-02T12:27:25Z</time>
      </trkpt>
      <trkpt lat="44.25714" lon="5.94225">
        <ele>498</ele>
        <time>2019-04-02T12:27:26Z</time>
      </trkpt>
      <trkpt lat="44.25716" lon="5.94232">
        <ele>498</ele>
        <time>2019-04-02T12:27:27Z</time>
      </trkpt>
      <trkpt lat="44.25719" lon="5.9424">
        <ele>498</ele>
        <time>2019-04-02T12:27:28Z</time>
      </trkpt>
      <trkpt lat="44.25721" lon="5.94247">
        <ele>498</ele>
        <time>2019-04-02T12:27:29Z</time>
      </trkpt>
      <trkpt lat="44.25723" lon="5.94255">
        <ele>498</ele>
        <time>2019-04-02T12:27:30Z</time>
      </trkpt>
      <trkpt lat="44.25724" lon="5.94263">
        <ele>498</ele>
        <time>2019-04-02T12:27:31Z</time>
      </trkpt>
      <trkpt lat="44.25725" lon="5.94271">
        <ele>498</ele>
        <time>2019-04-02T12:27:32Z</time>
      </trkpt>
      <trkpt lat="44.25726" lon="5.94279">
        <ele>498</ele>
        <time>2019-04-02T12:27:33Z</time>
      </trkpt>
      <trkpt lat="44.25726" lon="5.94288">
        <ele>498</ele>
        <time>2019-04-02T12:27:34Z</time>
      </trkpt>
      <trkpt lat="44.25726" lon="5.94296">
        <ele>498</ele>
        <time>2019-04-02T12:27:35Z</time>
      </trkpt>
      <trkpt lat="44.25727" lon="5.94305">
        <ele>498</ele>
        <time>2019-04-02T12:27:36Z</time>
      </trkpt>
      <trkpt lat="44.25727" lon="5.94314">
        <ele>498</ele>
        <time>2019-04-02T12:27:37Z</time>
      </trkpt>
      <trkpt lat="44.25726" lon="5.94323">
        <ele>498</ele>
        <time>2019-04-02T12:27:38Z</time>
      </trkpt>
      <trkpt lat="44.25726" lon="5.94333">
        <ele>498</ele>
        <time>2019-04-02T12:27:39Z</time>
      </trkpt>
      <trkpt lat="44.25726" lon="5.94342">
        <ele>498</ele>
        <time>2019-04-02T12:27:40Z</time>
      </trkpt>
      <trkpt lat="44.25725" lon="5.94351">
        <ele>498</ele>
        <time>2019-04-02T12:27:41Z</time>
      </trkpt>
      <trkpt lat="44.25724" lon="5.9436">
        <ele>498</ele>
        <time>2019-04-02T12:27:42Z</time>
      </trkpt>
      <trkpt lat="44.25724" lon="5.94369">
        <ele>498</ele>
        <time>2019-04-02T12:27:43Z</time>
      </trkpt>
      <trkpt lat="44.25724" lon="5.94379">
        <ele>498</ele>
        <time>2019-04-02T12:27:44Z</time>
      </trkpt>
      <trkpt lat="44.25724" lon="5.94387">
        <ele>498</ele>
        <time>2019-04-02T12:27:45Z</time>
      </trkpt>
      <trkpt lat="44.25724" lon="5.94396">
        <ele>498</ele>
        <time>2019-04-02T12:27:46Z</time>
      </trkpt>
      <trkpt lat="44.25723" lon="5.94406">
        <ele>498</ele>
        <time>2019-04-02T12:27:47Z</time>
      </trkpt>
      <trkpt lat="44.25723" lon="5.94415">
        <ele>498</ele>
        <time>2019-04-02T12:27:48Z</time>
      </trkpt>
      <trkpt lat="44.25723" lon="5.94424">
        <ele>498</ele>
        <time>2019-04-02T12:27:49Z</time>
      </trkpt>
      <trkpt lat="44.25723" lon="5.94433">
        <ele>498</ele>
        <time>2019-04-02T12:27:50Z</time>
      </trkpt>
      <trkpt lat="44.25724" lon="5.94442">
        <ele>498</ele>
        <time>2019-04-02T12:27:51Z</time>
      </trkpt>
      <trkpt lat="44.25724" lon="5.94451">
        <ele>498</ele>
        <time>2019-04-02T12:27:52Z</time>
      </trkpt>
      <trkpt lat="44.25725" lon="5.94459">
        <ele>498</ele>
        <time>2019-04-02T12:27:53Z</time>
      </trkpt>
      <trkpt lat="44.25726" lon="5.94467">
        <ele>498</ele>
        <time>2019-04-02T12:27:54Z</time>
      </trkpt>
      <trkpt lat="44.25727" lon="5.94476">
        <ele>498</ele>
        <time>2019-04-02T12:27:55Z</time>
      </trkpt>
      <trkpt lat="44.25729" lon="5.94484">
        <ele>498</ele>
        <time>2019-04-02T12:27:56Z</time>
      </trkpt>
      <trkpt lat="44.25731" lon="5.94492">
        <ele>498</ele>
        <time>2019-04-02T12:27:57Z</time>
      </trkpt>
      <trkpt lat="44.25732" lon="5.94501">
        <ele>498</ele>
        <time>2019-04-02T12:27:58Z</time>
      </trkpt>
      <trkpt lat="44.25734" lon="5.94509">
        <ele>498</ele>
        <time>2019-04-02T12:27:59Z</time>
      </trkpt>
      <trkpt lat="44.25735" lon="5.94517">
        <ele>498</ele>
        <time>2019-04-02T12:28:00Z</time>
      </trkpt>
      <trkpt lat="44.25737" lon="5.94525">
        <ele>498</ele>
        <time>2019-04-02T12:28:01Z</time>
      </trkpt>
      <trkpt lat="44.25738" lon="5.94533">
        <ele>498</ele>
        <time>2019-04-02T12:28:02Z</time>
      </trkpt>
      <trkpt lat="44.2574" lon="5.94542">
        <ele>498</ele>
        <time>2019-04-02T12:28:03Z</time>
      </trkpt>
      <trkpt lat="44.25741" lon="5.9455">
        <ele>498</ele>
        <time>2019-04-02T12:28:04Z</time>
      </trkpt>
      <trkpt lat="44.25743" lon="5.94558">
        <ele>498</ele>
        <time>2019-04-02T12:28:05Z</time>
      </trkpt>
      <trkpt lat="44.25744" lon="5.94566">
        <ele>498</ele>
        <time>2019-04-02T12:28:06Z</time>
      </trkpt>
      <trkpt lat="44.25746" lon="5.94573">
        <ele>498</ele>
        <time>2019-04-02T12:28:07Z</time>
      </trkpt>
      <trkpt lat="44.25747" lon="5.94581">
        <ele>498</ele>
        <time>2019-04-02T12:28:08Z</time>
      </trkpt>
      <trkpt lat="44.25749" lon="5.94589">
        <ele>498</ele>
        <time>2019-04-02T12:28:09Z</time>
      </trkpt>
      <trkpt lat="44.2575" lon="5.94597">
        <ele>498</ele>
        <time>2019-04-02T12:28:10Z</time>
      </trkpt>
      <trkpt lat="44.25752" lon="5.94604">
        <ele>498</ele>
        <time>2019-04-02T12:28:11Z</time>
      </trkpt>
      <trkpt lat="44.25753" lon="5.94612">
        <ele>498</ele>
        <time>2019-04-02T12:28:12Z</time>
      </trkpt>
      <trkpt lat="44.25755" lon="5.94619">
        <ele>498</ele>
        <time>2019-04-02T12:28:13Z</time>
      </trkpt>
      <trkpt lat="44.25756" lon="5.94626">
        <ele>498</ele>
        <time>2019-04-02T12:28:14Z</time>
      </trkpt>
      <trkpt lat="44.25758" lon="5.94633">
        <ele>498</ele>
        <time>2019-04-02T12:28:15Z</time>
      </trkpt>
      <trkpt lat="44.25759" lon="5.9464">
        <ele>498</ele>
        <time>2019-04-02T12:28:16Z</time>
      </trkpt>
      <trkpt lat="44.25761" lon="5.94648">
        <ele>498</ele>
        <time>2019-04-02T12:28:17Z</time>
      </trkpt>
      <trkpt lat="44.25762" lon="5.94656">
        <ele>498</ele>
        <time>2019-04-02T12:28:18Z</time>
      </trkpt>
      <trkpt lat="44.25764" lon="5.94664">
        <ele>498</ele>
        <time>2019-04-02T12:28:19Z</time>
      </trkpt>
      <trkpt lat="44.25765" lon="5.94672">
        <ele>498</ele>
        <time>2019-04-02T12:28:20Z</time>
      </trkpt>
      <trkpt lat="44.25767" lon="5.94681">
        <ele>498</ele>
        <time>2019-04-02T12:28:21Z</time>
      </trkpt>
      <trkpt lat="44.25768" lon="5.94689">
        <ele>498</ele>
        <time>2019-04-02T12:28:22Z</time>
      </trkpt>
      <trkpt lat="44.25769" lon="5.94697">
        <ele>498</ele>
        <time>2019-04-02T12:28:23Z</time>
      </trkpt>
      <trkpt lat="44.25769" lon="5.94704">
        <ele>498</ele>
        <time>2019-04-02T12:28:24Z</time>
      </trkpt>
      <trkpt lat="44.2577" lon="5.94712">
        <ele>498</ele>
        <time>2019-04-02T12:28:25Z</time>
      </trkpt>
      <trkpt lat="44.25771" lon="5.9472">
        <ele>498</ele>
        <time>2019-04-02T12:28:26Z</time>
      </trkpt>
      <trkpt lat="44.25771" lon="5.94727">
        <ele>498</ele>
        <time>2019-04-02T12:28:27Z</time>
      </trkpt>
      <trkpt lat="44.25771" lon="5.94734">
        <ele>498</ele>
        <time>2019-04-02T12:28:28Z</time>
      </trkpt>
      <trkpt lat="44.25771" lon="5.94742">
        <ele>498</ele>
        <time>2019-04-02T12:28:29Z</time>
      </trkpt>
      <trkpt lat="44.25771" lon="5.94749">
        <ele>498</ele>
        <time>2019-04-02T12:28:30Z</time>
      </trkpt>
      <trkpt lat="44.25771" lon="5.94757">
        <ele>499</ele>
        <time>2019-04-02T12:28:31Z</time>
      </trkpt>
      <trkpt lat="44.25771" lon="5.94765">
        <ele>499</ele>
        <time>2019-04-02T12:28:32Z</time>
      </trkpt>
      <trkpt lat="44.25772" lon="5.94772">
        <ele>499</ele>
        <time>2019-04-02T12:28:33Z</time>
      </trkpt>
      <trkpt lat="44.25771" lon="5.94779">
        <ele>500</ele>
        <time>2019-04-02T12:28:34Z</time>
      </trkpt>
      <trkpt lat="44.25771" lon="5.94785">
        <ele>500</ele>
        <time>2019-04-02T12:28:35Z</time>
      </trkpt>
      <trkpt lat="44.2577" lon="5.94792">
        <ele>500</ele>
        <time>2019-04-02T12:28:36Z</time>
      </trkpt>
      <trkpt lat="44.25769" lon="5.94799">
        <ele>500</ele>
        <time>2019-04-02T12:28:37Z</time>
      </trkpt>
      <trkpt lat="44.25769" lon="5.94805">
        <ele>501</ele>
        <time>2019-04-02T12:28:38Z</time>
      </trkpt>
      <trkpt lat="44.25768" lon="5.94812">
        <ele>501</ele>
        <time>2019-04-02T12:28:39Z</time>
      </trkpt>
      <trkpt lat="44.25767" lon="5.94819">
        <ele>501</ele>
        <time>2019-04-02T12:28:40Z</time>
      </trkpt>
      <trkpt lat="44.25766" lon="5.94826">
        <ele>501</ele>
        <time>2019-04-02T12:28:41Z</time>
      </trkpt>
      <trkpt lat="44.25765" lon="5.94832">
        <ele>501</ele>
        <time>2019-04-02T12:28:42Z</time>
      </trkpt>
      <trkpt lat="44.25764" lon="5.94838">
        <ele>502</ele>
        <time>2019-04-02T12:28:43Z</time>
      </trkpt>
      <trkpt lat="44.25763" lon="5.94845">
        <ele>502</ele>
        <time>2019-04-02T12:28:44Z</time>
      </trkpt>
      <trkpt lat="44.25761" lon="5.94851">
        <ele>502</ele>
        <time>2019-04-02T12:28:45Z</time>
      </trkpt>
      <trkpt lat="44.2576" lon="5.94858">
        <ele>502</ele>
        <time>2019-04-02T12:28:46Z</time>
      </trkpt>
      <trkpt lat="44.25758" lon="5.94865">
        <ele>503</ele>
        <time>2019-04-02T12:28:47Z</time>
      </trkpt>
      <trkpt lat="44.25757" lon="5.94872">
        <ele>503</ele>
        <time>2019-04-02T12:28:48Z</time>
      </trkpt>
      <trkpt lat="44.25755" lon="5.94879">
        <ele>503</ele>
        <time>2019-04-02T12:28:49Z</time>
      </trkpt>
      <trkpt lat="44.25754" lon="5.94885">
        <ele>503</ele>
        <time>2019-04-02T12:28:50Z</time>
      </trkpt>
      <trkpt lat="44.25752" lon="5.94892">
        <ele>503</ele>
        <time>2019-04-02T12:28:51Z</time>
      </trkpt>
      <trkpt lat="44.2575" lon="5.94899">
        <ele>503</ele>
        <time>2019-04-02T12:28:52Z</time>
      </trkpt>
      <trkpt lat="44.25749" lon="5.94906">
        <ele>504</ele>
        <time>2019-04-02T12:28:53Z</time>
      </trkpt>
      <trkpt lat="44.25747" lon="5.94913">
        <ele>504</ele>
        <time>2019-04-02T12:28:54Z</time>
      </trkpt>
      <trkpt lat="44.25745" lon="5.94921">
        <ele>504</ele>
        <time>2019-04-02T12:28:55Z</time>
      </trkpt>
      <trkpt lat="44.25743" lon="5.94928">
        <ele>504</ele>
        <time>2019-04-02T12:28:56Z</time>
      </trkpt>
      <trkpt lat="44.2574" lon="5.94936">
        <ele>504</ele>
        <time>2019-04-02T12:28:57Z</time>
      </trkpt>
      <trkpt lat="44.25738" lon="5.94943">
        <ele>505</ele>
        <time>2019-04-02T12:28:58Z</time>
      </trkpt>
      <trkpt lat="44.25736" lon="5.94951">
        <ele>505</ele>
        <time>2019-04-02T12:28:59Z</time>
      </trkpt>
      <trkpt lat="44.25734" lon="5.94958">
        <ele>505</ele>
        <time>2019-04-02T12:29:00Z</time>
      </trkpt>
      <trkpt lat="44.25733" lon="5.94966">
        <ele>505</ele>
        <time>2019-04-02T12:29:01Z</time>
      </trkpt>
      <trkpt lat="44.25731" lon="5.94974">
        <ele>505</ele>
        <time>2019-04-02T12:29:02Z</time>
      </trkpt>
      <trkpt lat="44.25729" lon="5.94981">
        <ele>505</ele>
        <time>2019-04-02T12:29:03Z</time>
      </trkpt>
      <trkpt lat="44.25727" lon="5.94989">
        <ele>505</ele>
        <time>2019-04-02T12:29:04Z</time>
      </trkpt>
      <trkpt lat="44.25725" lon="5.94996">
        <ele>505</ele>
        <time>2019-04-02T12:29:05Z</time>
      </trkpt>
      <trkpt lat="44.25723" lon="5.95004">
        <ele>505</ele>
        <time>2019-04-02T12:29:06Z</time>
      </trkpt>
      <trkpt lat="44.25721" lon="5.95012">
        <ele>505</ele>
        <time>2019-04-02T12:29:07Z</time>
      </trkpt>
      <trkpt lat="44.2572" lon="5.95019">
        <ele>505</ele>
        <time>2019-04-02T12:29:08Z</time>
      </trkpt>
      <trkpt lat="44.25718" lon="5.95026">
        <ele>505</ele>
        <time>2019-04-02T12:29:09Z</time>
      </trkpt>
      <trkpt lat="44.25717" lon="5.95033">
        <ele>505</ele>
        <time>2019-04-02T12:29:10Z</time>
      </trkpt>
      <trkpt lat="44.25716" lon="5.9504">
        <ele>505</ele>
        <time>2019-04-02T12:29:11Z</time>
      </trkpt>
      <trkpt lat="44.25716" lon="5.95047">
        <ele>506</ele>
        <time>2019-04-02T12:29:12Z</time>
      </trkpt>
      <trkpt lat="44.25716" lon="5.95054">
        <ele>506</ele>
        <time>2019-04-02T12:29:13Z</time>
      </trkpt>
      <trkpt lat="44.25716" lon="5.95061">
        <ele>506</ele>
        <time>2019-04-02T12:29:14Z</time>
      </trkpt>
      <trkpt lat="44.25717" lon="5.95068">
        <ele>506</ele>
        <time>2019-04-02T12:29:15Z</time>
      </trkpt>
      <trkpt lat="44.25718" lon="5.95074">
        <ele>506</ele>
        <time>2019-04-02T12:29:16Z</time>
      </trkpt>
      <trkpt lat="44.25719" lon="5.95081">
        <ele>506</ele>
        <time>2019-04-02T12:29:17Z</time>
      </trkpt>
      <trkpt lat="44.2572" lon="5.95087">
        <ele>506</ele>
        <time>2019-04-02T12:29:18Z</time>
      </trkpt>
      <trkpt lat="44.25722" lon="5.95094">
        <ele>506</ele>
        <time>2019-04-02T12:29:19Z</time>
      </trkpt>
      <trkpt lat="44.25724" lon="5.951">
        <ele>507</ele>
        <time>2019-04-02T12:29:20Z</time>
      </trkpt>
      <trkpt lat="44.25726" lon="5.95106">
        <ele>507</ele>
        <time>2019-04-02T12:29:21Z</time>
      </trkpt>
      <trkpt lat="44.25729" lon="5.95111">
        <ele>507</ele>
        <time>2019-04-02T12:29:22Z</time>
      </trkpt>
      <trkpt lat="44.25732" lon="5.95116">
        <ele>507</ele>
        <time>2019-04-02T12:29:23Z</time>
      </trkpt>
      <trkpt lat="44.25735" lon="5.95121">
        <ele>507</ele>
        <time>2019-04-02T12:29:24Z</time>
      </trkpt>
      <trkpt lat="44.25739" lon="5.95126">
        <ele>507</ele>
        <time>2019-04-02T12:29:25Z</time>
      </trkpt>
      <trkpt lat="44.25742" lon="5.95131">
        <ele>508</ele>
        <time>2019-04-02T12:29:26Z</time>
      </trkpt>
      <trkpt lat="44.25745" lon="5.95136">
        <ele>508</ele>
        <time>2019-04-02T12:29:27Z</time>
      </trkpt>
      <trkpt lat="44.25749" lon="5.9514">
        <ele>508</ele>
        <time>2019-04-02T12:29:28Z</time>
      </trkpt>
      <trkpt lat="44.25752" lon="5.95146">
        <ele>508</ele>
        <time>2019-04-02T12:29:29Z</time>
      </trkpt>
      <trkpt lat="44.25756" lon="5.95151">
        <ele>508</ele>
        <time>2019-04-02T12:29:30Z</time>
      </trkpt>
      <trkpt lat="44.25759" lon="5.95156">
        <ele>508</ele>
        <time>2019-04-02T12:29:31Z</time>
      </trkpt>
      <trkpt lat="44.25762" lon="5.95162">
        <ele>508</ele>
        <time>2019-04-02T12:29:32Z</time>
      </trkpt>
      <trkpt lat="44.25765" lon="5.95167">
        <ele>508</ele>
        <time>2019-04-02T12:29:33Z</time>
      </trkpt>
      <trkpt lat="44.25768" lon="5.95173">
        <ele>508</ele>
        <time>2019-04-02T12:29:34Z</time>
      </trkpt>
      <trkpt lat="44.2577" lon="5.95178">
        <ele>508</ele>
        <time>2019-04-02T12:29:35Z</time>
      </trkpt>
      <trkpt lat="44.25772" lon="5.95184">
        <ele>508</ele>
        <time>2019-04-02T12:29:36Z</time>
      </trkpt>
      <trkpt lat="44.25774" lon="5.9519">
        <ele>508</ele>
        <time>2019-04-02T12:29:37Z</time>
      </trkpt>
      <trkpt lat="44.25776" lon="5.95196">
        <ele>508</ele>
        <time>2019-04-02T12:29:38Z</time>
      </trkpt>
      <trkpt lat="44.25777" lon="5.95202">
        <ele>508</ele>
        <time>2019-04-02T12:29:39Z</time>
      </trkpt>
      <trkpt lat="44.25778" lon="5.95208">
        <ele>508</ele>
        <time>2019-04-02T12:29:40Z</time>
      </trkpt>
      <trkpt lat="44.25779" lon="5.95214">
        <ele>509</ele>
        <time>2019-04-02T12:29:41Z</time>
      </trkpt>
      <trkpt lat="44.2578" lon="5.9522">
        <ele>509</ele>
        <time>2019-04-02T12:29:42Z</time>
      </trkpt>
      <trkpt lat="44.25781" lon="5.95226">
        <ele>509</ele>
        <time>2019-04-02T12:29:43Z</time>
      </trkpt>
      <trkpt lat="44.25782" lon="5.95232">
        <ele>509</ele>
        <time>2019-04-02T12:29:44Z</time>
      </trkpt>
      <trkpt lat="44.25782" lon="5.95238">
        <ele>509</ele>
        <time>2019-04-02T12:29:45Z</time>
      </trkpt>
      <trkpt lat="44.25782" lon="5.95244">
        <ele>509</ele>
        <time>2019-04-02T12:29:46Z</time>
      </trkpt>
      <trkpt lat="44.25782" lon="5.9525">
        <ele>510</ele>
        <time>2019-04-02T12:29:47Z</time>
      </trkpt>
      <trkpt lat="44.25782" lon="5.95255">
        <ele>510</ele>
        <time>2019-04-02T12:29:48Z</time>
      </trkpt>
      <trkpt lat="44.25782" lon="5.95261">
        <ele>510</ele>
        <time>2019-04-02T12:29:49Z</time>
      </trkpt>
      <trkpt lat="44.25781" lon="5.95267">
        <ele>510</ele>
        <time>2019-04-02T12:29:50Z</time>
      </trkpt>
      <trkpt lat="44.25781" lon="5.95272">
        <ele>510</ele>
        <time>2019-04-02T12:29:51Z</time>
      </trkpt>
      <trkpt lat="44.2578" lon="5.95278">
        <ele>510</ele>
        <time>2019-04-02T12:29:52Z</time>
      </trkpt>
      <trkpt lat="44.2578" lon="5.95284">
        <ele>510</ele>
        <time>2019-04-02T12:29:53Z</time>
      </trkpt>
      <trkpt lat="44.25779" lon="5.9529">
        <ele>511</ele>
        <time>2019-04-02T12:29:54Z</time>
      </trkpt>
      <trkpt lat="44.25778" lon="5.95295">
        <ele>511</ele>
        <time>2019-04-02T12:29:55Z</time>
      </trkpt>
      <trkpt lat="44.25778" lon="5.953">
        <ele>511</ele>
        <time>2019-04-02T12:29:56Z</time>
      </trkpt>
      <trkpt lat="44.25777" lon="5.95306">
        <ele>511</ele>
        <time>2019-04-02T12:29:57Z</time>
      </trkpt>
      <trkpt lat="44.25776" lon="5.95311">
        <ele>511</ele>
        <time>2019-04-02T12:29:58Z</time>
      </trkpt>
      <trkpt lat="44.25776" lon="5.95317">
        <ele>512</ele>
        <time>2019-04-02T12:29:59Z</time>
      </trkpt>
      <trkpt lat="44.25775" lon="5.95323">
        <ele>512</ele>
        <time>2019-04-02T12:30:00Z</time>
      </trkpt>
      <trkpt lat="44.25774" lon="5.95329">
        <ele>512</ele>
        <time>2019-04-02T12:30:01Z</time>
      </trkpt>
      <trkpt lat="44.25773" lon="5.95335">
        <ele>512</ele>
        <time>2019-04-02T12:30:02Z</time>
      </trkpt>
      <trkpt lat="44.25772" lon="5.95341">
        <ele>512</ele>
        <time>2019-04-02T12:30:03Z</time>
      </trkpt>
      <trkpt lat="44.25772" lon="5.95347">
        <ele>513</ele>
        <time>2019-04-02T12:30:04Z</time>
      </trkpt>
      <trkpt lat="44.25771" lon="5.95354">
        <ele>513</ele>
        <time>2019-04-02T12:30:05Z</time>
      </trkpt>
      <trkpt lat="44.2577" lon="5.9536">
        <ele>513</ele>
        <time>2019-04-02T12:30:06Z</time>
      </trkpt>
      <trkpt lat="44.25769" lon="5.95366">
        <ele>513</ele>
        <time>2019-04-02T12:30:07Z</time>
      </trkpt>
      <trkpt lat="44.25769" lon="5.95373">
        <ele>514</ele>
        <time>2019-04-02T12:30:08Z</time>
      </trkpt>
      <trkpt lat="44.25768" lon="5.95379">
        <ele>514</ele>
        <time>2019-04-02T12:30:09Z</time>
      </trkpt>
      <trkpt lat="44.25767" lon="5.95386">
        <ele>514</ele>
        <time>2019-04-02T12:30:10Z</time>
      </trkpt>
      <trkpt lat="44.25766" lon="5.95392">
        <ele>514</ele>
        <time>2019-04-02T12:30:11Z</time>
      </trkpt>
      <trkpt lat="44.25765" lon="5.95398">
        <ele>514</ele>
        <time>2019-04-02T12:30:12Z</time>
      </trkpt>
      <trkpt lat="44.25763" lon="5.95404">
        <ele>514</ele>
        <time>2019-04-02T12:30:13Z</time>
      </trkpt>
      <trkpt lat="44.25762" lon="5.95411">
        <ele>514</ele>
        <time>2019-04-02T12:30:14Z</time>
      </trkpt>
      <trkpt lat="44.2576" lon="5.95417">
        <ele>515</ele>
        <time>2019-04-02T12:30:15Z</time>
      </trkpt>
      <trkpt lat="44.25758" lon="5.95423">
        <ele>515</ele>
        <time>2019-04-02T12:30:16Z</time>
      </trkpt>
      <trkpt lat="44.25756" lon="5.95429">
        <ele>515</ele>
        <time>2019-04-02T12:30:17Z</time>
      </trkpt>
      <trkpt lat="44.25754" lon="5.95435">
        <ele>515</ele>
        <time>2019-04-02T12:30:18Z</time>
      </trkpt>
      <trkpt lat="44.25751" lon="5.95441">
        <ele>515</ele>
        <time>2019-04-02T12:30:19Z</time>
      </trkpt>
      <trkpt lat="44.25749" lon="5.95447">
        <ele>515</ele>
        <time>2019-04-02T12:30:20Z</time>
      </trkpt>
      <trkpt lat="44.25746" lon="5.95453">
        <ele>515</ele>
        <time>2019-04-02T12:30:21Z</time>
      </trkpt>
      <trkpt lat="44.25744" lon="5.95459">
        <ele>515</ele>
        <time>2019-04-02T12:30:22Z</time>
      </trkpt>
      <trkpt lat="44.25741" lon="5.95464">
        <ele>515</ele>
        <time>2019-04-02T12:30:23Z</time>
      </trkpt>
      <trkpt lat="44.25739" lon="5.9547">
        <ele>515</ele>
        <time>2019-04-02T12:30:24Z</time>
      </trkpt>
      <trkpt lat="44.25736" lon="5.95475">
        <ele>515</ele>
        <time>2019-04-02T12:30:25Z</time>
      </trkpt>
      <trkpt lat="44.25734" lon="5.95481">
        <ele>515</ele>
        <time>2019-04-02T12:30:26Z</time>
      </trkpt>
      <trkpt lat="44.25731" lon="5.95487">
        <ele>515</ele>
        <time>2019-04-02T12:30:27Z</time>
      </trkpt>
      <trkpt lat="44.25729" lon="5.95492">
        <ele>515</ele>
        <time>2019-04-02T12:30:28Z</time>
      </trkpt>
      <trkpt lat="44.25727" lon="5.95498">
        <ele>516</ele>
        <time>2019-04-02T12:30:29Z</time>
      </trkpt>
      <trkpt lat="44.25725" lon="5.95504">
        <ele>516</ele>
        <time>2019-04-02T12:30:30Z</time>
      </trkpt>
      <trkpt lat="44.25723" lon="5.95509">
        <ele>516</ele>
        <time>2019-04-02T12:30:31Z</time>
      </trkpt>
      <trkpt lat="44.25721" lon="5.95514">
        <ele>516</ele>
        <time>2019-04-02T12:30:32Z</time>
      </trkpt>
      <trkpt lat="44.2572" lon="5.9552">
        <ele>517</ele>
        <time>2019-04-02T12:30:33Z</time>
      </trkpt>
      <trkpt lat="44.25718" lon="5.95525">
        <ele>517</ele>
        <time>2019-04-02T12:30:34Z</time>
      </trkpt>
      <trkpt lat="44.25717" lon="5.95531">
        <ele>517</ele>
        <time>2019-04-02T12:30:35Z</time>
      </trkpt>
      <trkpt lat="44.25716" lon="5.95537">
        <ele>517</ele>
        <time>2019-04-02T12:30:36Z</time>
      </trkpt>
      <trkpt lat="44.25715" lon="5.95542">
        <ele>517</ele>
        <time>2019-04-02T12:30:37Z</time>
      </trkpt>
      <trkpt lat="44.25714" lon="5.95548">
        <ele>518</ele>
        <time>2019-04-02T12:30:38Z</time>
      </trkpt>
      <trkpt lat="44.25713" lon="5.95553">
        <ele>518</ele>
        <time>2019-04-02T12:30:39Z</time>
      </trkpt>
      <trkpt lat="44.25712" lon="5.95559">
        <ele>518</ele>
        <time>2019-04-02T12:30:40Z</time>
      </trkpt>
      <trkpt lat="44.25711" lon="5.95565">
        <ele>518</ele>
        <time>2019-04-02T12:30:41Z</time>
      </trkpt>
      <trkpt lat="44.25711" lon="5.9557">
        <ele>519</ele>
        <time>2019-04-02T12:30:42Z</time>
      </trkpt>
      <trkpt lat="44.2571" lon="5.95576">
        <ele>519</ele>
        <time>2019-04-02T12:30:43Z</time>
      </trkpt>
      <trkpt lat="44.25709" lon="5.95581">
        <ele>519</ele>
        <time>2019-04-02T12:30:44Z</time>
      </trkpt>
      <trkpt lat="44.25708" lon="5.95586">
        <ele>519</ele>
        <time>2019-04-02T12:30:45Z</time>
      </trkpt>
      <trkpt lat="44.25708" lon="5.95592">
        <ele>519</ele>
        <time>2019-04-02T12:30:46Z</time>
      </trkpt>
      <trkpt lat="44.25707" lon="5.95597">
        <ele>519</ele>
        <time>2019-04-02T12:30:47Z</time>
      </trkpt>
      <trkpt lat="44.25706" lon="5.95602">
        <ele>519</ele>
        <time>2019-04-02T12:30:48Z</time>
      </trkpt>
      <trkpt lat="44.25705" lon="5.95608">
        <ele>520</ele>
        <time>2019-04-02T12:30:49Z</time>
      </trkpt>
      <trkpt lat="44.25705" lon="5.95613">
        <ele>520</ele>
        <time>2019-04-02T12:30:50Z</time>
      </trkpt>
      <trkpt lat="44.25704" lon="5.95618">
        <ele>520</ele>
        <time>2019-04-02T12:30:51Z</time>
      </trkpt>
      <trkpt lat="44.25703" lon="5.95623">
        <ele>520</ele>
        <time>2019-04-02T12:30:52Z</time>
      </trkpt>
      <trkpt lat="44.25703" lon="5.95628">
        <ele>520</ele>
        <time>2019-04-02T12:30:53Z</time>
      </trkpt>
      <trkpt lat="44.25702" lon="5.95633">
        <ele>520</ele>
        <time>2019-04-02T12:30:54Z</time>
      </trkpt>
      <trkpt lat="44.25702" lon="5.95637">
        <ele>521</ele>
        <time>2019-04-02T12:30:55Z</time>
      </trkpt>
      <trkpt lat="44.25701" lon="5.95642">
        <ele>521</ele>
        <time>2019-04-02T12:30:56Z</time>
      </trkpt>
      <trkpt lat="44.257" lon="5.95646">
        <ele>521</ele>
        <time>2019-04-02T12:30:57Z</time>
      </trkpt>
      <trkpt lat="44.25699" lon="5.95651">
        <ele>521</ele>
        <time>2019-04-02T12:30:58Z</time>
      </trkpt>
      <trkpt lat="44.25699" lon="5.95656">
        <ele>521</ele>
        <time>2019-04-02T12:30:59Z</time>
      </trkpt>
      <trkpt lat="44.25698" lon="5.9566">
        <ele>521</ele>
        <time>2019-04-02T12:31:00Z</time>
      </trkpt>
      <trkpt lat="44.25698" lon="5.95665">
        <ele>522</ele>
        <time>2019-04-02T12:31:01Z</time>
      </trkpt>
      <trkpt lat="44.25697" lon="5.9567">
        <ele>522</ele>
        <time>2019-04-02T12:31:02Z</time>
      </trkpt>
      <trkpt lat="44.25697" lon="5.95675">
        <ele>522</ele>
        <time>2019-04-02T12:31:03Z</time>
      </trkpt>
      <trkpt lat="44.25696" lon="5.9568">
        <ele>522</ele>
        <time>2019-04-02T12:31:04Z</time>
      </trkpt>
      <trkpt lat="44.25695" lon="5.95685">
        <ele>522</ele>
        <time>2019-04-02T12:31:05Z</time>
      </trkpt>
      <trkpt lat="44.25695" lon="5.95691">
        <ele>523</ele>
        <time>2019-04-02T12:31:06Z</time>
      </trkpt>
      <trkpt lat="44.25694" lon="5.95696">
        <ele>523</ele>
        <time>2019-04-02T12:31:07Z</time>
      </trkpt>
      <trkpt lat="44.25694" lon="5.95702">
        <ele>523</ele>
        <time>2019-04-02T12:31:08Z</time>
      </trkpt>
      <trkpt lat="44.25693" lon="5.95708">
        <ele>523</ele>
        <time>2019-04-02T12:31:09Z</time>
      </trkpt>
      <trkpt lat="44.25693" lon="5.95713">
        <ele>523</ele>
        <time>2019-04-02T12:31:10Z</time>
      </trkpt>
      <trkpt lat="44.25692" lon="5.95719">
        <ele>524</ele>
        <time>2019-04-02T12:31:11Z</time>
      </trkpt>
      <trkpt lat="44.25692" lon="5.95725">
        <ele>524</ele>
        <time>2019-04-02T12:31:12Z</time>
      </trkpt>
      <trkpt lat="44.25693" lon="5.95731">
        <ele>524</ele>
        <time>2019-04-02T12:31:13Z</time>
      </trkpt>
      <trkpt lat="44.25693" lon="5.95738">
        <ele>524</ele>
        <time>2019-04-02T12:31:14Z</time>
      </trkpt>
      <trkpt lat="44.25693" lon="5.95745">
        <ele>524</ele>
        <time>2019-04-02T12:31:15Z</time>
      </trkpt>
      <trkpt lat="44.25694" lon="5.95752">
        <ele>525</ele>
        <time>2019-04-02T12:31:16Z</time>
      </trkpt>
      <trkpt lat="44.25694" lon="5.95759">
        <ele>525</ele>
        <time>2019-04-02T12:31:17Z</time>
      </trkpt>
      <trkpt lat="44.25695" lon="5.95766">
        <ele>525</ele>
        <time>2019-04-02T12:31:18Z</time>
      </trkpt>
      <trkpt lat="44.25696" lon="5.95772">
        <ele>525</ele>
        <time>2019-04-02T12:31:19Z</time>
      </trkpt>
      <trkpt lat="44.25696" lon="5.95779">
        <ele>526</ele>
        <time>2019-04-02T12:31:20Z</time>
      </trkpt>
      <trkpt lat="44.25697" lon="5.95785">
        <ele>526</ele>
        <time>2019-04-02T12:31:21Z</time>
      </trkpt>
      <trkpt lat="44.25697" lon="5.95792">
        <ele>526</ele>
        <time>2019-04-02T12:31:22Z</time>
      </trkpt>
      <trkpt lat="44.25698" lon="5.95798">
        <ele>526</ele>
        <time>2019-04-02T12:31:23Z</time>
      </trkpt>
      <trkpt lat="44.25699" lon="5.95805">
        <ele>526</ele>
        <time>2019-04-02T12:31:24Z</time>
      </trkpt>
      <trkpt lat="44.25699" lon="5.95812">
        <ele>526</ele>
        <time>2019-04-02T12:31:25Z</time>
      </trkpt>
      <trkpt lat="44.257" lon="5.95819">
        <ele>527</ele>
        <time>2019-04-02T12:31:26Z</time>
      </trkpt>
      <trkpt lat="44.25701" lon="5.95826">
        <ele>527</ele>
        <time>2019-04-02T12:31:27Z</time>
      </trkpt>
      <trkpt lat="44.25702" lon="5.95833">
        <ele>527</ele>
        <time>2019-04-02T12:31:28Z</time>
      </trkpt>
      <trkpt lat="44.25702" lon="5.9584">
        <ele>527</ele>
        <time>2019-04-02T12:31:29Z</time>
      </trkpt>
      <trkpt lat="44.25703" lon="5.95847">
        <ele>527</ele>
        <time>2019-04-02T12:31:30Z</time>
      </trkpt>
      <trkpt lat="44.25703" lon="5.95854">
        <ele>527</ele>
        <time>2019-04-02T12:31:31Z</time>
      </trkpt>
      <trkpt lat="44.25703" lon="5.95861">
        <ele>527</ele>
        <time>2019-04-02T12:31:32Z</time>
      </trkpt>
      <trkpt lat="44.25703" lon="5.95868">
        <ele>527</ele>
        <time>2019-04-02T12:31:33Z</time>
      </trkpt>
      <trkpt lat="44.25704" lon="5.95875">
        <ele>527</ele>
        <time>2019-04-02T12:31:34Z</time>
      </trkpt>
      <trkpt lat="44.25704" lon="5.95882">
        <ele>527</ele>
        <time>2019-04-02T12:31:35Z</time>
      </trkpt>
      <trkpt lat="44.25704" lon="5.95889">
        <ele>527</ele>
        <time>2019-04-02T12:31:36Z</time>
      </trkpt>
      <trkpt lat="44.25704" lon="5.95897">
        <ele>527</ele>
        <time>2019-04-02T12:31:37Z</time>
      </trkpt>
      <trkpt lat="44.25704" lon="5.95904">
        <ele>527</ele>
        <time>2019-04-02T12:31:38Z</time>
      </trkpt>
      <trkpt lat="44.25704" lon="5.95912">
        <ele>527</ele>
        <time>2019-04-02T12:31:39Z</time>
      </trkpt>
      <trkpt lat="44.25703" lon="5.95919">
        <ele>527</ele>
        <time>2019-04-02T12:31:40Z</time>
      </trkpt>
      <trkpt lat="44.25703" lon="5.95926">
        <ele>527</ele>
        <time>2019-04-02T12:31:41Z</time>
      </trkpt>
      <trkpt lat="44.25702" lon="5.95933">
        <ele>527</ele>
        <time>2019-04-02T12:31:42Z</time>
      </trkpt>
      <trkpt lat="44.25702" lon="5.95941">
        <ele>527</ele>
        <time>2019-04-02T12:31:43Z</time>
      </trkpt>
      <trkpt lat="44.25701" lon="5.95948">
        <ele>527</ele>
        <time>2019-04-02T12:31:44Z</time>
      </trkpt>
      <trkpt lat="44.25701" lon="5.95955">
        <ele>527</ele>
        <time>2019-04-02T12:31:45Z</time>
      </trkpt>
      <trkpt lat="44.257" lon="5.95963">
        <ele>527</ele>
        <time>2019-04-02T12:31:46Z</time>
      </trkpt>
      <trkpt lat="44.257" lon="5.9597">
        <ele>527</ele>
        <time>2019-04-02T12:31:47Z</time>
      </trkpt>
      <trkpt lat="44.25699" lon="5.95977">
        <ele>527</ele>
        <time>2019-04-02T12:31:48Z</time>
      </trkpt>
      <trkpt lat="44.25699" lon="5.95985">
        <ele>527</ele>
        <time>2019-04-02T12:31:49Z</time>
      </trkpt>
      <trkpt lat="44.25698" lon="5.95992">
        <ele>527</ele>
        <time>2019-04-02T12:31:50Z</time>
      </trkpt>
      <trkpt lat="44.25698" lon="5.96">
        <ele>528</ele>
        <time>2019-04-02T12:31:51Z</time>
      </trkpt>
      <trkpt lat="44.25697" lon="5.96007">
        <ele>528</ele>
        <time>2019-04-02T12:31:52Z</time>
      </trkpt>
      <trkpt lat="44.25697" lon="5.96015">
        <ele>528</ele>
        <time>2019-04-02T12:31:53Z</time>
      </trkpt>
      <trkpt lat="44.25696" lon="5.96023">
        <ele>528</ele>
        <time>2019-04-02T12:31:54Z</time>
      </trkpt>
      <trkpt lat="44.25695" lon="5.96031">
        <ele>528</ele>
        <time>2019-04-02T12:31:55Z</time>
      </trkpt>
      <trkpt lat="44.25695" lon="5.96039">
        <ele>528</ele>
        <time>2019-04-02T12:31:56Z</time>
      </trkpt>
      <trkpt lat="44.25694" lon="5.96047">
        <ele>528</ele>
        <time>2019-04-02T12:31:57Z</time>
      </trkpt>
      <trkpt lat="44.25694" lon="5.96055">
        <ele>528</ele>
        <time>2019-04-02T12:31:58Z</time>
      </trkpt>
      <trkpt lat="44.25694" lon="5.96063">
        <ele>528</ele>
        <time>2019-04-02T12:31:59Z</time>
      </trkpt>
      <trkpt lat="44.25694" lon="5.96071">
        <ele>528</ele>
        <time>2019-04-02T12:32:00Z</time>
      </trkpt>
      <trkpt lat="44.25694" lon="5.9608">
        <ele>528</ele>
        <time>2019-04-02T12:32:01Z</time>
      </trkpt>
      <trkpt lat="44.25695" lon="5.96088">
        <ele>528</ele>
        <time>2019-04-02T12:32:02Z</time>
      </trkpt>
      <trkpt lat="44.25695" lon="5.96096">
        <ele>528</ele>
        <time>2019-04-02T12:32:03Z</time>
      </trkpt>
      <trkpt lat="44.25696" lon="5.96104">
        <ele>528</ele>
        <time>2019-04-02T12:32:04Z</time>
      </trkpt>
      <trkpt lat="44.25698" lon="5.96112">
        <ele>528</ele>
        <time>2019-04-02T12:32:05Z</time>
      </trkpt>
      <trkpt lat="44.25699" lon="5.9612">
        <ele>528</ele>
        <time>2019-04-02T12:32:06Z</time>
      </trkpt>
      <trkpt lat="44.25701" lon="5.96128">
        <ele>528</ele>
        <time>2019-04-02T12:32:07Z</time>
      </trkpt>
      <trkpt lat="44.25703" lon="5.96136">
        <ele>528</ele>
        <time>2019-04-02T12:32:08Z</time>
      </trkpt>
      <trkpt lat="44.25705" lon="5.96144">
        <ele>528</ele>
        <time>2019-04-02T12:32:09Z</time>
      </trkpt>
      <trkpt lat="44.25708" lon="5.96152">
        <ele>528</ele>
        <time>2019-04-02T12:32:10Z</time>
      </trkpt>
      <trkpt lat="44.25711" lon="5.9616">
        <ele>528</ele>
        <time>2019-04-02T12:32:11Z</time>
      </trkpt>
      <trkpt lat="44.25713" lon="5.96168">
        <ele>528</ele>
        <time>2019-04-02T12:32:12Z</time>
      </trkpt>
      <trkpt lat="44.25716" lon="5.96176">
        <ele>528</ele>
        <time>2019-04-02T12:32:13Z</time>
      </trkpt>
      <trkpt lat="44.25718" lon="5.96184">
        <ele>528</ele>
        <time>2019-04-02T12:32:14Z</time>
      </trkpt>
      <trkpt lat="44.25721" lon="5.96192">
        <ele>528</ele>
        <time>2019-04-02T12:32:15Z</time>
      </trkpt>
      <trkpt lat="44.25723" lon="5.962">
        <ele>528</ele>
        <time>2019-04-02T12:32:16Z</time>
      </trkpt>
      <trkpt lat="44.25726" lon="5.96208">
        <ele>528</ele>
        <time>2019-04-02T12:32:17Z</time>
      </trkpt>
      <trkpt lat="44.25728" lon="5.96216">
        <ele>528</ele>
        <time>2019-04-02T12:32:18Z</time>
      </trkpt>
      <trkpt lat="44.2573" lon="5.96225">
        <ele>528</ele>
        <time>2019-04-02T12:32:19Z</time>
      </trkpt>
      <trkpt lat="44.25732" lon="5.96234">
        <ele>528</ele>
        <time>2019-04-02T12:32:20Z</time>
      </trkpt>
      <trkpt lat="44.25734" lon="5.96242">
        <ele>528</ele>
        <time>2019-04-02T12:32:21Z</time>
      </trkpt>
      <trkpt lat="44.25736" lon="5.96251">
        <ele>528</ele>
        <time>2019-04-02T12:32:22Z</time>
      </trkpt>
      <trkpt lat="44.25738" lon="5.96259">
        <ele>528</ele>
        <time>2019-04-02T12:32:23Z</time>
      </trkpt>
      <trkpt lat="44.25739" lon="5.96268">
        <ele>528</ele>
        <time>2019-04-02T12:32:24Z</time>
      </trkpt>
      <trkpt lat="44.25741" lon="5.96277">
        <ele>528</ele>
        <time>2019-04-02T12:32:25Z</time>
      </trkpt>
      <trkpt lat="44.25742" lon="5.96286">
        <ele>528</ele>
        <time>2019-04-02T12:32:26Z</time>
      </trkpt>
      <trkpt lat="44.25744" lon="5.96295">
        <ele>528</ele>
        <time>2019-04-02T12:32:27Z</time>
      </trkpt>
      <trkpt lat="44.25745" lon="5.96304">
        <ele>528</ele>
        <time>2019-04-02T12:32:28Z</time>
      </trkpt>
      <trkpt lat="44.25747" lon="5.96313">
        <ele>528</ele>
        <time>2019-04-02T12:32:29Z</time>
      </trkpt>
      <trkpt lat="44.25748" lon="5.96322">
        <ele>528</ele>
        <time>2019-04-02T12:32:30Z</time>
      </trkpt>
      <trkpt lat="44.25749" lon="5.96331">
        <ele>528</ele>
        <time>2019-04-02T12:32:31Z</time>
      </trkpt>
      <trkpt lat="44.2575" lon="5.9634">
        <ele>528</ele>
        <time>2019-04-02T12:32:32Z</time>
      </trkpt>
      <trkpt lat="44.2575" lon="5.96349">
        <ele>528</ele>
        <time>2019-04-02T12:32:33Z</time>
      </trkpt>
      <trkpt lat="44.25751" lon="5.96359">
        <ele>528</ele>
        <time>2019-04-02T12:32:34Z</time>
      </trkpt>
      <trkpt lat="44.25752" lon="5.96369">
        <ele>528</ele>
        <time>2019-04-02T12:32:35Z</time>
      </trkpt>
      <trkpt lat="44.25754" lon="5.96378">
        <ele>528</ele>
        <time>2019-04-02T12:32:36Z</time>
      </trkpt>
      <trkpt lat="44.25755" lon="5.96388">
        <ele>528</ele>
        <time>2019-04-02T12:32:37Z</time>
      </trkpt>
      <trkpt lat="44.25757" lon="5.96397">
        <ele>528</ele>
        <time>2019-04-02T12:32:38Z</time>
      </trkpt>
      <trkpt lat="44.25759" lon="5.96408">
        <ele>528</ele>
        <time>2019-04-02T12:32:39Z</time>
      </trkpt>
      <trkpt lat="44.25761" lon="5.96418">
        <ele>528</ele>
        <time>2019-04-02T12:32:40Z</time>
      </trkpt>
      <trkpt lat="44.25763" lon="5.96428">
        <ele>528</ele>
        <time>2019-04-02T12:32:41Z</time>
      </trkpt>
      <trkpt lat="44.25765" lon="5.96439">
        <ele>528</ele>
        <time>2019-04-02T12:32:42Z</time>
      </trkpt>
      <trkpt lat="44.25767" lon="5.96449">
        <ele>528</ele>
        <time>2019-04-02T12:32:43Z</time>
      </trkpt>
      <trkpt lat="44.25769" lon="5.9646">
        <ele>528</ele>
        <time>2019-04-02T12:32:44Z</time>
      </trkpt>
      <trkpt lat="44.25771" lon="5.96471">
        <ele>528</ele>
        <time>2019-04-02T12:32:45Z</time>
      </trkpt>
      <trkpt lat="44.25773" lon="5.96483">
        <ele>528</ele>
        <time>2019-04-02T12:32:46Z</time>
      </trkpt>
      <trkpt lat="44.25775" lon="5.96494">
        <ele>528</ele>
        <time>2019-04-02T12:32:47Z</time>
      </trkpt>
      <trkpt lat="44.25778" lon="5.96506">
        <ele>528</ele>
        <time>2019-04-02T12:32:48Z</time>
      </trkpt>
      <trkpt lat="44.25781" lon="5.96517">
        <ele>527</ele>
        <time>2019-04-02T12:32:49Z</time>
      </trkpt>
      <trkpt lat="44.25785" lon="5.96529">
        <ele>527</ele>
        <time>2019-04-02T12:32:50Z</time>
      </trkpt>
      <trkpt lat="44.2579" lon="5.96539">
        <ele>526</ele>
        <time>2019-04-02T12:32:51Z</time>
      </trkpt>
      <trkpt lat="44.25795" lon="5.9655">
        <ele>526</ele>
        <time>2019-04-02T12:32:52Z</time>
      </trkpt>
      <trkpt lat="44.25801" lon="5.96559">
        <ele>526</ele>
        <time>2019-04-02T12:32:53Z</time>
      </trkpt>
      <trkpt lat="44.25806" lon="5.96568">
        <ele>526</ele>
        <time>2019-04-02T12:32:54Z</time>
      </trkpt>
      <trkpt lat="44.25812" lon="5.96576">
        <ele>526</ele>
        <time>2019-04-02T12:32:55Z</time>
      </trkpt>
      <trkpt lat="44.25817" lon="5.96585">
        <ele>526</ele>
        <time>2019-04-02T12:32:56Z</time>
      </trkpt>
      <trkpt lat="44.25822" lon="5.96592">
        <ele>526</ele>
        <time>2019-04-02T12:32:57Z</time>
      </trkpt>
      <trkpt lat="44.25827" lon="5.96599">
        <ele>526</ele>
        <time>2019-04-02T12:32:58Z</time>
      </trkpt>
      <trkpt lat="44.25832" lon="5.96606">
        <ele>526</ele>
        <time>2019-04-02T12:32:59Z</time>
      </trkpt>
      <trkpt lat="44.25837" lon="5.96613">
        <ele>526</ele>
        <time>2019-04-02T12:33:00Z</time>
      </trkpt>
      <trkpt lat="44.25842" lon="5.96619">
        <ele>526</ele>
        <time>2019-04-02T12:33:01Z</time>
      </trkpt>
      <trkpt lat="44.25846" lon="5.96626">
        <ele>526</ele>
        <time>2019-04-02T12:33:02Z</time>
      </trkpt>
      <trkpt lat="44.25851" lon="5.96632">
        <ele>526</ele>
        <time>2019-04-02T12:33:03Z</time>
      </trkpt>
      <trkpt lat="44.25855" lon="5.96638">
        <ele>526</ele>
        <time>2019-04-02T12:33:04Z</time>
      </trkpt>
      <trkpt lat="44.25859" lon="5.96645">
        <ele>526</ele>
        <time>2019-04-02T12:33:05Z</time>
      </trkpt>
      <trkpt lat="44.25863" lon="5.96651">
        <ele>526</ele>
        <time>2019-04-02T12:33:06Z</time>
      </trkpt>
      <trkpt lat="44.25868" lon="5.96657">
        <ele>526</ele>
        <time>2019-04-02T12:33:07Z</time>
      </trkpt>
      <trkpt lat="44.25872" lon="5.96662">
        <ele>526</ele>
        <time>2019-04-02T12:33:08Z</time>
      </trkpt>
      <trkpt lat="44.25876" lon="5.96668">
        <ele>526</ele>
        <time>2019-04-02T12:33:09Z</time>
      </trkpt>
      <trkpt lat="44.25881" lon="5.96673">
        <ele>526</ele>
        <time>2019-04-02T12:33:10Z</time>
      </trkpt>
      <trkpt lat="44.25885" lon="5.96679">
        <ele>526</ele>
        <time>2019-04-02T12:33:11Z</time>
      </trkpt>
      <trkpt lat="44.25889" lon="5.96684">
        <ele>526</ele>
        <time>2019-04-02T12:33:12Z</time>
      </trkpt>
      <trkpt lat="44.25894" lon="5.9669">
        <ele>526</ele>
        <time>2019-04-02T12:33:13Z</time>
      </trkpt>
      <trkpt lat="44.25898" lon="5.96695">
        <ele>526</ele>
        <time>2019-04-02T12:33:14Z</time>
      </trkpt>
      <trkpt lat="44.25903" lon="5.967">
        <ele>526</ele>
        <time>2019-04-02T12:33:15Z</time>
      </trkpt>
      <trkpt lat="44.25908" lon="5.96705">
        <ele>526</ele>
        <time>2019-04-02T12:33:16Z</time>
      </trkpt>
      <trkpt lat="44.25912" lon="5.96711">
        <ele>526</ele>
        <time>2019-04-02T12:33:17Z</time>
      </trkpt>
      <trkpt lat="44.25917" lon="5.96716">
        <ele>526</ele>
        <time>2019-04-02T12:33:18Z</time>
      </trkpt>
      <trkpt lat="44.25921" lon="5.96722">
        <ele>526</ele>
        <time>2019-04-02T12:33:19Z</time>
      </trkpt>
      <trkpt lat="44.25925" lon="5.96728">
        <ele>526</ele>
        <time>2019-04-02T12:33:20Z</time>
      </trkpt>
      <trkpt lat="44.25929" lon="5.96734">
        <ele>526</ele>
        <time>2019-04-02T12:33:21Z</time>
      </trkpt>
      <trkpt lat="44.25932" lon="5.96741">
        <ele>526</ele>
        <time>2019-04-02T12:33:22Z</time>
      </trkpt>
      <trkpt lat="44.25936" lon="5.96748">
        <ele>526</ele>
        <time>2019-04-02T12:33:23Z</time>
      </trkpt>
      <trkpt lat="44.25939" lon="5.96756">
        <ele>526</ele>
        <time>2019-04-02T12:33:24Z</time>
      </trkpt>
      <trkpt lat="44.25941" lon="5.96763">
        <ele>526</ele>
        <time>2019-04-02T12:33:25Z</time>
      </trkpt>
      <trkpt lat="44.25944" lon="5.96771">
        <ele>526</ele>
        <time>2019-04-02T12:33:26Z</time>
      </trkpt>
      <trkpt lat="44.25947" lon="5.96778">
        <ele>526</ele>
        <time>2019-04-02T12:33:27Z</time>
      </trkpt>
      <trkpt lat="44.25949" lon="5.96786">
        <ele>526</ele>
        <time>2019-04-02T12:33:28Z</time>
      </trkpt>
      <trkpt lat="44.25952" lon="5.96794">
        <ele>526</ele>
        <time>2019-04-02T12:33:29Z</time>
      </trkpt>
      <trkpt lat="44.25954" lon="5.96802">
        <ele>526</ele>
        <time>2019-04-02T12:33:30Z</time>
      </trkpt>
      <trkpt lat="44.25957" lon="5.96809">
        <ele>526</ele>
        <time>2019-04-02T12:33:31Z</time>
      </trkpt>
      <trkpt lat="44.2596" lon="5.96817">
        <ele>526</ele>
        <time>2019-04-02T12:33:32Z</time>
      </trkpt>
      <trkpt lat="44.25963" lon="5.96824">
        <ele>526</ele>
        <time>2019-04-02T12:33:33Z</time>
      </trkpt>
      <trkpt lat="44.25966" lon="5.96831">
        <ele>526</ele>
        <time>2019-04-02T12:33:34Z</time>
      </trkpt>
      <trkpt lat="44.25969" lon="5.96837">
        <ele>526</ele>
        <time>2019-04-02T12:33:35Z</time>
      </trkpt>
      <trkpt lat="44.25972" lon="5.96844">
        <ele>526</ele>
        <time>2019-04-02T12:33:36Z</time>
      </trkpt>
      <trkpt lat="44.25976" lon="5.9685">
        <ele>526</ele>
        <time>2019-04-02T12:33:37Z</time>
      </trkpt>
      <trkpt lat="44.2598" lon="5.96856">
        <ele>526</ele>
        <time>2019-04-02T12:33:38Z</time>
      </trkpt>
      <trkpt lat="44.25983" lon="5.96862">
        <ele>526</ele>
        <time>2019-04-02T12:33:39Z</time>
      </trkpt>
      <trkpt lat="44.25987" lon="5.96869">
        <ele>526</ele>
        <time>2019-04-02T12:33:40Z</time>
      </trkpt>
      <trkpt lat="44.25991" lon="5.96875">
        <ele>526</ele>
        <time>2019-04-02T12:33:41Z</time>
      </trkpt>
      <trkpt lat="44.25994" lon="5.96882">
        <ele>526</ele>
        <time>2019-04-02T12:33:42Z</time>
      </trkpt>
      <trkpt lat="44.25998" lon="5.96888">
        <ele>526</ele>
        <time>2019-04-02T12:33:43Z</time>
      </trkpt>
      <trkpt lat="44.26002" lon="5.96894">
        <ele>526</ele>
        <time>2019-04-02T12:33:44Z</time>
      </trkpt>
      <trkpt lat="44.26006" lon="5.96901">
        <ele>526</ele>
        <time>2019-04-02T12:33:45Z</time>
      </trkpt>
      <trkpt lat="44.26009" lon="5.96907">
        <ele>526</ele>
        <time>2019-04-02T12:33:46Z</time>
      </trkpt>
      <trkpt lat="44.26012" lon="5.96914">
        <ele>526</ele>
        <time>2019-04-02T12:33:47Z</time>
      </trkpt>
      <trkpt lat="44.26014" lon="5.96921">
        <ele>526</ele>
        <time>2019-04-02T12:33:48Z</time>
      </trkpt>
      <trkpt lat="44.26017" lon="5.96928">
        <ele>526</ele>
        <time>2019-04-02T12:33:49Z</time>
      </trkpt>
      <trkpt lat="44.26019" lon="5.96934">
        <ele>526</ele>
        <time>2019-04-02T12:33:50Z</time>
      </trkpt>
      <trkpt lat="44.26021" lon="5.96941">
        <ele>526</ele>
        <time>2019-04-02T12:33:51Z</time>
      </trkpt>
      <trkpt lat="44.26024" lon="5.96947">
        <ele>526</ele>
        <time>2019-04-02T12:33:52Z</time>
      </trkpt>
      <trkpt lat="44.26026" lon="5.96953">
        <ele>526</ele>
        <time>2019-04-02T12:33:53Z</time>
      </trkpt>
      <trkpt lat="44.26029" lon="5.96959">
        <ele>526</ele>
        <time>2019-04-02T12:33:54Z</time>
      </trkpt>
      <trkpt lat="44.26031" lon="5.96966">
        <ele>526</ele>
        <time>2019-04-02T12:33:55Z</time>
      </trkpt>
      <trkpt lat="44.26033" lon="5.96972">
        <ele>526</ele>
        <time>2019-04-02T12:33:56Z</time>
      </trkpt>
      <trkpt lat="44.26036" lon="5.96979">
        <ele>526</ele>
        <time>2019-04-02T12:33:57Z</time>
      </trkpt>
      <trkpt lat="44.26038" lon="5.96985">
        <ele>526</ele>
        <time>2019-04-02T12:33:58Z</time>
      </trkpt>
      <trkpt lat="44.2604" lon="5.96991">
        <ele>526</ele>
        <time>2019-04-02T12:33:59Z</time>
      </trkpt>
      <trkpt lat="44.26042" lon="5.96998">
        <ele>526</ele>
        <time>2019-04-02T12:34:00Z</time>
      </trkpt>
      <trkpt lat="44.26044" lon="5.97005">
        <ele>526</ele>
        <time>2019-04-02T12:34:01Z</time>
      </trkpt>
      <trkpt lat="44.26045" lon="5.97012">
        <ele>526</ele>
        <time>2019-04-02T12:34:02Z</time>
      </trkpt>
      <trkpt lat="44.26046" lon="5.97019">
        <ele>526</ele>
        <time>2019-04-02T12:34:03Z</time>
      </trkpt>
      <trkpt lat="44.26047" lon="5.97027">
        <ele>526</ele>
        <time>2019-04-02T12:34:04Z</time>
      </trkpt>
      <trkpt lat="44.26048" lon="5.97034">
        <ele>526</ele>
        <time>2019-04-02T12:34:05Z</time>
      </trkpt>
      <trkpt lat="44.26049" lon="5.97041">
        <ele>526</ele>
        <time>2019-04-02T12:34:06Z</time>
      </trkpt>
      <trkpt lat="44.2605" lon="5.97048">
        <ele>526</ele>
        <time>2019-04-02T12:34:07Z</time>
      </trkpt>
      <trkpt lat="44.26051" lon="5.97055">
        <ele>526</ele>
        <time>2019-04-02T12:34:08Z</time>
      </trkpt>
      <trkpt lat="44.26051" lon="5.97062">
        <ele>526</ele>
        <time>2019-04-02T12:34:09Z</time>
      </trkpt>
      <trkpt lat="44.26052" lon="5.9707">
        <ele>526</ele>
        <time>2019-04-02T12:34:10Z</time>
      </trkpt>
      <trkpt lat="44.26053" lon="5.97077">
        <ele>526</ele>
        <time>2019-04-02T12:34:11Z</time>
      </trkpt>
      <trkpt lat="44.26054" lon="5.97084">
        <ele>526</ele>
        <time>2019-04-02T12:34:12Z</time>
      </trkpt>
      <trkpt lat="44.26056" lon="5.97091">
        <ele>526</ele>
        <time>2019-04-02T12:34:13Z</time>
      </trkpt>
      <trkpt lat="44.26057" lon="5.97098">
        <ele>526</ele>
        <time>2019-04-02T12:34:14Z</time>
      </trkpt>
      <trkpt lat="44.26059" lon="5.97105">
        <ele>526</ele>
        <time>2019-04-02T12:34:15Z</time>
      </trkpt>
      <trkpt lat="44.26061" lon="5.97112">
        <ele>526</ele>
        <time>2019-04-02T12:34:16Z</time>
      </trkpt>
      <trkpt lat="44.26063" lon="5.97119">
        <ele>526</ele>
        <time>2019-04-02T12:34:17Z</time>
      </trkpt>
      <trkpt lat="44.26065" lon="5.97125">
        <ele>526</ele>
        <time>2019-04-02T12:34:18Z</time>
      </trkpt>
      <trkpt lat="44.26066" lon="5.97132">
        <ele>526</ele>
        <time>2019-04-02T12:34:19Z</time>
      </trkpt>
      <trkpt lat="44.26068" lon="5.97139">
        <ele>526</ele>
        <time>2019-04-02T12:34:20Z</time>
      </trkpt>
      <trkpt lat="44.2607" lon="5.97146">
        <ele>526</ele>
        <time>2019-04-02T12:34:21Z</time>
      </trkpt>
      <trkpt lat="44.26072" lon="5.97154">
        <ele>526</ele>
        <time>2019-04-02T12:34:22Z</time>
      </trkpt>
      <trkpt lat="44.26074" lon="5.97161">
        <ele>526</ele>
        <time>2019-04-02T12:34:23Z</time>
      </trkpt>
      <trkpt lat="44.26076" lon="5.97168">
        <ele>526</ele>
        <time>2019-04-02T12:34:24Z</time>
      </trkpt>
      <trkpt lat="44.26078" lon="5.97176">
        <ele>526</ele>
        <time>2019-04-02T12:34:25Z</time>
      </trkpt>
      <trkpt lat="44.26079" lon="5.97183">
        <ele>526</ele>
        <time>2019-04-02T12:34:26Z</time>
      </trkpt>
      <trkpt lat="44.26081" lon="5.9719">
        <ele>526</ele>
        <time>2019-04-02T12:34:27Z</time>
      </trkpt>
      <trkpt lat="44.26083" lon="5.97198">
        <ele>526</ele>
        <time>2019-04-02T12:34:28Z</time>
      </trkpt>
      <trkpt lat="44.26085" lon="5.97205">
        <ele>526</ele>
        <time>2019-04-02T12:34:29Z</time>
      </trkpt>
      <trkpt lat="44.26087" lon="5.97213">
        <ele>526</ele>
        <time>2019-04-02T12:34:30Z</time>
      </trkpt>
      <trkpt lat="44.26089" lon="5.97221">
        <ele>526</ele>
        <time>2019-04-02T12:34:31Z</time>
      </trkpt>
      <trkpt lat="44.26091" lon="5.97228">
        <ele>526</ele>
        <time>2019-04-02T12:34:32Z</time>
      </trkpt>
      <trkpt lat="44.26093" lon="5.97236">
        <ele>526</ele>
        <time>2019-04-02T12:34:33Z</time>
      </trkpt>
      <trkpt lat="44.26095" lon="5.97244">
        <ele>526</ele>
        <time>2019-04-02T12:34:34Z</time>
      </trkpt>
      <trkpt lat="44.26097" lon="5.97251">
        <ele>526</ele>
        <time>2019-04-02T12:34:35Z</time>
      </trkpt>
      <trkpt lat="44.26099" lon="5.97259">
        <ele>526</ele>
        <time>2019-04-02T12:34:36Z</time>
      </trkpt>
      <trkpt lat="44.261" lon="5.97266">
        <ele>526</ele>
        <time>2019-04-02T12:34:37Z</time>
      </trkpt>
      <trkpt lat="44.26102" lon="5.97274">
        <ele>526</ele>
        <time>2019-04-02T12:34:38Z</time>
      </trkpt>
      <trkpt lat="44.26104" lon="5.97281">
        <ele>526</ele>
        <time>2019-04-02T12:34:39Z</time>
      </trkpt>
      <trkpt lat="44.26106" lon="5.97288">
        <ele>526</ele>
        <time>2019-04-02T12:34:40Z</time>
      </trkpt>
      <trkpt lat="44.26107" lon="5.97296">
        <ele>526</ele>
        <time>2019-04-02T12:34:41Z</time>
      </trkpt>
      <trkpt lat="44.26109" lon="5.97303">
        <ele>526</ele>
        <time>2019-04-02T12:34:42Z</time>
      </trkpt>
      <trkpt lat="44.26111" lon="5.9731">
        <ele>526</ele>
        <time>2019-04-02T12:34:43Z</time>
      </trkpt>
      <trkpt lat="44.26113" lon="5.97317">
        <ele>526</ele>
        <time>2019-04-02T12:34:44Z</time>
      </trkpt>
      <trkpt lat="44.26115" lon="5.97324">
        <ele>526</ele>
        <time>2019-04-02T12:34:45Z</time>
      </trkpt>
      <trkpt lat="44.26117" lon="5.97331">
        <ele>526</ele>
        <time>2019-04-02T12:34:46Z</time>
      </trkpt>
      <trkpt lat="44.26118" lon="5.97338">
        <ele>526</ele>
        <time>2019-04-02T12:34:47Z</time>
      </trkpt>
      <trkpt lat="44.2612" lon="5.97345">
        <ele>526</ele>
        <time>2019-04-02T12:34:48Z</time>
      </trkpt>
      <trkpt lat="44.26122" lon="5.97353">
        <ele>526</ele>
        <time>2019-04-02T12:34:49Z</time>
      </trkpt>
      <trkpt lat="44.26124" lon="5.9736">
        <ele>526</ele>
        <time>2019-04-02T12:34:50Z</time>
      </trkpt>
      <trkpt lat="44.26126" lon="5.97367">
        <ele>526</ele>
        <time>2019-04-02T12:34:51Z</time>
      </trkpt>
      <trkpt lat="44.26128" lon="5.97374">
        <ele>526</ele>
        <time>2019-04-02T12:34:52Z</time>
      </trkpt>
      <trkpt lat="44.2613" lon="5.97381">
        <ele>526</ele>
        <time>2019-04-02T12:34:53Z</time>
      </trkpt>
      <trkpt lat="44.26132" lon="5.97389">
        <ele>526</ele>
        <time>2019-04-02T12:34:54Z</time>
      </trkpt>
      <trkpt lat="44.26134" lon="5.97396">
        <ele>526</ele>
        <time>2019-04-02T12:34:55Z</time>
      </trkpt>
      <trkpt lat="44.26136" lon="5.97404">
        <ele>526</ele>
        <time>2019-04-02T12:34:56Z</time>
      </trkpt>
      <trkpt lat="44.26138" lon="5.97411">
        <ele>526</ele>
        <time>2019-04-02T12:34:57Z</time>
      </trkpt>
      <trkpt lat="44.26139" lon="5.97419">
        <ele>526</ele>
        <time>2019-04-02T12:34:58Z</time>
      </trkpt>
      <trkpt lat="44.26141" lon="5.97427">
        <ele>526</ele>
        <time>2019-04-02T12:34:59Z</time>
      </trkpt>
      <trkpt lat="44.26143" lon="5.97434">
        <ele>526</ele>
        <time>2019-04-02T12:35:00Z</time>
      </trkpt>
      <trkpt lat="44.26145" lon="5.97441">
        <ele>526</ele>
        <time>2019-04-02T12:35:01Z</time>
      </trkpt>
      <trkpt lat="44.26147" lon="5.97449">
        <ele>526</ele>
        <time>2019-04-02T12:35:02Z</time>
      </trkpt>
      <trkpt lat="44.26149" lon="5.97456">
        <ele>526</ele>
        <time>2019-04-02T12:35:03Z</time>
      </trkpt>
      <trkpt lat="44.26151" lon="5.97463">
        <ele>526</ele>
        <time>2019-04-02T12:35:04Z</time>
      </trkpt>
      <trkpt lat="44.26153" lon="5.97471">
        <ele>526</ele>
        <time>2019-04-02T12:35:05Z</time>
      </trkpt>
      <trkpt lat="44.26155" lon="5.97478">
        <ele>526</ele>
        <time>2019-04-02T12:35:06Z</time>
      </trkpt>
      <trkpt lat="44.26157" lon="5.97485">
        <ele>526</ele>
        <time>2019-04-02T12:35:07Z</time>
      </trkpt>
      <trkpt lat="44.26159" lon="5.97493">
        <ele>526</ele>
        <time>2019-04-02T12:35:08Z</time>
      </trkpt>
      <trkpt lat="44.26161" lon="5.975">
        <ele>526</ele>
        <time>2019-04-02T12:35:09Z</time>
      </trkpt>
      <trkpt lat="44.26163" lon="5.97507">
        <ele>526</ele>
        <time>2019-04-02T12:35:10Z</time>
      </trkpt>
      <trkpt lat="44.26165" lon="5.97514">
        <ele>526</ele>
        <time>2019-04-02T12:35:11Z</time>
      </trkpt>
      <trkpt lat="44.26167" lon="5.97521">
        <ele>526</ele>
        <time>2019-04-02T12:35:12Z</time>
      </trkpt>
      <trkpt lat="44.26169" lon="5.97529">
        <ele>527</ele>
        <time>2019-04-02T12:35:13Z</time>
      </trkpt>
      <trkpt lat="44.26171" lon="5.97536">
        <ele>527</ele>
        <time>2019-04-02T12:35:14Z</time>
      </trkpt>
      <trkpt lat="44.26173" lon="5.97543">
        <ele>527</ele>
        <time>2019-04-02T12:35:15Z</time>
      </trkpt>
      <trkpt lat="44.26175" lon="5.9755">
        <ele>527</ele>
        <time>2019-04-02T12:35:16Z</time>
      </trkpt>
      <trkpt lat="44.26177" lon="5.97558">
        <ele>527</ele>
        <time>2019-04-02T12:35:17Z</time>
      </trkpt>
      <trkpt lat="44.26179" lon="5.97566">
        <ele>527</ele>
        <time>2019-04-02T12:35:18Z</time>
      </trkpt>
      <trkpt lat="44.26181" lon="5.97573">
        <ele>527</ele>
        <time>2019-04-02T12:35:19Z</time>
      </trkpt>
      <trkpt lat="44.26183" lon="5.9758">
        <ele>527</ele>
        <time>2019-04-02T12:35:20Z</time>
      </trkpt>
      <trkpt lat="44.26185" lon="5.97588">
        <ele>527</ele>
        <time>2019-04-02T12:35:21Z</time>
      </trkpt>
      <trkpt lat="44.26187" lon="5.97595">
        <ele>527</ele>
        <time>2019-04-02T12:35:22Z</time>
      </trkpt>
      <trkpt lat="44.26189" lon="5.97603">
        <ele>527</ele>
        <time>2019-04-02T12:35:23Z</time>
      </trkpt>
      <trkpt lat="44.26191" lon="5.9761">
        <ele>527</ele>
        <time>2019-04-02T12:35:24Z</time>
      </trkpt>
      <trkpt lat="44.26194" lon="5.97617">
        <ele>527</ele>
        <time>2019-04-02T12:35:25Z</time>
      </trkpt>
      <trkpt lat="44.26196" lon="5.97623">
        <ele>528</ele>
        <time>2019-04-02T12:35:26Z</time>
      </trkpt>
      <trkpt lat="44.26198" lon="5.9763">
        <ele>528</ele>
        <time>2019-04-02T12:35:27Z</time>
      </trkpt>
      <trkpt lat="44.262" lon="5.97637">
        <ele>528</ele>
        <time>2019-04-02T12:35:28Z</time>
      </trkpt>
      <trkpt lat="44.26202" lon="5.97644">
        <ele>528</ele>
        <time>2019-04-02T12:35:29Z</time>
      </trkpt>
      <trkpt lat="44.26205" lon="5.9765">
        <ele>528</ele>
        <time>2019-04-02T12:35:30Z</time>
      </trkpt>
      <trkpt lat="44.26207" lon="5.97657">
        <ele>528</ele>
        <time>2019-04-02T12:35:31Z</time>
      </trkpt>
      <trkpt lat="44.26209" lon="5.97664">
        <ele>528</ele>
        <time>2019-04-02T12:35:32Z</time>
      </trkpt>
      <trkpt lat="44.26212" lon="5.97671">
        <ele>528</ele>
        <time>2019-04-02T12:35:33Z</time>
      </trkpt>
      <trkpt lat="44.26214" lon="5.97677">
        <ele>528</ele>
        <time>2019-04-02T12:35:34Z</time>
      </trkpt>
      <trkpt lat="44.26217" lon="5.97683">
        <ele>528</ele>
        <time>2019-04-02T12:35:35Z</time>
      </trkpt>
      <trkpt lat="44.2622" lon="5.97689">
        <ele>528</ele>
        <time>2019-04-02T12:35:36Z</time>
      </trkpt>
      <trkpt lat="44.26223" lon="5.97695">
        <ele>528</ele>
        <time>2019-04-02T12:35:37Z</time>
      </trkpt>
      <trkpt lat="44.26227" lon="5.97701">
        <ele>528</ele>
        <time>2019-04-02T12:35:38Z</time>
      </trkpt>
      <trkpt lat="44.2623" lon="5.97707">
        <ele>529</ele>
        <time>2019-04-02T12:35:39Z</time>
      </trkpt>
      <trkpt lat="44.26233" lon="5.97713">
        <ele>529</ele>
        <time>2019-04-02T12:35:40Z</time>
      </trkpt>
      <trkpt lat="44.26236" lon="5.97718">
        <ele>529</ele>
        <time>2019-04-02T12:35:41Z</time>
      </trkpt>
      <trkpt lat="44.26239" lon="5.97724">
        <ele>529</ele>
        <time>2019-04-02T12:35:42Z</time>
      </trkpt>
      <trkpt lat="44.26243" lon="5.9773">
        <ele>529</ele>
        <time>2019-04-02T12:35:43Z</time>
      </trkpt>
      <trkpt lat="44.26246" lon="5.97736">
        <ele>529</ele>
        <time>2019-04-02T12:35:44Z</time>
      </trkpt>
      <trkpt lat="44.2625" lon="5.97741">
        <ele>529</ele>
        <time>2019-04-02T12:35:45Z</time>
      </trkpt>
      <trkpt lat="44.26253" lon="5.97747">
        <ele>529</ele>
        <time>2019-04-02T12:35:46Z</time>
      </trkpt>
      <trkpt lat="44.26257" lon="5.97753">
        <ele>529</ele>
        <time>2019-04-02T12:35:47Z</time>
      </trkpt>
      <trkpt lat="44.2626" lon="5.97759">
        <ele>529</ele>
        <time>2019-04-02T12:35:48Z</time>
      </trkpt>
      <trkpt lat="44.26263" lon="5.97765">
        <ele>529</ele>
        <time>2019-04-02T12:35:49Z</time>
      </trkpt>
      <trkpt lat="44.26267" lon="5.97772">
        <ele>529</ele>
        <time>2019-04-02T12:35:50Z</time>
      </trkpt>
      <trkpt lat="44.26271" lon="5.97778">
        <ele>529</ele>
        <time>2019-04-02T12:35:51Z</time>
      </trkpt>
      <trkpt lat="44.26274" lon="5.97784">
        <ele>529</ele>
        <time>2019-04-02T12:35:52Z</time>
      </trkpt>
      <trkpt lat="44.26278" lon="5.9779">
        <ele>529</ele>
        <time>2019-04-02T12:35:53Z</time>
      </trkpt>
      <trkpt lat="44.26281" lon="5.97796">
        <ele>529</ele>
        <time>2019-04-02T12:35:54Z</time>
      </trkpt>
      <trkpt lat="44.26285" lon="5.97802">
        <ele>530</ele>
        <time>2019-04-02T12:35:55Z</time>
      </trkpt>
      <trkpt lat="44.26289" lon="5.97808">
        <ele>530</ele>
        <time>2019-04-02T12:35:56Z</time>
      </trkpt>
      <trkpt lat="44.26292" lon="5.97814">
        <ele>530</ele>
        <time>2019-04-02T12:35:57Z</time>
      </trkpt>
      <trkpt lat="44.26296" lon="5.9782">
        <ele>530</ele>
        <time>2019-04-02T12:35:58Z</time>
      </trkpt>
      <trkpt lat="44.26299" lon="5.97826">
        <ele>530</ele>
        <time>2019-04-02T12:35:59Z</time>
      </trkpt>
      <trkpt lat="44.26302" lon="5.97832">
        <ele>530</ele>
        <time>2019-04-02T12:36:00Z</time>
      </trkpt>
      <trkpt lat="44.26305" lon="5.97838">
        <ele>530</ele>
        <time>2019-04-02T12:36:01Z</time>
      </trkpt>
      <trkpt lat="44.26309" lon="5.97844">
        <ele>530</ele>
        <time>2019-04-02T12:36:02Z</time>
      </trkpt>
      <trkpt lat="44.26313" lon="5.9785">
        <ele>530</ele>
        <time>2019-04-02T12:36:03Z</time>
      </trkpt>
      <trkpt lat="44.26316" lon="5.97856">
        <ele>531</ele>
        <time>2019-04-02T12:36:04Z</time>
      </trkpt>
      <trkpt lat="44.2632" lon="5.97861">
        <ele>531</ele>
        <time>2019-04-02T12:36:05Z</time>
      </trkpt>
      <trkpt lat="44.26323" lon="5.97867">
        <ele>531</ele>
        <time>2019-04-02T12:36:06Z</time>
      </trkpt>
      <trkpt lat="44.26326" lon="5.97873">
        <ele>531</ele>
        <time>2019-04-02T12:36:07Z</time>
      </trkpt>
      <trkpt lat="44.2633" lon="5.97879">
        <ele>531</ele>
        <time>2019-04-02T12:36:08Z</time>
      </trkpt>
      <trkpt lat="44.26333" lon="5.97885">
        <ele>531</ele>
        <time>2019-04-02T12:36:09Z</time>
      </trkpt>
      <trkpt lat="44.26337" lon="5.97891">
        <ele>531</ele>
        <time>2019-04-02T12:36:10Z</time>
      </trkpt>
      <trkpt lat="44.2634" lon="5.97897">
        <ele>531</ele>
        <time>2019-04-02T12:36:11Z</time>
      </trkpt>
      <trkpt lat="44.26343" lon="5.97902">
        <ele>531</ele>
        <time>2019-04-02T12:36:12Z</time>
      </trkpt>
      <trkpt lat="44.26346" lon="5.97907">
        <ele>531</ele>
        <time>2019-04-02T12:36:13Z</time>
      </trkpt>
      <trkpt lat="44.26349" lon="5.97913">
        <ele>532</ele>
        <time>2019-04-02T12:36:14Z</time>
      </trkpt>
      <trkpt lat="44.26352" lon="5.97918">
        <ele>532</ele>
        <time>2019-04-02T12:36:15Z</time>
      </trkpt>
      <trkpt lat="44.26355" lon="5.97923">
        <ele>532</ele>
        <time>2019-04-02T12:36:16Z</time>
      </trkpt>
      <trkpt lat="44.26358" lon="5.97928">
        <ele>532</ele>
        <time>2019-04-02T12:36:17Z</time>
      </trkpt>
      <trkpt lat="44.26361" lon="5.97933">
        <ele>532</ele>
        <time>2019-04-02T12:36:18Z</time>
      </trkpt>
      <trkpt lat="44.26364" lon="5.97938">
        <ele>532</ele>
        <time>2019-04-02T12:36:19Z</time>
      </trkpt>
      <trkpt lat="44.26367" lon="5.97943">
        <ele>533</ele>
        <time>2019-04-02T12:36:20Z</time>
      </trkpt>
      <trkpt lat="44.2637" lon="5.97948">
        <ele>533</ele>
        <time>2019-04-02T12:36:21Z</time>
      </trkpt>
      <trkpt lat="44.26373" lon="5.97953">
        <ele>533</ele>
        <time>2019-04-02T12:36:22Z</time>
      </trkpt>
      <trkpt lat="44.26376" lon="5.97958">
        <ele>533</ele>
        <time>2019-04-02T12:36:23Z</time>
      </trkpt>
      <trkpt lat="44.26379" lon="5.97963">
        <ele>534</ele>
        <time>2019-04-02T12:36:24Z</time>
      </trkpt>
      <trkpt lat="44.26382" lon="5.97968">
        <ele>534</ele>
        <time>2019-04-02T12:36:25Z</time>
      </trkpt>
      <trkpt lat="44.26385" lon="5.97973">
        <ele>534</ele>
        <time>2019-04-02T12:36:26Z</time>
      </trkpt>
      <trkpt lat="44.26388" lon="5.97978">
        <ele>535</ele>
        <time>2019-04-02T12:36:27Z</time>
      </trkpt>
      <trkpt lat="44.26391" lon="5.97983">
        <ele>535</ele>
        <time>2019-04-02T12:36:28Z</time>
      </trkpt>
      <trkpt lat="44.26394" lon="5.97988">
        <ele>536</ele>
        <time>2019-04-02T12:36:29Z</time>
      </trkpt>
      <trkpt lat="44.26396" lon="5.97993">
        <ele>536</ele>
        <time>2019-04-02T12:36:30Z</time>
      </trkpt>
      <trkpt lat="44.26399" lon="5.97998">
        <ele>536</ele>
        <time>2019-04-02T12:36:31Z</time>
      </trkpt>
      <trkpt lat="44.26402" lon="5.98003">
        <ele>537</ele>
        <time>2019-04-02T12:36:32Z</time>
      </trkpt>
      <trkpt lat="44.26405" lon="5.98008">
        <ele>537</ele>
        <time>2019-04-02T12:36:33Z</time>
      </trkpt>
      <trkpt lat="44.26408" lon="5.98013">
        <ele>537</ele>
        <time>2019-04-02T12:36:34Z</time>
      </trkpt>
      <trkpt lat="44.26411" lon="5.98018">
        <ele>537</ele>
        <time>2019-04-02T12:36:35Z</time>
      </trkpt>
      <trkpt lat="44.26413" lon="5.98023">
        <ele>537</ele>
        <time>2019-04-02T12:36:36Z</time>
      </trkpt>
      <trkpt lat="44.26416" lon="5.98028">
        <ele>537</ele>
        <time>2019-04-02T12:36:37Z</time>
      </trkpt>
      <trkpt lat="44.26419" lon="5.98033">
        <ele>538</ele>
        <time>2019-04-02T12:36:38Z</time>
      </trkpt>
      <trkpt lat="44.26422" lon="5.98038">
        <ele>538</ele>
        <time>2019-04-02T12:36:39Z</time>
      </trkpt>
      <trkpt lat="44.26424" lon="5.98042">
        <ele>538</ele>
        <time>2019-04-02T12:36:40Z</time>
      </trkpt>
      <trkpt lat="44.26427" lon="5.98047">
        <ele>538</ele>
        <time>2019-04-02T12:36:41Z</time>
      </trkpt>
      <trkpt lat="44.2643" lon="5.98052">
        <ele>539</ele>
        <time>2019-04-02T12:36:42Z</time>
      </trkpt>
      <trkpt lat="44.26432" lon="5.98057">
        <ele>539</ele>
        <time>2019-04-02T12:36:43Z</time>
      </trkpt>
      <trkpt lat="44.26435" lon="5.98061">
        <ele>539</ele>
        <time>2019-04-02T12:36:44Z</time>
      </trkpt>
      <trkpt lat="44.26437" lon="5.98066">
        <ele>539</ele>
        <time>2019-04-02T12:36:45Z</time>
      </trkpt>
      <trkpt lat="44.2644" lon="5.98071">
        <ele>539</ele>
        <time>2019-04-02T12:36:46Z</time>
      </trkpt>
      <trkpt lat="44.26443" lon="5.98076">
        <ele>540</ele>
        <time>2019-04-02T12:36:47Z</time>
      </trkpt>
      <trkpt lat="44.26445" lon="5.9808">
        <ele>540</ele>
        <time>2019-04-02T12:36:48Z</time>
      </trkpt>
      <trkpt lat="44.26448" lon="5.98085">
        <ele>540</ele>
        <time>2019-04-02T12:36:49Z</time>
      </trkpt>
      <trkpt lat="44.26451" lon="5.9809">
        <ele>540</ele>
        <time>2019-04-02T12:36:50Z</time>
      </trkpt>
      <trkpt lat="44.26453" lon="5.98095">
        <ele>541</ele>
        <time>2019-04-02T12:36:51Z</time>
      </trkpt>
      <trkpt lat="44.26456" lon="5.981">
        <ele>541</ele>
        <time>2019-04-02T12:36:52Z</time>
      </trkpt>
      <trkpt lat="44.26458" lon="5.98105">
        <ele>541</ele>
        <time>2019-04-02T12:36:53Z</time>
      </trkpt>
      <trkpt lat="44.26461" lon="5.9811">
        <ele>541</ele>
        <time>2019-04-02T12:36:54Z</time>
      </trkpt>
      <trkpt lat="44.26464" lon="5.98115">
        <ele>541</ele>
        <time>2019-04-02T12:36:55Z</time>
      </trkpt>
      <trkpt lat="44.26466" lon="5.98121">
        <ele>541</ele>
        <time>2019-04-02T12:36:56Z</time>
      </trkpt>
      <trkpt lat="44.26469" lon="5.98126">
        <ele>542</ele>
        <time>2019-04-02T12:36:57Z</time>
      </trkpt>
      <trkpt lat="44.26471" lon="5.98132">
        <ele>542</ele>
        <time>2019-04-02T12:36:58Z</time>
      </trkpt>
      <trkpt lat="44.26474" lon="5.98138">
        <ele>542</ele>
        <time>2019-04-02T12:36:59Z</time>
      </trkpt>
      <trkpt lat="44.26477" lon="5.98144">
        <ele>542</ele>
        <time>2019-04-02T12:37:00Z</time>
      </trkpt>
      <trkpt lat="44.26479" lon="5.9815">
        <ele>542</ele>
        <time>2019-04-02T12:37:01Z</time>
      </trkpt>
      <trkpt lat="44.26482" lon="5.98156">
        <ele>542</ele>
        <time>2019-04-02T12:37:02Z</time>
      </trkpt>
      <trkpt lat="44.26484" lon="5.98163">
        <ele>542</ele>
        <time>2019-04-02T12:37:03Z</time>
      </trkpt>
      <trkpt lat="44.26486" lon="5.9817">
        <ele>542</ele>
        <time>2019-04-02T12:37:04Z</time>
      </trkpt>
      <trkpt lat="44.26488" lon="5.98177">
        <ele>542</ele>
        <time>2019-04-02T12:37:05Z</time>
      </trkpt>
      <trkpt lat="44.2649" lon="5.98184">
        <ele>542</ele>
        <time>2019-04-02T12:37:06Z</time>
      </trkpt>
      <trkpt lat="44.26492" lon="5.98192">
        <ele>542</ele>
        <time>2019-04-02T12:37:07Z</time>
      </trkpt>
      <trkpt lat="44.26493" lon="5.98199">
        <ele>542</ele>
        <time>2019-04-02T12:37:08Z</time>
      </trkpt>
      <trkpt lat="44.26494" lon="5.98207">
        <ele>542</ele>
        <time>2019-04-02T12:37:09Z</time>
      </trkpt>
      <trkpt lat="44.26495" lon="5.98214">
        <ele>542</ele>
        <time>2019-04-02T12:37:10Z</time>
      </trkpt>
      <trkpt lat="44.26497" lon="5.98222">
        <ele>542</ele>
        <time>2019-04-02T12:37:11Z</time>
      </trkpt>
      <trkpt lat="44.26498" lon="5.98229">
        <ele>543</ele>
        <time>2019-04-02T12:37:12Z</time>
      </trkpt>
      <trkpt lat="44.26499" lon="5.98236">
        <ele>543</ele>
        <time>2019-04-02T12:37:13Z</time>
      </trkpt>
      <trkpt lat="44.265" lon="5.98244">
        <ele>543</ele>
        <time>2019-04-02T12:37:14Z</time>
      </trkpt>
      <trkpt lat="44.26501" lon="5.98251">
        <ele>543</ele>
        <time>2019-04-02T12:37:15Z</time>
      </trkpt>
      <trkpt lat="44.26502" lon="5.98258">
        <ele>543</ele>
        <time>2019-04-02T12:37:16Z</time>
      </trkpt>
      <trkpt lat="44.26503" lon="5.98265">
        <ele>543</ele>
        <time>2019-04-02T12:37:17Z</time>
      </trkpt>
      <trkpt lat="44.26503" lon="5.98272">
        <ele>543</ele>
        <time>2019-04-02T12:37:18Z</time>
      </trkpt>
      <trkpt lat="44.26504" lon="5.98279">
        <ele>543</ele>
        <time>2019-04-02T12:37:19Z</time>
      </trkpt>
      <trkpt lat="44.26505" lon="5.98287">
        <ele>543</ele>
        <time>2019-04-02T12:37:20Z</time>
      </trkpt>
      <trkpt lat="44.26505" lon="5.98294">
        <ele>543</ele>
        <time>2019-04-02T12:37:21Z</time>
      </trkpt>
      <trkpt lat="44.26506" lon="5.98301">
        <ele>543</ele>
        <time>2019-04-02T12:37:22Z</time>
      </trkpt>
      <trkpt lat="44.26506" lon="5.98309">
        <ele>543</ele>
        <time>2019-04-02T12:37:23Z</time>
      </trkpt>
      <trkpt lat="44.26507" lon="5.98316">
        <ele>543</ele>
        <time>2019-04-02T12:37:24Z</time>
      </trkpt>
      <trkpt lat="44.26508" lon="5.98323">
        <ele>543</ele>
        <time>2019-04-02T12:37:25Z</time>
      </trkpt>
      <trkpt lat="44.26509" lon="5.9833">
        <ele>543</ele>
        <time>2019-04-02T12:37:26Z</time>
      </trkpt>
      <trkpt lat="44.2651" lon="5.98337">
        <ele>543</ele>
        <time>2019-04-02T12:37:27Z</time>
      </trkpt>
      <trkpt lat="44.26511" lon="5.98344">
        <ele>543</ele>
        <time>2019-04-02T12:37:28Z</time>
      </trkpt>
      <trkpt lat="44.26513" lon="5.98351">
        <ele>543</ele>
        <time>2019-04-02T12:37:29Z</time>
      </trkpt>
      <trkpt lat="44.26514" lon="5.98358">
        <ele>543</ele>
        <time>2019-04-02T12:37:30Z</time>
      </trkpt>
      <trkpt lat="44.26516" lon="5.98365">
        <ele>543</ele>
        <time>2019-04-02T12:37:31Z</time>
      </trkpt>
      <trkpt lat="44.26517" lon="5.98372">
        <ele>543</ele>
        <time>2019-04-02T12:37:32Z</time>
      </trkpt>
      <trkpt lat="44.26519" lon="5.98379">
        <ele>543</ele>
        <time>2019-04-02T12:37:33Z</time>
      </trkpt>
      <trkpt lat="44.26521" lon="5.98386">
        <ele>544</ele>
        <time>2019-04-02T12:37:34Z</time>
      </trkpt>
      <trkpt lat="44.26523" lon="5.98393">
        <ele>544</ele>
        <time>2019-04-02T12:37:35Z</time>
      </trkpt>
      <trkpt lat="44.26525" lon="5.984">
        <ele>544</ele>
        <time>2019-04-02T12:37:36Z</time>
      </trkpt>
      <trkpt lat="44.26528" lon="5.98407">
        <ele>544</ele>
        <time>2019-04-02T12:37:37Z</time>
      </trkpt>
      <trkpt lat="44.2653" lon="5.98415">
        <ele>544</ele>
        <time>2019-04-02T12:37:38Z</time>
      </trkpt>
      <trkpt lat="44.26533" lon="5.98421">
        <ele>544</ele>
        <time>2019-04-02T12:37:39Z</time>
      </trkpt>
      <trkpt lat="44.26535" lon="5.98428">
        <ele>545</ele>
        <time>2019-04-02T12:37:40Z</time>
      </trkpt>
      <trkpt lat="44.26538" lon="5.98435">
        <ele>545</ele>
        <time>2019-04-02T12:37:41Z</time>
      </trkpt>
      <trkpt lat="44.26541" lon="5.98442">
        <ele>545</ele>
        <time>2019-04-02T12:37:42Z</time>
      </trkpt>
      <trkpt lat="44.26544" lon="5.98449">
        <ele>545</ele>
        <time>2019-04-02T12:37:43Z</time>
      </trkpt>
      <trkpt lat="44.26547" lon="5.98455">
        <ele>545</ele>
        <time>2019-04-02T12:37:44Z</time>
      </trkpt>
      <trkpt lat="44.2655" lon="5.98462">
        <ele>545</ele>
        <time>2019-04-02T12:37:45Z</time>
      </trkpt>
      <trkpt lat="44.26553" lon="5.98468">
        <ele>545</ele>
        <time>2019-04-02T12:37:46Z</time>
      </trkpt>
      <trkpt lat="44.26557" lon="5.98474">
        <ele>545</ele>
        <time>2019-04-02T12:37:47Z</time>
      </trkpt>
      <trkpt lat="44.2656" lon="5.98481">
        <ele>545</ele>
        <time>2019-04-02T12:37:48Z</time>
      </trkpt>
      <trkpt lat="44.26564" lon="5.98487">
        <ele>545</ele>
        <time>2019-04-02T12:37:49Z</time>
      </trkpt>
      <trkpt lat="44.26567" lon="5.98494">
        <ele>545</ele>
        <time>2019-04-02T12:37:50Z</time>
      </trkpt>
      <trkpt lat="44.26572" lon="5.985">
        <ele>545</ele>
        <time>2019-04-02T12:37:51Z</time>
      </trkpt>
      <trkpt lat="44.26576" lon="5.98506">
        <ele>545</ele>
        <time>2019-04-02T12:37:52Z</time>
      </trkpt>
      <trkpt lat="44.2658" lon="5.98512">
        <ele>545</ele>
        <time>2019-04-02T12:37:53Z</time>
      </trkpt>
      <trkpt lat="44.26585" lon="5.98518">
        <ele>545</ele>
        <time>2019-04-02T12:37:54Z</time>
      </trkpt>
      <trkpt lat="44.2659" lon="5.98524">
        <ele>545</ele>
        <time>2019-04-02T12:37:55Z</time>
      </trkpt>
      <trkpt lat="44.26594" lon="5.9853">
        <ele>545</ele>
        <time>2019-04-02T12:37:56Z</time>
      </trkpt>
      <trkpt lat="44.26598" lon="5.98537">
        <ele>545</ele>
        <time>2019-04-02T12:37:57Z</time>
      </trkpt>
      <trkpt lat="44.26603" lon="5.98543">
        <ele>545</ele>
        <time>2019-04-02T12:37:58Z</time>
      </trkpt>
      <trkpt lat="44.26608" lon="5.9855">
        <ele>545</ele>
        <time>2019-04-02T12:37:59Z</time>
      </trkpt>
      <trkpt lat="44.26612" lon="5.98557">
        <ele>545</ele>
        <time>2019-04-02T12:38:00Z</time>
      </trkpt>
      <trkpt lat="44.26616" lon="5.98564">
        <ele>545</ele>
        <time>2019-04-02T12:38:01Z</time>
      </trkpt>
      <trkpt lat="44.2662" lon="5.98571">
        <ele>545</ele>
        <time>2019-04-02T12:38:02Z</time>
      </trkpt>
      <trkpt lat="44.26624" lon="5.98579">
        <ele>545</ele>
        <time>2019-04-02T12:38:03Z</time>
      </trkpt>
      <trkpt lat="44.26627" lon="5.98587">
        <ele>545</ele>
        <time>2019-04-02T12:38:04Z</time>
      </trkpt>
      <trkpt lat="44.2663" lon="5.98595">
        <ele>545</ele>
        <time>2019-04-02T12:38:05Z</time>
      </trkpt>
      <trkpt lat="44.26633" lon="5.98603">
        <ele>545</ele>
        <time>2019-04-02T12:38:06Z</time>
      </trkpt>
      <trkpt lat="44.26636" lon="5.98611">
        <ele>545</ele>
        <time>2019-04-02T12:38:07Z</time>
      </trkpt>
      <trkpt lat="44.26638" lon="5.9862">
        <ele>545</ele>
        <time>2019-04-02T12:38:08Z</time>
      </trkpt>
      <trkpt lat="44.2664" lon="5.98628">
        <ele>545</ele>
        <time>2019-04-02T12:38:09Z</time>
      </trkpt>
      <trkpt lat="44.26643" lon="5.98636">
        <ele>545</ele>
        <time>2019-04-02T12:38:10Z</time>
      </trkpt>
      <trkpt lat="44.26645" lon="5.98645">
        <ele>545</ele>
        <time>2019-04-02T12:38:11Z</time>
      </trkpt>
      <trkpt lat="44.26647" lon="5.98653">
        <ele>545</ele>
        <time>2019-04-02T12:38:12Z</time>
      </trkpt>
      <trkpt lat="44.26649" lon="5.98661">
        <ele>545</ele>
        <time>2019-04-02T12:38:13Z</time>
      </trkpt>
      <trkpt lat="44.26652" lon="5.98669">
        <ele>545</ele>
        <time>2019-04-02T12:38:14Z</time>
      </trkpt>
      <trkpt lat="44.26654" lon="5.98676">
        <ele>545</ele>
        <time>2019-04-02T12:38:15Z</time>
      </trkpt>
      <trkpt lat="44.26656" lon="5.98685">
        <ele>546</ele>
        <time>2019-04-02T12:38:16Z</time>
      </trkpt>
      <trkpt lat="44.26658" lon="5.98692">
        <ele>546</ele>
        <time>2019-04-02T12:38:17Z</time>
      </trkpt>
      <trkpt lat="44.2666" lon="5.987">
        <ele>546</ele>
        <time>2019-04-02T12:38:18Z</time>
      </trkpt>
      <trkpt lat="44.26662" lon="5.98708">
        <ele>546</ele>
        <time>2019-04-02T12:38:19Z</time>
      </trkpt>
      <trkpt lat="44.26664" lon="5.98716">
        <ele>546</ele>
        <time>2019-04-02T12:38:20Z</time>
      </trkpt>
      <trkpt lat="44.26666" lon="5.98724">
        <ele>546</ele>
        <time>2019-04-02T12:38:21Z</time>
      </trkpt>
      <trkpt lat="44.26668" lon="5.98731">
        <ele>546</ele>
        <time>2019-04-02T12:38:22Z</time>
      </trkpt>
      <trkpt lat="44.2667" lon="5.98738">
        <ele>546</ele>
        <time>2019-04-02T12:38:23Z</time>
      </trkpt>
      <trkpt lat="44.26672" lon="5.98746">
        <ele>546</ele>
        <time>2019-04-02T12:38:24Z</time>
      </trkpt>
      <trkpt lat="44.26674" lon="5.98754">
        <ele>546</ele>
        <time>2019-04-02T12:38:25Z</time>
      </trkpt>
      <trkpt lat="44.26676" lon="5.98761">
        <ele>547</ele>
        <time>2019-04-02T12:38:26Z</time>
      </trkpt>
      <trkpt lat="44.26678" lon="5.98769">
        <ele>547</ele>
        <time>2019-04-02T12:38:27Z</time>
      </trkpt>
      <trkpt lat="44.2668" lon="5.98776">
        <ele>547</ele>
        <time>2019-04-02T12:38:28Z</time>
      </trkpt>
      <trkpt lat="44.26682" lon="5.98784">
        <ele>547</ele>
        <time>2019-04-02T12:38:29Z</time>
      </trkpt>
      <trkpt lat="44.26684" lon="5.98791">
        <ele>547</ele>
        <time>2019-04-02T12:38:30Z</time>
      </trkpt>
      <trkpt lat="44.26686" lon="5.98798">
        <ele>547</ele>
        <time>2019-04-02T12:38:31Z</time>
      </trkpt>
      <trkpt lat="44.26689" lon="5.98806">
        <ele>547</ele>
        <time>2019-04-02T12:38:32Z</time>
      </trkpt>
      <trkpt lat="44.26691" lon="5.98813">
        <ele>547</ele>
        <time>2019-04-02T12:38:33Z</time>
      </trkpt>
      <trkpt lat="44.26693" lon="5.9882">
        <ele>547</ele>
        <time>2019-04-02T12:38:34Z</time>
      </trkpt>
      <trkpt lat="44.26695" lon="5.98828">
        <ele>548</ele>
        <time>2019-04-02T12:38:35Z</time>
      </trkpt>
      <trkpt lat="44.26696" lon="5.98835">
        <ele>548</ele>
        <time>2019-04-02T12:38:36Z</time>
      </trkpt>
      <trkpt lat="44.26697" lon="5.98842">
        <ele>548</ele>
        <time>2019-04-02T12:38:37Z</time>
      </trkpt>
      <trkpt lat="44.26697" lon="5.9885">
        <ele>548</ele>
        <time>2019-04-02T12:38:38Z</time>
      </trkpt>
      <trkpt lat="44.26698" lon="5.98857">
        <ele>548</ele>
        <time>2019-04-02T12:38:39Z</time>
      </trkpt>
      <trkpt lat="44.26698" lon="5.98864">
        <ele>549</ele>
        <time>2019-04-02T12:38:40Z</time>
      </trkpt>
      <trkpt lat="44.26699" lon="5.98871">
        <ele>549</ele>
        <time>2019-04-02T12:38:41Z</time>
      </trkpt>
      <trkpt lat="44.267" lon="5.98878">
        <ele>549</ele>
        <time>2019-04-02T12:38:42Z</time>
      </trkpt>
      <trkpt lat="44.26701" lon="5.98885">
        <ele>549</ele>
        <time>2019-04-02T12:38:43Z</time>
      </trkpt>
      <trkpt lat="44.26702" lon="5.98891">
        <ele>550</ele>
        <time>2019-04-02T12:38:44Z</time>
      </trkpt>
      <trkpt lat="44.26703" lon="5.98897">
        <ele>550</ele>
        <time>2019-04-02T12:38:45Z</time>
      </trkpt>
      <trkpt lat="44.26705" lon="5.98903">
        <ele>550</ele>
        <time>2019-04-02T12:38:46Z</time>
      </trkpt>
      <trkpt lat="44.26706" lon="5.9891">
        <ele>551</ele>
        <time>2019-04-02T12:38:47Z</time>
      </trkpt>
      <trkpt lat="44.26707" lon="5.98916">
        <ele>551</ele>
        <time>2019-04-02T12:38:48Z</time>
      </trkpt>
      <trkpt lat="44.26709" lon="5.98923">
        <ele>551</ele>
        <time>2019-04-02T12:38:49Z</time>
      </trkpt>
      <trkpt lat="44.2671" lon="5.9893">
        <ele>551</ele>
        <time>2019-04-02T12:38:50Z</time>
      </trkpt>
      <trkpt lat="44.26712" lon="5.98937">
        <ele>551</ele>
        <time>2019-04-02T12:38:51Z</time>
      </trkpt>
      <trkpt lat="44.26714" lon="5.98944">
        <ele>551</ele>
        <time>2019-04-02T12:38:52Z</time>
      </trkpt>
      <trkpt lat="44.26716" lon="5.98951">
        <ele>551</ele>
        <time>2019-04-02T12:38:53Z</time>
      </trkpt>
      <trkpt lat="44.26718" lon="5.98958">
        <ele>551</ele>
        <time>2019-04-02T12:38:54Z</time>
      </trkpt>
      <trkpt lat="44.2672" lon="5.98965">
        <ele>552</ele>
        <time>2019-04-02T12:38:55Z</time>
      </trkpt>
      <trkpt lat="44.26722" lon="5.98971">
        <ele>552</ele>
        <time>2019-04-02T12:38:56Z</time>
      </trkpt>
      <trkpt lat="44.26723" lon="5.98978">
        <ele>552</ele>
        <time>2019-04-02T12:38:57Z</time>
      </trkpt>
      <trkpt lat="44.26725" lon="5.98984">
        <ele>552</ele>
        <time>2019-04-02T12:38:58Z</time>
      </trkpt>
      <trkpt lat="44.26728" lon="5.9899">
        <ele>553</ele>
        <time>2019-04-02T12:38:59Z</time>
      </trkpt>
      <trkpt lat="44.2673" lon="5.98996">
        <ele>553</ele>
        <time>2019-04-02T12:39:00Z</time>
      </trkpt>
      <trkpt lat="44.26733" lon="5.99003">
        <ele>553</ele>
        <time>2019-04-02T12:39:01Z</time>
      </trkpt>
      <trkpt lat="44.26736" lon="5.99009">
        <ele>553</ele>
        <time>2019-04-02T12:39:02Z</time>
      </trkpt>
      <trkpt lat="44.26739" lon="5.99016">
        <ele>553</ele>
        <time>2019-04-02T12:39:03Z</time>
      </trkpt>
      <trkpt lat="44.26742" lon="5.99023">
        <ele>553</ele>
        <time>2019-04-02T12:39:04Z</time>
      </trkpt>
      <trkpt lat="44.26745" lon="5.9903">
        <ele>553</ele>
        <time>2019-04-02T12:39:05Z</time>
      </trkpt>
      <trkpt lat="44.26749" lon="5.99039">
        <ele>553</ele>
        <time>2019-04-02T12:39:06Z</time>
      </trkpt>
      <trkpt lat="44.26753" lon="5.99047">
        <ele>553</ele>
        <time>2019-04-02T12:39:07Z</time>
      </trkpt>
      <trkpt lat="44.26757" lon="5.99056">
        <ele>553</ele>
        <time>2019-04-02T12:39:08Z</time>
      </trkpt>
      <trkpt lat="44.2676" lon="5.99065">
        <ele>553</ele>
        <time>2019-04-02T12:39:09Z</time>
      </trkpt>
      <trkpt lat="44.26763" lon="5.99074">
        <ele>553</ele>
        <time>2019-04-02T12:39:10Z</time>
      </trkpt>
      <trkpt lat="44.26765" lon="5.99083">
        <ele>553</ele>
        <time>2019-04-02T12:39:11Z</time>
      </trkpt>
      <trkpt lat="44.26767" lon="5.99093">
        <ele>554</ele>
        <time>2019-04-02T12:39:12Z</time>
      </trkpt>
      <trkpt lat="44.2677" lon="5.99102">
        <ele>554</ele>
        <time>2019-04-02T12:39:13Z</time>
      </trkpt>
      <trkpt lat="44.26771" lon="5.99111">
        <ele>554</ele>
        <time>2019-04-02T12:39:14Z</time>
      </trkpt>
      <trkpt lat="44.26772" lon="5.9912">
        <ele>554</ele>
        <time>2019-04-02T12:39:15Z</time>
      </trkpt>
      <trkpt lat="44.26773" lon="5.99129">
        <ele>554</ele>
        <time>2019-04-02T12:39:16Z</time>
      </trkpt>
      <trkpt lat="44.26774" lon="5.99138">
        <ele>555</ele>
        <time>2019-04-02T12:39:17Z</time>
      </trkpt>
      <trkpt lat="44.26774" lon="5.99147">
        <ele>555</ele>
        <time>2019-04-02T12:39:18Z</time>
      </trkpt>
      <trkpt lat="44.26774" lon="5.99155">
        <ele>556</ele>
        <time>2019-04-02T12:39:19Z</time>
      </trkpt>
      <trkpt lat="44.26774" lon="5.99163">
        <ele>556</ele>
        <time>2019-04-02T12:39:20Z</time>
      </trkpt>
      <trkpt lat="44.26773" lon="5.99171">
        <ele>556</ele>
        <time>2019-04-02T12:39:21Z</time>
      </trkpt>
      <trkpt lat="44.26773" lon="5.99179">
        <ele>557</ele>
        <time>2019-04-02T12:39:22Z</time>
      </trkpt>
      <trkpt lat="44.26772" lon="5.99186">
        <ele>557</ele>
        <time>2019-04-02T12:39:23Z</time>
      </trkpt>
      <trkpt lat="44.26772" lon="5.99193">
        <ele>558</ele>
        <time>2019-04-02T12:39:24Z</time>
      </trkpt>
      <trkpt lat="44.26771" lon="5.99201">
        <ele>558</ele>
        <time>2019-04-02T12:39:25Z</time>
      </trkpt>
      <trkpt lat="44.26771" lon="5.99208">
        <ele>559</ele>
        <time>2019-04-02T12:39:26Z</time>
      </trkpt>
      <trkpt lat="44.2677" lon="5.99216">
        <ele>559</ele>
        <time>2019-04-02T12:39:27Z</time>
      </trkpt>
      <trkpt lat="44.2677" lon="5.99223">
        <ele>559</ele>
        <time>2019-04-02T12:39:28Z</time>
      </trkpt>
      <trkpt lat="44.2677" lon="5.99231">
        <ele>560</ele>
        <time>2019-04-02T12:39:29Z</time>
      </trkpt>
      <trkpt lat="44.2677" lon="5.99238">
        <ele>560</ele>
        <time>2019-04-02T12:39:30Z</time>
      </trkpt>
      <trkpt lat="44.2677" lon="5.99245">
        <ele>560</ele>
        <time>2019-04-02T12:39:31Z</time>
      </trkpt>
      <trkpt lat="44.26769" lon="5.99252">
        <ele>560</ele>
        <time>2019-04-02T12:39:32Z</time>
      </trkpt>
      <trkpt lat="44.26769" lon="5.9926">
        <ele>561</ele>
        <time>2019-04-02T12:39:33Z</time>
      </trkpt>
      <trkpt lat="44.26769" lon="5.99267">
        <ele>561</ele>
        <time>2019-04-02T12:39:34Z</time>
      </trkpt>
      <trkpt lat="44.26768" lon="5.99274">
        <ele>561</ele>
        <time>2019-04-02T12:39:35Z</time>
      </trkpt>
      <trkpt lat="44.26767" lon="5.99281">
        <ele>561</ele>
        <time>2019-04-02T12:39:36Z</time>
      </trkpt>
      <trkpt lat="44.26767" lon="5.99287">
        <ele>562</ele>
        <time>2019-04-02T12:39:37Z</time>
      </trkpt>
      <trkpt lat="44.26767" lon="5.99294">
        <ele>562</ele>
        <time>2019-04-02T12:39:38Z</time>
      </trkpt>
      <trkpt lat="44.26766" lon="5.99301">
        <ele>562</ele>
        <time>2019-04-02T12:39:39Z</time>
      </trkpt>
      <trkpt lat="44.26766" lon="5.99308">
        <ele>563</ele>
        <time>2019-04-02T12:39:40Z</time>
      </trkpt>
      <trkpt lat="44.26765" lon="5.99315">
        <ele>563</ele>
        <time>2019-04-02T12:39:41Z</time>
      </trkpt>
      <trkpt lat="44.26765" lon="5.99322">
        <ele>563</ele>
        <time>2019-04-02T12:39:42Z</time>
      </trkpt>
      <trkpt lat="44.26764" lon="5.99328">
        <ele>563</ele>
        <time>2019-04-02T12:39:43Z</time>
      </trkpt>
      <trkpt lat="44.26763" lon="5.99335">
        <ele>564</ele>
        <time>2019-04-02T12:39:44Z</time>
      </trkpt>
      <trkpt lat="44.26762" lon="5.99341">
        <ele>564</ele>
        <time>2019-04-02T12:39:45Z</time>
      </trkpt>
      <trkpt lat="44.26762" lon="5.99348">
        <ele>564</ele>
        <time>2019-04-02T12:39:46Z</time>
      </trkpt>
      <trkpt lat="44.26762" lon="5.99355">
        <ele>564</ele>
        <time>2019-04-02T12:39:47Z</time>
      </trkpt>
      <trkpt lat="44.26762" lon="5.99363">
        <ele>564</ele>
        <time>2019-04-02T12:39:48Z</time>
      </trkpt>
      <trkpt lat="44.26762" lon="5.99369">
        <ele>564</ele>
        <time>2019-04-02T12:39:49Z</time>
      </trkpt>
      <trkpt lat="44.26762" lon="5.99377">
        <ele>564</ele>
        <time>2019-04-02T12:39:50Z</time>
      </trkpt>
      <trkpt lat="44.26762" lon="5.99384">
        <ele>564</ele>
        <time>2019-04-02T12:39:51Z</time>
      </trkpt>
      <trkpt lat="44.26762" lon="5.9939">
        <ele>564</ele>
        <time>2019-04-02T12:39:52Z</time>
      </trkpt>
      <trkpt lat="44.26762" lon="5.99397">
        <ele>564</ele>
        <time>2019-04-02T12:39:53Z</time>
      </trkpt>
      <trkpt lat="44.26762" lon="5.99404">
        <ele>565</ele>
        <time>2019-04-02T12:39:54Z</time>
      </trkpt>
      <trkpt lat="44.26762" lon="5.9941">
        <ele>565</ele>
        <time>2019-04-02T12:39:55Z</time>
      </trkpt>
      <trkpt lat="44.26763" lon="5.99417">
        <ele>565</ele>
        <time>2019-04-02T12:39:56Z</time>
      </trkpt>
      <trkpt lat="44.26764" lon="5.99423">
        <ele>565</ele>
        <time>2019-04-02T12:39:57Z</time>
      </trkpt>
      <trkpt lat="44.26764" lon="5.9943">
        <ele>565</ele>
        <time>2019-04-02T12:39:58Z</time>
      </trkpt>
      <trkpt lat="44.26765" lon="5.99437">
        <ele>565</ele>
        <time>2019-04-02T12:39:59Z</time>
      </trkpt>
      <trkpt lat="44.26765" lon="5.99443">
        <ele>565</ele>
        <time>2019-04-02T12:40:00Z</time>
      </trkpt>
      <trkpt lat="44.26766" lon="5.9945">
        <ele>565</ele>
        <time>2019-04-02T12:40:01Z</time>
      </trkpt>
      <trkpt lat="44.26767" lon="5.99457">
        <ele>565</ele>
        <time>2019-04-02T12:40:02Z</time>
      </trkpt>
      <trkpt lat="44.26768" lon="5.99463">
        <ele>565</ele>
        <time>2019-04-02T12:40:03Z</time>
      </trkpt>
      <trkpt lat="44.26769" lon="5.9947">
        <ele>565</ele>
        <time>2019-04-02T12:40:04Z</time>
      </trkpt>
      <trkpt lat="44.2677" lon="5.99477">
        <ele>565</ele>
        <time>2019-04-02T12:40:05Z</time>
      </trkpt>
      <trkpt lat="44.26771" lon="5.99483">
        <ele>566</ele>
        <time>2019-04-02T12:40:06Z</time>
      </trkpt>
      <trkpt lat="44.26772" lon="5.9949">
        <ele>566</ele>
        <time>2019-04-02T12:40:07Z</time>
      </trkpt>
      <trkpt lat="44.26773" lon="5.99498">
        <ele>566</ele>
        <time>2019-04-02T12:40:08Z</time>
      </trkpt>
      <trkpt lat="44.26774" lon="5.99505">
        <ele>566</ele>
        <time>2019-04-02T12:40:09Z</time>
      </trkpt>
      <trkpt lat="44.26774" lon="5.99512">
        <ele>567</ele>
        <time>2019-04-02T12:40:10Z</time>
      </trkpt>
      <trkpt lat="44.26775" lon="5.99519">
        <ele>567</ele>
        <time>2019-04-02T12:40:11Z</time>
      </trkpt>
      <trkpt lat="44.26775" lon="5.99526">
        <ele>567</ele>
        <time>2019-04-02T12:40:12Z</time>
      </trkpt>
      <trkpt lat="44.26775" lon="5.99533">
        <ele>567</ele>
        <time>2019-04-02T12:40:13Z</time>
      </trkpt>
      <trkpt lat="44.26775" lon="5.9954">
        <ele>568</ele>
        <time>2019-04-02T12:40:14Z</time>
      </trkpt>
      <trkpt lat="44.26775" lon="5.99548">
        <ele>568</ele>
        <time>2019-04-02T12:40:15Z</time>
      </trkpt>
      <trkpt lat="44.26774" lon="5.99555">
        <ele>568</ele>
        <time>2019-04-02T12:40:16Z</time>
      </trkpt>
      <trkpt lat="44.26774" lon="5.99562">
        <ele>568</ele>
        <time>2019-04-02T12:40:17Z</time>
      </trkpt>
      <trkpt lat="44.26774" lon="5.99569">
        <ele>568</ele>
        <time>2019-04-02T12:40:18Z</time>
      </trkpt>
      <trkpt lat="44.26773" lon="5.99576">
        <ele>569</ele>
        <time>2019-04-02T12:40:19Z</time>
      </trkpt>
      <trkpt lat="44.26773" lon="5.99582">
        <ele>569</ele>
        <time>2019-04-02T12:40:20Z</time>
      </trkpt>
      <trkpt lat="44.26772" lon="5.99589">
        <ele>569</ele>
        <time>2019-04-02T12:40:21Z</time>
      </trkpt>
      <trkpt lat="44.26772" lon="5.99596">
        <ele>569</ele>
        <time>2019-04-02T12:40:22Z</time>
      </trkpt>
      <trkpt lat="44.26771" lon="5.99603">
        <ele>569</ele>
        <time>2019-04-02T12:40:23Z</time>
      </trkpt>
      <trkpt lat="44.26771" lon="5.99609">
        <ele>569</ele>
        <time>2019-04-02T12:40:24Z</time>
      </trkpt>
      <trkpt lat="44.26771" lon="5.99616">
        <ele>570</ele>
        <time>2019-04-02T12:40:25Z</time>
      </trkpt>
      <trkpt lat="44.26771" lon="5.99623">
        <ele>570</ele>
        <time>2019-04-02T12:40:26Z</time>
      </trkpt>
      <trkpt lat="44.26771" lon="5.9963">
        <ele>570</ele>
        <time>2019-04-02T12:40:27Z</time>
      </trkpt>
      <trkpt lat="44.26771" lon="5.99638">
        <ele>570</ele>
        <time>2019-04-02T12:40:28Z</time>
      </trkpt>
      <trkpt lat="44.26771" lon="5.99645">
        <ele>570</ele>
        <time>2019-04-02T12:40:29Z</time>
      </trkpt>
      <trkpt lat="44.26771" lon="5.99652">
        <ele>570</ele>
        <time>2019-04-02T12:40:30Z</time>
      </trkpt>
      <trkpt lat="44.26771" lon="5.99659">
        <ele>570</ele>
        <time>2019-04-02T12:40:31Z</time>
      </trkpt>
      <trkpt lat="44.26771" lon="5.99666">
        <ele>570</ele>
        <time>2019-04-02T12:40:32Z</time>
      </trkpt>
      <trkpt lat="44.2677" lon="5.99673">
        <ele>570</ele>
        <time>2019-04-02T12:40:33Z</time>
      </trkpt>
      <trkpt lat="44.26771" lon="5.9968">
        <ele>570</ele>
        <time>2019-04-02T12:40:34Z</time>
      </trkpt>
      <trkpt lat="44.26771" lon="5.99687">
        <ele>570</ele>
        <time>2019-04-02T12:40:35Z</time>
      </trkpt>
      <trkpt lat="44.26772" lon="5.99694">
        <ele>570</ele>
        <time>2019-04-02T12:40:36Z</time>
      </trkpt>
      <trkpt lat="44.26773" lon="5.99701">
        <ele>570</ele>
        <time>2019-04-02T12:40:37Z</time>
      </trkpt>
      <trkpt lat="44.26774" lon="5.99708">
        <ele>570</ele>
        <time>2019-04-02T12:40:38Z</time>
      </trkpt>
      <trkpt lat="44.26775" lon="5.99715">
        <ele>570</ele>
        <time>2019-04-02T12:40:39Z</time>
      </trkpt>
      <trkpt lat="44.26777" lon="5.99723">
        <ele>570</ele>
        <time>2019-04-02T12:40:40Z</time>
      </trkpt>
      <trkpt lat="44.26778" lon="5.9973">
        <ele>570</ele>
        <time>2019-04-02T12:40:41Z</time>
      </trkpt>
      <trkpt lat="44.26779" lon="5.99737">
        <ele>570</ele>
        <time>2019-04-02T12:40:42Z</time>
      </trkpt>
      <trkpt lat="44.26781" lon="5.99743">
        <ele>570</ele>
        <time>2019-04-02T12:40:43Z</time>
      </trkpt>
      <trkpt lat="44.26783" lon="5.9975">
        <ele>571</ele>
        <time>2019-04-02T12:40:44Z</time>
      </trkpt>
      <trkpt lat="44.26785" lon="5.99755">
        <ele>571</ele>
        <time>2019-04-02T12:40:45Z</time>
      </trkpt>
      <trkpt lat="44.26787" lon="5.99761">
        <ele>571</ele>
        <time>2019-04-02T12:40:46Z</time>
      </trkpt>
      <trkpt lat="44.26789" lon="5.99767">
        <ele>571</ele>
        <time>2019-04-02T12:40:47Z</time>
      </trkpt>
      <trkpt lat="44.26791" lon="5.99773">
        <ele>571</ele>
        <time>2019-04-02T12:40:48Z</time>
      </trkpt>
      <trkpt lat="44.26793" lon="5.99779">
        <ele>571</ele>
        <time>2019-04-02T12:40:49Z</time>
      </trkpt>
      <trkpt lat="44.26795" lon="5.99786">
        <ele>571</ele>
        <time>2019-04-02T12:40:50Z</time>
      </trkpt>
      <trkpt lat="44.26797" lon="5.99792">
        <ele>572</ele>
        <time>2019-04-02T12:40:51Z</time>
      </trkpt>
      <trkpt lat="44.26799" lon="5.99798">
        <ele>572</ele>
        <time>2019-04-02T12:40:52Z</time>
      </trkpt>
      <trkpt lat="44.26801" lon="5.99805">
        <ele>572</ele>
        <time>2019-04-02T12:40:53Z</time>
      </trkpt>
      <trkpt lat="44.26804" lon="5.99811">
        <ele>572</ele>
        <time>2019-04-02T12:40:54Z</time>
      </trkpt>
      <trkpt lat="44.26805" lon="5.99817">
        <ele>572</ele>
        <time>2019-04-02T12:40:55Z</time>
      </trkpt>
      <trkpt lat="44.26808" lon="5.99824">
        <ele>572</ele>
        <time>2019-04-02T12:40:56Z</time>
      </trkpt>
      <trkpt lat="44.26809" lon="5.9983">
        <ele>572</ele>
        <time>2019-04-02T12:40:57Z</time>
      </trkpt>
      <trkpt lat="44.26811" lon="5.99837">
        <ele>572</ele>
        <time>2019-04-02T12:40:58Z</time>
      </trkpt>
      <trkpt lat="44.26812" lon="5.99844">
        <ele>572</ele>
        <time>2019-04-02T12:40:59Z</time>
      </trkpt>
      <trkpt lat="44.26813" lon="5.99851">
        <ele>572</ele>
        <time>2019-04-02T12:41:00Z</time>
      </trkpt>
      <trkpt lat="44.26814" lon="5.99858">
        <ele>573</ele>
        <time>2019-04-02T12:41:01Z</time>
      </trkpt>
      <trkpt lat="44.26815" lon="5.99864">
        <ele>573</ele>
        <time>2019-04-02T12:41:02Z</time>
      </trkpt>
      <trkpt lat="44.26815" lon="5.99871">
        <ele>573</ele>
        <time>2019-04-02T12:41:03Z</time>
      </trkpt>
      <trkpt lat="44.26816" lon="5.99878">
        <ele>573</ele>
        <time>2019-04-02T12:41:04Z</time>
      </trkpt>
      <trkpt lat="44.26817" lon="5.99884">
        <ele>574</ele>
        <time>2019-04-02T12:41:05Z</time>
      </trkpt>
      <trkpt lat="44.26818" lon="5.9989">
        <ele>574</ele>
        <time>2019-04-02T12:41:06Z</time>
      </trkpt>
      <trkpt lat="44.26819" lon="5.99897">
        <ele>574</ele>
        <time>2019-04-02T12:41:07Z</time>
      </trkpt>
      <trkpt lat="44.2682" lon="5.99904">
        <ele>574</ele>
        <time>2019-04-02T12:41:08Z</time>
      </trkpt>
      <trkpt lat="44.26821" lon="5.9991">
        <ele>574</ele>
        <time>2019-04-02T12:41:09Z</time>
      </trkpt>
      <trkpt lat="44.26823" lon="5.99917">
        <ele>574</ele>
        <time>2019-04-02T12:41:10Z</time>
      </trkpt>
      <trkpt lat="44.26824" lon="5.99923">
        <ele>574</ele>
        <time>2019-04-02T12:41:11Z</time>
      </trkpt>
      <trkpt lat="44.26825" lon="5.99929">
        <ele>575</ele>
        <time>2019-04-02T12:41:12Z</time>
      </trkpt>
      <trkpt lat="44.26827" lon="5.99935">
        <ele>575</ele>
        <time>2019-04-02T12:41:13Z</time>
      </trkpt>
      <trkpt lat="44.26828" lon="5.99942">
        <ele>575</ele>
        <time>2019-04-02T12:41:14Z</time>
      </trkpt>
      <trkpt lat="44.26829" lon="5.99949">
        <ele>575</ele>
        <time>2019-04-02T12:41:15Z</time>
      </trkpt>
      <trkpt lat="44.2683" lon="5.99955">
        <ele>575</ele>
        <time>2019-04-02T12:41:16Z</time>
      </trkpt>
      <trkpt lat="44.26831" lon="5.99962">
        <ele>575</ele>
        <time>2019-04-02T12:41:17Z</time>
      </trkpt>
      <trkpt lat="44.26832" lon="5.99969">
        <ele>575</ele>
        <time>2019-04-02T12:41:18Z</time>
      </trkpt>
      <trkpt lat="44.26833" lon="5.99975">
        <ele>575</ele>
        <time>2019-04-02T12:41:19Z</time>
      </trkpt>
      <trkpt lat="44.26834" lon="5.99981">
        <ele>575</ele>
        <time>2019-04-02T12:41:20Z</time>
      </trkpt>
      <trkpt lat="44.26836" lon="5.99988">
        <ele>575</ele>
        <time>2019-04-02T12:41:21Z</time>
      </trkpt>
      <trkpt lat="44.26836" lon="5.99994">
        <ele>575</ele>
        <time>2019-04-02T12:41:22Z</time>
      </trkpt>
      <trkpt lat="44.26837" lon="6">
        <ele>575</ele>
        <time>2019-04-02T12:41:23Z</time>
      </trkpt>
      <trkpt lat="44.26838" lon="6.00006">
        <ele>575</ele>
        <time>2019-04-02T12:41:24Z</time>
      </trkpt>
      <trkpt lat="44.26839" lon="6.00013">
        <ele>575</ele>
        <time>2019-04-02T12:41:25Z</time>
      </trkpt>
      <trkpt lat="44.26841" lon="6.00019">
        <ele>575</ele>
        <time>2019-04-02T12:41:26Z</time>
      </trkpt>
      <trkpt lat="44.26841" lon="6.00025">
        <ele>575</ele>
        <time>2019-04-02T12:41:27Z</time>
      </trkpt>
      <trkpt lat="44.26842" lon="6.00032">
        <ele>575</ele>
        <time>2019-04-02T12:41:28Z</time>
      </trkpt>
      <trkpt lat="44.26842" lon="6.00038">
        <ele>575</ele>
        <time>2019-04-02T12:41:29Z</time>
      </trkpt>
      <trkpt lat="44.26843" lon="6.00045">
        <ele>575</ele>
        <time>2019-04-02T12:41:30Z</time>
      </trkpt>
      <trkpt lat="44.26843" lon="6.00052">
        <ele>575</ele>
        <time>2019-04-02T12:41:31Z</time>
      </trkpt>
      <trkpt lat="44.26843" lon="6.00059">
        <ele>575</ele>
        <time>2019-04-02T12:41:32Z</time>
      </trkpt>
      <trkpt lat="44.26844" lon="6.00065">
        <ele>575</ele>
        <time>2019-04-02T12:41:33Z</time>
      </trkpt>
      <trkpt lat="44.26845" lon="6.00072">
        <ele>575</ele>
        <time>2019-04-02T12:41:34Z</time>
      </trkpt>
      <trkpt lat="44.26846" lon="6.00079">
        <ele>575</ele>
        <time>2019-04-02T12:41:35Z</time>
      </trkpt>
      <trkpt lat="44.26847" lon="6.00086">
        <ele>575</ele>
        <time>2019-04-02T12:41:36Z</time>
      </trkpt>
      <trkpt lat="44.26847" lon="6.00093">
        <ele>575</ele>
        <time>2019-04-02T12:41:37Z</time>
      </trkpt>
      <trkpt lat="44.26848" lon="6.00101">
        <ele>575</ele>
        <time>2019-04-02T12:41:38Z</time>
      </trkpt>
      <trkpt lat="44.26849" lon="6.00108">
        <ele>575</ele>
        <time>2019-04-02T12:41:39Z</time>
      </trkpt>
      <trkpt lat="44.2685" lon="6.00115">
        <ele>575</ele>
        <time>2019-04-02T12:41:40Z</time>
      </trkpt>
      <trkpt lat="44.26852" lon="6.00122">
        <ele>575</ele>
        <time>2019-04-02T12:41:41Z</time>
      </trkpt>
      <trkpt lat="44.26853" lon="6.00129">
        <ele>576</ele>
        <time>2019-04-02T12:41:42Z</time>
      </trkpt>
      <trkpt lat="44.26855" lon="6.00136">
        <ele>576</ele>
        <time>2019-04-02T12:41:43Z</time>
      </trkpt>
      <trkpt lat="44.26857" lon="6.00143">
        <ele>576</ele>
        <time>2019-04-02T12:41:44Z</time>
      </trkpt>
      <trkpt lat="44.26859" lon="6.00149">
        <ele>576</ele>
        <time>2019-04-02T12:41:45Z</time>
      </trkpt>
      <trkpt lat="44.26861" lon="6.00156">
        <ele>576</ele>
        <time>2019-04-02T12:41:46Z</time>
      </trkpt>
      <trkpt lat="44.26862" lon="6.00162">
        <ele>577</ele>
        <time>2019-04-02T12:41:47Z</time>
      </trkpt>
      <trkpt lat="44.26863" lon="6.00169">
        <ele>577</ele>
        <time>2019-04-02T12:41:48Z</time>
      </trkpt>
      <trkpt lat="44.26865" lon="6.00175">
        <ele>577</ele>
        <time>2019-04-02T12:41:49Z</time>
      </trkpt>
      <trkpt lat="44.26866" lon="6.00181">
        <ele>577</ele>
        <time>2019-04-02T12:41:50Z</time>
      </trkpt>
      <trkpt lat="44.26867" lon="6.00188">
        <ele>578</ele>
        <time>2019-04-02T12:41:51Z</time>
      </trkpt>
      <trkpt lat="44.26869" lon="6.00194">
        <ele>578</ele>
        <time>2019-04-02T12:41:52Z</time>
      </trkpt>
      <trkpt lat="44.2687" lon="6.002">
        <ele>578</ele>
        <time>2019-04-02T12:41:53Z</time>
      </trkpt>
      <trkpt lat="44.26872" lon="6.00206">
        <ele>578</ele>
        <time>2019-04-02T12:41:54Z</time>
      </trkpt>
      <trkpt lat="44.26873" lon="6.00212">
        <ele>579</ele>
        <time>2019-04-02T12:41:55Z</time>
      </trkpt>
      <trkpt lat="44.26875" lon="6.00219">
        <ele>579</ele>
        <time>2019-04-02T12:41:56Z</time>
      </trkpt>
      <trkpt lat="44.26876" lon="6.00225">
        <ele>579</ele>
        <time>2019-04-02T12:41:57Z</time>
      </trkpt>
      <trkpt lat="44.26877" lon="6.00232">
        <ele>579</ele>
        <time>2019-04-02T12:41:58Z</time>
      </trkpt>
      <trkpt lat="44.26878" lon="6.00239">
        <ele>579</ele>
        <time>2019-04-02T12:41:59Z</time>
      </trkpt>
      <trkpt lat="44.2688" lon="6.00245">
        <ele>579</ele>
        <time>2019-04-02T12:42:00Z</time>
      </trkpt>
      <trkpt lat="44.26881" lon="6.00251">
        <ele>579</ele>
        <time>2019-04-02T12:42:01Z</time>
      </trkpt>
      <trkpt lat="44.26882" lon="6.00258">
        <ele>579</ele>
        <time>2019-04-02T12:42:02Z</time>
      </trkpt>
      <trkpt lat="44.26884" lon="6.00264">
        <ele>579</ele>
        <time>2019-04-02T12:42:03Z</time>
      </trkpt>
      <trkpt lat="44.26885" lon="6.00271">
        <ele>579</ele>
        <time>2019-04-02T12:42:04Z</time>
      </trkpt>
      <trkpt lat="44.26886" lon="6.00278">
        <ele>579</ele>
        <time>2019-04-02T12:42:05Z</time>
      </trkpt>
      <trkpt lat="44.26888" lon="6.00285">
        <ele>579</ele>
        <time>2019-04-02T12:42:06Z</time>
      </trkpt>
      <trkpt lat="44.26889" lon="6.00292">
        <ele>579</ele>
        <time>2019-04-02T12:42:07Z</time>
      </trkpt>
      <trkpt lat="44.26891" lon="6.003">
        <ele>579</ele>
        <time>2019-04-02T12:42:08Z</time>
      </trkpt>
      <trkpt lat="44.26891" lon="6.00307">
        <ele>579</ele>
        <time>2019-04-02T12:42:09Z</time>
      </trkpt>
      <trkpt lat="44.26892" lon="6.00314">
        <ele>579</ele>
        <time>2019-04-02T12:42:10Z</time>
      </trkpt>
      <trkpt lat="44.26892" lon="6.00322">
        <ele>579</ele>
        <time>2019-04-02T12:42:11Z</time>
      </trkpt>
      <trkpt lat="44.26892" lon="6.00329">
        <ele>579</ele>
        <time>2019-04-02T12:42:12Z</time>
      </trkpt>
      <trkpt lat="44.26891" lon="6.00337">
        <ele>579</ele>
        <time>2019-04-02T12:42:13Z</time>
      </trkpt>
      <trkpt lat="44.26891" lon="6.00345">
        <ele>579</ele>
        <time>2019-04-02T12:42:14Z</time>
      </trkpt>
      <trkpt lat="44.26891" lon="6.00352">
        <ele>579</ele>
        <time>2019-04-02T12:42:15Z</time>
      </trkpt>
      <trkpt lat="44.26891" lon="6.0036">
        <ele>579</ele>
        <time>2019-04-02T12:42:16Z</time>
      </trkpt>
      <trkpt lat="44.26891" lon="6.00367">
        <ele>579</ele>
        <time>2019-04-02T12:42:17Z</time>
      </trkpt>
      <trkpt lat="44.26891" lon="6.00374">
        <ele>579</ele>
        <time>2019-04-02T12:42:18Z</time>
      </trkpt>
      <trkpt lat="44.26892" lon="6.00381">
        <ele>579</ele>
        <time>2019-04-02T12:42:19Z</time>
      </trkpt>
      <trkpt lat="44.26892" lon="6.00388">
        <ele>579</ele>
        <time>2019-04-02T12:42:20Z</time>
      </trkpt>
      <trkpt lat="44.26893" lon="6.00396">
        <ele>579</ele>
        <time>2019-04-02T12:42:21Z</time>
      </trkpt>
      <trkpt lat="44.26894" lon="6.00403">
        <ele>579</ele>
        <time>2019-04-02T12:42:22Z</time>
      </trkpt>
      <trkpt lat="44.26895" lon="6.0041">
        <ele>579</ele>
        <time>2019-04-02T12:42:23Z</time>
      </trkpt>
      <trkpt lat="44.26896" lon="6.00417">
        <ele>579</ele>
        <time>2019-04-02T12:42:24Z</time>
      </trkpt>
      <trkpt lat="44.26897" lon="6.00424">
        <ele>579</ele>
        <time>2019-04-02T12:42:25Z</time>
      </trkpt>
      <trkpt lat="44.26899" lon="6.00431">
        <ele>579</ele>
        <time>2019-04-02T12:42:26Z</time>
      </trkpt>
      <trkpt lat="44.26901" lon="6.00438">
        <ele>579</ele>
        <time>2019-04-02T12:42:27Z</time>
      </trkpt>
      <trkpt lat="44.26902" lon="6.00446">
        <ele>579</ele>
        <time>2019-04-02T12:42:28Z</time>
      </trkpt>
      <trkpt lat="44.26904" lon="6.00454">
        <ele>579</ele>
        <time>2019-04-02T12:42:29Z</time>
      </trkpt>
      <trkpt lat="44.26905" lon="6.00462">
        <ele>579</ele>
        <time>2019-04-02T12:42:30Z</time>
      </trkpt>
      <trkpt lat="44.26908" lon="6.0047">
        <ele>579</ele>
        <time>2019-04-02T12:42:31Z</time>
      </trkpt>
      <trkpt lat="44.26913" lon="6.00477">
        <ele>579</ele>
        <time>2019-04-02T12:42:32Z</time>
      </trkpt>
      <trkpt lat="44.26919" lon="6.00482">
        <ele>579</ele>
        <time>2019-04-02T12:42:33Z</time>
      </trkpt>
      <trkpt lat="44.26926" lon="6.00485">
        <ele>579</ele>
        <time>2019-04-02T12:42:34Z</time>
      </trkpt>
      <trkpt lat="44.26933" lon="6.00487">
        <ele>579</ele>
        <time>2019-04-02T12:42:35Z</time>
      </trkpt>
      <trkpt lat="44.26941" lon="6.00488">
        <ele>579</ele>
        <time>2019-04-02T12:42:36Z</time>
      </trkpt>
      <trkpt lat="44.26949" lon="6.0049">
        <ele>579</ele>
        <time>2019-04-02T12:42:37Z</time>
      </trkpt>
      <trkpt lat="44.26958" lon="6.00493">
        <ele>579</ele>
        <time>2019-04-02T12:42:38Z</time>
      </trkpt>
      <trkpt lat="44.26966" lon="6.00497">
        <ele>579</ele>
        <time>2019-04-02T12:42:39Z</time>
      </trkpt>
      <trkpt lat="44.26975" lon="6.00501">
        <ele>578</ele>
        <time>2019-04-02T12:42:40Z</time>
      </trkpt>
      <trkpt lat="44.26984" lon="6.00505">
        <ele>578</ele>
        <time>2019-04-02T12:42:41Z</time>
      </trkpt>
      <trkpt lat="44.26993" lon="6.0051">
        <ele>577</ele>
        <time>2019-04-02T12:42:42Z</time>
      </trkpt>
      <trkpt lat="44.27002" lon="6.00514">
        <ele>576</ele>
        <time>2019-04-02T12:42:43Z</time>
      </trkpt>
      <trkpt lat="44.27011" lon="6.00519">
        <ele>575</ele>
        <time>2019-04-02T12:42:44Z</time>
      </trkpt>
      <trkpt lat="44.2702" lon="6.00526">
        <ele>574</ele>
        <time>2019-04-02T12:42:45Z</time>
      </trkpt>
      <trkpt lat="44.27027" lon="6.00533">
        <ele>573</ele>
        <time>2019-04-02T12:42:46Z</time>
      </trkpt>
      <trkpt lat="44.27034" lon="6.0054">
        <ele>572</ele>
        <time>2019-04-02T12:42:47Z</time>
      </trkpt>
      <trkpt lat="44.27042" lon="6.00548">
        <ele>571</ele>
        <time>2019-04-02T12:42:48Z</time>
      </trkpt>
      <trkpt lat="44.2705" lon="6.00555">
        <ele>570</ele>
        <time>2019-04-02T12:42:49Z</time>
      </trkpt>
      <trkpt lat="44.27057" lon="6.00562">
        <ele>569</ele>
        <time>2019-04-02T12:42:50Z</time>
      </trkpt>
      <trkpt lat="44.27065" lon="6.00569">
        <ele>569</ele>
        <time>2019-04-02T12:42:51Z</time>
      </trkpt>
      <trkpt lat="44.27073" lon="6.00576">
        <ele>568</ele>
        <time>2019-04-02T12:42:52Z</time>
      </trkpt>
      <trkpt lat="44.27082" lon="6.00581">
        <ele>567</ele>
        <time>2019-04-02T12:42:53Z</time>
      </trkpt>
      <trkpt lat="44.27091" lon="6.00586">
        <ele>566</ele>
        <time>2019-04-02T12:42:54Z</time>
      </trkpt>
      <trkpt lat="44.27102" lon="6.00586">
        <ele>566</ele>
        <time>2019-04-02T12:42:55Z</time>
      </trkpt>
      <trkpt lat="44.27112" lon="6.00587">
        <ele>565</ele>
        <time>2019-04-02T12:42:56Z</time>
      </trkpt>
      <trkpt lat="44.27121" lon="6.00589">
        <ele>564</ele>
        <time>2019-04-02T12:42:57Z</time>
      </trkpt>
      <trkpt lat="44.2713" lon="6.00593">
        <ele>563</ele>
        <time>2019-04-02T12:42:58Z</time>
      </trkpt>
      <trkpt lat="44.27137" lon="6.00599">
        <ele>562</ele>
        <time>2019-04-02T12:42:59Z</time>
      </trkpt>
      <trkpt lat="44.27145" lon="6.00608">
        <ele>561</ele>
        <time>2019-04-02T12:43:00Z</time>
      </trkpt>
      <trkpt lat="44.2715" lon="6.00617">
        <ele>561</ele>
        <time>2019-04-02T12:43:01Z</time>
      </trkpt>
      <trkpt lat="44.27156" lon="6.00626">
        <ele>561</ele>
        <time>2019-04-02T12:43:02Z</time>
      </trkpt>
      <trkpt lat="44.27161" lon="6.00635">
        <ele>561</ele>
        <time>2019-04-02T12:43:03Z</time>
      </trkpt>
      <trkpt lat="44.27166" lon="6.00645">
        <ele>561</ele>
        <time>2019-04-02T12:43:04Z</time>
      </trkpt>
      <trkpt lat="44.27171" lon="6.00655">
        <ele>561</ele>
        <time>2019-04-02T12:43:05Z</time>
      </trkpt>
      <trkpt lat="44.27175" lon="6.00665">
        <ele>561</ele>
        <time>2019-04-02T12:43:06Z</time>
      </trkpt>
      <trkpt lat="44.27179" lon="6.00675">
        <ele>561</ele>
        <time>2019-04-02T12:43:07Z</time>
      </trkpt>
      <trkpt lat="44.27181" lon="6.00686">
        <ele>561</ele>
        <time>2019-04-02T12:43:08Z</time>
      </trkpt>
      <trkpt lat="44.27182" lon="6.00697">
        <ele>561</ele>
        <time>2019-04-02T12:43:09Z</time>
      </trkpt>
      <trkpt lat="44.27183" lon="6.00707">
        <ele>561</ele>
        <time>2019-04-02T12:43:10Z</time>
      </trkpt>
      <trkpt lat="44.27184" lon="6.00718">
        <ele>561</ele>
        <time>2019-04-02T12:43:11Z</time>
      </trkpt>
      <trkpt lat="44.27184" lon="6.00728">
        <ele>561</ele>
        <time>2019-04-02T12:43:12Z</time>
      </trkpt>
      <trkpt lat="44.27184" lon="6.00737">
        <ele>561</ele>
        <time>2019-04-02T12:43:13Z</time>
      </trkpt>
      <trkpt lat="44.27184" lon="6.00746">
        <ele>561</ele>
        <time>2019-04-02T12:43:14Z</time>
      </trkpt>
      <trkpt lat="44.27184" lon="6.00755">
        <ele>561</ele>
        <time>2019-04-02T12:43:15Z</time>
      </trkpt>
      <trkpt lat="44.27184" lon="6.00764">
        <ele>561</ele>
        <time>2019-04-02T12:43:16Z</time>
      </trkpt>
      <trkpt lat="44.27184" lon="6.00773">
        <ele>561</ele>
        <time>2019-04-02T12:43:17Z</time>
      </trkpt>
      <trkpt lat="44.27184" lon="6.00781">
        <ele>561</ele>
        <time>2019-04-02T12:43:18Z</time>
      </trkpt>
      <trkpt lat="44.27184" lon="6.0079">
        <ele>561</ele>
        <time>2019-04-02T12:43:19Z</time>
      </trkpt>
      <trkpt lat="44.27185" lon="6.00798">
        <ele>561</ele>
        <time>2019-04-02T12:43:20Z</time>
      </trkpt>
      <trkpt lat="44.27185" lon="6.00806">
        <ele>562</ele>
        <time>2019-04-02T12:43:21Z</time>
      </trkpt>
      <trkpt lat="44.27185" lon="6.00813">
        <ele>562</ele>
        <time>2019-04-02T12:43:22Z</time>
      </trkpt>
      <trkpt lat="44.27185" lon="6.00821">
        <ele>562</ele>
        <time>2019-04-02T12:43:23Z</time>
      </trkpt>
      <trkpt lat="44.27185" lon="6.00829">
        <ele>563</ele>
        <time>2019-04-02T12:43:24Z</time>
      </trkpt>
      <trkpt lat="44.27185" lon="6.00836">
        <ele>563</ele>
        <time>2019-04-02T12:43:25Z</time>
      </trkpt>
      <trkpt lat="44.27185" lon="6.00843">
        <ele>563</ele>
        <time>2019-04-02T12:43:26Z</time>
      </trkpt>
      <trkpt lat="44.27186" lon="6.0085">
        <ele>564</ele>
        <time>2019-04-02T12:43:27Z</time>
      </trkpt>
      <trkpt lat="44.27186" lon="6.00858">
        <ele>564</ele>
        <time>2019-04-02T12:43:28Z</time>
      </trkpt>
      <trkpt lat="44.27186" lon="6.00865">
        <ele>564</ele>
        <time>2019-04-02T12:43:29Z</time>
      </trkpt>
      <trkpt lat="44.27187" lon="6.00872">
        <ele>564</ele>
        <time>2019-04-02T12:43:30Z</time>
      </trkpt>
      <trkpt lat="44.27187" lon="6.00879">
        <ele>565</ele>
        <time>2019-04-02T12:43:31Z</time>
      </trkpt>
      <trkpt lat="44.27188" lon="6.00887">
        <ele>565</ele>
        <time>2019-04-02T12:43:32Z</time>
      </trkpt>
      <trkpt lat="44.27188" lon="6.00894">
        <ele>565</ele>
        <time>2019-04-02T12:43:33Z</time>
      </trkpt>
      <trkpt lat="44.27188" lon="6.00901">
        <ele>565</ele>
        <time>2019-04-02T12:43:34Z</time>
      </trkpt>
      <trkpt lat="44.27189" lon="6.00908">
        <ele>566</ele>
        <time>2019-04-02T12:43:35Z</time>
      </trkpt>
      <trkpt lat="44.27189" lon="6.00916">
        <ele>566</ele>
        <time>2019-04-02T12:43:36Z</time>
      </trkpt>
      <trkpt lat="44.2719" lon="6.00923">
        <ele>566</ele>
        <time>2019-04-02T12:43:37Z</time>
      </trkpt>
      <trkpt lat="44.2719" lon="6.0093">
        <ele>567</ele>
        <time>2019-04-02T12:43:38Z</time>
      </trkpt>
      <trkpt lat="44.27191" lon="6.00936">
        <ele>567</ele>
        <time>2019-04-02T12:43:39Z</time>
      </trkpt>
      <trkpt lat="44.27192" lon="6.00943">
        <ele>568</ele>
        <time>2019-04-02T12:43:40Z</time>
      </trkpt>
      <trkpt lat="44.27192" lon="6.00949">
        <ele>568</ele>
        <time>2019-04-02T12:43:41Z</time>
      </trkpt>
      <trkpt lat="44.27193" lon="6.00955">
        <ele>569</ele>
        <time>2019-04-02T12:43:42Z</time>
      </trkpt>
      <trkpt lat="44.27193" lon="6.00962">
        <ele>569</ele>
        <time>2019-04-02T12:43:43Z</time>
      </trkpt>
      <trkpt lat="44.27193" lon="6.00968">
        <ele>570</ele>
        <time>2019-04-02T12:43:44Z</time>
      </trkpt>
      <trkpt lat="44.27193" lon="6.00974">
        <ele>570</ele>
        <time>2019-04-02T12:43:45Z</time>
      </trkpt>
      <trkpt lat="44.27193" lon="6.0098">
        <ele>570</ele>
        <time>2019-04-02T12:43:46Z</time>
      </trkpt>
      <trkpt lat="44.27194" lon="6.00986">
        <ele>570</ele>
        <time>2019-04-02T12:43:47Z</time>
      </trkpt>
      <trkpt lat="44.27194" lon="6.00992">
        <ele>571</ele>
        <time>2019-04-02T12:43:48Z</time>
      </trkpt>
      <trkpt lat="44.27194" lon="6.00998">
        <ele>571</ele>
        <time>2019-04-02T12:43:49Z</time>
      </trkpt>
      <trkpt lat="44.27194" lon="6.01005">
        <ele>571</ele>
        <time>2019-04-02T12:43:50Z</time>
      </trkpt>
      <trkpt lat="44.27195" lon="6.01011">
        <ele>571</ele>
        <time>2019-04-02T12:43:51Z</time>
      </trkpt>
      <trkpt lat="44.27195" lon="6.01018">
        <ele>571</ele>
        <time>2019-04-02T12:43:52Z</time>
      </trkpt>
      <trkpt lat="44.27195" lon="6.01024">
        <ele>572</ele>
        <time>2019-04-02T12:43:53Z</time>
      </trkpt>
      <trkpt lat="44.27195" lon="6.0103">
        <ele>572</ele>
        <time>2019-04-02T12:43:54Z</time>
      </trkpt>
      <trkpt lat="44.27195" lon="6.01036">
        <ele>572</ele>
        <time>2019-04-02T12:43:55Z</time>
      </trkpt>
      <trkpt lat="44.27195" lon="6.01042">
        <ele>572</ele>
        <time>2019-04-02T12:43:56Z</time>
      </trkpt>
      <trkpt lat="44.27195" lon="6.01048">
        <ele>572</ele>
        <time>2019-04-02T12:43:57Z</time>
      </trkpt>
      <trkpt lat="44.27196" lon="6.01054">
        <ele>572</ele>
        <time>2019-04-02T12:43:58Z</time>
      </trkpt>
      <trkpt lat="44.27196" lon="6.01059">
        <ele>572</ele>
        <time>2019-04-02T12:43:59Z</time>
      </trkpt>
      <trkpt lat="44.27196" lon="6.01065">
        <ele>572</ele>
        <time>2019-04-02T12:44:00Z</time>
      </trkpt>
      <trkpt lat="44.27197" lon="6.0107">
        <ele>572</ele>
        <time>2019-04-02T12:44:01Z</time>
      </trkpt>
      <trkpt lat="44.27198" lon="6.01076">
        <ele>572</ele>
        <time>2019-04-02T12:44:02Z</time>
      </trkpt>
      <trkpt lat="44.27199" lon="6.01082">
        <ele>572</ele>
        <time>2019-04-02T12:44:03Z</time>
      </trkpt>
      <trkpt lat="44.272" lon="6.01088">
        <ele>572</ele>
        <time>2019-04-02T12:44:04Z</time>
      </trkpt>
      <trkpt lat="44.27202" lon="6.01093">
        <ele>572</ele>
        <time>2019-04-02T12:44:05Z</time>
      </trkpt>
      <trkpt lat="44.27204" lon="6.01099">
        <ele>572</ele>
        <time>2019-04-02T12:44:06Z</time>
      </trkpt>
      <trkpt lat="44.27206" lon="6.01105">
        <ele>572</ele>
        <time>2019-04-02T12:44:07Z</time>
      </trkpt>
      <trkpt lat="44.27208" lon="6.0111">
        <ele>572</ele>
        <time>2019-04-02T12:44:08Z</time>
      </trkpt>
      <trkpt lat="44.2721" lon="6.01116">
        <ele>572</ele>
        <time>2019-04-02T12:44:09Z</time>
      </trkpt>
      <trkpt lat="44.27212" lon="6.01122">
        <ele>572</ele>
        <time>2019-04-02T12:44:10Z</time>
      </trkpt>
      <trkpt lat="44.27214" lon="6.01128">
        <ele>572</ele>
        <time>2019-04-02T12:44:11Z</time>
      </trkpt>
      <trkpt lat="44.27215" lon="6.01134">
        <ele>572</ele>
        <time>2019-04-02T12:44:12Z</time>
      </trkpt>
      <trkpt lat="44.27217" lon="6.0114">
        <ele>573</ele>
        <time>2019-04-02T12:44:13Z</time>
      </trkpt>
      <trkpt lat="44.27219" lon="6.01146">
        <ele>573</ele>
        <time>2019-04-02T12:44:14Z</time>
      </trkpt>
      <trkpt lat="44.27221" lon="6.01152">
        <ele>573</ele>
        <time>2019-04-02T12:44:15Z</time>
      </trkpt>
      <trkpt lat="44.27222" lon="6.01158">
        <ele>573</ele>
        <time>2019-04-02T12:44:16Z</time>
      </trkpt>
      <trkpt lat="44.27224" lon="6.01164">
        <ele>574</ele>
        <time>2019-04-02T12:44:17Z</time>
      </trkpt>
      <trkpt lat="44.27227" lon="6.0117">
        <ele>574</ele>
        <time>2019-04-02T12:44:18Z</time>
      </trkpt>
      <trkpt lat="44.27229" lon="6.01175">
        <ele>574</ele>
        <time>2019-04-02T12:44:19Z</time>
      </trkpt>
      <trkpt lat="44.27231" lon="6.01181">
        <ele>574</ele>
        <time>2019-04-02T12:44:20Z</time>
      </trkpt>
      <trkpt lat="44.27234" lon="6.01185">
        <ele>574</ele>
        <time>2019-04-02T12:44:21Z</time>
      </trkpt>
      <trkpt lat="44.27237" lon="6.01189">
        <ele>574</ele>
        <time>2019-04-02T12:44:22Z</time>
      </trkpt>
      <trkpt lat="44.2724" lon="6.01193">
        <ele>575</ele>
        <time>2019-04-02T12:44:23Z</time>
      </trkpt>
      <trkpt lat="44.27244" lon="6.01196">
        <ele>575</ele>
        <time>2019-04-02T12:44:24Z</time>
      </trkpt>
      <trkpt lat="44.27248" lon="6.01199">
        <ele>576</ele>
        <time>2019-04-02T12:44:25Z</time>
      </trkpt>
      <trkpt lat="44.27253" lon="6.01201">
        <ele>576</ele>
        <time>2019-04-02T12:44:26Z</time>
      </trkpt>
      <trkpt lat="44.27257" lon="6.01203">
        <ele>576</ele>
        <time>2019-04-02T12:44:27Z</time>
      </trkpt>
      <trkpt lat="44.27261" lon="6.01206">
        <ele>577</ele>
        <time>2019-04-02T12:44:28Z</time>
      </trkpt>
      <trkpt lat="44.27266" lon="6.01208">
        <ele>577</ele>
        <time>2019-04-02T12:44:29Z</time>
      </trkpt>
      <trkpt lat="44.27271" lon="6.01211">
        <ele>577</ele>
        <time>2019-04-02T12:44:30Z</time>
      </trkpt>
      <trkpt lat="44.27275" lon="6.01214">
        <ele>577</ele>
        <time>2019-04-02T12:44:31Z</time>
      </trkpt>
      <trkpt lat="44.2728" lon="6.01217">
        <ele>577</ele>
        <time>2019-04-02T12:44:32Z</time>
      </trkpt>
      <trkpt lat="44.27285" lon="6.0122">
        <ele>577</ele>
        <time>2019-04-02T12:44:33Z</time>
      </trkpt>
      <trkpt lat="44.27289" lon="6.01223">
        <ele>577</ele>
        <time>2019-04-02T12:44:34Z</time>
      </trkpt>
      <trkpt lat="44.27293" lon="6.01225">
        <ele>577</ele>
        <time>2019-04-02T12:44:35Z</time>
      </trkpt>
      <trkpt lat="44.27298" lon="6.01227">
        <ele>578</ele>
        <time>2019-04-02T12:44:36Z</time>
      </trkpt>
      <trkpt lat="44.27302" lon="6.01228">
        <ele>578</ele>
        <time>2019-04-02T12:44:37Z</time>
      </trkpt>
      <trkpt lat="44.27306" lon="6.01229">
        <ele>578</ele>
        <time>2019-04-02T12:44:38Z</time>
      </trkpt>
      <trkpt lat="44.27311" lon="6.01229">
        <ele>579</ele>
        <time>2019-04-02T12:44:39Z</time>
      </trkpt>
      <trkpt lat="44.27316" lon="6.01228">
        <ele>579</ele>
        <time>2019-04-02T12:44:40Z</time>
      </trkpt>
      <trkpt lat="44.27321" lon="6.01227">
        <ele>579</ele>
        <time>2019-04-02T12:44:41Z</time>
      </trkpt>
      <trkpt lat="44.27326" lon="6.01225">
        <ele>580</ele>
        <time>2019-04-02T12:44:42Z</time>
      </trkpt>
      <trkpt lat="44.27332" lon="6.01222">
        <ele>580</ele>
        <time>2019-04-02T12:44:43Z</time>
      </trkpt>
      <trkpt lat="44.27336" lon="6.01219">
        <ele>580</ele>
        <time>2019-04-02T12:44:44Z</time>
      </trkpt>
      <trkpt lat="44.27341" lon="6.01215">
        <ele>580</ele>
        <time>2019-04-02T12:44:45Z</time>
      </trkpt>
      <trkpt lat="44.27345" lon="6.01211">
        <ele>580</ele>
        <time>2019-04-02T12:44:46Z</time>
      </trkpt>
      <trkpt lat="44.2735" lon="6.01207">
        <ele>580</ele>
        <time>2019-04-02T12:44:47Z</time>
      </trkpt>
      <trkpt lat="44.27355" lon="6.01203">
        <ele>580</ele>
        <time>2019-04-02T12:44:48Z</time>
      </trkpt>
      <trkpt lat="44.27359" lon="6.01199">
        <ele>580</ele>
        <time>2019-04-02T12:44:49Z</time>
      </trkpt>
      <trkpt lat="44.27362" lon="6.01194">
        <ele>580</ele>
        <time>2019-04-02T12:44:50Z</time>
      </trkpt>
      <trkpt lat="44.27366" lon="6.01189">
        <ele>580</ele>
        <time>2019-04-02T12:44:51Z</time>
      </trkpt>
      <trkpt lat="44.27369" lon="6.01184">
        <ele>580</ele>
        <time>2019-04-02T12:44:52Z</time>
      </trkpt>
      <trkpt lat="44.27372" lon="6.01179">
        <ele>580</ele>
        <time>2019-04-02T12:44:53Z</time>
      </trkpt>
      <trkpt lat="44.27376" lon="6.01173">
        <ele>580</ele>
        <time>2019-04-02T12:44:54Z</time>
      </trkpt>
      <trkpt lat="44.27379" lon="6.01168">
        <ele>580</ele>
        <time>2019-04-02T12:44:55Z</time>
      </trkpt>
      <trkpt lat="44.27382" lon="6.01163">
        <ele>580</ele>
        <time>2019-04-02T12:44:56Z</time>
      </trkpt>
      <trkpt lat="44.27386" lon="6.01158">
        <ele>580</ele>
        <time>2019-04-02T12:44:57Z</time>
      </trkpt>
      <trkpt lat="44.2739" lon="6.01153">
        <ele>580</ele>
        <time>2019-04-02T12:44:58Z</time>
      </trkpt>
      <trkpt lat="44.27394" lon="6.01149">
        <ele>580</ele>
        <time>2019-04-02T12:44:59Z</time>
      </trkpt>
      <trkpt lat="44.27399" lon="6.01145">
        <ele>580</ele>
        <time>2019-04-02T12:45:00Z</time>
      </trkpt>
      <trkpt lat="44.27404" lon="6.01142">
        <ele>580</ele>
        <time>2019-04-02T12:45:01Z</time>
      </trkpt>
      <trkpt lat="44.27409" lon="6.01139">
        <ele>580</ele>
        <time>2019-04-02T12:45:02Z</time>
      </trkpt>
      <trkpt lat="44.27415" lon="6.01136">
        <ele>580</ele>
        <time>2019-04-02T12:45:03Z</time>
      </trkpt>
      <trkpt lat="44.2742" lon="6.01134">
        <ele>580</ele>
        <time>2019-04-02T12:45:04Z</time>
      </trkpt>
      <trkpt lat="44.27425" lon="6.01132">
        <ele>580</ele>
        <time>2019-04-02T12:45:05Z</time>
      </trkpt>
      <trkpt lat="44.2743" lon="6.0113">
        <ele>580</ele>
        <time>2019-04-02T12:45:06Z</time>
      </trkpt>
      <trkpt lat="44.27436" lon="6.01128">
        <ele>580</ele>
        <time>2019-04-02T12:45:07Z</time>
      </trkpt>
      <trkpt lat="44.27442" lon="6.01125">
        <ele>580</ele>
        <time>2019-04-02T12:45:08Z</time>
      </trkpt>
      <trkpt lat="44.27446" lon="6.01121">
        <ele>580</ele>
        <time>2019-04-02T12:45:09Z</time>
      </trkpt>
      <trkpt lat="44.2745" lon="6.01116">
        <ele>580</ele>
        <time>2019-04-02T12:45:10Z</time>
      </trkpt>
      <trkpt lat="44.27455" lon="6.01111">
        <ele>580</ele>
        <time>2019-04-02T12:45:11Z</time>
      </trkpt>
      <trkpt lat="44.27458" lon="6.01104">
        <ele>580</ele>
        <time>2019-04-02T12:45:12Z</time>
      </trkpt>
      <trkpt lat="44.27461" lon="6.01098">
        <ele>580</ele>
        <time>2019-04-02T12:45:13Z</time>
      </trkpt>
      <trkpt lat="44.27464" lon="6.01091">
        <ele>580</ele>
        <time>2019-04-02T12:45:14Z</time>
      </trkpt>
      <trkpt lat="44.27468" lon="6.01084">
        <ele>580</ele>
        <time>2019-04-02T12:45:15Z</time>
      </trkpt>
      <trkpt lat="44.27472" lon="6.01077">
        <ele>580</ele>
        <time>2019-04-02T12:45:16Z</time>
      </trkpt>
      <trkpt lat="44.27476" lon="6.01069">
        <ele>580</ele>
        <time>2019-04-02T12:45:17Z</time>
      </trkpt>
      <trkpt lat="44.2748" lon="6.01063">
        <ele>580</ele>
        <time>2019-04-02T12:45:18Z</time>
      </trkpt>
      <trkpt lat="44.27486" lon="6.01057">
        <ele>580</ele>
        <time>2019-04-02T12:45:19Z</time>
      </trkpt>
      <trkpt lat="44.27492" lon="6.01052">
        <ele>580</ele>
        <time>2019-04-02T12:45:20Z</time>
      </trkpt>
      <trkpt lat="44.27498" lon="6.01047">
        <ele>580</ele>
        <time>2019-04-02T12:45:21Z</time>
      </trkpt>
      <trkpt lat="44.27505" lon="6.01043">
        <ele>580</ele>
        <time>2019-04-02T12:45:22Z</time>
      </trkpt>
      <trkpt lat="44.27512" lon="6.0104">
        <ele>580</ele>
        <time>2019-04-02T12:45:23Z</time>
      </trkpt>
      <trkpt lat="44.27519" lon="6.01037">
        <ele>580</ele>
        <time>2019-04-02T12:45:24Z</time>
      </trkpt>
      <trkpt lat="44.27528" lon="6.01035">
        <ele>580</ele>
        <time>2019-04-02T12:45:25Z</time>
      </trkpt>
      <trkpt lat="44.27536" lon="6.01033">
        <ele>580</ele>
        <time>2019-04-02T12:45:26Z</time>
      </trkpt>
      <trkpt lat="44.27543" lon="6.01031">
        <ele>580</ele>
        <time>2019-04-02T12:45:27Z</time>
      </trkpt>
      <trkpt lat="44.27551" lon="6.01031">
        <ele>580</ele>
        <time>2019-04-02T12:45:28Z</time>
      </trkpt>
      <trkpt lat="44.27559" lon="6.01031">
        <ele>580</ele>
        <time>2019-04-02T12:45:29Z</time>
      </trkpt>
      <trkpt lat="44.27566" lon="6.01033">
        <ele>580</ele>
        <time>2019-04-02T12:45:30Z</time>
      </trkpt>
      <trkpt lat="44.27574" lon="6.01035">
        <ele>580</ele>
        <time>2019-04-02T12:45:31Z</time>
      </trkpt>
      <trkpt lat="44.27581" lon="6.01037">
        <ele>580</ele>
        <time>2019-04-02T12:45:32Z</time>
      </trkpt>
      <trkpt lat="44.27588" lon="6.01039">
        <ele>580</ele>
        <time>2019-04-02T12:45:33Z</time>
      </trkpt>
      <trkpt lat="44.27595" lon="6.01042">
        <ele>580</ele>
        <time>2019-04-02T12:45:34Z</time>
      </trkpt>
      <trkpt lat="44.27602" lon="6.01045">
        <ele>580</ele>
        <time>2019-04-02T12:45:35Z</time>
      </trkpt>
      <trkpt lat="44.27609" lon="6.01048">
        <ele>580</ele>
        <time>2019-04-02T12:45:36Z</time>
      </trkpt>
      <trkpt lat="44.27616" lon="6.01051">
        <ele>580</ele>
        <time>2019-04-02T12:45:37Z</time>
      </trkpt>
      <trkpt lat="44.27624" lon="6.01054">
        <ele>580</ele>
        <time>2019-04-02T12:45:38Z</time>
      </trkpt>
      <trkpt lat="44.27631" lon="6.01055">
        <ele>580</ele>
        <time>2019-04-02T12:45:39Z</time>
      </trkpt>
      <trkpt lat="44.2764" lon="6.01056">
        <ele>580</ele>
        <time>2019-04-02T12:45:40Z</time>
      </trkpt>
      <trkpt lat="44.27647" lon="6.01057">
        <ele>580</ele>
        <time>2019-04-02T12:45:41Z</time>
      </trkpt>
      <trkpt lat="44.27656" lon="6.01056">
        <ele>580</ele>
        <time>2019-04-02T12:45:42Z</time>
      </trkpt>
      <trkpt lat="44.27664" lon="6.01054">
        <ele>580</ele>
        <time>2019-04-02T12:45:43Z</time>
      </trkpt>
      <trkpt lat="44.27671" lon="6.0105">
        <ele>580</ele>
        <time>2019-04-02T12:45:44Z</time>
      </trkpt>
      <trkpt lat="44.27679" lon="6.01047">
        <ele>580</ele>
        <time>2019-04-02T12:45:45Z</time>
      </trkpt>
      <trkpt lat="44.27686" lon="6.01044">
        <ele>580</ele>
        <time>2019-04-02T12:45:46Z</time>
      </trkpt>
      <trkpt lat="44.27693" lon="6.01042">
        <ele>580</ele>
        <time>2019-04-02T12:45:47Z</time>
      </trkpt>
      <trkpt lat="44.277" lon="6.01041">
        <ele>580</ele>
        <time>2019-04-02T12:45:48Z</time>
      </trkpt>
      <trkpt lat="44.27707" lon="6.0104">
        <ele>580</ele>
        <time>2019-04-02T12:45:49Z</time>
      </trkpt>
      <trkpt lat="44.27714" lon="6.0104">
        <ele>580</ele>
        <time>2019-04-02T12:45:50Z</time>
      </trkpt>
      <trkpt lat="44.27721" lon="6.0104">
        <ele>580</ele>
        <time>2019-04-02T12:45:51Z</time>
      </trkpt>
      <trkpt lat="44.27729" lon="6.01041">
        <ele>580</ele>
        <time>2019-04-02T12:45:52Z</time>
      </trkpt>
      <trkpt lat="44.27736" lon="6.01041">
        <ele>580</ele>
        <time>2019-04-02T12:45:53Z</time>
      </trkpt>
      <trkpt lat="44.27742" lon="6.01042">
        <ele>580</ele>
        <time>2019-04-02T12:45:54Z</time>
      </trkpt>
      <trkpt lat="44.27749" lon="6.01044">
        <ele>580</ele>
        <time>2019-04-02T12:45:55Z</time>
      </trkpt>
      <trkpt lat="44.27755" lon="6.01047">
        <ele>580</ele>
        <time>2019-04-02T12:45:56Z</time>
      </trkpt>
      <trkpt lat="44.27761" lon="6.0105">
        <ele>580</ele>
        <time>2019-04-02T12:45:57Z</time>
      </trkpt>
      <trkpt lat="44.27766" lon="6.01055">
        <ele>580</ele>
        <time>2019-04-02T12:45:58Z</time>
      </trkpt>
      <trkpt lat="44.27771" lon="6.0106">
        <ele>580</ele>
        <time>2019-04-02T12:45:59Z</time>
      </trkpt>
      <trkpt lat="44.27777" lon="6.01065">
        <ele>580</ele>
        <time>2019-04-02T12:46:00Z</time>
      </trkpt>
      <trkpt lat="44.27782" lon="6.01069">
        <ele>580</ele>
        <time>2019-04-02T12:46:01Z</time>
      </trkpt>
      <trkpt lat="44.27786" lon="6.01075">
        <ele>580</ele>
        <time>2019-04-02T12:46:02Z</time>
      </trkpt>
      <trkpt lat="44.2779" lon="6.0108">
        <ele>580</ele>
        <time>2019-04-02T12:46:03Z</time>
      </trkpt>
      <trkpt lat="44.27795" lon="6.01084">
        <ele>580</ele>
        <time>2019-04-02T12:46:04Z</time>
      </trkpt>
      <trkpt lat="44.27799" lon="6.01089">
        <ele>580</ele>
        <time>2019-04-02T12:46:05Z</time>
      </trkpt>
      <trkpt lat="44.27803" lon="6.01093">
        <ele>580</ele>
        <time>2019-04-02T12:46:06Z</time>
      </trkpt>
      <trkpt lat="44.27808" lon="6.01098">
        <ele>580</ele>
        <time>2019-04-02T12:46:07Z</time>
      </trkpt>
      <trkpt lat="44.27812" lon="6.01103">
        <ele>580</ele>
        <time>2019-04-02T12:46:08Z</time>
      </trkpt>
      <trkpt lat="44.27816" lon="6.01108">
        <ele>580</ele>
        <time>2019-04-02T12:46:09Z</time>
      </trkpt>
      <trkpt lat="44.2782" lon="6.01113">
        <ele>580</ele>
        <time>2019-04-02T12:46:10Z</time>
      </trkpt>
      <trkpt lat="44.27824" lon="6.01117">
        <ele>580</ele>
        <time>2019-04-02T12:46:11Z</time>
      </trkpt>
      <trkpt lat="44.27829" lon="6.01122">
        <ele>580</ele>
        <time>2019-04-02T12:46:12Z</time>
      </trkpt>
      <trkpt lat="44.27833" lon="6.01127">
        <ele>580</ele>
        <time>2019-04-02T12:46:13Z</time>
      </trkpt>
      <trkpt lat="44.27837" lon="6.01131">
        <ele>580</ele>
        <time>2019-04-02T12:46:14Z</time>
      </trkpt>
      <trkpt lat="44.27842" lon="6.01136">
        <ele>580</ele>
        <time>2019-04-02T12:46:15Z</time>
      </trkpt>
      <trkpt lat="44.27846" lon="6.01141">
        <ele>580</ele>
        <time>2019-04-02T12:46:16Z</time>
      </trkpt>
      <trkpt lat="44.2785" lon="6.01145">
        <ele>580</ele>
        <time>2019-04-02T12:46:17Z</time>
      </trkpt>
      <trkpt lat="44.27854" lon="6.0115">
        <ele>580</ele>
        <time>2019-04-02T12:46:18Z</time>
      </trkpt>
      <trkpt lat="44.27858" lon="6.01155">
        <ele>580</ele>
        <time>2019-04-02T12:46:19Z</time>
      </trkpt>
      <trkpt lat="44.27863" lon="6.01159">
        <ele>580</ele>
        <time>2019-04-02T12:46:20Z</time>
      </trkpt>
      <trkpt lat="44.27867" lon="6.01163">
        <ele>580</ele>
        <time>2019-04-02T12:46:21Z</time>
      </trkpt>
      <trkpt lat="44.27871" lon="6.01168">
        <ele>580</ele>
        <time>2019-04-02T12:46:22Z</time>
      </trkpt>
      <trkpt lat="44.27875" lon="6.01173">
        <ele>580</ele>
        <time>2019-04-02T12:46:23Z</time>
      </trkpt>
      <trkpt lat="44.27879" lon="6.01177">
        <ele>580</ele>
        <time>2019-04-02T12:46:24Z</time>
      </trkpt>
      <trkpt lat="44.27883" lon="6.01182">
        <ele>580</ele>
        <time>2019-04-02T12:46:25Z</time>
      </trkpt>
      <trkpt lat="44.27887" lon="6.01187">
        <ele>580</ele>
        <time>2019-04-02T12:46:26Z</time>
      </trkpt>
      <trkpt lat="44.27891" lon="6.01191">
        <ele>580</ele>
        <time>2019-04-02T12:46:27Z</time>
      </trkpt>
      <trkpt lat="44.27895" lon="6.01195">
        <ele>580</ele>
        <time>2019-04-02T12:46:28Z</time>
      </trkpt>
      <trkpt lat="44.27899" lon="6.012">
        <ele>580</ele>
        <time>2019-04-02T12:46:29Z</time>
      </trkpt>
      <trkpt lat="44.27903" lon="6.01204">
        <ele>580</ele>
        <time>2019-04-02T12:46:30Z</time>
      </trkpt>
      <trkpt lat="44.27907" lon="6.01209">
        <ele>580</ele>
        <time>2019-04-02T12:46:31Z</time>
      </trkpt>
      <trkpt lat="44.27911" lon="6.01213">
        <ele>580</ele>
        <time>2019-04-02T12:46:32Z</time>
      </trkpt>
      <trkpt lat="44.27915" lon="6.01217">
        <ele>580</ele>
        <time>2019-04-02T12:46:33Z</time>
      </trkpt>
      <trkpt lat="44.27919" lon="6.01222">
        <ele>580</ele>
        <time>2019-04-02T12:46:34Z</time>
      </trkpt>
      <trkpt lat="44.27922" lon="6.01226">
        <ele>580</ele>
        <time>2019-04-02T12:46:35Z</time>
      </trkpt>
      <trkpt lat="44.27927" lon="6.0123">
        <ele>580</ele>
        <time>2019-04-02T12:46:36Z</time>
      </trkpt>
      <trkpt lat="44.27931" lon="6.01234">
        <ele>580</ele>
        <time>2019-04-02T12:46:37Z</time>
      </trkpt>
      <trkpt lat="44.27935" lon="6.01238">
        <ele>580</ele>
        <time>2019-04-02T12:46:38Z</time>
      </trkpt>
      <trkpt lat="44.27939" lon="6.01243">
        <ele>580</ele>
        <time>2019-04-02T12:46:39Z</time>
      </trkpt>
      <trkpt lat="44.27943" lon="6.01247">
        <ele>580</ele>
        <time>2019-04-02T12:46:40Z</time>
      </trkpt>
      <trkpt lat="44.27946" lon="6.01251">
        <ele>580</ele>
        <time>2019-04-02T12:46:41Z</time>
      </trkpt>
      <trkpt lat="44.2795" lon="6.01256">
        <ele>581</ele>
        <time>2019-04-02T12:46:42Z</time>
      </trkpt>
      <trkpt lat="44.27954" lon="6.0126">
        <ele>581</ele>
        <time>2019-04-02T12:46:43Z</time>
      </trkpt>
      <trkpt lat="44.27958" lon="6.01265">
        <ele>581</ele>
        <time>2019-04-02T12:46:44Z</time>
      </trkpt>
      <trkpt lat="44.27962" lon="6.01269">
        <ele>581</ele>
        <time>2019-04-02T12:46:45Z</time>
      </trkpt>
      <trkpt lat="44.27967" lon="6.01273">
        <ele>582</ele>
        <time>2019-04-02T12:46:46Z</time>
      </trkpt>
      <trkpt lat="44.2797" lon="6.01277">
        <ele>582</ele>
        <time>2019-04-02T12:46:47Z</time>
      </trkpt>
      <trkpt lat="44.27974" lon="6.01281">
        <ele>582</ele>
        <time>2019-04-02T12:46:48Z</time>
      </trkpt>
      <trkpt lat="44.27978" lon="6.01285">
        <ele>582</ele>
        <time>2019-04-02T12:46:49Z</time>
      </trkpt>
      <trkpt lat="44.27982" lon="6.0129">
        <ele>582</ele>
        <time>2019-04-02T12:46:50Z</time>
      </trkpt>
      <trkpt lat="44.27986" lon="6.01294">
        <ele>582</ele>
        <time>2019-04-02T12:46:51Z</time>
      </trkpt>
      <trkpt lat="44.2799" lon="6.01298">
        <ele>582</ele>
        <time>2019-04-02T12:46:52Z</time>
      </trkpt>
      <trkpt lat="44.27994" lon="6.01302">
        <ele>582</ele>
        <time>2019-04-02T12:46:53Z</time>
      </trkpt>
      <trkpt lat="44.27999" lon="6.01306">
        <ele>582</ele>
        <time>2019-04-02T12:46:54Z</time>
      </trkpt>
      <trkpt lat="44.28003" lon="6.01311">
        <ele>582</ele>
        <time>2019-04-02T12:46:55Z</time>
      </trkpt>
      <trkpt lat="44.28008" lon="6.01315">
        <ele>582</ele>
        <time>2019-04-02T12:46:56Z</time>
      </trkpt>
      <trkpt lat="44.28012" lon="6.0132">
        <ele>582</ele>
        <time>2019-04-02T12:46:57Z</time>
      </trkpt>
      <trkpt lat="44.28017" lon="6.01324">
        <ele>582</ele>
        <time>2019-04-02T12:46:58Z</time>
      </trkpt>
      <trkpt lat="44.28021" lon="6.01329">
        <ele>582</ele>
        <time>2019-04-02T12:46:59Z</time>
      </trkpt>
      <trkpt lat="44.28025" lon="6.01334">
        <ele>582</ele>
        <time>2019-04-02T12:47:00Z</time>
      </trkpt>
      <trkpt lat="44.2803" lon="6.01338">
        <ele>582</ele>
        <time>2019-04-02T12:47:01Z</time>
      </trkpt>
      <trkpt lat="44.28035" lon="6.01343">
        <ele>582</ele>
        <time>2019-04-02T12:47:02Z</time>
      </trkpt>
      <trkpt lat="44.28039" lon="6.01348">
        <ele>582</ele>
        <time>2019-04-02T12:47:03Z</time>
      </trkpt>
      <trkpt lat="44.28044" lon="6.01353">
        <ele>582</ele>
        <time>2019-04-02T12:47:04Z</time>
      </trkpt>
      <trkpt lat="44.28049" lon="6.01357">
        <ele>582</ele>
        <time>2019-04-02T12:47:05Z</time>
      </trkpt>
      <trkpt lat="44.28054" lon="6.01362">
        <ele>582</ele>
        <time>2019-04-02T12:47:06Z</time>
      </trkpt>
      <trkpt lat="44.28059" lon="6.01366">
        <ele>582</ele>
        <time>2019-04-02T12:47:07Z</time>
      </trkpt>
      <trkpt lat="44.28063" lon="6.01371">
        <ele>582</ele>
        <time>2019-04-02T12:47:08Z</time>
      </trkpt>
      <trkpt lat="44.28068" lon="6.01376">
        <ele>582</ele>
        <time>2019-04-02T12:47:09Z</time>
      </trkpt>
      <trkpt lat="44.28073" lon="6.01381">
        <ele>582</ele>
        <time>2019-04-02T12:47:10Z</time>
      </trkpt>
      <trkpt lat="44.28078" lon="6.01386">
        <ele>582</ele>
        <time>2019-04-02T12:47:11Z</time>
      </trkpt>
      <trkpt lat="44.28083" lon="6.01391">
        <ele>582</ele>
        <time>2019-04-02T12:47:12Z</time>
      </trkpt>
      <trkpt lat="44.28087" lon="6.01395">
        <ele>582</ele>
        <time>2019-04-02T12:47:13Z</time>
      </trkpt>
      <trkpt lat="44.28092" lon="6.014">
        <ele>582</ele>
        <time>2019-04-02T12:47:14Z</time>
      </trkpt>
      <trkpt lat="44.28097" lon="6.01405">
        <ele>582</ele>
        <time>2019-04-02T12:47:15Z</time>
      </trkpt>
      <trkpt lat="44.28102" lon="6.01409">
        <ele>582</ele>
        <time>2019-04-02T12:47:16Z</time>
      </trkpt>
      <trkpt lat="44.28106" lon="6.01414">
        <ele>582</ele>
        <time>2019-04-02T12:47:17Z</time>
      </trkpt>
      <trkpt lat="44.28111" lon="6.01418">
        <ele>582</ele>
        <time>2019-04-02T12:47:18Z</time>
      </trkpt>
      <trkpt lat="44.28115" lon="6.01423">
        <ele>582</ele>
        <time>2019-04-02T12:47:19Z</time>
      </trkpt>
      <trkpt lat="44.2812" lon="6.01427">
        <ele>582</ele>
        <time>2019-04-02T12:47:20Z</time>
      </trkpt>
      <trkpt lat="44.28124" lon="6.01431">
        <ele>582</ele>
        <time>2019-04-02T12:47:21Z</time>
      </trkpt>
      <trkpt lat="44.28128" lon="6.01435">
        <ele>582</ele>
        <time>2019-04-02T12:47:22Z</time>
      </trkpt>
      <trkpt lat="44.28132" lon="6.01439">
        <ele>582</ele>
        <time>2019-04-02T12:47:23Z</time>
      </trkpt>
      <trkpt lat="44.28136" lon="6.01443">
        <ele>582</ele>
        <time>2019-04-02T12:47:24Z</time>
      </trkpt>
      <trkpt lat="44.2814" lon="6.01447">
        <ele>583</ele>
        <time>2019-04-02T12:47:25Z</time>
      </trkpt>
      <trkpt lat="44.28143" lon="6.01451">
        <ele>583</ele>
        <time>2019-04-02T12:47:26Z</time>
      </trkpt>
      <trkpt lat="44.28147" lon="6.01455">
        <ele>583</ele>
        <time>2019-04-02T12:47:27Z</time>
      </trkpt>
      <trkpt lat="44.28151" lon="6.01459">
        <ele>583</ele>
        <time>2019-04-02T12:47:28Z</time>
      </trkpt>
      <trkpt lat="44.28156" lon="6.01463">
        <ele>583</ele>
        <time>2019-04-02T12:47:29Z</time>
      </trkpt>
      <trkpt lat="44.28162" lon="6.01468">
        <ele>584</ele>
        <time>2019-04-02T12:47:30Z</time>
      </trkpt>
      <trkpt lat="44.28166" lon="6.01472">
        <ele>585</ele>
        <time>2019-04-02T12:47:31Z</time>
      </trkpt>
      <trkpt lat="44.28171" lon="6.01476">
        <ele>585</ele>
        <time>2019-04-02T12:47:32Z</time>
      </trkpt>
      <trkpt lat="44.28176" lon="6.01481">
        <ele>585</ele>
        <time>2019-04-02T12:47:33Z</time>
      </trkpt>
      <trkpt lat="44.2818" lon="6.01485">
        <ele>586</ele>
        <time>2019-04-02T12:47:34Z</time>
      </trkpt>
      <trkpt lat="44.28185" lon="6.0149">
        <ele>586</ele>
        <time>2019-04-02T12:47:35Z</time>
      </trkpt>
      <trkpt lat="44.2819" lon="6.01495">
        <ele>586</ele>
        <time>2019-04-02T12:47:36Z</time>
      </trkpt>
      <trkpt lat="44.28194" lon="6.015">
        <ele>586</ele>
        <time>2019-04-02T12:47:37Z</time>
      </trkpt>
      <trkpt lat="44.28199" lon="6.01505">
        <ele>586</ele>
        <time>2019-04-02T12:47:38Z</time>
      </trkpt>
      <trkpt lat="44.28204" lon="6.01509">
        <ele>586</ele>
        <time>2019-04-02T12:47:39Z</time>
      </trkpt>
      <trkpt lat="44.28209" lon="6.01514">
        <ele>586</ele>
        <time>2019-04-02T12:47:40Z</time>
      </trkpt>
      <trkpt lat="44.28214" lon="6.01518">
        <ele>586</ele>
        <time>2019-04-02T12:47:41Z</time>
      </trkpt>
      <trkpt lat="44.28219" lon="6.01523">
        <ele>586</ele>
        <time>2019-04-02T12:47:42Z</time>
      </trkpt>
      <trkpt lat="44.28224" lon="6.01528">
        <ele>586</ele>
        <time>2019-04-02T12:47:43Z</time>
      </trkpt>
      <trkpt lat="44.28229" lon="6.01532">
        <ele>586</ele>
        <time>2019-04-02T12:47:44Z</time>
      </trkpt>
      <trkpt lat="44.28233" lon="6.01537">
        <ele>586</ele>
        <time>2019-04-02T12:47:45Z</time>
      </trkpt>
      <trkpt lat="44.28237" lon="6.01543">
        <ele>586</ele>
        <time>2019-04-02T12:47:46Z</time>
      </trkpt>
      <trkpt lat="44.28239" lon="6.0155">
        <ele>586</ele>
        <time>2019-04-02T12:47:47Z</time>
      </trkpt>
      <trkpt lat="44.28241" lon="6.01559">
        <ele>586</ele>
        <time>2019-04-02T12:47:48Z</time>
      </trkpt>
      <trkpt lat="44.28241" lon="6.01567">
        <ele>586</ele>
        <time>2019-04-02T12:47:49Z</time>
      </trkpt>
      <trkpt lat="44.28239" lon="6.01575">
        <ele>586</ele>
        <time>2019-04-02T12:47:50Z</time>
      </trkpt>
      <trkpt lat="44.28236" lon="6.01583">
        <ele>586</ele>
        <time>2019-04-02T12:47:51Z</time>
      </trkpt>
      <trkpt lat="44.28233" lon="6.0159">
        <ele>586</ele>
        <time>2019-04-02T12:47:52Z</time>
      </trkpt>
      <trkpt lat="44.28229" lon="6.01597">
        <ele>586</ele>
        <time>2019-04-02T12:47:53Z</time>
      </trkpt>
      <trkpt lat="44.28225" lon="6.01603">
        <ele>586</ele>
        <time>2019-04-02T12:47:54Z</time>
      </trkpt>
      <trkpt lat="44.28221" lon="6.0161">
        <ele>586</ele>
        <time>2019-04-02T12:47:55Z</time>
      </trkpt>
      <trkpt lat="44.28217" lon="6.01616">
        <ele>586</ele>
        <time>2019-04-02T12:47:56Z</time>
      </trkpt>
      <trkpt lat="44.28212" lon="6.01623">
        <ele>586</ele>
        <time>2019-04-02T12:47:57Z</time>
      </trkpt>
      <trkpt lat="44.28209" lon="6.01629">
        <ele>586</ele>
        <time>2019-04-02T12:47:58Z</time>
      </trkpt>
      <trkpt lat="44.28204" lon="6.01636">
        <ele>586</ele>
        <time>2019-04-02T12:47:59Z</time>
      </trkpt>
      <trkpt lat="44.28201" lon="6.01643">
        <ele>586</ele>
        <time>2019-04-02T12:48:00Z</time>
      </trkpt>
      <trkpt lat="44.28198" lon="6.0165">
        <ele>586</ele>
        <time>2019-04-02T12:48:01Z</time>
      </trkpt>
      <trkpt lat="44.28196" lon="6.01657">
        <ele>586</ele>
        <time>2019-04-02T12:48:02Z</time>
      </trkpt>
      <trkpt lat="44.28195" lon="6.01665">
        <ele>586</ele>
        <time>2019-04-02T12:48:03Z</time>
      </trkpt>
      <trkpt lat="44.28195" lon="6.01673">
        <ele>586</ele>
        <time>2019-04-02T12:48:04Z</time>
      </trkpt>
      <trkpt lat="44.28196" lon="6.01681">
        <ele>586</ele>
        <time>2019-04-02T12:48:05Z</time>
      </trkpt>
      <trkpt lat="44.28198" lon="6.01688">
        <ele>586</ele>
        <time>2019-04-02T12:48:06Z</time>
      </trkpt>
      <trkpt lat="44.28201" lon="6.01694">
        <ele>586</ele>
        <time>2019-04-02T12:48:07Z</time>
      </trkpt>
      <trkpt lat="44.28204" lon="6.017">
        <ele>586</ele>
        <time>2019-04-02T12:48:08Z</time>
      </trkpt>
      <trkpt lat="44.28207" lon="6.01706">
        <ele>586</ele>
        <time>2019-04-02T12:48:09Z</time>
      </trkpt>
      <trkpt lat="44.2821" lon="6.01712">
        <ele>586</ele>
        <time>2019-04-02T12:48:10Z</time>
      </trkpt>
      <trkpt lat="44.28214" lon="6.01717">
        <ele>586</ele>
        <time>2019-04-02T12:48:11Z</time>
      </trkpt>
      <trkpt lat="44.28217" lon="6.01722">
        <ele>586</ele>
        <time>2019-04-02T12:48:12Z</time>
      </trkpt>
      <trkpt lat="44.2822" lon="6.01727">
        <ele>586</ele>
        <time>2019-04-02T12:48:13Z</time>
      </trkpt>
      <trkpt lat="44.28223" lon="6.01732">
        <ele>586</ele>
        <time>2019-04-02T12:48:14Z</time>
      </trkpt>
      <trkpt lat="44.28226" lon="6.01737">
        <ele>586</ele>
        <time>2019-04-02T12:48:15Z</time>
      </trkpt>
      <trkpt lat="44.2823" lon="6.01742">
        <ele>586</ele>
        <time>2019-04-02T12:48:16Z</time>
      </trkpt>
      <trkpt lat="44.28233" lon="6.01747">
        <ele>587</ele>
        <time>2019-04-02T12:48:17Z</time>
      </trkpt>
      <trkpt lat="44.28236" lon="6.01752">
        <ele>587</ele>
        <time>2019-04-02T12:48:18Z</time>
      </trkpt>
      <trkpt lat="44.28239" lon="6.01757">
        <ele>587</ele>
        <time>2019-04-02T12:48:19Z</time>
      </trkpt>
      <trkpt lat="44.28242" lon="6.01762">
        <ele>587</ele>
        <time>2019-04-02T12:48:20Z</time>
      </trkpt>
      <trkpt lat="44.28245" lon="6.01768">
        <ele>588</ele>
        <time>2019-04-02T12:48:21Z</time>
      </trkpt>
      <trkpt lat="44.28248" lon="6.01773">
        <ele>588</ele>
        <time>2019-04-02T12:48:22Z</time>
      </trkpt>
      <trkpt lat="44.28252" lon="6.01778">
        <ele>588</ele>
        <time>2019-04-02T12:48:23Z</time>
      </trkpt>
      <trkpt lat="44.28255" lon="6.01783">
        <ele>588</ele>
        <time>2019-04-02T12:48:24Z</time>
      </trkpt>
      <trkpt lat="44.28258" lon="6.01788">
        <ele>589</ele>
        <time>2019-04-02T12:48:25Z</time>
      </trkpt>
      <trkpt lat="44.28262" lon="6.01794">
        <ele>589</ele>
        <time>2019-04-02T12:48:26Z</time>
      </trkpt>
      <trkpt lat="44.28265" lon="6.01799">
        <ele>589</ele>
        <time>2019-04-02T12:48:27Z</time>
      </trkpt>
      <trkpt lat="44.28268" lon="6.01804">
        <ele>589</ele>
        <time>2019-04-02T12:48:28Z</time>
      </trkpt>
      <trkpt lat="44.28272" lon="6.01809">
        <ele>589</ele>
        <time>2019-04-02T12:48:29Z</time>
      </trkpt>
      <trkpt lat="44.28275" lon="6.01814">
        <ele>590</ele>
        <time>2019-04-02T12:48:30Z</time>
      </trkpt>
      <trkpt lat="44.28278" lon="6.01819">
        <ele>590</ele>
        <time>2019-04-02T12:48:31Z</time>
      </trkpt>
      <trkpt lat="44.28281" lon="6.01823">
        <ele>590</ele>
        <time>2019-04-02T12:48:32Z</time>
      </trkpt>
      <trkpt lat="44.28284" lon="6.01828">
        <ele>590</ele>
        <time>2019-04-02T12:48:33Z</time>
      </trkpt>
      <trkpt lat="44.28288" lon="6.01832">
        <ele>591</ele>
        <time>2019-04-02T12:48:34Z</time>
      </trkpt>
      <trkpt lat="44.28291" lon="6.01836">
        <ele>591</ele>
        <time>2019-04-02T12:48:35Z</time>
      </trkpt>
      <trkpt lat="44.28293" lon="6.0184">
        <ele>591</ele>
        <time>2019-04-02T12:48:36Z</time>
      </trkpt>
      <trkpt lat="44.28296" lon="6.01844">
        <ele>592</ele>
        <time>2019-04-02T12:48:37Z</time>
      </trkpt>
      <trkpt lat="44.283" lon="6.01848">
        <ele>592</ele>
        <time>2019-04-02T12:48:38Z</time>
      </trkpt>
      <trkpt lat="44.28303" lon="6.01852">
        <ele>592</ele>
        <time>2019-04-02T12:48:39Z</time>
      </trkpt>
      <trkpt lat="44.28306" lon="6.01856">
        <ele>593</ele>
        <time>2019-04-02T12:48:40Z</time>
      </trkpt>
      <trkpt lat="44.28309" lon="6.0186">
        <ele>593</ele>
        <time>2019-04-02T12:48:41Z</time>
      </trkpt>
      <trkpt lat="44.28312" lon="6.01864">
        <ele>593</ele>
        <time>2019-04-02T12:48:42Z</time>
      </trkpt>
      <trkpt lat="44.28315" lon="6.01868">
        <ele>593</ele>
        <time>2019-04-02T12:48:43Z</time>
      </trkpt>
      <trkpt lat="44.28318" lon="6.01872">
        <ele>594</ele>
        <time>2019-04-02T12:48:44Z</time>
      </trkpt>
      <trkpt lat="44.28321" lon="6.01876">
        <ele>594</ele>
        <time>2019-04-02T12:48:45Z</time>
      </trkpt>
      <trkpt lat="44.28324" lon="6.0188">
        <ele>594</ele>
        <time>2019-04-02T12:48:46Z</time>
      </trkpt>
      <trkpt lat="44.28327" lon="6.01884">
        <ele>594</ele>
        <time>2019-04-02T12:48:47Z</time>
      </trkpt>
      <trkpt lat="44.2833" lon="6.01888">
        <ele>594</ele>
        <time>2019-04-02T12:48:48Z</time>
      </trkpt>
      <trkpt lat="44.28333" lon="6.01891">
        <ele>594</ele>
        <time>2019-04-02T12:48:49Z</time>
      </trkpt>
      <trkpt lat="44.28336" lon="6.01895">
        <ele>594</ele>
        <time>2019-04-02T12:48:50Z</time>
      </trkpt>
      <trkpt lat="44.28339" lon="6.01898">
        <ele>595</ele>
        <time>2019-04-02T12:48:51Z</time>
      </trkpt>
      <trkpt lat="44.28342" lon="6.01902">
        <ele>595</ele>
        <time>2019-04-02T12:48:52Z</time>
      </trkpt>
      <trkpt lat="44.28345" lon="6.01906">
        <ele>595</ele>
        <time>2019-04-02T12:48:53Z</time>
      </trkpt>
      <trkpt lat="44.28347" lon="6.0191">
        <ele>595</ele>
        <time>2019-04-02T12:48:54Z</time>
      </trkpt>
      <trkpt lat="44.2835" lon="6.01913">
        <ele>595</ele>
        <time>2019-04-02T12:48:55Z</time>
      </trkpt>
      <trkpt lat="44.28353" lon="6.01917">
        <ele>595</ele>
        <time>2019-04-02T12:48:56Z</time>
      </trkpt>
      <trkpt lat="44.28356" lon="6.01921">
        <ele>596</ele>
        <time>2019-04-02T12:48:57Z</time>
      </trkpt>
      <trkpt lat="44.28359" lon="6.01924">
        <ele>596</ele>
        <time>2019-04-02T12:48:58Z</time>
      </trkpt>
      <trkpt lat="44.28362" lon="6.01928">
        <ele>596</ele>
        <time>2019-04-02T12:48:59Z</time>
      </trkpt>
      <trkpt lat="44.28365" lon="6.01932">
        <ele>596</ele>
        <time>2019-04-02T12:49:00Z</time>
      </trkpt>
      <trkpt lat="44.28368" lon="6.01935">
        <ele>597</ele>
        <time>2019-04-02T12:49:01Z</time>
      </trkpt>
      <trkpt lat="44.28371" lon="6.01939">
        <ele>597</ele>
        <time>2019-04-02T12:49:02Z</time>
      </trkpt>
      <trkpt lat="44.28374" lon="6.01942">
        <ele>597</ele>
        <time>2019-04-02T12:49:03Z</time>
      </trkpt>
      <trkpt lat="44.28378" lon="6.01946">
        <ele>597</ele>
        <time>2019-04-02T12:49:04Z</time>
      </trkpt>
      <trkpt lat="44.28381" lon="6.0195">
        <ele>598</ele>
        <time>2019-04-02T12:49:05Z</time>
      </trkpt>
      <trkpt lat="44.28385" lon="6.01955">
        <ele>598</ele>
        <time>2019-04-02T12:49:06Z</time>
      </trkpt>
      <trkpt lat="44.28388" lon="6.01959">
        <ele>598</ele>
        <time>2019-04-02T12:49:07Z</time>
      </trkpt>
      <trkpt lat="44.28393" lon="6.01963">
        <ele>598</ele>
        <time>2019-04-02T12:49:08Z</time>
      </trkpt>
      <trkpt lat="44.28397" lon="6.01968">
        <ele>598</ele>
        <time>2019-04-02T12:49:09Z</time>
      </trkpt>
      <trkpt lat="44.28402" lon="6.01973">
        <ele>599</ele>
        <time>2019-04-02T12:49:10Z</time>
      </trkpt>
      <trkpt lat="44.28406" lon="6.01977">
        <ele>599</ele>
        <time>2019-04-02T12:49:11Z</time>
      </trkpt>
      <trkpt lat="44.2841" lon="6.01982">
        <ele>600</ele>
        <time>2019-04-02T12:49:12Z</time>
      </trkpt>
      <trkpt lat="44.28415" lon="6.01986">
        <ele>600</ele>
        <time>2019-04-02T12:49:13Z</time>
      </trkpt>
      <trkpt lat="44.28419" lon="6.01991">
        <ele>600</ele>
        <time>2019-04-02T12:49:14Z</time>
      </trkpt>
      <trkpt lat="44.28423" lon="6.01995">
        <ele>601</ele>
        <time>2019-04-02T12:49:15Z</time>
      </trkpt>
      <trkpt lat="44.28426" lon="6.02">
        <ele>601</ele>
        <time>2019-04-02T12:49:16Z</time>
      </trkpt>
      <trkpt lat="44.2843" lon="6.02004">
        <ele>601</ele>
        <time>2019-04-02T12:49:17Z</time>
      </trkpt>
      <trkpt lat="44.28434" lon="6.02009">
        <ele>601</ele>
        <time>2019-04-02T12:49:18Z</time>
      </trkpt>
      <trkpt lat="44.28437" lon="6.02013">
        <ele>601</ele>
        <time>2019-04-02T12:49:19Z</time>
      </trkpt>
      <trkpt lat="44.28441" lon="6.02018">
        <ele>601</ele>
        <time>2019-04-02T12:49:20Z</time>
      </trkpt>
      <trkpt lat="44.28445" lon="6.02022">
        <ele>601</ele>
        <time>2019-04-02T12:49:21Z</time>
      </trkpt>
      <trkpt lat="44.28449" lon="6.02027">
        <ele>601</ele>
        <time>2019-04-02T12:49:22Z</time>
      </trkpt>
      <trkpt lat="44.28453" lon="6.02031">
        <ele>601</ele>
        <time>2019-04-02T12:49:23Z</time>
      </trkpt>
      <trkpt lat="44.28457" lon="6.02036">
        <ele>602</ele>
        <time>2019-04-02T12:49:24Z</time>
      </trkpt>
      <trkpt lat="44.28461" lon="6.0204">
        <ele>602</ele>
        <time>2019-04-02T12:49:25Z</time>
      </trkpt>
      <trkpt lat="44.28465" lon="6.02045">
        <ele>602</ele>
        <time>2019-04-02T12:49:26Z</time>
      </trkpt>
      <trkpt lat="44.28469" lon="6.0205">
        <ele>602</ele>
        <time>2019-04-02T12:49:27Z</time>
      </trkpt>
      <trkpt lat="44.28473" lon="6.02055">
        <ele>602</ele>
        <time>2019-04-02T12:49:28Z</time>
      </trkpt>
      <trkpt lat="44.28477" lon="6.02059">
        <ele>602</ele>
        <time>2019-04-02T12:49:29Z</time>
      </trkpt>
      <trkpt lat="44.28481" lon="6.02063">
        <ele>602</ele>
        <time>2019-04-02T12:49:30Z</time>
      </trkpt>
      <trkpt lat="44.28485" lon="6.02068">
        <ele>602</ele>
        <time>2019-04-02T12:49:31Z</time>
      </trkpt>
      <trkpt lat="44.28489" lon="6.02072">
        <ele>602</ele>
        <time>2019-04-02T12:49:32Z</time>
      </trkpt>
      <trkpt lat="44.28493" lon="6.02077">
        <ele>602</ele>
        <time>2019-04-02T12:49:33Z</time>
      </trkpt>
      <trkpt lat="44.28497" lon="6.02081">
        <ele>602</ele>
        <time>2019-04-02T12:49:34Z</time>
      </trkpt>
      <trkpt lat="44.285" lon="6.02086">
        <ele>602</ele>
        <time>2019-04-02T12:49:35Z</time>
      </trkpt>
      <trkpt lat="44.28504" lon="6.02091">
        <ele>602</ele>
        <time>2019-04-02T12:49:36Z</time>
      </trkpt>
      <trkpt lat="44.28508" lon="6.02095">
        <ele>602</ele>
        <time>2019-04-02T12:49:37Z</time>
      </trkpt>
      <trkpt lat="44.28512" lon="6.02099">
        <ele>602</ele>
        <time>2019-04-02T12:49:38Z</time>
      </trkpt>
      <trkpt lat="44.28516" lon="6.02103">
        <ele>603</ele>
        <time>2019-04-02T12:49:39Z</time>
      </trkpt>
      <trkpt lat="44.2852" lon="6.02107">
        <ele>603</ele>
        <time>2019-04-02T12:49:40Z</time>
      </trkpt>
      <trkpt lat="44.28524" lon="6.02112">
        <ele>603</ele>
        <time>2019-04-02T12:49:41Z</time>
      </trkpt>
      <trkpt lat="44.28527" lon="6.02117">
        <ele>603</ele>
        <time>2019-04-02T12:49:42Z</time>
      </trkpt>
      <trkpt lat="44.28531" lon="6.02121">
        <ele>603</ele>
        <time>2019-04-02T12:49:43Z</time>
      </trkpt>
      <trkpt lat="44.28535" lon="6.02126">
        <ele>603</ele>
        <time>2019-04-02T12:49:44Z</time>
      </trkpt>
      <trkpt lat="44.2854" lon="6.02131">
        <ele>603</ele>
        <time>2019-04-02T12:49:45Z</time>
      </trkpt>
      <trkpt lat="44.28544" lon="6.02136">
        <ele>603</ele>
        <time>2019-04-02T12:49:46Z</time>
      </trkpt>
      <trkpt lat="44.28548" lon="6.0214">
        <ele>603</ele>
        <time>2019-04-02T12:49:47Z</time>
      </trkpt>
      <trkpt lat="44.28552" lon="6.02145">
        <ele>603</ele>
        <time>2019-04-02T12:49:48Z</time>
      </trkpt>
      <trkpt lat="44.28556" lon="6.0215">
        <ele>603</ele>
        <time>2019-04-02T12:49:49Z</time>
      </trkpt>
      <trkpt lat="44.2856" lon="6.02154">
        <ele>603</ele>
        <time>2019-04-02T12:49:50Z</time>
      </trkpt>
      <trkpt lat="44.28564" lon="6.02159">
        <ele>603</ele>
        <time>2019-04-02T12:49:51Z</time>
      </trkpt>
      <trkpt lat="44.28568" lon="6.02163">
        <ele>604</ele>
        <time>2019-04-02T12:49:52Z</time>
      </trkpt>
      <trkpt lat="44.28572" lon="6.02168">
        <ele>604</ele>
        <time>2019-04-02T12:49:53Z</time>
      </trkpt>
      <trkpt lat="44.28576" lon="6.02173">
        <ele>604</ele>
        <time>2019-04-02T12:49:54Z</time>
      </trkpt>
      <trkpt lat="44.2858" lon="6.02177">
        <ele>604</ele>
        <time>2019-04-02T12:49:55Z</time>
      </trkpt>
      <trkpt lat="44.28584" lon="6.02182">
        <ele>604</ele>
        <time>2019-04-02T12:49:56Z</time>
      </trkpt>
      <trkpt lat="44.28588" lon="6.02186">
        <ele>604</ele>
        <time>2019-04-02T12:49:57Z</time>
      </trkpt>
      <trkpt lat="44.28592" lon="6.02191">
        <ele>604</ele>
        <time>2019-04-02T12:49:58Z</time>
      </trkpt>
      <trkpt lat="44.28595" lon="6.02196">
        <ele>604</ele>
        <time>2019-04-02T12:49:59Z</time>
      </trkpt>
      <trkpt lat="44.28599" lon="6.022">
        <ele>604</ele>
        <time>2019-04-02T12:50:00Z</time>
      </trkpt>
      <trkpt lat="44.28603" lon="6.02205">
        <ele>604</ele>
        <time>2019-04-02T12:50:01Z</time>
      </trkpt>
      <trkpt lat="44.28607" lon="6.0221">
        <ele>604</ele>
        <time>2019-04-02T12:50:02Z</time>
      </trkpt>
      <trkpt lat="44.28611" lon="6.02214">
        <ele>604</ele>
        <time>2019-04-02T12:50:03Z</time>
      </trkpt>
      <trkpt lat="44.28615" lon="6.02219">
        <ele>604</ele>
        <time>2019-04-02T12:50:04Z</time>
      </trkpt>
      <trkpt lat="44.28619" lon="6.02223">
        <ele>604</ele>
        <time>2019-04-02T12:50:05Z</time>
      </trkpt>
      <trkpt lat="44.28624" lon="6.02228">
        <ele>604</ele>
        <time>2019-04-02T12:50:06Z</time>
      </trkpt>
      <trkpt lat="44.28628" lon="6.02233">
        <ele>604</ele>
        <time>2019-04-02T12:50:07Z</time>
      </trkpt>
      <trkpt lat="44.28632" lon="6.02238">
        <ele>604</ele>
        <time>2019-04-02T12:50:08Z</time>
      </trkpt>
      <trkpt lat="44.28636" lon="6.02243">
        <ele>604</ele>
        <time>2019-04-02T12:50:09Z</time>
      </trkpt>
      <trkpt lat="44.2864" lon="6.02248">
        <ele>605</ele>
        <time>2019-04-02T12:50:10Z</time>
      </trkpt>
      <trkpt lat="44.28645" lon="6.02252">
        <ele>605</ele>
        <time>2019-04-02T12:50:11Z</time>
      </trkpt>
      <trkpt lat="44.28649" lon="6.02257">
        <ele>605</ele>
        <time>2019-04-02T12:50:12Z</time>
      </trkpt>
      <trkpt lat="44.28653" lon="6.02262">
        <ele>605</ele>
        <time>2019-04-02T12:50:13Z</time>
      </trkpt>
      <trkpt lat="44.28657" lon="6.02267">
        <ele>605</ele>
        <time>2019-04-02T12:50:14Z</time>
      </trkpt>
      <trkpt lat="44.28661" lon="6.02271">
        <ele>605</ele>
        <time>2019-04-02T12:50:15Z</time>
      </trkpt>
      <trkpt lat="44.28665" lon="6.02276">
        <ele>605</ele>
        <time>2019-04-02T12:50:16Z</time>
      </trkpt>
      <trkpt lat="44.28669" lon="6.0228">
        <ele>605</ele>
        <time>2019-04-02T12:50:17Z</time>
      </trkpt>
      <trkpt lat="44.28674" lon="6.02285">
        <ele>605</ele>
        <time>2019-04-02T12:50:18Z</time>
      </trkpt>
      <trkpt lat="44.28678" lon="6.0229">
        <ele>605</ele>
        <time>2019-04-02T12:50:19Z</time>
      </trkpt>
      <trkpt lat="44.28682" lon="6.02294">
        <ele>605</ele>
        <time>2019-04-02T12:50:20Z</time>
      </trkpt>
      <trkpt lat="44.28686" lon="6.02299">
        <ele>605</ele>
        <time>2019-04-02T12:50:21Z</time>
      </trkpt>
      <trkpt lat="44.2869" lon="6.02304">
        <ele>605</ele>
        <time>2019-04-02T12:50:22Z</time>
      </trkpt>
      <trkpt lat="44.28694" lon="6.02309">
        <ele>605</ele>
        <time>2019-04-02T12:50:23Z</time>
      </trkpt>
      <trkpt lat="44.28698" lon="6.02313">
        <ele>605</ele>
        <time>2019-04-02T12:50:24Z</time>
      </trkpt>
      <trkpt lat="44.28702" lon="6.02318">
        <ele>605</ele>
        <time>2019-04-02T12:50:25Z</time>
      </trkpt>
      <trkpt lat="44.28706" lon="6.02322">
        <ele>605</ele>
        <time>2019-04-02T12:50:26Z</time>
      </trkpt>
      <trkpt lat="44.2871" lon="6.02326">
        <ele>605</ele>
        <time>2019-04-02T12:50:27Z</time>
      </trkpt>
      <trkpt lat="44.28714" lon="6.02329">
        <ele>605</ele>
        <time>2019-04-02T12:50:28Z</time>
      </trkpt>
      <trkpt lat="44.28717" lon="6.02333">
        <ele>606</ele>
        <time>2019-04-02T12:50:29Z</time>
      </trkpt>
      <trkpt lat="44.2872" lon="6.02337">
        <ele>606</ele>
        <time>2019-04-02T12:50:30Z</time>
      </trkpt>
      <trkpt lat="44.28724" lon="6.02341">
        <ele>606</ele>
        <time>2019-04-02T12:50:31Z</time>
      </trkpt>
      <trkpt lat="44.28727" lon="6.02345">
        <ele>606</ele>
        <time>2019-04-02T12:50:32Z</time>
      </trkpt>
      <trkpt lat="44.2873" lon="6.02348">
        <ele>606</ele>
        <time>2019-04-02T12:50:33Z</time>
      </trkpt>
      <trkpt lat="44.28733" lon="6.02352">
        <ele>606</ele>
        <time>2019-04-02T12:50:34Z</time>
      </trkpt>
      <trkpt lat="44.28737" lon="6.02356">
        <ele>606</ele>
        <time>2019-04-02T12:50:35Z</time>
      </trkpt>
      <trkpt lat="44.2874" lon="6.0236">
        <ele>606</ele>
        <time>2019-04-02T12:50:36Z</time>
      </trkpt>
      <trkpt lat="44.28743" lon="6.02364">
        <ele>606</ele>
        <time>2019-04-02T12:50:37Z</time>
      </trkpt>
      <trkpt lat="44.28746" lon="6.02368">
        <ele>606</ele>
        <time>2019-04-02T12:50:38Z</time>
      </trkpt>
      <trkpt lat="44.28749" lon="6.02372">
        <ele>606</ele>
        <time>2019-04-02T12:50:39Z</time>
      </trkpt>
      <trkpt lat="44.28753" lon="6.02376">
        <ele>606</ele>
        <time>2019-04-02T12:50:40Z</time>
      </trkpt>
      <trkpt lat="44.28756" lon="6.0238">
        <ele>606</ele>
        <time>2019-04-02T12:50:41Z</time>
      </trkpt>
      <trkpt lat="44.2876" lon="6.02385">
        <ele>606</ele>
        <time>2019-04-02T12:50:42Z</time>
      </trkpt>
      <trkpt lat="44.28763" lon="6.0239">
        <ele>606</ele>
        <time>2019-04-02T12:50:43Z</time>
      </trkpt>
      <trkpt lat="44.28767" lon="6.02395">
        <ele>607</ele>
        <time>2019-04-02T12:50:44Z</time>
      </trkpt>
      <trkpt lat="44.2877" lon="6.024">
        <ele>607</ele>
        <time>2019-04-02T12:50:45Z</time>
      </trkpt>
      <trkpt lat="44.28774" lon="6.02405">
        <ele>607</ele>
        <time>2019-04-02T12:50:46Z</time>
      </trkpt>
      <trkpt lat="44.28777" lon="6.02411">
        <ele>607</ele>
        <time>2019-04-02T12:50:47Z</time>
      </trkpt>
      <trkpt lat="44.28781" lon="6.02416">
        <ele>607</ele>
        <time>2019-04-02T12:50:48Z</time>
      </trkpt>
      <trkpt lat="44.28785" lon="6.02421">
        <ele>607</ele>
        <time>2019-04-02T12:50:49Z</time>
      </trkpt>
      <trkpt lat="44.28788" lon="6.02427">
        <ele>607</ele>
        <time>2019-04-02T12:50:50Z</time>
      </trkpt>
      <trkpt lat="44.28791" lon="6.02432">
        <ele>607</ele>
        <time>2019-04-02T12:50:51Z</time>
      </trkpt>
      <trkpt lat="44.28795" lon="6.02438">
        <ele>607</ele>
        <time>2019-04-02T12:50:52Z</time>
      </trkpt>
      <trkpt lat="44.28798" lon="6.02443">
        <ele>607</ele>
        <time>2019-04-02T12:50:53Z</time>
      </trkpt>
      <trkpt lat="44.28802" lon="6.02448">
        <ele>608</ele>
        <time>2019-04-02T12:50:54Z</time>
      </trkpt>
      <trkpt lat="44.28805" lon="6.02453">
        <ele>608</ele>
        <time>2019-04-02T12:50:55Z</time>
      </trkpt>
      <trkpt lat="44.28809" lon="6.02458">
        <ele>608</ele>
        <time>2019-04-02T12:50:56Z</time>
      </trkpt>
      <trkpt lat="44.28813" lon="6.02462">
        <ele>608</ele>
        <time>2019-04-02T12:50:57Z</time>
      </trkpt>
      <trkpt lat="44.28817" lon="6.02466">
        <ele>608</ele>
        <time>2019-04-02T12:50:58Z</time>
      </trkpt>
      <trkpt lat="44.28821" lon="6.0247">
        <ele>608</ele>
        <time>2019-04-02T12:50:59Z</time>
      </trkpt>
      <trkpt lat="44.28826" lon="6.02473">
        <ele>608</ele>
        <time>2019-04-02T12:51:00Z</time>
      </trkpt>
      <trkpt lat="44.28831" lon="6.02477">
        <ele>608</ele>
        <time>2019-04-02T12:51:01Z</time>
      </trkpt>
      <trkpt lat="44.28836" lon="6.02479">
        <ele>608</ele>
        <time>2019-04-02T12:51:02Z</time>
      </trkpt>
      <trkpt lat="44.28841" lon="6.02482">
        <ele>608</ele>
        <time>2019-04-02T12:51:03Z</time>
      </trkpt>
      <trkpt lat="44.28847" lon="6.02484">
        <ele>608</ele>
        <time>2019-04-02T12:51:04Z</time>
      </trkpt>
      <trkpt lat="44.28852" lon="6.02486">
        <ele>608</ele>
        <time>2019-04-02T12:51:05Z</time>
      </trkpt>
      <trkpt lat="44.28857" lon="6.02488">
        <ele>608</ele>
        <time>2019-04-02T12:51:06Z</time>
      </trkpt>
      <trkpt lat="44.28863" lon="6.02489">
        <ele>608</ele>
        <time>2019-04-02T12:51:07Z</time>
      </trkpt>
      <trkpt lat="44.28868" lon="6.02491">
        <ele>608</ele>
        <time>2019-04-02T12:51:08Z</time>
      </trkpt>
      <trkpt lat="44.28874" lon="6.02492">
        <ele>608</ele>
        <time>2019-04-02T12:51:09Z</time>
      </trkpt>
      <trkpt lat="44.28879" lon="6.02493">
        <ele>608</ele>
        <time>2019-04-02T12:51:10Z</time>
      </trkpt>
      <trkpt lat="44.28885" lon="6.02495">
        <ele>608</ele>
        <time>2019-04-02T12:51:11Z</time>
      </trkpt>
      <trkpt lat="44.28891" lon="6.02497">
        <ele>608</ele>
        <time>2019-04-02T12:51:12Z</time>
      </trkpt>
      <trkpt lat="44.28896" lon="6.02499">
        <ele>608</ele>
        <time>2019-04-02T12:51:13Z</time>
      </trkpt>
      <trkpt lat="44.28902" lon="6.02501">
        <ele>608</ele>
        <time>2019-04-02T12:51:14Z</time>
      </trkpt>
      <trkpt lat="44.28908" lon="6.02502">
        <ele>608</ele>
        <time>2019-04-02T12:51:15Z</time>
      </trkpt>
      <trkpt lat="44.28914" lon="6.02504">
        <ele>608</ele>
        <time>2019-04-02T12:51:16Z</time>
      </trkpt>
      <trkpt lat="44.2892" lon="6.02506">
        <ele>608</ele>
        <time>2019-04-02T12:51:17Z</time>
      </trkpt>
      <trkpt lat="44.28926" lon="6.02508">
        <ele>608</ele>
        <time>2019-04-02T12:51:18Z</time>
      </trkpt>
      <trkpt lat="44.28933" lon="6.02511">
        <ele>608</ele>
        <time>2019-04-02T12:51:19Z</time>
      </trkpt>
      <trkpt lat="44.28939" lon="6.02514">
        <ele>608</ele>
        <time>2019-04-02T12:51:20Z</time>
      </trkpt>
      <trkpt lat="44.28946" lon="6.02517">
        <ele>608</ele>
        <time>2019-04-02T12:51:21Z</time>
      </trkpt>
      <trkpt lat="44.28953" lon="6.0252">
        <ele>608</ele>
        <time>2019-04-02T12:51:22Z</time>
      </trkpt>
      <trkpt lat="44.2896" lon="6.02524">
        <ele>608</ele>
        <time>2019-04-02T12:51:23Z</time>
      </trkpt>
      <trkpt lat="44.28967" lon="6.02529">
        <ele>608</ele>
        <time>2019-04-02T12:51:24Z</time>
      </trkpt>
      <trkpt lat="44.28974" lon="6.02534">
        <ele>608</ele>
        <time>2019-04-02T12:51:25Z</time>
      </trkpt>
      <trkpt lat="44.28981" lon="6.02539">
        <ele>608</ele>
        <time>2019-04-02T12:51:26Z</time>
      </trkpt>
      <trkpt lat="44.28987" lon="6.02545">
        <ele>608</ele>
        <time>2019-04-02T12:51:27Z</time>
      </trkpt>
      <trkpt lat="44.28994" lon="6.02552">
        <ele>608</ele>
        <time>2019-04-02T12:51:28Z</time>
      </trkpt>
      <trkpt lat="44.29001" lon="6.02558">
        <ele>608</ele>
        <time>2019-04-02T12:51:29Z</time>
      </trkpt>
      <trkpt lat="44.29007" lon="6.02564">
        <ele>608</ele>
        <time>2019-04-02T12:51:30Z</time>
      </trkpt>
      <trkpt lat="44.29015" lon="6.02571">
        <ele>608</ele>
        <time>2019-04-02T12:51:31Z</time>
      </trkpt>
      <trkpt lat="44.29023" lon="6.02577">
        <ele>608</ele>
        <time>2019-04-02T12:51:32Z</time>
      </trkpt>
      <trkpt lat="44.2903" lon="6.02583">
        <ele>608</ele>
        <time>2019-04-02T12:51:33Z</time>
      </trkpt>
      <trkpt lat="44.29038" lon="6.0259">
        <ele>608</ele>
        <time>2019-04-02T12:51:34Z</time>
      </trkpt>
      <trkpt lat="44.29046" lon="6.02596">
        <ele>608</ele>
        <time>2019-04-02T12:51:35Z</time>
      </trkpt>
      <trkpt lat="44.29054" lon="6.02602">
        <ele>608</ele>
        <time>2019-04-02T12:51:36Z</time>
      </trkpt>
      <trkpt lat="44.29063" lon="6.02609">
        <ele>608</ele>
        <time>2019-04-02T12:51:37Z</time>
      </trkpt>
      <trkpt lat="44.29071" lon="6.02616">
        <ele>607</ele>
        <time>2019-04-02T12:51:38Z</time>
      </trkpt>
      <trkpt lat="44.2908" lon="6.02623">
        <ele>607</ele>
        <time>2019-04-02T12:51:39Z</time>
      </trkpt>
      <trkpt lat="44.29089" lon="6.0263">
        <ele>606</ele>
        <time>2019-04-02T12:51:40Z</time>
      </trkpt>
      <trkpt lat="44.29097" lon="6.02637">
        <ele>606</ele>
        <time>2019-04-02T12:51:41Z</time>
      </trkpt>
      <trkpt lat="44.29106" lon="6.02644">
        <ele>605</ele>
        <time>2019-04-02T12:51:42Z</time>
      </trkpt>
      <trkpt lat="44.29115" lon="6.02651">
        <ele>604</ele>
        <time>2019-04-02T12:51:43Z</time>
      </trkpt>
      <trkpt lat="44.29124" lon="6.02658">
        <ele>604</ele>
        <time>2019-04-02T12:51:44Z</time>
      </trkpt>
      <trkpt lat="44.29133" lon="6.02666">
        <ele>603</ele>
        <time>2019-04-02T12:51:45Z</time>
      </trkpt>
      <trkpt lat="44.29143" lon="6.02673">
        <ele>603</ele>
        <time>2019-04-02T12:51:46Z</time>
      </trkpt>
      <trkpt lat="44.29152" lon="6.0268">
        <ele>602</ele>
        <time>2019-04-02T12:51:47Z</time>
      </trkpt>
      <trkpt lat="44.29162" lon="6.02687">
        <ele>602</ele>
        <time>2019-04-02T12:51:48Z</time>
      </trkpt>
      <trkpt lat="44.29172" lon="6.02693">
        <ele>602</ele>
        <time>2019-04-02T12:51:49Z</time>
      </trkpt>
      <trkpt lat="44.29182" lon="6.02699">
        <ele>601</ele>
        <time>2019-04-02T12:51:50Z</time>
      </trkpt>
      <trkpt lat="44.29192" lon="6.02703">
        <ele>601</ele>
        <time>2019-04-02T12:51:51Z</time>
      </trkpt>
      <trkpt lat="44.29202" lon="6.02706">
        <ele>601</ele>
        <time>2019-04-02T12:51:52Z</time>
      </trkpt>
      <trkpt lat="44.29211" lon="6.02707">
        <ele>601</ele>
        <time>2019-04-02T12:51:53Z</time>
      </trkpt>
      <trkpt lat="44.29221" lon="6.02708">
        <ele>601</ele>
        <time>2019-04-02T12:51:54Z</time>
      </trkpt>
      <trkpt lat="44.2923" lon="6.02708">
        <ele>601</ele>
        <time>2019-04-02T12:51:55Z</time>
      </trkpt>
      <trkpt lat="44.2924" lon="6.02708">
        <ele>601</ele>
        <time>2019-04-02T12:51:56Z</time>
      </trkpt>
      <trkpt lat="44.29248" lon="6.02709">
        <ele>601</ele>
        <time>2019-04-02T12:51:57Z</time>
      </trkpt>
      <trkpt lat="44.29257" lon="6.0271">
        <ele>601</ele>
        <time>2019-04-02T12:51:58Z</time>
      </trkpt>
      <trkpt lat="44.29265" lon="6.02711">
        <ele>601</ele>
        <time>2019-04-02T12:51:59Z</time>
      </trkpt>
      <trkpt lat="44.29273" lon="6.02713">
        <ele>601</ele>
        <time>2019-04-02T12:52:00Z</time>
      </trkpt>
      <trkpt lat="44.2928" lon="6.02715">
        <ele>601</ele>
        <time>2019-04-02T12:52:01Z</time>
      </trkpt>
      <trkpt lat="44.29288" lon="6.02717">
        <ele>601</ele>
        <time>2019-04-02T12:52:02Z</time>
      </trkpt>
      <trkpt lat="44.29295" lon="6.02719">
        <ele>601</ele>
        <time>2019-04-02T12:52:03Z</time>
      </trkpt>
      <trkpt lat="44.29302" lon="6.02722">
        <ele>601</ele>
        <time>2019-04-02T12:52:04Z</time>
      </trkpt>
      <trkpt lat="44.29309" lon="6.02725">
        <ele>601</ele>
        <time>2019-04-02T12:52:05Z</time>
      </trkpt>
      <trkpt lat="44.29316" lon="6.02728">
        <ele>601</ele>
        <time>2019-04-02T12:52:06Z</time>
      </trkpt>
      <trkpt lat="44.29323" lon="6.02731">
        <ele>601</ele>
        <time>2019-04-02T12:52:07Z</time>
      </trkpt>
      <trkpt lat="44.2933" lon="6.02734">
        <ele>601</ele>
        <time>2019-04-02T12:52:08Z</time>
      </trkpt>
      <trkpt lat="44.29336" lon="6.02737">
        <ele>601</ele>
        <time>2019-04-02T12:52:09Z</time>
      </trkpt>
      <trkpt lat="44.29343" lon="6.0274">
        <ele>601</ele>
        <time>2019-04-02T12:52:10Z</time>
      </trkpt>
      <trkpt lat="44.2935" lon="6.02743">
        <ele>601</ele>
        <time>2019-04-02T12:52:11Z</time>
      </trkpt>
      <trkpt lat="44.29356" lon="6.02746">
        <ele>601</ele>
        <time>2019-04-02T12:52:12Z</time>
      </trkpt>
      <trkpt lat="44.29362" lon="6.02749">
        <ele>601</ele>
        <time>2019-04-02T12:52:13Z</time>
      </trkpt>
      <trkpt lat="44.29369" lon="6.02752">
        <ele>601</ele>
        <time>2019-04-02T12:52:14Z</time>
      </trkpt>
      <trkpt lat="44.29375" lon="6.02756">
        <ele>601</ele>
        <time>2019-04-02T12:52:15Z</time>
      </trkpt>
      <trkpt lat="44.29382" lon="6.02759">
        <ele>601</ele>
        <time>2019-04-02T12:52:16Z</time>
      </trkpt>
      <trkpt lat="44.29388" lon="6.02762">
        <ele>601</ele>
        <time>2019-04-02T12:52:17Z</time>
      </trkpt>
      <trkpt lat="44.29394" lon="6.02765">
        <ele>601</ele>
        <time>2019-04-02T12:52:18Z</time>
      </trkpt>
      <trkpt lat="44.29401" lon="6.02768">
        <ele>601</ele>
        <time>2019-04-02T12:52:19Z</time>
      </trkpt>
      <trkpt lat="44.29407" lon="6.0277">
        <ele>601</ele>
        <time>2019-04-02T12:52:20Z</time>
      </trkpt>
      <trkpt lat="44.29413" lon="6.02773">
        <ele>601</ele>
        <time>2019-04-02T12:52:21Z</time>
      </trkpt>
      <trkpt lat="44.29419" lon="6.02776">
        <ele>601</ele>
        <time>2019-04-02T12:52:22Z</time>
      </trkpt>
      <trkpt lat="44.29425" lon="6.02779">
        <ele>601</ele>
        <time>2019-04-02T12:52:23Z</time>
      </trkpt>
      <trkpt lat="44.29432" lon="6.02782">
        <ele>601</ele>
        <time>2019-04-02T12:52:24Z</time>
      </trkpt>
      <trkpt lat="44.29438" lon="6.02785">
        <ele>601</ele>
        <time>2019-04-02T12:52:25Z</time>
      </trkpt>
      <trkpt lat="44.29443" lon="6.02787">
        <ele>601</ele>
        <time>2019-04-02T12:52:26Z</time>
      </trkpt>
      <trkpt lat="44.29449" lon="6.0279">
        <ele>601</ele>
        <time>2019-04-02T12:52:27Z</time>
      </trkpt>
      <trkpt lat="44.29455" lon="6.02793">
        <ele>601</ele>
        <time>2019-04-02T12:52:28Z</time>
      </trkpt>
      <trkpt lat="44.29461" lon="6.02796">
        <ele>601</ele>
        <time>2019-04-02T12:52:29Z</time>
      </trkpt>
      <trkpt lat="44.29467" lon="6.02799">
        <ele>601</ele>
        <time>2019-04-02T12:52:30Z</time>
      </trkpt>
      <trkpt lat="44.29472" lon="6.02802">
        <ele>602</ele>
        <time>2019-04-02T12:52:31Z</time>
      </trkpt>
      <trkpt lat="44.29478" lon="6.02804">
        <ele>602</ele>
        <time>2019-04-02T12:52:32Z</time>
      </trkpt>
      <trkpt lat="44.29484" lon="6.02807">
        <ele>602</ele>
        <time>2019-04-02T12:52:33Z</time>
      </trkpt>
      <trkpt lat="44.2949" lon="6.0281">
        <ele>602</ele>
        <time>2019-04-02T12:52:34Z</time>
      </trkpt>
      <trkpt lat="44.29496" lon="6.02813">
        <ele>602</ele>
        <time>2019-04-02T12:52:35Z</time>
      </trkpt>
      <trkpt lat="44.29501" lon="6.02816">
        <ele>602</ele>
        <time>2019-04-02T12:52:36Z</time>
      </trkpt>
      <trkpt lat="44.29507" lon="6.02818">
        <ele>602</ele>
        <time>2019-04-02T12:52:37Z</time>
      </trkpt>
      <trkpt lat="44.29513" lon="6.02821">
        <ele>603</ele>
        <time>2019-04-02T12:52:38Z</time>
      </trkpt>
      <trkpt lat="44.29519" lon="6.02824">
        <ele>603</ele>
        <time>2019-04-02T12:52:39Z</time>
      </trkpt>
      <trkpt lat="44.29524" lon="6.02827">
        <ele>603</ele>
        <time>2019-04-02T12:52:40Z</time>
      </trkpt>
      <trkpt lat="44.2953" lon="6.02831">
        <ele>603</ele>
        <time>2019-04-02T12:52:41Z</time>
      </trkpt>
      <trkpt lat="44.29535" lon="6.02835">
        <ele>603</ele>
        <time>2019-04-02T12:52:42Z</time>
      </trkpt>
      <trkpt lat="44.29541" lon="6.02839">
        <ele>603</ele>
        <time>2019-04-02T12:52:43Z</time>
      </trkpt>
      <trkpt lat="44.29546" lon="6.02843">
        <ele>603</ele>
        <time>2019-04-02T12:52:44Z</time>
      </trkpt>
      <trkpt lat="44.29551" lon="6.02847">
        <ele>603</ele>
        <time>2019-04-02T12:52:45Z</time>
      </trkpt>
      <trkpt lat="44.29557" lon="6.02852">
        <ele>603</ele>
        <time>2019-04-02T12:52:46Z</time>
      </trkpt>
      <trkpt lat="44.29562" lon="6.02856">
        <ele>603</ele>
        <time>2019-04-02T12:52:47Z</time>
      </trkpt>
      <trkpt lat="44.29567" lon="6.02861">
        <ele>603</ele>
        <time>2019-04-02T12:52:48Z</time>
      </trkpt>
      <trkpt lat="44.29572" lon="6.02866">
        <ele>604</ele>
        <time>2019-04-02T12:52:49Z</time>
      </trkpt>
      <trkpt lat="44.29576" lon="6.02872">
        <ele>605</ele>
        <time>2019-04-02T12:52:50Z</time>
      </trkpt>
      <trkpt lat="44.29581" lon="6.02878">
        <ele>605</ele>
        <time>2019-04-02T12:52:51Z</time>
      </trkpt>
      <trkpt lat="44.29585" lon="6.02884">
        <ele>605</ele>
        <time>2019-04-02T12:52:52Z</time>
      </trkpt>
      <trkpt lat="44.29589" lon="6.0289">
        <ele>605</ele>
        <time>2019-04-02T12:52:53Z</time>
      </trkpt>
      <trkpt lat="44.29594" lon="6.02896">
        <ele>605</ele>
        <time>2019-04-02T12:52:54Z</time>
      </trkpt>
      <trkpt lat="44.29598" lon="6.02903">
        <ele>605</ele>
        <time>2019-04-02T12:52:55Z</time>
      </trkpt>
      <trkpt lat="44.29602" lon="6.0291">
        <ele>605</ele>
        <time>2019-04-02T12:52:56Z</time>
      </trkpt>
      <trkpt lat="44.29605" lon="6.02917">
        <ele>605</ele>
        <time>2019-04-02T12:52:57Z</time>
      </trkpt>
      <trkpt lat="44.29609" lon="6.02924">
        <ele>605</ele>
        <time>2019-04-02T12:52:58Z</time>
      </trkpt>
      <trkpt lat="44.29612" lon="6.02931">
        <ele>605</ele>
        <time>2019-04-02T12:52:59Z</time>
      </trkpt>
      <trkpt lat="44.29615" lon="6.02938">
        <ele>605</ele>
        <time>2019-04-02T12:53:00Z</time>
      </trkpt>
      <trkpt lat="44.29618" lon="6.02946">
        <ele>605</ele>
        <time>2019-04-02T12:53:01Z</time>
      </trkpt>
      <trkpt lat="44.2962" lon="6.02953">
        <ele>605</ele>
        <time>2019-04-02T12:53:02Z</time>
      </trkpt>
      <trkpt lat="44.29623" lon="6.0296">
        <ele>605</ele>
        <time>2019-04-02T12:53:03Z</time>
      </trkpt>
      <trkpt lat="44.29625" lon="6.02968">
        <ele>605</ele>
        <time>2019-04-02T12:53:04Z</time>
      </trkpt>
      <trkpt lat="44.29628" lon="6.02975">
        <ele>605</ele>
        <time>2019-04-02T12:53:05Z</time>
      </trkpt>
      <trkpt lat="44.2963" lon="6.02982">
        <ele>605</ele>
        <time>2019-04-02T12:53:06Z</time>
      </trkpt>
      <trkpt lat="44.29633" lon="6.02989">
        <ele>605</ele>
        <time>2019-04-02T12:53:07Z</time>
      </trkpt>
      <trkpt lat="44.29635" lon="6.02997">
        <ele>605</ele>
        <time>2019-04-02T12:53:08Z</time>
      </trkpt>
      <trkpt lat="44.29638" lon="6.03004">
        <ele>605</ele>
        <time>2019-04-02T12:53:09Z</time>
      </trkpt>
      <trkpt lat="44.2964" lon="6.03012">
        <ele>605</ele>
        <time>2019-04-02T12:53:10Z</time>
      </trkpt>
      <trkpt lat="44.29643" lon="6.03019">
        <ele>605</ele>
        <time>2019-04-02T12:53:11Z</time>
      </trkpt>
      <trkpt lat="44.29646" lon="6.03026">
        <ele>605</ele>
        <time>2019-04-02T12:53:12Z</time>
      </trkpt>
      <trkpt lat="44.29649" lon="6.03033">
        <ele>605</ele>
        <time>2019-04-02T12:53:13Z</time>
      </trkpt>
      <trkpt lat="44.29652" lon="6.03039">
        <ele>605</ele>
        <time>2019-04-02T12:53:14Z</time>
      </trkpt>
      <trkpt lat="44.29655" lon="6.03046">
        <ele>605</ele>
        <time>2019-04-02T12:53:15Z</time>
      </trkpt>
      <trkpt lat="44.29658" lon="6.03053">
        <ele>605</ele>
        <time>2019-04-02T12:53:16Z</time>
      </trkpt>
      <trkpt lat="44.29661" lon="6.03059">
        <ele>605</ele>
        <time>2019-04-02T12:53:17Z</time>
      </trkpt>
      <trkpt lat="44.29664" lon="6.03066">
        <ele>605</ele>
        <time>2019-04-02T12:53:18Z</time>
      </trkpt>
      <trkpt lat="44.29667" lon="6.03072">
        <ele>605</ele>
        <time>2019-04-02T12:53:19Z</time>
      </trkpt>
      <trkpt lat="44.2967" lon="6.03078">
        <ele>606</ele>
        <time>2019-04-02T12:53:20Z</time>
      </trkpt>
      <trkpt lat="44.29674" lon="6.03084">
        <ele>606</ele>
        <time>2019-04-02T12:53:21Z</time>
      </trkpt>
      <trkpt lat="44.29677" lon="6.0309">
        <ele>606</ele>
        <time>2019-04-02T12:53:22Z</time>
      </trkpt>
      <trkpt lat="44.29681" lon="6.03096">
        <ele>606</ele>
        <time>2019-04-02T12:53:23Z</time>
      </trkpt>
      <trkpt lat="44.29684" lon="6.03102">
        <ele>606</ele>
        <time>2019-04-02T12:53:24Z</time>
      </trkpt>
      <trkpt lat="44.29687" lon="6.03109">
        <ele>606</ele>
        <time>2019-04-02T12:53:25Z</time>
      </trkpt>
      <trkpt lat="44.29691" lon="6.03115">
        <ele>606</ele>
        <time>2019-04-02T12:53:26Z</time>
      </trkpt>
      <trkpt lat="44.29694" lon="6.03121">
        <ele>606</ele>
        <time>2019-04-02T12:53:27Z</time>
      </trkpt>
      <trkpt lat="44.29697" lon="6.03126">
        <ele>606</ele>
        <time>2019-04-02T12:53:28Z</time>
      </trkpt>
      <trkpt lat="44.297" lon="6.03132">
        <ele>606</ele>
        <time>2019-04-02T12:53:29Z</time>
      </trkpt>
      <trkpt lat="44.29704" lon="6.03138">
        <ele>607</ele>
        <time>2019-04-02T12:53:30Z</time>
      </trkpt>
      <trkpt lat="44.29707" lon="6.03143">
        <ele>607</ele>
        <time>2019-04-02T12:53:31Z</time>
      </trkpt>
      <trkpt lat="44.29711" lon="6.03149">
        <ele>607</ele>
        <time>2019-04-02T12:53:32Z</time>
      </trkpt>
      <trkpt lat="44.29715" lon="6.03155">
        <ele>608</ele>
        <time>2019-04-02T12:53:33Z</time>
      </trkpt>
      <trkpt lat="44.29719" lon="6.0316">
        <ele>608</ele>
        <time>2019-04-02T12:53:34Z</time>
      </trkpt>
      <trkpt lat="44.29723" lon="6.03165">
        <ele>608</ele>
        <time>2019-04-02T12:53:35Z</time>
      </trkpt>
      <trkpt lat="44.29727" lon="6.0317">
        <ele>609</ele>
        <time>2019-04-02T12:53:36Z</time>
      </trkpt>
      <trkpt lat="44.29731" lon="6.03175">
        <ele>609</ele>
        <time>2019-04-02T12:53:37Z</time>
      </trkpt>
      <trkpt lat="44.29735" lon="6.0318">
        <ele>609</ele>
        <time>2019-04-02T12:53:38Z</time>
      </trkpt>
      <trkpt lat="44.29739" lon="6.03185">
        <ele>609</ele>
        <time>2019-04-02T12:53:39Z</time>
      </trkpt>
      <trkpt lat="44.29744" lon="6.03189">
        <ele>609</ele>
        <time>2019-04-02T12:53:40Z</time>
      </trkpt>
      <trkpt lat="44.29748" lon="6.03193">
        <ele>609</ele>
        <time>2019-04-02T12:53:41Z</time>
      </trkpt>
      <trkpt lat="44.29753" lon="6.03197">
        <ele>609</ele>
        <time>2019-04-02T12:53:42Z</time>
      </trkpt>
      <trkpt lat="44.29757" lon="6.032">
        <ele>609</ele>
        <time>2019-04-02T12:53:43Z</time>
      </trkpt>
      <trkpt lat="44.29762" lon="6.03204">
        <ele>610</ele>
        <time>2019-04-02T12:53:44Z</time>
      </trkpt>
      <trkpt lat="44.29766" lon="6.03207">
        <ele>610</ele>
        <time>2019-04-02T12:53:45Z</time>
      </trkpt>
      <trkpt lat="44.29771" lon="6.03211">
        <ele>610</ele>
        <time>2019-04-02T12:53:46Z</time>
      </trkpt>
      <trkpt lat="44.29776" lon="6.03214">
        <ele>610</ele>
        <time>2019-04-02T12:53:47Z</time>
      </trkpt>
      <trkpt lat="44.29781" lon="6.03218">
        <ele>610</ele>
        <time>2019-04-02T12:53:48Z</time>
      </trkpt>
      <trkpt lat="44.29786" lon="6.03221">
        <ele>610</ele>
        <time>2019-04-02T12:53:49Z</time>
      </trkpt>
      <trkpt lat="44.29791" lon="6.03224">
        <ele>610</ele>
        <time>2019-04-02T12:53:50Z</time>
      </trkpt>
      <trkpt lat="44.29795" lon="6.03227">
        <ele>610</ele>
        <time>2019-04-02T12:53:51Z</time>
      </trkpt>
      <trkpt lat="44.298" lon="6.0323">
        <ele>610</ele>
        <time>2019-04-02T12:53:52Z</time>
      </trkpt>
      <trkpt lat="44.29805" lon="6.03233">
        <ele>611</ele>
        <time>2019-04-02T12:53:53Z</time>
      </trkpt>
      <trkpt lat="44.2981" lon="6.03236">
        <ele>611</ele>
        <time>2019-04-02T12:53:54Z</time>
      </trkpt>
      <trkpt lat="44.29816" lon="6.03239">
        <ele>611</ele>
        <time>2019-04-02T12:53:55Z</time>
      </trkpt>
      <trkpt lat="44.29821" lon="6.03243">
        <ele>611</ele>
        <time>2019-04-02T12:53:56Z</time>
      </trkpt>
      <trkpt lat="44.29827" lon="6.03246">
        <ele>611</ele>
        <time>2019-04-02T12:53:57Z</time>
      </trkpt>
      <trkpt lat="44.29834" lon="6.0325">
        <ele>611</ele>
        <time>2019-04-02T12:53:58Z</time>
      </trkpt>
      <trkpt lat="44.2984" lon="6.03254">
        <ele>611</ele>
        <time>2019-04-02T12:53:59Z</time>
      </trkpt>
      <trkpt lat="44.29847" lon="6.03257">
        <ele>611</ele>
        <time>2019-04-02T12:54:00Z</time>
      </trkpt>
      <trkpt lat="44.29854" lon="6.0326">
        <ele>611</ele>
        <time>2019-04-02T12:54:01Z</time>
      </trkpt>
      <trkpt lat="44.29861" lon="6.03262">
        <ele>611</ele>
        <time>2019-04-02T12:54:02Z</time>
      </trkpt>
      <trkpt lat="44.29868" lon="6.03264">
        <ele>611</ele>
        <time>2019-04-02T12:54:03Z</time>
      </trkpt>
      <trkpt lat="44.29876" lon="6.03266">
        <ele>611</ele>
        <time>2019-04-02T12:54:04Z</time>
      </trkpt>
      <trkpt lat="44.29883" lon="6.03268">
        <ele>611</ele>
        <time>2019-04-02T12:54:05Z</time>
      </trkpt>
      <trkpt lat="44.2989" lon="6.0327">
        <ele>611</ele>
        <time>2019-04-02T12:54:06Z</time>
      </trkpt>
      <trkpt lat="44.29898" lon="6.03272">
        <ele>611</ele>
        <time>2019-04-02T12:54:07Z</time>
      </trkpt>
      <trkpt lat="44.29905" lon="6.03274">
        <ele>612</ele>
        <time>2019-04-02T12:54:08Z</time>
      </trkpt>
      <trkpt lat="44.29913" lon="6.03275">
        <ele>612</ele>
        <time>2019-04-02T12:54:09Z</time>
      </trkpt>
      <trkpt lat="44.2992" lon="6.03277">
        <ele>612</ele>
        <time>2019-04-02T12:54:10Z</time>
      </trkpt>
      <trkpt lat="44.29927" lon="6.03279">
        <ele>612</ele>
        <time>2019-04-02T12:54:11Z</time>
      </trkpt>
      <trkpt lat="44.29934" lon="6.0328">
        <ele>612</ele>
        <time>2019-04-02T12:54:12Z</time>
      </trkpt>
      <trkpt lat="44.29941" lon="6.03281">
        <ele>613</ele>
        <time>2019-04-02T12:54:13Z</time>
      </trkpt>
      <trkpt lat="44.29948" lon="6.03282">
        <ele>613</ele>
        <time>2019-04-02T12:54:14Z</time>
      </trkpt>
      <trkpt lat="44.29955" lon="6.03284">
        <ele>613</ele>
        <time>2019-04-02T12:54:15Z</time>
      </trkpt>
      <trkpt lat="44.29962" lon="6.03285">
        <ele>613</ele>
        <time>2019-04-02T12:54:16Z</time>
      </trkpt>
      <trkpt lat="44.29969" lon="6.03287">
        <ele>613</ele>
        <time>2019-04-02T12:54:17Z</time>
      </trkpt>
      <trkpt lat="44.29975" lon="6.03289">
        <ele>613</ele>
        <time>2019-04-02T12:54:18Z</time>
      </trkpt>
      <trkpt lat="44.29982" lon="6.0329">
        <ele>613</ele>
        <time>2019-04-02T12:54:19Z</time>
      </trkpt>
      <trkpt lat="44.29989" lon="6.03292">
        <ele>613</ele>
        <time>2019-04-02T12:54:20Z</time>
      </trkpt>
      <trkpt lat="44.29996" lon="6.03293">
        <ele>613</ele>
        <time>2019-04-02T12:54:21Z</time>
      </trkpt>
      <trkpt lat="44.30003" lon="6.03295">
        <ele>614</ele>
        <time>2019-04-02T12:54:22Z</time>
      </trkpt>
      <trkpt lat="44.30009" lon="6.03296">
        <ele>614</ele>
        <time>2019-04-02T12:54:23Z</time>
      </trkpt>
      <trkpt lat="44.30016" lon="6.03298">
        <ele>614</ele>
        <time>2019-04-02T12:54:24Z</time>
      </trkpt>
      <trkpt lat="44.30022" lon="6.03299">
        <ele>614</ele>
        <time>2019-04-02T12:54:25Z</time>
      </trkpt>
      <trkpt lat="44.30029" lon="6.033">
        <ele>615</ele>
        <time>2019-04-02T12:54:26Z</time>
      </trkpt>
      <trkpt lat="44.30035" lon="6.03302">
        <ele>615</ele>
        <time>2019-04-02T12:54:27Z</time>
      </trkpt>
      <trkpt lat="44.30042" lon="6.03304">
        <ele>616</ele>
        <time>2019-04-02T12:54:28Z</time>
      </trkpt>
      <trkpt lat="44.30048" lon="6.03305">
        <ele>616</ele>
        <time>2019-04-02T12:54:29Z</time>
      </trkpt>
      <trkpt lat="44.30055" lon="6.03307">
        <ele>616</ele>
        <time>2019-04-02T12:54:30Z</time>
      </trkpt>
      <trkpt lat="44.30061" lon="6.03308">
        <ele>616</ele>
        <time>2019-04-02T12:54:31Z</time>
      </trkpt>
      <trkpt lat="44.30068" lon="6.0331">
        <ele>617</ele>
        <time>2019-04-02T12:54:32Z</time>
      </trkpt>
      <trkpt lat="44.30074" lon="6.03311">
        <ele>617</ele>
        <time>2019-04-02T12:54:33Z</time>
      </trkpt>
      <trkpt lat="44.30081" lon="6.03313">
        <ele>617</ele>
        <time>2019-04-02T12:54:34Z</time>
      </trkpt>
      <trkpt lat="44.30087" lon="6.03315">
        <ele>617</ele>
        <time>2019-04-02T12:54:35Z</time>
      </trkpt>
      <trkpt lat="44.30094" lon="6.03316">
        <ele>617</ele>
        <time>2019-04-02T12:54:36Z</time>
      </trkpt>
      <trkpt lat="44.30101" lon="6.03318">
        <ele>617</ele>
        <time>2019-04-02T12:54:37Z</time>
      </trkpt>
      <trkpt lat="44.30107" lon="6.03319">
        <ele>617</ele>
        <time>2019-04-02T12:54:38Z</time>
      </trkpt>
      <trkpt lat="44.30114" lon="6.0332">
        <ele>617</ele>
        <time>2019-04-02T12:54:39Z</time>
      </trkpt>
      <trkpt lat="44.3012" lon="6.03322">
        <ele>618</ele>
        <time>2019-04-02T12:54:40Z</time>
      </trkpt>
      <trkpt lat="44.30126" lon="6.03323">
        <ele>618</ele>
        <time>2019-04-02T12:54:41Z</time>
      </trkpt>
      <trkpt lat="44.30133" lon="6.03325">
        <ele>618</ele>
        <time>2019-04-02T12:54:42Z</time>
      </trkpt>
      <trkpt lat="44.3014" lon="6.03327">
        <ele>619</ele>
        <time>2019-04-02T12:54:43Z</time>
      </trkpt>
      <trkpt lat="44.30146" lon="6.03328">
        <ele>619</ele>
        <time>2019-04-02T12:54:44Z</time>
      </trkpt>
      <trkpt lat="44.30153" lon="6.0333">
        <ele>619</ele>
        <time>2019-04-02T12:54:45Z</time>
      </trkpt>
      <trkpt lat="44.30159" lon="6.03331">
        <ele>619</ele>
        <time>2019-04-02T12:54:46Z</time>
      </trkpt>
      <trkpt lat="44.30166" lon="6.03332">
        <ele>619</ele>
        <time>2019-04-02T12:54:47Z</time>
      </trkpt>
      <trkpt lat="44.30172" lon="6.03334">
        <ele>619</ele>
        <time>2019-04-02T12:54:48Z</time>
      </trkpt>
      <trkpt lat="44.30179" lon="6.03336">
        <ele>619</ele>
        <time>2019-04-02T12:54:49Z</time>
      </trkpt>
      <trkpt lat="44.30185" lon="6.03337">
        <ele>619</ele>
        <time>2019-04-02T12:54:50Z</time>
      </trkpt>
      <trkpt lat="44.30192" lon="6.03338">
        <ele>619</ele>
        <time>2019-04-02T12:54:51Z</time>
      </trkpt>
      <trkpt lat="44.30199" lon="6.0334">
        <ele>619</ele>
        <time>2019-04-02T12:54:52Z</time>
      </trkpt>
      <trkpt lat="44.30205" lon="6.03341">
        <ele>619</ele>
        <time>2019-04-02T12:54:53Z</time>
      </trkpt>
      <trkpt lat="44.30212" lon="6.03343">
        <ele>619</ele>
        <time>2019-04-02T12:54:54Z</time>
      </trkpt>
      <trkpt lat="44.30218" lon="6.03344">
        <ele>619</ele>
        <time>2019-04-02T12:54:55Z</time>
      </trkpt>
      <trkpt lat="44.30225" lon="6.03346">
        <ele>619</ele>
        <time>2019-04-02T12:54:56Z</time>
      </trkpt>
      <trkpt lat="44.30232" lon="6.03348">
        <ele>619</ele>
        <time>2019-04-02T12:54:57Z</time>
      </trkpt>
      <trkpt lat="44.30238" lon="6.03349">
        <ele>619</ele>
        <time>2019-04-02T12:54:58Z</time>
      </trkpt>
      <trkpt lat="44.30245" lon="6.03351">
        <ele>619</ele>
        <time>2019-04-02T12:54:59Z</time>
      </trkpt>
      <trkpt lat="44.30251" lon="6.03353">
        <ele>619</ele>
        <time>2019-04-02T12:55:00Z</time>
      </trkpt>
      <trkpt lat="44.30258" lon="6.03354">
        <ele>619</ele>
        <time>2019-04-02T12:55:01Z</time>
      </trkpt>
      <trkpt lat="44.30264" lon="6.03356">
        <ele>619</ele>
        <time>2019-04-02T12:55:02Z</time>
      </trkpt>
      <trkpt lat="44.3027" lon="6.03357">
        <ele>619</ele>
        <time>2019-04-02T12:55:03Z</time>
      </trkpt>
      <trkpt lat="44.30277" lon="6.03359">
        <ele>619</ele>
        <time>2019-04-02T12:55:04Z</time>
      </trkpt>
      <trkpt lat="44.30283" lon="6.03361">
        <ele>619</ele>
        <time>2019-04-02T12:55:05Z</time>
      </trkpt>
      <trkpt lat="44.3029" lon="6.03362">
        <ele>619</ele>
        <time>2019-04-02T12:55:06Z</time>
      </trkpt>
      <trkpt lat="44.30296" lon="6.03363">
        <ele>619</ele>
        <time>2019-04-02T12:55:07Z</time>
      </trkpt>
      <trkpt lat="44.30303" lon="6.03365">
        <ele>619</ele>
        <time>2019-04-02T12:55:08Z</time>
      </trkpt>
      <trkpt lat="44.3031" lon="6.03366">
        <ele>619</ele>
        <time>2019-04-02T12:55:09Z</time>
      </trkpt>
      <trkpt lat="44.30316" lon="6.03367">
        <ele>619</ele>
        <time>2019-04-02T12:55:10Z</time>
      </trkpt>
      <trkpt lat="44.30322" lon="6.03368">
        <ele>619</ele>
        <time>2019-04-02T12:55:11Z</time>
      </trkpt>
      <trkpt lat="44.30329" lon="6.0337">
        <ele>619</ele>
        <time>2019-04-02T12:55:12Z</time>
      </trkpt>
      <trkpt lat="44.30335" lon="6.03371">
        <ele>619</ele>
        <time>2019-04-02T12:55:13Z</time>
      </trkpt>
      <trkpt lat="44.30341" lon="6.03372">
        <ele>619</ele>
        <time>2019-04-02T12:55:14Z</time>
      </trkpt>
      <trkpt lat="44.30348" lon="6.03374">
        <ele>619</ele>
        <time>2019-04-02T12:55:15Z</time>
      </trkpt>
      <trkpt lat="44.30354" lon="6.03375">
        <ele>619</ele>
        <time>2019-04-02T12:55:16Z</time>
      </trkpt>
      <trkpt lat="44.30361" lon="6.03377">
        <ele>619</ele>
        <time>2019-04-02T12:55:17Z</time>
      </trkpt>
      <trkpt lat="44.30367" lon="6.03378">
        <ele>619</ele>
        <time>2019-04-02T12:55:18Z</time>
      </trkpt>
      <trkpt lat="44.30374" lon="6.03379">
        <ele>619</ele>
        <time>2019-04-02T12:55:19Z</time>
      </trkpt>
      <trkpt lat="44.30381" lon="6.0338">
        <ele>619</ele>
        <time>2019-04-02T12:55:20Z</time>
      </trkpt>
      <trkpt lat="44.30388" lon="6.03381">
        <ele>619</ele>
        <time>2019-04-02T12:55:21Z</time>
      </trkpt>
      <trkpt lat="44.30394" lon="6.03382">
        <ele>619</ele>
        <time>2019-04-02T12:55:22Z</time>
      </trkpt>
      <trkpt lat="44.30401" lon="6.03384">
        <ele>619</ele>
        <time>2019-04-02T12:55:23Z</time>
      </trkpt>
      <trkpt lat="44.30408" lon="6.03385">
        <ele>619</ele>
        <time>2019-04-02T12:55:24Z</time>
      </trkpt>
      <trkpt lat="44.30414" lon="6.03387">
        <ele>619</ele>
        <time>2019-04-02T12:55:25Z</time>
      </trkpt>
      <trkpt lat="44.3042" lon="6.03388">
        <ele>619</ele>
        <time>2019-04-02T12:55:26Z</time>
      </trkpt>
      <trkpt lat="44.30426" lon="6.0339">
        <ele>619</ele>
        <time>2019-04-02T12:55:27Z</time>
      </trkpt>
      <trkpt lat="44.30433" lon="6.03391">
        <ele>619</ele>
        <time>2019-04-02T12:55:28Z</time>
      </trkpt>
      <trkpt lat="44.30438" lon="6.03392">
        <ele>619</ele>
        <time>2019-04-02T12:55:29Z</time>
      </trkpt>
      <trkpt lat="44.30444" lon="6.03394">
        <ele>619</ele>
        <time>2019-04-02T12:55:30Z</time>
      </trkpt>
      <trkpt lat="44.3045" lon="6.03396">
        <ele>619</ele>
        <time>2019-04-02T12:55:31Z</time>
      </trkpt>
      <trkpt lat="44.30457" lon="6.03397">
        <ele>619</ele>
        <time>2019-04-02T12:55:32Z</time>
      </trkpt>
      <trkpt lat="44.30463" lon="6.03398">
        <ele>619</ele>
        <time>2019-04-02T12:55:33Z</time>
      </trkpt>
      <trkpt lat="44.30468" lon="6.034">
        <ele>619</ele>
        <time>2019-04-02T12:55:34Z</time>
      </trkpt>
      <trkpt lat="44.30474" lon="6.03402">
        <ele>619</ele>
        <time>2019-04-02T12:55:35Z</time>
      </trkpt>
      <trkpt lat="44.30481" lon="6.03403">
        <ele>619</ele>
        <time>2019-04-02T12:55:36Z</time>
      </trkpt>
      <trkpt lat="44.30486" lon="6.03404">
        <ele>619</ele>
        <time>2019-04-02T12:55:37Z</time>
      </trkpt>
      <trkpt lat="44.30492" lon="6.03405">
        <ele>619</ele>
        <time>2019-04-02T12:55:38Z</time>
      </trkpt>
      <trkpt lat="44.30498" lon="6.03407">
        <ele>619</ele>
        <time>2019-04-02T12:55:39Z</time>
      </trkpt>
      <trkpt lat="44.30504" lon="6.03408">
        <ele>619</ele>
        <time>2019-04-02T12:55:40Z</time>
      </trkpt>
      <trkpt lat="44.3051" lon="6.03409">
        <ele>619</ele>
        <time>2019-04-02T12:55:41Z</time>
      </trkpt>
      <trkpt lat="44.30515" lon="6.03411">
        <ele>619</ele>
        <time>2019-04-02T12:55:42Z</time>
      </trkpt>
      <trkpt lat="44.30521" lon="6.03412">
        <ele>619</ele>
        <time>2019-04-02T12:55:43Z</time>
      </trkpt>
      <trkpt lat="44.30527" lon="6.03414">
        <ele>619</ele>
        <time>2019-04-02T12:55:44Z</time>
      </trkpt>
      <trkpt lat="44.30532" lon="6.03416">
        <ele>619</ele>
        <time>2019-04-02T12:55:45Z</time>
      </trkpt>
      <trkpt lat="44.30538" lon="6.03419">
        <ele>619</ele>
        <time>2019-04-02T12:55:46Z</time>
      </trkpt>
      <trkpt lat="44.30544" lon="6.03421">
        <ele>619</ele>
        <time>2019-04-02T12:55:47Z</time>
      </trkpt>
      <trkpt lat="44.3055" lon="6.03424">
        <ele>619</ele>
        <time>2019-04-02T12:55:48Z</time>
      </trkpt>
      <trkpt lat="44.30555" lon="6.03426">
        <ele>619</ele>
        <time>2019-04-02T12:55:49Z</time>
      </trkpt>
      <trkpt lat="44.30561" lon="6.03429">
        <ele>619</ele>
        <time>2019-04-02T12:55:50Z</time>
      </trkpt>
      <trkpt lat="44.30566" lon="6.03433">
        <ele>619</ele>
        <time>2019-04-02T12:55:51Z</time>
      </trkpt>
      <trkpt lat="44.30572" lon="6.03436">
        <ele>619</ele>
        <time>2019-04-02T12:55:52Z</time>
      </trkpt>
      <trkpt lat="44.30577" lon="6.0344">
        <ele>619</ele>
        <time>2019-04-02T12:55:53Z</time>
      </trkpt>
      <trkpt lat="44.30582" lon="6.03444">
        <ele>619</ele>
        <time>2019-04-02T12:55:54Z</time>
      </trkpt>
      <trkpt lat="44.30587" lon="6.03449">
        <ele>619</ele>
        <time>2019-04-02T12:55:55Z</time>
      </trkpt>
      <trkpt lat="44.30592" lon="6.03454">
        <ele>619</ele>
        <time>2019-04-02T12:55:56Z</time>
      </trkpt>
      <trkpt lat="44.30598" lon="6.03459">
        <ele>619</ele>
        <time>2019-04-02T12:55:57Z</time>
      </trkpt>
      <trkpt lat="44.30603" lon="6.03464">
        <ele>619</ele>
        <time>2019-04-02T12:55:58Z</time>
      </trkpt>
      <trkpt lat="44.30608" lon="6.03468">
        <ele>619</ele>
        <time>2019-04-02T12:55:59Z</time>
      </trkpt>
      <trkpt lat="44.30613" lon="6.03473">
        <ele>619</ele>
        <time>2019-04-02T12:56:00Z</time>
      </trkpt>
      <trkpt lat="44.30618" lon="6.03477">
        <ele>619</ele>
        <time>2019-04-02T12:56:01Z</time>
      </trkpt>
      <trkpt lat="44.30624" lon="6.03482">
        <ele>619</ele>
        <time>2019-04-02T12:56:02Z</time>
      </trkpt>
      <trkpt lat="44.30629" lon="6.03486">
        <ele>619</ele>
        <time>2019-04-02T12:56:03Z</time>
      </trkpt>
      <trkpt lat="44.30634" lon="6.03491">
        <ele>619</ele>
        <time>2019-04-02T12:56:04Z</time>
      </trkpt>
      <trkpt lat="44.3064" lon="6.03495">
        <ele>619</ele>
        <time>2019-04-02T12:56:05Z</time>
      </trkpt>
      <trkpt lat="44.30645" lon="6.03499">
        <ele>619</ele>
        <time>2019-04-02T12:56:06Z</time>
      </trkpt>
      <trkpt lat="44.30651" lon="6.03503">
        <ele>619</ele>
        <time>2019-04-02T12:56:07Z</time>
      </trkpt>
      <trkpt lat="44.30656" lon="6.03507">
        <ele>620</ele>
        <time>2019-04-02T12:56:08Z</time>
      </trkpt>
      <trkpt lat="44.30662" lon="6.0351">
        <ele>620</ele>
        <time>2019-04-02T12:56:09Z</time>
      </trkpt>
      <trkpt lat="44.30668" lon="6.03513">
        <ele>620</ele>
        <time>2019-04-02T12:56:10Z</time>
      </trkpt>
      <trkpt lat="44.30674" lon="6.03515">
        <ele>620</ele>
        <time>2019-04-02T12:56:11Z</time>
      </trkpt>
      <trkpt lat="44.30679" lon="6.03518">
        <ele>621</ele>
        <time>2019-04-02T12:56:12Z</time>
      </trkpt>
      <trkpt lat="44.30686" lon="6.0352">
        <ele>621</ele>
        <time>2019-04-02T12:56:13Z</time>
      </trkpt>
      <trkpt lat="44.30692" lon="6.03522">
        <ele>621</ele>
        <time>2019-04-02T12:56:14Z</time>
      </trkpt>
      <trkpt lat="44.30698" lon="6.03523">
        <ele>621</ele>
        <time>2019-04-02T12:56:15Z</time>
      </trkpt>
      <trkpt lat="44.30705" lon="6.03525">
        <ele>622</ele>
        <time>2019-04-02T12:56:16Z</time>
      </trkpt>
      <trkpt lat="44.30711" lon="6.03526">
        <ele>622</ele>
        <time>2019-04-02T12:56:17Z</time>
      </trkpt>
      <trkpt lat="44.30717" lon="6.03527">
        <ele>622</ele>
        <time>2019-04-02T12:56:18Z</time>
      </trkpt>
      <trkpt lat="44.30723" lon="6.03528">
        <ele>622</ele>
        <time>2019-04-02T12:56:19Z</time>
      </trkpt>
      <trkpt lat="44.3073" lon="6.03529">
        <ele>622</ele>
        <time>2019-04-02T12:56:20Z</time>
      </trkpt>
      <trkpt lat="44.30736" lon="6.0353">
        <ele>622</ele>
        <time>2019-04-02T12:56:21Z</time>
      </trkpt>
      <trkpt lat="44.30743" lon="6.03531">
        <ele>623</ele>
        <time>2019-04-02T12:56:22Z</time>
      </trkpt>
      <trkpt lat="44.30749" lon="6.03531">
        <ele>623</ele>
        <time>2019-04-02T12:56:23Z</time>
      </trkpt>
      <trkpt lat="44.30755" lon="6.03532">
        <ele>624</ele>
        <time>2019-04-02T12:56:24Z</time>
      </trkpt>
      <trkpt lat="44.30761" lon="6.03533">
        <ele>625</ele>
        <time>2019-04-02T12:56:25Z</time>
      </trkpt>
      <trkpt lat="44.30768" lon="6.03534">
        <ele>625</ele>
        <time>2019-04-02T12:56:26Z</time>
      </trkpt>
      <trkpt lat="44.30775" lon="6.03535">
        <ele>626</ele>
        <time>2019-04-02T12:56:27Z</time>
      </trkpt>
      <trkpt lat="44.30782" lon="6.03535">
        <ele>626</ele>
        <time>2019-04-02T12:56:28Z</time>
      </trkpt>
      <trkpt lat="44.30789" lon="6.03536">
        <ele>626</ele>
        <time>2019-04-02T12:56:29Z</time>
      </trkpt>
      <trkpt lat="44.30796" lon="6.03536">
        <ele>626</ele>
        <time>2019-04-02T12:56:30Z</time>
      </trkpt>
      <trkpt lat="44.30803" lon="6.03536">
        <ele>626</ele>
        <time>2019-04-02T12:56:31Z</time>
      </trkpt>
      <trkpt lat="44.3081" lon="6.03536">
        <ele>626</ele>
        <time>2019-04-02T12:56:32Z</time>
      </trkpt>
      <trkpt lat="44.30816" lon="6.03536">
        <ele>626</ele>
        <time>2019-04-02T12:56:33Z</time>
      </trkpt>
      <trkpt lat="44.30823" lon="6.03535">
        <ele>626</ele>
        <time>2019-04-02T12:56:34Z</time>
      </trkpt>
      <trkpt lat="44.3083" lon="6.03535">
        <ele>626</ele>
        <time>2019-04-02T12:56:35Z</time>
      </trkpt>
      <trkpt lat="44.30836" lon="6.03535">
        <ele>626</ele>
        <time>2019-04-02T12:56:36Z</time>
      </trkpt>
      <trkpt lat="44.30843" lon="6.03535">
        <ele>626</ele>
        <time>2019-04-02T12:56:37Z</time>
      </trkpt>
      <trkpt lat="44.3085" lon="6.03534">
        <ele>626</ele>
        <time>2019-04-02T12:56:38Z</time>
      </trkpt>
      <trkpt lat="44.30856" lon="6.03534">
        <ele>626</ele>
        <time>2019-04-02T12:56:39Z</time>
      </trkpt>
      <trkpt lat="44.30863" lon="6.03533">
        <ele>626</ele>
        <time>2019-04-02T12:56:40Z</time>
      </trkpt>
      <trkpt lat="44.3087" lon="6.03533">
        <ele>626</ele>
        <time>2019-04-02T12:56:41Z</time>
      </trkpt>
      <trkpt lat="44.30876" lon="6.03533">
        <ele>626</ele>
        <time>2019-04-02T12:56:42Z</time>
      </trkpt>
      <trkpt lat="44.30883" lon="6.03532">
        <ele>626</ele>
        <time>2019-04-02T12:56:43Z</time>
      </trkpt>
      <trkpt lat="44.3089" lon="6.03531">
        <ele>627</ele>
        <time>2019-04-02T12:56:44Z</time>
      </trkpt>
      <trkpt lat="44.30896" lon="6.03531">
        <ele>627</ele>
        <time>2019-04-02T12:56:45Z</time>
      </trkpt>
      <trkpt lat="44.30903" lon="6.03531">
        <ele>627</ele>
        <time>2019-04-02T12:56:46Z</time>
      </trkpt>
      <trkpt lat="44.30909" lon="6.0353">
        <ele>627</ele>
        <time>2019-04-02T12:56:47Z</time>
      </trkpt>
      <trkpt lat="44.30916" lon="6.0353">
        <ele>627</ele>
        <time>2019-04-02T12:56:48Z</time>
      </trkpt>
      <trkpt lat="44.30922" lon="6.0353">
        <ele>628</ele>
        <time>2019-04-02T12:56:49Z</time>
      </trkpt>
      <trkpt lat="44.30929" lon="6.03529">
        <ele>628</ele>
        <time>2019-04-02T12:56:50Z</time>
      </trkpt>
      <trkpt lat="44.30935" lon="6.03529">
        <ele>628</ele>
        <time>2019-04-02T12:56:51Z</time>
      </trkpt>
      <trkpt lat="44.30942" lon="6.03528">
        <ele>628</ele>
        <time>2019-04-02T12:56:52Z</time>
      </trkpt>
      <trkpt lat="44.30948" lon="6.03528">
        <ele>628</ele>
        <time>2019-04-02T12:56:53Z</time>
      </trkpt>
      <trkpt lat="44.30955" lon="6.03527">
        <ele>628</ele>
        <time>2019-04-02T12:56:54Z</time>
      </trkpt>
      <trkpt lat="44.30961" lon="6.03527">
        <ele>629</ele>
        <time>2019-04-02T12:56:55Z</time>
      </trkpt>
      <trkpt lat="44.30967" lon="6.03527">
        <ele>629</ele>
        <time>2019-04-02T12:56:56Z</time>
      </trkpt>
      <trkpt lat="44.30974" lon="6.03526">
        <ele>629</ele>
        <time>2019-04-02T12:56:57Z</time>
      </trkpt>
      <trkpt lat="44.3098" lon="6.03526">
        <ele>629</ele>
        <time>2019-04-02T12:56:58Z</time>
      </trkpt>
      <trkpt lat="44.30986" lon="6.03526">
        <ele>629</ele>
        <time>2019-04-02T12:56:59Z</time>
      </trkpt>
      <trkpt lat="44.30993" lon="6.03526">
        <ele>629</ele>
        <time>2019-04-02T12:57:00Z</time>
      </trkpt>
      <trkpt lat="44.30999" lon="6.03526">
        <ele>629</ele>
        <time>2019-04-02T12:57:01Z</time>
      </trkpt>
      <trkpt lat="44.31005" lon="6.03526">
        <ele>629</ele>
        <time>2019-04-02T12:57:02Z</time>
      </trkpt>
      <trkpt lat="44.31012" lon="6.03526">
        <ele>629</ele>
        <time>2019-04-02T12:57:03Z</time>
      </trkpt>
      <trkpt lat="44.31018" lon="6.03526">
        <ele>629</ele>
        <time>2019-04-02T12:57:04Z</time>
      </trkpt>
      <trkpt lat="44.31025" lon="6.03526">
        <ele>629</ele>
        <time>2019-04-02T12:57:05Z</time>
      </trkpt>
      <trkpt lat="44.31031" lon="6.03527">
        <ele>629</ele>
        <time>2019-04-02T12:57:06Z</time>
      </trkpt>
      <trkpt lat="44.31037" lon="6.03528">
        <ele>630</ele>
        <time>2019-04-02T12:57:07Z</time>
      </trkpt>
      <trkpt lat="44.31043" lon="6.03529">
        <ele>630</ele>
        <time>2019-04-02T12:57:08Z</time>
      </trkpt>
      <trkpt lat="44.31049" lon="6.0353">
        <ele>630</ele>
        <time>2019-04-02T12:57:09Z</time>
      </trkpt>
      <trkpt lat="44.31056" lon="6.03531">
        <ele>630</ele>
        <time>2019-04-02T12:57:10Z</time>
      </trkpt>
      <trkpt lat="44.31062" lon="6.03533">
        <ele>630</ele>
        <time>2019-04-02T12:57:11Z</time>
      </trkpt>
      <trkpt lat="44.31068" lon="6.03534">
        <ele>630</ele>
        <time>2019-04-02T12:57:12Z</time>
      </trkpt>
      <trkpt lat="44.31074" lon="6.03535">
        <ele>630</ele>
        <time>2019-04-02T12:57:13Z</time>
      </trkpt>
      <trkpt lat="44.31081" lon="6.03536">
        <ele>630</ele>
        <time>2019-04-02T12:57:14Z</time>
      </trkpt>
      <trkpt lat="44.31087" lon="6.03538">
        <ele>630</ele>
        <time>2019-04-02T12:57:15Z</time>
      </trkpt>
      <trkpt lat="44.31093" lon="6.03539">
        <ele>630</ele>
        <time>2019-04-02T12:57:16Z</time>
      </trkpt>
      <trkpt lat="44.311" lon="6.0354">
        <ele>630</ele>
        <time>2019-04-02T12:57:17Z</time>
      </trkpt>
      <trkpt lat="44.31106" lon="6.03541">
        <ele>630</ele>
        <time>2019-04-02T12:57:18Z</time>
      </trkpt>
      <trkpt lat="44.31112" lon="6.03542">
        <ele>630</ele>
        <time>2019-04-02T12:57:19Z</time>
      </trkpt>
      <trkpt lat="44.31118" lon="6.03544">
        <ele>630</ele>
        <time>2019-04-02T12:57:20Z</time>
      </trkpt>
      <trkpt lat="44.31125" lon="6.03545">
        <ele>631</ele>
        <time>2019-04-02T12:57:21Z</time>
      </trkpt>
      <trkpt lat="44.31131" lon="6.03546">
        <ele>631</ele>
        <time>2019-04-02T12:57:22Z</time>
      </trkpt>
      <trkpt lat="44.31137" lon="6.03546">
        <ele>631</ele>
        <time>2019-04-02T12:57:23Z</time>
      </trkpt>
      <trkpt lat="44.31143" lon="6.03547">
        <ele>631</ele>
        <time>2019-04-02T12:57:24Z</time>
      </trkpt>
      <trkpt lat="44.31149" lon="6.03548">
        <ele>631</ele>
        <time>2019-04-02T12:57:25Z</time>
      </trkpt>
      <trkpt lat="44.31155" lon="6.03548">
        <ele>631</ele>
        <time>2019-04-02T12:57:26Z</time>
      </trkpt>
      <trkpt lat="44.31161" lon="6.03549">
        <ele>631</ele>
        <time>2019-04-02T12:57:27Z</time>
      </trkpt>
      <trkpt lat="44.31167" lon="6.03549">
        <ele>631</ele>
        <time>2019-04-02T12:57:28Z</time>
      </trkpt>
      <trkpt lat="44.31173" lon="6.03549">
        <ele>631</ele>
        <time>2019-04-02T12:57:29Z</time>
      </trkpt>
      <trkpt lat="44.31179" lon="6.03549">
        <ele>631</ele>
        <time>2019-04-02T12:57:30Z</time>
      </trkpt>
      <trkpt lat="44.31185" lon="6.03549">
        <ele>631</ele>
        <time>2019-04-02T12:57:31Z</time>
      </trkpt>
      <trkpt lat="44.31191" lon="6.03549">
        <ele>631</ele>
        <time>2019-04-02T12:57:32Z</time>
      </trkpt>
      <trkpt lat="44.31197" lon="6.03548">
        <ele>632</ele>
        <time>2019-04-02T12:57:33Z</time>
      </trkpt>
      <trkpt lat="44.31203" lon="6.03548">
        <ele>632</ele>
        <time>2019-04-02T12:57:34Z</time>
      </trkpt>
      <trkpt lat="44.3121" lon="6.03548">
        <ele>632</ele>
        <time>2019-04-02T12:57:35Z</time>
      </trkpt>
      <trkpt lat="44.31216" lon="6.03548">
        <ele>632</ele>
        <time>2019-04-02T12:57:36Z</time>
      </trkpt>
      <trkpt lat="44.31222" lon="6.03548">
        <ele>632</ele>
        <time>2019-04-02T12:57:37Z</time>
      </trkpt>
      <trkpt lat="44.31229" lon="6.03547">
        <ele>632</ele>
        <time>2019-04-02T12:57:38Z</time>
      </trkpt>
      <trkpt lat="44.31235" lon="6.03547">
        <ele>632</ele>
        <time>2019-04-02T12:57:39Z</time>
      </trkpt>
      <trkpt lat="44.31242" lon="6.03547">
        <ele>632</ele>
        <time>2019-04-02T12:57:40Z</time>
      </trkpt>
      <trkpt lat="44.31248" lon="6.03546">
        <ele>632</ele>
        <time>2019-04-02T12:57:41Z</time>
      </trkpt>
      <trkpt lat="44.31254" lon="6.03546">
        <ele>632</ele>
        <time>2019-04-02T12:57:42Z</time>
      </trkpt>
      <trkpt lat="44.31261" lon="6.03546">
        <ele>632</ele>
        <time>2019-04-02T12:57:43Z</time>
      </trkpt>
      <trkpt lat="44.31267" lon="6.03545">
        <ele>632</ele>
        <time>2019-04-02T12:57:44Z</time>
      </trkpt>
      <trkpt lat="44.31274" lon="6.03545">
        <ele>632</ele>
        <time>2019-04-02T12:57:45Z</time>
      </trkpt>
      <trkpt lat="44.3128" lon="6.03544">
        <ele>632</ele>
        <time>2019-04-02T12:57:46Z</time>
      </trkpt>
      <trkpt lat="44.31287" lon="6.03544">
        <ele>632</ele>
        <time>2019-04-02T12:57:47Z</time>
      </trkpt>
      <trkpt lat="44.31293" lon="6.03544">
        <ele>632</ele>
        <time>2019-04-02T12:57:48Z</time>
      </trkpt>
      <trkpt lat="44.31299" lon="6.03543">
        <ele>632</ele>
        <time>2019-04-02T12:57:49Z</time>
      </trkpt>
      <trkpt lat="44.31305" lon="6.03543">
        <ele>632</ele>
        <time>2019-04-02T12:57:50Z</time>
      </trkpt>
      <trkpt lat="44.31312" lon="6.03543">
        <ele>632</ele>
        <time>2019-04-02T12:57:51Z</time>
      </trkpt>
      <trkpt lat="44.31318" lon="6.03542">
        <ele>632</ele>
        <time>2019-04-02T12:57:52Z</time>
      </trkpt>
      <trkpt lat="44.31324" lon="6.03542">
        <ele>632</ele>
        <time>2019-04-02T12:57:53Z</time>
      </trkpt>
      <trkpt lat="44.3133" lon="6.03541">
        <ele>632</ele>
        <time>2019-04-02T12:57:54Z</time>
      </trkpt>
      <trkpt lat="44.31336" lon="6.03541">
        <ele>632</ele>
        <time>2019-04-02T12:57:55Z</time>
      </trkpt>
      <trkpt lat="44.31342" lon="6.03541">
        <ele>632</ele>
        <time>2019-04-02T12:57:56Z</time>
      </trkpt>
      <trkpt lat="44.31348" lon="6.03541">
        <ele>632</ele>
        <time>2019-04-02T12:57:57Z</time>
      </trkpt>
      <trkpt lat="44.31354" lon="6.0354">
        <ele>632</ele>
        <time>2019-04-02T12:57:58Z</time>
      </trkpt>
      <trkpt lat="44.3136" lon="6.0354">
        <ele>632</ele>
        <time>2019-04-02T12:57:59Z</time>
      </trkpt>
      <trkpt lat="44.31366" lon="6.03539">
        <ele>632</ele>
        <time>2019-04-02T12:58:00Z</time>
      </trkpt>
      <trkpt lat="44.31372" lon="6.03539">
        <ele>633</ele>
        <time>2019-04-02T12:58:01Z</time>
      </trkpt>
      <trkpt lat="44.31379" lon="6.03538">
        <ele>633</ele>
        <time>2019-04-02T12:58:02Z</time>
      </trkpt>
      <trkpt lat="44.31385" lon="6.03538">
        <ele>633</ele>
        <time>2019-04-02T12:58:03Z</time>
      </trkpt>
      <trkpt lat="44.31391" lon="6.03537">
        <ele>633</ele>
        <time>2019-04-02T12:58:04Z</time>
      </trkpt>
      <trkpt lat="44.31397" lon="6.03535">
        <ele>633</ele>
        <time>2019-04-02T12:58:05Z</time>
      </trkpt>
      <trkpt lat="44.31403" lon="6.03534">
        <ele>633</ele>
        <time>2019-04-02T12:58:06Z</time>
      </trkpt>
      <trkpt lat="44.31409" lon="6.03533">
        <ele>634</ele>
        <time>2019-04-02T12:58:07Z</time>
      </trkpt>
      <trkpt lat="44.31415" lon="6.03532">
        <ele>634</ele>
        <time>2019-04-02T12:58:08Z</time>
      </trkpt>
      <trkpt lat="44.31421" lon="6.0353">
        <ele>634</ele>
        <time>2019-04-02T12:58:09Z</time>
      </trkpt>
      <trkpt lat="44.31427" lon="6.03528">
        <ele>634</ele>
        <time>2019-04-02T12:58:10Z</time>
      </trkpt>
      <trkpt lat="44.31432" lon="6.03526">
        <ele>634</ele>
        <time>2019-04-02T12:58:11Z</time>
      </trkpt>
      <trkpt lat="44.31438" lon="6.03524">
        <ele>635</ele>
        <time>2019-04-02T12:58:12Z</time>
      </trkpt>
      <trkpt lat="44.31444" lon="6.03522">
        <ele>635</ele>
        <time>2019-04-02T12:58:13Z</time>
      </trkpt>
      <trkpt lat="44.31449" lon="6.0352">
        <ele>635</ele>
        <time>2019-04-02T12:58:14Z</time>
      </trkpt>
      <trkpt lat="44.31455" lon="6.03519">
        <ele>635</ele>
        <time>2019-04-02T12:58:15Z</time>
      </trkpt>
      <trkpt lat="44.31461" lon="6.03517">
        <ele>635</ele>
        <time>2019-04-02T12:58:16Z</time>
      </trkpt>
      <trkpt lat="44.31467" lon="6.03515">
        <ele>635</ele>
        <time>2019-04-02T12:58:17Z</time>
      </trkpt>
      <trkpt lat="44.31473" lon="6.03513">
        <ele>635</ele>
        <time>2019-04-02T12:58:18Z</time>
      </trkpt>
      <trkpt lat="44.31479" lon="6.03511">
        <ele>636</ele>
        <time>2019-04-02T12:58:19Z</time>
      </trkpt>
      <trkpt lat="44.31485" lon="6.0351">
        <ele>636</ele>
        <time>2019-04-02T12:58:20Z</time>
      </trkpt>
      <trkpt lat="44.3149" lon="6.03508">
        <ele>636</ele>
        <time>2019-04-02T12:58:21Z</time>
      </trkpt>
      <trkpt lat="44.31496" lon="6.03505">
        <ele>636</ele>
        <time>2019-04-02T12:58:22Z</time>
      </trkpt>
      <trkpt lat="44.31502" lon="6.03503">
        <ele>636</ele>
        <time>2019-04-02T12:58:23Z</time>
      </trkpt>
      <trkpt lat="44.31508" lon="6.035">
        <ele>636</ele>
        <time>2019-04-02T12:58:24Z</time>
      </trkpt>
      <trkpt lat="44.31514" lon="6.03496">
        <ele>636</ele>
        <time>2019-04-02T12:58:25Z</time>
      </trkpt>
      <trkpt lat="44.31519" lon="6.03492">
        <ele>636</ele>
        <time>2019-04-02T12:58:26Z</time>
      </trkpt>
      <trkpt lat="44.31525" lon="6.03489">
        <ele>636</ele>
        <time>2019-04-02T12:58:27Z</time>
      </trkpt>
      <trkpt lat="44.31531" lon="6.03485">
        <ele>636</ele>
        <time>2019-04-02T12:58:28Z</time>
      </trkpt>
      <trkpt lat="44.31536" lon="6.0348">
        <ele>636</ele>
        <time>2019-04-02T12:58:29Z</time>
      </trkpt>
      <trkpt lat="44.31542" lon="6.03476">
        <ele>636</ele>
        <time>2019-04-02T12:58:30Z</time>
      </trkpt>
      <trkpt lat="44.31547" lon="6.03471">
        <ele>636</ele>
        <time>2019-04-02T12:58:31Z</time>
      </trkpt>
      <trkpt lat="44.31553" lon="6.03466">
        <ele>636</ele>
        <time>2019-04-02T12:58:32Z</time>
      </trkpt>
      <trkpt lat="44.31558" lon="6.0346">
        <ele>636</ele>
        <time>2019-04-02T12:58:33Z</time>
      </trkpt>
      <trkpt lat="44.31563" lon="6.03454">
        <ele>637</ele>
        <time>2019-04-02T12:58:34Z</time>
      </trkpt>
      <trkpt lat="44.31568" lon="6.03449">
        <ele>637</ele>
        <time>2019-04-02T12:58:35Z</time>
      </trkpt>
      <trkpt lat="44.31573" lon="6.03443">
        <ele>637</ele>
        <time>2019-04-02T12:58:36Z</time>
      </trkpt>
      <trkpt lat="44.31578" lon="6.03437">
        <ele>637</ele>
        <time>2019-04-02T12:58:37Z</time>
      </trkpt>
      <trkpt lat="44.31583" lon="6.03432">
        <ele>637</ele>
        <time>2019-04-02T12:58:38Z</time>
      </trkpt>
      <trkpt lat="44.31588" lon="6.03426">
        <ele>637</ele>
        <time>2019-04-02T12:58:39Z</time>
      </trkpt>
      <trkpt lat="44.31592" lon="6.0342">
        <ele>637</ele>
        <time>2019-04-02T12:58:40Z</time>
      </trkpt>
      <trkpt lat="44.31597" lon="6.03414">
        <ele>637</ele>
        <time>2019-04-02T12:58:41Z</time>
      </trkpt>
      <trkpt lat="44.31601" lon="6.03409">
        <ele>637</ele>
        <time>2019-04-02T12:58:42Z</time>
      </trkpt>
      <trkpt lat="44.31607" lon="6.03403">
        <ele>638</ele>
        <time>2019-04-02T12:58:43Z</time>
      </trkpt>
      <trkpt lat="44.31611" lon="6.03397">
        <ele>638</ele>
        <time>2019-04-02T12:58:44Z</time>
      </trkpt>
      <trkpt lat="44.31616" lon="6.03391">
        <ele>638</ele>
        <time>2019-04-02T12:58:45Z</time>
      </trkpt>
      <trkpt lat="44.31621" lon="6.03385">
        <ele>638</ele>
        <time>2019-04-02T12:58:46Z</time>
      </trkpt>
      <trkpt lat="44.31626" lon="6.03379">
        <ele>638</ele>
        <time>2019-04-02T12:58:47Z</time>
      </trkpt>
      <trkpt lat="44.31631" lon="6.03372">
        <ele>638</ele>
        <time>2019-04-02T12:58:48Z</time>
      </trkpt>
      <trkpt lat="44.31636" lon="6.03366">
        <ele>639</ele>
        <time>2019-04-02T12:58:49Z</time>
      </trkpt>
      <trkpt lat="44.31641" lon="6.0336">
        <ele>639</ele>
        <time>2019-04-02T12:58:50Z</time>
      </trkpt>
      <trkpt lat="44.31647" lon="6.03354">
        <ele>639</ele>
        <time>2019-04-02T12:58:51Z</time>
      </trkpt>
      <trkpt lat="44.31652" lon="6.03348">
        <ele>640</ele>
        <time>2019-04-02T12:58:52Z</time>
      </trkpt>
      <trkpt lat="44.31657" lon="6.03342">
        <ele>640</ele>
        <time>2019-04-02T12:58:53Z</time>
      </trkpt>
      <trkpt lat="44.31662" lon="6.03337">
        <ele>640</ele>
        <time>2019-04-02T12:58:54Z</time>
      </trkpt>
      <trkpt lat="44.31667" lon="6.03331">
        <ele>640</ele>
        <time>2019-04-02T12:58:55Z</time>
      </trkpt>
      <trkpt lat="44.31672" lon="6.03325">
        <ele>640</ele>
        <time>2019-04-02T12:58:56Z</time>
      </trkpt>
      <trkpt lat="44.31676" lon="6.03319">
        <ele>640</ele>
        <time>2019-04-02T12:58:57Z</time>
      </trkpt>
      <trkpt lat="44.31681" lon="6.03313">
        <ele>640</ele>
        <time>2019-04-02T12:58:58Z</time>
      </trkpt>
      <trkpt lat="44.31686" lon="6.03308">
        <ele>640</ele>
        <time>2019-04-02T12:58:59Z</time>
      </trkpt>
      <trkpt lat="44.31691" lon="6.03302">
        <ele>640</ele>
        <time>2019-04-02T12:59:00Z</time>
      </trkpt>
      <trkpt lat="44.31696" lon="6.03297">
        <ele>640</ele>
        <time>2019-04-02T12:59:01Z</time>
      </trkpt>
      <trkpt lat="44.31701" lon="6.03291">
        <ele>640</ele>
        <time>2019-04-02T12:59:02Z</time>
      </trkpt>
      <trkpt lat="44.31706" lon="6.03285">
        <ele>640</ele>
        <time>2019-04-02T12:59:03Z</time>
      </trkpt>
      <trkpt lat="44.31711" lon="6.03279">
        <ele>640</ele>
        <time>2019-04-02T12:59:04Z</time>
      </trkpt>
      <trkpt lat="44.31716" lon="6.03273">
        <ele>640</ele>
        <time>2019-04-02T12:59:05Z</time>
      </trkpt>
      <trkpt lat="44.31721" lon="6.03268">
        <ele>640</ele>
        <time>2019-04-02T12:59:06Z</time>
      </trkpt>
      <trkpt lat="44.31726" lon="6.03262">
        <ele>640</ele>
        <time>2019-04-02T12:59:07Z</time>
      </trkpt>
      <trkpt lat="44.31732" lon="6.03256">
        <ele>640</ele>
        <time>2019-04-02T12:59:08Z</time>
      </trkpt>
      <trkpt lat="44.31737" lon="6.0325">
        <ele>640</ele>
        <time>2019-04-02T12:59:09Z</time>
      </trkpt>
      <trkpt lat="44.31742" lon="6.03244">
        <ele>640</ele>
        <time>2019-04-02T12:59:10Z</time>
      </trkpt>
      <trkpt lat="44.31747" lon="6.03238">
        <ele>640</ele>
        <time>2019-04-02T12:59:11Z</time>
      </trkpt>
      <trkpt lat="44.31752" lon="6.03232">
        <ele>640</ele>
        <time>2019-04-02T12:59:12Z</time>
      </trkpt>
      <trkpt lat="44.31757" lon="6.03226">
        <ele>640</ele>
        <time>2019-04-02T12:59:13Z</time>
      </trkpt>
      <trkpt lat="44.31762" lon="6.03221">
        <ele>640</ele>
        <time>2019-04-02T12:59:14Z</time>
      </trkpt>
      <trkpt lat="44.31767" lon="6.03215">
        <ele>640</ele>
        <time>2019-04-02T12:59:15Z</time>
      </trkpt>
      <trkpt lat="44.31772" lon="6.03209">
        <ele>640</ele>
        <time>2019-04-02T12:59:16Z</time>
      </trkpt>
      <trkpt lat="44.31777" lon="6.03204">
        <ele>640</ele>
        <time>2019-04-02T12:59:17Z</time>
      </trkpt>
      <trkpt lat="44.31782" lon="6.03198">
        <ele>640</ele>
        <time>2019-04-02T12:59:18Z</time>
      </trkpt>
      <trkpt lat="44.31787" lon="6.03193">
        <ele>640</ele>
        <time>2019-04-02T12:59:19Z</time>
      </trkpt>
      <trkpt lat="44.31792" lon="6.03187">
        <ele>640</ele>
        <time>2019-04-02T12:59:20Z</time>
      </trkpt>
      <trkpt lat="44.31797" lon="6.03182">
        <ele>640</ele>
        <time>2019-04-02T12:59:21Z</time>
      </trkpt>
      <trkpt lat="44.31801" lon="6.03176">
        <ele>640</ele>
        <time>2019-04-02T12:59:22Z</time>
      </trkpt>
      <trkpt lat="44.31806" lon="6.03171">
        <ele>640</ele>
        <time>2019-04-02T12:59:23Z</time>
      </trkpt>
      <trkpt lat="44.31811" lon="6.03166">
        <ele>640</ele>
        <time>2019-04-02T12:59:24Z</time>
      </trkpt>
      <trkpt lat="44.31816" lon="6.0316">
        <ele>640</ele>
        <time>2019-04-02T12:59:25Z</time>
      </trkpt>
      <trkpt lat="44.3182" lon="6.03155">
        <ele>640</ele>
        <time>2019-04-02T12:59:26Z</time>
      </trkpt>
      <trkpt lat="44.31825" lon="6.0315">
        <ele>640</ele>
        <time>2019-04-02T12:59:27Z</time>
      </trkpt>
      <trkpt lat="44.3183" lon="6.03144">
        <ele>640</ele>
        <time>2019-04-02T12:59:28Z</time>
      </trkpt>
      <trkpt lat="44.31834" lon="6.03139">
        <ele>640</ele>
        <time>2019-04-02T12:59:29Z</time>
      </trkpt>
      <trkpt lat="44.31839" lon="6.03133">
        <ele>640</ele>
        <time>2019-04-02T12:59:30Z</time>
      </trkpt>
      <trkpt lat="44.31844" lon="6.03128">
        <ele>640</ele>
        <time>2019-04-02T12:59:31Z</time>
      </trkpt>
      <trkpt lat="44.31848" lon="6.03123">
        <ele>640</ele>
        <time>2019-04-02T12:59:32Z</time>
      </trkpt>
      <trkpt lat="44.31853" lon="6.03118">
        <ele>640</ele>
        <time>2019-04-02T12:59:33Z</time>
      </trkpt>
      <trkpt lat="44.31858" lon="6.03112">
        <ele>640</ele>
        <time>2019-04-02T12:59:34Z</time>
      </trkpt>
      <trkpt lat="44.31862" lon="6.03107">
        <ele>640</ele>
        <time>2019-04-02T12:59:35Z</time>
      </trkpt>
      <trkpt lat="44.31867" lon="6.03102">
        <ele>640</ele>
        <time>2019-04-02T12:59:36Z</time>
      </trkpt>
      <trkpt lat="44.31871" lon="6.03097">
        <ele>640</ele>
        <time>2019-04-02T12:59:37Z</time>
      </trkpt>
      <trkpt lat="44.31876" lon="6.03091">
        <ele>640</ele>
        <time>2019-04-02T12:59:38Z</time>
      </trkpt>
      <trkpt lat="44.31881" lon="6.03086">
        <ele>640</ele>
        <time>2019-04-02T12:59:39Z</time>
      </trkpt>
      <trkpt lat="44.31885" lon="6.03081">
        <ele>640</ele>
        <time>2019-04-02T12:59:40Z</time>
      </trkpt>
      <trkpt lat="44.31889" lon="6.03076">
        <ele>640</ele>
        <time>2019-04-02T12:59:41Z</time>
      </trkpt>
      <trkpt lat="44.31894" lon="6.03071">
        <ele>640</ele>
        <time>2019-04-02T12:59:42Z</time>
      </trkpt>
      <trkpt lat="44.31898" lon="6.03066">
        <ele>640</ele>
        <time>2019-04-02T12:59:43Z</time>
      </trkpt>
      <trkpt lat="44.31903" lon="6.03062">
        <ele>640</ele>
        <time>2019-04-02T12:59:44Z</time>
      </trkpt>
      <trkpt lat="44.31908" lon="6.03057">
        <ele>640</ele>
        <time>2019-04-02T12:59:45Z</time>
      </trkpt>
      <trkpt lat="44.31913" lon="6.03054">
        <ele>640</ele>
        <time>2019-04-02T12:59:46Z</time>
      </trkpt>
      <trkpt lat="44.31918" lon="6.0305">
        <ele>640</ele>
        <time>2019-04-02T12:59:47Z</time>
      </trkpt>
      <trkpt lat="44.31924" lon="6.03046">
        <ele>640</ele>
        <time>2019-04-02T12:59:48Z</time>
      </trkpt>
      <trkpt lat="44.31929" lon="6.03042">
        <ele>640</ele>
        <time>2019-04-02T12:59:49Z</time>
      </trkpt>
      <trkpt lat="44.31934" lon="6.03038">
        <ele>640</ele>
        <time>2019-04-02T12:59:50Z</time>
      </trkpt>
      <trkpt lat="44.3194" lon="6.03035">
        <ele>640</ele>
        <time>2019-04-02T12:59:51Z</time>
      </trkpt>
      <trkpt lat="44.31945" lon="6.03032">
        <ele>641</ele>
        <time>2019-04-02T12:59:52Z</time>
      </trkpt>
      <trkpt lat="44.3195" lon="6.0303">
        <ele>641</ele>
        <time>2019-04-02T12:59:53Z</time>
      </trkpt>
      <trkpt lat="44.31956" lon="6.03027">
        <ele>641</ele>
        <time>2019-04-02T12:59:54Z</time>
      </trkpt>
      <trkpt lat="44.31961" lon="6.03024">
        <ele>642</ele>
        <time>2019-04-02T12:59:55Z</time>
      </trkpt>
      <trkpt lat="44.31966" lon="6.03021">
        <ele>642</ele>
        <time>2019-04-02T12:59:56Z</time>
      </trkpt>
      <trkpt lat="44.31971" lon="6.03019">
        <ele>643</ele>
        <time>2019-04-02T12:59:57Z</time>
      </trkpt>
      <trkpt lat="44.31977" lon="6.03017">
        <ele>643</ele>
        <time>2019-04-02T12:59:58Z</time>
      </trkpt>
      <trkpt lat="44.31983" lon="6.03016">
        <ele>644</ele>
        <time>2019-04-02T12:59:59Z</time>
      </trkpt>
      <trkpt lat="44.31989" lon="6.03014">
        <ele>644</ele>
        <time>2019-04-02T13:00:00Z</time>
      </trkpt>
      <trkpt lat="44.31995" lon="6.03013">
        <ele>644</ele>
        <time>2019-04-02T13:00:01Z</time>
      </trkpt>
      <trkpt lat="44.32001" lon="6.03013">
        <ele>644</ele>
        <time>2019-04-02T13:00:02Z</time>
      </trkpt>
      <trkpt lat="44.32006" lon="6.03012">
        <ele>645</ele>
        <time>2019-04-02T13:00:03Z</time>
      </trkpt>
      <trkpt lat="44.32012" lon="6.03012">
        <ele>645</ele>
        <time>2019-04-02T13:00:04Z</time>
      </trkpt>
      <trkpt lat="44.32018" lon="6.03012">
        <ele>645</ele>
        <time>2019-04-02T13:00:05Z</time>
      </trkpt>
      <trkpt lat="44.32023" lon="6.03012">
        <ele>645</ele>
        <time>2019-04-02T13:00:06Z</time>
      </trkpt>
      <trkpt lat="44.32029" lon="6.03012">
        <ele>646</ele>
        <time>2019-04-02T13:00:07Z</time>
      </trkpt>
      <trkpt lat="44.32034" lon="6.03013">
        <ele>646</ele>
        <time>2019-04-02T13:00:08Z</time>
      </trkpt>
      <trkpt lat="44.3204" lon="6.03013">
        <ele>647</ele>
        <time>2019-04-02T13:00:09Z</time>
      </trkpt>
      <trkpt lat="44.32046" lon="6.03013">
        <ele>647</ele>
        <time>2019-04-02T13:00:10Z</time>
      </trkpt>
      <trkpt lat="44.32051" lon="6.03013">
        <ele>647</ele>
        <time>2019-04-02T13:00:11Z</time>
      </trkpt>
      <trkpt lat="44.32058" lon="6.03013">
        <ele>648</ele>
        <time>2019-04-02T13:00:12Z</time>
      </trkpt>
      <trkpt lat="44.32063" lon="6.03014">
        <ele>648</ele>
        <time>2019-04-02T13:00:13Z</time>
      </trkpt>
      <trkpt lat="44.32069" lon="6.03014">
        <ele>648</ele>
        <time>2019-04-02T13:00:14Z</time>
      </trkpt>
      <trkpt lat="44.32074" lon="6.03014">
        <ele>649</ele>
        <time>2019-04-02T13:00:15Z</time>
      </trkpt>
      <trkpt lat="44.3208" lon="6.03015">
        <ele>649</ele>
        <time>2019-04-02T13:00:16Z</time>
      </trkpt>
      <trkpt lat="44.32085" lon="6.03015">
        <ele>650</ele>
        <time>2019-04-02T13:00:17Z</time>
      </trkpt>
      <trkpt lat="44.3209" lon="6.03015">
        <ele>650</ele>
        <time>2019-04-02T13:00:18Z</time>
      </trkpt>
      <trkpt lat="44.32096" lon="6.03016">
        <ele>650</ele>
        <time>2019-04-02T13:00:19Z</time>
      </trkpt>
      <trkpt lat="44.32101" lon="6.03016">
        <ele>650</ele>
        <time>2019-04-02T13:00:20Z</time>
      </trkpt>
      <trkpt lat="44.32107" lon="6.03017">
        <ele>651</ele>
        <time>2019-04-02T13:00:21Z</time>
      </trkpt>
      <trkpt lat="44.32113" lon="6.03017">
        <ele>651</ele>
        <time>2019-04-02T13:00:22Z</time>
      </trkpt>
      <trkpt lat="44.32119" lon="6.03018">
        <ele>651</ele>
        <time>2019-04-02T13:00:23Z</time>
      </trkpt>
      <trkpt lat="44.32124" lon="6.03018">
        <ele>651</ele>
        <time>2019-04-02T13:00:24Z</time>
      </trkpt>
      <trkpt lat="44.3213" lon="6.03019">
        <ele>651</ele>
        <time>2019-04-02T13:00:25Z</time>
      </trkpt>
      <trkpt lat="44.32136" lon="6.03019">
        <ele>651</ele>
        <time>2019-04-02T13:00:26Z</time>
      </trkpt>
      <trkpt lat="44.32143" lon="6.03019">
        <ele>652</ele>
        <time>2019-04-02T13:00:27Z</time>
      </trkpt>
      <trkpt lat="44.32149" lon="6.0302">
        <ele>652</ele>
        <time>2019-04-02T13:00:28Z</time>
      </trkpt>
      <trkpt lat="44.32155" lon="6.0302">
        <ele>652</ele>
        <time>2019-04-02T13:00:29Z</time>
      </trkpt>
      <trkpt lat="44.32161" lon="6.03021">
        <ele>652</ele>
        <time>2019-04-02T13:00:30Z</time>
      </trkpt>
      <trkpt lat="44.32168" lon="6.03021">
        <ele>652</ele>
        <time>2019-04-02T13:00:31Z</time>
      </trkpt>
      <trkpt lat="44.32175" lon="6.03022">
        <ele>652</ele>
        <time>2019-04-02T13:00:32Z</time>
      </trkpt>
      <trkpt lat="44.32181" lon="6.03022">
        <ele>652</ele>
        <time>2019-04-02T13:00:33Z</time>
      </trkpt>
      <trkpt lat="44.32188" lon="6.03023">
        <ele>652</ele>
        <time>2019-04-02T13:00:34Z</time>
      </trkpt>
      <trkpt lat="44.32195" lon="6.03024">
        <ele>652</ele>
        <time>2019-04-02T13:00:35Z</time>
      </trkpt>
      <trkpt lat="44.32201" lon="6.03024">
        <ele>652</ele>
        <time>2019-04-02T13:00:36Z</time>
      </trkpt>
      <trkpt lat="44.32207" lon="6.03025">
        <ele>652</ele>
        <time>2019-04-02T13:00:37Z</time>
      </trkpt>
      <trkpt lat="44.32214" lon="6.03026">
        <ele>652</ele>
        <time>2019-04-02T13:00:38Z</time>
      </trkpt>
      <trkpt lat="44.3222" lon="6.03026">
        <ele>652</ele>
        <time>2019-04-02T13:00:39Z</time>
      </trkpt>
      <trkpt lat="44.32227" lon="6.03027">
        <ele>653</ele>
        <time>2019-04-02T13:00:40Z</time>
      </trkpt>
      <trkpt lat="44.32233" lon="6.03027">
        <ele>653</ele>
        <time>2019-04-02T13:00:41Z</time>
      </trkpt>
      <trkpt lat="44.32239" lon="6.03027">
        <ele>653</ele>
        <time>2019-04-02T13:00:42Z</time>
      </trkpt>
      <trkpt lat="44.32245" lon="6.03028">
        <ele>653</ele>
        <time>2019-04-02T13:00:43Z</time>
      </trkpt>
      <trkpt lat="44.3225" lon="6.03028">
        <ele>653</ele>
        <time>2019-04-02T13:00:44Z</time>
      </trkpt>
      <trkpt lat="44.32255" lon="6.03029">
        <ele>653</ele>
        <time>2019-04-02T13:00:45Z</time>
      </trkpt>
      <trkpt lat="44.3226" lon="6.03029">
        <ele>653</ele>
        <time>2019-04-02T13:00:46Z</time>
      </trkpt>
      <trkpt lat="44.32266" lon="6.0303">
        <ele>654</ele>
        <time>2019-04-02T13:00:47Z</time>
      </trkpt>
      <trkpt lat="44.32271" lon="6.0303">
        <ele>654</ele>
        <time>2019-04-02T13:00:48Z</time>
      </trkpt>
      <trkpt lat="44.32276" lon="6.0303">
        <ele>654</ele>
        <time>2019-04-02T13:00:49Z</time>
      </trkpt>
      <trkpt lat="44.32281" lon="6.0303">
        <ele>654</ele>
        <time>2019-04-02T13:00:50Z</time>
      </trkpt>
      <trkpt lat="44.32286" lon="6.03029">
        <ele>654</ele>
        <time>2019-04-02T13:00:51Z</time>
      </trkpt>
      <trkpt lat="44.32291" lon="6.03029">
        <ele>654</ele>
        <time>2019-04-02T13:00:52Z</time>
      </trkpt>
      <trkpt lat="44.32296" lon="6.03029">
        <ele>654</ele>
        <time>2019-04-02T13:00:53Z</time>
      </trkpt>
      <trkpt lat="44.32302" lon="6.03028">
        <ele>654</ele>
        <time>2019-04-02T13:00:54Z</time>
      </trkpt>
      <trkpt lat="44.32307" lon="6.03027">
        <ele>655</ele>
        <time>2019-04-02T13:00:55Z</time>
      </trkpt>
      <trkpt lat="44.32312" lon="6.03026">
        <ele>655</ele>
        <time>2019-04-02T13:00:56Z</time>
      </trkpt>
      <trkpt lat="44.32317" lon="6.03024">
        <ele>655</ele>
        <time>2019-04-02T13:00:57Z</time>
      </trkpt>
      <trkpt lat="44.32323" lon="6.03023">
        <ele>655</ele>
        <time>2019-04-02T13:00:58Z</time>
      </trkpt>
      <trkpt lat="44.32328" lon="6.03022">
        <ele>655</ele>
        <time>2019-04-02T13:00:59Z</time>
      </trkpt>
      <trkpt lat="44.32333" lon="6.0302">
        <ele>656</ele>
        <time>2019-04-02T13:01:00Z</time>
      </trkpt>
      <trkpt lat="44.32338" lon="6.03019">
        <ele>656</ele>
        <time>2019-04-02T13:01:01Z</time>
      </trkpt>
      <trkpt lat="44.32344" lon="6.03018">
        <ele>656</ele>
        <time>2019-04-02T13:01:02Z</time>
      </trkpt>
      <trkpt lat="44.32348" lon="6.03016">
        <ele>657</ele>
        <time>2019-04-02T13:01:03Z</time>
      </trkpt>
      <trkpt lat="44.32352" lon="6.03015">
        <ele>657</ele>
        <time>2019-04-02T13:01:04Z</time>
      </trkpt>
      <trkpt lat="44.32357" lon="6.03013">
        <ele>657</ele>
        <time>2019-04-02T13:01:05Z</time>
      </trkpt>
      <trkpt lat="44.32362" lon="6.03012">
        <ele>658</ele>
        <time>2019-04-02T13:01:06Z</time>
      </trkpt>
      <trkpt lat="44.32367" lon="6.0301">
        <ele>658</ele>
        <time>2019-04-02T13:01:07Z</time>
      </trkpt>
      <trkpt lat="44.32373" lon="6.03008">
        <ele>658</ele>
        <time>2019-04-02T13:01:08Z</time>
      </trkpt>
      <trkpt lat="44.32378" lon="6.03007">
        <ele>659</ele>
        <time>2019-04-02T13:01:09Z</time>
      </trkpt>
      <trkpt lat="44.32383" lon="6.03005">
        <ele>659</ele>
        <time>2019-04-02T13:01:10Z</time>
      </trkpt>
      <trkpt lat="44.32388" lon="6.03004">
        <ele>659</ele>
        <time>2019-04-02T13:01:11Z</time>
      </trkpt>
      <trkpt lat="44.32393" lon="6.03002">
        <ele>659</ele>
        <time>2019-04-02T13:01:12Z</time>
      </trkpt>
      <trkpt lat="44.32397" lon="6.03">
        <ele>660</ele>
        <time>2019-04-02T13:01:13Z</time>
      </trkpt>
      <trkpt lat="44.32402" lon="6.02999">
        <ele>660</ele>
        <time>2019-04-02T13:01:14Z</time>
      </trkpt>
      <trkpt lat="44.32407" lon="6.02997">
        <ele>660</ele>
        <time>2019-04-02T13:01:15Z</time>
      </trkpt>
      <trkpt lat="44.32412" lon="6.02996">
        <ele>660</ele>
        <time>2019-04-02T13:01:16Z</time>
      </trkpt>
      <trkpt lat="44.32417" lon="6.02994">
        <ele>660</ele>
        <time>2019-04-02T13:01:17Z</time>
      </trkpt>
      <trkpt lat="44.32422" lon="6.02993">
        <ele>660</ele>
        <time>2019-04-02T13:01:18Z</time>
      </trkpt>
      <trkpt lat="44.32427" lon="6.02991">
        <ele>660</ele>
        <time>2019-04-02T13:01:19Z</time>
      </trkpt>
      <trkpt lat="44.32432" lon="6.0299">
        <ele>660</ele>
        <time>2019-04-02T13:01:20Z</time>
      </trkpt>
      <trkpt lat="44.32437" lon="6.02988">
        <ele>660</ele>
        <time>2019-04-02T13:01:21Z</time>
      </trkpt>
      <trkpt lat="44.32442" lon="6.02987">
        <ele>660</ele>
        <time>2019-04-02T13:01:22Z</time>
      </trkpt>
      <trkpt lat="44.32447" lon="6.02985">
        <ele>660</ele>
        <time>2019-04-02T13:01:23Z</time>
      </trkpt>
      <trkpt lat="44.32451" lon="6.02983">
        <ele>660</ele>
        <time>2019-04-02T13:01:24Z</time>
      </trkpt>
      <trkpt lat="44.32456" lon="6.02982">
        <ele>660</ele>
        <time>2019-04-02T13:01:25Z</time>
      </trkpt>
      <trkpt lat="44.32461" lon="6.0298">
        <ele>660</ele>
        <time>2019-04-02T13:01:26Z</time>
      </trkpt>
      <trkpt lat="44.32465" lon="6.02979">
        <ele>660</ele>
        <time>2019-04-02T13:01:27Z</time>
      </trkpt>
      <trkpt lat="44.3247" lon="6.02977">
        <ele>660</ele>
        <time>2019-04-02T13:01:28Z</time>
      </trkpt>
      <trkpt lat="44.32475" lon="6.02976">
        <ele>660</ele>
        <time>2019-04-02T13:01:29Z</time>
      </trkpt>
      <trkpt lat="44.3248" lon="6.02975">
        <ele>660</ele>
        <time>2019-04-02T13:01:30Z</time>
      </trkpt>
      <trkpt lat="44.32484" lon="6.02973">
        <ele>660</ele>
        <time>2019-04-02T13:01:31Z</time>
      </trkpt>
      <trkpt lat="44.32489" lon="6.02971">
        <ele>660</ele>
        <time>2019-04-02T13:01:32Z</time>
      </trkpt>
      <trkpt lat="44.32494" lon="6.0297">
        <ele>660</ele>
        <time>2019-04-02T13:01:33Z</time>
      </trkpt>
      <trkpt lat="44.32498" lon="6.02968">
        <ele>660</ele>
        <time>2019-04-02T13:01:34Z</time>
      </trkpt>
      <trkpt lat="44.32503" lon="6.02967">
        <ele>660</ele>
        <time>2019-04-02T13:01:35Z</time>
      </trkpt>
      <trkpt lat="44.32507" lon="6.02966">
        <ele>660</ele>
        <time>2019-04-02T13:01:36Z</time>
      </trkpt>
      <trkpt lat="44.32512" lon="6.02964">
        <ele>660</ele>
        <time>2019-04-02T13:01:37Z</time>
      </trkpt>
      <trkpt lat="44.32516" lon="6.02962">
        <ele>660</ele>
        <time>2019-04-02T13:01:38Z</time>
      </trkpt>
      <trkpt lat="44.32521" lon="6.02961">
        <ele>660</ele>
        <time>2019-04-02T13:01:39Z</time>
      </trkpt>
      <trkpt lat="44.32526" lon="6.02959">
        <ele>660</ele>
        <time>2019-04-02T13:01:40Z</time>
      </trkpt>
      <trkpt lat="44.32531" lon="6.02958">
        <ele>660</ele>
        <time>2019-04-02T13:01:41Z</time>
      </trkpt>
      <trkpt lat="44.32536" lon="6.02956">
        <ele>660</ele>
        <time>2019-04-02T13:01:42Z</time>
      </trkpt>
      <trkpt lat="44.3254" lon="6.02954">
        <ele>660</ele>
        <time>2019-04-02T13:01:43Z</time>
      </trkpt>
      <trkpt lat="44.32545" lon="6.02953">
        <ele>660</ele>
        <time>2019-04-02T13:01:44Z</time>
      </trkpt>
      <trkpt lat="44.3255" lon="6.02951">
        <ele>660</ele>
        <time>2019-04-02T13:01:45Z</time>
      </trkpt>
      <trkpt lat="44.32555" lon="6.02949">
        <ele>660</ele>
        <time>2019-04-02T13:01:46Z</time>
      </trkpt>
      <trkpt lat="44.3256" lon="6.02947">
        <ele>661</ele>
        <time>2019-04-02T13:01:47Z</time>
      </trkpt>
      <trkpt lat="44.32565" lon="6.02946">
        <ele>661</ele>
        <time>2019-04-02T13:01:48Z</time>
      </trkpt>
      <trkpt lat="44.3257" lon="6.02944">
        <ele>661</ele>
        <time>2019-04-02T13:01:49Z</time>
      </trkpt>
      <trkpt lat="44.32575" lon="6.02943">
        <ele>661</ele>
        <time>2019-04-02T13:01:50Z</time>
      </trkpt>
      <trkpt lat="44.3258" lon="6.02941">
        <ele>661</ele>
        <time>2019-04-02T13:01:51Z</time>
      </trkpt>
      <trkpt lat="44.32585" lon="6.0294">
        <ele>661</ele>
        <time>2019-04-02T13:01:52Z</time>
      </trkpt>
      <trkpt lat="44.3259" lon="6.02939">
        <ele>661</ele>
        <time>2019-04-02T13:01:53Z</time>
      </trkpt>
      <trkpt lat="44.32596" lon="6.02937">
        <ele>661</ele>
        <time>2019-04-02T13:01:54Z</time>
      </trkpt>
      <trkpt lat="44.32601" lon="6.02936">
        <ele>661</ele>
        <time>2019-04-02T13:01:55Z</time>
      </trkpt>
      <trkpt lat="44.32606" lon="6.02935">
        <ele>661</ele>
        <time>2019-04-02T13:01:56Z</time>
      </trkpt>
      <trkpt lat="44.32612" lon="6.02934">
        <ele>661</ele>
        <time>2019-04-02T13:01:57Z</time>
      </trkpt>
      <trkpt lat="44.32617" lon="6.02933">
        <ele>661</ele>
        <time>2019-04-02T13:01:58Z</time>
      </trkpt>
      <trkpt lat="44.32623" lon="6.02932">
        <ele>661</ele>
        <time>2019-04-02T13:01:59Z</time>
      </trkpt>
      <trkpt lat="44.32628" lon="6.02931">
        <ele>661</ele>
        <time>2019-04-02T13:02:00Z</time>
      </trkpt>
      <trkpt lat="44.32634" lon="6.0293">
        <ele>661</ele>
        <time>2019-04-02T13:02:01Z</time>
      </trkpt>
      <trkpt lat="44.3264" lon="6.0293">
        <ele>661</ele>
        <time>2019-04-02T13:02:02Z</time>
      </trkpt>
      <trkpt lat="44.32646" lon="6.02929">
        <ele>661</ele>
        <time>2019-04-02T13:02:03Z</time>
      </trkpt>
      <trkpt lat="44.32652" lon="6.02929">
        <ele>661</ele>
        <time>2019-04-02T13:02:04Z</time>
      </trkpt>
      <trkpt lat="44.32658" lon="6.02928">
        <ele>661</ele>
        <time>2019-04-02T13:02:05Z</time>
      </trkpt>
      <trkpt lat="44.32664" lon="6.02928">
        <ele>661</ele>
        <time>2019-04-02T13:02:06Z</time>
      </trkpt>
      <trkpt lat="44.3267" lon="6.02929">
        <ele>661</ele>
        <time>2019-04-02T13:02:07Z</time>
      </trkpt>
      <trkpt lat="44.32676" lon="6.02929">
        <ele>661</ele>
        <time>2019-04-02T13:02:08Z</time>
      </trkpt>
      <trkpt lat="44.32682" lon="6.02929">
        <ele>661</ele>
        <time>2019-04-02T13:02:09Z</time>
      </trkpt>
      <trkpt lat="44.32687" lon="6.02929">
        <ele>661</ele>
        <time>2019-04-02T13:02:10Z</time>
      </trkpt>
      <trkpt lat="44.32693" lon="6.02929">
        <ele>661</ele>
        <time>2019-04-02T13:02:11Z</time>
      </trkpt>
      <trkpt lat="44.32698" lon="6.02929">
        <ele>661</ele>
        <time>2019-04-02T13:02:12Z</time>
      </trkpt>
      <trkpt lat="44.32703" lon="6.02929">
        <ele>661</ele>
        <time>2019-04-02T13:02:13Z</time>
      </trkpt>
      <trkpt lat="44.32708" lon="6.02929">
        <ele>661</ele>
        <time>2019-04-02T13:02:14Z</time>
      </trkpt>
      <trkpt lat="44.32713" lon="6.02929">
        <ele>662</ele>
        <time>2019-04-02T13:02:15Z</time>
      </trkpt>
      <trkpt lat="44.32717" lon="6.02929">
        <ele>662</ele>
        <time>2019-04-02T13:02:16Z</time>
      </trkpt>
      <trkpt lat="44.32722" lon="6.0293">
        <ele>662</ele>
        <time>2019-04-02T13:02:17Z</time>
      </trkpt>
      <trkpt lat="44.32726" lon="6.0293">
        <ele>662</ele>
        <time>2019-04-02T13:02:18Z</time>
      </trkpt>
      <trkpt lat="44.3273" lon="6.0293">
        <ele>662</ele>
        <time>2019-04-02T13:02:19Z</time>
      </trkpt>
      <trkpt lat="44.32735" lon="6.0293">
        <ele>662</ele>
        <time>2019-04-02T13:02:20Z</time>
      </trkpt>
      <trkpt lat="44.32739" lon="6.0293">
        <ele>663</ele>
        <time>2019-04-02T13:02:21Z</time>
      </trkpt>
      <trkpt lat="44.32743" lon="6.0293">
        <ele>663</ele>
        <time>2019-04-02T13:02:22Z</time>
      </trkpt>
      <trkpt lat="44.32747" lon="6.0293">
        <ele>663</ele>
        <time>2019-04-02T13:02:23Z</time>
      </trkpt>
      <trkpt lat="44.32751" lon="6.02931">
        <ele>663</ele>
        <time>2019-04-02T13:02:24Z</time>
      </trkpt>
      <trkpt lat="44.32755" lon="6.02931">
        <ele>663</ele>
        <time>2019-04-02T13:02:25Z</time>
      </trkpt>
      <trkpt lat="44.32759" lon="6.02931">
        <ele>664</ele>
        <time>2019-04-02T13:02:26Z</time>
      </trkpt>
      <trkpt lat="44.32763" lon="6.02932">
        <ele>664</ele>
        <time>2019-04-02T13:02:27Z</time>
      </trkpt>
      <trkpt lat="44.32767" lon="6.02932">
        <ele>664</ele>
        <time>2019-04-02T13:02:28Z</time>
      </trkpt>
      <trkpt lat="44.32771" lon="6.02932">
        <ele>665</ele>
        <time>2019-04-02T13:02:29Z</time>
      </trkpt>
      <trkpt lat="44.32776" lon="6.02932">
        <ele>665</ele>
        <time>2019-04-02T13:02:30Z</time>
      </trkpt>
      <trkpt lat="44.3278" lon="6.02932">
        <ele>666</ele>
        <time>2019-04-02T13:02:31Z</time>
      </trkpt>
      <trkpt lat="44.32784" lon="6.02932">
        <ele>666</ele>
        <time>2019-04-02T13:02:32Z</time>
      </trkpt>
      <trkpt lat="44.32788" lon="6.02933">
        <ele>666</ele>
        <time>2019-04-02T13:02:33Z</time>
      </trkpt>
      <trkpt lat="44.32793" lon="6.02933">
        <ele>667</ele>
        <time>2019-04-02T13:02:34Z</time>
      </trkpt>
      <trkpt lat="44.32797" lon="6.02933">
        <ele>667</ele>
        <time>2019-04-02T13:02:35Z</time>
      </trkpt>
      <trkpt lat="44.32801" lon="6.02933">
        <ele>667</ele>
        <time>2019-04-02T13:02:36Z</time>
      </trkpt>
      <trkpt lat="44.32805" lon="6.02933">
        <ele>667</ele>
        <time>2019-04-02T13:02:37Z</time>
      </trkpt>
      <trkpt lat="44.32809" lon="6.02934">
        <ele>668</ele>
        <time>2019-04-02T13:02:38Z</time>
      </trkpt>
      <trkpt lat="44.32814" lon="6.02933">
        <ele>668</ele>
        <time>2019-04-02T13:02:39Z</time>
      </trkpt>
      <trkpt lat="44.32818" lon="6.02933">
        <ele>668</ele>
        <time>2019-04-02T13:02:40Z</time>
      </trkpt>
      <trkpt lat="44.32822" lon="6.02933">
        <ele>668</ele>
        <time>2019-04-02T13:02:41Z</time>
      </trkpt>
      <trkpt lat="44.32826" lon="6.02934">
        <ele>669</ele>
        <time>2019-04-02T13:02:42Z</time>
      </trkpt>
      <trkpt lat="44.3283" lon="6.02934">
        <ele>669</ele>
        <time>2019-04-02T13:02:43Z</time>
      </trkpt>
      <trkpt lat="44.32834" lon="6.02934">
        <ele>669</ele>
        <time>2019-04-02T13:02:44Z</time>
      </trkpt>
      <trkpt lat="44.32838" lon="6.02934">
        <ele>669</ele>
        <time>2019-04-02T13:02:45Z</time>
      </trkpt>
      <trkpt lat="44.32842" lon="6.02934">
        <ele>670</ele>
        <time>2019-04-02T13:02:46Z</time>
      </trkpt>
      <trkpt lat="44.32846" lon="6.02935">
        <ele>670</ele>
        <time>2019-04-02T13:02:47Z</time>
      </trkpt>
      <trkpt lat="44.32851" lon="6.02935">
        <ele>670</ele>
        <time>2019-04-02T13:02:48Z</time>
      </trkpt>
      <trkpt lat="44.32856" lon="6.02935">
        <ele>670</ele>
        <time>2019-04-02T13:02:49Z</time>
      </trkpt>
      <trkpt lat="44.3286" lon="6.02935">
        <ele>670</ele>
        <time>2019-04-02T13:02:50Z</time>
      </trkpt>
      <trkpt lat="44.32865" lon="6.02936">
        <ele>670</ele>
        <time>2019-04-02T13:02:51Z</time>
      </trkpt>
      <trkpt lat="44.32869" lon="6.02935">
        <ele>670</ele>
        <time>2019-04-02T13:02:52Z</time>
      </trkpt>
      <trkpt lat="44.32874" lon="6.02935">
        <ele>670</ele>
        <time>2019-04-02T13:02:53Z</time>
      </trkpt>
      <trkpt lat="44.32879" lon="6.02935">
        <ele>670</ele>
        <time>2019-04-02T13:02:54Z</time>
      </trkpt>
      <trkpt lat="44.32884" lon="6.02935">
        <ele>670</ele>
        <time>2019-04-02T13:02:55Z</time>
      </trkpt>
      <trkpt lat="44.32889" lon="6.02935">
        <ele>670</ele>
        <time>2019-04-02T13:02:56Z</time>
      </trkpt>
      <trkpt lat="44.32893" lon="6.02936">
        <ele>670</ele>
        <time>2019-04-02T13:02:57Z</time>
      </trkpt>
      <trkpt lat="44.32898" lon="6.02936">
        <ele>670</ele>
        <time>2019-04-02T13:02:58Z</time>
      </trkpt>
      <trkpt lat="44.32903" lon="6.02936">
        <ele>670</ele>
        <time>2019-04-02T13:02:59Z</time>
      </trkpt>
      <trkpt lat="44.32908" lon="6.02937">
        <ele>671</ele>
        <time>2019-04-02T13:03:00Z</time>
      </trkpt>
      <trkpt lat="44.32914" lon="6.02937">
        <ele>671</ele>
        <time>2019-04-02T13:03:01Z</time>
      </trkpt>
      <trkpt lat="44.32919" lon="6.02937">
        <ele>671</ele>
        <time>2019-04-02T13:03:02Z</time>
      </trkpt>
      <trkpt lat="44.32924" lon="6.02937">
        <ele>671</ele>
        <time>2019-04-02T13:03:03Z</time>
      </trkpt>
      <trkpt lat="44.32929" lon="6.02937">
        <ele>671</ele>
        <time>2019-04-02T13:03:04Z</time>
      </trkpt>
      <trkpt lat="44.32934" lon="6.02937">
        <ele>671</ele>
        <time>2019-04-02T13:03:05Z</time>
      </trkpt>
      <trkpt lat="44.32939" lon="6.02937">
        <ele>671</ele>
        <time>2019-04-02T13:03:06Z</time>
      </trkpt>
      <trkpt lat="44.32944" lon="6.02937">
        <ele>671</ele>
        <time>2019-04-02T13:03:07Z</time>
      </trkpt>
      <trkpt lat="44.3295" lon="6.02937">
        <ele>671</ele>
        <time>2019-04-02T13:03:08Z</time>
      </trkpt>
      <trkpt lat="44.32955" lon="6.02937">
        <ele>671</ele>
        <time>2019-04-02T13:03:09Z</time>
      </trkpt>
      <trkpt lat="44.32961" lon="6.02937">
        <ele>671</ele>
        <time>2019-04-02T13:03:10Z</time>
      </trkpt>
      <trkpt lat="44.32966" lon="6.02937">
        <ele>671</ele>
        <time>2019-04-02T13:03:11Z</time>
      </trkpt>
      <trkpt lat="44.32972" lon="6.02937">
        <ele>671</ele>
        <time>2019-04-02T13:03:12Z</time>
      </trkpt>
      <trkpt lat="44.32977" lon="6.02937">
        <ele>671</ele>
        <time>2019-04-02T13:03:13Z</time>
      </trkpt>
      <trkpt lat="44.32983" lon="6.02936">
        <ele>671</ele>
        <time>2019-04-02T13:03:14Z</time>
      </trkpt>
      <trkpt lat="44.32988" lon="6.02936">
        <ele>671</ele>
        <time>2019-04-02T13:03:15Z</time>
      </trkpt>
      <trkpt lat="44.32994" lon="6.02935">
        <ele>672</ele>
        <time>2019-04-02T13:03:16Z</time>
      </trkpt>
      <trkpt lat="44.32999" lon="6.02935">
        <ele>672</ele>
        <time>2019-04-02T13:03:17Z</time>
      </trkpt>
      <trkpt lat="44.33005" lon="6.02934">
        <ele>672</ele>
        <time>2019-04-02T13:03:18Z</time>
      </trkpt>
      <trkpt lat="44.3301" lon="6.02934">
        <ele>672</ele>
        <time>2019-04-02T13:03:19Z</time>
      </trkpt>
      <trkpt lat="44.33015" lon="6.02933">
        <ele>672</ele>
        <time>2019-04-02T13:03:20Z</time>
      </trkpt>
      <trkpt lat="44.33021" lon="6.02933">
        <ele>672</ele>
        <time>2019-04-02T13:03:21Z</time>
      </trkpt>
      <trkpt lat="44.33026" lon="6.02931">
        <ele>672</ele>
        <time>2019-04-02T13:03:22Z</time>
      </trkpt>
      <trkpt lat="44.33031" lon="6.02931">
        <ele>672</ele>
        <time>2019-04-02T13:03:23Z</time>
      </trkpt>
      <trkpt lat="44.33037" lon="6.0293">
        <ele>673</ele>
        <time>2019-04-02T13:03:24Z</time>
      </trkpt>
      <trkpt lat="44.33042" lon="6.02929">
        <ele>673</ele>
        <time>2019-04-02T13:03:25Z</time>
      </trkpt>
      <trkpt lat="44.33047" lon="6.02928">
        <ele>673</ele>
        <time>2019-04-02T13:03:26Z</time>
      </trkpt>
      <trkpt lat="44.33052" lon="6.02927">
        <ele>673</ele>
        <time>2019-04-02T13:03:27Z</time>
      </trkpt>
      <trkpt lat="44.33057" lon="6.02926">
        <ele>673</ele>
        <time>2019-04-02T13:03:28Z</time>
      </trkpt>
      <trkpt lat="44.33062" lon="6.02925">
        <ele>674</ele>
        <time>2019-04-02T13:03:29Z</time>
      </trkpt>
      <trkpt lat="44.33067" lon="6.02924">
        <ele>674</ele>
        <time>2019-04-02T13:03:30Z</time>
      </trkpt>
      <trkpt lat="44.33072" lon="6.02923">
        <ele>674</ele>
        <time>2019-04-02T13:03:31Z</time>
      </trkpt>
      <trkpt lat="44.33077" lon="6.02921">
        <ele>674</ele>
        <time>2019-04-02T13:03:32Z</time>
      </trkpt>
      <trkpt lat="44.33082" lon="6.0292">
        <ele>674</ele>
        <time>2019-04-02T13:03:33Z</time>
      </trkpt>
      <trkpt lat="44.33088" lon="6.02919">
        <ele>674</ele>
        <time>2019-04-02T13:03:34Z</time>
      </trkpt>
      <trkpt lat="44.33093" lon="6.02917">
        <ele>674</ele>
        <time>2019-04-02T13:03:35Z</time>
      </trkpt>
      <trkpt lat="44.33099" lon="6.02916">
        <ele>674</ele>
        <time>2019-04-02T13:03:36Z</time>
      </trkpt>
      <trkpt lat="44.33104" lon="6.02914">
        <ele>674</ele>
        <time>2019-04-02T13:03:37Z</time>
      </trkpt>
      <trkpt lat="44.33109" lon="6.02913">
        <ele>674</ele>
        <time>2019-04-02T13:03:38Z</time>
      </trkpt>
      <trkpt lat="44.33114" lon="6.02911">
        <ele>674</ele>
        <time>2019-04-02T13:03:39Z</time>
      </trkpt>
      <trkpt lat="44.3312" lon="6.02909">
        <ele>674</ele>
        <time>2019-04-02T13:03:40Z</time>
      </trkpt>
      <trkpt lat="44.33125" lon="6.02908">
        <ele>674</ele>
        <time>2019-04-02T13:03:41Z</time>
      </trkpt>
      <trkpt lat="44.3313" lon="6.02906">
        <ele>674</ele>
        <time>2019-04-02T13:03:42Z</time>
      </trkpt>
      <trkpt lat="44.33135" lon="6.02904">
        <ele>674</ele>
        <time>2019-04-02T13:03:43Z</time>
      </trkpt>
      <trkpt lat="44.33141" lon="6.02902">
        <ele>674</ele>
        <time>2019-04-02T13:03:44Z</time>
      </trkpt>
      <trkpt lat="44.33146" lon="6.029">
        <ele>674</ele>
        <time>2019-04-02T13:03:45Z</time>
      </trkpt>
      <trkpt lat="44.33151" lon="6.02898">
        <ele>674</ele>
        <time>2019-04-02T13:03:46Z</time>
      </trkpt>
      <trkpt lat="44.33156" lon="6.02896">
        <ele>675</ele>
        <time>2019-04-02T13:03:47Z</time>
      </trkpt>
      <trkpt lat="44.33162" lon="6.02895">
        <ele>675</ele>
        <time>2019-04-02T13:03:48Z</time>
      </trkpt>
      <trkpt lat="44.33167" lon="6.02893">
        <ele>675</ele>
        <time>2019-04-02T13:03:49Z</time>
      </trkpt>
      <trkpt lat="44.33172" lon="6.02891">
        <ele>675</ele>
        <time>2019-04-02T13:03:50Z</time>
      </trkpt>
      <trkpt lat="44.33177" lon="6.02889">
        <ele>675</ele>
        <time>2019-04-02T13:03:51Z</time>
      </trkpt>
      <trkpt lat="44.33182" lon="6.02886">
        <ele>675</ele>
        <time>2019-04-02T13:03:52Z</time>
      </trkpt>
      <trkpt lat="44.33187" lon="6.02884">
        <ele>675</ele>
        <time>2019-04-02T13:03:53Z</time>
      </trkpt>
      <trkpt lat="44.33192" lon="6.02882">
        <ele>675</ele>
        <time>2019-04-02T13:03:54Z</time>
      </trkpt>
      <trkpt lat="44.33197" lon="6.02879">
        <ele>675</ele>
        <time>2019-04-02T13:03:55Z</time>
      </trkpt>
      <trkpt lat="44.33202" lon="6.02876">
        <ele>675</ele>
        <time>2019-04-02T13:03:56Z</time>
      </trkpt>
      <trkpt lat="44.33207" lon="6.02873">
        <ele>675</ele>
        <time>2019-04-02T13:03:57Z</time>
      </trkpt>
      <trkpt lat="44.33212" lon="6.0287">
        <ele>675</ele>
        <time>2019-04-02T13:03:58Z</time>
      </trkpt>
      <trkpt lat="44.33217" lon="6.02868">
        <ele>675</ele>
        <time>2019-04-02T13:03:59Z</time>
      </trkpt>
      <trkpt lat="44.33222" lon="6.02866">
        <ele>675</ele>
        <time>2019-04-02T13:04:00Z</time>
      </trkpt>
      <trkpt lat="44.33228" lon="6.02863">
        <ele>675</ele>
        <time>2019-04-02T13:04:01Z</time>
      </trkpt>
      <trkpt lat="44.33233" lon="6.0286">
        <ele>675</ele>
        <time>2019-04-02T13:04:02Z</time>
      </trkpt>
      <trkpt lat="44.33238" lon="6.02858">
        <ele>675</ele>
        <time>2019-04-02T13:04:03Z</time>
      </trkpt>
      <trkpt lat="44.33243" lon="6.02855">
        <ele>675</ele>
        <time>2019-04-02T13:04:04Z</time>
      </trkpt>
      <trkpt lat="44.33248" lon="6.02852">
        <ele>675</ele>
        <time>2019-04-02T13:04:05Z</time>
      </trkpt>
      <trkpt lat="44.33252" lon="6.0285">
        <ele>676</ele>
        <time>2019-04-02T13:04:06Z</time>
      </trkpt>
      <trkpt lat="44.33257" lon="6.02847">
        <ele>676</ele>
        <time>2019-04-02T13:04:07Z</time>
      </trkpt>
      <trkpt lat="44.33262" lon="6.02845">
        <ele>676</ele>
        <time>2019-04-02T13:04:08Z</time>
      </trkpt>
      <trkpt lat="44.33267" lon="6.02843">
        <ele>676</ele>
        <time>2019-04-02T13:04:09Z</time>
      </trkpt>
      <trkpt lat="44.33271" lon="6.0284">
        <ele>676</ele>
        <time>2019-04-02T13:04:10Z</time>
      </trkpt>
      <trkpt lat="44.33276" lon="6.02838">
        <ele>676</ele>
        <time>2019-04-02T13:04:11Z</time>
      </trkpt>
      <trkpt lat="44.33281" lon="6.02836">
        <ele>676</ele>
        <time>2019-04-02T13:04:12Z</time>
      </trkpt>
      <trkpt lat="44.33285" lon="6.02833">
        <ele>676</ele>
        <time>2019-04-02T13:04:13Z</time>
      </trkpt>
      <trkpt lat="44.3329" lon="6.02831">
        <ele>677</ele>
        <time>2019-04-02T13:04:14Z</time>
      </trkpt>
      <trkpt lat="44.33294" lon="6.02828">
        <ele>677</ele>
        <time>2019-04-02T13:04:15Z</time>
      </trkpt>
      <trkpt lat="44.33299" lon="6.02826">
        <ele>677</ele>
        <time>2019-04-02T13:04:16Z</time>
      </trkpt>
      <trkpt lat="44.33303" lon="6.02823">
        <ele>677</ele>
        <time>2019-04-02T13:04:17Z</time>
      </trkpt>
      <trkpt lat="44.33308" lon="6.02821">
        <ele>677</ele>
        <time>2019-04-02T13:04:18Z</time>
      </trkpt>
      <trkpt lat="44.33312" lon="6.02819">
        <ele>677</ele>
        <time>2019-04-02T13:04:19Z</time>
      </trkpt>
      <trkpt lat="44.33316" lon="6.02816">
        <ele>677</ele>
        <time>2019-04-02T13:04:20Z</time>
      </trkpt>
      <trkpt lat="44.33321" lon="6.02814">
        <ele>677</ele>
        <time>2019-04-02T13:04:21Z</time>
      </trkpt>
      <trkpt lat="44.33325" lon="6.02812">
        <ele>678</ele>
        <time>2019-04-02T13:04:22Z</time>
      </trkpt>
      <trkpt lat="44.3333" lon="6.0281">
        <ele>678</ele>
        <time>2019-04-02T13:04:23Z</time>
      </trkpt>
      <trkpt lat="44.33334" lon="6.02808">
        <ele>678</ele>
        <time>2019-04-02T13:04:24Z</time>
      </trkpt>
      <trkpt lat="44.33339" lon="6.02806">
        <ele>678</ele>
        <time>2019-04-02T13:04:25Z</time>
      </trkpt>
      <trkpt lat="44.33344" lon="6.02805">
        <ele>678</ele>
        <time>2019-04-02T13:04:26Z</time>
      </trkpt>
      <trkpt lat="44.33349" lon="6.02804">
        <ele>678</ele>
        <time>2019-04-02T13:04:27Z</time>
      </trkpt>
      <trkpt lat="44.33353" lon="6.02802">
        <ele>678</ele>
        <time>2019-04-02T13:04:28Z</time>
      </trkpt>
      <trkpt lat="44.33358" lon="6.02801">
        <ele>678</ele>
        <time>2019-04-02T13:04:29Z</time>
      </trkpt>
      <trkpt lat="44.33363" lon="6.02801">
        <ele>679</ele>
        <time>2019-04-02T13:04:30Z</time>
      </trkpt>
      <trkpt lat="44.33368" lon="6.028">
        <ele>679</ele>
        <time>2019-04-02T13:04:31Z</time>
      </trkpt>
      <trkpt lat="44.33373" lon="6.028">
        <ele>679</ele>
        <time>2019-04-02T13:04:32Z</time>
      </trkpt>
      <trkpt lat="44.33378" lon="6.028">
        <ele>679</ele>
        <time>2019-04-02T13:04:33Z</time>
      </trkpt>
      <trkpt lat="44.33383" lon="6.028">
        <ele>679</ele>
        <time>2019-04-02T13:04:34Z</time>
      </trkpt>
      <trkpt lat="44.33389" lon="6.028">
        <ele>679</ele>
        <time>2019-04-02T13:04:35Z</time>
      </trkpt>
      <trkpt lat="44.33394" lon="6.02799">
        <ele>679</ele>
        <time>2019-04-02T13:04:36Z</time>
      </trkpt>
      <trkpt lat="44.334" lon="6.02799">
        <ele>679</ele>
        <time>2019-04-02T13:04:37Z</time>
      </trkpt>
      <trkpt lat="44.33406" lon="6.02798">
        <ele>679</ele>
        <time>2019-04-02T13:04:38Z</time>
      </trkpt>
      <trkpt lat="44.33411" lon="6.02798">
        <ele>679</ele>
        <time>2019-04-02T13:04:39Z</time>
      </trkpt>
      <trkpt lat="44.33417" lon="6.02798">
        <ele>679</ele>
        <time>2019-04-02T13:04:40Z</time>
      </trkpt>
      <trkpt lat="44.33422" lon="6.02798">
        <ele>680</ele>
        <time>2019-04-02T13:04:41Z</time>
      </trkpt>
      <trkpt lat="44.33428" lon="6.02797">
        <ele>680</ele>
        <time>2019-04-02T13:04:42Z</time>
      </trkpt>
      <trkpt lat="44.33434" lon="6.02797">
        <ele>680</ele>
        <time>2019-04-02T13:04:43Z</time>
      </trkpt>
      <trkpt lat="44.33439" lon="6.02797">
        <ele>680</ele>
        <time>2019-04-02T13:04:44Z</time>
      </trkpt>
      <trkpt lat="44.33445" lon="6.02797">
        <ele>680</ele>
        <time>2019-04-02T13:04:45Z</time>
      </trkpt>
      <trkpt lat="44.3345" lon="6.02796">
        <ele>680</ele>
        <time>2019-04-02T13:04:46Z</time>
      </trkpt>
      <trkpt lat="44.33456" lon="6.02796">
        <ele>680</ele>
        <time>2019-04-02T13:04:47Z</time>
      </trkpt>
      <trkpt lat="44.33462" lon="6.02796">
        <ele>680</ele>
        <time>2019-04-02T13:04:48Z</time>
      </trkpt>
      <trkpt lat="44.33468" lon="6.02795">
        <ele>680</ele>
        <time>2019-04-02T13:04:49Z</time>
      </trkpt>
      <trkpt lat="44.33474" lon="6.02795">
        <ele>680</ele>
        <time>2019-04-02T13:04:50Z</time>
      </trkpt>
      <trkpt lat="44.3348" lon="6.02794">
        <ele>680</ele>
        <time>2019-04-02T13:04:51Z</time>
      </trkpt>
      <trkpt lat="44.33486" lon="6.02793">
        <ele>680</ele>
        <time>2019-04-02T13:04:52Z</time>
      </trkpt>
      <trkpt lat="44.33492" lon="6.02793">
        <ele>680</ele>
        <time>2019-04-02T13:04:53Z</time>
      </trkpt>
      <trkpt lat="44.33498" lon="6.02793">
        <ele>680</ele>
        <time>2019-04-02T13:04:54Z</time>
      </trkpt>
      <trkpt lat="44.33504" lon="6.02793">
        <ele>681</ele>
        <time>2019-04-02T13:04:55Z</time>
      </trkpt>
      <trkpt lat="44.3351" lon="6.02793">
        <ele>681</ele>
        <time>2019-04-02T13:04:56Z</time>
      </trkpt>
      <trkpt lat="44.33516" lon="6.02793">
        <ele>681</ele>
        <time>2019-04-02T13:04:57Z</time>
      </trkpt>
      <trkpt lat="44.33522" lon="6.02793">
        <ele>681</ele>
        <time>2019-04-02T13:04:58Z</time>
      </trkpt>
      <trkpt lat="44.33528" lon="6.02793">
        <ele>681</ele>
        <time>2019-04-02T13:04:59Z</time>
      </trkpt>
      <trkpt lat="44.33534" lon="6.02793">
        <ele>681</ele>
        <time>2019-04-02T13:05:00Z</time>
      </trkpt>
      <trkpt lat="44.3354" lon="6.02793">
        <ele>681</ele>
        <time>2019-04-02T13:05:01Z</time>
      </trkpt>
      <trkpt lat="44.33546" lon="6.02793">
        <ele>681</ele>
        <time>2019-04-02T13:05:02Z</time>
      </trkpt>
      <trkpt lat="44.33551" lon="6.02792">
        <ele>681</ele>
        <time>2019-04-02T13:05:03Z</time>
      </trkpt>
      <trkpt lat="44.33557" lon="6.02792">
        <ele>681</ele>
        <time>2019-04-02T13:05:04Z</time>
      </trkpt>
      <trkpt lat="44.33563" lon="6.02792">
        <ele>681</ele>
        <time>2019-04-02T13:05:05Z</time>
      </trkpt>
      <trkpt lat="44.33569" lon="6.02792">
        <ele>681</ele>
        <time>2019-04-02T13:05:06Z</time>
      </trkpt>
      <trkpt lat="44.33575" lon="6.02792">
        <ele>681</ele>
        <time>2019-04-02T13:05:07Z</time>
      </trkpt>
      <trkpt lat="44.3358" lon="6.02793">
        <ele>681</ele>
        <time>2019-04-02T13:05:08Z</time>
      </trkpt>
      <trkpt lat="44.33585" lon="6.02793">
        <ele>681</ele>
        <time>2019-04-02T13:05:09Z</time>
      </trkpt>
      <trkpt lat="44.3359" lon="6.02793">
        <ele>681</ele>
        <time>2019-04-02T13:05:10Z</time>
      </trkpt>
      <trkpt lat="44.33595" lon="6.02794">
        <ele>681</ele>
        <time>2019-04-02T13:05:11Z</time>
      </trkpt>
      <trkpt lat="44.33601" lon="6.02795">
        <ele>681</ele>
        <time>2019-04-02T13:05:12Z</time>
      </trkpt>
      <trkpt lat="44.33606" lon="6.02795">
        <ele>682</ele>
        <time>2019-04-02T13:05:13Z</time>
      </trkpt>
      <trkpt lat="44.33611" lon="6.02796">
        <ele>682</ele>
        <time>2019-04-02T13:05:14Z</time>
      </trkpt>
      <trkpt lat="44.33616" lon="6.02797">
        <ele>682</ele>
        <time>2019-04-02T13:05:15Z</time>
      </trkpt>
      <trkpt lat="44.33621" lon="6.02797">
        <ele>682</ele>
        <time>2019-04-02T13:05:16Z</time>
      </trkpt>
      <trkpt lat="44.33627" lon="6.02798">
        <ele>683</ele>
        <time>2019-04-02T13:05:17Z</time>
      </trkpt>
      <trkpt lat="44.33632" lon="6.02799">
        <ele>683</ele>
        <time>2019-04-02T13:05:18Z</time>
      </trkpt>
      <trkpt lat="44.33637" lon="6.02799">
        <ele>683</ele>
        <time>2019-04-02T13:05:19Z</time>
      </trkpt>
      <trkpt lat="44.33642" lon="6.028">
        <ele>683</ele>
        <time>2019-04-02T13:05:20Z</time>
      </trkpt>
      <trkpt lat="44.33647" lon="6.02801">
        <ele>683</ele>
        <time>2019-04-02T13:05:21Z</time>
      </trkpt>
      <trkpt lat="44.33652" lon="6.02802">
        <ele>683</ele>
        <time>2019-04-02T13:05:22Z</time>
      </trkpt>
      <trkpt lat="44.33657" lon="6.02803">
        <ele>683</ele>
        <time>2019-04-02T13:05:23Z</time>
      </trkpt>
      <trkpt lat="44.33663" lon="6.02804">
        <ele>684</ele>
        <time>2019-04-02T13:05:24Z</time>
      </trkpt>
      <trkpt lat="44.33668" lon="6.02805">
        <ele>684</ele>
        <time>2019-04-02T13:05:25Z</time>
      </trkpt>
      <trkpt lat="44.33673" lon="6.02805">
        <ele>684</ele>
        <time>2019-04-02T13:05:26Z</time>
      </trkpt>
      <trkpt lat="44.33679" lon="6.02807">
        <ele>684</ele>
        <time>2019-04-02T13:05:27Z</time>
      </trkpt>
      <trkpt lat="44.33684" lon="6.02807">
        <ele>684</ele>
        <time>2019-04-02T13:05:28Z</time>
      </trkpt>
      <trkpt lat="44.33689" lon="6.02809">
        <ele>684</ele>
        <time>2019-04-02T13:05:29Z</time>
      </trkpt>
      <trkpt lat="44.33695" lon="6.02809">
        <ele>685</ele>
        <time>2019-04-02T13:05:30Z</time>
      </trkpt>
      <trkpt lat="44.337" lon="6.0281">
        <ele>685</ele>
        <time>2019-04-02T13:05:31Z</time>
      </trkpt>
      <trkpt lat="44.33706" lon="6.02811">
        <ele>685</ele>
        <time>2019-04-02T13:05:32Z</time>
      </trkpt>
      <trkpt lat="44.33711" lon="6.02812">
        <ele>685</ele>
        <time>2019-04-02T13:05:33Z</time>
      </trkpt>
      <trkpt lat="44.33716" lon="6.02813">
        <ele>685</ele>
        <time>2019-04-02T13:05:34Z</time>
      </trkpt>
      <trkpt lat="44.33722" lon="6.02814">
        <ele>685</ele>
        <time>2019-04-02T13:05:35Z</time>
      </trkpt>
      <trkpt lat="44.33727" lon="6.02815">
        <ele>686</ele>
        <time>2019-04-02T13:05:36Z</time>
      </trkpt>
      <trkpt lat="44.33732" lon="6.02816">
        <ele>686</ele>
        <time>2019-04-02T13:05:37Z</time>
      </trkpt>
      <trkpt lat="44.33737" lon="6.02817">
        <ele>686</ele>
        <time>2019-04-02T13:05:38Z</time>
      </trkpt>
      <trkpt lat="44.33742" lon="6.02817">
        <ele>686</ele>
        <time>2019-04-02T13:05:39Z</time>
      </trkpt>
      <trkpt lat="44.33747" lon="6.02818">
        <ele>686</ele>
        <time>2019-04-02T13:05:40Z</time>
      </trkpt>
      <trkpt lat="44.33753" lon="6.02818">
        <ele>686</ele>
        <time>2019-04-02T13:05:41Z</time>
      </trkpt>
      <trkpt lat="44.33758" lon="6.02819">
        <ele>686</ele>
        <time>2019-04-02T13:05:42Z</time>
      </trkpt>
      <trkpt lat="44.33763" lon="6.02819">
        <ele>687</ele>
        <time>2019-04-02T13:05:43Z</time>
      </trkpt>
      <trkpt lat="44.33768" lon="6.0282">
        <ele>687</ele>
        <time>2019-04-02T13:05:44Z</time>
      </trkpt>
      <trkpt lat="44.33773" lon="6.0282">
        <ele>687</ele>
        <time>2019-04-02T13:05:45Z</time>
      </trkpt>
      <trkpt lat="44.33777" lon="6.0282">
        <ele>687</ele>
        <time>2019-04-02T13:05:46Z</time>
      </trkpt>
      <trkpt lat="44.33781" lon="6.02821">
        <ele>687</ele>
        <time>2019-04-02T13:05:47Z</time>
      </trkpt>
      <trkpt lat="44.33786" lon="6.02821">
        <ele>687</ele>
        <time>2019-04-02T13:05:48Z</time>
      </trkpt>
      <trkpt lat="44.33791" lon="6.02821">
        <ele>687</ele>
        <time>2019-04-02T13:05:49Z</time>
      </trkpt>
      <trkpt lat="44.33795" lon="6.02821">
        <ele>688</ele>
        <time>2019-04-02T13:05:50Z</time>
      </trkpt>
      <trkpt lat="44.338" lon="6.02821">
        <ele>688</ele>
        <time>2019-04-02T13:05:51Z</time>
      </trkpt>
      <trkpt lat="44.33804" lon="6.02821">
        <ele>688</ele>
        <time>2019-04-02T13:05:52Z</time>
      </trkpt>
      <trkpt lat="44.33809" lon="6.02821">
        <ele>688</ele>
        <time>2019-04-02T13:05:53Z</time>
      </trkpt>
      <trkpt lat="44.33813" lon="6.02821">
        <ele>688</ele>
        <time>2019-04-02T13:05:54Z</time>
      </trkpt>
      <trkpt lat="44.33818" lon="6.02821">
        <ele>688</ele>
        <time>2019-04-02T13:05:55Z</time>
      </trkpt>
      <trkpt lat="44.33822" lon="6.02821">
        <ele>688</ele>
        <time>2019-04-02T13:05:56Z</time>
      </trkpt>
      <trkpt lat="44.33827" lon="6.02821">
        <ele>689</ele>
        <time>2019-04-02T13:05:57Z</time>
      </trkpt>
      <trkpt lat="44.33831" lon="6.02821">
        <ele>689</ele>
        <time>2019-04-02T13:05:58Z</time>
      </trkpt>
      <trkpt lat="44.33836" lon="6.02821">
        <ele>689</ele>
        <time>2019-04-02T13:05:59Z</time>
      </trkpt>
      <trkpt lat="44.33841" lon="6.02821">
        <ele>689</ele>
        <time>2019-04-02T13:06:00Z</time>
      </trkpt>
      <trkpt lat="44.33845" lon="6.0282">
        <ele>689</ele>
        <time>2019-04-02T13:06:01Z</time>
      </trkpt>
      <trkpt lat="44.3385" lon="6.0282">
        <ele>689</ele>
        <time>2019-04-02T13:06:02Z</time>
      </trkpt>
      <trkpt lat="44.33855" lon="6.0282">
        <ele>689</ele>
        <time>2019-04-02T13:06:03Z</time>
      </trkpt>
      <trkpt lat="44.3386" lon="6.0282">
        <ele>690</ele>
        <time>2019-04-02T13:06:04Z</time>
      </trkpt>
      <trkpt lat="44.33865" lon="6.0282">
        <ele>690</ele>
        <time>2019-04-02T13:06:05Z</time>
      </trkpt>
      <trkpt lat="44.3387" lon="6.02819">
        <ele>690</ele>
        <time>2019-04-02T13:06:06Z</time>
      </trkpt>
      <trkpt lat="44.33875" lon="6.02819">
        <ele>690</ele>
        <time>2019-04-02T13:06:07Z</time>
      </trkpt>
      <trkpt lat="44.3388" lon="6.02819">
        <ele>690</ele>
        <time>2019-04-02T13:06:08Z</time>
      </trkpt>
      <trkpt lat="44.33886" lon="6.02818">
        <ele>690</ele>
        <time>2019-04-02T13:06:09Z</time>
      </trkpt>
      <trkpt lat="44.33891" lon="6.02818">
        <ele>690</ele>
        <time>2019-04-02T13:06:10Z</time>
      </trkpt>
      <trkpt lat="44.33896" lon="6.02818">
        <ele>690</ele>
        <time>2019-04-02T13:06:11Z</time>
      </trkpt>
      <trkpt lat="44.33902" lon="6.02817">
        <ele>690</ele>
        <time>2019-04-02T13:06:12Z</time>
      </trkpt>
      <trkpt lat="44.33908" lon="6.02817">
        <ele>690</ele>
        <time>2019-04-02T13:06:13Z</time>
      </trkpt>
      <trkpt lat="44.33914" lon="6.02817">
        <ele>690</ele>
        <time>2019-04-02T13:06:14Z</time>
      </trkpt>
      <trkpt lat="44.3392" lon="6.02816">
        <ele>690</ele>
        <time>2019-04-02T13:06:15Z</time>
      </trkpt>
      <trkpt lat="44.33926" lon="6.02816">
        <ele>690</ele>
        <time>2019-04-02T13:06:16Z</time>
      </trkpt>
      <trkpt lat="44.33932" lon="6.02815">
        <ele>690</ele>
        <time>2019-04-02T13:06:17Z</time>
      </trkpt>
      <trkpt lat="44.33938" lon="6.02815">
        <ele>690</ele>
        <time>2019-04-02T13:06:18Z</time>
      </trkpt>
      <trkpt lat="44.33944" lon="6.02814">
        <ele>690</ele>
        <time>2019-04-02T13:06:19Z</time>
      </trkpt>
      <trkpt lat="44.3395" lon="6.02814">
        <ele>690</ele>
        <time>2019-04-02T13:06:20Z</time>
      </trkpt>
      <trkpt lat="44.33956" lon="6.02813">
        <ele>690</ele>
        <time>2019-04-02T13:06:21Z</time>
      </trkpt>
      <trkpt lat="44.33962" lon="6.02813">
        <ele>690</ele>
        <time>2019-04-02T13:06:22Z</time>
      </trkpt>
      <trkpt lat="44.33968" lon="6.02811">
        <ele>690</ele>
        <time>2019-04-02T13:06:23Z</time>
      </trkpt>
      <trkpt lat="44.33975" lon="6.0281">
        <ele>690</ele>
        <time>2019-04-02T13:06:24Z</time>
      </trkpt>
      <trkpt lat="44.33981" lon="6.02809">
        <ele>690</ele>
        <time>2019-04-02T13:06:25Z</time>
      </trkpt>
      <trkpt lat="44.33986" lon="6.02808">
        <ele>690</ele>
        <time>2019-04-02T13:06:26Z</time>
      </trkpt>
      <trkpt lat="44.33992" lon="6.02807">
        <ele>690</ele>
        <time>2019-04-02T13:06:27Z</time>
      </trkpt>
      <trkpt lat="44.33998" lon="6.02806">
        <ele>690</ele>
        <time>2019-04-02T13:06:28Z</time>
      </trkpt>
      <trkpt lat="44.34004" lon="6.02804">
        <ele>690</ele>
        <time>2019-04-02T13:06:29Z</time>
      </trkpt>
      <trkpt lat="44.3401" lon="6.02802">
        <ele>690</ele>
        <time>2019-04-02T13:06:30Z</time>
      </trkpt>
      <trkpt lat="44.34016" lon="6.02801">
        <ele>690</ele>
        <time>2019-04-02T13:06:31Z</time>
      </trkpt>
      <trkpt lat="44.34022" lon="6.02799">
        <ele>690</ele>
        <time>2019-04-02T13:06:32Z</time>
      </trkpt>
      <trkpt lat="44.34028" lon="6.02797">
        <ele>690</ele>
        <time>2019-04-02T13:06:33Z</time>
      </trkpt>
      <trkpt lat="44.34034" lon="6.02796">
        <ele>690</ele>
        <time>2019-04-02T13:06:34Z</time>
      </trkpt>
      <trkpt lat="44.34039" lon="6.02794">
        <ele>690</ele>
        <time>2019-04-02T13:06:35Z</time>
      </trkpt>
      <trkpt lat="44.34045" lon="6.02792">
        <ele>690</ele>
        <time>2019-04-02T13:06:36Z</time>
      </trkpt>
      <trkpt lat="44.34051" lon="6.02789">
        <ele>690</ele>
        <time>2019-04-02T13:06:37Z</time>
      </trkpt>
      <trkpt lat="44.34056" lon="6.02787">
        <ele>690</ele>
        <time>2019-04-02T13:06:38Z</time>
      </trkpt>
      <trkpt lat="44.34062" lon="6.02784">
        <ele>690</ele>
        <time>2019-04-02T13:06:39Z</time>
      </trkpt>
      <trkpt lat="44.34067" lon="6.02781">
        <ele>690</ele>
        <time>2019-04-02T13:06:40Z</time>
      </trkpt>
      <trkpt lat="44.34072" lon="6.02777">
        <ele>690</ele>
        <time>2019-04-02T13:06:41Z</time>
      </trkpt>
      <trkpt lat="44.34077" lon="6.02774">
        <ele>690</ele>
        <time>2019-04-02T13:06:42Z</time>
      </trkpt>
      <trkpt lat="44.34082" lon="6.02771">
        <ele>690</ele>
        <time>2019-04-02T13:06:43Z</time>
      </trkpt>
      <trkpt lat="44.34088" lon="6.02768">
        <ele>690</ele>
        <time>2019-04-02T13:06:44Z</time>
      </trkpt>
      <trkpt lat="44.34093" lon="6.02766">
        <ele>690</ele>
        <time>2019-04-02T13:06:45Z</time>
      </trkpt>
      <trkpt lat="44.34098" lon="6.02764">
        <ele>690</ele>
        <time>2019-04-02T13:06:46Z</time>
      </trkpt>
      <trkpt lat="44.34103" lon="6.02763">
        <ele>690</ele>
        <time>2019-04-02T13:06:47Z</time>
      </trkpt>
      <trkpt lat="44.34107" lon="6.02762">
        <ele>691</ele>
        <time>2019-04-02T13:06:48Z</time>
      </trkpt>
      <trkpt lat="44.3411" lon="6.02762">
        <ele>691</ele>
        <time>2019-04-02T13:06:49Z</time>
      </trkpt>
      <trkpt lat="44.34113" lon="6.02762">
        <ele>691</ele>
        <time>2019-04-02T13:06:50Z</time>
      </trkpt>
      <trkpt lat="44.34116" lon="6.02762">
        <ele>691</ele>
        <time>2019-04-02T13:06:51Z</time>
      </trkpt>
      <trkpt lat="44.34117" lon="6.02761">
        <ele>691</ele>
        <time>2019-04-02T13:06:52Z</time>
      </trkpt>
      <trkpt lat="44.34118" lon="6.02761">
        <ele>692</ele>
        <time>2019-04-02T13:06:54Z</time>
      </trkpt>
      <trkpt lat="44.3412" lon="6.0276">
        <ele>693</ele>
        <time>2019-04-02T13:06:58Z</time>
      </trkpt>
      <trkpt lat="44.34121" lon="6.0276">
        <ele>693</ele>
        <time>2019-04-02T13:07:00Z</time>
      </trkpt>
      <trkpt lat="44.34123" lon="6.02761">
        <ele>694</ele>
        <time>2019-04-02T13:07:02Z</time>
      </trkpt>
      <trkpt lat="44.34123" lon="6.02762">
        <ele>694</ele>
        <time>2019-04-02T13:07:08Z</time>
      </trkpt>
      <trkpt lat="44.34122" lon="6.02763">
        <ele>694</ele>
        <time>2019-04-02T13:07:15Z</time>
      </trkpt>
      <trkpt lat="44.34123" lon="6.02762">
        <ele>694</ele>
        <time>2019-04-02T13:07:23Z</time>
      </trkpt>
      <trkpt lat="44.34123" lon="6.0276">
        <ele>694</ele>
        <time>2019-04-02T13:07:33Z</time>
      </trkpt>
      <trkpt lat="44.34123" lon="6.02759">
        <ele>695</ele>
        <time>2019-04-02T13:07:37Z</time>
      </trkpt>
      <trkpt lat="44.34122" lon="6.02758">
        <ele>696</ele>
        <time>2019-04-02T13:07:48Z</time>
      </trkpt>
      <trkpt lat="44.34122" lon="6.02756">
        <ele>696</ele>
        <time>2019-04-02T13:08:10Z</time>
      </trkpt>
      <trkpt lat="44.34124" lon="6.02756">
        <ele>696</ele>
        <time>2019-04-02T13:08:12Z</time>
      </trkpt>
      <trkpt lat="44.34125" lon="6.02758">
        <ele>696</ele>
        <time>2019-04-02T13:08:14Z</time>
      </trkpt>
      <trkpt lat="44.34125" lon="6.0276">
        <ele>696</ele>
        <time>2019-04-02T13:08:23Z</time>
      </trkpt>
      <trkpt lat="44.34124" lon="6.02759">
        <ele>696</ele>
        <time>2019-04-02T13:08:30Z</time>
      </trkpt>
      <trkpt lat="44.34123" lon="6.02758">
        <ele>696</ele>
        <time>2019-04-02T13:08:37Z</time>
      </trkpt>
      <trkpt lat="44.34121" lon="6.02758">
        <ele>696</ele>
        <time>2019-04-02T13:08:42Z</time>
      </trkpt>
      <trkpt lat="44.34122" lon="6.0276">
        <ele>694</ele>
        <time>2019-04-02T13:08:53Z</time>
      </trkpt>
      <trkpt lat="44.34123" lon="6.02761">
        <ele>694</ele>
        <time>2019-04-02T13:09:01Z</time>
      </trkpt>
      <trkpt lat="44.34124" lon="6.02762">
        <ele>694</ele>
        <time>2019-04-02T13:09:20Z</time>
      </trkpt>
      <trkpt lat="44.34124" lon="6.0276">
        <ele>694</ele>
        <time>2019-04-02T13:09:28Z</time>
      </trkpt>
      <trkpt lat="44.34124" lon="6.02761">
        <ele>694</ele>
        <time>2019-04-02T13:09:31Z</time>
      </trkpt>
      <trkpt lat="44.34122" lon="6.0276">
        <ele>692</ele>
        <time>2019-04-02T13:09:41Z</time>
      </trkpt>
      <trkpt lat="44.34122" lon="6.02759">
        <ele>690</ele>
        <time>2019-04-02T13:09:48Z</time>
      </trkpt>
      <trkpt lat="44.34123" lon="6.02757">
        <ele>690</ele>
        <time>2019-04-02T13:09:51Z</time>
      </trkpt>
      <trkpt lat="44.34125" lon="6.02756">
        <ele>690</ele>
        <time>2019-04-02T13:09:59Z</time>
      </trkpt>
      <trkpt lat="44.34126" lon="6.02754">
        <ele>690</ele>
        <time>2019-04-02T13:10:01Z</time>
      </trkpt>
      <trkpt lat="44.34127" lon="6.02752">
        <ele>690</ele>
        <time>2019-04-02T13:10:04Z</time>
      </trkpt>
      <trkpt lat="44.34126" lon="6.0275">
        <ele>690</ele>
        <time>2019-04-02T13:10:05Z</time>
      </trkpt>
      <trkpt lat="44.34125" lon="6.02749">
        <ele>690</ele>
        <time>2019-04-02T13:10:06Z</time>
      </trkpt>
      <trkpt lat="44.34124" lon="6.02748">
        <ele>690</ele>
        <time>2019-04-02T13:10:07Z</time>
      </trkpt>
      <trkpt lat="44.34122" lon="6.02746">
        <ele>690</ele>
        <time>2019-04-02T13:10:08Z</time>
      </trkpt>
      <trkpt lat="44.34121" lon="6.02743">
        <ele>690</ele>
        <time>2019-04-02T13:10:09Z</time>
      </trkpt>
      <trkpt lat="44.34119" lon="6.02741">
        <ele>690</ele>
        <time>2019-04-02T13:10:10Z</time>
      </trkpt>
      <trkpt lat="44.34117" lon="6.02739">
        <ele>690</ele>
        <time>2019-04-02T13:10:11Z</time>
      </trkpt>
      <trkpt lat="44.34115" lon="6.02738">
        <ele>690</ele>
        <time>2019-04-02T13:10:12Z</time>
      </trkpt>
      <trkpt lat="44.34113" lon="6.02735">
        <ele>690</ele>
        <time>2019-04-02T13:10:13Z</time>
      </trkpt>
      <trkpt lat="44.34112" lon="6.02732">
        <ele>690</ele>
        <time>2019-04-02T13:10:14Z</time>
      </trkpt>
      <trkpt lat="44.3411" lon="6.0273">
        <ele>690</ele>
        <time>2019-04-02T13:10:15Z</time>
      </trkpt>
      <trkpt lat="44.34108" lon="6.02728">
        <ele>690</ele>
        <time>2019-04-02T13:10:16Z</time>
      </trkpt>
      <trkpt lat="44.34106" lon="6.02726">
        <ele>690</ele>
        <time>2019-04-02T13:10:17Z</time>
      </trkpt>
      <trkpt lat="44.34103" lon="6.02724">
        <ele>690</ele>
        <time>2019-04-02T13:10:18Z</time>
      </trkpt>
      <trkpt lat="44.341" lon="6.02722">
        <ele>690</ele>
        <time>2019-04-02T13:10:19Z</time>
      </trkpt>
      <trkpt lat="44.34097" lon="6.0272">
        <ele>690</ele>
        <time>2019-04-02T13:10:20Z</time>
      </trkpt>
      <trkpt lat="44.34095" lon="6.02718">
        <ele>690</ele>
        <time>2019-04-02T13:10:21Z</time>
      </trkpt>
      <trkpt lat="44.34092" lon="6.02716">
        <ele>690</ele>
        <time>2019-04-02T13:10:22Z</time>
      </trkpt>
      <trkpt lat="44.34089" lon="6.02713">
        <ele>690</ele>
        <time>2019-04-02T13:10:23Z</time>
      </trkpt>
      <trkpt lat="44.34086" lon="6.02711">
        <ele>690</ele>
        <time>2019-04-02T13:10:24Z</time>
      </trkpt>
      <trkpt lat="44.34083" lon="6.02709">
        <ele>690</ele>
        <time>2019-04-02T13:10:25Z</time>
      </trkpt>
      <trkpt lat="44.3408" lon="6.02708">
        <ele>690</ele>
        <time>2019-04-02T13:10:26Z</time>
      </trkpt>
      <trkpt lat="44.34077" lon="6.02705">
        <ele>690</ele>
        <time>2019-04-02T13:10:27Z</time>
      </trkpt>
      <trkpt lat="44.34074" lon="6.02703">
        <ele>690</ele>
        <time>2019-04-02T13:10:28Z</time>
      </trkpt>
      <trkpt lat="44.34071" lon="6.02702">
        <ele>690</ele>
        <time>2019-04-02T13:10:29Z</time>
      </trkpt>
      <trkpt lat="44.34068" lon="6.027">
        <ele>690</ele>
        <time>2019-04-02T13:10:30Z</time>
      </trkpt>
      <trkpt lat="44.34064" lon="6.02698">
        <ele>690</ele>
        <time>2019-04-02T13:10:31Z</time>
      </trkpt>
      <trkpt lat="44.34061" lon="6.02695">
        <ele>690</ele>
        <time>2019-04-02T13:10:32Z</time>
      </trkpt>
      <trkpt lat="44.34058" lon="6.02693">
        <ele>690</ele>
        <time>2019-04-02T13:10:33Z</time>
      </trkpt>
      <trkpt lat="44.34055" lon="6.02691">
        <ele>690</ele>
        <time>2019-04-02T13:10:34Z</time>
      </trkpt>
      <trkpt lat="44.34052" lon="6.0269">
        <ele>690</ele>
        <time>2019-04-02T13:10:35Z</time>
      </trkpt>
      <trkpt lat="44.34048" lon="6.02689">
        <ele>690</ele>
        <time>2019-04-02T13:10:36Z</time>
      </trkpt>
      <trkpt lat="44.34044" lon="6.02687">
        <ele>691</ele>
        <time>2019-04-02T13:10:37Z</time>
      </trkpt>
      <trkpt lat="44.34041" lon="6.02685">
        <ele>691</ele>
        <time>2019-04-02T13:10:38Z</time>
      </trkpt>
      <trkpt lat="44.34037" lon="6.02683">
        <ele>692</ele>
        <time>2019-04-02T13:10:39Z</time>
      </trkpt>
      <trkpt lat="44.34034" lon="6.02681">
        <ele>692</ele>
        <time>2019-04-02T13:10:40Z</time>
      </trkpt>
      <trkpt lat="44.34031" lon="6.02679">
        <ele>693</ele>
        <time>2019-04-02T13:10:41Z</time>
      </trkpt>
      <trkpt lat="44.34027" lon="6.02677">
        <ele>693</ele>
        <time>2019-04-02T13:10:42Z</time>
      </trkpt>
      <trkpt lat="44.34024" lon="6.02675">
        <ele>694</ele>
        <time>2019-04-02T13:10:43Z</time>
      </trkpt>
      <trkpt lat="44.3402" lon="6.02673">
        <ele>694</ele>
        <time>2019-04-02T13:10:44Z</time>
      </trkpt>
      <trkpt lat="44.34017" lon="6.02672">
        <ele>694</ele>
        <time>2019-04-02T13:10:45Z</time>
      </trkpt>
      <trkpt lat="44.34014" lon="6.0267">
        <ele>695</ele>
        <time>2019-04-02T13:10:46Z</time>
      </trkpt>
      <trkpt lat="44.34011" lon="6.02668">
        <ele>695</ele>
        <time>2019-04-02T13:10:47Z</time>
      </trkpt>
      <trkpt lat="44.34008" lon="6.02667">
        <ele>695</ele>
        <time>2019-04-02T13:10:48Z</time>
      </trkpt>
      <trkpt lat="44.34004" lon="6.02665">
        <ele>696</ele>
        <time>2019-04-02T13:10:49Z</time>
      </trkpt>
      <trkpt lat="44.34001" lon="6.02664">
        <ele>696</ele>
        <time>2019-04-02T13:10:50Z</time>
      </trkpt>
      <trkpt lat="44.33997" lon="6.02663">
        <ele>697</ele>
        <time>2019-04-02T13:10:51Z</time>
      </trkpt>
      <trkpt lat="44.33994" lon="6.02662">
        <ele>697</ele>
        <time>2019-04-02T13:10:52Z</time>
      </trkpt>
      <trkpt lat="44.3399" lon="6.02661">
        <ele>697</ele>
        <time>2019-04-02T13:10:53Z</time>
      </trkpt>
      <trkpt lat="44.33986" lon="6.02661">
        <ele>698</ele>
        <time>2019-04-02T13:10:54Z</time>
      </trkpt>
      <trkpt lat="44.33982" lon="6.02661">
        <ele>698</ele>
        <time>2019-04-02T13:10:55Z</time>
      </trkpt>
      <trkpt lat="44.33978" lon="6.02661">
        <ele>698</ele>
        <time>2019-04-02T13:10:56Z</time>
      </trkpt>
      <trkpt lat="44.33974" lon="6.02661">
        <ele>698</ele>
        <time>2019-04-02T13:10:57Z</time>
      </trkpt>
      <trkpt lat="44.3397" lon="6.02662">
        <ele>698</ele>
        <time>2019-04-02T13:10:58Z</time>
      </trkpt>
      <trkpt lat="44.33966" lon="6.02662">
        <ele>698</ele>
        <time>2019-04-02T13:10:59Z</time>
      </trkpt>
      <trkpt lat="44.33962" lon="6.02663">
        <ele>698</ele>
        <time>2019-04-02T13:11:00Z</time>
      </trkpt>
      <trkpt lat="44.33958" lon="6.02664">
        <ele>698</ele>
        <time>2019-04-02T13:11:01Z</time>
      </trkpt>
      <trkpt lat="44.33954" lon="6.02665">
        <ele>698</ele>
        <time>2019-04-02T13:11:02Z</time>
      </trkpt>
      <trkpt lat="44.3395" lon="6.02666">
        <ele>698</ele>
        <time>2019-04-02T13:11:03Z</time>
      </trkpt>
      <trkpt lat="44.33946" lon="6.02667">
        <ele>698</ele>
        <time>2019-04-02T13:11:04Z</time>
      </trkpt>
      <trkpt lat="44.33942" lon="6.02668">
        <ele>698</ele>
        <time>2019-04-02T13:11:05Z</time>
      </trkpt>
      <trkpt lat="44.33938" lon="6.02668">
        <ele>698</ele>
        <time>2019-04-02T13:11:06Z</time>
      </trkpt>
      <trkpt lat="44.33934" lon="6.02669">
        <ele>698</ele>
        <time>2019-04-02T13:11:07Z</time>
      </trkpt>
      <trkpt lat="44.33929" lon="6.02669">
        <ele>698</ele>
        <time>2019-04-02T13:11:08Z</time>
      </trkpt>
      <trkpt lat="44.33926" lon="6.02669">
        <ele>698</ele>
        <time>2019-04-02T13:11:09Z</time>
      </trkpt>
      <trkpt lat="44.33922" lon="6.0267">
        <ele>698</ele>
        <time>2019-04-02T13:11:10Z</time>
      </trkpt>
      <trkpt lat="44.33918" lon="6.0267">
        <ele>698</ele>
        <time>2019-04-02T13:11:11Z</time>
      </trkpt>
      <trkpt lat="44.33914" lon="6.0267">
        <ele>698</ele>
        <time>2019-04-02T13:11:12Z</time>
      </trkpt>
      <trkpt lat="44.3391" lon="6.02671">
        <ele>698</ele>
        <time>2019-04-02T13:11:13Z</time>
      </trkpt>
      <trkpt lat="44.33906" lon="6.02671">
        <ele>698</ele>
        <time>2019-04-02T13:11:14Z</time>
      </trkpt>
      <trkpt lat="44.33902" lon="6.0267">
        <ele>698</ele>
        <time>2019-04-02T13:11:15Z</time>
      </trkpt>
      <trkpt lat="44.33899" lon="6.0267">
        <ele>698</ele>
        <time>2019-04-02T13:11:16Z</time>
      </trkpt>
      <trkpt lat="44.33895" lon="6.02669">
        <ele>698</ele>
        <time>2019-04-02T13:11:17Z</time>
      </trkpt>
      <trkpt lat="44.33891" lon="6.02669">
        <ele>698</ele>
        <time>2019-04-02T13:11:18Z</time>
      </trkpt>
      <trkpt lat="44.33887" lon="6.02668">
        <ele>698</ele>
        <time>2019-04-02T13:11:19Z</time>
      </trkpt>
      <trkpt lat="44.33884" lon="6.02667">
        <ele>698</ele>
        <time>2019-04-02T13:11:20Z</time>
      </trkpt>
      <trkpt lat="44.3388" lon="6.02666">
        <ele>698</ele>
        <time>2019-04-02T13:11:21Z</time>
      </trkpt>
      <trkpt lat="44.33876" lon="6.02665">
        <ele>698</ele>
        <time>2019-04-02T13:11:22Z</time>
      </trkpt>
      <trkpt lat="44.33871" lon="6.02663">
        <ele>698</ele>
        <time>2019-04-02T13:11:23Z</time>
      </trkpt>
      <trkpt lat="44.33867" lon="6.02661">
        <ele>698</ele>
        <time>2019-04-02T13:11:24Z</time>
      </trkpt>
      <trkpt lat="44.33862" lon="6.02659">
        <ele>698</ele>
        <time>2019-04-02T13:11:25Z</time>
      </trkpt>
      <trkpt lat="44.33857" lon="6.02656">
        <ele>698</ele>
        <time>2019-04-02T13:11:26Z</time>
      </trkpt>
      <trkpt lat="44.33852" lon="6.02654">
        <ele>698</ele>
        <time>2019-04-02T13:11:27Z</time>
      </trkpt>
      <trkpt lat="44.33847" lon="6.02652">
        <ele>698</ele>
        <time>2019-04-02T13:11:28Z</time>
      </trkpt>
      <trkpt lat="44.33841" lon="6.0265">
        <ele>698</ele>
        <time>2019-04-02T13:11:29Z</time>
      </trkpt>
      <trkpt lat="44.33835" lon="6.02649">
        <ele>698</ele>
        <time>2019-04-02T13:11:30Z</time>
      </trkpt>
      <trkpt lat="44.33829" lon="6.02648">
        <ele>698</ele>
        <time>2019-04-02T13:11:31Z</time>
      </trkpt>
      <trkpt lat="44.33824" lon="6.02646">
        <ele>698</ele>
        <time>2019-04-02T13:11:32Z</time>
      </trkpt>
      <trkpt lat="44.33818" lon="6.02645">
        <ele>698</ele>
        <time>2019-04-02T13:11:33Z</time>
      </trkpt>
      <trkpt lat="44.33812" lon="6.02644">
        <ele>698</ele>
        <time>2019-04-02T13:11:34Z</time>
      </trkpt>
      <trkpt lat="44.33806" lon="6.02642">
        <ele>698</ele>
        <time>2019-04-02T13:11:35Z</time>
      </trkpt>
      <trkpt lat="44.338" lon="6.0264">
        <ele>698</ele>
        <time>2019-04-02T13:11:36Z</time>
      </trkpt>
      <trkpt lat="44.33794" lon="6.02638">
        <ele>698</ele>
        <time>2019-04-02T13:11:37Z</time>
      </trkpt>
      <trkpt lat="44.33789" lon="6.02634">
        <ele>698</ele>
        <time>2019-04-02T13:11:38Z</time>
      </trkpt>
      <trkpt lat="44.33784" lon="6.02629">
        <ele>698</ele>
        <time>2019-04-02T13:11:39Z</time>
      </trkpt>
      <trkpt lat="44.3378" lon="6.02623">
        <ele>698</ele>
        <time>2019-04-02T13:11:40Z</time>
      </trkpt>
      <trkpt lat="44.33777" lon="6.02617">
        <ele>698</ele>
        <time>2019-04-02T13:11:41Z</time>
      </trkpt>
      <trkpt lat="44.33774" lon="6.02611">
        <ele>698</ele>
        <time>2019-04-02T13:11:42Z</time>
      </trkpt>
      <trkpt lat="44.33771" lon="6.02605">
        <ele>698</ele>
        <time>2019-04-02T13:11:43Z</time>
      </trkpt>
      <trkpt lat="44.33769" lon="6.02599">
        <ele>698</ele>
        <time>2019-04-02T13:11:44Z</time>
      </trkpt>
      <trkpt lat="44.33766" lon="6.02594">
        <ele>698</ele>
        <time>2019-04-02T13:11:45Z</time>
      </trkpt>
      <trkpt lat="44.33763" lon="6.02589">
        <ele>698</ele>
        <time>2019-04-02T13:11:46Z</time>
      </trkpt>
      <trkpt lat="44.3376" lon="6.02585">
        <ele>699</ele>
        <time>2019-04-02T13:11:47Z</time>
      </trkpt>
      <trkpt lat="44.33756" lon="6.0258">
        <ele>699</ele>
        <time>2019-04-02T13:11:48Z</time>
      </trkpt>
      <trkpt lat="44.33752" lon="6.02576">
        <ele>699</ele>
        <time>2019-04-02T13:11:49Z</time>
      </trkpt>
      <trkpt lat="44.33749" lon="6.02571">
        <ele>699</ele>
        <time>2019-04-02T13:11:50Z</time>
      </trkpt>
      <trkpt lat="44.33745" lon="6.02567">
        <ele>699</ele>
        <time>2019-04-02T13:11:51Z</time>
      </trkpt>
      <trkpt lat="44.33741" lon="6.02562">
        <ele>699</ele>
        <time>2019-04-02T13:11:52Z</time>
      </trkpt>
      <trkpt lat="44.33738" lon="6.02558">
        <ele>699</ele>
        <time>2019-04-02T13:11:53Z</time>
      </trkpt>
      <trkpt lat="44.33734" lon="6.02552">
        <ele>699</ele>
        <time>2019-04-02T13:11:54Z</time>
      </trkpt>
      <trkpt lat="44.33731" lon="6.02546">
        <ele>699</ele>
        <time>2019-04-02T13:11:55Z</time>
      </trkpt>
      <trkpt lat="44.33729" lon="6.0254">
        <ele>699</ele>
        <time>2019-04-02T13:11:56Z</time>
      </trkpt>
      <trkpt lat="44.33726" lon="6.02533">
        <ele>699</ele>
        <time>2019-04-02T13:11:57Z</time>
      </trkpt>
      <trkpt lat="44.33725" lon="6.02526">
        <ele>699</ele>
        <time>2019-04-02T13:11:58Z</time>
      </trkpt>
      <trkpt lat="44.33723" lon="6.0252">
        <ele>699</ele>
        <time>2019-04-02T13:11:59Z</time>
      </trkpt>
      <trkpt lat="44.33722" lon="6.02513">
        <ele>699</ele>
        <time>2019-04-02T13:12:00Z</time>
      </trkpt>
      <trkpt lat="44.33722" lon="6.02506">
        <ele>699</ele>
        <time>2019-04-02T13:12:01Z</time>
      </trkpt>
      <trkpt lat="44.33723" lon="6.02499">
        <ele>699</ele>
        <time>2019-04-02T13:12:02Z</time>
      </trkpt>
      <trkpt lat="44.33723" lon="6.02493">
        <ele>699</ele>
        <time>2019-04-02T13:12:03Z</time>
      </trkpt>
      <trkpt lat="44.33725" lon="6.02486">
        <ele>699</ele>
        <time>2019-04-02T13:12:04Z</time>
      </trkpt>
      <trkpt lat="44.33726" lon="6.02479">
        <ele>699</ele>
        <time>2019-04-02T13:12:05Z</time>
      </trkpt>
      <trkpt lat="44.33727" lon="6.02472">
        <ele>699</ele>
        <time>2019-04-02T13:12:06Z</time>
      </trkpt>
      <trkpt lat="44.33728" lon="6.02466">
        <ele>699</ele>
        <time>2019-04-02T13:12:07Z</time>
      </trkpt>
      <trkpt lat="44.33729" lon="6.02459">
        <ele>699</ele>
        <time>2019-04-02T13:12:08Z</time>
      </trkpt>
      <trkpt lat="44.33729" lon="6.02452">
        <ele>699</ele>
        <time>2019-04-02T13:12:09Z</time>
      </trkpt>
      <trkpt lat="44.3373" lon="6.02446">
        <ele>699</ele>
        <time>2019-04-02T13:12:10Z</time>
      </trkpt>
      <trkpt lat="44.3373" lon="6.02439">
        <ele>700</ele>
        <time>2019-04-02T13:12:11Z</time>
      </trkpt>
      <trkpt lat="44.33731" lon="6.02432">
        <ele>700</ele>
        <time>2019-04-02T13:12:12Z</time>
      </trkpt>
      <trkpt lat="44.33732" lon="6.02426">
        <ele>700</ele>
        <time>2019-04-02T13:12:13Z</time>
      </trkpt>
      <trkpt lat="44.33733" lon="6.0242">
        <ele>700</ele>
        <time>2019-04-02T13:12:14Z</time>
      </trkpt>
      <trkpt lat="44.33735" lon="6.02414">
        <ele>700</ele>
        <time>2019-04-02T13:12:15Z</time>
      </trkpt>
      <trkpt lat="44.33738" lon="6.02409">
        <ele>700</ele>
        <time>2019-04-02T13:12:16Z</time>
      </trkpt>
      <trkpt lat="44.33741" lon="6.02404">
        <ele>700</ele>
        <time>2019-04-02T13:12:17Z</time>
      </trkpt>
      <trkpt lat="44.33744" lon="6.024">
        <ele>701</ele>
        <time>2019-04-02T13:12:18Z</time>
      </trkpt>
      <trkpt lat="44.33748" lon="6.02397">
        <ele>701</ele>
        <time>2019-04-02T13:12:19Z</time>
      </trkpt>
      <trkpt lat="44.33752" lon="6.02394">
        <ele>701</ele>
        <time>2019-04-02T13:12:20Z</time>
      </trkpt>
      <trkpt lat="44.33755" lon="6.02391">
        <ele>702</ele>
        <time>2019-04-02T13:12:21Z</time>
      </trkpt>
      <trkpt lat="44.33759" lon="6.02388">
        <ele>702</ele>
        <time>2019-04-02T13:12:22Z</time>
      </trkpt>
      <trkpt lat="44.33763" lon="6.02385">
        <ele>702</ele>
        <time>2019-04-02T13:12:23Z</time>
      </trkpt>
      <trkpt lat="44.33766" lon="6.02382">
        <ele>703</ele>
        <time>2019-04-02T13:12:24Z</time>
      </trkpt>
      <trkpt lat="44.33769" lon="6.02378">
        <ele>703</ele>
        <time>2019-04-02T13:12:25Z</time>
      </trkpt>
      <trkpt lat="44.33772" lon="6.02373">
        <ele>703</ele>
        <time>2019-04-02T13:12:26Z</time>
      </trkpt>
      <trkpt lat="44.33774" lon="6.02368">
        <ele>703</ele>
        <time>2019-04-02T13:12:27Z</time>
      </trkpt>
      <trkpt lat="44.33776" lon="6.02363">
        <ele>704</ele>
        <time>2019-04-02T13:12:28Z</time>
      </trkpt>
      <trkpt lat="44.33777" lon="6.02357">
        <ele>704</ele>
        <time>2019-04-02T13:12:29Z</time>
      </trkpt>
      <trkpt lat="44.33777" lon="6.02352">
        <ele>704</ele>
        <time>2019-04-02T13:12:30Z</time>
      </trkpt>
      <trkpt lat="44.33778" lon="6.02347">
        <ele>704</ele>
        <time>2019-04-02T13:12:31Z</time>
      </trkpt>
      <trkpt lat="44.33778" lon="6.02342">
        <ele>704</ele>
        <time>2019-04-02T13:12:32Z</time>
      </trkpt>
      <trkpt lat="44.3378" lon="6.02337">
        <ele>704</ele>
        <time>2019-04-02T13:12:33Z</time>
      </trkpt>
      <trkpt lat="44.33781" lon="6.02332">
        <ele>704</ele>
        <time>2019-04-02T13:12:34Z</time>
      </trkpt>
      <trkpt lat="44.33783" lon="6.02328">
        <ele>704</ele>
        <time>2019-04-02T13:12:35Z</time>
      </trkpt>
      <trkpt lat="44.33784" lon="6.02324">
        <ele>704</ele>
        <time>2019-04-02T13:12:36Z</time>
      </trkpt>
      <trkpt lat="44.33786" lon="6.0232">
        <ele>704</ele>
        <time>2019-04-02T13:12:37Z</time>
      </trkpt>
      <trkpt lat="44.33789" lon="6.02317">
        <ele>704</ele>
        <time>2019-04-02T13:12:38Z</time>
      </trkpt>
      <trkpt lat="44.33791" lon="6.02313">
        <ele>704</ele>
        <time>2019-04-02T13:12:39Z</time>
      </trkpt>
      <trkpt lat="44.33792" lon="6.02309">
        <ele>704</ele>
        <time>2019-04-02T13:12:40Z</time>
      </trkpt>
      <trkpt lat="44.33794" lon="6.02306">
        <ele>704</ele>
        <time>2019-04-02T13:12:41Z</time>
      </trkpt>
      <trkpt lat="44.33796" lon="6.02303">
        <ele>704</ele>
        <time>2019-04-02T13:12:42Z</time>
      </trkpt>
      <trkpt lat="44.33796" lon="6.02298">
        <ele>704</ele>
        <time>2019-04-02T13:12:43Z</time>
      </trkpt>
      <trkpt lat="44.33796" lon="6.02294">
        <ele>704</ele>
        <time>2019-04-02T13:12:44Z</time>
      </trkpt>
      <trkpt lat="44.33796" lon="6.0229">
        <ele>704</ele>
        <time>2019-04-02T13:12:45Z</time>
      </trkpt>
      <trkpt lat="44.33794" lon="6.02285">
        <ele>704</ele>
        <time>2019-04-02T13:12:46Z</time>
      </trkpt>
      <trkpt lat="44.33792" lon="6.0228">
        <ele>704</ele>
        <time>2019-04-02T13:12:47Z</time>
      </trkpt>
      <trkpt lat="44.33791" lon="6.02276">
        <ele>704</ele>
        <time>2019-04-02T13:12:48Z</time>
      </trkpt>
      <trkpt lat="44.33789" lon="6.02272">
        <ele>704</ele>
        <time>2019-04-02T13:12:49Z</time>
      </trkpt>
      <trkpt lat="44.33787" lon="6.02268">
        <ele>705</ele>
        <time>2019-04-02T13:12:50Z</time>
      </trkpt>
      <trkpt lat="44.33785" lon="6.02264">
        <ele>706</ele>
        <time>2019-04-02T13:12:51Z</time>
      </trkpt>
      <trkpt lat="44.33784" lon="6.0226">
        <ele>707</ele>
        <time>2019-04-02T13:12:52Z</time>
      </trkpt>
      <trkpt lat="44.33782" lon="6.02256">
        <ele>708</ele>
        <time>2019-04-02T13:12:53Z</time>
      </trkpt>
      <trkpt lat="44.3378" lon="6.02253">
        <ele>709</ele>
        <time>2019-04-02T13:12:54Z</time>
      </trkpt>
      <trkpt lat="44.33779" lon="6.0225">
        <ele>710</ele>
        <time>2019-04-02T13:12:55Z</time>
      </trkpt>
      <trkpt lat="44.33778" lon="6.02247">
        <ele>711</ele>
        <time>2019-04-02T13:12:56Z</time>
      </trkpt>
      <trkpt lat="44.33777" lon="6.02243">
        <ele>711</ele>
        <time>2019-04-02T13:12:57Z</time>
      </trkpt>
      <trkpt lat="44.33775" lon="6.0224">
        <ele>712</ele>
        <time>2019-04-02T13:12:58Z</time>
      </trkpt>
      <trkpt lat="44.33774" lon="6.02236">
        <ele>713</ele>
        <time>2019-04-02T13:12:59Z</time>
      </trkpt>
      <trkpt lat="44.33773" lon="6.02234">
        <ele>713</ele>
        <time>2019-04-02T13:13:00Z</time>
      </trkpt>
      <trkpt lat="44.33771" lon="6.02231">
        <ele>714</ele>
        <time>2019-04-02T13:13:01Z</time>
      </trkpt>
      <trkpt lat="44.3377" lon="6.02228">
        <ele>715</ele>
        <time>2019-04-02T13:13:02Z</time>
      </trkpt>
      <trkpt lat="44.33769" lon="6.02225">
        <ele>715</ele>
        <time>2019-04-02T13:13:03Z</time>
      </trkpt>
      <trkpt lat="44.33767" lon="6.02223">
        <ele>716</ele>
        <time>2019-04-02T13:13:04Z</time>
      </trkpt>
      <trkpt lat="44.33766" lon="6.0222">
        <ele>716</ele>
        <time>2019-04-02T13:13:05Z</time>
      </trkpt>
      <trkpt lat="44.33765" lon="6.02218">
        <ele>717</ele>
        <time>2019-04-02T13:13:06Z</time>
      </trkpt>
      <trkpt lat="44.33763" lon="6.02215">
        <ele>718</ele>
        <time>2019-04-02T13:13:07Z</time>
      </trkpt>
      <trkpt lat="44.33762" lon="6.02212">
        <ele>718</ele>
        <time>2019-04-02T13:13:08Z</time>
      </trkpt>
      <trkpt lat="44.33761" lon="6.0221">
        <ele>719</ele>
        <time>2019-04-02T13:13:09Z</time>
      </trkpt>
      <trkpt lat="44.33759" lon="6.02207">
        <ele>720</ele>
        <time>2019-04-02T13:13:10Z</time>
      </trkpt>
      <trkpt lat="44.33758" lon="6.02205">
        <ele>720</ele>
        <time>2019-04-02T13:13:11Z</time>
      </trkpt>
      <trkpt lat="44.33756" lon="6.02203">
        <ele>720</ele>
        <time>2019-04-02T13:13:12Z</time>
      </trkpt>
      <trkpt lat="44.33754" lon="6.02201">
        <ele>721</ele>
        <time>2019-04-02T13:13:13Z</time>
      </trkpt>
      <trkpt lat="44.33752" lon="6.022">
        <ele>721</ele>
        <time>2019-04-02T13:13:14Z</time>
      </trkpt>
      <trkpt lat="44.33749" lon="6.02199">
        <ele>721</ele>
        <time>2019-04-02T13:13:15Z</time>
      </trkpt>
      <trkpt lat="44.33747" lon="6.02199">
        <ele>721</ele>
        <time>2019-04-02T13:13:16Z</time>
      </trkpt>
      <trkpt lat="44.33745" lon="6.02199">
        <ele>722</ele>
        <time>2019-04-02T13:13:17Z</time>
      </trkpt>
      <trkpt lat="44.33743" lon="6.022">
        <ele>722</ele>
        <time>2019-04-02T13:13:18Z</time>
      </trkpt>
      <trkpt lat="44.33741" lon="6.02201">
        <ele>722</ele>
        <time>2019-04-02T13:13:19Z</time>
      </trkpt>
      <trkpt lat="44.33739" lon="6.02202">
        <ele>722</ele>
        <time>2019-04-02T13:13:20Z</time>
      </trkpt>
      <trkpt lat="44.33737" lon="6.02204">
        <ele>722</ele>
        <time>2019-04-02T13:13:21Z</time>
      </trkpt>
      <trkpt lat="44.33736" lon="6.02206">
        <ele>722</ele>
        <time>2019-04-02T13:13:22Z</time>
      </trkpt>
      <trkpt lat="44.33735" lon="6.02209">
        <ele>722</ele>
        <time>2019-04-02T13:13:23Z</time>
      </trkpt>
      <trkpt lat="44.33733" lon="6.02211">
        <ele>722</ele>
        <time>2019-04-02T13:13:24Z</time>
      </trkpt>
      <trkpt lat="44.33732" lon="6.02214">
        <ele>722</ele>
        <time>2019-04-02T13:13:25Z</time>
      </trkpt>
      <trkpt lat="44.33731" lon="6.02216">
        <ele>722</ele>
        <time>2019-04-02T13:13:26Z</time>
      </trkpt>
      <trkpt lat="44.3373" lon="6.02219">
        <ele>722</ele>
        <time>2019-04-02T13:13:27Z</time>
      </trkpt>
      <trkpt lat="44.33728" lon="6.02222">
        <ele>722</ele>
        <time>2019-04-02T13:13:28Z</time>
      </trkpt>
      <trkpt lat="44.33727" lon="6.02225">
        <ele>722</ele>
        <time>2019-04-02T13:13:29Z</time>
      </trkpt>
      <trkpt lat="44.33725" lon="6.02228">
        <ele>722</ele>
        <time>2019-04-02T13:13:30Z</time>
      </trkpt>
      <trkpt lat="44.33722" lon="6.02229">
        <ele>722</ele>
        <time>2019-04-02T13:13:31Z</time>
      </trkpt>
      <trkpt lat="44.33719" lon="6.0223">
        <ele>722</ele>
        <time>2019-04-02T13:13:32Z</time>
      </trkpt>
      <trkpt lat="44.33717" lon="6.0223">
        <ele>722</ele>
        <time>2019-04-02T13:13:33Z</time>
      </trkpt>
      <trkpt lat="44.33715" lon="6.0223">
        <ele>722</ele>
        <time>2019-04-02T13:13:34Z</time>
      </trkpt>
      <trkpt lat="44.33713" lon="6.02228">
        <ele>722</ele>
        <time>2019-04-02T13:13:35Z</time>
      </trkpt>
      <trkpt lat="44.33712" lon="6.02227">
        <ele>722</ele>
        <time>2019-04-02T13:13:36Z</time>
      </trkpt>
      <trkpt lat="44.3371" lon="6.02225">
        <ele>722</ele>
        <time>2019-04-02T13:13:37Z</time>
      </trkpt>
      <trkpt lat="44.33709" lon="6.02222">
        <ele>722</ele>
        <time>2019-04-02T13:13:38Z</time>
      </trkpt>
      <trkpt lat="44.33709" lon="6.02219">
        <ele>722</ele>
        <time>2019-04-02T13:13:39Z</time>
      </trkpt>
      <trkpt lat="44.33709" lon="6.02216">
        <ele>722</ele>
        <time>2019-04-02T13:13:40Z</time>
      </trkpt>
      <trkpt lat="44.33709" lon="6.02213">
        <ele>722</ele>
        <time>2019-04-02T13:13:41Z</time>
      </trkpt>
      <trkpt lat="44.3371" lon="6.0221">
        <ele>722</ele>
        <time>2019-04-02T13:13:42Z</time>
      </trkpt>
      <trkpt lat="44.3371" lon="6.02207">
        <ele>722</ele>
        <time>2019-04-02T13:13:43Z</time>
      </trkpt>
      <trkpt lat="44.33711" lon="6.02204">
        <ele>722</ele>
        <time>2019-04-02T13:13:44Z</time>
      </trkpt>
      <trkpt lat="44.33712" lon="6.02201">
        <ele>722</ele>
        <time>2019-04-02T13:13:45Z</time>
      </trkpt>
      <trkpt lat="44.33712" lon="6.02198">
        <ele>722</ele>
        <time>2019-04-02T13:13:46Z</time>
      </trkpt>
      <trkpt lat="44.33713" lon="6.02195">
        <ele>722</ele>
        <time>2019-04-02T13:13:47Z</time>
      </trkpt>
      <trkpt lat="44.33713" lon="6.02192">
        <ele>722</ele>
        <time>2019-04-02T13:13:48Z</time>
      </trkpt>
      <trkpt lat="44.33712" lon="6.02189">
        <ele>722</ele>
        <time>2019-04-02T13:13:49Z</time>
      </trkpt>
      <trkpt lat="44.33711" lon="6.02186">
        <ele>722</ele>
        <time>2019-04-02T13:13:50Z</time>
      </trkpt>
      <trkpt lat="44.3371" lon="6.02184">
        <ele>722</ele>
        <time>2019-04-02T13:13:51Z</time>
      </trkpt>
      <trkpt lat="44.33708" lon="6.02181">
        <ele>722</ele>
        <time>2019-04-02T13:13:52Z</time>
      </trkpt>
      <trkpt lat="44.33706" lon="6.02179">
        <ele>722</ele>
        <time>2019-04-02T13:13:53Z</time>
      </trkpt>
      <trkpt lat="44.33704" lon="6.02177">
        <ele>722</ele>
        <time>2019-04-02T13:13:54Z</time>
      </trkpt>
      <trkpt lat="44.33702" lon="6.02175">
        <ele>722</ele>
        <time>2019-04-02T13:13:55Z</time>
      </trkpt>
      <trkpt lat="44.337" lon="6.02174">
        <ele>723</ele>
        <time>2019-04-02T13:13:56Z</time>
      </trkpt>
      <trkpt lat="44.33698" lon="6.02173">
        <ele>723</ele>
        <time>2019-04-02T13:13:57Z</time>
      </trkpt>
      <trkpt lat="44.33695" lon="6.02172">
        <ele>723</ele>
        <time>2019-04-02T13:13:58Z</time>
      </trkpt>
      <trkpt lat="44.33693" lon="6.02172">
        <ele>724</ele>
        <time>2019-04-02T13:13:59Z</time>
      </trkpt>
      <trkpt lat="44.33691" lon="6.02172">
        <ele>724</ele>
        <time>2019-04-02T13:14:00Z</time>
      </trkpt>
      <trkpt lat="44.33688" lon="6.02172">
        <ele>724</ele>
        <time>2019-04-02T13:14:01Z</time>
      </trkpt>
      <trkpt lat="44.33686" lon="6.02171">
        <ele>724</ele>
        <time>2019-04-02T13:14:02Z</time>
      </trkpt>
      <trkpt lat="44.33684" lon="6.02171">
        <ele>724</ele>
        <time>2019-04-02T13:14:03Z</time>
      </trkpt>
      <trkpt lat="44.33682" lon="6.02171">
        <ele>724</ele>
        <time>2019-04-02T13:14:04Z</time>
      </trkpt>
      <trkpt lat="44.33679" lon="6.02171">
        <ele>724</ele>
        <time>2019-04-02T13:14:05Z</time>
      </trkpt>
      <trkpt lat="44.33677" lon="6.02172">
        <ele>724</ele>
        <time>2019-04-02T13:14:06Z</time>
      </trkpt>
      <trkpt lat="44.33675" lon="6.02172">
        <ele>724</ele>
        <time>2019-04-02T13:14:07Z</time>
      </trkpt>
      <trkpt lat="44.33672" lon="6.02173">
        <ele>725</ele>
        <time>2019-04-02T13:14:08Z</time>
      </trkpt>
      <trkpt lat="44.3367" lon="6.02174">
        <ele>725</ele>
        <time>2019-04-02T13:14:09Z</time>
      </trkpt>
      <trkpt lat="44.33667" lon="6.02175">
        <ele>725</ele>
        <time>2019-04-02T13:14:10Z</time>
      </trkpt>
      <trkpt lat="44.33665" lon="6.02176">
        <ele>725</ele>
        <time>2019-04-02T13:14:11Z</time>
      </trkpt>
      <trkpt lat="44.33663" lon="6.02177">
        <ele>725</ele>
        <time>2019-04-02T13:14:12Z</time>
      </trkpt>
      <trkpt lat="44.33661" lon="6.02178">
        <ele>725</ele>
        <time>2019-04-02T13:14:13Z</time>
      </trkpt>
      <trkpt lat="44.33659" lon="6.0218">
        <ele>725</ele>
        <time>2019-04-02T13:14:14Z</time>
      </trkpt>
      <trkpt lat="44.33657" lon="6.02181">
        <ele>726</ele>
        <time>2019-04-02T13:14:15Z</time>
      </trkpt>
      <trkpt lat="44.33656" lon="6.02182">
        <ele>726</ele>
        <time>2019-04-02T13:14:16Z</time>
      </trkpt>
      <trkpt lat="44.33654" lon="6.02184">
        <ele>726</ele>
        <time>2019-04-02T13:14:17Z</time>
      </trkpt>
      <trkpt lat="44.33652" lon="6.02185">
        <ele>726</ele>
        <time>2019-04-02T13:14:18Z</time>
      </trkpt>
      <trkpt lat="44.3365" lon="6.02186">
        <ele>726</ele>
        <time>2019-04-02T13:14:19Z</time>
      </trkpt>
      <trkpt lat="44.33648" lon="6.02187">
        <ele>726</ele>
        <time>2019-04-02T13:14:20Z</time>
      </trkpt>
      <trkpt lat="44.33646" lon="6.02188">
        <ele>726</ele>
        <time>2019-04-02T13:14:21Z</time>
      </trkpt>
      <trkpt lat="44.33644" lon="6.02189">
        <ele>726</ele>
        <time>2019-04-02T13:14:22Z</time>
      </trkpt>
      <trkpt lat="44.33642" lon="6.02189">
        <ele>726</ele>
        <time>2019-04-02T13:14:23Z</time>
      </trkpt>
      <trkpt lat="44.3364" lon="6.0219">
        <ele>727</ele>
        <time>2019-04-02T13:14:24Z</time>
      </trkpt>
      <trkpt lat="44.33638" lon="6.0219">
        <ele>727</ele>
        <time>2019-04-02T13:14:25Z</time>
      </trkpt>
      <trkpt lat="44.33636" lon="6.0219">
        <ele>727</ele>
        <time>2019-04-02T13:14:26Z</time>
      </trkpt>
      <trkpt lat="44.33634" lon="6.02189">
        <ele>727</ele>
        <time>2019-04-02T13:14:27Z</time>
      </trkpt>
      <trkpt lat="44.33632" lon="6.02189">
        <ele>727</ele>
        <time>2019-04-02T13:14:28Z</time>
      </trkpt>
      <trkpt lat="44.3363" lon="6.02188">
        <ele>727</ele>
        <time>2019-04-02T13:14:29Z</time>
      </trkpt>
      <trkpt lat="44.33628" lon="6.02187">
        <ele>727</ele>
        <time>2019-04-02T13:14:30Z</time>
      </trkpt>
      <trkpt lat="44.33627" lon="6.02186">
        <ele>727</ele>
        <time>2019-04-02T13:14:31Z</time>
      </trkpt>
      <trkpt lat="44.33625" lon="6.02185">
        <ele>727</ele>
        <time>2019-04-02T13:14:32Z</time>
      </trkpt>
      <trkpt lat="44.33624" lon="6.02184">
        <ele>727</ele>
        <time>2019-04-02T13:14:33Z</time>
      </trkpt>
      <trkpt lat="44.33622" lon="6.02182">
        <ele>727</ele>
        <time>2019-04-02T13:14:34Z</time>
      </trkpt>
      <trkpt lat="44.3362" lon="6.02181">
        <ele>727</ele>
        <time>2019-04-02T13:14:35Z</time>
      </trkpt>
      <trkpt lat="44.33619" lon="6.0218">
        <ele>728</ele>
        <time>2019-04-02T13:14:36Z</time>
      </trkpt>
      <trkpt lat="44.33617" lon="6.02178">
        <ele>728</ele>
        <time>2019-04-02T13:14:37Z</time>
      </trkpt>
      <trkpt lat="44.33615" lon="6.02177">
        <ele>728</ele>
        <time>2019-04-02T13:14:38Z</time>
      </trkpt>
      <trkpt lat="44.33614" lon="6.02175">
        <ele>729</ele>
        <time>2019-04-02T13:14:39Z</time>
      </trkpt>
      <trkpt lat="44.33613" lon="6.02173">
        <ele>729</ele>
        <time>2019-04-02T13:14:40Z</time>
      </trkpt>
      <trkpt lat="44.33612" lon="6.02171">
        <ele>729</ele>
        <time>2019-04-02T13:14:41Z</time>
      </trkpt>
      <trkpt lat="44.3361" lon="6.02169">
        <ele>730</ele>
        <time>2019-04-02T13:14:42Z</time>
      </trkpt>
      <trkpt lat="44.33609" lon="6.02167">
        <ele>730</ele>
        <time>2019-04-02T13:14:43Z</time>
      </trkpt>
      <trkpt lat="44.33607" lon="6.02165">
        <ele>730</ele>
        <time>2019-04-02T13:14:44Z</time>
      </trkpt>
      <trkpt lat="44.33606" lon="6.02163">
        <ele>730</ele>
        <time>2019-04-02T13:14:45Z</time>
      </trkpt>
      <trkpt lat="44.33605" lon="6.02161">
        <ele>731</ele>
        <time>2019-04-02T13:14:46Z</time>
      </trkpt>
      <trkpt lat="44.33604" lon="6.02158">
        <ele>731</ele>
        <time>2019-04-02T13:14:47Z</time>
      </trkpt>
      <trkpt lat="44.33603" lon="6.02156">
        <ele>731</ele>
        <time>2019-04-02T13:14:48Z</time>
      </trkpt>
      <trkpt lat="44.33603" lon="6.02153">
        <ele>731</ele>
        <time>2019-04-02T13:14:49Z</time>
      </trkpt>
      <trkpt lat="44.33602" lon="6.02151">
        <ele>731</ele>
        <time>2019-04-02T13:14:50Z</time>
      </trkpt>
      <trkpt lat="44.33601" lon="6.02148">
        <ele>731</ele>
        <time>2019-04-02T13:14:51Z</time>
      </trkpt>
      <trkpt lat="44.33601" lon="6.02145">
        <ele>731</ele>
        <time>2019-04-02T13:14:52Z</time>
      </trkpt>
      <trkpt lat="44.33601" lon="6.02143">
        <ele>732</ele>
        <time>2019-04-02T13:14:53Z</time>
      </trkpt>
      <trkpt lat="44.336" lon="6.0214">
        <ele>732</ele>
        <time>2019-04-02T13:14:54Z</time>
      </trkpt>
      <trkpt lat="44.336" lon="6.02138">
        <ele>732</ele>
        <time>2019-04-02T13:14:55Z</time>
      </trkpt>
      <trkpt lat="44.33599" lon="6.02135">
        <ele>732</ele>
        <time>2019-04-02T13:14:56Z</time>
      </trkpt>
      <trkpt lat="44.33599" lon="6.02133">
        <ele>732</ele>
        <time>2019-04-02T13:14:57Z</time>
      </trkpt>
      <trkpt lat="44.33599" lon="6.02131">
        <ele>732</ele>
        <time>2019-04-02T13:14:58Z</time>
      </trkpt>
      <trkpt lat="44.33598" lon="6.02128">
        <ele>732</ele>
        <time>2019-04-02T13:14:59Z</time>
      </trkpt>
      <trkpt lat="44.33598" lon="6.02126">
        <ele>732</ele>
        <time>2019-04-02T13:15:00Z</time>
      </trkpt>
      <trkpt lat="44.33597" lon="6.02123">
        <ele>732</ele>
        <time>2019-04-02T13:15:01Z</time>
      </trkpt>
      <trkpt lat="44.33597" lon="6.0212">
        <ele>732</ele>
        <time>2019-04-02T13:15:02Z</time>
      </trkpt>
      <trkpt lat="44.33596" lon="6.02118">
        <ele>732</ele>
        <time>2019-04-02T13:15:03Z</time>
      </trkpt>
      <trkpt lat="44.33596" lon="6.02115">
        <ele>732</ele>
        <time>2019-04-02T13:15:04Z</time>
      </trkpt>
      <trkpt lat="44.33595" lon="6.02113">
        <ele>733</ele>
        <time>2019-04-02T13:15:05Z</time>
      </trkpt>
      <trkpt lat="44.33594" lon="6.02111">
        <ele>733</ele>
        <time>2019-04-02T13:15:06Z</time>
      </trkpt>
      <trkpt lat="44.33593" lon="6.02109">
        <ele>734</ele>
        <time>2019-04-02T13:15:07Z</time>
      </trkpt>
      <trkpt lat="44.33592" lon="6.02107">
        <ele>734</ele>
        <time>2019-04-02T13:15:08Z</time>
      </trkpt>
      <trkpt lat="44.33591" lon="6.02105">
        <ele>735</ele>
        <time>2019-04-02T13:15:09Z</time>
      </trkpt>
      <trkpt lat="44.3359" lon="6.02103">
        <ele>736</ele>
        <time>2019-04-02T13:15:10Z</time>
      </trkpt>
      <trkpt lat="44.33589" lon="6.021">
        <ele>737</ele>
        <time>2019-04-02T13:15:11Z</time>
      </trkpt>
      <trkpt lat="44.33588" lon="6.02098">
        <ele>737</ele>
        <time>2019-04-02T13:15:12Z</time>
      </trkpt>
      <trkpt lat="44.33587" lon="6.02096">
        <ele>738</ele>
        <time>2019-04-02T13:15:13Z</time>
      </trkpt>
      <trkpt lat="44.33586" lon="6.02093">
        <ele>739</ele>
        <time>2019-04-02T13:15:14Z</time>
      </trkpt>
      <trkpt lat="44.33585" lon="6.02091">
        <ele>739</ele>
        <time>2019-04-02T13:15:15Z</time>
      </trkpt>
      <trkpt lat="44.33584" lon="6.02089">
        <ele>740</ele>
        <time>2019-04-02T13:15:16Z</time>
      </trkpt>
      <trkpt lat="44.33583" lon="6.02087">
        <ele>741</ele>
        <time>2019-04-02T13:15:17Z</time>
      </trkpt>
      <trkpt lat="44.33582" lon="6.02085">
        <ele>741</ele>
        <time>2019-04-02T13:15:18Z</time>
      </trkpt>
      <trkpt lat="44.3358" lon="6.02083">
        <ele>742</ele>
        <time>2019-04-02T13:15:19Z</time>
      </trkpt>
      <trkpt lat="44.33579" lon="6.02081">
        <ele>743</ele>
        <time>2019-04-02T13:15:20Z</time>
      </trkpt>
      <trkpt lat="44.33578" lon="6.02079">
        <ele>743</ele>
        <time>2019-04-02T13:15:21Z</time>
      </trkpt>
      <trkpt lat="44.33577" lon="6.02077">
        <ele>744</ele>
        <time>2019-04-02T13:15:22Z</time>
      </trkpt>
      <trkpt lat="44.33576" lon="6.02075">
        <ele>744</ele>
        <time>2019-04-02T13:15:23Z</time>
      </trkpt>
      <trkpt lat="44.33575" lon="6.02073">
        <ele>745</ele>
        <time>2019-04-02T13:15:24Z</time>
      </trkpt>
      <trkpt lat="44.33574" lon="6.02072">
        <ele>746</ele>
        <time>2019-04-02T13:15:25Z</time>
      </trkpt>
      <trkpt lat="44.33573" lon="6.0207">
        <ele>746</ele>
        <time>2019-04-02T13:15:26Z</time>
      </trkpt>
      <trkpt lat="44.33572" lon="6.02068">
        <ele>747</ele>
        <time>2019-04-02T13:15:27Z</time>
      </trkpt>
      <trkpt lat="44.33571" lon="6.02066">
        <ele>748</ele>
        <time>2019-04-02T13:15:28Z</time>
      </trkpt>
      <trkpt lat="44.3357" lon="6.02064">
        <ele>749</ele>
        <time>2019-04-02T13:15:29Z</time>
      </trkpt>
      <trkpt lat="44.33569" lon="6.02063">
        <ele>750</ele>
        <time>2019-04-02T13:15:30Z</time>
      </trkpt>
      <trkpt lat="44.33567" lon="6.02061">
        <ele>751</ele>
        <time>2019-04-02T13:15:31Z</time>
      </trkpt>
      <trkpt lat="44.33566" lon="6.0206">
        <ele>752</ele>
        <time>2019-04-02T13:15:32Z</time>
      </trkpt>
      <trkpt lat="44.33565" lon="6.02058">
        <ele>753</ele>
        <time>2019-04-02T13:15:33Z</time>
      </trkpt>
      <trkpt lat="44.33564" lon="6.02057">
        <ele>754</ele>
        <time>2019-04-02T13:15:34Z</time>
      </trkpt>
      <trkpt lat="44.33562" lon="6.02055">
        <ele>755</ele>
        <time>2019-04-02T13:15:35Z</time>
      </trkpt>
      <trkpt lat="44.33561" lon="6.02053">
        <ele>756</ele>
        <time>2019-04-02T13:15:36Z</time>
      </trkpt>
      <trkpt lat="44.3356" lon="6.02052">
        <ele>756</ele>
        <time>2019-04-02T13:15:37Z</time>
      </trkpt>
      <trkpt lat="44.33558" lon="6.0205">
        <ele>757</ele>
        <time>2019-04-02T13:15:38Z</time>
      </trkpt>
      <trkpt lat="44.33557" lon="6.02048">
        <ele>757</ele>
        <time>2019-04-02T13:15:39Z</time>
      </trkpt>
      <trkpt lat="44.33555" lon="6.02047">
        <ele>757</ele>
        <time>2019-04-02T13:15:40Z</time>
      </trkpt>
      <trkpt lat="44.33553" lon="6.02045">
        <ele>757</ele>
        <time>2019-04-02T13:15:41Z</time>
      </trkpt>
      <trkpt lat="44.33551" lon="6.02044">
        <ele>757</ele>
        <time>2019-04-02T13:15:42Z</time>
      </trkpt>
      <trkpt lat="44.33549" lon="6.02042">
        <ele>757</ele>
        <time>2019-04-02T13:15:43Z</time>
      </trkpt>
      <trkpt lat="44.33547" lon="6.02041">
        <ele>757</ele>
        <time>2019-04-02T13:15:44Z</time>
      </trkpt>
      <trkpt lat="44.33545" lon="6.02039">
        <ele>757</ele>
        <time>2019-04-02T13:15:45Z</time>
      </trkpt>
      <trkpt lat="44.33543" lon="6.02038">
        <ele>757</ele>
        <time>2019-04-02T13:15:46Z</time>
      </trkpt>
      <trkpt lat="44.33541" lon="6.02037">
        <ele>757</ele>
        <time>2019-04-02T13:15:47Z</time>
      </trkpt>
      <trkpt lat="44.33539" lon="6.02035">
        <ele>757</ele>
        <time>2019-04-02T13:15:48Z</time>
      </trkpt>
      <trkpt lat="44.33537" lon="6.02034">
        <ele>757</ele>
        <time>2019-04-02T13:15:49Z</time>
      </trkpt>
      <trkpt lat="44.33535" lon="6.02033">
        <ele>757</ele>
        <time>2019-04-02T13:15:50Z</time>
      </trkpt>
      <trkpt lat="44.33533" lon="6.02031">
        <ele>757</ele>
        <time>2019-04-02T13:15:51Z</time>
      </trkpt>
      <trkpt lat="44.33531" lon="6.0203">
        <ele>757</ele>
        <time>2019-04-02T13:15:52Z</time>
      </trkpt>
      <trkpt lat="44.3353" lon="6.02029">
        <ele>757</ele>
        <time>2019-04-02T13:15:53Z</time>
      </trkpt>
      <trkpt lat="44.33528" lon="6.02027">
        <ele>757</ele>
        <time>2019-04-02T13:15:54Z</time>
      </trkpt>
      <trkpt lat="44.33526" lon="6.02026">
        <ele>757</ele>
        <time>2019-04-02T13:15:55Z</time>
      </trkpt>
      <trkpt lat="44.33524" lon="6.02024">
        <ele>757</ele>
        <time>2019-04-02T13:15:56Z</time>
      </trkpt>
      <trkpt lat="44.33522" lon="6.02022">
        <ele>757</ele>
        <time>2019-04-02T13:15:57Z</time>
      </trkpt>
      <trkpt lat="44.33521" lon="6.02021">
        <ele>757</ele>
        <time>2019-04-02T13:15:58Z</time>
      </trkpt>
      <trkpt lat="44.33519" lon="6.02018">
        <ele>757</ele>
        <time>2019-04-02T13:15:59Z</time>
      </trkpt>
      <trkpt lat="44.33517" lon="6.02016">
        <ele>757</ele>
        <time>2019-04-02T13:16:00Z</time>
      </trkpt>
      <trkpt lat="44.33516" lon="6.02014">
        <ele>757</ele>
        <time>2019-04-02T13:16:01Z</time>
      </trkpt>
      <trkpt lat="44.33514" lon="6.02012">
        <ele>757</ele>
        <time>2019-04-02T13:16:02Z</time>
      </trkpt>
      <trkpt lat="44.33513" lon="6.02009">
        <ele>757</ele>
        <time>2019-04-02T13:16:03Z</time>
      </trkpt>
      <trkpt lat="44.33512" lon="6.02007">
        <ele>757</ele>
        <time>2019-04-02T13:16:04Z</time>
      </trkpt>
      <trkpt lat="44.33511" lon="6.02004">
        <ele>757</ele>
        <time>2019-04-02T13:16:05Z</time>
      </trkpt>
      <trkpt lat="44.33511" lon="6.02001">
        <ele>757</ele>
        <time>2019-04-02T13:16:06Z</time>
      </trkpt>
      <trkpt lat="44.33511" lon="6.01998">
        <ele>757</ele>
        <time>2019-04-02T13:16:07Z</time>
      </trkpt>
      <trkpt lat="44.3351" lon="6.01995">
        <ele>756</ele>
        <time>2019-04-02T13:16:08Z</time>
      </trkpt>
      <trkpt lat="44.3351" lon="6.01992">
        <ele>755</ele>
        <time>2019-04-02T13:16:09Z</time>
      </trkpt>
      <trkpt lat="44.3351" lon="6.01989">
        <ele>755</ele>
        <time>2019-04-02T13:16:10Z</time>
      </trkpt>
      <trkpt lat="44.3351" lon="6.01986">
        <ele>754</ele>
        <time>2019-04-02T13:16:11Z</time>
      </trkpt>
      <trkpt lat="44.3351" lon="6.01983">
        <ele>753</ele>
        <time>2019-04-02T13:16:12Z</time>
      </trkpt>
      <trkpt lat="44.3351" lon="6.0198">
        <ele>752</ele>
        <time>2019-04-02T13:16:13Z</time>
      </trkpt>
      <trkpt lat="44.3351" lon="6.01977">
        <ele>751</ele>
        <time>2019-04-02T13:16:14Z</time>
      </trkpt>
      <trkpt lat="44.3351" lon="6.01975">
        <ele>750</ele>
        <time>2019-04-02T13:16:15Z</time>
      </trkpt>
      <trkpt lat="44.33509" lon="6.01972">
        <ele>749</ele>
        <time>2019-04-02T13:16:16Z</time>
      </trkpt>
      <trkpt lat="44.33509" lon="6.0197">
        <ele>748</ele>
        <time>2019-04-02T13:16:17Z</time>
      </trkpt>
      <trkpt lat="44.33509" lon="6.01968">
        <ele>747</ele>
        <time>2019-04-02T13:16:18Z</time>
      </trkpt>
      <trkpt lat="44.33509" lon="6.01966">
        <ele>747</ele>
        <time>2019-04-02T13:16:19Z</time>
      </trkpt>
      <trkpt lat="44.33509" lon="6.01963">
        <ele>746</ele>
        <time>2019-04-02T13:16:20Z</time>
      </trkpt>
      <trkpt lat="44.33508" lon="6.0196">
        <ele>746</ele>
        <time>2019-04-02T13:16:21Z</time>
      </trkpt>
      <trkpt lat="44.33507" lon="6.01957">
        <ele>746</ele>
        <time>2019-04-02T13:16:22Z</time>
      </trkpt>
      <trkpt lat="44.33506" lon="6.01954">
        <ele>745</ele>
        <time>2019-04-02T13:16:23Z</time>
      </trkpt>
      <trkpt lat="44.33505" lon="6.01952">
        <ele>745</ele>
        <time>2019-04-02T13:16:24Z</time>
      </trkpt>
      <trkpt lat="44.33505" lon="6.01949">
        <ele>745</ele>
        <time>2019-04-02T13:16:25Z</time>
      </trkpt>
      <trkpt lat="44.33504" lon="6.01946">
        <ele>745</ele>
        <time>2019-04-02T13:16:26Z</time>
      </trkpt>
      <trkpt lat="44.33503" lon="6.01944">
        <ele>745</ele>
        <time>2019-04-02T13:16:27Z</time>
      </trkpt>
      <trkpt lat="44.33503" lon="6.01941">
        <ele>745</ele>
        <time>2019-04-02T13:16:28Z</time>
      </trkpt>
      <trkpt lat="44.33502" lon="6.01939">
        <ele>745</ele>
        <time>2019-04-02T13:16:29Z</time>
      </trkpt>
      <trkpt lat="44.33502" lon="6.01936">
        <ele>745</ele>
        <time>2019-04-02T13:16:30Z</time>
      </trkpt>
      <trkpt lat="44.33501" lon="6.01933">
        <ele>745</ele>
        <time>2019-04-02T13:16:31Z</time>
      </trkpt>
      <trkpt lat="44.335" lon="6.01931">
        <ele>745</ele>
        <time>2019-04-02T13:16:32Z</time>
      </trkpt>
      <trkpt lat="44.335" lon="6.01928">
        <ele>745</ele>
        <time>2019-04-02T13:16:33Z</time>
      </trkpt>
      <trkpt lat="44.33499" lon="6.01926">
        <ele>745</ele>
        <time>2019-04-02T13:16:34Z</time>
      </trkpt>
      <trkpt lat="44.33498" lon="6.01924">
        <ele>745</ele>
        <time>2019-04-02T13:16:35Z</time>
      </trkpt>
      <trkpt lat="44.33498" lon="6.01921">
        <ele>745</ele>
        <time>2019-04-02T13:16:36Z</time>
      </trkpt>
      <trkpt lat="44.33496" lon="6.01918">
        <ele>745</ele>
        <time>2019-04-02T13:16:37Z</time>
      </trkpt>
      <trkpt lat="44.33495" lon="6.01915">
        <ele>745</ele>
        <time>2019-04-02T13:16:38Z</time>
      </trkpt>
      <trkpt lat="44.33495" lon="6.01912">
        <ele>746</ele>
        <time>2019-04-02T13:16:39Z</time>
      </trkpt>
      <trkpt lat="44.33495" lon="6.01909">
        <ele>747</ele>
        <time>2019-04-02T13:16:40Z</time>
      </trkpt>
      <trkpt lat="44.33494" lon="6.01906">
        <ele>748</ele>
        <time>2019-04-02T13:16:41Z</time>
      </trkpt>
      <trkpt lat="44.33494" lon="6.01904">
        <ele>749</ele>
        <time>2019-04-02T13:16:42Z</time>
      </trkpt>
      <trkpt lat="44.33493" lon="6.01902">
        <ele>749</ele>
        <time>2019-04-02T13:16:43Z</time>
      </trkpt>
      <trkpt lat="44.33493" lon="6.01899">
        <ele>749</ele>
        <time>2019-04-02T13:16:44Z</time>
      </trkpt>
      <trkpt lat="44.33493" lon="6.01897">
        <ele>749</ele>
        <time>2019-04-02T13:16:45Z</time>
      </trkpt>
      <trkpt lat="44.33493" lon="6.01894">
        <ele>749</ele>
        <time>2019-04-02T13:16:46Z</time>
      </trkpt>
      <trkpt lat="44.33493" lon="6.01892">
        <ele>750</ele>
        <time>2019-04-02T13:16:47Z</time>
      </trkpt>
      <trkpt lat="44.33493" lon="6.0189">
        <ele>750</ele>
        <time>2019-04-02T13:16:48Z</time>
      </trkpt>
      <trkpt lat="44.33493" lon="6.01887">
        <ele>750</ele>
        <time>2019-04-02T13:16:49Z</time>
      </trkpt>
      <trkpt lat="44.33493" lon="6.01885">
        <ele>750</ele>
        <time>2019-04-02T13:16:50Z</time>
      </trkpt>
      <trkpt lat="44.33493" lon="6.01882">
        <ele>750</ele>
        <time>2019-04-02T13:16:51Z</time>
      </trkpt>
      <trkpt lat="44.33493" lon="6.0188">
        <ele>750</ele>
        <time>2019-04-02T13:16:52Z</time>
      </trkpt>
      <trkpt lat="44.33493" lon="6.01877">
        <ele>750</ele>
        <time>2019-04-02T13:16:53Z</time>
      </trkpt>
      <trkpt lat="44.33493" lon="6.01875">
        <ele>750</ele>
        <time>2019-04-02T13:16:54Z</time>
      </trkpt>
      <trkpt lat="44.33493" lon="6.01873">
        <ele>750</ele>
        <time>2019-04-02T13:16:55Z</time>
      </trkpt>
      <trkpt lat="44.33493" lon="6.0187">
        <ele>750</ele>
        <time>2019-04-02T13:16:56Z</time>
      </trkpt>
      <trkpt lat="44.33493" lon="6.01868">
        <ele>750</ele>
        <time>2019-04-02T13:16:57Z</time>
      </trkpt>
      <trkpt lat="44.33493" lon="6.01866">
        <ele>750</ele>
        <time>2019-04-02T13:16:58Z</time>
      </trkpt>
      <trkpt lat="44.33493" lon="6.01864">
        <ele>750</ele>
        <time>2019-04-02T13:16:59Z</time>
      </trkpt>
      <trkpt lat="44.33494" lon="6.01862">
        <ele>750</ele>
        <time>2019-04-02T13:17:00Z</time>
      </trkpt>
      <trkpt lat="44.33494" lon="6.01859">
        <ele>750</ele>
        <time>2019-04-02T13:17:01Z</time>
      </trkpt>
      <trkpt lat="44.33494" lon="6.01857">
        <ele>750</ele>
        <time>2019-04-02T13:17:02Z</time>
      </trkpt>
      <trkpt lat="44.33494" lon="6.01855">
        <ele>751</ele>
        <time>2019-04-02T13:17:03Z</time>
      </trkpt>
      <trkpt lat="44.33494" lon="6.01852">
        <ele>751</ele>
        <time>2019-04-02T13:17:04Z</time>
      </trkpt>
      <trkpt lat="44.33493" lon="6.0185">
        <ele>751</ele>
        <time>2019-04-02T13:17:05Z</time>
      </trkpt>
      <trkpt lat="44.33493" lon="6.01847">
        <ele>751</ele>
        <time>2019-04-02T13:17:06Z</time>
      </trkpt>
      <trkpt lat="44.33493" lon="6.01845">
        <ele>751</ele>
        <time>2019-04-02T13:17:07Z</time>
      </trkpt>
      <trkpt lat="44.33493" lon="6.01842">
        <ele>751</ele>
        <time>2019-04-02T13:17:08Z</time>
      </trkpt>
      <trkpt lat="44.33493" lon="6.01839">
        <ele>751</ele>
        <time>2019-04-02T13:17:09Z</time>
      </trkpt>
      <trkpt lat="44.33493" lon="6.01836">
        <ele>751</ele>
        <time>2019-04-02T13:17:10Z</time>
      </trkpt>
      <trkpt lat="44.33493" lon="6.01834">
        <ele>751</ele>
        <time>2019-04-02T13:17:11Z</time>
      </trkpt>
      <trkpt lat="44.33492" lon="6.01831">
        <ele>751</ele>
        <time>2019-04-02T13:17:12Z</time>
      </trkpt>
      <trkpt lat="44.33491" lon="6.01828">
        <ele>752</ele>
        <time>2019-04-02T13:17:13Z</time>
      </trkpt>
      <trkpt lat="44.3349" lon="6.01826">
        <ele>752</ele>
        <time>2019-04-02T13:17:14Z</time>
      </trkpt>
      <trkpt lat="44.33489" lon="6.01823">
        <ele>752</ele>
        <time>2019-04-02T13:17:15Z</time>
      </trkpt>
      <trkpt lat="44.33489" lon="6.0182">
        <ele>753</ele>
        <time>2019-04-02T13:17:16Z</time>
      </trkpt>
      <trkpt lat="44.33488" lon="6.01818">
        <ele>753</ele>
        <time>2019-04-02T13:17:17Z</time>
      </trkpt>
      <trkpt lat="44.33487" lon="6.01815">
        <ele>754</ele>
        <time>2019-04-02T13:17:18Z</time>
      </trkpt>
      <trkpt lat="44.33487" lon="6.01812">
        <ele>754</ele>
        <time>2019-04-02T13:17:19Z</time>
      </trkpt>
      <trkpt lat="44.33486" lon="6.0181">
        <ele>754</ele>
        <time>2019-04-02T13:17:20Z</time>
      </trkpt>
      <trkpt lat="44.33485" lon="6.01806">
        <ele>755</ele>
        <time>2019-04-02T13:17:21Z</time>
      </trkpt>
      <trkpt lat="44.33485" lon="6.01804">
        <ele>755</ele>
        <time>2019-04-02T13:17:22Z</time>
      </trkpt>
      <trkpt lat="44.33485" lon="6.01801">
        <ele>756</ele>
        <time>2019-04-02T13:17:23Z</time>
      </trkpt>
      <trkpt lat="44.33484" lon="6.01799">
        <ele>756</ele>
        <time>2019-04-02T13:17:24Z</time>
      </trkpt>
      <trkpt lat="44.33484" lon="6.01797">
        <ele>757</ele>
        <time>2019-04-02T13:17:25Z</time>
      </trkpt>
      <trkpt lat="44.33484" lon="6.01794">
        <ele>757</ele>
        <time>2019-04-02T13:17:26Z</time>
      </trkpt>
      <trkpt lat="44.33484" lon="6.01792">
        <ele>757</ele>
        <time>2019-04-02T13:17:27Z</time>
      </trkpt>
      <trkpt lat="44.33484" lon="6.01789">
        <ele>757</ele>
        <time>2019-04-02T13:17:28Z</time>
      </trkpt>
      <trkpt lat="44.33483" lon="6.01786">
        <ele>757</ele>
        <time>2019-04-02T13:17:29Z</time>
      </trkpt>
      <trkpt lat="44.33484" lon="6.01783">
        <ele>757</ele>
        <time>2019-04-02T13:17:30Z</time>
      </trkpt>
      <trkpt lat="44.33484" lon="6.0178">
        <ele>757</ele>
        <time>2019-04-02T13:17:31Z</time>
      </trkpt>
      <trkpt lat="44.33484" lon="6.01777">
        <ele>757</ele>
        <time>2019-04-02T13:17:32Z</time>
      </trkpt>
      <trkpt lat="44.33485" lon="6.01775">
        <ele>757</ele>
        <time>2019-04-02T13:17:33Z</time>
      </trkpt>
      <trkpt lat="44.33486" lon="6.01772">
        <ele>757</ele>
        <time>2019-04-02T13:17:34Z</time>
      </trkpt>
      <trkpt lat="44.33487" lon="6.01769">
        <ele>757</ele>
        <time>2019-04-02T13:17:35Z</time>
      </trkpt>
      <trkpt lat="44.33487" lon="6.01767">
        <ele>757</ele>
        <time>2019-04-02T13:17:36Z</time>
      </trkpt>
      <trkpt lat="44.33488" lon="6.01765">
        <ele>757</ele>
        <time>2019-04-02T13:17:37Z</time>
      </trkpt>
      <trkpt lat="44.3349" lon="6.01763">
        <ele>757</ele>
        <time>2019-04-02T13:17:38Z</time>
      </trkpt>
      <trkpt lat="44.33491" lon="6.01761">
        <ele>757</ele>
        <time>2019-04-02T13:17:39Z</time>
      </trkpt>
      <trkpt lat="44.33492" lon="6.01759">
        <ele>757</ele>
        <time>2019-04-02T13:17:40Z</time>
      </trkpt>
      <trkpt lat="44.33493" lon="6.01756">
        <ele>757</ele>
        <time>2019-04-02T13:17:41Z</time>
      </trkpt>
      <trkpt lat="44.33494" lon="6.01755">
        <ele>757</ele>
        <time>2019-04-02T13:17:42Z</time>
      </trkpt>
      <trkpt lat="44.33496" lon="6.01753">
        <ele>757</ele>
        <time>2019-04-02T13:17:43Z</time>
      </trkpt>
      <trkpt lat="44.33497" lon="6.01751">
        <ele>758</ele>
        <time>2019-04-02T13:17:44Z</time>
      </trkpt>
      <trkpt lat="44.33498" lon="6.01749">
        <ele>758</ele>
        <time>2019-04-02T13:17:45Z</time>
      </trkpt>
      <trkpt lat="44.335" lon="6.01747">
        <ele>759</ele>
        <time>2019-04-02T13:17:46Z</time>
      </trkpt>
      <trkpt lat="44.33501" lon="6.01745">
        <ele>759</ele>
        <time>2019-04-02T13:17:47Z</time>
      </trkpt>
      <trkpt lat="44.33502" lon="6.01744">
        <ele>760</ele>
        <time>2019-04-02T13:17:48Z</time>
      </trkpt>
      <trkpt lat="44.33503" lon="6.01742">
        <ele>760</ele>
        <time>2019-04-02T13:17:49Z</time>
      </trkpt>
      <trkpt lat="44.33504" lon="6.0174">
        <ele>761</ele>
        <time>2019-04-02T13:17:50Z</time>
      </trkpt>
      <trkpt lat="44.33505" lon="6.01738">
        <ele>761</ele>
        <time>2019-04-02T13:17:51Z</time>
      </trkpt>
      <trkpt lat="44.33506" lon="6.01736">
        <ele>761</ele>
        <time>2019-04-02T13:17:52Z</time>
      </trkpt>
      <trkpt lat="44.33507" lon="6.01734">
        <ele>762</ele>
        <time>2019-04-02T13:17:53Z</time>
      </trkpt>
      <trkpt lat="44.33507" lon="6.01731">
        <ele>762</ele>
        <time>2019-04-02T13:17:54Z</time>
      </trkpt>
      <trkpt lat="44.33507" lon="6.01729">
        <ele>762</ele>
        <time>2019-04-02T13:17:55Z</time>
      </trkpt>
      <trkpt lat="44.33506" lon="6.01726">
        <ele>762</ele>
        <time>2019-04-02T13:17:56Z</time>
      </trkpt>
      <trkpt lat="44.33505" lon="6.01724">
        <ele>763</ele>
        <time>2019-04-02T13:17:57Z</time>
      </trkpt>
      <trkpt lat="44.33504" lon="6.01722">
        <ele>763</ele>
        <time>2019-04-02T13:17:58Z</time>
      </trkpt>
      <trkpt lat="44.33502" lon="6.01719">
        <ele>764</ele>
        <time>2019-04-02T13:17:59Z</time>
      </trkpt>
      <trkpt lat="44.335" lon="6.01718">
        <ele>764</ele>
        <time>2019-04-02T13:18:00Z</time>
      </trkpt>
      <trkpt lat="44.33497" lon="6.01716">
        <ele>765</ele>
        <time>2019-04-02T13:18:01Z</time>
      </trkpt>
      <trkpt lat="44.33495" lon="6.01714">
        <ele>766</ele>
        <time>2019-04-02T13:18:02Z</time>
      </trkpt>
      <trkpt lat="44.33493" lon="6.01714">
        <ele>767</ele>
        <time>2019-04-02T13:18:03Z</time>
      </trkpt>
      <trkpt lat="44.3349" lon="6.01713">
        <ele>768</ele>
        <time>2019-04-02T13:18:04Z</time>
      </trkpt>
      <trkpt lat="44.33488" lon="6.01714">
        <ele>769</ele>
        <time>2019-04-02T13:18:05Z</time>
      </trkpt>
      <trkpt lat="44.33486" lon="6.01714">
        <ele>770</ele>
        <time>2019-04-02T13:18:06Z</time>
      </trkpt>
      <trkpt lat="44.33484" lon="6.01715">
        <ele>771</ele>
        <time>2019-04-02T13:18:07Z</time>
      </trkpt>
      <trkpt lat="44.33482" lon="6.01716">
        <ele>772</ele>
        <time>2019-04-02T13:18:08Z</time>
      </trkpt>
      <trkpt lat="44.3348" lon="6.01718">
        <ele>773</ele>
        <time>2019-04-02T13:18:09Z</time>
      </trkpt>
      <trkpt lat="44.33478" lon="6.01719">
        <ele>773</ele>
        <time>2019-04-02T13:18:10Z</time>
      </trkpt>
      <trkpt lat="44.33476" lon="6.01721">
        <ele>773</ele>
        <time>2019-04-02T13:18:11Z</time>
      </trkpt>
      <trkpt lat="44.33474" lon="6.01722">
        <ele>773</ele>
        <time>2019-04-02T13:18:12Z</time>
      </trkpt>
      <trkpt lat="44.33473" lon="6.01723">
        <ele>773</ele>
        <time>2019-04-02T13:18:13Z</time>
      </trkpt>
      <trkpt lat="44.33471" lon="6.01724">
        <ele>773</ele>
        <time>2019-04-02T13:18:14Z</time>
      </trkpt>
      <trkpt lat="44.33469" lon="6.01726">
        <ele>773</ele>
        <time>2019-04-02T13:18:15Z</time>
      </trkpt>
      <trkpt lat="44.33467" lon="6.01727">
        <ele>773</ele>
        <time>2019-04-02T13:18:16Z</time>
      </trkpt>
      <trkpt lat="44.33465" lon="6.01729">
        <ele>773</ele>
        <time>2019-04-02T13:18:17Z</time>
      </trkpt>
      <trkpt lat="44.33464" lon="6.01731">
        <ele>773</ele>
        <time>2019-04-02T13:18:18Z</time>
      </trkpt>
      <trkpt lat="44.33462" lon="6.01733">
        <ele>773</ele>
        <time>2019-04-02T13:18:19Z</time>
      </trkpt>
      <trkpt lat="44.3346" lon="6.01734">
        <ele>773</ele>
        <time>2019-04-02T13:18:20Z</time>
      </trkpt>
      <trkpt lat="44.33458" lon="6.01736">
        <ele>773</ele>
        <time>2019-04-02T13:18:21Z</time>
      </trkpt>
      <trkpt lat="44.33457" lon="6.01737">
        <ele>773</ele>
        <time>2019-04-02T13:18:22Z</time>
      </trkpt>
      <trkpt lat="44.33455" lon="6.01739">
        <ele>773</ele>
        <time>2019-04-02T13:18:23Z</time>
      </trkpt>
      <trkpt lat="44.33454" lon="6.01741">
        <ele>773</ele>
        <time>2019-04-02T13:18:24Z</time>
      </trkpt>
      <trkpt lat="44.33452" lon="6.01742">
        <ele>773</ele>
        <time>2019-04-02T13:18:25Z</time>
      </trkpt>
      <trkpt lat="44.3345" lon="6.01744">
        <ele>773</ele>
        <time>2019-04-02T13:18:26Z</time>
      </trkpt>
      <trkpt lat="44.33449" lon="6.01746">
        <ele>773</ele>
        <time>2019-04-02T13:18:27Z</time>
      </trkpt>
      <trkpt lat="44.33448" lon="6.01748">
        <ele>773</ele>
        <time>2019-04-02T13:18:28Z</time>
      </trkpt>
      <trkpt lat="44.33447" lon="6.0175">
        <ele>773</ele>
        <time>2019-04-02T13:18:29Z</time>
      </trkpt>
      <trkpt lat="44.33445" lon="6.01751">
        <ele>773</ele>
        <time>2019-04-02T13:18:30Z</time>
      </trkpt>
      <trkpt lat="44.33444" lon="6.01755">
        <ele>773</ele>
        <time>2019-04-02T13:18:31Z</time>
      </trkpt>
      <trkpt lat="44.33443" lon="6.01756">
        <ele>773</ele>
        <time>2019-04-02T13:18:32Z</time>
      </trkpt>
      <trkpt lat="44.33442" lon="6.01758">
        <ele>773</ele>
        <time>2019-04-02T13:18:33Z</time>
      </trkpt>
      <trkpt lat="44.33441" lon="6.01761">
        <ele>773</ele>
        <time>2019-04-02T13:18:34Z</time>
      </trkpt>
      <trkpt lat="44.3344" lon="6.01763">
        <ele>773</ele>
        <time>2019-04-02T13:18:35Z</time>
      </trkpt>
      <trkpt lat="44.33439" lon="6.01765">
        <ele>773</ele>
        <time>2019-04-02T13:18:36Z</time>
      </trkpt>
      <trkpt lat="44.33438" lon="6.01768">
        <ele>773</ele>
        <time>2019-04-02T13:18:37Z</time>
      </trkpt>
      <trkpt lat="44.33437" lon="6.0177">
        <ele>773</ele>
        <time>2019-04-02T13:18:38Z</time>
      </trkpt>
      <trkpt lat="44.33436" lon="6.01772">
        <ele>773</ele>
        <time>2019-04-02T13:18:39Z</time>
      </trkpt>
      <trkpt lat="44.33435" lon="6.01775">
        <ele>773</ele>
        <time>2019-04-02T13:18:40Z</time>
      </trkpt>
      <trkpt lat="44.33434" lon="6.01777">
        <ele>773</ele>
        <time>2019-04-02T13:18:41Z</time>
      </trkpt>
      <trkpt lat="44.33432" lon="6.01779">
        <ele>773</ele>
        <time>2019-04-02T13:18:42Z</time>
      </trkpt>
      <trkpt lat="44.33431" lon="6.01781">
        <ele>773</ele>
        <time>2019-04-02T13:18:43Z</time>
      </trkpt>
      <trkpt lat="44.33429" lon="6.01783">
        <ele>773</ele>
        <time>2019-04-02T13:18:44Z</time>
      </trkpt>
      <trkpt lat="44.33428" lon="6.01786">
        <ele>773</ele>
        <time>2019-04-02T13:18:45Z</time>
      </trkpt>
      <trkpt lat="44.33426" lon="6.01787">
        <ele>773</ele>
        <time>2019-04-02T13:18:46Z</time>
      </trkpt>
      <trkpt lat="44.33424" lon="6.0179">
        <ele>773</ele>
        <time>2019-04-02T13:18:47Z</time>
      </trkpt>
      <trkpt lat="44.33422" lon="6.01792">
        <ele>773</ele>
        <time>2019-04-02T13:18:48Z</time>
      </trkpt>
      <trkpt lat="44.3342" lon="6.01794">
        <ele>774</ele>
        <time>2019-04-02T13:18:49Z</time>
      </trkpt>
      <trkpt lat="44.33418" lon="6.01795">
        <ele>774</ele>
        <time>2019-04-02T13:18:50Z</time>
      </trkpt>
      <trkpt lat="44.33416" lon="6.01796">
        <ele>775</ele>
        <time>2019-04-02T13:18:51Z</time>
      </trkpt>
      <trkpt lat="44.33414" lon="6.01796">
        <ele>776</ele>
        <time>2019-04-02T13:18:52Z</time>
      </trkpt>
      <trkpt lat="44.33411" lon="6.01796">
        <ele>776</ele>
        <time>2019-04-02T13:18:53Z</time>
      </trkpt>
      <trkpt lat="44.33409" lon="6.01796">
        <ele>776</ele>
        <time>2019-04-02T13:18:54Z</time>
      </trkpt>
      <trkpt lat="44.33407" lon="6.01796">
        <ele>777</ele>
        <time>2019-04-02T13:18:55Z</time>
      </trkpt>
      <trkpt lat="44.33405" lon="6.01796">
        <ele>777</ele>
        <time>2019-04-02T13:18:56Z</time>
      </trkpt>
      <trkpt lat="44.33403" lon="6.01796">
        <ele>777</ele>
        <time>2019-04-02T13:18:57Z</time>
      </trkpt>
      <trkpt lat="44.334" lon="6.01796">
        <ele>777</ele>
        <time>2019-04-02T13:18:58Z</time>
      </trkpt>
      <trkpt lat="44.33398" lon="6.01796">
        <ele>778</ele>
        <time>2019-04-02T13:18:59Z</time>
      </trkpt>
      <trkpt lat="44.33396" lon="6.01795">
        <ele>778</ele>
        <time>2019-04-02T13:19:00Z</time>
      </trkpt>
      <trkpt lat="44.33393" lon="6.01795">
        <ele>778</ele>
        <time>2019-04-02T13:19:01Z</time>
      </trkpt>
      <trkpt lat="44.33391" lon="6.01794">
        <ele>778</ele>
        <time>2019-04-02T13:19:02Z</time>
      </trkpt>
      <trkpt lat="44.33389" lon="6.01794">
        <ele>778</ele>
        <time>2019-04-02T13:19:03Z</time>
      </trkpt>
      <trkpt lat="44.33387" lon="6.01794">
        <ele>779</ele>
        <time>2019-04-02T13:19:04Z</time>
      </trkpt>
      <trkpt lat="44.33385" lon="6.01793">
        <ele>779</ele>
        <time>2019-04-02T13:19:05Z</time>
      </trkpt>
      <trkpt lat="44.33383" lon="6.01793">
        <ele>779</ele>
        <time>2019-04-02T13:19:06Z</time>
      </trkpt>
      <trkpt lat="44.33381" lon="6.01793">
        <ele>780</ele>
        <time>2019-04-02T13:19:07Z</time>
      </trkpt>
      <trkpt lat="44.33379" lon="6.01792">
        <ele>780</ele>
        <time>2019-04-02T13:19:08Z</time>
      </trkpt>
      <trkpt lat="44.33376" lon="6.01791">
        <ele>780</ele>
        <time>2019-04-02T13:19:09Z</time>
      </trkpt>
      <trkpt lat="44.33374" lon="6.01791">
        <ele>781</ele>
        <time>2019-04-02T13:19:10Z</time>
      </trkpt>
      <trkpt lat="44.33372" lon="6.0179">
        <ele>781</ele>
        <time>2019-04-02T13:19:11Z</time>
      </trkpt>
      <trkpt lat="44.3337" lon="6.01789">
        <ele>781</ele>
        <time>2019-04-02T13:19:12Z</time>
      </trkpt>
      <trkpt lat="44.33368" lon="6.01788">
        <ele>782</ele>
        <time>2019-04-02T13:19:13Z</time>
      </trkpt>
      <trkpt lat="44.33366" lon="6.01787">
        <ele>782</ele>
        <time>2019-04-02T13:19:14Z</time>
      </trkpt>
      <trkpt lat="44.33364" lon="6.01786">
        <ele>782</ele>
        <time>2019-04-02T13:19:15Z</time>
      </trkpt>
      <trkpt lat="44.33362" lon="6.01785">
        <ele>783</ele>
        <time>2019-04-02T13:19:16Z</time>
      </trkpt>
      <trkpt lat="44.3336" lon="6.01783">
        <ele>783</ele>
        <time>2019-04-02T13:19:17Z</time>
      </trkpt>
      <trkpt lat="44.33358" lon="6.01782">
        <ele>783</ele>
        <time>2019-04-02T13:19:18Z</time>
      </trkpt>
      <trkpt lat="44.33356" lon="6.01781">
        <ele>783</ele>
        <time>2019-04-02T13:19:19Z</time>
      </trkpt>
      <trkpt lat="44.33354" lon="6.0178">
        <ele>784</ele>
        <time>2019-04-02T13:19:20Z</time>
      </trkpt>
      <trkpt lat="44.33352" lon="6.01778">
        <ele>784</ele>
        <time>2019-04-02T13:19:21Z</time>
      </trkpt>
      <trkpt lat="44.33351" lon="6.01776">
        <ele>784</ele>
        <time>2019-04-02T13:19:22Z</time>
      </trkpt>
      <trkpt lat="44.3335" lon="6.01774">
        <ele>784</ele>
        <time>2019-04-02T13:19:23Z</time>
      </trkpt>
      <trkpt lat="44.33348" lon="6.01772">
        <ele>784</ele>
        <time>2019-04-02T13:19:24Z</time>
      </trkpt>
      <trkpt lat="44.33347" lon="6.0177">
        <ele>784</ele>
        <time>2019-04-02T13:19:25Z</time>
      </trkpt>
      <trkpt lat="44.33345" lon="6.01768">
        <ele>785</ele>
        <time>2019-04-02T13:19:26Z</time>
      </trkpt>
      <trkpt lat="44.33344" lon="6.01766">
        <ele>785</ele>
        <time>2019-04-02T13:19:27Z</time>
      </trkpt>
      <trkpt lat="44.33343" lon="6.01763">
        <ele>786</ele>
        <time>2019-04-02T13:19:28Z</time>
      </trkpt>
      <trkpt lat="44.33342" lon="6.01761">
        <ele>786</ele>
        <time>2019-04-02T13:19:29Z</time>
      </trkpt>
      <trkpt lat="44.3334" lon="6.01759">
        <ele>787</ele>
        <time>2019-04-02T13:19:30Z</time>
      </trkpt>
      <trkpt lat="44.33339" lon="6.01757">
        <ele>787</ele>
        <time>2019-04-02T13:19:31Z</time>
      </trkpt>
      <trkpt lat="44.33339" lon="6.01754">
        <ele>788</ele>
        <time>2019-04-02T13:19:32Z</time>
      </trkpt>
      <trkpt lat="44.33338" lon="6.01752">
        <ele>788</ele>
        <time>2019-04-02T13:19:33Z</time>
      </trkpt>
      <trkpt lat="44.33337" lon="6.0175">
        <ele>788</ele>
        <time>2019-04-02T13:19:34Z</time>
      </trkpt>
      <trkpt lat="44.33337" lon="6.01747">
        <ele>788</ele>
        <time>2019-04-02T13:19:35Z</time>
      </trkpt>
      <trkpt lat="44.33336" lon="6.01745">
        <ele>788</ele>
        <time>2019-04-02T13:19:36Z</time>
      </trkpt>
      <trkpt lat="44.33335" lon="6.01742">
        <ele>788</ele>
        <time>2019-04-02T13:19:37Z</time>
      </trkpt>
      <trkpt lat="44.33335" lon="6.0174">
        <ele>788</ele>
        <time>2019-04-02T13:19:38Z</time>
      </trkpt>
      <trkpt lat="44.33334" lon="6.01737">
        <ele>788</ele>
        <time>2019-04-02T13:19:39Z</time>
      </trkpt>
      <trkpt lat="44.33334" lon="6.01734">
        <ele>789</ele>
        <time>2019-04-02T13:19:40Z</time>
      </trkpt>
      <trkpt lat="44.33334" lon="6.01731">
        <ele>789</ele>
        <time>2019-04-02T13:19:41Z</time>
      </trkpt>
      <trkpt lat="44.33334" lon="6.01728">
        <ele>789</ele>
        <time>2019-04-02T13:19:42Z</time>
      </trkpt>
      <trkpt lat="44.33334" lon="6.01725">
        <ele>789</ele>
        <time>2019-04-02T13:19:43Z</time>
      </trkpt>
      <trkpt lat="44.33334" lon="6.01722">
        <ele>789</ele>
        <time>2019-04-02T13:19:44Z</time>
      </trkpt>
      <trkpt lat="44.33334" lon="6.01719">
        <ele>789</ele>
        <time>2019-04-02T13:19:45Z</time>
      </trkpt>
      <trkpt lat="44.33334" lon="6.01716">
        <ele>789</ele>
        <time>2019-04-02T13:19:46Z</time>
      </trkpt>
      <trkpt lat="44.33334" lon="6.01714">
        <ele>789</ele>
        <time>2019-04-02T13:19:47Z</time>
      </trkpt>
      <trkpt lat="44.33334" lon="6.01711">
        <ele>789</ele>
        <time>2019-04-02T13:19:48Z</time>
      </trkpt>
      <trkpt lat="44.33334" lon="6.01708">
        <ele>789</ele>
        <time>2019-04-02T13:19:49Z</time>
      </trkpt>
      <trkpt lat="44.33334" lon="6.01706">
        <ele>789</ele>
        <time>2019-04-02T13:19:50Z</time>
      </trkpt>
      <trkpt lat="44.33334" lon="6.01703">
        <ele>789</ele>
        <time>2019-04-02T13:19:51Z</time>
      </trkpt>
      <trkpt lat="44.33334" lon="6.017">
        <ele>789</ele>
        <time>2019-04-02T13:19:52Z</time>
      </trkpt>
      <trkpt lat="44.33333" lon="6.01697">
        <ele>789</ele>
        <time>2019-04-02T13:19:53Z</time>
      </trkpt>
      <trkpt lat="44.33333" lon="6.01694">
        <ele>789</ele>
        <time>2019-04-02T13:19:54Z</time>
      </trkpt>
      <trkpt lat="44.33333" lon="6.01691">
        <ele>789</ele>
        <time>2019-04-02T13:19:55Z</time>
      </trkpt>
      <trkpt lat="44.33333" lon="6.01688">
        <ele>789</ele>
        <time>2019-04-02T13:19:56Z</time>
      </trkpt>
      <trkpt lat="44.33333" lon="6.01685">
        <ele>789</ele>
        <time>2019-04-02T13:19:57Z</time>
      </trkpt>
      <trkpt lat="44.33333" lon="6.01682">
        <ele>789</ele>
        <time>2019-04-02T13:19:58Z</time>
      </trkpt>
      <trkpt lat="44.33333" lon="6.01679">
        <ele>789</ele>
        <time>2019-04-02T13:19:59Z</time>
      </trkpt>
      <trkpt lat="44.33333" lon="6.01676">
        <ele>789</ele>
        <time>2019-04-02T13:20:00Z</time>
      </trkpt>
      <trkpt lat="44.33333" lon="6.01673">
        <ele>789</ele>
        <time>2019-04-02T13:20:01Z</time>
      </trkpt>
      <trkpt lat="44.33333" lon="6.0167">
        <ele>789</ele>
        <time>2019-04-02T13:20:02Z</time>
      </trkpt>
      <trkpt lat="44.33333" lon="6.01666">
        <ele>789</ele>
        <time>2019-04-02T13:20:03Z</time>
      </trkpt>
      <trkpt lat="44.33333" lon="6.01663">
        <ele>790</ele>
        <time>2019-04-02T13:20:04Z</time>
      </trkpt>
      <trkpt lat="44.33333" lon="6.0166">
        <ele>790</ele>
        <time>2019-04-02T13:20:05Z</time>
      </trkpt>
      <trkpt lat="44.33333" lon="6.01657">
        <ele>790</ele>
        <time>2019-04-02T13:20:06Z</time>
      </trkpt>
      <trkpt lat="44.33333" lon="6.01654">
        <ele>790</ele>
        <time>2019-04-02T13:20:07Z</time>
      </trkpt>
      <trkpt lat="44.33333" lon="6.01651">
        <ele>790</ele>
        <time>2019-04-02T13:20:08Z</time>
      </trkpt>
      <trkpt lat="44.33333" lon="6.01648">
        <ele>790</ele>
        <time>2019-04-02T13:20:09Z</time>
      </trkpt>
      <trkpt lat="44.33333" lon="6.01644">
        <ele>790</ele>
        <time>2019-04-02T13:20:10Z</time>
      </trkpt>
      <trkpt lat="44.33333" lon="6.01641">
        <ele>790</ele>
        <time>2019-04-02T13:20:11Z</time>
      </trkpt>
      <trkpt lat="44.33333" lon="6.01637">
        <ele>790</ele>
        <time>2019-04-02T13:20:12Z</time>
      </trkpt>
      <trkpt lat="44.33334" lon="6.01633">
        <ele>790</ele>
        <time>2019-04-02T13:20:13Z</time>
      </trkpt>
      <trkpt lat="44.33334" lon="6.01629">
        <ele>790</ele>
        <time>2019-04-02T13:20:14Z</time>
      </trkpt>
      <trkpt lat="44.33334" lon="6.01625">
        <ele>790</ele>
        <time>2019-04-02T13:20:15Z</time>
      </trkpt>
      <trkpt lat="44.33334" lon="6.01621">
        <ele>790</ele>
        <time>2019-04-02T13:20:16Z</time>
      </trkpt>
      <trkpt lat="44.33334" lon="6.01618">
        <ele>790</ele>
        <time>2019-04-02T13:20:17Z</time>
      </trkpt>
      <trkpt lat="44.33334" lon="6.01613">
        <ele>790</ele>
        <time>2019-04-02T13:20:18Z</time>
      </trkpt>
      <trkpt lat="44.33334" lon="6.01609">
        <ele>790</ele>
        <time>2019-04-02T13:20:19Z</time>
      </trkpt>
      <trkpt lat="44.33334" lon="6.01604">
        <ele>790</ele>
        <time>2019-04-02T13:20:20Z</time>
      </trkpt>
      <trkpt lat="44.33334" lon="6.016">
        <ele>790</ele>
        <time>2019-04-02T13:20:21Z</time>
      </trkpt>
      <trkpt lat="44.33335" lon="6.01595">
        <ele>790</ele>
        <time>2019-04-02T13:20:22Z</time>
      </trkpt>
      <trkpt lat="44.33335" lon="6.0159">
        <ele>790</ele>
        <time>2019-04-02T13:20:23Z</time>
      </trkpt>
      <trkpt lat="44.33335" lon="6.01585">
        <ele>790</ele>
        <time>2019-04-02T13:20:24Z</time>
      </trkpt>
      <trkpt lat="44.33335" lon="6.0158">
        <ele>790</ele>
        <time>2019-04-02T13:20:25Z</time>
      </trkpt>
      <trkpt lat="44.33336" lon="6.01575">
        <ele>790</ele>
        <time>2019-04-02T13:20:26Z</time>
      </trkpt>
      <trkpt lat="44.33336" lon="6.0157">
        <ele>790</ele>
        <time>2019-04-02T13:20:27Z</time>
      </trkpt>
      <trkpt lat="44.33337" lon="6.01565">
        <ele>790</ele>
        <time>2019-04-02T13:20:28Z</time>
      </trkpt>
      <trkpt lat="44.33337" lon="6.0156">
        <ele>790</ele>
        <time>2019-04-02T13:20:29Z</time>
      </trkpt>
      <trkpt lat="44.33337" lon="6.01555">
        <ele>790</ele>
        <time>2019-04-02T13:20:30Z</time>
      </trkpt>
      <trkpt lat="44.33338" lon="6.0155">
        <ele>790</ele>
        <time>2019-04-02T13:20:31Z</time>
      </trkpt>
      <trkpt lat="44.33338" lon="6.01545">
        <ele>790</ele>
        <time>2019-04-02T13:20:32Z</time>
      </trkpt>
      <trkpt lat="44.33338" lon="6.0154">
        <ele>790</ele>
        <time>2019-04-02T13:20:33Z</time>
      </trkpt>
      <trkpt lat="44.33338" lon="6.01534">
        <ele>790</ele>
        <time>2019-04-02T13:20:34Z</time>
      </trkpt>
      <trkpt lat="44.33339" lon="6.01529">
        <ele>790</ele>
        <time>2019-04-02T13:20:35Z</time>
      </trkpt>
      <trkpt lat="44.33339" lon="6.01524">
        <ele>790</ele>
        <time>2019-04-02T13:20:36Z</time>
      </trkpt>
      <trkpt lat="44.3334" lon="6.01519">
        <ele>790</ele>
        <time>2019-04-02T13:20:37Z</time>
      </trkpt>
      <trkpt lat="44.3334" lon="6.01514">
        <ele>790</ele>
        <time>2019-04-02T13:20:38Z</time>
      </trkpt>
      <trkpt lat="44.3334" lon="6.01509">
        <ele>790</ele>
        <time>2019-04-02T13:20:39Z</time>
      </trkpt>
      <trkpt lat="44.33341" lon="6.01504">
        <ele>790</ele>
        <time>2019-04-02T13:20:40Z</time>
      </trkpt>
      <trkpt lat="44.33341" lon="6.01499">
        <ele>790</ele>
        <time>2019-04-02T13:20:41Z</time>
      </trkpt>
      <trkpt lat="44.33342" lon="6.01494">
        <ele>790</ele>
        <time>2019-04-02T13:20:42Z</time>
      </trkpt>
      <trkpt lat="44.33342" lon="6.01489">
        <ele>790</ele>
        <time>2019-04-02T13:20:43Z</time>
      </trkpt>
      <trkpt lat="44.33342" lon="6.01483">
        <ele>790</ele>
        <time>2019-04-02T13:20:44Z</time>
      </trkpt>
      <trkpt lat="44.33342" lon="6.01478">
        <ele>790</ele>
        <time>2019-04-02T13:20:45Z</time>
      </trkpt>
      <trkpt lat="44.33343" lon="6.01473">
        <ele>790</ele>
        <time>2019-04-02T13:20:46Z</time>
      </trkpt>
      <trkpt lat="44.33343" lon="6.01467">
        <ele>790</ele>
        <time>2019-04-02T13:20:47Z</time>
      </trkpt>
      <trkpt lat="44.33343" lon="6.01462">
        <ele>790</ele>
        <time>2019-04-02T13:20:48Z</time>
      </trkpt>
      <trkpt lat="44.33344" lon="6.01456">
        <ele>790</ele>
        <time>2019-04-02T13:20:49Z</time>
      </trkpt>
      <trkpt lat="44.33344" lon="6.01451">
        <ele>790</ele>
        <time>2019-04-02T13:20:50Z</time>
      </trkpt>
      <trkpt lat="44.33344" lon="6.01445">
        <ele>791</ele>
        <time>2019-04-02T13:20:51Z</time>
      </trkpt>
      <trkpt lat="44.33345" lon="6.0144">
        <ele>791</ele>
        <time>2019-04-02T13:20:52Z</time>
      </trkpt>
      <trkpt lat="44.33345" lon="6.01435">
        <ele>791</ele>
        <time>2019-04-02T13:20:53Z</time>
      </trkpt>
      <trkpt lat="44.33345" lon="6.01429">
        <ele>791</ele>
        <time>2019-04-02T13:20:54Z</time>
      </trkpt>
      <trkpt lat="44.33345" lon="6.01424">
        <ele>791</ele>
        <time>2019-04-02T13:20:55Z</time>
      </trkpt>
      <trkpt lat="44.33346" lon="6.01418">
        <ele>791</ele>
        <time>2019-04-02T13:20:56Z</time>
      </trkpt>
      <trkpt lat="44.33346" lon="6.01413">
        <ele>791</ele>
        <time>2019-04-02T13:20:57Z</time>
      </trkpt>
      <trkpt lat="44.33347" lon="6.01408">
        <ele>792</ele>
        <time>2019-04-02T13:20:58Z</time>
      </trkpt>
      <trkpt lat="44.33347" lon="6.01403">
        <ele>792</ele>
        <time>2019-04-02T13:20:59Z</time>
      </trkpt>
      <trkpt lat="44.33347" lon="6.01397">
        <ele>792</ele>
        <time>2019-04-02T13:21:00Z</time>
      </trkpt>
      <trkpt lat="44.33347" lon="6.01392">
        <ele>792</ele>
        <time>2019-04-02T13:21:01Z</time>
      </trkpt>
      <trkpt lat="44.33347" lon="6.01386">
        <ele>792</ele>
        <time>2019-04-02T13:21:02Z</time>
      </trkpt>
      <trkpt lat="44.33348" lon="6.0138">
        <ele>792</ele>
        <time>2019-04-02T13:21:03Z</time>
      </trkpt>
      <trkpt lat="44.33348" lon="6.01375">
        <ele>792</ele>
        <time>2019-04-02T13:21:04Z</time>
      </trkpt>
      <trkpt lat="44.33349" lon="6.01369">
        <ele>792</ele>
        <time>2019-04-02T13:21:05Z</time>
      </trkpt>
      <trkpt lat="44.33349" lon="6.01363">
        <ele>792</ele>
        <time>2019-04-02T13:21:06Z</time>
      </trkpt>
      <trkpt lat="44.33349" lon="6.01357">
        <ele>792</ele>
        <time>2019-04-02T13:21:07Z</time>
      </trkpt>
      <trkpt lat="44.3335" lon="6.01352">
        <ele>793</ele>
        <time>2019-04-02T13:21:08Z</time>
      </trkpt>
      <trkpt lat="44.3335" lon="6.01346">
        <ele>793</ele>
        <time>2019-04-02T13:21:09Z</time>
      </trkpt>
      <trkpt lat="44.3335" lon="6.0134">
        <ele>793</ele>
        <time>2019-04-02T13:21:10Z</time>
      </trkpt>
      <trkpt lat="44.3335" lon="6.01335">
        <ele>793</ele>
        <time>2019-04-02T13:21:11Z</time>
      </trkpt>
      <trkpt lat="44.33351" lon="6.01329">
        <ele>793</ele>
        <time>2019-04-02T13:21:12Z</time>
      </trkpt>
      <trkpt lat="44.33351" lon="6.01323">
        <ele>793</ele>
        <time>2019-04-02T13:21:13Z</time>
      </trkpt>
      <trkpt lat="44.33351" lon="6.01318">
        <ele>793</ele>
        <time>2019-04-02T13:21:14Z</time>
      </trkpt>
      <trkpt lat="44.33352" lon="6.01312">
        <ele>793</ele>
        <time>2019-04-02T13:21:15Z</time>
      </trkpt>
      <trkpt lat="44.33352" lon="6.01306">
        <ele>793</ele>
        <time>2019-04-02T13:21:16Z</time>
      </trkpt>
      <trkpt lat="44.33353" lon="6.013">
        <ele>793</ele>
        <time>2019-04-02T13:21:17Z</time>
      </trkpt>
      <trkpt lat="44.33353" lon="6.01294">
        <ele>793</ele>
        <time>2019-04-02T13:21:18Z</time>
      </trkpt>
      <trkpt lat="44.33353" lon="6.01288">
        <ele>793</ele>
        <time>2019-04-02T13:21:19Z</time>
      </trkpt>
      <trkpt lat="44.33354" lon="6.01282">
        <ele>793</ele>
        <time>2019-04-02T13:21:20Z</time>
      </trkpt>
      <trkpt lat="44.33354" lon="6.01276">
        <ele>793</ele>
        <time>2019-04-02T13:21:21Z</time>
      </trkpt>
      <trkpt lat="44.33354" lon="6.0127">
        <ele>793</ele>
        <time>2019-04-02T13:21:22Z</time>
      </trkpt>
      <trkpt lat="44.33355" lon="6.01264">
        <ele>793</ele>
        <time>2019-04-02T13:21:23Z</time>
      </trkpt>
      <trkpt lat="44.33355" lon="6.01258">
        <ele>793</ele>
        <time>2019-04-02T13:21:24Z</time>
      </trkpt>
      <trkpt lat="44.33355" lon="6.01252">
        <ele>793</ele>
        <time>2019-04-02T13:21:25Z</time>
      </trkpt>
      <trkpt lat="44.33355" lon="6.01246">
        <ele>794</ele>
        <time>2019-04-02T13:21:26Z</time>
      </trkpt>
      <trkpt lat="44.33356" lon="6.01241">
        <ele>794</ele>
        <time>2019-04-02T13:21:27Z</time>
      </trkpt>
      <trkpt lat="44.33356" lon="6.01235">
        <ele>794</ele>
        <time>2019-04-02T13:21:28Z</time>
      </trkpt>
      <trkpt lat="44.33357" lon="6.01229">
        <ele>794</ele>
        <time>2019-04-02T13:21:29Z</time>
      </trkpt>
      <trkpt lat="44.33357" lon="6.01224">
        <ele>794</ele>
        <time>2019-04-02T13:21:30Z</time>
      </trkpt>
      <trkpt lat="44.33357" lon="6.01218">
        <ele>794</ele>
        <time>2019-04-02T13:21:31Z</time>
      </trkpt>
      <trkpt lat="44.33358" lon="6.01212">
        <ele>794</ele>
        <time>2019-04-02T13:21:32Z</time>
      </trkpt>
      <trkpt lat="44.33358" lon="6.01206">
        <ele>794</ele>
        <time>2019-04-02T13:21:33Z</time>
      </trkpt>
      <trkpt lat="44.33358" lon="6.01201">
        <ele>794</ele>
        <time>2019-04-02T13:21:34Z</time>
      </trkpt>
      <trkpt lat="44.33359" lon="6.01195">
        <ele>794</ele>
        <time>2019-04-02T13:21:35Z</time>
      </trkpt>
      <trkpt lat="44.33359" lon="6.01189">
        <ele>794</ele>
        <time>2019-04-02T13:21:36Z</time>
      </trkpt>
      <trkpt lat="44.33359" lon="6.01184">
        <ele>794</ele>
        <time>2019-04-02T13:21:37Z</time>
      </trkpt>
      <trkpt lat="44.3336" lon="6.01178">
        <ele>795</ele>
        <time>2019-04-02T13:21:38Z</time>
      </trkpt>
      <trkpt lat="44.3336" lon="6.01171">
        <ele>795</ele>
        <time>2019-04-02T13:21:39Z</time>
      </trkpt>
      <trkpt lat="44.3336" lon="6.01165">
        <ele>795</ele>
        <time>2019-04-02T13:21:40Z</time>
      </trkpt>
      <trkpt lat="44.3336" lon="6.01159">
        <ele>795</ele>
        <time>2019-04-02T13:21:41Z</time>
      </trkpt>
      <trkpt lat="44.33361" lon="6.01152">
        <ele>795</ele>
        <time>2019-04-02T13:21:42Z</time>
      </trkpt>
      <trkpt lat="44.33361" lon="6.01146">
        <ele>795</ele>
        <time>2019-04-02T13:21:43Z</time>
      </trkpt>
      <trkpt lat="44.33361" lon="6.01139">
        <ele>795</ele>
        <time>2019-04-02T13:21:44Z</time>
      </trkpt>
      <trkpt lat="44.33362" lon="6.01131">
        <ele>795</ele>
        <time>2019-04-02T13:21:45Z</time>
      </trkpt>
      <trkpt lat="44.33363" lon="6.01124">
        <ele>795</ele>
        <time>2019-04-02T13:21:46Z</time>
      </trkpt>
      <trkpt lat="44.33364" lon="6.01116">
        <ele>795</ele>
        <time>2019-04-02T13:21:47Z</time>
      </trkpt>
      <trkpt lat="44.33366" lon="6.01108">
        <ele>795</ele>
        <time>2019-04-02T13:21:48Z</time>
      </trkpt>
      <trkpt lat="44.33368" lon="6.011">
        <ele>795</ele>
        <time>2019-04-02T13:21:49Z</time>
      </trkpt>
      <trkpt lat="44.3337" lon="6.01092">
        <ele>795</ele>
        <time>2019-04-02T13:21:50Z</time>
      </trkpt>
      <trkpt lat="44.33372" lon="6.01084">
        <ele>795</ele>
        <time>2019-04-02T13:21:51Z</time>
      </trkpt>
      <trkpt lat="44.33375" lon="6.01076">
        <ele>795</ele>
        <time>2019-04-02T13:21:52Z</time>
      </trkpt>
      <trkpt lat="44.33378" lon="6.01068">
        <ele>795</ele>
        <time>2019-04-02T13:21:53Z</time>
      </trkpt>
      <trkpt lat="44.33382" lon="6.0106">
        <ele>795</ele>
        <time>2019-04-02T13:21:54Z</time>
      </trkpt>
      <trkpt lat="44.33385" lon="6.01051">
        <ele>795</ele>
        <time>2019-04-02T13:21:55Z</time>
      </trkpt>
      <trkpt lat="44.33389" lon="6.01043">
        <ele>795</ele>
        <time>2019-04-02T13:21:56Z</time>
      </trkpt>
      <trkpt lat="44.33393" lon="6.01033">
        <ele>795</ele>
        <time>2019-04-02T13:21:57Z</time>
      </trkpt>
      <trkpt lat="44.33398" lon="6.01024">
        <ele>795</ele>
        <time>2019-04-02T13:21:58Z</time>
      </trkpt>
      <trkpt lat="44.33404" lon="6.01015">
        <ele>795</ele>
        <time>2019-04-02T13:21:59Z</time>
      </trkpt>
      <trkpt lat="44.3341" lon="6.01006">
        <ele>795</ele>
        <time>2019-04-02T13:22:00Z</time>
      </trkpt>
      <trkpt lat="44.33417" lon="6.00998">
        <ele>795</ele>
        <time>2019-04-02T13:22:01Z</time>
      </trkpt>
      <trkpt lat="44.33424" lon="6.00991">
        <ele>795</ele>
        <time>2019-04-02T13:22:02Z</time>
      </trkpt>
      <trkpt lat="44.33431" lon="6.00985">
        <ele>795</ele>
        <time>2019-04-02T13:22:03Z</time>
      </trkpt>
      <trkpt lat="44.33438" lon="6.00979">
        <ele>795</ele>
        <time>2019-04-02T13:22:04Z</time>
      </trkpt>
      <trkpt lat="44.33446" lon="6.00975">
        <ele>795</ele>
        <time>2019-04-02T13:22:05Z</time>
      </trkpt>
      <trkpt lat="44.33454" lon="6.00971">
        <ele>795</ele>
        <time>2019-04-02T13:22:06Z</time>
      </trkpt>
      <trkpt lat="44.33463" lon="6.00967">
        <ele>795</ele>
        <time>2019-04-02T13:22:07Z</time>
      </trkpt>
      <trkpt lat="44.33471" lon="6.00963">
        <ele>795</ele>
        <time>2019-04-02T13:22:08Z</time>
      </trkpt>
      <trkpt lat="44.33479" lon="6.00958">
        <ele>795</ele>
        <time>2019-04-02T13:22:09Z</time>
      </trkpt>
      <trkpt lat="44.33486" lon="6.00953">
        <ele>795</ele>
        <time>2019-04-02T13:22:10Z</time>
      </trkpt>
      <trkpt lat="44.33493" lon="6.00947">
        <ele>795</ele>
        <time>2019-04-02T13:22:11Z</time>
      </trkpt>
      <trkpt lat="44.33501" lon="6.00941">
        <ele>795</ele>
        <time>2019-04-02T13:22:12Z</time>
      </trkpt>
      <trkpt lat="44.33508" lon="6.00935">
        <ele>795</ele>
        <time>2019-04-02T13:22:13Z</time>
      </trkpt>
      <trkpt lat="44.33515" lon="6.00929">
        <ele>795</ele>
        <time>2019-04-02T13:22:14Z</time>
      </trkpt>
      <trkpt lat="44.33522" lon="6.00923">
        <ele>795</ele>
        <time>2019-04-02T13:22:15Z</time>
      </trkpt>
      <trkpt lat="44.33529" lon="6.00918">
        <ele>795</ele>
        <time>2019-04-02T13:22:16Z</time>
      </trkpt>
      <trkpt lat="44.33536" lon="6.00912">
        <ele>795</ele>
        <time>2019-04-02T13:22:17Z</time>
      </trkpt>
      <trkpt lat="44.33543" lon="6.00908">
        <ele>795</ele>
        <time>2019-04-02T13:22:18Z</time>
      </trkpt>
      <trkpt lat="44.33551" lon="6.00904">
        <ele>795</ele>
        <time>2019-04-02T13:22:19Z</time>
      </trkpt>
      <trkpt lat="44.33559" lon="6.00901">
        <ele>795</ele>
        <time>2019-04-02T13:22:20Z</time>
      </trkpt>
      <trkpt lat="44.33568" lon="6.009">
        <ele>795</ele>
        <time>2019-04-02T13:22:21Z</time>
      </trkpt>
      <trkpt lat="44.33576" lon="6.00898">
        <ele>795</ele>
        <time>2019-04-02T13:22:22Z</time>
      </trkpt>
      <trkpt lat="44.33585" lon="6.00897">
        <ele>795</ele>
        <time>2019-04-02T13:22:23Z</time>
      </trkpt>
      <trkpt lat="44.33593" lon="6.00895">
        <ele>795</ele>
        <time>2019-04-02T13:22:24Z</time>
      </trkpt>
      <trkpt lat="44.33601" lon="6.00892">
        <ele>795</ele>
        <time>2019-04-02T13:22:25Z</time>
      </trkpt>
      <trkpt lat="44.33609" lon="6.00889">
        <ele>795</ele>
        <time>2019-04-02T13:22:26Z</time>
      </trkpt>
      <trkpt lat="44.33617" lon="6.00884">
        <ele>795</ele>
        <time>2019-04-02T13:22:27Z</time>
      </trkpt>
      <trkpt lat="44.33624" lon="6.00879">
        <ele>795</ele>
        <time>2019-04-02T13:22:28Z</time>
      </trkpt>
      <trkpt lat="44.33631" lon="6.00873">
        <ele>795</ele>
        <time>2019-04-02T13:22:29Z</time>
      </trkpt>
      <trkpt lat="44.33638" lon="6.00867">
        <ele>795</ele>
        <time>2019-04-02T13:22:30Z</time>
      </trkpt>
      <trkpt lat="44.33645" lon="6.00861">
        <ele>795</ele>
        <time>2019-04-02T13:22:31Z</time>
      </trkpt>
      <trkpt lat="44.33652" lon="6.00855">
        <ele>795</ele>
        <time>2019-04-02T13:22:32Z</time>
      </trkpt>
      <trkpt lat="44.3366" lon="6.0085">
        <ele>795</ele>
        <time>2019-04-02T13:22:33Z</time>
      </trkpt>
      <trkpt lat="44.33668" lon="6.00846">
        <ele>795</ele>
        <time>2019-04-02T13:22:34Z</time>
      </trkpt>
      <trkpt lat="44.33676" lon="6.00842">
        <ele>795</ele>
        <time>2019-04-02T13:22:35Z</time>
      </trkpt>
      <trkpt lat="44.33684" lon="6.00839">
        <ele>795</ele>
        <time>2019-04-02T13:22:36Z</time>
      </trkpt>
      <trkpt lat="44.33693" lon="6.00835">
        <ele>795</ele>
        <time>2019-04-02T13:22:37Z</time>
      </trkpt>
      <trkpt lat="44.33701" lon="6.00832">
        <ele>795</ele>
        <time>2019-04-02T13:22:38Z</time>
      </trkpt>
      <trkpt lat="44.33709" lon="6.00828">
        <ele>795</ele>
        <time>2019-04-02T13:22:39Z</time>
      </trkpt>
      <trkpt lat="44.33716" lon="6.00824">
        <ele>795</ele>
        <time>2019-04-02T13:22:40Z</time>
      </trkpt>
      <trkpt lat="44.33724" lon="6.0082">
        <ele>795</ele>
        <time>2019-04-02T13:22:41Z</time>
      </trkpt>
      <trkpt lat="44.33731" lon="6.00815">
        <ele>795</ele>
        <time>2019-04-02T13:22:42Z</time>
      </trkpt>
      <trkpt lat="44.33738" lon="6.0081">
        <ele>795</ele>
        <time>2019-04-02T13:22:43Z</time>
      </trkpt>
      <trkpt lat="44.33745" lon="6.00806">
        <ele>795</ele>
        <time>2019-04-02T13:22:44Z</time>
      </trkpt>
      <trkpt lat="44.33752" lon="6.00801">
        <ele>795</ele>
        <time>2019-04-02T13:22:45Z</time>
      </trkpt>
      <trkpt lat="44.33759" lon="6.00796">
        <ele>795</ele>
        <time>2019-04-02T13:22:46Z</time>
      </trkpt>
      <trkpt lat="44.33766" lon="6.00791">
        <ele>795</ele>
        <time>2019-04-02T13:22:47Z</time>
      </trkpt>
      <trkpt lat="44.33773" lon="6.00786">
        <ele>795</ele>
        <time>2019-04-02T13:22:48Z</time>
      </trkpt>
      <trkpt lat="44.3378" lon="6.00781">
        <ele>795</ele>
        <time>2019-04-02T13:22:49Z</time>
      </trkpt>
      <trkpt lat="44.33787" lon="6.00776">
        <ele>795</ele>
        <time>2019-04-02T13:22:50Z</time>
      </trkpt>
      <trkpt lat="44.33794" lon="6.00771">
        <ele>795</ele>
        <time>2019-04-02T13:22:51Z</time>
      </trkpt>
      <trkpt lat="44.33801" lon="6.00765">
        <ele>794</ele>
        <time>2019-04-02T13:22:52Z</time>
      </trkpt>
      <trkpt lat="44.33807" lon="6.00759">
        <ele>794</ele>
        <time>2019-04-02T13:22:53Z</time>
      </trkpt>
      <trkpt lat="44.33814" lon="6.00752">
        <ele>794</ele>
        <time>2019-04-02T13:22:54Z</time>
      </trkpt>
      <trkpt lat="44.3382" lon="6.00746">
        <ele>794</ele>
        <time>2019-04-02T13:22:55Z</time>
      </trkpt>
      <trkpt lat="44.33826" lon="6.00739">
        <ele>794</ele>
        <time>2019-04-02T13:22:56Z</time>
      </trkpt>
      <trkpt lat="44.33832" lon="6.00733">
        <ele>794</ele>
        <time>2019-04-02T13:22:57Z</time>
      </trkpt>
      <trkpt lat="44.33838" lon="6.00727">
        <ele>794</ele>
        <time>2019-04-02T13:22:58Z</time>
      </trkpt>
      <trkpt lat="44.33843" lon="6.00721">
        <ele>794</ele>
        <time>2019-04-02T13:22:59Z</time>
      </trkpt>
      <trkpt lat="44.33849" lon="6.00715">
        <ele>794</ele>
        <time>2019-04-02T13:23:00Z</time>
      </trkpt>
      <trkpt lat="44.33854" lon="6.0071">
        <ele>794</ele>
        <time>2019-04-02T13:23:01Z</time>
      </trkpt>
      <trkpt lat="44.33859" lon="6.00705">
        <ele>794</ele>
        <time>2019-04-02T13:23:02Z</time>
      </trkpt>
      <trkpt lat="44.33863" lon="6.007">
        <ele>794</ele>
        <time>2019-04-02T13:23:03Z</time>
      </trkpt>
      <trkpt lat="44.33868" lon="6.00694">
        <ele>794</ele>
        <time>2019-04-02T13:23:04Z</time>
      </trkpt>
      <trkpt lat="44.33873" lon="6.00689">
        <ele>794</ele>
        <time>2019-04-02T13:23:05Z</time>
      </trkpt>
      <trkpt lat="44.33878" lon="6.00684">
        <ele>794</ele>
        <time>2019-04-02T13:23:06Z</time>
      </trkpt>
      <trkpt lat="44.33882" lon="6.0068">
        <ele>794</ele>
        <time>2019-04-02T13:23:07Z</time>
      </trkpt>
      <trkpt lat="44.33887" lon="6.00675">
        <ele>794</ele>
        <time>2019-04-02T13:23:08Z</time>
      </trkpt>
      <trkpt lat="44.33891" lon="6.0067">
        <ele>794</ele>
        <time>2019-04-02T13:23:09Z</time>
      </trkpt>
      <trkpt lat="44.33895" lon="6.00666">
        <ele>794</ele>
        <time>2019-04-02T13:23:10Z</time>
      </trkpt>
      <trkpt lat="44.339" lon="6.00662">
        <ele>794</ele>
        <time>2019-04-02T13:23:11Z</time>
      </trkpt>
      <trkpt lat="44.33905" lon="6.00658">
        <ele>794</ele>
        <time>2019-04-02T13:23:12Z</time>
      </trkpt>
      <trkpt lat="44.33909" lon="6.00654">
        <ele>794</ele>
        <time>2019-04-02T13:23:13Z</time>
      </trkpt>
      <trkpt lat="44.33913" lon="6.0065">
        <ele>794</ele>
        <time>2019-04-02T13:23:14Z</time>
      </trkpt>
      <trkpt lat="44.33918" lon="6.00646">
        <ele>794</ele>
        <time>2019-04-02T13:23:15Z</time>
      </trkpt>
      <trkpt lat="44.33923" lon="6.00643">
        <ele>794</ele>
        <time>2019-04-02T13:23:16Z</time>
      </trkpt>
      <trkpt lat="44.33927" lon="6.00639">
        <ele>794</ele>
        <time>2019-04-02T13:23:17Z</time>
      </trkpt>
      <trkpt lat="44.33932" lon="6.00636">
        <ele>794</ele>
        <time>2019-04-02T13:23:18Z</time>
      </trkpt>
      <trkpt lat="44.33936" lon="6.00633">
        <ele>794</ele>
        <time>2019-04-02T13:23:19Z</time>
      </trkpt>
      <trkpt lat="44.33941" lon="6.00631">
        <ele>794</ele>
        <time>2019-04-02T13:23:20Z</time>
      </trkpt>
      <trkpt lat="44.33946" lon="6.00629">
        <ele>794</ele>
        <time>2019-04-02T13:23:21Z</time>
      </trkpt>
      <trkpt lat="44.33951" lon="6.00627">
        <ele>794</ele>
        <time>2019-04-02T13:23:22Z</time>
      </trkpt>
      <trkpt lat="44.33956" lon="6.00625">
        <ele>794</ele>
        <time>2019-04-02T13:23:23Z</time>
      </trkpt>
      <trkpt lat="44.3396" lon="6.00622">
        <ele>794</ele>
        <time>2019-04-02T13:23:24Z</time>
      </trkpt>
      <trkpt lat="44.33965" lon="6.0062">
        <ele>794</ele>
        <time>2019-04-02T13:23:25Z</time>
      </trkpt>
      <trkpt lat="44.3397" lon="6.00618">
        <ele>794</ele>
        <time>2019-04-02T13:23:26Z</time>
      </trkpt>
      <trkpt lat="44.33974" lon="6.00616">
        <ele>794</ele>
        <time>2019-04-02T13:23:27Z</time>
      </trkpt>
      <trkpt lat="44.33979" lon="6.00614">
        <ele>794</ele>
        <time>2019-04-02T13:23:28Z</time>
      </trkpt>
      <trkpt lat="44.33983" lon="6.00611">
        <ele>794</ele>
        <time>2019-04-02T13:23:29Z</time>
      </trkpt>
      <trkpt lat="44.33988" lon="6.00609">
        <ele>794</ele>
        <time>2019-04-02T13:23:30Z</time>
      </trkpt>
      <trkpt lat="44.33992" lon="6.00606">
        <ele>794</ele>
        <time>2019-04-02T13:23:31Z</time>
      </trkpt>
      <trkpt lat="44.33996" lon="6.00603">
        <ele>794</ele>
        <time>2019-04-02T13:23:32Z</time>
      </trkpt>
      <trkpt lat="44.34" lon="6.006">
        <ele>794</ele>
        <time>2019-04-02T13:23:33Z</time>
      </trkpt>
      <trkpt lat="44.34004" lon="6.00597">
        <ele>794</ele>
        <time>2019-04-02T13:23:34Z</time>
      </trkpt>
      <trkpt lat="44.34007" lon="6.00593">
        <ele>794</ele>
        <time>2019-04-02T13:23:35Z</time>
      </trkpt>
      <trkpt lat="44.34011" lon="6.00589">
        <ele>794</ele>
        <time>2019-04-02T13:23:36Z</time>
      </trkpt>
      <trkpt lat="44.34014" lon="6.00585">
        <ele>794</ele>
        <time>2019-04-02T13:23:37Z</time>
      </trkpt>
      <trkpt lat="44.34017" lon="6.00581">
        <ele>795</ele>
        <time>2019-04-02T13:23:38Z</time>
      </trkpt>
      <trkpt lat="44.3402" lon="6.00576">
        <ele>795</ele>
        <time>2019-04-02T13:23:39Z</time>
      </trkpt>
      <trkpt lat="44.34023" lon="6.00571">
        <ele>795</ele>
        <time>2019-04-02T13:23:40Z</time>
      </trkpt>
      <trkpt lat="44.34025" lon="6.00566">
        <ele>795</ele>
        <time>2019-04-02T13:23:41Z</time>
      </trkpt>
      <trkpt lat="44.34027" lon="6.00561">
        <ele>795</ele>
        <time>2019-04-02T13:23:42Z</time>
      </trkpt>
      <trkpt lat="44.3403" lon="6.00556">
        <ele>795</ele>
        <time>2019-04-02T13:23:43Z</time>
      </trkpt>
      <trkpt lat="44.34032" lon="6.00551">
        <ele>795</ele>
        <time>2019-04-02T13:23:44Z</time>
      </trkpt>
      <trkpt lat="44.34034" lon="6.00545">
        <ele>795</ele>
        <time>2019-04-02T13:23:45Z</time>
      </trkpt>
      <trkpt lat="44.34035" lon="6.00539">
        <ele>795</ele>
        <time>2019-04-02T13:23:46Z</time>
      </trkpt>
      <trkpt lat="44.34037" lon="6.00534">
        <ele>795</ele>
        <time>2019-04-02T13:23:47Z</time>
      </trkpt>
      <trkpt lat="44.34039" lon="6.00528">
        <ele>795</ele>
        <time>2019-04-02T13:23:48Z</time>
      </trkpt>
      <trkpt lat="44.3404" lon="6.00522">
        <ele>795</ele>
        <time>2019-04-02T13:23:49Z</time>
      </trkpt>
      <trkpt lat="44.34042" lon="6.00517">
        <ele>795</ele>
        <time>2019-04-02T13:23:50Z</time>
      </trkpt>
      <trkpt lat="44.34043" lon="6.00511">
        <ele>795</ele>
        <time>2019-04-02T13:23:51Z</time>
      </trkpt>
      <trkpt lat="44.34045" lon="6.00505">
        <ele>795</ele>
        <time>2019-04-02T13:23:52Z</time>
      </trkpt>
      <trkpt lat="44.34047" lon="6.005">
        <ele>795</ele>
        <time>2019-04-02T13:23:53Z</time>
      </trkpt>
      <trkpt lat="44.34049" lon="6.00495">
        <ele>796</ele>
        <time>2019-04-02T13:23:54Z</time>
      </trkpt>
      <trkpt lat="44.34051" lon="6.00489">
        <ele>796</ele>
        <time>2019-04-02T13:23:55Z</time>
      </trkpt>
      <trkpt lat="44.34053" lon="6.00484">
        <ele>796</ele>
        <time>2019-04-02T13:23:56Z</time>
      </trkpt>
      <trkpt lat="44.34055" lon="6.00479">
        <ele>796</ele>
        <time>2019-04-02T13:23:57Z</time>
      </trkpt>
      <trkpt lat="44.34057" lon="6.00474">
        <ele>796</ele>
        <time>2019-04-02T13:23:58Z</time>
      </trkpt>
      <trkpt lat="44.3406" lon="6.00469">
        <ele>796</ele>
        <time>2019-04-02T13:23:59Z</time>
      </trkpt>
      <trkpt lat="44.34062" lon="6.00464">
        <ele>796</ele>
        <time>2019-04-02T13:24:00Z</time>
      </trkpt>
      <trkpt lat="44.34064" lon="6.00459">
        <ele>796</ele>
        <time>2019-04-02T13:24:01Z</time>
      </trkpt>
      <trkpt lat="44.34067" lon="6.00455">
        <ele>796</ele>
        <time>2019-04-02T13:24:02Z</time>
      </trkpt>
      <trkpt lat="44.3407" lon="6.0045">
        <ele>797</ele>
        <time>2019-04-02T13:24:03Z</time>
      </trkpt>
      <trkpt lat="44.34072" lon="6.00445">
        <ele>797</ele>
        <time>2019-04-02T13:24:04Z</time>
      </trkpt>
      <trkpt lat="44.34075" lon="6.0044">
        <ele>797</ele>
        <time>2019-04-02T13:24:05Z</time>
      </trkpt>
      <trkpt lat="44.34078" lon="6.00436">
        <ele>797</ele>
        <time>2019-04-02T13:24:06Z</time>
      </trkpt>
      <trkpt lat="44.34081" lon="6.00431">
        <ele>797</ele>
        <time>2019-04-02T13:24:07Z</time>
      </trkpt>
      <trkpt lat="44.34084" lon="6.00427">
        <ele>797</ele>
        <time>2019-04-02T13:24:08Z</time>
      </trkpt>
      <trkpt lat="44.34087" lon="6.00422">
        <ele>797</ele>
        <time>2019-04-02T13:24:09Z</time>
      </trkpt>
      <trkpt lat="44.3409" lon="6.00418">
        <ele>797</ele>
        <time>2019-04-02T13:24:10Z</time>
      </trkpt>
      <trkpt lat="44.34093" lon="6.00414">
        <ele>798</ele>
        <time>2019-04-02T13:24:11Z</time>
      </trkpt>
      <trkpt lat="44.34097" lon="6.00411">
        <ele>798</ele>
        <time>2019-04-02T13:24:12Z</time>
      </trkpt>
      <trkpt lat="44.341" lon="6.00407">
        <ele>798</ele>
        <time>2019-04-02T13:24:13Z</time>
      </trkpt>
      <trkpt lat="44.34104" lon="6.00404">
        <ele>798</ele>
        <time>2019-04-02T13:24:14Z</time>
      </trkpt>
      <trkpt lat="44.34108" lon="6.00401">
        <ele>798</ele>
        <time>2019-04-02T13:24:15Z</time>
      </trkpt>
      <trkpt lat="44.34111" lon="6.00398">
        <ele>798</ele>
        <time>2019-04-02T13:24:16Z</time>
      </trkpt>
      <trkpt lat="44.34115" lon="6.00395">
        <ele>798</ele>
        <time>2019-04-02T13:24:17Z</time>
      </trkpt>
      <trkpt lat="44.34119" lon="6.00393">
        <ele>799</ele>
        <time>2019-04-02T13:24:18Z</time>
      </trkpt>
      <trkpt lat="44.34122" lon="6.00391">
        <ele>799</ele>
        <time>2019-04-02T13:24:19Z</time>
      </trkpt>
      <trkpt lat="44.34126" lon="6.00389">
        <ele>799</ele>
        <time>2019-04-02T13:24:20Z</time>
      </trkpt>
      <trkpt lat="44.3413" lon="6.00387">
        <ele>799</ele>
        <time>2019-04-02T13:24:21Z</time>
      </trkpt>
      <trkpt lat="44.34134" lon="6.00385">
        <ele>799</ele>
        <time>2019-04-02T13:24:22Z</time>
      </trkpt>
      <trkpt lat="44.34138" lon="6.00383">
        <ele>799</ele>
        <time>2019-04-02T13:24:23Z</time>
      </trkpt>
      <trkpt lat="44.34142" lon="6.00381">
        <ele>800</ele>
        <time>2019-04-02T13:24:24Z</time>
      </trkpt>
      <trkpt lat="44.34146" lon="6.00378">
        <ele>800</ele>
        <time>2019-04-02T13:24:25Z</time>
      </trkpt>
      <trkpt lat="44.3415" lon="6.00376">
        <ele>800</ele>
        <time>2019-04-02T13:24:26Z</time>
      </trkpt>
      <trkpt lat="44.34153" lon="6.00374">
        <ele>800</ele>
        <time>2019-04-02T13:24:27Z</time>
      </trkpt>
      <trkpt lat="44.34157" lon="6.00371">
        <ele>800</ele>
        <time>2019-04-02T13:24:28Z</time>
      </trkpt>
      <trkpt lat="44.34161" lon="6.00368">
        <ele>800</ele>
        <time>2019-04-02T13:24:29Z</time>
      </trkpt>
      <trkpt lat="44.34165" lon="6.00365">
        <ele>801</ele>
        <time>2019-04-02T13:24:30Z</time>
      </trkpt>
      <trkpt lat="44.34169" lon="6.00363">
        <ele>801</ele>
        <time>2019-04-02T13:24:31Z</time>
      </trkpt>
      <trkpt lat="44.34173" lon="6.00359">
        <ele>801</ele>
        <time>2019-04-02T13:24:32Z</time>
      </trkpt>
      <trkpt lat="44.34177" lon="6.00356">
        <ele>801</ele>
        <time>2019-04-02T13:24:33Z</time>
      </trkpt>
      <trkpt lat="44.34181" lon="6.00353">
        <ele>801</ele>
        <time>2019-04-02T13:24:34Z</time>
      </trkpt>
      <trkpt lat="44.34185" lon="6.0035">
        <ele>801</ele>
        <time>2019-04-02T13:24:35Z</time>
      </trkpt>
      <trkpt lat="44.34188" lon="6.00346">
        <ele>801</ele>
        <time>2019-04-02T13:24:36Z</time>
      </trkpt>
      <trkpt lat="44.34192" lon="6.00342">
        <ele>801</ele>
        <time>2019-04-02T13:24:37Z</time>
      </trkpt>
      <trkpt lat="44.34195" lon="6.00338">
        <ele>802</ele>
        <time>2019-04-02T13:24:38Z</time>
      </trkpt>
      <trkpt lat="44.34198" lon="6.00333">
        <ele>802</ele>
        <time>2019-04-02T13:24:39Z</time>
      </trkpt>
      <trkpt lat="44.34201" lon="6.00329">
        <ele>802</ele>
        <time>2019-04-02T13:24:40Z</time>
      </trkpt>
      <trkpt lat="44.34204" lon="6.00325">
        <ele>802</ele>
        <time>2019-04-02T13:24:41Z</time>
      </trkpt>
      <trkpt lat="44.34206" lon="6.0032">
        <ele>802</ele>
        <time>2019-04-02T13:24:42Z</time>
      </trkpt>
      <trkpt lat="44.34209" lon="6.00315">
        <ele>802</ele>
        <time>2019-04-02T13:24:43Z</time>
      </trkpt>
      <trkpt lat="44.34212" lon="6.0031">
        <ele>802</ele>
        <time>2019-04-02T13:24:44Z</time>
      </trkpt>
      <trkpt lat="44.34214" lon="6.00305">
        <ele>803</ele>
        <time>2019-04-02T13:24:45Z</time>
      </trkpt>
      <trkpt lat="44.34217" lon="6.003">
        <ele>803</ele>
        <time>2019-04-02T13:24:46Z</time>
      </trkpt>
      <trkpt lat="44.34219" lon="6.00295">
        <ele>803</ele>
        <time>2019-04-02T13:24:47Z</time>
      </trkpt>
      <trkpt lat="44.34221" lon="6.0029">
        <ele>803</ele>
        <time>2019-04-02T13:24:48Z</time>
      </trkpt>
      <trkpt lat="44.34224" lon="6.00285">
        <ele>803</ele>
        <time>2019-04-02T13:24:49Z</time>
      </trkpt>
      <trkpt lat="44.34226" lon="6.0028">
        <ele>803</ele>
        <time>2019-04-02T13:24:50Z</time>
      </trkpt>
      <trkpt lat="44.34229" lon="6.00275">
        <ele>803</ele>
        <time>2019-04-02T13:24:51Z</time>
      </trkpt>
      <trkpt lat="44.34231" lon="6.00271">
        <ele>803</ele>
        <time>2019-04-02T13:24:52Z</time>
      </trkpt>
      <trkpt lat="44.34233" lon="6.00266">
        <ele>803</ele>
        <time>2019-04-02T13:24:53Z</time>
      </trkpt>
      <trkpt lat="44.34236" lon="6.00262">
        <ele>804</ele>
        <time>2019-04-02T13:24:54Z</time>
      </trkpt>
      <trkpt lat="44.34239" lon="6.00257">
        <ele>804</ele>
        <time>2019-04-02T13:24:55Z</time>
      </trkpt>
      <trkpt lat="44.34242" lon="6.00253">
        <ele>804</ele>
        <time>2019-04-02T13:24:56Z</time>
      </trkpt>
      <trkpt lat="44.34245" lon="6.0025">
        <ele>805</ele>
        <time>2019-04-02T13:24:57Z</time>
      </trkpt>
      <trkpt lat="44.34248" lon="6.00247">
        <ele>805</ele>
        <time>2019-04-02T13:24:58Z</time>
      </trkpt>
      <trkpt lat="44.34252" lon="6.00246">
        <ele>805</ele>
        <time>2019-04-02T13:24:59Z</time>
      </trkpt>
      <trkpt lat="44.34256" lon="6.00245">
        <ele>805</ele>
        <time>2019-04-02T13:25:00Z</time>
      </trkpt>
      <trkpt lat="44.34261" lon="6.00245">
        <ele>806</ele>
        <time>2019-04-02T13:25:01Z</time>
      </trkpt>
      <trkpt lat="44.34264" lon="6.00246">
        <ele>806</ele>
        <time>2019-04-02T13:25:02Z</time>
      </trkpt>
      <trkpt lat="44.34267" lon="6.00247">
        <ele>806</ele>
        <time>2019-04-02T13:25:03Z</time>
      </trkpt>
      <trkpt lat="44.3427" lon="6.00249">
        <ele>806</ele>
        <time>2019-04-02T13:25:04Z</time>
      </trkpt>
      <trkpt lat="44.34274" lon="6.00251">
        <ele>806</ele>
        <time>2019-04-02T13:25:05Z</time>
      </trkpt>
      <trkpt lat="44.34277" lon="6.00254">
        <ele>806</ele>
        <time>2019-04-02T13:25:06Z</time>
      </trkpt>
      <trkpt lat="44.3428" lon="6.00257">
        <ele>806</ele>
        <time>2019-04-02T13:25:07Z</time>
      </trkpt>
      <trkpt lat="44.34285" lon="6.00259">
        <ele>806</ele>
        <time>2019-04-02T13:25:08Z</time>
      </trkpt>
      <trkpt lat="44.34289" lon="6.00263">
        <ele>806</ele>
        <time>2019-04-02T13:25:09Z</time>
      </trkpt>
      <trkpt lat="44.34295" lon="6.00266">
        <ele>806</ele>
        <time>2019-04-02T13:25:10Z</time>
      </trkpt>
      <trkpt lat="44.343" lon="6.0027">
        <ele>806</ele>
        <time>2019-04-02T13:25:11Z</time>
      </trkpt>
      <trkpt lat="44.34306" lon="6.00273">
        <ele>806</ele>
        <time>2019-04-02T13:25:12Z</time>
      </trkpt>
      <trkpt lat="44.34313" lon="6.00275">
        <ele>806</ele>
        <time>2019-04-02T13:25:13Z</time>
      </trkpt>
      <trkpt lat="44.3432" lon="6.00276">
        <ele>806</ele>
        <time>2019-04-02T13:25:14Z</time>
      </trkpt>
      <trkpt lat="44.34327" lon="6.00276">
        <ele>806</ele>
        <time>2019-04-02T13:25:15Z</time>
      </trkpt>
      <trkpt lat="44.34335" lon="6.00274">
        <ele>806</ele>
        <time>2019-04-02T13:25:16Z</time>
      </trkpt>
      <trkpt lat="44.34343" lon="6.00272">
        <ele>806</ele>
        <time>2019-04-02T13:25:17Z</time>
      </trkpt>
      <trkpt lat="44.3435" lon="6.00268">
        <ele>806</ele>
        <time>2019-04-02T13:25:18Z</time>
      </trkpt>
      <trkpt lat="44.34357" lon="6.00265">
        <ele>806</ele>
        <time>2019-04-02T13:25:19Z</time>
      </trkpt>
      <trkpt lat="44.34364" lon="6.00261">
        <ele>806</ele>
        <time>2019-04-02T13:25:20Z</time>
      </trkpt>
      <trkpt lat="44.3437" lon="6.00257">
        <ele>806</ele>
        <time>2019-04-02T13:25:21Z</time>
      </trkpt>
      <trkpt lat="44.34376" lon="6.00253">
        <ele>806</ele>
        <time>2019-04-02T13:25:22Z</time>
      </trkpt>
      <trkpt lat="44.34382" lon="6.00249">
        <ele>806</ele>
        <time>2019-04-02T13:25:23Z</time>
      </trkpt>
      <trkpt lat="44.34388" lon="6.00246">
        <ele>806</ele>
        <time>2019-04-02T13:25:24Z</time>
      </trkpt>
      <trkpt lat="44.34394" lon="6.00242">
        <ele>806</ele>
        <time>2019-04-02T13:25:25Z</time>
      </trkpt>
      <trkpt lat="44.34399" lon="6.00238">
        <ele>806</ele>
        <time>2019-04-02T13:25:26Z</time>
      </trkpt>
      <trkpt lat="44.34404" lon="6.00235">
        <ele>806</ele>
        <time>2019-04-02T13:25:27Z</time>
      </trkpt>
      <trkpt lat="44.34409" lon="6.00231">
        <ele>806</ele>
        <time>2019-04-02T13:25:28Z</time>
      </trkpt>
      <trkpt lat="44.34414" lon="6.00227">
        <ele>806</ele>
        <time>2019-04-02T13:25:29Z</time>
      </trkpt>
      <trkpt lat="44.34418" lon="6.00224">
        <ele>806</ele>
        <time>2019-04-02T13:25:30Z</time>
      </trkpt>
      <trkpt lat="44.34423" lon="6.0022">
        <ele>806</ele>
        <time>2019-04-02T13:25:31Z</time>
      </trkpt>
      <trkpt lat="44.34427" lon="6.00216">
        <ele>806</ele>
        <time>2019-04-02T13:25:32Z</time>
      </trkpt>
      <trkpt lat="44.34431" lon="6.00213">
        <ele>806</ele>
        <time>2019-04-02T13:25:33Z</time>
      </trkpt>
      <trkpt lat="44.34435" lon="6.00209">
        <ele>806</ele>
        <time>2019-04-02T13:25:34Z</time>
      </trkpt>
      <trkpt lat="44.34438" lon="6.00205">
        <ele>807</ele>
        <time>2019-04-02T13:25:35Z</time>
      </trkpt>
      <trkpt lat="44.34441" lon="6.00201">
        <ele>807</ele>
        <time>2019-04-02T13:25:36Z</time>
      </trkpt>
      <trkpt lat="44.34445" lon="6.00197">
        <ele>807</ele>
        <time>2019-04-02T13:25:37Z</time>
      </trkpt>
      <trkpt lat="44.34448" lon="6.00192">
        <ele>808</ele>
        <time>2019-04-02T13:25:38Z</time>
      </trkpt>
      <trkpt lat="44.34451" lon="6.00188">
        <ele>808</ele>
        <time>2019-04-02T13:25:39Z</time>
      </trkpt>
      <trkpt lat="44.34454" lon="6.00184">
        <ele>808</ele>
        <time>2019-04-02T13:25:40Z</time>
      </trkpt>
      <trkpt lat="44.34457" lon="6.0018">
        <ele>808</ele>
        <time>2019-04-02T13:25:41Z</time>
      </trkpt>
      <trkpt lat="44.34461" lon="6.00177">
        <ele>809</ele>
        <time>2019-04-02T13:25:42Z</time>
      </trkpt>
      <trkpt lat="44.34464" lon="6.00174">
        <ele>809</ele>
        <time>2019-04-02T13:25:43Z</time>
      </trkpt>
      <trkpt lat="44.34467" lon="6.0017">
        <ele>809</ele>
        <time>2019-04-02T13:25:44Z</time>
      </trkpt>
      <trkpt lat="44.3447" lon="6.00167">
        <ele>809</ele>
        <time>2019-04-02T13:25:45Z</time>
      </trkpt>
      <trkpt lat="44.34474" lon="6.00164">
        <ele>810</ele>
        <time>2019-04-02T13:25:46Z</time>
      </trkpt>
      <trkpt lat="44.34478" lon="6.00161">
        <ele>810</ele>
        <time>2019-04-02T13:25:47Z</time>
      </trkpt>
      <trkpt lat="44.34482" lon="6.00158">
        <ele>810</ele>
        <time>2019-04-02T13:25:48Z</time>
      </trkpt>
      <trkpt lat="44.34486" lon="6.00155">
        <ele>810</ele>
        <time>2019-04-02T13:25:49Z</time>
      </trkpt>
      <trkpt lat="44.34489" lon="6.00152">
        <ele>810</ele>
        <time>2019-04-02T13:25:50Z</time>
      </trkpt>
      <trkpt lat="44.34494" lon="6.00149">
        <ele>811</ele>
        <time>2019-04-02T13:25:51Z</time>
      </trkpt>
      <trkpt lat="44.34497" lon="6.00145">
        <ele>811</ele>
        <time>2019-04-02T13:25:52Z</time>
      </trkpt>
      <trkpt lat="44.34502" lon="6.00142">
        <ele>811</ele>
        <time>2019-04-02T13:25:53Z</time>
      </trkpt>
      <trkpt lat="44.34506" lon="6.00139">
        <ele>811</ele>
        <time>2019-04-02T13:25:54Z</time>
      </trkpt>
      <trkpt lat="44.3451" lon="6.00136">
        <ele>811</ele>
        <time>2019-04-02T13:25:55Z</time>
      </trkpt>
      <trkpt lat="44.34515" lon="6.00134">
        <ele>811</ele>
        <time>2019-04-02T13:25:56Z</time>
      </trkpt>
      <trkpt lat="44.34519" lon="6.00131">
        <ele>811</ele>
        <time>2019-04-02T13:25:57Z</time>
      </trkpt>
      <trkpt lat="44.34523" lon="6.00128">
        <ele>811</ele>
        <time>2019-04-02T13:25:58Z</time>
      </trkpt>
      <trkpt lat="44.34528" lon="6.00126">
        <ele>811</ele>
        <time>2019-04-02T13:25:59Z</time>
      </trkpt>
      <trkpt lat="44.34532" lon="6.00123">
        <ele>811</ele>
        <time>2019-04-02T13:26:00Z</time>
      </trkpt>
      <trkpt lat="44.34537" lon="6.0012">
        <ele>811</ele>
        <time>2019-04-02T13:26:01Z</time>
      </trkpt>
      <trkpt lat="44.34541" lon="6.00117">
        <ele>812</ele>
        <time>2019-04-02T13:26:02Z</time>
      </trkpt>
      <trkpt lat="44.34546" lon="6.00113">
        <ele>812</ele>
        <time>2019-04-02T13:26:03Z</time>
      </trkpt>
      <trkpt lat="44.3455" lon="6.0011">
        <ele>812</ele>
        <time>2019-04-02T13:26:04Z</time>
      </trkpt>
      <trkpt lat="44.34554" lon="6.00106">
        <ele>812</ele>
        <time>2019-04-02T13:26:05Z</time>
      </trkpt>
      <trkpt lat="44.34558" lon="6.00103">
        <ele>812</ele>
        <time>2019-04-02T13:26:06Z</time>
      </trkpt>
      <trkpt lat="44.34563" lon="6.00099">
        <ele>812</ele>
        <time>2019-04-02T13:26:07Z</time>
      </trkpt>
      <trkpt lat="44.34566" lon="6.00095">
        <ele>812</ele>
        <time>2019-04-02T13:26:08Z</time>
      </trkpt>
      <trkpt lat="44.3457" lon="6.00091">
        <ele>812</ele>
        <time>2019-04-02T13:26:09Z</time>
      </trkpt>
      <trkpt lat="44.34573" lon="6.00086">
        <ele>812</ele>
        <time>2019-04-02T13:26:10Z</time>
      </trkpt>
      <trkpt lat="44.34576" lon="6.00082">
        <ele>812</ele>
        <time>2019-04-02T13:26:11Z</time>
      </trkpt>
      <trkpt lat="44.34579" lon="6.00078">
        <ele>812</ele>
        <time>2019-04-02T13:26:12Z</time>
      </trkpt>
      <trkpt lat="44.34583" lon="6.00074">
        <ele>813</ele>
        <time>2019-04-02T13:26:13Z</time>
      </trkpt>
      <trkpt lat="44.34586" lon="6.0007">
        <ele>813</ele>
        <time>2019-04-02T13:26:14Z</time>
      </trkpt>
      <trkpt lat="44.34588" lon="6.00067">
        <ele>813</ele>
        <time>2019-04-02T13:26:15Z</time>
      </trkpt>
      <trkpt lat="44.34591" lon="6.00063">
        <ele>813</ele>
        <time>2019-04-02T13:26:16Z</time>
      </trkpt>
      <trkpt lat="44.34594" lon="6.00059">
        <ele>813</ele>
        <time>2019-04-02T13:26:17Z</time>
      </trkpt>
      <trkpt lat="44.34597" lon="6.00055">
        <ele>813</ele>
        <time>2019-04-02T13:26:18Z</time>
      </trkpt>
      <trkpt lat="44.346" lon="6.00051">
        <ele>813</ele>
        <time>2019-04-02T13:26:19Z</time>
      </trkpt>
      <trkpt lat="44.34602" lon="6.00047">
        <ele>813</ele>
        <time>2019-04-02T13:26:20Z</time>
      </trkpt>
      <trkpt lat="44.34605" lon="6.00043">
        <ele>813</ele>
        <time>2019-04-02T13:26:21Z</time>
      </trkpt>
      <trkpt lat="44.34608" lon="6.00039">
        <ele>814</ele>
        <time>2019-04-02T13:26:22Z</time>
      </trkpt>
      <trkpt lat="44.34611" lon="6.00035">
        <ele>814</ele>
        <time>2019-04-02T13:26:23Z</time>
      </trkpt>
      <trkpt lat="44.34614" lon="6.00031">
        <ele>814</ele>
        <time>2019-04-02T13:26:24Z</time>
      </trkpt>
      <trkpt lat="44.34617" lon="6.00027">
        <ele>814</ele>
        <time>2019-04-02T13:26:25Z</time>
      </trkpt>
      <trkpt lat="44.3462" lon="6.00023">
        <ele>814</ele>
        <time>2019-04-02T13:26:26Z</time>
      </trkpt>
      <trkpt lat="44.34623" lon="6.00019">
        <ele>814</ele>
        <time>2019-04-02T13:26:27Z</time>
      </trkpt>
      <trkpt lat="44.34626" lon="6.00014">
        <ele>814</ele>
        <time>2019-04-02T13:26:28Z</time>
      </trkpt>
      <trkpt lat="44.34629" lon="6.0001">
        <ele>814</ele>
        <time>2019-04-02T13:26:29Z</time>
      </trkpt>
      <trkpt lat="44.34632" lon="6.00006">
        <ele>814</ele>
        <time>2019-04-02T13:26:30Z</time>
      </trkpt>
      <trkpt lat="44.34635" lon="6.00002">
        <ele>815</ele>
        <time>2019-04-02T13:26:31Z</time>
      </trkpt>
      <trkpt lat="44.34638" lon="5.99998">
        <ele>815</ele>
        <time>2019-04-02T13:26:32Z</time>
      </trkpt>
      <trkpt lat="44.34641" lon="5.99994">
        <ele>815</ele>
        <time>2019-04-02T13:26:33Z</time>
      </trkpt>
      <trkpt lat="44.34644" lon="5.9999">
        <ele>815</ele>
        <time>2019-04-02T13:26:34Z</time>
      </trkpt>
      <trkpt lat="44.34647" lon="5.99986">
        <ele>815</ele>
        <time>2019-04-02T13:26:35Z</time>
      </trkpt>
      <trkpt lat="44.3465" lon="5.99981">
        <ele>815</ele>
        <time>2019-04-02T13:26:36Z</time>
      </trkpt>
      <trkpt lat="44.34652" lon="5.99977">
        <ele>815</ele>
        <time>2019-04-02T13:26:37Z</time>
      </trkpt>
      <trkpt lat="44.34656" lon="5.99973">
        <ele>816</ele>
        <time>2019-04-02T13:26:38Z</time>
      </trkpt>
      <trkpt lat="44.34659" lon="5.99969">
        <ele>816</ele>
        <time>2019-04-02T13:26:39Z</time>
      </trkpt>
      <trkpt lat="44.34662" lon="5.99964">
        <ele>816</ele>
        <time>2019-04-02T13:26:40Z</time>
      </trkpt>
      <trkpt lat="44.34665" lon="5.9996">
        <ele>816</ele>
        <time>2019-04-02T13:26:41Z</time>
      </trkpt>
      <trkpt lat="44.34668" lon="5.99956">
        <ele>816</ele>
        <time>2019-04-02T13:26:42Z</time>
      </trkpt>
      <trkpt lat="44.34671" lon="5.99952">
        <ele>816</ele>
        <time>2019-04-02T13:26:43Z</time>
      </trkpt>
      <trkpt lat="44.34674" lon="5.99948">
        <ele>816</ele>
        <time>2019-04-02T13:26:44Z</time>
      </trkpt>
      <trkpt lat="44.34677" lon="5.99943">
        <ele>816</ele>
        <time>2019-04-02T13:26:45Z</time>
      </trkpt>
      <trkpt lat="44.3468" lon="5.99939">
        <ele>817</ele>
        <time>2019-04-02T13:26:46Z</time>
      </trkpt>
      <trkpt lat="44.34683" lon="5.99935">
        <ele>817</ele>
        <time>2019-04-02T13:26:47Z</time>
      </trkpt>
      <trkpt lat="44.34686" lon="5.99932">
        <ele>817</ele>
        <time>2019-04-02T13:26:48Z</time>
      </trkpt>
      <trkpt lat="44.34689" lon="5.99928">
        <ele>817</ele>
        <time>2019-04-02T13:26:49Z</time>
      </trkpt>
      <trkpt lat="44.34692" lon="5.99924">
        <ele>817</ele>
        <time>2019-04-02T13:26:50Z</time>
      </trkpt>
      <trkpt lat="44.34695" lon="5.9992">
        <ele>817</ele>
        <time>2019-04-02T13:26:51Z</time>
      </trkpt>
      <trkpt lat="44.34697" lon="5.99916">
        <ele>818</ele>
        <time>2019-04-02T13:26:52Z</time>
      </trkpt>
      <trkpt lat="44.347" lon="5.99912">
        <ele>818</ele>
        <time>2019-04-02T13:26:53Z</time>
      </trkpt>
      <trkpt lat="44.34703" lon="5.99908">
        <ele>818</ele>
        <time>2019-04-02T13:26:54Z</time>
      </trkpt>
      <trkpt lat="44.34706" lon="5.99903">
        <ele>818</ele>
        <time>2019-04-02T13:26:55Z</time>
      </trkpt>
      <trkpt lat="44.34709" lon="5.99899">
        <ele>818</ele>
        <time>2019-04-02T13:26:56Z</time>
      </trkpt>
      <trkpt lat="44.34711" lon="5.99895">
        <ele>818</ele>
        <time>2019-04-02T13:26:57Z</time>
      </trkpt>
      <trkpt lat="44.34715" lon="5.99891">
        <ele>819</ele>
        <time>2019-04-02T13:26:58Z</time>
      </trkpt>
      <trkpt lat="44.34718" lon="5.99887">
        <ele>819</ele>
        <time>2019-04-02T13:26:59Z</time>
      </trkpt>
      <trkpt lat="44.34721" lon="5.99883">
        <ele>819</ele>
        <time>2019-04-02T13:27:00Z</time>
      </trkpt>
      <trkpt lat="44.34724" lon="5.99878">
        <ele>819</ele>
        <time>2019-04-02T13:27:01Z</time>
      </trkpt>
      <trkpt lat="44.34727" lon="5.99873">
        <ele>819</ele>
        <time>2019-04-02T13:27:02Z</time>
      </trkpt>
      <trkpt lat="44.3473" lon="5.99869">
        <ele>819</ele>
        <time>2019-04-02T13:27:03Z</time>
      </trkpt>
      <trkpt lat="44.34733" lon="5.99864">
        <ele>819</ele>
        <time>2019-04-02T13:27:04Z</time>
      </trkpt>
      <trkpt lat="44.34737" lon="5.99859">
        <ele>819</ele>
        <time>2019-04-02T13:27:05Z</time>
      </trkpt>
      <trkpt lat="44.3474" lon="5.99855">
        <ele>819</ele>
        <time>2019-04-02T13:27:06Z</time>
      </trkpt>
      <trkpt lat="44.34743" lon="5.9985">
        <ele>819</ele>
        <time>2019-04-02T13:27:07Z</time>
      </trkpt>
      <trkpt lat="44.34746" lon="5.99845">
        <ele>819</ele>
        <time>2019-04-02T13:27:08Z</time>
      </trkpt>
      <trkpt lat="44.34749" lon="5.9984">
        <ele>819</ele>
        <time>2019-04-02T13:27:09Z</time>
      </trkpt>
      <trkpt lat="44.34753" lon="5.99835">
        <ele>820</ele>
        <time>2019-04-02T13:27:10Z</time>
      </trkpt>
      <trkpt lat="44.34755" lon="5.9983">
        <ele>820</ele>
        <time>2019-04-02T13:27:11Z</time>
      </trkpt>
      <trkpt lat="44.34759" lon="5.99825">
        <ele>820</ele>
        <time>2019-04-02T13:27:12Z</time>
      </trkpt>
      <trkpt lat="44.34762" lon="5.99821">
        <ele>820</ele>
        <time>2019-04-02T13:27:13Z</time>
      </trkpt>
      <trkpt lat="44.34765" lon="5.99816">
        <ele>820</ele>
        <time>2019-04-02T13:27:14Z</time>
      </trkpt>
      <trkpt lat="44.34768" lon="5.99811">
        <ele>820</ele>
        <time>2019-04-02T13:27:15Z</time>
      </trkpt>
      <trkpt lat="44.34771" lon="5.99807">
        <ele>820</ele>
        <time>2019-04-02T13:27:16Z</time>
      </trkpt>
      <trkpt lat="44.34774" lon="5.99803">
        <ele>821</ele>
        <time>2019-04-02T13:27:17Z</time>
      </trkpt>
      <trkpt lat="44.34777" lon="5.99798">
        <ele>821</ele>
        <time>2019-04-02T13:27:18Z</time>
      </trkpt>
      <trkpt lat="44.3478" lon="5.99794">
        <ele>821</ele>
        <time>2019-04-02T13:27:19Z</time>
      </trkpt>
      <trkpt lat="44.34783" lon="5.9979">
        <ele>821</ele>
        <time>2019-04-02T13:27:20Z</time>
      </trkpt>
      <trkpt lat="44.34785" lon="5.99786">
        <ele>821</ele>
        <time>2019-04-02T13:27:21Z</time>
      </trkpt>
      <trkpt lat="44.34788" lon="5.99782">
        <ele>822</ele>
        <time>2019-04-02T13:27:22Z</time>
      </trkpt>
      <trkpt lat="44.3479" lon="5.99778">
        <ele>822</ele>
        <time>2019-04-02T13:27:23Z</time>
      </trkpt>
      <trkpt lat="44.34793" lon="5.99774">
        <ele>822</ele>
        <time>2019-04-02T13:27:24Z</time>
      </trkpt>
      <trkpt lat="44.34796" lon="5.9977">
        <ele>822</ele>
        <time>2019-04-02T13:27:25Z</time>
      </trkpt>
      <trkpt lat="44.34798" lon="5.99767">
        <ele>822</ele>
        <time>2019-04-02T13:27:26Z</time>
      </trkpt>
      <trkpt lat="44.34801" lon="5.99763">
        <ele>823</ele>
        <time>2019-04-02T13:27:27Z</time>
      </trkpt>
      <trkpt lat="44.34803" lon="5.9976">
        <ele>823</ele>
        <time>2019-04-02T13:27:28Z</time>
      </trkpt>
      <trkpt lat="44.34806" lon="5.99757">
        <ele>823</ele>
        <time>2019-04-02T13:27:29Z</time>
      </trkpt>
      <trkpt lat="44.34808" lon="5.99754">
        <ele>823</ele>
        <time>2019-04-02T13:27:30Z</time>
      </trkpt>
      <trkpt lat="44.34811" lon="5.99751">
        <ele>823</ele>
        <time>2019-04-02T13:27:31Z</time>
      </trkpt>
      <trkpt lat="44.34814" lon="5.99748">
        <ele>823</ele>
        <time>2019-04-02T13:27:32Z</time>
      </trkpt>
      <trkpt lat="44.34817" lon="5.99746">
        <ele>823</ele>
        <time>2019-04-02T13:27:33Z</time>
      </trkpt>
      <trkpt lat="44.3482" lon="5.99744">
        <ele>823</ele>
        <time>2019-04-02T13:27:34Z</time>
      </trkpt>
      <trkpt lat="44.34823" lon="5.99742">
        <ele>824</ele>
        <time>2019-04-02T13:27:35Z</time>
      </trkpt>
      <trkpt lat="44.34826" lon="5.9974">
        <ele>824</ele>
        <time>2019-04-02T13:27:36Z</time>
      </trkpt>
      <trkpt lat="44.3483" lon="5.99739">
        <ele>824</ele>
        <time>2019-04-02T13:27:37Z</time>
      </trkpt>
      <trkpt lat="44.34833" lon="5.99737">
        <ele>824</ele>
        <time>2019-04-02T13:27:38Z</time>
      </trkpt>
      <trkpt lat="44.34837" lon="5.99735">
        <ele>825</ele>
        <time>2019-04-02T13:27:39Z</time>
      </trkpt>
      <trkpt lat="44.3484" lon="5.99734">
        <ele>825</ele>
        <time>2019-04-02T13:27:40Z</time>
      </trkpt>
      <trkpt lat="44.34844" lon="5.99732">
        <ele>825</ele>
        <time>2019-04-02T13:27:41Z</time>
      </trkpt>
      <trkpt lat="44.34848" lon="5.9973">
        <ele>825</ele>
        <time>2019-04-02T13:27:42Z</time>
      </trkpt>
      <trkpt lat="44.34851" lon="5.99728">
        <ele>825</ele>
        <time>2019-04-02T13:27:43Z</time>
      </trkpt>
      <trkpt lat="44.34855" lon="5.99726">
        <ele>826</ele>
        <time>2019-04-02T13:27:44Z</time>
      </trkpt>
      <trkpt lat="44.34859" lon="5.99723">
        <ele>826</ele>
        <time>2019-04-02T13:27:45Z</time>
      </trkpt>
      <trkpt lat="44.34863" lon="5.9972">
        <ele>826</ele>
        <time>2019-04-02T13:27:46Z</time>
      </trkpt>
      <trkpt lat="44.34866" lon="5.99718">
        <ele>826</ele>
        <time>2019-04-02T13:27:47Z</time>
      </trkpt>
      <trkpt lat="44.3487" lon="5.99714">
        <ele>826</ele>
        <time>2019-04-02T13:27:48Z</time>
      </trkpt>
      <trkpt lat="44.34873" lon="5.99711">
        <ele>826</ele>
        <time>2019-04-02T13:27:49Z</time>
      </trkpt>
      <trkpt lat="44.34876" lon="5.99708">
        <ele>827</ele>
        <time>2019-04-02T13:27:50Z</time>
      </trkpt>
      <trkpt lat="44.34879" lon="5.99704">
        <ele>827</ele>
        <time>2019-04-02T13:27:51Z</time>
      </trkpt>
      <trkpt lat="44.34881" lon="5.997">
        <ele>827</ele>
        <time>2019-04-02T13:27:52Z</time>
      </trkpt>
      <trkpt lat="44.34883" lon="5.99696">
        <ele>827</ele>
        <time>2019-04-02T13:27:53Z</time>
      </trkpt>
      <trkpt lat="44.34886" lon="5.99692">
        <ele>827</ele>
        <time>2019-04-02T13:27:54Z</time>
      </trkpt>
      <trkpt lat="44.34888" lon="5.99689">
        <ele>828</ele>
        <time>2019-04-02T13:27:55Z</time>
      </trkpt>
      <trkpt lat="44.34891" lon="5.99685">
        <ele>828</ele>
        <time>2019-04-02T13:27:56Z</time>
      </trkpt>
      <trkpt lat="44.34893" lon="5.99681">
        <ele>828</ele>
        <time>2019-04-02T13:27:57Z</time>
      </trkpt>
      <trkpt lat="44.34895" lon="5.99677">
        <ele>828</ele>
        <time>2019-04-02T13:27:58Z</time>
      </trkpt>
      <trkpt lat="44.34898" lon="5.99674">
        <ele>828</ele>
        <time>2019-04-02T13:27:59Z</time>
      </trkpt>
      <trkpt lat="44.349" lon="5.9967">
        <ele>829</ele>
        <time>2019-04-02T13:28:00Z</time>
      </trkpt>
      <trkpt lat="44.34903" lon="5.99666">
        <ele>829</ele>
        <time>2019-04-02T13:28:01Z</time>
      </trkpt>
      <trkpt lat="44.34905" lon="5.99662">
        <ele>829</ele>
        <time>2019-04-02T13:28:02Z</time>
      </trkpt>
      <trkpt lat="44.34907" lon="5.99659">
        <ele>829</ele>
        <time>2019-04-02T13:28:03Z</time>
      </trkpt>
      <trkpt lat="44.3491" lon="5.99655">
        <ele>829</ele>
        <time>2019-04-02T13:28:04Z</time>
      </trkpt>
      <trkpt lat="44.34912" lon="5.99651">
        <ele>829</ele>
        <time>2019-04-02T13:28:05Z</time>
      </trkpt>
      <trkpt lat="44.34915" lon="5.99648">
        <ele>830</ele>
        <time>2019-04-02T13:28:06Z</time>
      </trkpt>
      <trkpt lat="44.34917" lon="5.99644">
        <ele>830</ele>
        <time>2019-04-02T13:28:07Z</time>
      </trkpt>
      <trkpt lat="44.3492" lon="5.99641">
        <ele>830</ele>
        <time>2019-04-02T13:28:08Z</time>
      </trkpt>
      <trkpt lat="44.34922" lon="5.99637">
        <ele>830</ele>
        <time>2019-04-02T13:28:09Z</time>
      </trkpt>
      <trkpt lat="44.34925" lon="5.99634">
        <ele>830</ele>
        <time>2019-04-02T13:28:10Z</time>
      </trkpt>
      <trkpt lat="44.34927" lon="5.9963">
        <ele>831</ele>
        <time>2019-04-02T13:28:11Z</time>
      </trkpt>
      <trkpt lat="44.3493" lon="5.99627">
        <ele>831</ele>
        <time>2019-04-02T13:28:12Z</time>
      </trkpt>
      <trkpt lat="44.34932" lon="5.99623">
        <ele>831</ele>
        <time>2019-04-02T13:28:13Z</time>
      </trkpt>
      <trkpt lat="44.34935" lon="5.9962">
        <ele>831</ele>
        <time>2019-04-02T13:28:14Z</time>
      </trkpt>
      <trkpt lat="44.34937" lon="5.99616">
        <ele>831</ele>
        <time>2019-04-02T13:28:15Z</time>
      </trkpt>
      <trkpt lat="44.3494" lon="5.99613">
        <ele>832</ele>
        <time>2019-04-02T13:28:16Z</time>
      </trkpt>
      <trkpt lat="44.34942" lon="5.99609">
        <ele>832</ele>
        <time>2019-04-02T13:28:17Z</time>
      </trkpt>
      <trkpt lat="44.34945" lon="5.99605">
        <ele>832</ele>
        <time>2019-04-02T13:28:18Z</time>
      </trkpt>
      <trkpt lat="44.34947" lon="5.99601">
        <ele>832</ele>
        <time>2019-04-02T13:28:19Z</time>
      </trkpt>
      <trkpt lat="44.3495" lon="5.99597">
        <ele>833</ele>
        <time>2019-04-02T13:28:20Z</time>
      </trkpt>
      <trkpt lat="44.34952" lon="5.99593">
        <ele>833</ele>
        <time>2019-04-02T13:28:21Z</time>
      </trkpt>
      <trkpt lat="44.34955" lon="5.99588">
        <ele>833</ele>
        <time>2019-04-02T13:28:22Z</time>
      </trkpt>
      <trkpt lat="44.34958" lon="5.99584">
        <ele>833</ele>
        <time>2019-04-02T13:28:23Z</time>
      </trkpt>
      <trkpt lat="44.34961" lon="5.99579">
        <ele>833</ele>
        <time>2019-04-02T13:28:24Z</time>
      </trkpt>
      <trkpt lat="44.34964" lon="5.99574">
        <ele>833</ele>
        <time>2019-04-02T13:28:25Z</time>
      </trkpt>
      <trkpt lat="44.34968" lon="5.99569">
        <ele>833</ele>
        <time>2019-04-02T13:28:26Z</time>
      </trkpt>
      <trkpt lat="44.34972" lon="5.99565">
        <ele>833</ele>
        <time>2019-04-02T13:28:27Z</time>
      </trkpt>
      <trkpt lat="44.34976" lon="5.9956">
        <ele>833</ele>
        <time>2019-04-02T13:28:28Z</time>
      </trkpt>
      <trkpt lat="44.34981" lon="5.99555">
        <ele>833</ele>
        <time>2019-04-02T13:28:29Z</time>
      </trkpt>
      <trkpt lat="44.34986" lon="5.99551">
        <ele>833</ele>
        <time>2019-04-02T13:28:30Z</time>
      </trkpt>
      <trkpt lat="44.34992" lon="5.99547">
        <ele>833</ele>
        <time>2019-04-02T13:28:31Z</time>
      </trkpt>
      <trkpt lat="44.34998" lon="5.99543">
        <ele>833</ele>
        <time>2019-04-02T13:28:32Z</time>
      </trkpt>
      <trkpt lat="44.35004" lon="5.99539">
        <ele>833</ele>
        <time>2019-04-02T13:28:33Z</time>
      </trkpt>
      <trkpt lat="44.3501" lon="5.99535">
        <ele>833</ele>
        <time>2019-04-02T13:28:34Z</time>
      </trkpt>
      <trkpt lat="44.35017" lon="5.99531">
        <ele>833</ele>
        <time>2019-04-02T13:28:35Z</time>
      </trkpt>
      <trkpt lat="44.35023" lon="5.99527">
        <ele>833</ele>
        <time>2019-04-02T13:28:36Z</time>
      </trkpt>
      <trkpt lat="44.3503" lon="5.99523">
        <ele>833</ele>
        <time>2019-04-02T13:28:37Z</time>
      </trkpt>
      <trkpt lat="44.35037" lon="5.99518">
        <ele>833</ele>
        <time>2019-04-02T13:28:38Z</time>
      </trkpt>
      <trkpt lat="44.35044" lon="5.99514">
        <ele>833</ele>
        <time>2019-04-02T13:28:39Z</time>
      </trkpt>
      <trkpt lat="44.35051" lon="5.9951">
        <ele>833</ele>
        <time>2019-04-02T13:28:40Z</time>
      </trkpt>
      <trkpt lat="44.35059" lon="5.99506">
        <ele>833</ele>
        <time>2019-04-02T13:28:41Z</time>
      </trkpt>
      <trkpt lat="44.35066" lon="5.99501">
        <ele>833</ele>
        <time>2019-04-02T13:28:42Z</time>
      </trkpt>
      <trkpt lat="44.35073" lon="5.99497">
        <ele>833</ele>
        <time>2019-04-02T13:28:43Z</time>
      </trkpt>
      <trkpt lat="44.35081" lon="5.99492">
        <ele>833</ele>
        <time>2019-04-02T13:28:44Z</time>
      </trkpt>
      <trkpt lat="44.35088" lon="5.99487">
        <ele>833</ele>
        <time>2019-04-02T13:28:45Z</time>
      </trkpt>
      <trkpt lat="44.35094" lon="5.99481">
        <ele>833</ele>
        <time>2019-04-02T13:28:46Z</time>
      </trkpt>
      <trkpt lat="44.351" lon="5.99474">
        <ele>833</ele>
        <time>2019-04-02T13:28:47Z</time>
      </trkpt>
      <trkpt lat="44.35105" lon="5.99466">
        <ele>833</ele>
        <time>2019-04-02T13:28:48Z</time>
      </trkpt>
      <trkpt lat="44.35109" lon="5.99458">
        <ele>833</ele>
        <time>2019-04-02T13:28:49Z</time>
      </trkpt>
      <trkpt lat="44.35114" lon="5.99449">
        <ele>833</ele>
        <time>2019-04-02T13:28:50Z</time>
      </trkpt>
      <trkpt lat="44.35117" lon="5.9944">
        <ele>833</ele>
        <time>2019-04-02T13:28:51Z</time>
      </trkpt>
      <trkpt lat="44.35119" lon="5.99432">
        <ele>833</ele>
        <time>2019-04-02T13:28:52Z</time>
      </trkpt>
      <trkpt lat="44.3512" lon="5.99423">
        <ele>833</ele>
        <time>2019-04-02T13:28:53Z</time>
      </trkpt>
      <trkpt lat="44.35122" lon="5.99414">
        <ele>833</ele>
        <time>2019-04-02T13:28:54Z</time>
      </trkpt>
      <trkpt lat="44.35123" lon="5.99405">
        <ele>833</ele>
        <time>2019-04-02T13:28:55Z</time>
      </trkpt>
      <trkpt lat="44.35124" lon="5.99396">
        <ele>833</ele>
        <time>2019-04-02T13:28:56Z</time>
      </trkpt>
      <trkpt lat="44.35125" lon="5.99388">
        <ele>833</ele>
        <time>2019-04-02T13:28:57Z</time>
      </trkpt>
      <trkpt lat="44.35125" lon="5.99379">
        <ele>833</ele>
        <time>2019-04-02T13:28:58Z</time>
      </trkpt>
      <trkpt lat="44.35126" lon="5.99371">
        <ele>833</ele>
        <time>2019-04-02T13:28:59Z</time>
      </trkpt>
      <trkpt lat="44.35127" lon="5.99363">
        <ele>833</ele>
        <time>2019-04-02T13:29:00Z</time>
      </trkpt>
      <trkpt lat="44.35128" lon="5.99356">
        <ele>833</ele>
        <time>2019-04-02T13:29:01Z</time>
      </trkpt>
      <trkpt lat="44.35129" lon="5.99348">
        <ele>833</ele>
        <time>2019-04-02T13:29:02Z</time>
      </trkpt>
      <trkpt lat="44.3513" lon="5.9934">
        <ele>833</ele>
        <time>2019-04-02T13:29:03Z</time>
      </trkpt>
      <trkpt lat="44.35131" lon="5.99333">
        <ele>833</ele>
        <time>2019-04-02T13:29:04Z</time>
      </trkpt>
      <trkpt lat="44.35132" lon="5.99326">
        <ele>833</ele>
        <time>2019-04-02T13:29:05Z</time>
      </trkpt>
      <trkpt lat="44.35133" lon="5.99319">
        <ele>833</ele>
        <time>2019-04-02T13:29:06Z</time>
      </trkpt>
      <trkpt lat="44.35135" lon="5.99312">
        <ele>833</ele>
        <time>2019-04-02T13:29:07Z</time>
      </trkpt>
      <trkpt lat="44.35136" lon="5.99304">
        <ele>833</ele>
        <time>2019-04-02T13:29:08Z</time>
      </trkpt>
      <trkpt lat="44.35137" lon="5.99298">
        <ele>833</ele>
        <time>2019-04-02T13:29:09Z</time>
      </trkpt>
      <trkpt lat="44.35139" lon="5.99291">
        <ele>833</ele>
        <time>2019-04-02T13:29:10Z</time>
      </trkpt>
      <trkpt lat="44.35141" lon="5.99285">
        <ele>833</ele>
        <time>2019-04-02T13:29:11Z</time>
      </trkpt>
      <trkpt lat="44.35143" lon="5.99278">
        <ele>833</ele>
        <time>2019-04-02T13:29:12Z</time>
      </trkpt>
      <trkpt lat="44.35145" lon="5.99272">
        <ele>833</ele>
        <time>2019-04-02T13:29:13Z</time>
      </trkpt>
      <trkpt lat="44.35147" lon="5.99266">
        <ele>833</ele>
        <time>2019-04-02T13:29:14Z</time>
      </trkpt>
      <trkpt lat="44.3515" lon="5.9926">
        <ele>833</ele>
        <time>2019-04-02T13:29:15Z</time>
      </trkpt>
      <trkpt lat="44.35153" lon="5.99253">
        <ele>833</ele>
        <time>2019-04-02T13:29:16Z</time>
      </trkpt>
      <trkpt lat="44.35156" lon="5.99247">
        <ele>833</ele>
        <time>2019-04-02T13:29:17Z</time>
      </trkpt>
      <trkpt lat="44.35159" lon="5.99241">
        <ele>833</ele>
        <time>2019-04-02T13:29:18Z</time>
      </trkpt>
      <trkpt lat="44.35162" lon="5.99235">
        <ele>833</ele>
        <time>2019-04-02T13:29:19Z</time>
      </trkpt>
      <trkpt lat="44.35165" lon="5.9923">
        <ele>833</ele>
        <time>2019-04-02T13:29:20Z</time>
      </trkpt>
      <trkpt lat="44.35168" lon="5.99224">
        <ele>833</ele>
        <time>2019-04-02T13:29:21Z</time>
      </trkpt>
      <trkpt lat="44.35172" lon="5.99219">
        <ele>833</ele>
        <time>2019-04-02T13:29:22Z</time>
      </trkpt>
      <trkpt lat="44.35175" lon="5.99214">
        <ele>833</ele>
        <time>2019-04-02T13:29:23Z</time>
      </trkpt>
      <trkpt lat="44.35178" lon="5.99209">
        <ele>833</ele>
        <time>2019-04-02T13:29:24Z</time>
      </trkpt>
      <trkpt lat="44.35181" lon="5.99204">
        <ele>833</ele>
        <time>2019-04-02T13:29:25Z</time>
      </trkpt>
      <trkpt lat="44.35184" lon="5.992">
        <ele>833</ele>
        <time>2019-04-02T13:29:26Z</time>
      </trkpt>
      <trkpt lat="44.35187" lon="5.99196">
        <ele>833</ele>
        <time>2019-04-02T13:29:27Z</time>
      </trkpt>
      <trkpt lat="44.35189" lon="5.99192">
        <ele>833</ele>
        <time>2019-04-02T13:29:28Z</time>
      </trkpt>
      <trkpt lat="44.35192" lon="5.9919">
        <ele>833</ele>
        <time>2019-04-02T13:29:29Z</time>
      </trkpt>
      <trkpt lat="44.35195" lon="5.99187">
        <ele>833</ele>
        <time>2019-04-02T13:29:30Z</time>
      </trkpt>
      <trkpt lat="44.35197" lon="5.99186">
        <ele>833</ele>
        <time>2019-04-02T13:29:31Z</time>
      </trkpt>
      <trkpt lat="44.35199" lon="5.99184">
        <ele>833</ele>
        <time>2019-04-02T13:29:32Z</time>
      </trkpt>
      <trkpt lat="44.35201" lon="5.99182">
        <ele>833</ele>
        <time>2019-04-02T13:29:33Z</time>
      </trkpt>
      <trkpt lat="44.35202" lon="5.99181">
        <ele>833</ele>
        <time>2019-04-02T13:29:34Z</time>
      </trkpt>
      <trkpt lat="44.35204" lon="5.99179">
        <ele>833</ele>
        <time>2019-04-02T13:29:35Z</time>
      </trkpt>
      <trkpt lat="44.35205" lon="5.99178">
        <ele>833</ele>
        <time>2019-04-02T13:29:37Z</time>
      </trkpt>
      <trkpt lat="44.35204" lon="5.99177">
        <ele>833</ele>
        <time>2019-04-02T13:30:17Z</time>
      </trkpt>
      <trkpt lat="44.35203" lon="5.99178">
        <ele>833</ele>
        <time>2019-04-02T13:30:35Z</time>
      </trkpt>
      <trkpt lat="44.35202" lon="5.99179">
        <ele>834</ele>
        <time>2019-04-02T13:32:18Z</time>
      </trkpt>
      <trkpt lat="44.35201" lon="5.99177">
        <ele>834</ele>
        <time>2019-04-02T13:32:47Z</time>
      </trkpt>
      <trkpt lat="44.35202" lon="5.99177">
        <ele>834</ele>
        <time>2019-04-02T13:33:24Z</time>
      </trkpt>
      <trkpt lat="44.35203" lon="5.99175">
        <ele>836</ele>
        <time>2019-04-02T13:33:29Z</time>
      </trkpt>
      <trkpt lat="44.35203" lon="5.99174">
        <ele>838</ele>
        <time>2019-04-02T13:33:35Z</time>
      </trkpt>
      <trkpt lat="44.35203" lon="5.99172">
        <ele>840</ele>
        <time>2019-04-02T13:33:43Z</time>
      </trkpt>
      <trkpt lat="44.35202" lon="5.99174">
        <ele>841</ele>
        <time>2019-04-02T13:34:08Z</time>
      </trkpt>
      <trkpt lat="44.35202" lon="5.99171">
        <ele>841</ele>
        <time>2019-04-02T13:34:15Z</time>
      </trkpt>
      <trkpt lat="44.35203" lon="5.99169">
        <ele>841</ele>
        <time>2019-04-02T13:34:16Z</time>
      </trkpt>
      <trkpt lat="44.35202" lon="5.99167">
        <ele>841</ele>
        <time>2019-04-02T13:34:17Z</time>
      </trkpt>
      <trkpt lat="44.35202" lon="5.99165">
        <ele>841</ele>
        <time>2019-04-02T13:34:18Z</time>
      </trkpt>
      <trkpt lat="44.35202" lon="5.99162">
        <ele>841</ele>
        <time>2019-04-02T13:34:19Z</time>
      </trkpt>
      <trkpt lat="44.35203" lon="5.99158">
        <ele>841</ele>
        <time>2019-04-02T13:34:20Z</time>
      </trkpt>
      <trkpt lat="44.35205" lon="5.99155">
        <ele>841</ele>
        <time>2019-04-02T13:34:21Z</time>
      </trkpt>
      <trkpt lat="44.35207" lon="5.99152">
        <ele>841</ele>
        <time>2019-04-02T13:34:22Z</time>
      </trkpt>
      <trkpt lat="44.3521" lon="5.99148">
        <ele>841</ele>
        <time>2019-04-02T13:34:23Z</time>
      </trkpt>
      <trkpt lat="44.35213" lon="5.99144">
        <ele>841</ele>
        <time>2019-04-02T13:34:24Z</time>
      </trkpt>
      <trkpt lat="44.35217" lon="5.9914">
        <ele>841</ele>
        <time>2019-04-02T13:34:25Z</time>
      </trkpt>
      <trkpt lat="44.3522" lon="5.99136">
        <ele>841</ele>
        <time>2019-04-02T13:34:26Z</time>
      </trkpt>
      <trkpt lat="44.35225" lon="5.99132">
        <ele>841</ele>
        <time>2019-04-02T13:34:27Z</time>
      </trkpt>
      <trkpt lat="44.35229" lon="5.9913">
        <ele>840</ele>
        <time>2019-04-02T13:34:28Z</time>
      </trkpt>
      <trkpt lat="44.35234" lon="5.99128">
        <ele>840</ele>
        <time>2019-04-02T13:34:29Z</time>
      </trkpt>
      <trkpt lat="44.35239" lon="5.99127">
        <ele>840</ele>
        <time>2019-04-02T13:34:30Z</time>
      </trkpt>
      <trkpt lat="44.35245" lon="5.99126">
        <ele>840</ele>
        <time>2019-04-02T13:34:31Z</time>
      </trkpt>
      <trkpt lat="44.35251" lon="5.99126">
        <ele>840</ele>
        <time>2019-04-02T13:34:32Z</time>
      </trkpt>
      <trkpt lat="44.35257" lon="5.99126">
        <ele>839</ele>
        <time>2019-04-02T13:34:33Z</time>
      </trkpt>
      <trkpt lat="44.35263" lon="5.99127">
        <ele>839</ele>
        <time>2019-04-02T13:34:34Z</time>
      </trkpt>
      <trkpt lat="44.3527" lon="5.99127">
        <ele>839</ele>
        <time>2019-04-02T13:34:35Z</time>
      </trkpt>
      <trkpt lat="44.35277" lon="5.99128">
        <ele>838</ele>
        <time>2019-04-02T13:34:36Z</time>
      </trkpt>
      <trkpt lat="44.35285" lon="5.99129">
        <ele>837</ele>
        <time>2019-04-02T13:34:37Z</time>
      </trkpt>
      <trkpt lat="44.35293" lon="5.9913">
        <ele>837</ele>
        <time>2019-04-02T13:34:38Z</time>
      </trkpt>
      <trkpt lat="44.35302" lon="5.99131">
        <ele>836</ele>
        <time>2019-04-02T13:34:39Z</time>
      </trkpt>
      <trkpt lat="44.3531" lon="5.99131">
        <ele>835</ele>
        <time>2019-04-02T13:34:40Z</time>
      </trkpt>
      <trkpt lat="44.3532" lon="5.9913">
        <ele>834</ele>
        <time>2019-04-02T13:34:41Z</time>
      </trkpt>
      <trkpt lat="44.35329" lon="5.99129">
        <ele>833</ele>
        <time>2019-04-02T13:34:42Z</time>
      </trkpt>
      <trkpt lat="44.35339" lon="5.99128">
        <ele>832</ele>
        <time>2019-04-02T13:34:43Z</time>
      </trkpt>
      <trkpt lat="44.35348" lon="5.99126">
        <ele>831</ele>
        <time>2019-04-02T13:34:44Z</time>
      </trkpt>
      <trkpt lat="44.35358" lon="5.99124">
        <ele>830</ele>
        <time>2019-04-02T13:34:45Z</time>
      </trkpt>
      <trkpt lat="44.35368" lon="5.99122">
        <ele>830</ele>
        <time>2019-04-02T13:34:46Z</time>
      </trkpt>
      <trkpt lat="44.35378" lon="5.99119">
        <ele>829</ele>
        <time>2019-04-02T13:34:47Z</time>
      </trkpt>
      <trkpt lat="44.35388" lon="5.99117">
        <ele>828</ele>
        <time>2019-04-02T13:34:48Z</time>
      </trkpt>
      <trkpt lat="44.35398" lon="5.99113">
        <ele>828</ele>
        <time>2019-04-02T13:34:49Z</time>
      </trkpt>
      <trkpt lat="44.35407" lon="5.9911">
        <ele>827</ele>
        <time>2019-04-02T13:34:50Z</time>
      </trkpt>
      <trkpt lat="44.35417" lon="5.99105">
        <ele>827</ele>
        <time>2019-04-02T13:34:51Z</time>
      </trkpt>
      <trkpt lat="44.35426" lon="5.991">
        <ele>827</ele>
        <time>2019-04-02T13:34:52Z</time>
      </trkpt>
      <trkpt lat="44.35434" lon="5.99094">
        <ele>827</ele>
        <time>2019-04-02T13:34:53Z</time>
      </trkpt>
      <trkpt lat="44.35442" lon="5.99088">
        <ele>827</ele>
        <time>2019-04-02T13:34:54Z</time>
      </trkpt>
      <trkpt lat="44.3545" lon="5.99082">
        <ele>827</ele>
        <time>2019-04-02T13:34:55Z</time>
      </trkpt>
      <trkpt lat="44.35458" lon="5.99075">
        <ele>827</ele>
        <time>2019-04-02T13:34:56Z</time>
      </trkpt>
      <trkpt lat="44.35465" lon="5.99069">
        <ele>827</ele>
        <time>2019-04-02T13:34:57Z</time>
      </trkpt>
      <trkpt lat="44.35471" lon="5.99064">
        <ele>827</ele>
        <time>2019-04-02T13:34:58Z</time>
      </trkpt>
      <trkpt lat="44.35478" lon="5.9906">
        <ele>827</ele>
        <time>2019-04-02T13:34:59Z</time>
      </trkpt>
      <trkpt lat="44.35484" lon="5.99056">
        <ele>827</ele>
        <time>2019-04-02T13:35:00Z</time>
      </trkpt>
      <trkpt lat="44.3549" lon="5.99053">
        <ele>827</ele>
        <time>2019-04-02T13:35:01Z</time>
      </trkpt>
      <trkpt lat="44.35497" lon="5.9905">
        <ele>827</ele>
        <time>2019-04-02T13:35:02Z</time>
      </trkpt>
      <trkpt lat="44.35503" lon="5.99047">
        <ele>827</ele>
        <time>2019-04-02T13:35:03Z</time>
      </trkpt>
      <trkpt lat="44.35508" lon="5.99044">
        <ele>827</ele>
        <time>2019-04-02T13:35:04Z</time>
      </trkpt>
      <trkpt lat="44.35514" lon="5.99041">
        <ele>827</ele>
        <time>2019-04-02T13:35:05Z</time>
      </trkpt>
      <trkpt lat="44.3552" lon="5.99038">
        <ele>827</ele>
        <time>2019-04-02T13:35:06Z</time>
      </trkpt>
      <trkpt lat="44.35526" lon="5.99035">
        <ele>827</ele>
        <time>2019-04-02T13:35:07Z</time>
      </trkpt>
      <trkpt lat="44.35531" lon="5.99032">
        <ele>827</ele>
        <time>2019-04-02T13:35:08Z</time>
      </trkpt>
      <trkpt lat="44.35537" lon="5.99028">
        <ele>827</ele>
        <time>2019-04-02T13:35:09Z</time>
      </trkpt>
      <trkpt lat="44.35543" lon="5.99025">
        <ele>827</ele>
        <time>2019-04-02T13:35:10Z</time>
      </trkpt>
      <trkpt lat="44.35548" lon="5.99021">
        <ele>827</ele>
        <time>2019-04-02T13:35:11Z</time>
      </trkpt>
      <trkpt lat="44.35554" lon="5.99017">
        <ele>827</ele>
        <time>2019-04-02T13:35:12Z</time>
      </trkpt>
      <trkpt lat="44.3556" lon="5.99014">
        <ele>827</ele>
        <time>2019-04-02T13:35:13Z</time>
      </trkpt>
      <trkpt lat="44.35566" lon="5.9901">
        <ele>827</ele>
        <time>2019-04-02T13:35:14Z</time>
      </trkpt>
      <trkpt lat="44.35571" lon="5.99006">
        <ele>827</ele>
        <time>2019-04-02T13:35:15Z</time>
      </trkpt>
      <trkpt lat="44.35577" lon="5.99002">
        <ele>827</ele>
        <time>2019-04-02T13:35:16Z</time>
      </trkpt>
      <trkpt lat="44.35582" lon="5.98998">
        <ele>827</ele>
        <time>2019-04-02T13:35:17Z</time>
      </trkpt>
      <trkpt lat="44.35587" lon="5.98994">
        <ele>827</ele>
        <time>2019-04-02T13:35:18Z</time>
      </trkpt>
      <trkpt lat="44.35592" lon="5.9899">
        <ele>827</ele>
        <time>2019-04-02T13:35:19Z</time>
      </trkpt>
      <trkpt lat="44.35596" lon="5.98986">
        <ele>827</ele>
        <time>2019-04-02T13:35:20Z</time>
      </trkpt>
      <trkpt lat="44.35601" lon="5.98982">
        <ele>827</ele>
        <time>2019-04-02T13:35:21Z</time>
      </trkpt>
      <trkpt lat="44.35605" lon="5.98978">
        <ele>827</ele>
        <time>2019-04-02T13:35:22Z</time>
      </trkpt>
      <trkpt lat="44.35609" lon="5.98973">
        <ele>827</ele>
        <time>2019-04-02T13:35:23Z</time>
      </trkpt>
      <trkpt lat="44.35614" lon="5.98969">
        <ele>827</ele>
        <time>2019-04-02T13:35:24Z</time>
      </trkpt>
      <trkpt lat="44.35618" lon="5.98964">
        <ele>827</ele>
        <time>2019-04-02T13:35:25Z</time>
      </trkpt>
      <trkpt lat="44.35622" lon="5.98959">
        <ele>827</ele>
        <time>2019-04-02T13:35:26Z</time>
      </trkpt>
      <trkpt lat="44.35626" lon="5.98954">
        <ele>827</ele>
        <time>2019-04-02T13:35:27Z</time>
      </trkpt>
      <trkpt lat="44.35631" lon="5.9895">
        <ele>827</ele>
        <time>2019-04-02T13:35:28Z</time>
      </trkpt>
      <trkpt lat="44.35635" lon="5.98946">
        <ele>827</ele>
        <time>2019-04-02T13:35:29Z</time>
      </trkpt>
      <trkpt lat="44.35639" lon="5.98941">
        <ele>827</ele>
        <time>2019-04-02T13:35:30Z</time>
      </trkpt>
      <trkpt lat="44.35643" lon="5.98937">
        <ele>827</ele>
        <time>2019-04-02T13:35:31Z</time>
      </trkpt>
      <trkpt lat="44.35648" lon="5.98932">
        <ele>827</ele>
        <time>2019-04-02T13:35:32Z</time>
      </trkpt>
      <trkpt lat="44.35652" lon="5.98928">
        <ele>827</ele>
        <time>2019-04-02T13:35:33Z</time>
      </trkpt>
      <trkpt lat="44.35656" lon="5.98924">
        <ele>827</ele>
        <time>2019-04-02T13:35:34Z</time>
      </trkpt>
      <trkpt lat="44.3566" lon="5.98919">
        <ele>827</ele>
        <time>2019-04-02T13:35:35Z</time>
      </trkpt>
      <trkpt lat="44.35664" lon="5.98915">
        <ele>828</ele>
        <time>2019-04-02T13:35:36Z</time>
      </trkpt>
      <trkpt lat="44.35668" lon="5.98911">
        <ele>828</ele>
        <time>2019-04-02T13:35:37Z</time>
      </trkpt>
      <trkpt lat="44.35671" lon="5.98907">
        <ele>828</ele>
        <time>2019-04-02T13:35:38Z</time>
      </trkpt>
      <trkpt lat="44.35675" lon="5.98903">
        <ele>828</ele>
        <time>2019-04-02T13:35:39Z</time>
      </trkpt>
      <trkpt lat="44.35678" lon="5.98899">
        <ele>828</ele>
        <time>2019-04-02T13:35:40Z</time>
      </trkpt>
      <trkpt lat="44.35681" lon="5.98896">
        <ele>828</ele>
        <time>2019-04-02T13:35:41Z</time>
      </trkpt>
      <trkpt lat="44.35684" lon="5.98893">
        <ele>829</ele>
        <time>2019-04-02T13:35:42Z</time>
      </trkpt>
      <trkpt lat="44.35687" lon="5.9889">
        <ele>829</ele>
        <time>2019-04-02T13:35:43Z</time>
      </trkpt>
      <trkpt lat="44.35689" lon="5.98888">
        <ele>829</ele>
        <time>2019-04-02T13:35:44Z</time>
      </trkpt>
      <trkpt lat="44.35691" lon="5.98885">
        <ele>830</ele>
        <time>2019-04-02T13:35:45Z</time>
      </trkpt>
      <trkpt lat="44.35694" lon="5.98881">
        <ele>830</ele>
        <time>2019-04-02T13:35:46Z</time>
      </trkpt>
      <trkpt lat="44.35696" lon="5.98878">
        <ele>830</ele>
        <time>2019-04-02T13:35:47Z</time>
      </trkpt>
      <trkpt lat="44.35699" lon="5.98875">
        <ele>830</ele>
        <time>2019-04-02T13:35:48Z</time>
      </trkpt>
      <trkpt lat="44.35701" lon="5.98872">
        <ele>831</ele>
        <time>2019-04-02T13:35:49Z</time>
      </trkpt>
      <trkpt lat="44.35704" lon="5.98869">
        <ele>831</ele>
        <time>2019-04-02T13:35:50Z</time>
      </trkpt>
      <trkpt lat="44.35706" lon="5.98866">
        <ele>831</ele>
        <time>2019-04-02T13:35:51Z</time>
      </trkpt>
      <trkpt lat="44.35708" lon="5.98863">
        <ele>831</ele>
        <time>2019-04-02T13:35:52Z</time>
      </trkpt>
      <trkpt lat="44.3571" lon="5.98861">
        <ele>832</ele>
        <time>2019-04-02T13:35:53Z</time>
      </trkpt>
      <trkpt lat="44.35712" lon="5.98858">
        <ele>832</ele>
        <time>2019-04-02T13:35:54Z</time>
      </trkpt>
      <trkpt lat="44.35714" lon="5.98855">
        <ele>832</ele>
        <time>2019-04-02T13:35:55Z</time>
      </trkpt>
      <trkpt lat="44.35716" lon="5.98852">
        <ele>832</ele>
        <time>2019-04-02T13:35:56Z</time>
      </trkpt>
      <trkpt lat="44.35718" lon="5.98849">
        <ele>832</ele>
        <time>2019-04-02T13:35:57Z</time>
      </trkpt>
      <trkpt lat="44.3572" lon="5.98846">
        <ele>832</ele>
        <time>2019-04-02T13:35:58Z</time>
      </trkpt>
      <trkpt lat="44.35722" lon="5.98843">
        <ele>833</ele>
        <time>2019-04-02T13:35:59Z</time>
      </trkpt>
      <trkpt lat="44.35723" lon="5.98841">
        <ele>833</ele>
        <time>2019-04-02T13:36:00Z</time>
      </trkpt>
      <trkpt lat="44.35725" lon="5.98838">
        <ele>833</ele>
        <time>2019-04-02T13:36:01Z</time>
      </trkpt>
      <trkpt lat="44.35727" lon="5.98835">
        <ele>833</ele>
        <time>2019-04-02T13:36:02Z</time>
      </trkpt>
      <trkpt lat="44.35729" lon="5.98832">
        <ele>833</ele>
        <time>2019-04-02T13:36:03Z</time>
      </trkpt>
      <trkpt lat="44.3573" lon="5.9883">
        <ele>833</ele>
        <time>2019-04-02T13:36:04Z</time>
      </trkpt>
      <trkpt lat="44.35733" lon="5.98827">
        <ele>833</ele>
        <time>2019-04-02T13:36:05Z</time>
      </trkpt>
      <trkpt lat="44.35735" lon="5.98824">
        <ele>834</ele>
        <time>2019-04-02T13:36:06Z</time>
      </trkpt>
      <trkpt lat="44.35737" lon="5.98821">
        <ele>834</ele>
        <time>2019-04-02T13:36:07Z</time>
      </trkpt>
      <trkpt lat="44.35739" lon="5.98818">
        <ele>834</ele>
        <time>2019-04-02T13:36:08Z</time>
      </trkpt>
      <trkpt lat="44.35742" lon="5.98816">
        <ele>834</ele>
        <time>2019-04-02T13:36:09Z</time>
      </trkpt>
      <trkpt lat="44.35744" lon="5.98813">
        <ele>834</ele>
        <time>2019-04-02T13:36:10Z</time>
      </trkpt>
      <trkpt lat="44.35747" lon="5.9881">
        <ele>834</ele>
        <time>2019-04-02T13:36:11Z</time>
      </trkpt>
      <trkpt lat="44.3575" lon="5.98807">
        <ele>835</ele>
        <time>2019-04-02T13:36:12Z</time>
      </trkpt>
      <trkpt lat="44.35752" lon="5.98805">
        <ele>835</ele>
        <time>2019-04-02T13:36:13Z</time>
      </trkpt>
      <trkpt lat="44.35755" lon="5.98802">
        <ele>836</ele>
        <time>2019-04-02T13:36:14Z</time>
      </trkpt>
      <trkpt lat="44.35758" lon="5.988">
        <ele>836</ele>
        <time>2019-04-02T13:36:15Z</time>
      </trkpt>
      <trkpt lat="44.3576" lon="5.98798">
        <ele>837</ele>
        <time>2019-04-02T13:36:16Z</time>
      </trkpt>
      <trkpt lat="44.35763" lon="5.98796">
        <ele>837</ele>
        <time>2019-04-02T13:36:17Z</time>
      </trkpt>
      <trkpt lat="44.35766" lon="5.98794">
        <ele>838</ele>
        <time>2019-04-02T13:36:18Z</time>
      </trkpt>
      <trkpt lat="44.35769" lon="5.98792">
        <ele>838</ele>
        <time>2019-04-02T13:36:19Z</time>
      </trkpt>
      <trkpt lat="44.35772" lon="5.9879">
        <ele>839</ele>
        <time>2019-04-02T13:36:20Z</time>
      </trkpt>
      <trkpt lat="44.35775" lon="5.98788">
        <ele>839</ele>
        <time>2019-04-02T13:36:21Z</time>
      </trkpt>
      <trkpt lat="44.35778" lon="5.98786">
        <ele>840</ele>
        <time>2019-04-02T13:36:22Z</time>
      </trkpt>
      <trkpt lat="44.35781" lon="5.98784">
        <ele>840</ele>
        <time>2019-04-02T13:36:23Z</time>
      </trkpt>
      <trkpt lat="44.35784" lon="5.98781">
        <ele>840</ele>
        <time>2019-04-02T13:36:24Z</time>
      </trkpt>
      <trkpt lat="44.35788" lon="5.98779">
        <ele>841</ele>
        <time>2019-04-02T13:36:25Z</time>
      </trkpt>
      <trkpt lat="44.35791" lon="5.98777">
        <ele>841</ele>
        <time>2019-04-02T13:36:26Z</time>
      </trkpt>
      <trkpt lat="44.35794" lon="5.98775">
        <ele>841</ele>
        <time>2019-04-02T13:36:27Z</time>
      </trkpt>
      <trkpt lat="44.35797" lon="5.98773">
        <ele>842</ele>
        <time>2019-04-02T13:36:28Z</time>
      </trkpt>
      <trkpt lat="44.358" lon="5.9877">
        <ele>842</ele>
        <time>2019-04-02T13:36:29Z</time>
      </trkpt>
      <trkpt lat="44.35802" lon="5.98768">
        <ele>843</ele>
        <time>2019-04-02T13:36:30Z</time>
      </trkpt>
      <trkpt lat="44.35806" lon="5.98765">
        <ele>843</ele>
        <time>2019-04-02T13:36:31Z</time>
      </trkpt>
      <trkpt lat="44.35808" lon="5.98762">
        <ele>844</ele>
        <time>2019-04-02T13:36:32Z</time>
      </trkpt>
      <trkpt lat="44.35811" lon="5.98759">
        <ele>844</ele>
        <time>2019-04-02T13:36:33Z</time>
      </trkpt>
      <trkpt lat="44.35813" lon="5.98757">
        <ele>844</ele>
        <time>2019-04-02T13:36:34Z</time>
      </trkpt>
      <trkpt lat="44.35815" lon="5.98755">
        <ele>845</ele>
        <time>2019-04-02T13:36:35Z</time>
      </trkpt>
      <trkpt lat="44.35818" lon="5.98752">
        <ele>845</ele>
        <time>2019-04-02T13:36:36Z</time>
      </trkpt>
      <trkpt lat="44.35821" lon="5.9875">
        <ele>845</ele>
        <time>2019-04-02T13:36:37Z</time>
      </trkpt>
      <trkpt lat="44.35823" lon="5.98747">
        <ele>845</ele>
        <time>2019-04-02T13:36:38Z</time>
      </trkpt>
      <trkpt lat="44.35826" lon="5.98745">
        <ele>845</ele>
        <time>2019-04-02T13:36:39Z</time>
      </trkpt>
      <trkpt lat="44.35829" lon="5.98744">
        <ele>846</ele>
        <time>2019-04-02T13:36:40Z</time>
      </trkpt>
      <trkpt lat="44.35833" lon="5.98742">
        <ele>846</ele>
        <time>2019-04-02T13:36:41Z</time>
      </trkpt>
      <trkpt lat="44.35836" lon="5.9874">
        <ele>846</ele>
        <time>2019-04-02T13:36:42Z</time>
      </trkpt>
      <trkpt lat="44.35841" lon="5.98739">
        <ele>846</ele>
        <time>2019-04-02T13:36:43Z</time>
      </trkpt>
      <trkpt lat="44.35845" lon="5.98737">
        <ele>846</ele>
        <time>2019-04-02T13:36:44Z</time>
      </trkpt>
      <trkpt lat="44.35849" lon="5.98735">
        <ele>846</ele>
        <time>2019-04-02T13:36:45Z</time>
      </trkpt>
      <trkpt lat="44.35854" lon="5.98734">
        <ele>846</ele>
        <time>2019-04-02T13:36:46Z</time>
      </trkpt>
      <trkpt lat="44.35859" lon="5.98732">
        <ele>846</ele>
        <time>2019-04-02T13:36:47Z</time>
      </trkpt>
      <trkpt lat="44.35864" lon="5.9873">
        <ele>846</ele>
        <time>2019-04-02T13:36:48Z</time>
      </trkpt>
      <trkpt lat="44.35869" lon="5.98728">
        <ele>846</ele>
        <time>2019-04-02T13:36:49Z</time>
      </trkpt>
      <trkpt lat="44.35875" lon="5.98726">
        <ele>846</ele>
        <time>2019-04-02T13:36:50Z</time>
      </trkpt>
      <trkpt lat="44.35881" lon="5.98724">
        <ele>846</ele>
        <time>2019-04-02T13:36:51Z</time>
      </trkpt>
      <trkpt lat="44.35887" lon="5.98722">
        <ele>846</ele>
        <time>2019-04-02T13:36:52Z</time>
      </trkpt>
      <trkpt lat="44.35894" lon="5.9872">
        <ele>846</ele>
        <time>2019-04-02T13:36:53Z</time>
      </trkpt>
      <trkpt lat="44.359" lon="5.98717">
        <ele>846</ele>
        <time>2019-04-02T13:36:54Z</time>
      </trkpt>
      <trkpt lat="44.35906" lon="5.98714">
        <ele>846</ele>
        <time>2019-04-02T13:36:55Z</time>
      </trkpt>
      <trkpt lat="44.35912" lon="5.98711">
        <ele>846</ele>
        <time>2019-04-02T13:36:56Z</time>
      </trkpt>
      <trkpt lat="44.35919" lon="5.98708">
        <ele>846</ele>
        <time>2019-04-02T13:36:57Z</time>
      </trkpt>
      <trkpt lat="44.35925" lon="5.98705">
        <ele>846</ele>
        <time>2019-04-02T13:36:58Z</time>
      </trkpt>
      <trkpt lat="44.35931" lon="5.98702">
        <ele>846</ele>
        <time>2019-04-02T13:36:59Z</time>
      </trkpt>
      <trkpt lat="44.35938" lon="5.98699">
        <ele>846</ele>
        <time>2019-04-02T13:37:00Z</time>
      </trkpt>
      <trkpt lat="44.35944" lon="5.98696">
        <ele>846</ele>
        <time>2019-04-02T13:37:01Z</time>
      </trkpt>
      <trkpt lat="44.3595" lon="5.98692">
        <ele>846</ele>
        <time>2019-04-02T13:37:02Z</time>
      </trkpt>
      <trkpt lat="44.35957" lon="5.98688">
        <ele>846</ele>
        <time>2019-04-02T13:37:03Z</time>
      </trkpt>
      <trkpt lat="44.35963" lon="5.98684">
        <ele>846</ele>
        <time>2019-04-02T13:37:04Z</time>
      </trkpt>
      <trkpt lat="44.3597" lon="5.98679">
        <ele>846</ele>
        <time>2019-04-02T13:37:05Z</time>
      </trkpt>
      <trkpt lat="44.35976" lon="5.98675">
        <ele>846</ele>
        <time>2019-04-02T13:37:06Z</time>
      </trkpt>
      <trkpt lat="44.35983" lon="5.9867">
        <ele>846</ele>
        <time>2019-04-02T13:37:07Z</time>
      </trkpt>
      <trkpt lat="44.35989" lon="5.98664">
        <ele>846</ele>
        <time>2019-04-02T13:37:08Z</time>
      </trkpt>
      <trkpt lat="44.35994" lon="5.98658">
        <ele>846</ele>
        <time>2019-04-02T13:37:09Z</time>
      </trkpt>
      <trkpt lat="44.35999" lon="5.98651">
        <ele>846</ele>
        <time>2019-04-02T13:37:10Z</time>
      </trkpt>
      <trkpt lat="44.36004" lon="5.98643">
        <ele>846</ele>
        <time>2019-04-02T13:37:11Z</time>
      </trkpt>
      <trkpt lat="44.36009" lon="5.98635">
        <ele>846</ele>
        <time>2019-04-02T13:37:12Z</time>
      </trkpt>
      <trkpt lat="44.36013" lon="5.98626">
        <ele>846</ele>
        <time>2019-04-02T13:37:13Z</time>
      </trkpt>
      <trkpt lat="44.36018" lon="5.98618">
        <ele>846</ele>
        <time>2019-04-02T13:37:14Z</time>
      </trkpt>
      <trkpt lat="44.36022" lon="5.98609">
        <ele>846</ele>
        <time>2019-04-02T13:37:15Z</time>
      </trkpt>
      <trkpt lat="44.36026" lon="5.986">
        <ele>846</ele>
        <time>2019-04-02T13:37:16Z</time>
      </trkpt>
      <trkpt lat="44.36031" lon="5.98592">
        <ele>846</ele>
        <time>2019-04-02T13:37:17Z</time>
      </trkpt>
      <trkpt lat="44.36035" lon="5.98583">
        <ele>846</ele>
        <time>2019-04-02T13:37:18Z</time>
      </trkpt>
      <trkpt lat="44.36039" lon="5.98574">
        <ele>846</ele>
        <time>2019-04-02T13:37:19Z</time>
      </trkpt>
      <trkpt lat="44.36042" lon="5.98565">
        <ele>846</ele>
        <time>2019-04-02T13:37:20Z</time>
      </trkpt>
      <trkpt lat="44.36047" lon="5.98556">
        <ele>846</ele>
        <time>2019-04-02T13:37:21Z</time>
      </trkpt>
      <trkpt lat="44.36051" lon="5.98547">
        <ele>846</ele>
        <time>2019-04-02T13:37:22Z</time>
      </trkpt>
      <trkpt lat="44.36056" lon="5.98538">
        <ele>846</ele>
        <time>2019-04-02T13:37:23Z</time>
      </trkpt>
      <trkpt lat="44.36062" lon="5.9853">
        <ele>845</ele>
        <time>2019-04-02T13:37:24Z</time>
      </trkpt>
      <trkpt lat="44.36069" lon="5.98523">
        <ele>845</ele>
        <time>2019-04-02T13:37:25Z</time>
      </trkpt>
      <trkpt lat="44.36077" lon="5.98518">
        <ele>844</ele>
        <time>2019-04-02T13:37:26Z</time>
      </trkpt>
      <trkpt lat="44.36086" lon="5.98516">
        <ele>843</ele>
        <time>2019-04-02T13:37:27Z</time>
      </trkpt>
      <trkpt lat="44.36095" lon="5.98514">
        <ele>842</ele>
        <time>2019-04-02T13:37:28Z</time>
      </trkpt>
      <trkpt lat="44.36103" lon="5.98511">
        <ele>841</ele>
        <time>2019-04-02T13:37:29Z</time>
      </trkpt>
      <trkpt lat="44.36111" lon="5.98506">
        <ele>841</ele>
        <time>2019-04-02T13:37:30Z</time>
      </trkpt>
      <trkpt lat="44.36117" lon="5.98498">
        <ele>840</ele>
        <time>2019-04-02T13:37:31Z</time>
      </trkpt>
      <trkpt lat="44.36123" lon="5.98488">
        <ele>839</ele>
        <time>2019-04-02T13:37:32Z</time>
      </trkpt>
      <trkpt lat="44.36127" lon="5.98477">
        <ele>839</ele>
        <time>2019-04-02T13:37:33Z</time>
      </trkpt>
      <trkpt lat="44.36132" lon="5.98467">
        <ele>838</ele>
        <time>2019-04-02T13:37:34Z</time>
      </trkpt>
      <trkpt lat="44.36139" lon="5.98458">
        <ele>838</ele>
        <time>2019-04-02T13:37:35Z</time>
      </trkpt>
      <trkpt lat="44.36145" lon="5.98451">
        <ele>838</ele>
        <time>2019-04-02T13:37:36Z</time>
      </trkpt>
      <trkpt lat="44.36151" lon="5.98444">
        <ele>838</ele>
        <time>2019-04-02T13:37:37Z</time>
      </trkpt>
      <trkpt lat="44.36157" lon="5.98438">
        <ele>838</ele>
        <time>2019-04-02T13:37:38Z</time>
      </trkpt>
      <trkpt lat="44.36163" lon="5.98431">
        <ele>838</ele>
        <time>2019-04-02T13:37:39Z</time>
      </trkpt>
      <trkpt lat="44.36168" lon="5.98424">
        <ele>838</ele>
        <time>2019-04-02T13:37:40Z</time>
      </trkpt>
      <trkpt lat="44.36173" lon="5.98418">
        <ele>838</ele>
        <time>2019-04-02T13:37:41Z</time>
      </trkpt>
      <trkpt lat="44.36178" lon="5.98412">
        <ele>838</ele>
        <time>2019-04-02T13:37:42Z</time>
      </trkpt>
      <trkpt lat="44.36182" lon="5.98405">
        <ele>838</ele>
        <time>2019-04-02T13:37:43Z</time>
      </trkpt>
      <trkpt lat="44.36187" lon="5.98399">
        <ele>838</ele>
        <time>2019-04-02T13:37:44Z</time>
      </trkpt>
      <trkpt lat="44.36192" lon="5.98394">
        <ele>838</ele>
        <time>2019-04-02T13:37:45Z</time>
      </trkpt>
      <trkpt lat="44.36197" lon="5.98388">
        <ele>838</ele>
        <time>2019-04-02T13:37:46Z</time>
      </trkpt>
      <trkpt lat="44.36203" lon="5.98385">
        <ele>838</ele>
        <time>2019-04-02T13:37:47Z</time>
      </trkpt>
      <trkpt lat="44.36208" lon="5.98381">
        <ele>838</ele>
        <time>2019-04-02T13:37:48Z</time>
      </trkpt>
      <trkpt lat="44.36214" lon="5.98378">
        <ele>838</ele>
        <time>2019-04-02T13:37:49Z</time>
      </trkpt>
      <trkpt lat="44.36219" lon="5.98376">
        <ele>838</ele>
        <time>2019-04-02T13:37:50Z</time>
      </trkpt>
      <trkpt lat="44.36224" lon="5.98373">
        <ele>838</ele>
        <time>2019-04-02T13:37:51Z</time>
      </trkpt>
      <trkpt lat="44.3623" lon="5.98371">
        <ele>838</ele>
        <time>2019-04-02T13:37:52Z</time>
      </trkpt>
      <trkpt lat="44.36235" lon="5.9837">
        <ele>838</ele>
        <time>2019-04-02T13:37:53Z</time>
      </trkpt>
      <trkpt lat="44.3624" lon="5.98368">
        <ele>839</ele>
        <time>2019-04-02T13:37:54Z</time>
      </trkpt>
      <trkpt lat="44.36245" lon="5.98366">
        <ele>839</ele>
        <time>2019-04-02T13:37:55Z</time>
      </trkpt>
      <trkpt lat="44.36249" lon="5.98364">
        <ele>839</ele>
        <time>2019-04-02T13:37:56Z</time>
      </trkpt>
      <trkpt lat="44.36254" lon="5.98362">
        <ele>839</ele>
        <time>2019-04-02T13:37:57Z</time>
      </trkpt>
      <trkpt lat="44.36259" lon="5.9836">
        <ele>839</ele>
        <time>2019-04-02T13:37:58Z</time>
      </trkpt>
      <trkpt lat="44.36264" lon="5.98358">
        <ele>839</ele>
        <time>2019-04-02T13:37:59Z</time>
      </trkpt>
      <trkpt lat="44.36269" lon="5.98356">
        <ele>839</ele>
        <time>2019-04-02T13:38:00Z</time>
      </trkpt>
      <trkpt lat="44.36274" lon="5.98354">
        <ele>839</ele>
        <time>2019-04-02T13:38:01Z</time>
      </trkpt>
      <trkpt lat="44.36279" lon="5.98352">
        <ele>839</ele>
        <time>2019-04-02T13:38:02Z</time>
      </trkpt>
      <trkpt lat="44.36283" lon="5.9835">
        <ele>839</ele>
        <time>2019-04-02T13:38:03Z</time>
      </trkpt>
      <trkpt lat="44.36289" lon="5.98349">
        <ele>839</ele>
        <time>2019-04-02T13:38:04Z</time>
      </trkpt>
      <trkpt lat="44.36294" lon="5.98348">
        <ele>839</ele>
        <time>2019-04-02T13:38:05Z</time>
      </trkpt>
      <trkpt lat="44.36299" lon="5.98346">
        <ele>839</ele>
        <time>2019-04-02T13:38:06Z</time>
      </trkpt>
      <trkpt lat="44.36303" lon="5.98345">
        <ele>839</ele>
        <time>2019-04-02T13:38:07Z</time>
      </trkpt>
      <trkpt lat="44.36309" lon="5.98345">
        <ele>839</ele>
        <time>2019-04-02T13:38:08Z</time>
      </trkpt>
      <trkpt lat="44.36313" lon="5.98346">
        <ele>839</ele>
        <time>2019-04-02T13:38:09Z</time>
      </trkpt>
      <trkpt lat="44.36318" lon="5.98348">
        <ele>840</ele>
        <time>2019-04-02T13:38:10Z</time>
      </trkpt>
      <trkpt lat="44.36322" lon="5.9835">
        <ele>840</ele>
        <time>2019-04-02T13:38:11Z</time>
      </trkpt>
      <trkpt lat="44.36327" lon="5.98352">
        <ele>840</ele>
        <time>2019-04-02T13:38:12Z</time>
      </trkpt>
      <trkpt lat="44.36331" lon="5.98355">
        <ele>840</ele>
        <time>2019-04-02T13:38:13Z</time>
      </trkpt>
      <trkpt lat="44.36336" lon="5.98357">
        <ele>840</ele>
        <time>2019-04-02T13:38:14Z</time>
      </trkpt>
      <trkpt lat="44.3634" lon="5.9836">
        <ele>841</ele>
        <time>2019-04-02T13:38:15Z</time>
      </trkpt>
      <trkpt lat="44.36343" lon="5.98364">
        <ele>841</ele>
        <time>2019-04-02T13:38:16Z</time>
      </trkpt>
      <trkpt lat="44.36347" lon="5.98367">
        <ele>841</ele>
        <time>2019-04-02T13:38:17Z</time>
      </trkpt>
      <trkpt lat="44.3635" lon="5.98371">
        <ele>841</ele>
        <time>2019-04-02T13:38:18Z</time>
      </trkpt>
      <trkpt lat="44.36353" lon="5.98374">
        <ele>842</ele>
        <time>2019-04-02T13:38:19Z</time>
      </trkpt>
      <trkpt lat="44.36355" lon="5.98377">
        <ele>842</ele>
        <time>2019-04-02T13:38:20Z</time>
      </trkpt>
      <trkpt lat="44.36357" lon="5.9838">
        <ele>842</ele>
        <time>2019-04-02T13:38:21Z</time>
      </trkpt>
      <trkpt lat="44.36359" lon="5.98382">
        <ele>842</ele>
        <time>2019-04-02T13:38:22Z</time>
      </trkpt>
      <trkpt lat="44.36362" lon="5.98385">
        <ele>842</ele>
        <time>2019-04-02T13:38:23Z</time>
      </trkpt>
      <trkpt lat="44.36364" lon="5.98387">
        <ele>842</ele>
        <time>2019-04-02T13:38:24Z</time>
      </trkpt>
      <trkpt lat="44.36367" lon="5.98389">
        <ele>842</ele>
        <time>2019-04-02T13:38:25Z</time>
      </trkpt>
      <trkpt lat="44.36369" lon="5.98392">
        <ele>842</ele>
        <time>2019-04-02T13:38:26Z</time>
      </trkpt>
      <trkpt lat="44.36371" lon="5.98394">
        <ele>842</ele>
        <time>2019-04-02T13:38:27Z</time>
      </trkpt>
      <trkpt lat="44.36374" lon="5.98396">
        <ele>842</ele>
        <time>2019-04-02T13:38:28Z</time>
      </trkpt>
      <trkpt lat="44.36376" lon="5.98398">
        <ele>842</ele>
        <time>2019-04-02T13:38:29Z</time>
      </trkpt>
      <trkpt lat="44.36379" lon="5.984">
        <ele>842</ele>
        <time>2019-04-02T13:38:30Z</time>
      </trkpt>
      <trkpt lat="44.36382" lon="5.98402">
        <ele>843</ele>
        <time>2019-04-02T13:38:31Z</time>
      </trkpt>
      <trkpt lat="44.36384" lon="5.98405">
        <ele>843</ele>
        <time>2019-04-02T13:38:32Z</time>
      </trkpt>
      <trkpt lat="44.36388" lon="5.98407">
        <ele>843</ele>
        <time>2019-04-02T13:38:33Z</time>
      </trkpt>
      <trkpt lat="44.36391" lon="5.98409">
        <ele>843</ele>
        <time>2019-04-02T13:38:34Z</time>
      </trkpt>
      <trkpt lat="44.36394" lon="5.98411">
        <ele>843</ele>
        <time>2019-04-02T13:38:35Z</time>
      </trkpt>
      <trkpt lat="44.36398" lon="5.98413">
        <ele>844</ele>
        <time>2019-04-02T13:38:36Z</time>
      </trkpt>
      <trkpt lat="44.36401" lon="5.98415">
        <ele>844</ele>
        <time>2019-04-02T13:38:37Z</time>
      </trkpt>
      <trkpt lat="44.36405" lon="5.98417">
        <ele>844</ele>
        <time>2019-04-02T13:38:38Z</time>
      </trkpt>
      <trkpt lat="44.36408" lon="5.98418">
        <ele>844</ele>
        <time>2019-04-02T13:38:39Z</time>
      </trkpt>
      <trkpt lat="44.36412" lon="5.98419">
        <ele>844</ele>
        <time>2019-04-02T13:38:40Z</time>
      </trkpt>
      <trkpt lat="44.36416" lon="5.9842">
        <ele>844</ele>
        <time>2019-04-02T13:38:41Z</time>
      </trkpt>
      <trkpt lat="44.36419" lon="5.98422">
        <ele>844</ele>
        <time>2019-04-02T13:38:42Z</time>
      </trkpt>
      <trkpt lat="44.36422" lon="5.98423">
        <ele>844</ele>
        <time>2019-04-02T13:38:43Z</time>
      </trkpt>
      <trkpt lat="44.36425" lon="5.98425">
        <ele>845</ele>
        <time>2019-04-02T13:38:44Z</time>
      </trkpt>
      <trkpt lat="44.36427" lon="5.98427">
        <ele>845</ele>
        <time>2019-04-02T13:38:45Z</time>
      </trkpt>
      <trkpt lat="44.3643" lon="5.98429">
        <ele>845</ele>
        <time>2019-04-02T13:38:46Z</time>
      </trkpt>
      <trkpt lat="44.36433" lon="5.98432">
        <ele>845</ele>
        <time>2019-04-02T13:38:47Z</time>
      </trkpt>
      <trkpt lat="44.36436" lon="5.98435">
        <ele>845</ele>
        <time>2019-04-02T13:38:48Z</time>
      </trkpt>
      <trkpt lat="44.3644" lon="5.9844">
        <ele>845</ele>
        <time>2019-04-02T13:38:49Z</time>
      </trkpt>
      <trkpt lat="44.36443" lon="5.98445">
        <ele>845</ele>
        <time>2019-04-02T13:38:50Z</time>
      </trkpt>
      <trkpt lat="44.36446" lon="5.98451">
        <ele>845</ele>
        <time>2019-04-02T13:38:51Z</time>
      </trkpt>
      <trkpt lat="44.3645" lon="5.98457">
        <ele>845</ele>
        <time>2019-04-02T13:38:52Z</time>
      </trkpt>
      <trkpt lat="44.36455" lon="5.98461">
        <ele>845</ele>
        <time>2019-04-02T13:38:53Z</time>
      </trkpt>
      <trkpt lat="44.3646" lon="5.98464">
        <ele>845</ele>
        <time>2019-04-02T13:38:54Z</time>
      </trkpt>
      <trkpt lat="44.36467" lon="5.98465">
        <ele>845</ele>
        <time>2019-04-02T13:38:55Z</time>
      </trkpt>
      <trkpt lat="44.36473" lon="5.98463">
        <ele>845</ele>
        <time>2019-04-02T13:38:56Z</time>
      </trkpt>
      <trkpt lat="44.36478" lon="5.9846">
        <ele>845</ele>
        <time>2019-04-02T13:38:57Z</time>
      </trkpt>
      <trkpt lat="44.36484" lon="5.98456">
        <ele>845</ele>
        <time>2019-04-02T13:38:58Z</time>
      </trkpt>
      <trkpt lat="44.36489" lon="5.98453">
        <ele>845</ele>
        <time>2019-04-02T13:38:59Z</time>
      </trkpt>
      <trkpt lat="44.36494" lon="5.98449">
        <ele>845</ele>
        <time>2019-04-02T13:39:00Z</time>
      </trkpt>
      <trkpt lat="44.36499" lon="5.98445">
        <ele>845</ele>
        <time>2019-04-02T13:39:01Z</time>
      </trkpt>
      <trkpt lat="44.36503" lon="5.98442">
        <ele>845</ele>
        <time>2019-04-02T13:39:02Z</time>
      </trkpt>
      <trkpt lat="44.36507" lon="5.9844">
        <ele>845</ele>
        <time>2019-04-02T13:39:03Z</time>
      </trkpt>
      <trkpt lat="44.3651" lon="5.98437">
        <ele>845</ele>
        <time>2019-04-02T13:39:04Z</time>
      </trkpt>
      <trkpt lat="44.36514" lon="5.98435">
        <ele>845</ele>
        <time>2019-04-02T13:39:05Z</time>
      </trkpt>
      <trkpt lat="44.36517" lon="5.98432">
        <ele>845</ele>
        <time>2019-04-02T13:39:06Z</time>
      </trkpt>
      <trkpt lat="44.36521" lon="5.98429">
        <ele>845</ele>
        <time>2019-04-02T13:39:07Z</time>
      </trkpt>
      <trkpt lat="44.36524" lon="5.98427">
        <ele>845</ele>
        <time>2019-04-02T13:39:08Z</time>
      </trkpt>
      <trkpt lat="44.36527" lon="5.98423">
        <ele>845</ele>
        <time>2019-04-02T13:39:09Z</time>
      </trkpt>
      <trkpt lat="44.3653" lon="5.98419">
        <ele>846</ele>
        <time>2019-04-02T13:39:10Z</time>
      </trkpt>
      <trkpt lat="44.36533" lon="5.98413">
        <ele>846</ele>
        <time>2019-04-02T13:39:11Z</time>
      </trkpt>
      <trkpt lat="44.36535" lon="5.98408">
        <ele>847</ele>
        <time>2019-04-02T13:39:12Z</time>
      </trkpt>
      <trkpt lat="44.36536" lon="5.98402">
        <ele>847</ele>
        <time>2019-04-02T13:39:13Z</time>
      </trkpt>
      <trkpt lat="44.36538" lon="5.98396">
        <ele>847</ele>
        <time>2019-04-02T13:39:14Z</time>
      </trkpt>
      <trkpt lat="44.36539" lon="5.9839">
        <ele>848</ele>
        <time>2019-04-02T13:39:15Z</time>
      </trkpt>
      <trkpt lat="44.3654" lon="5.98384">
        <ele>848</ele>
        <time>2019-04-02T13:39:16Z</time>
      </trkpt>
      <trkpt lat="44.36541" lon="5.98378">
        <ele>848</ele>
        <time>2019-04-02T13:39:17Z</time>
      </trkpt>
      <trkpt lat="44.36542" lon="5.98371">
        <ele>849</ele>
        <time>2019-04-02T13:39:18Z</time>
      </trkpt>
      <trkpt lat="44.36542" lon="5.98365">
        <ele>849</ele>
        <time>2019-04-02T13:39:19Z</time>
      </trkpt>
      <trkpt lat="44.36543" lon="5.98359">
        <ele>849</ele>
        <time>2019-04-02T13:39:20Z</time>
      </trkpt>
      <trkpt lat="44.36544" lon="5.98353">
        <ele>850</ele>
        <time>2019-04-02T13:39:21Z</time>
      </trkpt>
      <trkpt lat="44.36544" lon="5.98348">
        <ele>850</ele>
        <time>2019-04-02T13:39:22Z</time>
      </trkpt>
      <trkpt lat="44.36546" lon="5.98342">
        <ele>850</ele>
        <time>2019-04-02T13:39:23Z</time>
      </trkpt>
      <trkpt lat="44.36548" lon="5.98337">
        <ele>850</ele>
        <time>2019-04-02T13:39:24Z</time>
      </trkpt>
      <trkpt lat="44.3655" lon="5.98332">
        <ele>851</ele>
        <time>2019-04-02T13:39:25Z</time>
      </trkpt>
      <trkpt lat="44.36552" lon="5.98328">
        <ele>851</ele>
        <time>2019-04-02T13:39:26Z</time>
      </trkpt>
      <trkpt lat="44.36555" lon="5.98323">
        <ele>851</ele>
        <time>2019-04-02T13:39:27Z</time>
      </trkpt>
      <trkpt lat="44.36557" lon="5.98319">
        <ele>851</ele>
        <time>2019-04-02T13:39:28Z</time>
      </trkpt>
      <trkpt lat="44.36559" lon="5.98314">
        <ele>851</ele>
        <time>2019-04-02T13:39:29Z</time>
      </trkpt>
      <trkpt lat="44.36561" lon="5.9831">
        <ele>851</ele>
        <time>2019-04-02T13:39:30Z</time>
      </trkpt>
      <trkpt lat="44.36563" lon="5.98305">
        <ele>851</ele>
        <time>2019-04-02T13:39:31Z</time>
      </trkpt>
      <trkpt lat="44.36565" lon="5.983">
        <ele>851</ele>
        <time>2019-04-02T13:39:32Z</time>
      </trkpt>
      <trkpt lat="44.36568" lon="5.98295">
        <ele>851</ele>
        <time>2019-04-02T13:39:33Z</time>
      </trkpt>
      <trkpt lat="44.36569" lon="5.9829">
        <ele>852</ele>
        <time>2019-04-02T13:39:34Z</time>
      </trkpt>
      <trkpt lat="44.3657" lon="5.98284">
        <ele>852</ele>
        <time>2019-04-02T13:39:35Z</time>
      </trkpt>
      <trkpt lat="44.36571" lon="5.98279">
        <ele>852</ele>
        <time>2019-04-02T13:39:36Z</time>
      </trkpt>
      <trkpt lat="44.36573" lon="5.98273">
        <ele>852</ele>
        <time>2019-04-02T13:39:37Z</time>
      </trkpt>
      <trkpt lat="44.36574" lon="5.98267">
        <ele>852</ele>
        <time>2019-04-02T13:39:38Z</time>
      </trkpt>
      <trkpt lat="44.36575" lon="5.98261">
        <ele>852</ele>
        <time>2019-04-02T13:39:39Z</time>
      </trkpt>
      <trkpt lat="44.36576" lon="5.98256">
        <ele>852</ele>
        <time>2019-04-02T13:39:40Z</time>
      </trkpt>
      <trkpt lat="44.36578" lon="5.9825">
        <ele>852</ele>
        <time>2019-04-02T13:39:41Z</time>
      </trkpt>
      <trkpt lat="44.3658" lon="5.98245">
        <ele>852</ele>
        <time>2019-04-02T13:39:42Z</time>
      </trkpt>
      <trkpt lat="44.36583" lon="5.98241">
        <ele>852</ele>
        <time>2019-04-02T13:39:43Z</time>
      </trkpt>
      <trkpt lat="44.36587" lon="5.98237">
        <ele>852</ele>
        <time>2019-04-02T13:39:44Z</time>
      </trkpt>
      <trkpt lat="44.36591" lon="5.98234">
        <ele>852</ele>
        <time>2019-04-02T13:39:45Z</time>
      </trkpt>
      <trkpt lat="44.36596" lon="5.98233">
        <ele>852</ele>
        <time>2019-04-02T13:39:46Z</time>
      </trkpt>
      <trkpt lat="44.36601" lon="5.98232">
        <ele>852</ele>
        <time>2019-04-02T13:39:47Z</time>
      </trkpt>
      <trkpt lat="44.36607" lon="5.98232">
        <ele>852</ele>
        <time>2019-04-02T13:39:48Z</time>
      </trkpt>
      <trkpt lat="44.36612" lon="5.98233">
        <ele>852</ele>
        <time>2019-04-02T13:39:49Z</time>
      </trkpt>
      <trkpt lat="44.36618" lon="5.98235">
        <ele>852</ele>
        <time>2019-04-02T13:39:50Z</time>
      </trkpt>
      <trkpt lat="44.36625" lon="5.98237">
        <ele>852</ele>
        <time>2019-04-02T13:39:51Z</time>
      </trkpt>
      <trkpt lat="44.36632" lon="5.98239">
        <ele>852</ele>
        <time>2019-04-02T13:39:52Z</time>
      </trkpt>
      <trkpt lat="44.36639" lon="5.9824">
        <ele>852</ele>
        <time>2019-04-02T13:39:53Z</time>
      </trkpt>
      <trkpt lat="44.36646" lon="5.98241">
        <ele>852</ele>
        <time>2019-04-02T13:39:54Z</time>
      </trkpt>
      <trkpt lat="44.36653" lon="5.9824">
        <ele>852</ele>
        <time>2019-04-02T13:39:55Z</time>
      </trkpt>
      <trkpt lat="44.3666" lon="5.98235">
        <ele>852</ele>
        <time>2019-04-02T13:39:56Z</time>
      </trkpt>
      <trkpt lat="44.36665" lon="5.98228">
        <ele>852</ele>
        <time>2019-04-02T13:39:57Z</time>
      </trkpt>
      <trkpt lat="44.36669" lon="5.9822">
        <ele>852</ele>
        <time>2019-04-02T13:39:58Z</time>
      </trkpt>
      <trkpt lat="44.36672" lon="5.98211">
        <ele>852</ele>
        <time>2019-04-02T13:39:59Z</time>
      </trkpt>
      <trkpt lat="44.36674" lon="5.98202">
        <ele>852</ele>
        <time>2019-04-02T13:40:00Z</time>
      </trkpt>
      <trkpt lat="44.36675" lon="5.98193">
        <ele>852</ele>
        <time>2019-04-02T13:40:01Z</time>
      </trkpt>
      <trkpt lat="44.36675" lon="5.98182">
        <ele>852</ele>
        <time>2019-04-02T13:40:02Z</time>
      </trkpt>
      <trkpt lat="44.36676" lon="5.98172">
        <ele>852</ele>
        <time>2019-04-02T13:40:03Z</time>
      </trkpt>
      <trkpt lat="44.36676" lon="5.9816">
        <ele>852</ele>
        <time>2019-04-02T13:40:04Z</time>
      </trkpt>
      <trkpt lat="44.36677" lon="5.98149">
        <ele>852</ele>
        <time>2019-04-02T13:40:05Z</time>
      </trkpt>
      <trkpt lat="44.36677" lon="5.98137">
        <ele>851</ele>
        <time>2019-04-02T13:40:06Z</time>
      </trkpt>
      <trkpt lat="44.36678" lon="5.98124">
        <ele>851</ele>
        <time>2019-04-02T13:40:07Z</time>
      </trkpt>
      <trkpt lat="44.36678" lon="5.98111">
        <ele>850</ele>
        <time>2019-04-02T13:40:08Z</time>
      </trkpt>
      <trkpt lat="44.36678" lon="5.98098">
        <ele>849</ele>
        <time>2019-04-02T13:40:09Z</time>
      </trkpt>
      <trkpt lat="44.36678" lon="5.98084">
        <ele>849</ele>
        <time>2019-04-02T13:40:10Z</time>
      </trkpt>
      <trkpt lat="44.36678" lon="5.9807">
        <ele>848</ele>
        <time>2019-04-02T13:40:11Z</time>
      </trkpt>
      <trkpt lat="44.36678" lon="5.98055">
        <ele>848</ele>
        <time>2019-04-02T13:40:12Z</time>
      </trkpt>
      <trkpt lat="44.36678" lon="5.98041">
        <ele>847</ele>
        <time>2019-04-02T13:40:13Z</time>
      </trkpt>
      <trkpt lat="44.36678" lon="5.98028">
        <ele>846</ele>
        <time>2019-04-02T13:40:14Z</time>
      </trkpt>
      <trkpt lat="44.36678" lon="5.98016">
        <ele>845</ele>
        <time>2019-04-02T13:40:15Z</time>
      </trkpt>
      <trkpt lat="44.36679" lon="5.98004">
        <ele>845</ele>
        <time>2019-04-02T13:40:16Z</time>
      </trkpt>
      <trkpt lat="44.36679" lon="5.97992">
        <ele>844</ele>
        <time>2019-04-02T13:40:17Z</time>
      </trkpt>
      <trkpt lat="44.36677" lon="5.9798">
        <ele>843</ele>
        <time>2019-04-02T13:40:18Z</time>
      </trkpt>
      <trkpt lat="44.36674" lon="5.97968">
        <ele>842</ele>
        <time>2019-04-02T13:40:19Z</time>
      </trkpt>
      <trkpt lat="44.36669" lon="5.97957">
        <ele>841</ele>
        <time>2019-04-02T13:40:20Z</time>
      </trkpt>
      <trkpt lat="44.36663" lon="5.97945">
        <ele>841</ele>
        <time>2019-04-02T13:40:21Z</time>
      </trkpt>
      <trkpt lat="44.36656" lon="5.97935">
        <ele>840</ele>
        <time>2019-04-02T13:40:22Z</time>
      </trkpt>
      <trkpt lat="44.36649" lon="5.97924">
        <ele>839</ele>
        <time>2019-04-02T13:40:23Z</time>
      </trkpt>
      <trkpt lat="44.36642" lon="5.97913">
        <ele>838</ele>
        <time>2019-04-02T13:40:24Z</time>
      </trkpt>
      <trkpt lat="44.36636" lon="5.97901">
        <ele>837</ele>
        <time>2019-04-02T13:40:25Z</time>
      </trkpt>
      <trkpt lat="44.3663" lon="5.9789">
        <ele>836</ele>
        <time>2019-04-02T13:40:26Z</time>
      </trkpt>
      <trkpt lat="44.36624" lon="5.9788">
        <ele>835</ele>
        <time>2019-04-02T13:40:27Z</time>
      </trkpt>
      <trkpt lat="44.3662" lon="5.97869">
        <ele>834</ele>
        <time>2019-04-02T13:40:28Z</time>
      </trkpt>
      <trkpt lat="44.36615" lon="5.97859">
        <ele>833</ele>
        <time>2019-04-02T13:40:29Z</time>
      </trkpt>
      <trkpt lat="44.36612" lon="5.97849">
        <ele>832</ele>
        <time>2019-04-02T13:40:30Z</time>
      </trkpt>
      <trkpt lat="44.36608" lon="5.97839">
        <ele>831</ele>
        <time>2019-04-02T13:40:31Z</time>
      </trkpt>
      <trkpt lat="44.36604" lon="5.97828">
        <ele>830</ele>
        <time>2019-04-02T13:40:32Z</time>
      </trkpt>
      <trkpt lat="44.36599" lon="5.97819">
        <ele>829</ele>
        <time>2019-04-02T13:40:33Z</time>
      </trkpt>
      <trkpt lat="44.36594" lon="5.97812">
        <ele>829</ele>
        <time>2019-04-02T13:40:34Z</time>
      </trkpt>
      <trkpt lat="44.36589" lon="5.97804">
        <ele>828</ele>
        <time>2019-04-02T13:40:35Z</time>
      </trkpt>
      <trkpt lat="44.36586" lon="5.97798">
        <ele>828</ele>
        <time>2019-04-02T13:40:36Z</time>
      </trkpt>
      <trkpt lat="44.36585" lon="5.97791">
        <ele>827</ele>
        <time>2019-04-02T13:40:37Z</time>
      </trkpt>
      <trkpt lat="44.36587" lon="5.97786">
        <ele>827</ele>
        <time>2019-04-02T13:40:38Z</time>
      </trkpt>
      <trkpt lat="44.36592" lon="5.97784">
        <ele>826</ele>
        <time>2019-04-02T13:40:39Z</time>
      </trkpt>
      <trkpt lat="44.36597" lon="5.97786">
        <ele>826</ele>
        <time>2019-04-02T13:40:40Z</time>
      </trkpt>
      <trkpt lat="44.36602" lon="5.97791">
        <ele>825</ele>
        <time>2019-04-02T13:40:41Z</time>
      </trkpt>
      <trkpt lat="44.36606" lon="5.97798">
        <ele>825</ele>
        <time>2019-04-02T13:40:42Z</time>
      </trkpt>
      <trkpt lat="44.36609" lon="5.97806">
        <ele>824</ele>
        <time>2019-04-02T13:40:43Z</time>
      </trkpt>
      <trkpt lat="44.36613" lon="5.97813">
        <ele>824</ele>
        <time>2019-04-02T13:40:44Z</time>
      </trkpt>
      <trkpt lat="44.36617" lon="5.9782">
        <ele>824</ele>
        <time>2019-04-02T13:40:45Z</time>
      </trkpt>
      <trkpt lat="44.36623" lon="5.97826">
        <ele>824</ele>
        <time>2019-04-02T13:40:46Z</time>
      </trkpt>
      <trkpt lat="44.36628" lon="5.97832">
        <ele>823</ele>
        <time>2019-04-02T13:40:47Z</time>
      </trkpt>
      <trkpt lat="44.36635" lon="5.97835">
        <ele>823</ele>
        <time>2019-04-02T13:40:48Z</time>
      </trkpt>
      <trkpt lat="44.36641" lon="5.97835">
        <ele>823</ele>
        <time>2019-04-02T13:40:49Z</time>
      </trkpt>
      <trkpt lat="44.36646" lon="5.9783">
        <ele>823</ele>
        <time>2019-04-02T13:40:50Z</time>
      </trkpt>
      <trkpt lat="44.3665" lon="5.97823">
        <ele>822</ele>
        <time>2019-04-02T13:40:51Z</time>
      </trkpt>
      <trkpt lat="44.36652" lon="5.97815">
        <ele>822</ele>
        <time>2019-04-02T13:40:52Z</time>
      </trkpt>
      <trkpt lat="44.3665" lon="5.97807">
        <ele>821</ele>
        <time>2019-04-02T13:40:53Z</time>
      </trkpt>
      <trkpt lat="44.36644" lon="5.97799">
        <ele>821</ele>
        <time>2019-04-02T13:40:54Z</time>
      </trkpt>
      <trkpt lat="44.36637" lon="5.97793">
        <ele>820</ele>
        <time>2019-04-02T13:40:55Z</time>
      </trkpt>
      <trkpt lat="44.36631" lon="5.97787">
        <ele>820</ele>
        <time>2019-04-02T13:40:56Z</time>
      </trkpt>
      <trkpt lat="44.36624" lon="5.97781">
        <ele>819</ele>
        <time>2019-04-02T13:40:57Z</time>
      </trkpt>
      <trkpt lat="44.36617" lon="5.97774">
        <ele>818</ele>
        <time>2019-04-02T13:40:58Z</time>
      </trkpt>
      <trkpt lat="44.3661" lon="5.97768">
        <ele>818</ele>
        <time>2019-04-02T13:40:59Z</time>
      </trkpt>
      <trkpt lat="44.36604" lon="5.97762">
        <ele>817</ele>
        <time>2019-04-02T13:41:00Z</time>
      </trkpt>
      <trkpt lat="44.366" lon="5.97755">
        <ele>816</ele>
        <time>2019-04-02T13:41:01Z</time>
      </trkpt>
      <trkpt lat="44.36598" lon="5.97747">
        <ele>816</ele>
        <time>2019-04-02T13:41:02Z</time>
      </trkpt>
      <trkpt lat="44.36599" lon="5.97739">
        <ele>815</ele>
        <time>2019-04-02T13:41:03Z</time>
      </trkpt>
      <trkpt lat="44.36604" lon="5.97734">
        <ele>814</ele>
        <time>2019-04-02T13:41:04Z</time>
      </trkpt>
      <trkpt lat="44.36611" lon="5.97734">
        <ele>813</ele>
        <time>2019-04-02T13:41:05Z</time>
      </trkpt>
      <trkpt lat="44.36618" lon="5.97736">
        <ele>812</ele>
        <time>2019-04-02T13:41:06Z</time>
      </trkpt>
      <trkpt lat="44.36626" lon="5.97738">
        <ele>812</ele>
        <time>2019-04-02T13:41:07Z</time>
      </trkpt>
      <trkpt lat="44.36633" lon="5.9774">
        <ele>812</ele>
        <time>2019-04-02T13:41:08Z</time>
      </trkpt>
      <trkpt lat="44.36639" lon="5.97741">
        <ele>812</ele>
        <time>2019-04-02T13:41:09Z</time>
      </trkpt>
      <trkpt lat="44.36645" lon="5.97743">
        <ele>812</ele>
        <time>2019-04-02T13:41:10Z</time>
      </trkpt>
      <trkpt lat="44.36651" lon="5.97746">
        <ele>812</ele>
        <time>2019-04-02T13:41:11Z</time>
      </trkpt>
      <trkpt lat="44.36657" lon="5.9775">
        <ele>812</ele>
        <time>2019-04-02T13:41:12Z</time>
      </trkpt>
      <trkpt lat="44.36663" lon="5.97754">
        <ele>812</ele>
        <time>2019-04-02T13:41:13Z</time>
      </trkpt>
      <trkpt lat="44.36668" lon="5.97759">
        <ele>812</ele>
        <time>2019-04-02T13:41:14Z</time>
      </trkpt>
      <trkpt lat="44.36674" lon="5.97765">
        <ele>812</ele>
        <time>2019-04-02T13:41:15Z</time>
      </trkpt>
      <trkpt lat="44.3668" lon="5.97771">
        <ele>811</ele>
        <time>2019-04-02T13:41:16Z</time>
      </trkpt>
      <trkpt lat="44.36686" lon="5.97776">
        <ele>811</ele>
        <time>2019-04-02T13:41:17Z</time>
      </trkpt>
      <trkpt lat="44.36692" lon="5.97779">
        <ele>811</ele>
        <time>2019-04-02T13:41:18Z</time>
      </trkpt>
      <trkpt lat="44.36699" lon="5.97778">
        <ele>811</ele>
        <time>2019-04-02T13:41:19Z</time>
      </trkpt>
      <trkpt lat="44.36705" lon="5.97774">
        <ele>810</ele>
        <time>2019-04-02T13:41:20Z</time>
      </trkpt>
      <trkpt lat="44.36709" lon="5.97765">
        <ele>810</ele>
        <time>2019-04-02T13:41:21Z</time>
      </trkpt>
      <trkpt lat="44.36711" lon="5.97755">
        <ele>810</ele>
        <time>2019-04-02T13:41:22Z</time>
      </trkpt>
      <trkpt lat="44.36712" lon="5.97746">
        <ele>810</ele>
        <time>2019-04-02T13:41:23Z</time>
      </trkpt>
      <trkpt lat="44.36711" lon="5.97736">
        <ele>810</ele>
        <time>2019-04-02T13:41:24Z</time>
      </trkpt>
      <trkpt lat="44.3671" lon="5.97726">
        <ele>810</ele>
        <time>2019-04-02T13:41:25Z</time>
      </trkpt>
      <trkpt lat="44.36708" lon="5.97715">
        <ele>809</ele>
        <time>2019-04-02T13:41:26Z</time>
      </trkpt>
      <trkpt lat="44.36706" lon="5.97704">
        <ele>809</ele>
        <time>2019-04-02T13:41:27Z</time>
      </trkpt>
      <trkpt lat="44.36703" lon="5.97692">
        <ele>809</ele>
        <time>2019-04-02T13:41:28Z</time>
      </trkpt>
      <trkpt lat="44.36701" lon="5.9768">
        <ele>808</ele>
        <time>2019-04-02T13:41:29Z</time>
      </trkpt>
      <trkpt lat="44.36699" lon="5.97667">
        <ele>807</ele>
        <time>2019-04-02T13:41:30Z</time>
      </trkpt>
      <trkpt lat="44.36698" lon="5.97653">
        <ele>806</ele>
        <time>2019-04-02T13:41:31Z</time>
      </trkpt>
      <trkpt lat="44.36697" lon="5.97638">
        <ele>806</ele>
        <time>2019-04-02T13:41:32Z</time>
      </trkpt>
      <trkpt lat="44.36697" lon="5.97623">
        <ele>805</ele>
        <time>2019-04-02T13:41:33Z</time>
      </trkpt>
      <trkpt lat="44.36697" lon="5.97608">
        <ele>804</ele>
        <time>2019-04-02T13:41:34Z</time>
      </trkpt>
      <trkpt lat="44.36697" lon="5.97592">
        <ele>803</ele>
        <time>2019-04-02T13:41:35Z</time>
      </trkpt>
      <trkpt lat="44.36697" lon="5.97577">
        <ele>802</ele>
        <time>2019-04-02T13:41:36Z</time>
      </trkpt>
      <trkpt lat="44.36697" lon="5.9756">
        <ele>801</ele>
        <time>2019-04-02T13:41:37Z</time>
      </trkpt>
      <trkpt lat="44.36697" lon="5.97544">
        <ele>800</ele>
        <time>2019-04-02T13:41:38Z</time>
      </trkpt>
      <trkpt lat="44.36697" lon="5.97527">
        <ele>799</ele>
        <time>2019-04-02T13:41:39Z</time>
      </trkpt>
      <trkpt lat="44.36697" lon="5.9751">
        <ele>798</ele>
        <time>2019-04-02T13:41:40Z</time>
      </trkpt>
      <trkpt lat="44.36697" lon="5.97493">
        <ele>797</ele>
        <time>2019-04-02T13:41:41Z</time>
      </trkpt>
      <trkpt lat="44.36697" lon="5.97475">
        <ele>796</ele>
        <time>2019-04-02T13:41:42Z</time>
      </trkpt>
      <trkpt lat="44.36696" lon="5.97458">
        <ele>795</ele>
        <time>2019-04-02T13:41:43Z</time>
      </trkpt>
      <trkpt lat="44.36697" lon="5.9744">
        <ele>795</ele>
        <time>2019-04-02T13:41:44Z</time>
      </trkpt>
      <trkpt lat="44.36697" lon="5.97423">
        <ele>794</ele>
        <time>2019-04-02T13:41:45Z</time>
      </trkpt>
      <trkpt lat="44.36696" lon="5.97404">
        <ele>793</ele>
        <time>2019-04-02T13:41:46Z</time>
      </trkpt>
      <trkpt lat="44.36695" lon="5.97387">
        <ele>792</ele>
        <time>2019-04-02T13:41:47Z</time>
      </trkpt>
      <trkpt lat="44.36694" lon="5.97368">
        <ele>791</ele>
        <time>2019-04-02T13:41:48Z</time>
      </trkpt>
      <trkpt lat="44.36692" lon="5.9735">
        <ele>790</ele>
        <time>2019-04-02T13:41:49Z</time>
      </trkpt>
      <trkpt lat="44.36689" lon="5.97332">
        <ele>789</ele>
        <time>2019-04-02T13:41:50Z</time>
      </trkpt>
      <trkpt lat="44.36686" lon="5.97314">
        <ele>788</ele>
        <time>2019-04-02T13:41:51Z</time>
      </trkpt>
      <trkpt lat="44.36683" lon="5.97295">
        <ele>787</ele>
        <time>2019-04-02T13:41:52Z</time>
      </trkpt>
      <trkpt lat="44.36679" lon="5.97277">
        <ele>786</ele>
        <time>2019-04-02T13:41:53Z</time>
      </trkpt>
      <trkpt lat="44.36676" lon="5.9726">
        <ele>785</ele>
        <time>2019-04-02T13:41:54Z</time>
      </trkpt>
      <trkpt lat="44.36672" lon="5.97242">
        <ele>784</ele>
        <time>2019-04-02T13:41:55Z</time>
      </trkpt>
      <trkpt lat="44.36669" lon="5.97225">
        <ele>783</ele>
        <time>2019-04-02T13:41:56Z</time>
      </trkpt>
      <trkpt lat="44.36666" lon="5.97208">
        <ele>782</ele>
        <time>2019-04-02T13:41:57Z</time>
      </trkpt>
      <trkpt lat="44.36663" lon="5.97191">
        <ele>781</ele>
        <time>2019-04-02T13:41:58Z</time>
      </trkpt>
      <trkpt lat="44.3666" lon="5.97175">
        <ele>781</ele>
        <time>2019-04-02T13:41:59Z</time>
      </trkpt>
      <trkpt lat="44.36657" lon="5.97159">
        <ele>781</ele>
        <time>2019-04-02T13:42:00Z</time>
      </trkpt>
      <trkpt lat="44.36655" lon="5.97143">
        <ele>780</ele>
        <time>2019-04-02T13:42:01Z</time>
      </trkpt>
      <trkpt lat="44.36652" lon="5.97128">
        <ele>780</ele>
        <time>2019-04-02T13:42:02Z</time>
      </trkpt>
      <trkpt lat="44.36649" lon="5.97113">
        <ele>780</ele>
        <time>2019-04-02T13:42:03Z</time>
      </trkpt>
      <trkpt lat="44.36647" lon="5.97099">
        <ele>780</ele>
        <time>2019-04-02T13:42:04Z</time>
      </trkpt>
      <trkpt lat="44.36644" lon="5.97085">
        <ele>780</ele>
        <time>2019-04-02T13:42:05Z</time>
      </trkpt>
      <trkpt lat="44.36641" lon="5.97072">
        <ele>779</ele>
        <time>2019-04-02T13:42:06Z</time>
      </trkpt>
      <trkpt lat="44.36638" lon="5.97058">
        <ele>779</ele>
        <time>2019-04-02T13:42:07Z</time>
      </trkpt>
      <trkpt lat="44.36635" lon="5.97046">
        <ele>779</ele>
        <time>2019-04-02T13:42:08Z</time>
      </trkpt>
      <trkpt lat="44.36632" lon="5.97032">
        <ele>779</ele>
        <time>2019-04-02T13:42:09Z</time>
      </trkpt>
      <trkpt lat="44.36629" lon="5.9702">
        <ele>779</ele>
        <time>2019-04-02T13:42:10Z</time>
      </trkpt>
      <trkpt lat="44.36628" lon="5.97007">
        <ele>779</ele>
        <time>2019-04-02T13:42:11Z</time>
      </trkpt>
      <trkpt lat="44.36626" lon="5.96995">
        <ele>779</ele>
        <time>2019-04-02T13:42:12Z</time>
      </trkpt>
      <trkpt lat="44.36625" lon="5.96983">
        <ele>779</ele>
        <time>2019-04-02T13:42:13Z</time>
      </trkpt>
      <trkpt lat="44.36624" lon="5.96971">
        <ele>779</ele>
        <time>2019-04-02T13:42:14Z</time>
      </trkpt>
      <trkpt lat="44.36623" lon="5.9696">
        <ele>779</ele>
        <time>2019-04-02T13:42:15Z</time>
      </trkpt>
      <trkpt lat="44.36623" lon="5.96949">
        <ele>778</ele>
        <time>2019-04-02T13:42:16Z</time>
      </trkpt>
      <trkpt lat="44.36622" lon="5.96938">
        <ele>778</ele>
        <time>2019-04-02T13:42:17Z</time>
      </trkpt>
      <trkpt lat="44.36621" lon="5.96926">
        <ele>778</ele>
        <time>2019-04-02T13:42:18Z</time>
      </trkpt>
      <trkpt lat="44.3662" lon="5.96915">
        <ele>778</ele>
        <time>2019-04-02T13:42:19Z</time>
      </trkpt>
      <trkpt lat="44.36618" lon="5.96904">
        <ele>777</ele>
        <time>2019-04-02T13:42:20Z</time>
      </trkpt>
      <trkpt lat="44.36617" lon="5.96893">
        <ele>777</ele>
        <time>2019-04-02T13:42:21Z</time>
      </trkpt>
      <trkpt lat="44.36615" lon="5.96882">
        <ele>777</ele>
        <time>2019-04-02T13:42:22Z</time>
      </trkpt>
      <trkpt lat="44.36614" lon="5.9687">
        <ele>776</ele>
        <time>2019-04-02T13:42:23Z</time>
      </trkpt>
      <trkpt lat="44.36613" lon="5.96859">
        <ele>776</ele>
        <time>2019-04-02T13:42:24Z</time>
      </trkpt>
      <trkpt lat="44.36612" lon="5.96847">
        <ele>775</ele>
        <time>2019-04-02T13:42:25Z</time>
      </trkpt>
      <trkpt lat="44.3661" lon="5.96835">
        <ele>775</ele>
        <time>2019-04-02T13:42:26Z</time>
      </trkpt>
      <trkpt lat="44.36609" lon="5.96823">
        <ele>774</ele>
        <time>2019-04-02T13:42:27Z</time>
      </trkpt>
      <trkpt lat="44.36608" lon="5.96811">
        <ele>774</ele>
        <time>2019-04-02T13:42:28Z</time>
      </trkpt>
      <trkpt lat="44.36607" lon="5.96799">
        <ele>774</ele>
        <time>2019-04-02T13:42:29Z</time>
      </trkpt>
      <trkpt lat="44.36605" lon="5.96786">
        <ele>773</ele>
        <time>2019-04-02T13:42:30Z</time>
      </trkpt>
      <trkpt lat="44.36604" lon="5.96774">
        <ele>773</ele>
        <time>2019-04-02T13:42:31Z</time>
      </trkpt>
      <trkpt lat="44.36603" lon="5.96763">
        <ele>773</ele>
        <time>2019-04-02T13:42:32Z</time>
      </trkpt>
      <trkpt lat="44.36602" lon="5.9675">
        <ele>773</ele>
        <time>2019-04-02T13:42:33Z</time>
      </trkpt>
      <trkpt lat="44.366" lon="5.96738">
        <ele>772</ele>
        <time>2019-04-02T13:42:34Z</time>
      </trkpt>
      <trkpt lat="44.36599" lon="5.96726">
        <ele>772</ele>
        <time>2019-04-02T13:42:35Z</time>
      </trkpt>
      <trkpt lat="44.36598" lon="5.96714">
        <ele>772</ele>
        <time>2019-04-02T13:42:36Z</time>
      </trkpt>
      <trkpt lat="44.36597" lon="5.96702">
        <ele>772</ele>
        <time>2019-04-02T13:42:37Z</time>
      </trkpt>
      <trkpt lat="44.36596" lon="5.9669">
        <ele>772</ele>
        <time>2019-04-02T13:42:38Z</time>
      </trkpt>
      <trkpt lat="44.36595" lon="5.96678">
        <ele>772</ele>
        <time>2019-04-02T13:42:39Z</time>
      </trkpt>
      <trkpt lat="44.36593" lon="5.96666">
        <ele>772</ele>
        <time>2019-04-02T13:42:40Z</time>
      </trkpt>
      <trkpt lat="44.36592" lon="5.96654">
        <ele>772</ele>
        <time>2019-04-02T13:42:41Z</time>
      </trkpt>
      <trkpt lat="44.36591" lon="5.96643">
        <ele>772</ele>
        <time>2019-04-02T13:42:42Z</time>
      </trkpt>
      <trkpt lat="44.3659" lon="5.96631">
        <ele>772</ele>
        <time>2019-04-02T13:42:43Z</time>
      </trkpt>
      <trkpt lat="44.36589" lon="5.96621">
        <ele>772</ele>
        <time>2019-04-02T13:42:44Z</time>
      </trkpt>
      <trkpt lat="44.36588" lon="5.9661">
        <ele>772</ele>
        <time>2019-04-02T13:42:45Z</time>
      </trkpt>
      <trkpt lat="44.36587" lon="5.966">
        <ele>772</ele>
        <time>2019-04-02T13:42:46Z</time>
      </trkpt>
      <trkpt lat="44.36586" lon="5.9659">
        <ele>772</ele>
        <time>2019-04-02T13:42:47Z</time>
      </trkpt>
      <trkpt lat="44.36586" lon="5.96581">
        <ele>772</ele>
        <time>2019-04-02T13:42:48Z</time>
      </trkpt>
      <trkpt lat="44.36586" lon="5.96572">
        <ele>772</ele>
        <time>2019-04-02T13:42:49Z</time>
      </trkpt>
      <trkpt lat="44.36586" lon="5.96563">
        <ele>772</ele>
        <time>2019-04-02T13:42:50Z</time>
      </trkpt>
      <trkpt lat="44.36588" lon="5.96555">
        <ele>772</ele>
        <time>2019-04-02T13:42:51Z</time>
      </trkpt>
      <trkpt lat="44.36589" lon="5.96547">
        <ele>772</ele>
        <time>2019-04-02T13:42:52Z</time>
      </trkpt>
      <trkpt lat="44.36591" lon="5.96538">
        <ele>772</ele>
        <time>2019-04-02T13:42:53Z</time>
      </trkpt>
      <trkpt lat="44.36591" lon="5.96529">
        <ele>772</ele>
        <time>2019-04-02T13:42:54Z</time>
      </trkpt>
      <trkpt lat="44.3659" lon="5.96519">
        <ele>772</ele>
        <time>2019-04-02T13:42:55Z</time>
      </trkpt>
      <trkpt lat="44.36589" lon="5.96509">
        <ele>772</ele>
        <time>2019-04-02T13:42:56Z</time>
      </trkpt>
      <trkpt lat="44.36587" lon="5.96498">
        <ele>772</ele>
        <time>2019-04-02T13:42:57Z</time>
      </trkpt>
      <trkpt lat="44.36585" lon="5.96486">
        <ele>772</ele>
        <time>2019-04-02T13:42:58Z</time>
      </trkpt>
      <trkpt lat="44.36583" lon="5.96474">
        <ele>772</ele>
        <time>2019-04-02T13:42:59Z</time>
      </trkpt>
      <trkpt lat="44.36581" lon="5.9646">
        <ele>772</ele>
        <time>2019-04-02T13:43:00Z</time>
      </trkpt>
      <trkpt lat="44.36578" lon="5.96447">
        <ele>771</ele>
        <time>2019-04-02T13:43:01Z</time>
      </trkpt>
      <trkpt lat="44.36575" lon="5.96433">
        <ele>770</ele>
        <time>2019-04-02T13:43:02Z</time>
      </trkpt>
      <trkpt lat="44.36573" lon="5.96421">
        <ele>769</ele>
        <time>2019-04-02T13:43:03Z</time>
      </trkpt>
      <trkpt lat="44.3657" lon="5.96411">
        <ele>768</ele>
        <time>2019-04-02T13:43:04Z</time>
      </trkpt>
      <trkpt lat="44.36569" lon="5.96402">
        <ele>767</ele>
        <time>2019-04-02T13:43:05Z</time>
      </trkpt>
      <trkpt lat="44.3657" lon="5.96393">
        <ele>766</ele>
        <time>2019-04-02T13:43:06Z</time>
      </trkpt>
      <trkpt lat="44.36574" lon="5.96384">
        <ele>765</ele>
        <time>2019-04-02T13:43:07Z</time>
      </trkpt>
      <trkpt lat="44.36579" lon="5.96377">
        <ele>765</ele>
        <time>2019-04-02T13:43:08Z</time>
      </trkpt>
      <trkpt lat="44.36586" lon="5.96372">
        <ele>764</ele>
        <time>2019-04-02T13:43:09Z</time>
      </trkpt>
      <trkpt lat="44.36594" lon="5.96368">
        <ele>763</ele>
        <time>2019-04-02T13:43:10Z</time>
      </trkpt>
      <trkpt lat="44.36602" lon="5.96362">
        <ele>763</ele>
        <time>2019-04-02T13:43:11Z</time>
      </trkpt>
      <trkpt lat="44.36609" lon="5.96356">
        <ele>762</ele>
        <time>2019-04-02T13:43:12Z</time>
      </trkpt>
      <trkpt lat="44.36616" lon="5.96348">
        <ele>762</ele>
        <time>2019-04-02T13:43:13Z</time>
      </trkpt>
      <trkpt lat="44.36621" lon="5.96339">
        <ele>761</ele>
        <time>2019-04-02T13:43:14Z</time>
      </trkpt>
      <trkpt lat="44.36626" lon="5.96328">
        <ele>760</ele>
        <time>2019-04-02T13:43:15Z</time>
      </trkpt>
      <trkpt lat="44.36628" lon="5.96316">
        <ele>760</ele>
        <time>2019-04-02T13:43:16Z</time>
      </trkpt>
      <trkpt lat="44.3663" lon="5.96305">
        <ele>759</ele>
        <time>2019-04-02T13:43:17Z</time>
      </trkpt>
      <trkpt lat="44.36633" lon="5.96293">
        <ele>758</ele>
        <time>2019-04-02T13:43:18Z</time>
      </trkpt>
      <trkpt lat="44.36637" lon="5.96283">
        <ele>758</ele>
        <time>2019-04-02T13:43:19Z</time>
      </trkpt>
      <trkpt lat="44.36644" lon="5.96276">
        <ele>757</ele>
        <time>2019-04-02T13:43:20Z</time>
      </trkpt>
      <trkpt lat="44.36652" lon="5.9627">
        <ele>756</ele>
        <time>2019-04-02T13:43:21Z</time>
      </trkpt>
      <trkpt lat="44.36661" lon="5.96264">
        <ele>755</ele>
        <time>2019-04-02T13:43:22Z</time>
      </trkpt>
      <trkpt lat="44.3667" lon="5.96259">
        <ele>755</ele>
        <time>2019-04-02T13:43:23Z</time>
      </trkpt>
      <trkpt lat="44.36679" lon="5.96253">
        <ele>754</ele>
        <time>2019-04-02T13:43:24Z</time>
      </trkpt>
      <trkpt lat="44.36689" lon="5.96248">
        <ele>753</ele>
        <time>2019-04-02T13:43:25Z</time>
      </trkpt>
      <trkpt lat="44.36699" lon="5.96243">
        <ele>752</ele>
        <time>2019-04-02T13:43:26Z</time>
      </trkpt>
      <trkpt lat="44.3671" lon="5.96238">
        <ele>751</ele>
        <time>2019-04-02T13:43:27Z</time>
      </trkpt>
      <trkpt lat="44.36721" lon="5.96234">
        <ele>750</ele>
        <time>2019-04-02T13:43:28Z</time>
      </trkpt>
      <trkpt lat="44.36732" lon="5.96231">
        <ele>750</ele>
        <time>2019-04-02T13:43:29Z</time>
      </trkpt>
      <trkpt lat="44.36742" lon="5.96227">
        <ele>749</ele>
        <time>2019-04-02T13:43:30Z</time>
      </trkpt>
      <trkpt lat="44.36751" lon="5.96222">
        <ele>748</ele>
        <time>2019-04-02T13:43:31Z</time>
      </trkpt>
      <trkpt lat="44.36759" lon="5.96215">
        <ele>747</ele>
        <time>2019-04-02T13:43:32Z</time>
      </trkpt>
      <trkpt lat="44.36766" lon="5.96208">
        <ele>746</ele>
        <time>2019-04-02T13:43:33Z</time>
      </trkpt>
      <trkpt lat="44.36771" lon="5.962">
        <ele>745</ele>
        <time>2019-04-02T13:43:34Z</time>
      </trkpt>
      <trkpt lat="44.36775" lon="5.9619">
        <ele>744</ele>
        <time>2019-04-02T13:43:35Z</time>
      </trkpt>
      <trkpt lat="44.36777" lon="5.96179">
        <ele>744</ele>
        <time>2019-04-02T13:43:36Z</time>
      </trkpt>
      <trkpt lat="44.36779" lon="5.96171">
        <ele>743</ele>
        <time>2019-04-02T13:43:37Z</time>
      </trkpt>
      <trkpt lat="44.36782" lon="5.96165">
        <ele>742</ele>
        <time>2019-04-02T13:43:38Z</time>
      </trkpt>
      <trkpt lat="44.36788" lon="5.96163">
        <ele>741</ele>
        <time>2019-04-02T13:43:39Z</time>
      </trkpt>
      <trkpt lat="44.36795" lon="5.96165">
        <ele>741</ele>
        <time>2019-04-02T13:43:40Z</time>
      </trkpt>
      <trkpt lat="44.36801" lon="5.9617">
        <ele>740</ele>
        <time>2019-04-02T13:43:41Z</time>
      </trkpt>
      <trkpt lat="44.36807" lon="5.96178">
        <ele>739</ele>
        <time>2019-04-02T13:43:42Z</time>
      </trkpt>
      <trkpt lat="44.3681" lon="5.96188">
        <ele>738</ele>
        <time>2019-04-02T13:43:43Z</time>
      </trkpt>
      <trkpt lat="44.36811" lon="5.96199">
        <ele>737</ele>
        <time>2019-04-02T13:43:44Z</time>
      </trkpt>
      <trkpt lat="44.36811" lon="5.96209">
        <ele>736</ele>
        <time>2019-04-02T13:43:45Z</time>
      </trkpt>
      <trkpt lat="44.3681" lon="5.96218">
        <ele>735</ele>
        <time>2019-04-02T13:43:46Z</time>
      </trkpt>
      <trkpt lat="44.36811" lon="5.96225">
        <ele>734</ele>
        <time>2019-04-02T13:43:47Z</time>
      </trkpt>
      <trkpt lat="44.36816" lon="5.96229">
        <ele>734</ele>
        <time>2019-04-02T13:43:48Z</time>
      </trkpt>
      <trkpt lat="44.36821" lon="5.9623">
        <ele>733</ele>
        <time>2019-04-02T13:43:49Z</time>
      </trkpt>
      <trkpt lat="44.36828" lon="5.96226">
        <ele>732</ele>
        <time>2019-04-02T13:43:50Z</time>
      </trkpt>
      <trkpt lat="44.36834" lon="5.96221">
        <ele>732</ele>
        <time>2019-04-02T13:43:51Z</time>
      </trkpt>
      <trkpt lat="44.36841" lon="5.96214">
        <ele>731</ele>
        <time>2019-04-02T13:43:52Z</time>
      </trkpt>
      <trkpt lat="44.36847" lon="5.96208">
        <ele>731</ele>
        <time>2019-04-02T13:43:53Z</time>
      </trkpt>
      <trkpt lat="44.36852" lon="5.96201">
        <ele>730</ele>
        <time>2019-04-02T13:43:54Z</time>
      </trkpt>
      <trkpt lat="44.36855" lon="5.96192">
        <ele>730</ele>
        <time>2019-04-02T13:43:55Z</time>
      </trkpt>
      <trkpt lat="44.36856" lon="5.96182">
        <ele>729</ele>
        <time>2019-04-02T13:43:56Z</time>
      </trkpt>
      <trkpt lat="44.36853" lon="5.96173">
        <ele>728</ele>
        <time>2019-04-02T13:43:57Z</time>
      </trkpt>
      <trkpt lat="44.36849" lon="5.96164">
        <ele>728</ele>
        <time>2019-04-02T13:43:58Z</time>
      </trkpt>
      <trkpt lat="44.36842" lon="5.96156">
        <ele>727</ele>
        <time>2019-04-02T13:43:59Z</time>
      </trkpt>
      <trkpt lat="44.36835" lon="5.96148">
        <ele>726</ele>
        <time>2019-04-02T13:44:00Z</time>
      </trkpt>
      <trkpt lat="44.36828" lon="5.96141">
        <ele>726</ele>
        <time>2019-04-02T13:44:01Z</time>
      </trkpt>
      <trkpt lat="44.36822" lon="5.96134">
        <ele>725</ele>
        <time>2019-04-02T13:44:02Z</time>
      </trkpt>
      <trkpt lat="44.36816" lon="5.96125">
        <ele>724</ele>
        <time>2019-04-02T13:44:03Z</time>
      </trkpt>
      <trkpt lat="44.36813" lon="5.96113">
        <ele>724</ele>
        <time>2019-04-02T13:44:04Z</time>
      </trkpt>
      <trkpt lat="44.36812" lon="5.96101">
        <ele>723</ele>
        <time>2019-04-02T13:44:05Z</time>
      </trkpt>
      <trkpt lat="44.36813" lon="5.96087">
        <ele>722</ele>
        <time>2019-04-02T13:44:06Z</time>
      </trkpt>
      <trkpt lat="44.36814" lon="5.96074">
        <ele>722</ele>
        <time>2019-04-02T13:44:07Z</time>
      </trkpt>
      <trkpt lat="44.36817" lon="5.96061">
        <ele>721</ele>
        <time>2019-04-02T13:44:08Z</time>
      </trkpt>
      <trkpt lat="44.36819" lon="5.96047">
        <ele>720</ele>
        <time>2019-04-02T13:44:09Z</time>
      </trkpt>
      <trkpt lat="44.36821" lon="5.96035">
        <ele>719</ele>
        <time>2019-04-02T13:44:10Z</time>
      </trkpt>
      <trkpt lat="44.36822" lon="5.96021">
        <ele>718</ele>
        <time>2019-04-02T13:44:11Z</time>
      </trkpt>
      <trkpt lat="44.36821" lon="5.96009">
        <ele>717</ele>
        <time>2019-04-02T13:44:12Z</time>
      </trkpt>
      <trkpt lat="44.36819" lon="5.95997">
        <ele>716</ele>
        <time>2019-04-02T13:44:13Z</time>
      </trkpt>
      <trkpt lat="44.36816" lon="5.95986">
        <ele>715</ele>
        <time>2019-04-02T13:44:14Z</time>
      </trkpt>
      <trkpt lat="44.36814" lon="5.95976">
        <ele>714</ele>
        <time>2019-04-02T13:44:15Z</time>
      </trkpt>
      <trkpt lat="44.36814" lon="5.95966">
        <ele>713</ele>
        <time>2019-04-02T13:44:16Z</time>
      </trkpt>
      <trkpt lat="44.36816" lon="5.95957">
        <ele>712</ele>
        <time>2019-04-02T13:44:17Z</time>
      </trkpt>
      <trkpt lat="44.3682" lon="5.95948">
        <ele>711</ele>
        <time>2019-04-02T13:44:18Z</time>
      </trkpt>
      <trkpt lat="44.36827" lon="5.95942">
        <ele>711</ele>
        <time>2019-04-02T13:44:19Z</time>
      </trkpt>
      <trkpt lat="44.36835" lon="5.95937">
        <ele>710</ele>
        <time>2019-04-02T13:44:20Z</time>
      </trkpt>
      <trkpt lat="44.36843" lon="5.95934">
        <ele>709</ele>
        <time>2019-04-02T13:44:21Z</time>
      </trkpt>
      <trkpt lat="44.36853" lon="5.95931">
        <ele>708</ele>
        <time>2019-04-02T13:44:22Z</time>
      </trkpt>
      <trkpt lat="44.36862" lon="5.95928">
        <ele>708</ele>
        <time>2019-04-02T13:44:23Z</time>
      </trkpt>
      <trkpt lat="44.36872" lon="5.95926">
        <ele>707</ele>
        <time>2019-04-02T13:44:24Z</time>
      </trkpt>
      <trkpt lat="44.36883" lon="5.95922">
        <ele>706</ele>
        <time>2019-04-02T13:44:25Z</time>
      </trkpt>
      <trkpt lat="44.36893" lon="5.95919">
        <ele>705</ele>
        <time>2019-04-02T13:44:26Z</time>
      </trkpt>
      <trkpt lat="44.36904" lon="5.95916">
        <ele>705</ele>
        <time>2019-04-02T13:44:27Z</time>
      </trkpt>
      <trkpt lat="44.36914" lon="5.95914">
        <ele>704</ele>
        <time>2019-04-02T13:44:28Z</time>
      </trkpt>
      <trkpt lat="44.36925" lon="5.95913">
        <ele>703</ele>
        <time>2019-04-02T13:44:29Z</time>
      </trkpt>
      <trkpt lat="44.36935" lon="5.95913">
        <ele>702</ele>
        <time>2019-04-02T13:44:30Z</time>
      </trkpt>
      <trkpt lat="44.36946" lon="5.95914">
        <ele>701</ele>
        <time>2019-04-02T13:44:31Z</time>
      </trkpt>
      <trkpt lat="44.36956" lon="5.95914">
        <ele>700</ele>
        <time>2019-04-02T13:44:32Z</time>
      </trkpt>
      <trkpt lat="44.36966" lon="5.95914">
        <ele>700</ele>
        <time>2019-04-02T13:44:33Z</time>
      </trkpt>
      <trkpt lat="44.36977" lon="5.95914">
        <ele>699</ele>
        <time>2019-04-02T13:44:34Z</time>
      </trkpt>
      <trkpt lat="44.36987" lon="5.95914">
        <ele>698</ele>
        <time>2019-04-02T13:44:35Z</time>
      </trkpt>
      <trkpt lat="44.36997" lon="5.95914">
        <ele>697</ele>
        <time>2019-04-02T13:44:36Z</time>
      </trkpt>
      <trkpt lat="44.37006" lon="5.95914">
        <ele>696</ele>
        <time>2019-04-02T13:44:37Z</time>
      </trkpt>
      <trkpt lat="44.37014" lon="5.95911">
        <ele>696</ele>
        <time>2019-04-02T13:44:38Z</time>
      </trkpt>
      <trkpt lat="44.37021" lon="5.95906">
        <ele>695</ele>
        <time>2019-04-02T13:44:39Z</time>
      </trkpt>
      <trkpt lat="44.37027" lon="5.95901">
        <ele>694</ele>
        <time>2019-04-02T13:44:40Z</time>
      </trkpt>
      <trkpt lat="44.37033" lon="5.95895">
        <ele>693</ele>
        <time>2019-04-02T13:44:41Z</time>
      </trkpt>
      <trkpt lat="44.37038" lon="5.95891">
        <ele>693</ele>
        <time>2019-04-02T13:44:42Z</time>
      </trkpt>
      <trkpt lat="44.37043" lon="5.95889">
        <ele>692</ele>
        <time>2019-04-02T13:44:43Z</time>
      </trkpt>
      <trkpt lat="44.37049" lon="5.95892">
        <ele>692</ele>
        <time>2019-04-02T13:44:44Z</time>
      </trkpt>
      <trkpt lat="44.37051" lon="5.95899">
        <ele>691</ele>
        <time>2019-04-02T13:44:45Z</time>
      </trkpt>
      <trkpt lat="44.37051" lon="5.95907">
        <ele>690</ele>
        <time>2019-04-02T13:44:46Z</time>
      </trkpt>
      <trkpt lat="44.37049" lon="5.95915">
        <ele>690</ele>
        <time>2019-04-02T13:44:47Z</time>
      </trkpt>
      <trkpt lat="44.37044" lon="5.95921">
        <ele>689</ele>
        <time>2019-04-02T13:44:48Z</time>
      </trkpt>
      <trkpt lat="44.37039" lon="5.95927">
        <ele>688</ele>
        <time>2019-04-02T13:44:49Z</time>
      </trkpt>
      <trkpt lat="44.37035" lon="5.95934">
        <ele>687</ele>
        <time>2019-04-02T13:44:50Z</time>
      </trkpt>
      <trkpt lat="44.3703" lon="5.9594">
        <ele>687</ele>
        <time>2019-04-02T13:44:51Z</time>
      </trkpt>
      <trkpt lat="44.37026" lon="5.95947">
        <ele>687</ele>
        <time>2019-04-02T13:44:52Z</time>
      </trkpt>
      <trkpt lat="44.37022" lon="5.95954">
        <ele>686</ele>
        <time>2019-04-02T13:44:53Z</time>
      </trkpt>
      <trkpt lat="44.37018" lon="5.9596">
        <ele>686</ele>
        <time>2019-04-02T13:44:54Z</time>
      </trkpt>
      <trkpt lat="44.37014" lon="5.95967">
        <ele>685</ele>
        <time>2019-04-02T13:44:55Z</time>
      </trkpt>
      <trkpt lat="44.3701" lon="5.95973">
        <ele>685</ele>
        <time>2019-04-02T13:44:56Z</time>
      </trkpt>
      <trkpt lat="44.37006" lon="5.95979">
        <ele>685</ele>
        <time>2019-04-02T13:44:57Z</time>
      </trkpt>
      <trkpt lat="44.37002" lon="5.95986">
        <ele>684</ele>
        <time>2019-04-02T13:44:58Z</time>
      </trkpt>
      <trkpt lat="44.36999" lon="5.95992">
        <ele>684</ele>
        <time>2019-04-02T13:44:59Z</time>
      </trkpt>
      <trkpt lat="44.36996" lon="5.95999">
        <ele>684</ele>
        <time>2019-04-02T13:45:00Z</time>
      </trkpt>
      <trkpt lat="44.36995" lon="5.96007">
        <ele>684</ele>
        <time>2019-04-02T13:45:01Z</time>
      </trkpt>
      <trkpt lat="44.36995" lon="5.96015">
        <ele>684</ele>
        <time>2019-04-02T13:45:02Z</time>
      </trkpt>
      <trkpt lat="44.36996" lon="5.96024">
        <ele>684</ele>
        <time>2019-04-02T13:45:03Z</time>
      </trkpt>
      <trkpt lat="44.36998" lon="5.96032">
        <ele>683</ele>
        <time>2019-04-02T13:45:04Z</time>
      </trkpt>
      <trkpt lat="44.37001" lon="5.9604">
        <ele>683</ele>
        <time>2019-04-02T13:45:05Z</time>
      </trkpt>
      <trkpt lat="44.37005" lon="5.96049">
        <ele>683</ele>
        <time>2019-04-02T13:45:06Z</time>
      </trkpt>
      <trkpt lat="44.3701" lon="5.96057">
        <ele>683</ele>
        <time>2019-04-02T13:45:07Z</time>
      </trkpt>
      <trkpt lat="44.37015" lon="5.96065">
        <ele>682</ele>
        <time>2019-04-02T13:45:08Z</time>
      </trkpt>
      <trkpt lat="44.37021" lon="5.96073">
        <ele>682</ele>
        <time>2019-04-02T13:45:09Z</time>
      </trkpt>
      <trkpt lat="44.37027" lon="5.96082">
        <ele>681</ele>
        <time>2019-04-02T13:45:10Z</time>
      </trkpt>
      <trkpt lat="44.37032" lon="5.96092">
        <ele>681</ele>
        <time>2019-04-02T13:45:11Z</time>
      </trkpt>
      <trkpt lat="44.37038" lon="5.96101">
        <ele>680</ele>
        <time>2019-04-02T13:45:12Z</time>
      </trkpt>
      <trkpt lat="44.37045" lon="5.9611">
        <ele>680</ele>
        <time>2019-04-02T13:45:13Z</time>
      </trkpt>
      <trkpt lat="44.37051" lon="5.96118">
        <ele>679</ele>
        <time>2019-04-02T13:45:14Z</time>
      </trkpt>
      <trkpt lat="44.37056" lon="5.96127">
        <ele>679</ele>
        <time>2019-04-02T13:45:15Z</time>
      </trkpt>
      <trkpt lat="44.37061" lon="5.96136">
        <ele>678</ele>
        <time>2019-04-02T13:45:16Z</time>
      </trkpt>
      <trkpt lat="44.37064" lon="5.96145">
        <ele>678</ele>
        <time>2019-04-02T13:45:17Z</time>
      </trkpt>
      <trkpt lat="44.37066" lon="5.96153">
        <ele>677</ele>
        <time>2019-04-02T13:45:18Z</time>
      </trkpt>
      <trkpt lat="44.37069" lon="5.96161">
        <ele>677</ele>
        <time>2019-04-02T13:45:19Z</time>
      </trkpt>
      <trkpt lat="44.37073" lon="5.96166">
        <ele>676</ele>
        <time>2019-04-02T13:45:20Z</time>
      </trkpt>
      <trkpt lat="44.37078" lon="5.96168">
        <ele>676</ele>
        <time>2019-04-02T13:45:21Z</time>
      </trkpt>
      <trkpt lat="44.37084" lon="5.96168">
        <ele>675</ele>
        <time>2019-04-02T13:45:22Z</time>
      </trkpt>
      <trkpt lat="44.37089" lon="5.96164">
        <ele>675</ele>
        <time>2019-04-02T13:45:23Z</time>
      </trkpt>
      <trkpt lat="44.37093" lon="5.96157">
        <ele>674</ele>
        <time>2019-04-02T13:45:24Z</time>
      </trkpt>
      <trkpt lat="44.37093" lon="5.96148">
        <ele>673</ele>
        <time>2019-04-02T13:45:25Z</time>
      </trkpt>
      <trkpt lat="44.37091" lon="5.9614">
        <ele>673</ele>
        <time>2019-04-02T13:45:26Z</time>
      </trkpt>
      <trkpt lat="44.37088" lon="5.96131">
        <ele>672</ele>
        <time>2019-04-02T13:45:27Z</time>
      </trkpt>
      <trkpt lat="44.37085" lon="5.96123">
        <ele>671</ele>
        <time>2019-04-02T13:45:28Z</time>
      </trkpt>
      <trkpt lat="44.37081" lon="5.96113">
        <ele>671</ele>
        <time>2019-04-02T13:45:29Z</time>
      </trkpt>
      <trkpt lat="44.37077" lon="5.96104">
        <ele>670</ele>
        <time>2019-04-02T13:45:30Z</time>
      </trkpt>
      <trkpt lat="44.37074" lon="5.96094">
        <ele>670</ele>
        <time>2019-04-02T13:45:31Z</time>
      </trkpt>
      <trkpt lat="44.37071" lon="5.96084">
        <ele>669</ele>
        <time>2019-04-02T13:45:32Z</time>
      </trkpt>
      <trkpt lat="44.37069" lon="5.96075">
        <ele>668</ele>
        <time>2019-04-02T13:45:33Z</time>
      </trkpt>
      <trkpt lat="44.37069" lon="5.96065">
        <ele>668</ele>
        <time>2019-04-02T13:45:34Z</time>
      </trkpt>
      <trkpt lat="44.37072" lon="5.96055">
        <ele>667</ele>
        <time>2019-04-02T13:45:35Z</time>
      </trkpt>
      <trkpt lat="44.37076" lon="5.96047">
        <ele>667</ele>
        <time>2019-04-02T13:45:36Z</time>
      </trkpt>
      <trkpt lat="44.37083" lon="5.96042">
        <ele>666</ele>
        <time>2019-04-02T13:45:37Z</time>
      </trkpt>
      <trkpt lat="44.3709" lon="5.96038">
        <ele>665</ele>
        <time>2019-04-02T13:45:38Z</time>
      </trkpt>
      <trkpt lat="44.37098" lon="5.96035">
        <ele>665</ele>
        <time>2019-04-02T13:45:39Z</time>
      </trkpt>
      <trkpt lat="44.37106" lon="5.96031">
        <ele>665</ele>
        <time>2019-04-02T13:45:40Z</time>
      </trkpt>
      <trkpt lat="44.37114" lon="5.96026">
        <ele>664</ele>
        <time>2019-04-02T13:45:41Z</time>
      </trkpt>
      <trkpt lat="44.37122" lon="5.96019">
        <ele>664</ele>
        <time>2019-04-02T13:45:42Z</time>
      </trkpt>
      <trkpt lat="44.37129" lon="5.9601">
        <ele>663</ele>
        <time>2019-04-02T13:45:43Z</time>
      </trkpt>
      <trkpt lat="44.37135" lon="5.95999">
        <ele>662</ele>
        <time>2019-04-02T13:45:44Z</time>
      </trkpt>
      <trkpt lat="44.37141" lon="5.95988">
        <ele>662</ele>
        <time>2019-04-02T13:45:45Z</time>
      </trkpt>
      <trkpt lat="44.37148" lon="5.95975">
        <ele>661</ele>
        <time>2019-04-02T13:45:46Z</time>
      </trkpt>
      <trkpt lat="44.37155" lon="5.95963">
        <ele>660</ele>
        <time>2019-04-02T13:45:47Z</time>
      </trkpt>
      <trkpt lat="44.37162" lon="5.9595">
        <ele>660</ele>
        <time>2019-04-02T13:45:48Z</time>
      </trkpt>
      <trkpt lat="44.37169" lon="5.95938">
        <ele>659</ele>
        <time>2019-04-02T13:45:49Z</time>
      </trkpt>
      <trkpt lat="44.37176" lon="5.95925">
        <ele>658</ele>
        <time>2019-04-02T13:45:50Z</time>
      </trkpt>
      <trkpt lat="44.37183" lon="5.95913">
        <ele>657</ele>
        <time>2019-04-02T13:45:51Z</time>
      </trkpt>
      <trkpt lat="44.3719" lon="5.95901">
        <ele>657</ele>
        <time>2019-04-02T13:45:52Z</time>
      </trkpt>
      <trkpt lat="44.37196" lon="5.9589">
        <ele>656</ele>
        <time>2019-04-02T13:45:53Z</time>
      </trkpt>
      <trkpt lat="44.37202" lon="5.9588">
        <ele>655</ele>
        <time>2019-04-02T13:45:54Z</time>
      </trkpt>
      <trkpt lat="44.37206" lon="5.95869">
        <ele>654</ele>
        <time>2019-04-02T13:45:55Z</time>
      </trkpt>
      <trkpt lat="44.37208" lon="5.95858">
        <ele>653</ele>
        <time>2019-04-02T13:45:56Z</time>
      </trkpt>
      <trkpt lat="44.37208" lon="5.95847">
        <ele>652</ele>
        <time>2019-04-02T13:45:57Z</time>
      </trkpt>
      <trkpt lat="44.37206" lon="5.95837">
        <ele>652</ele>
        <time>2019-04-02T13:45:58Z</time>
      </trkpt>
      <trkpt lat="44.37202" lon="5.95829">
        <ele>651</ele>
        <time>2019-04-02T13:45:59Z</time>
      </trkpt>
      <trkpt lat="44.37196" lon="5.95822">
        <ele>650</ele>
        <time>2019-04-02T13:46:00Z</time>
      </trkpt>
      <trkpt lat="44.37189" lon="5.95816">
        <ele>650</ele>
        <time>2019-04-02T13:46:01Z</time>
      </trkpt>
      <trkpt lat="44.37182" lon="5.9581">
        <ele>649</ele>
        <time>2019-04-02T13:46:02Z</time>
      </trkpt>
      <trkpt lat="44.37177" lon="5.95802">
        <ele>649</ele>
        <time>2019-04-02T13:46:03Z</time>
      </trkpt>
      <trkpt lat="44.37172" lon="5.95794">
        <ele>648</ele>
        <time>2019-04-02T13:46:04Z</time>
      </trkpt>
      <trkpt lat="44.37169" lon="5.95786">
        <ele>647</ele>
        <time>2019-04-02T13:46:05Z</time>
      </trkpt>
      <trkpt lat="44.37167" lon="5.95778">
        <ele>647</ele>
        <time>2019-04-02T13:46:06Z</time>
      </trkpt>
      <trkpt lat="44.37165" lon="5.95769">
        <ele>646</ele>
        <time>2019-04-02T13:46:07Z</time>
      </trkpt>
      <trkpt lat="44.37167" lon="5.95761">
        <ele>645</ele>
        <time>2019-04-02T13:46:08Z</time>
      </trkpt>
      <trkpt lat="44.3717" lon="5.95755">
        <ele>644</ele>
        <time>2019-04-02T13:46:09Z</time>
      </trkpt>
      <trkpt lat="44.37175" lon="5.95752">
        <ele>644</ele>
        <time>2019-04-02T13:46:10Z</time>
      </trkpt>
      <trkpt lat="44.37182" lon="5.95752">
        <ele>643</ele>
        <time>2019-04-02T13:46:11Z</time>
      </trkpt>
      <trkpt lat="44.37189" lon="5.95755">
        <ele>643</ele>
        <time>2019-04-02T13:46:12Z</time>
      </trkpt>
      <trkpt lat="44.37195" lon="5.9576">
        <ele>642</ele>
        <time>2019-04-02T13:46:13Z</time>
      </trkpt>
      <trkpt lat="44.37202" lon="5.95763">
        <ele>642</ele>
        <time>2019-04-02T13:46:14Z</time>
      </trkpt>
      <trkpt lat="44.37207" lon="5.95764">
        <ele>642</ele>
        <time>2019-04-02T13:46:15Z</time>
      </trkpt>
      <trkpt lat="44.37214" lon="5.95763">
        <ele>641</ele>
        <time>2019-04-02T13:46:16Z</time>
      </trkpt>
      <trkpt lat="44.3722" lon="5.9576">
        <ele>641</ele>
        <time>2019-04-02T13:46:17Z</time>
      </trkpt>
      <trkpt lat="44.37225" lon="5.95753">
        <ele>641</ele>
        <time>2019-04-02T13:46:18Z</time>
      </trkpt>
      <trkpt lat="44.37229" lon="5.95744">
        <ele>640</ele>
        <time>2019-04-02T13:46:19Z</time>
      </trkpt>
      <trkpt lat="44.37233" lon="5.95736">
        <ele>639</ele>
        <time>2019-04-02T13:46:20Z</time>
      </trkpt>
      <trkpt lat="44.37236" lon="5.95727">
        <ele>639</ele>
        <time>2019-04-02T13:46:21Z</time>
      </trkpt>
      <trkpt lat="44.37238" lon="5.95718">
        <ele>638</ele>
        <time>2019-04-02T13:46:22Z</time>
      </trkpt>
      <trkpt lat="44.37238" lon="5.95709">
        <ele>638</ele>
        <time>2019-04-02T13:46:23Z</time>
      </trkpt>
      <trkpt lat="44.37236" lon="5.95701">
        <ele>638</ele>
        <time>2019-04-02T13:46:24Z</time>
      </trkpt>
      <trkpt lat="44.37233" lon="5.95692">
        <ele>638</ele>
        <time>2019-04-02T13:46:25Z</time>
      </trkpt>
      <trkpt lat="44.3723" lon="5.95686">
        <ele>637</ele>
        <time>2019-04-02T13:46:26Z</time>
      </trkpt>
      <trkpt lat="44.37225" lon="5.9568">
        <ele>637</ele>
        <time>2019-04-02T13:46:27Z</time>
      </trkpt>
      <trkpt lat="44.37221" lon="5.95676">
        <ele>637</ele>
        <time>2019-04-02T13:46:28Z</time>
      </trkpt>
      <trkpt lat="44.37215" lon="5.95674">
        <ele>637</ele>
        <time>2019-04-02T13:46:29Z</time>
      </trkpt>
      <trkpt lat="44.37209" lon="5.95674">
        <ele>637</ele>
        <time>2019-04-02T13:46:30Z</time>
      </trkpt>
      <trkpt lat="44.37203" lon="5.95676">
        <ele>637</ele>
        <time>2019-04-02T13:46:31Z</time>
      </trkpt>
      <trkpt lat="44.37196" lon="5.95677">
        <ele>637</ele>
        <time>2019-04-02T13:46:32Z</time>
      </trkpt>
      <trkpt lat="44.37189" lon="5.95677">
        <ele>637</ele>
        <time>2019-04-02T13:46:33Z</time>
      </trkpt>
      <trkpt lat="44.37183" lon="5.95675">
        <ele>637</ele>
        <time>2019-04-02T13:46:34Z</time>
      </trkpt>
      <trkpt lat="44.37178" lon="5.95669">
        <ele>637</ele>
        <time>2019-04-02T13:46:35Z</time>
      </trkpt>
      <trkpt lat="44.37174" lon="5.95663">
        <ele>637</ele>
        <time>2019-04-02T13:46:36Z</time>
      </trkpt>
      <trkpt lat="44.37172" lon="5.95655">
        <ele>636</ele>
        <time>2019-04-02T13:46:37Z</time>
      </trkpt>
      <trkpt lat="44.37172" lon="5.95645">
        <ele>635</ele>
        <time>2019-04-02T13:46:38Z</time>
      </trkpt>
      <trkpt lat="44.37173" lon="5.95635">
        <ele>634</ele>
        <time>2019-04-02T13:46:39Z</time>
      </trkpt>
      <trkpt lat="44.37174" lon="5.95625">
        <ele>633</ele>
        <time>2019-04-02T13:46:40Z</time>
      </trkpt>
      <trkpt lat="44.37175" lon="5.95614">
        <ele>632</ele>
        <time>2019-04-02T13:46:41Z</time>
      </trkpt>
      <trkpt lat="44.37176" lon="5.95603">
        <ele>631</ele>
        <time>2019-04-02T13:46:42Z</time>
      </trkpt>
      <trkpt lat="44.37178" lon="5.95591">
        <ele>631</ele>
        <time>2019-04-02T13:46:43Z</time>
      </trkpt>
      <trkpt lat="44.37179" lon="5.95579">
        <ele>630</ele>
        <time>2019-04-02T13:46:44Z</time>
      </trkpt>
      <trkpt lat="44.37181" lon="5.95566">
        <ele>629</ele>
        <time>2019-04-02T13:46:45Z</time>
      </trkpt>
      <trkpt lat="44.37183" lon="5.95554">
        <ele>628</ele>
        <time>2019-04-02T13:46:46Z</time>
      </trkpt>
      <trkpt lat="44.37184" lon="5.95542">
        <ele>627</ele>
        <time>2019-04-02T13:46:47Z</time>
      </trkpt>
      <trkpt lat="44.37186" lon="5.9553">
        <ele>626</ele>
        <time>2019-04-02T13:46:48Z</time>
      </trkpt>
      <trkpt lat="44.37187" lon="5.95519">
        <ele>625</ele>
        <time>2019-04-02T13:46:49Z</time>
      </trkpt>
      <trkpt lat="44.37188" lon="5.95508">
        <ele>624</ele>
        <time>2019-04-02T13:46:50Z</time>
      </trkpt>
      <trkpt lat="44.37189" lon="5.95499">
        <ele>623</ele>
        <time>2019-04-02T13:46:51Z</time>
      </trkpt>
      <trkpt lat="44.37191" lon="5.95488">
        <ele>622</ele>
        <time>2019-04-02T13:46:52Z</time>
      </trkpt>
      <trkpt lat="44.37192" lon="5.95478">
        <ele>621</ele>
        <time>2019-04-02T13:46:53Z</time>
      </trkpt>
      <trkpt lat="44.37193" lon="5.95467">
        <ele>620</ele>
        <time>2019-04-02T13:46:54Z</time>
      </trkpt>
      <trkpt lat="44.37195" lon="5.95455">
        <ele>619</ele>
        <time>2019-04-02T13:46:55Z</time>
      </trkpt>
      <trkpt lat="44.37196" lon="5.95443">
        <ele>618</ele>
        <time>2019-04-02T13:46:56Z</time>
      </trkpt>
      <trkpt lat="44.37197" lon="5.95431">
        <ele>617</ele>
        <time>2019-04-02T13:46:57Z</time>
      </trkpt>
      <trkpt lat="44.37198" lon="5.95418">
        <ele>616</ele>
        <time>2019-04-02T13:46:58Z</time>
      </trkpt>
      <trkpt lat="44.37198" lon="5.95404">
        <ele>615</ele>
        <time>2019-04-02T13:46:59Z</time>
      </trkpt>
      <trkpt lat="44.37197" lon="5.95391">
        <ele>614</ele>
        <time>2019-04-02T13:47:00Z</time>
      </trkpt>
      <trkpt lat="44.37195" lon="5.95377">
        <ele>614</ele>
        <time>2019-04-02T13:47:01Z</time>
      </trkpt>
      <trkpt lat="44.37192" lon="5.95365">
        <ele>613</ele>
        <time>2019-04-02T13:47:02Z</time>
      </trkpt>
      <trkpt lat="44.37189" lon="5.95352">
        <ele>612</ele>
        <time>2019-04-02T13:47:03Z</time>
      </trkpt>
      <trkpt lat="44.37186" lon="5.95339">
        <ele>612</ele>
        <time>2019-04-02T13:47:04Z</time>
      </trkpt>
      <trkpt lat="44.37184" lon="5.95326">
        <ele>611</ele>
        <time>2019-04-02T13:47:05Z</time>
      </trkpt>
      <trkpt lat="44.37184" lon="5.95314">
        <ele>610</ele>
        <time>2019-04-02T13:47:06Z</time>
      </trkpt>
      <trkpt lat="44.37186" lon="5.95301">
        <ele>610</ele>
        <time>2019-04-02T13:47:07Z</time>
      </trkpt>
      <trkpt lat="44.3719" lon="5.9529">
        <ele>609</ele>
        <time>2019-04-02T13:47:08Z</time>
      </trkpt>
      <trkpt lat="44.37196" lon="5.9528">
        <ele>609</ele>
        <time>2019-04-02T13:47:09Z</time>
      </trkpt>
      <trkpt lat="44.37204" lon="5.95272">
        <ele>608</ele>
        <time>2019-04-02T13:47:10Z</time>
      </trkpt>
      <trkpt lat="44.37212" lon="5.95268">
        <ele>608</ele>
        <time>2019-04-02T13:47:11Z</time>
      </trkpt>
      <trkpt lat="44.3722" lon="5.95265">
        <ele>607</ele>
        <time>2019-04-02T13:47:12Z</time>
      </trkpt>
      <trkpt lat="44.37229" lon="5.95264">
        <ele>607</ele>
        <time>2019-04-02T13:47:13Z</time>
      </trkpt>
      <trkpt lat="44.37237" lon="5.95264">
        <ele>607</ele>
        <time>2019-04-02T13:47:14Z</time>
      </trkpt>
      <trkpt lat="44.37244" lon="5.95261">
        <ele>606</ele>
        <time>2019-04-02T13:47:15Z</time>
      </trkpt>
      <trkpt lat="44.37251" lon="5.95257">
        <ele>606</ele>
        <time>2019-04-02T13:47:16Z</time>
      </trkpt>
      <trkpt lat="44.37257" lon="5.95249">
        <ele>605</ele>
        <time>2019-04-02T13:47:17Z</time>
      </trkpt>
      <trkpt lat="44.37261" lon="5.95238">
        <ele>605</ele>
        <time>2019-04-02T13:47:18Z</time>
      </trkpt>
      <trkpt lat="44.37265" lon="5.95227">
        <ele>604</ele>
        <time>2019-04-02T13:47:19Z</time>
      </trkpt>
      <trkpt lat="44.3727" lon="5.95215">
        <ele>604</ele>
        <time>2019-04-02T13:47:20Z</time>
      </trkpt>
      <trkpt lat="44.37275" lon="5.95204">
        <ele>603</ele>
        <time>2019-04-02T13:47:21Z</time>
      </trkpt>
      <trkpt lat="44.3728" lon="5.95192">
        <ele>603</ele>
        <time>2019-04-02T13:47:22Z</time>
      </trkpt>
      <trkpt lat="44.37286" lon="5.95182">
        <ele>602</ele>
        <time>2019-04-02T13:47:23Z</time>
      </trkpt>
      <trkpt lat="44.37291" lon="5.95171">
        <ele>602</ele>
        <time>2019-04-02T13:47:24Z</time>
      </trkpt>
      <trkpt lat="44.37295" lon="5.95159">
        <ele>601</ele>
        <time>2019-04-02T13:47:25Z</time>
      </trkpt>
      <trkpt lat="44.37298" lon="5.95147">
        <ele>600</ele>
        <time>2019-04-02T13:47:26Z</time>
      </trkpt>
      <trkpt lat="44.373" lon="5.95135">
        <ele>599</ele>
        <time>2019-04-02T13:47:27Z</time>
      </trkpt>
      <trkpt lat="44.37302" lon="5.95123">
        <ele>599</ele>
        <time>2019-04-02T13:47:28Z</time>
      </trkpt>
      <trkpt lat="44.37305" lon="5.95111">
        <ele>598</ele>
        <time>2019-04-02T13:47:29Z</time>
      </trkpt>
      <trkpt lat="44.37309" lon="5.95099">
        <ele>597</ele>
        <time>2019-04-02T13:47:30Z</time>
      </trkpt>
      <trkpt lat="44.37314" lon="5.9509">
        <ele>596</ele>
        <time>2019-04-02T13:47:31Z</time>
      </trkpt>
      <trkpt lat="44.3732" lon="5.95082">
        <ele>596</ele>
        <time>2019-04-02T13:47:32Z</time>
      </trkpt>
      <trkpt lat="44.37328" lon="5.95078">
        <ele>595</ele>
        <time>2019-04-02T13:47:33Z</time>
      </trkpt>
      <trkpt lat="44.37336" lon="5.95078">
        <ele>595</ele>
        <time>2019-04-02T13:47:34Z</time>
      </trkpt>
      <trkpt lat="44.37344" lon="5.95081">
        <ele>594</ele>
        <time>2019-04-02T13:47:35Z</time>
      </trkpt>
      <trkpt lat="44.37352" lon="5.95086">
        <ele>594</ele>
        <time>2019-04-02T13:47:36Z</time>
      </trkpt>
      <trkpt lat="44.37359" lon="5.95091">
        <ele>593</ele>
        <time>2019-04-02T13:47:37Z</time>
      </trkpt>
      <trkpt lat="44.37366" lon="5.95094">
        <ele>593</ele>
        <time>2019-04-02T13:47:38Z</time>
      </trkpt>
      <trkpt lat="44.37373" lon="5.95094">
        <ele>592</ele>
        <time>2019-04-02T13:47:39Z</time>
      </trkpt>
      <trkpt lat="44.37379" lon="5.95091">
        <ele>592</ele>
        <time>2019-04-02T13:47:40Z</time>
      </trkpt>
      <trkpt lat="44.37382" lon="5.95084">
        <ele>592</ele>
        <time>2019-04-02T13:47:41Z</time>
      </trkpt>
      <trkpt lat="44.37383" lon="5.95076">
        <ele>591</ele>
        <time>2019-04-02T13:47:42Z</time>
      </trkpt>
      <trkpt lat="44.3738" lon="5.95068">
        <ele>591</ele>
        <time>2019-04-02T13:47:43Z</time>
      </trkpt>
      <trkpt lat="44.37375" lon="5.95063">
        <ele>591</ele>
        <time>2019-04-02T13:47:44Z</time>
      </trkpt>
      <trkpt lat="44.37369" lon="5.95059">
        <ele>590</ele>
        <time>2019-04-02T13:47:45Z</time>
      </trkpt>
      <trkpt lat="44.37362" lon="5.95056">
        <ele>589</ele>
        <time>2019-04-02T13:47:46Z</time>
      </trkpt>
      <trkpt lat="44.37355" lon="5.95053">
        <ele>589</ele>
        <time>2019-04-02T13:47:47Z</time>
      </trkpt>
      <trkpt lat="44.37348" lon="5.95049">
        <ele>588</ele>
        <time>2019-04-02T13:47:48Z</time>
      </trkpt>
      <trkpt lat="44.37341" lon="5.95044">
        <ele>588</ele>
        <time>2019-04-02T13:47:49Z</time>
      </trkpt>
      <trkpt lat="44.37334" lon="5.95038">
        <ele>587</ele>
        <time>2019-04-02T13:47:50Z</time>
      </trkpt>
      <trkpt lat="44.37328" lon="5.95032">
        <ele>586</ele>
        <time>2019-04-02T13:47:51Z</time>
      </trkpt>
      <trkpt lat="44.37322" lon="5.95025">
        <ele>586</ele>
        <time>2019-04-02T13:47:52Z</time>
      </trkpt>
      <trkpt lat="44.37317" lon="5.9502">
        <ele>585</ele>
        <time>2019-04-02T13:47:53Z</time>
      </trkpt>
      <trkpt lat="44.37312" lon="5.95014">
        <ele>585</ele>
        <time>2019-04-02T13:47:54Z</time>
      </trkpt>
      <trkpt lat="44.37309" lon="5.95007">
        <ele>584</ele>
        <time>2019-04-02T13:47:55Z</time>
      </trkpt>
      <trkpt lat="44.37308" lon="5.94998">
        <ele>584</ele>
        <time>2019-04-02T13:47:56Z</time>
      </trkpt>
      <trkpt lat="44.3731" lon="5.9499">
        <ele>583</ele>
        <time>2019-04-02T13:47:57Z</time>
      </trkpt>
      <trkpt lat="44.37313" lon="5.94983">
        <ele>583</ele>
        <time>2019-04-02T13:47:58Z</time>
      </trkpt>
      <trkpt lat="44.37319" lon="5.9498">
        <ele>582</ele>
        <time>2019-04-02T13:47:59Z</time>
      </trkpt>
      <trkpt lat="44.37326" lon="5.94982">
        <ele>582</ele>
        <time>2019-04-02T13:48:00Z</time>
      </trkpt>
      <trkpt lat="44.37332" lon="5.94988">
        <ele>581</ele>
        <time>2019-04-02T13:48:01Z</time>
      </trkpt>
      <trkpt lat="44.37338" lon="5.94995">
        <ele>581</ele>
        <time>2019-04-02T13:48:02Z</time>
      </trkpt>
      <trkpt lat="44.37343" lon="5.95003">
        <ele>581</ele>
        <time>2019-04-02T13:48:03Z</time>
      </trkpt>
      <trkpt lat="44.37349" lon="5.95011">
        <ele>580</ele>
        <time>2019-04-02T13:48:04Z</time>
      </trkpt>
      <trkpt lat="44.37355" lon="5.95018">
        <ele>580</ele>
        <time>2019-04-02T13:48:05Z</time>
      </trkpt>
      <trkpt lat="44.37361" lon="5.95023">
        <ele>579</ele>
        <time>2019-04-02T13:48:06Z</time>
      </trkpt>
      <trkpt lat="44.37368" lon="5.95025">
        <ele>578</ele>
        <time>2019-04-02T13:48:07Z</time>
      </trkpt>
      <trkpt lat="44.37374" lon="5.95024">
        <ele>578</ele>
        <time>2019-04-02T13:48:08Z</time>
      </trkpt>
      <trkpt lat="44.3738" lon="5.95023">
        <ele>577</ele>
        <time>2019-04-02T13:48:09Z</time>
      </trkpt>
      <trkpt lat="44.37386" lon="5.95022">
        <ele>577</ele>
        <time>2019-04-02T13:48:10Z</time>
      </trkpt>
      <trkpt lat="44.37392" lon="5.95021">
        <ele>576</ele>
        <time>2019-04-02T13:48:11Z</time>
      </trkpt>
      <trkpt lat="44.37399" lon="5.95022">
        <ele>576</ele>
        <time>2019-04-02T13:48:12Z</time>
      </trkpt>
      <trkpt lat="44.37405" lon="5.95026">
        <ele>575</ele>
        <time>2019-04-02T13:48:13Z</time>
      </trkpt>
      <trkpt lat="44.37411" lon="5.95031">
        <ele>575</ele>
        <time>2019-04-02T13:48:14Z</time>
      </trkpt>
      <trkpt lat="44.37416" lon="5.95038">
        <ele>574</ele>
        <time>2019-04-02T13:48:15Z</time>
      </trkpt>
      <trkpt lat="44.37421" lon="5.95045">
        <ele>574</ele>
        <time>2019-04-02T13:48:16Z</time>
      </trkpt>
      <trkpt lat="44.37426" lon="5.95052">
        <ele>574</ele>
        <time>2019-04-02T13:48:17Z</time>
      </trkpt>
      <trkpt lat="44.37431" lon="5.9506">
        <ele>573</ele>
        <time>2019-04-02T13:48:18Z</time>
      </trkpt>
      <trkpt lat="44.37436" lon="5.95069">
        <ele>573</ele>
        <time>2019-04-02T13:48:19Z</time>
      </trkpt>
      <trkpt lat="44.3744" lon="5.95077">
        <ele>573</ele>
        <time>2019-04-02T13:48:20Z</time>
      </trkpt>
      <trkpt lat="44.37445" lon="5.95085">
        <ele>573</ele>
        <time>2019-04-02T13:48:21Z</time>
      </trkpt>
      <trkpt lat="44.37451" lon="5.95093">
        <ele>572</ele>
        <time>2019-04-02T13:48:22Z</time>
      </trkpt>
      <trkpt lat="44.37457" lon="5.951">
        <ele>572</ele>
        <time>2019-04-02T13:48:23Z</time>
      </trkpt>
      <trkpt lat="44.37463" lon="5.95108">
        <ele>572</ele>
        <time>2019-04-02T13:48:24Z</time>
      </trkpt>
      <trkpt lat="44.3747" lon="5.95114">
        <ele>572</ele>
        <time>2019-04-02T13:48:25Z</time>
      </trkpt>
      <trkpt lat="44.37477" lon="5.95119">
        <ele>572</ele>
        <time>2019-04-02T13:48:26Z</time>
      </trkpt>
      <trkpt lat="44.37485" lon="5.95124">
        <ele>572</ele>
        <time>2019-04-02T13:48:27Z</time>
      </trkpt>
      <trkpt lat="44.37493" lon="5.95127">
        <ele>571</ele>
        <time>2019-04-02T13:48:28Z</time>
      </trkpt>
      <trkpt lat="44.37501" lon="5.9513">
        <ele>571</ele>
        <time>2019-04-02T13:48:29Z</time>
      </trkpt>
      <trkpt lat="44.37509" lon="5.95133">
        <ele>571</ele>
        <time>2019-04-02T13:48:30Z</time>
      </trkpt>
      <trkpt lat="44.37516" lon="5.95136">
        <ele>571</ele>
        <time>2019-04-02T13:48:31Z</time>
      </trkpt>
      <trkpt lat="44.37524" lon="5.9514">
        <ele>571</ele>
        <time>2019-04-02T13:48:32Z</time>
      </trkpt>
      <trkpt lat="44.37532" lon="5.95144">
        <ele>571</ele>
        <time>2019-04-02T13:48:33Z</time>
      </trkpt>
      <trkpt lat="44.37539" lon="5.95146">
        <ele>571</ele>
        <time>2019-04-02T13:48:34Z</time>
      </trkpt>
      <trkpt lat="44.37546" lon="5.95148">
        <ele>571</ele>
        <time>2019-04-02T13:48:35Z</time>
      </trkpt>
      <trkpt lat="44.37553" lon="5.95149">
        <ele>571</ele>
        <time>2019-04-02T13:48:36Z</time>
      </trkpt>
      <trkpt lat="44.3756" lon="5.95149">
        <ele>571</ele>
        <time>2019-04-02T13:48:37Z</time>
      </trkpt>
      <trkpt lat="44.37566" lon="5.95148">
        <ele>571</ele>
        <time>2019-04-02T13:48:38Z</time>
      </trkpt>
      <trkpt lat="44.37571" lon="5.95147">
        <ele>571</ele>
        <time>2019-04-02T13:48:39Z</time>
      </trkpt>
      <trkpt lat="44.37577" lon="5.95145">
        <ele>571</ele>
        <time>2019-04-02T13:48:40Z</time>
      </trkpt>
      <trkpt lat="44.37583" lon="5.95143">
        <ele>571</ele>
        <time>2019-04-02T13:48:41Z</time>
      </trkpt>
      <trkpt lat="44.37589" lon="5.95141">
        <ele>571</ele>
        <time>2019-04-02T13:48:42Z</time>
      </trkpt>
      <trkpt lat="44.37595" lon="5.95138">
        <ele>571</ele>
        <time>2019-04-02T13:48:43Z</time>
      </trkpt>
      <trkpt lat="44.37601" lon="5.95135">
        <ele>571</ele>
        <time>2019-04-02T13:48:44Z</time>
      </trkpt>
      <trkpt lat="44.37608" lon="5.95133">
        <ele>571</ele>
        <time>2019-04-02T13:48:45Z</time>
      </trkpt>
      <trkpt lat="44.37614" lon="5.9513">
        <ele>571</ele>
        <time>2019-04-02T13:48:46Z</time>
      </trkpt>
      <trkpt lat="44.37621" lon="5.95127">
        <ele>571</ele>
        <time>2019-04-02T13:48:47Z</time>
      </trkpt>
      <trkpt lat="44.37627" lon="5.95123">
        <ele>571</ele>
        <time>2019-04-02T13:48:48Z</time>
      </trkpt>
      <trkpt lat="44.37634" lon="5.9512">
        <ele>571</ele>
        <time>2019-04-02T13:48:49Z</time>
      </trkpt>
      <trkpt lat="44.37641" lon="5.95117">
        <ele>571</ele>
        <time>2019-04-02T13:48:50Z</time>
      </trkpt>
      <trkpt lat="44.37648" lon="5.95113">
        <ele>571</ele>
        <time>2019-04-02T13:48:51Z</time>
      </trkpt>
      <trkpt lat="44.37656" lon="5.95109">
        <ele>571</ele>
        <time>2019-04-02T13:48:52Z</time>
      </trkpt>
      <trkpt lat="44.37663" lon="5.95106">
        <ele>571</ele>
        <time>2019-04-02T13:48:53Z</time>
      </trkpt>
      <trkpt lat="44.37671" lon="5.95102">
        <ele>571</ele>
        <time>2019-04-02T13:48:54Z</time>
      </trkpt>
      <trkpt lat="44.37679" lon="5.95099">
        <ele>571</ele>
        <time>2019-04-02T13:48:55Z</time>
      </trkpt>
      <trkpt lat="44.37687" lon="5.95095">
        <ele>571</ele>
        <time>2019-04-02T13:48:56Z</time>
      </trkpt>
      <trkpt lat="44.37695" lon="5.95092">
        <ele>570</ele>
        <time>2019-04-02T13:48:57Z</time>
      </trkpt>
      <trkpt lat="44.37703" lon="5.95088">
        <ele>570</ele>
        <time>2019-04-02T13:48:58Z</time>
      </trkpt>
      <trkpt lat="44.37711" lon="5.95084">
        <ele>570</ele>
        <time>2019-04-02T13:48:59Z</time>
      </trkpt>
      <trkpt lat="44.37719" lon="5.95081">
        <ele>569</ele>
        <time>2019-04-02T13:49:00Z</time>
      </trkpt>
      <trkpt lat="44.37727" lon="5.95077">
        <ele>569</ele>
        <time>2019-04-02T13:49:01Z</time>
      </trkpt>
      <trkpt lat="44.37735" lon="5.95074">
        <ele>568</ele>
        <time>2019-04-02T13:49:02Z</time>
      </trkpt>
      <trkpt lat="44.37743" lon="5.9507">
        <ele>568</ele>
        <time>2019-04-02T13:49:03Z</time>
      </trkpt>
      <trkpt lat="44.37751" lon="5.95065">
        <ele>567</ele>
        <time>2019-04-02T13:49:04Z</time>
      </trkpt>
      <trkpt lat="44.37759" lon="5.95061">
        <ele>567</ele>
        <time>2019-04-02T13:49:05Z</time>
      </trkpt>
      <trkpt lat="44.37768" lon="5.95057">
        <ele>566</ele>
        <time>2019-04-02T13:49:06Z</time>
      </trkpt>
      <trkpt lat="44.37777" lon="5.95053">
        <ele>566</ele>
        <time>2019-04-02T13:49:07Z</time>
      </trkpt>
      <trkpt lat="44.37785" lon="5.95048">
        <ele>566</ele>
        <time>2019-04-02T13:49:08Z</time>
      </trkpt>
      <trkpt lat="44.37793" lon="5.95041">
        <ele>565</ele>
        <time>2019-04-02T13:49:09Z</time>
      </trkpt>
      <trkpt lat="44.37801" lon="5.95032">
        <ele>565</ele>
        <time>2019-04-02T13:49:10Z</time>
      </trkpt>
      <trkpt lat="44.37806" lon="5.95021">
        <ele>564</ele>
        <time>2019-04-02T13:49:11Z</time>
      </trkpt>
      <trkpt lat="44.37811" lon="5.95009">
        <ele>564</ele>
        <time>2019-04-02T13:49:12Z</time>
      </trkpt>
      <trkpt lat="44.37814" lon="5.94996">
        <ele>563</ele>
        <time>2019-04-02T13:49:13Z</time>
      </trkpt>
      <trkpt lat="44.37817" lon="5.94982">
        <ele>562</ele>
        <time>2019-04-02T13:49:14Z</time>
      </trkpt>
      <trkpt lat="44.3782" lon="5.94968">
        <ele>562</ele>
        <time>2019-04-02T13:49:15Z</time>
      </trkpt>
      <trkpt lat="44.37822" lon="5.94953">
        <ele>561</ele>
        <time>2019-04-02T13:49:16Z</time>
      </trkpt>
      <trkpt lat="44.37825" lon="5.94939">
        <ele>560</ele>
        <time>2019-04-02T13:49:17Z</time>
      </trkpt>
      <trkpt lat="44.37827" lon="5.94924">
        <ele>559</ele>
        <time>2019-04-02T13:49:18Z</time>
      </trkpt>
      <trkpt lat="44.3783" lon="5.94909">
        <ele>558</ele>
        <time>2019-04-02T13:49:19Z</time>
      </trkpt>
      <trkpt lat="44.37832" lon="5.94894">
        <ele>558</ele>
        <time>2019-04-02T13:49:20Z</time>
      </trkpt>
      <trkpt lat="44.37833" lon="5.94879">
        <ele>557</ele>
        <time>2019-04-02T13:49:21Z</time>
      </trkpt>
      <trkpt lat="44.37835" lon="5.94865">
        <ele>556</ele>
        <time>2019-04-02T13:49:22Z</time>
      </trkpt>
      <trkpt lat="44.37836" lon="5.94851">
        <ele>555</ele>
        <time>2019-04-02T13:49:23Z</time>
      </trkpt>
      <trkpt lat="44.37836" lon="5.94838">
        <ele>554</ele>
        <time>2019-04-02T13:49:24Z</time>
      </trkpt>
      <trkpt lat="44.37838" lon="5.94825">
        <ele>553</ele>
        <time>2019-04-02T13:49:25Z</time>
      </trkpt>
      <trkpt lat="44.3784" lon="5.94814">
        <ele>552</ele>
        <time>2019-04-02T13:49:26Z</time>
      </trkpt>
      <trkpt lat="44.37843" lon="5.94803">
        <ele>551</ele>
        <time>2019-04-02T13:49:27Z</time>
      </trkpt>
      <trkpt lat="44.37848" lon="5.94793">
        <ele>550</ele>
        <time>2019-04-02T13:49:28Z</time>
      </trkpt>
      <trkpt lat="44.37855" lon="5.94785">
        <ele>549</ele>
        <time>2019-04-02T13:49:29Z</time>
      </trkpt>
      <trkpt lat="44.37863" lon="5.94778">
        <ele>548</ele>
        <time>2019-04-02T13:49:30Z</time>
      </trkpt>
      <trkpt lat="44.37871" lon="5.94772">
        <ele>548</ele>
        <time>2019-04-02T13:49:31Z</time>
      </trkpt>
      <trkpt lat="44.37879" lon="5.94766">
        <ele>547</ele>
        <time>2019-04-02T13:49:32Z</time>
      </trkpt>
      <trkpt lat="44.37886" lon="5.94758">
        <ele>547</ele>
        <time>2019-04-02T13:49:33Z</time>
      </trkpt>
      <trkpt lat="44.37893" lon="5.94749">
        <ele>546</ele>
        <time>2019-04-02T13:49:34Z</time>
      </trkpt>
      <trkpt lat="44.37899" lon="5.94739">
        <ele>546</ele>
        <time>2019-04-02T13:49:35Z</time>
      </trkpt>
      <trkpt lat="44.37904" lon="5.94729">
        <ele>545</ele>
        <time>2019-04-02T13:49:36Z</time>
      </trkpt>
      <trkpt lat="44.3791" lon="5.94718">
        <ele>545</ele>
        <time>2019-04-02T13:49:37Z</time>
      </trkpt>
      <trkpt lat="44.37916" lon="5.94708">
        <ele>544</ele>
        <time>2019-04-02T13:49:38Z</time>
      </trkpt>
      <trkpt lat="44.37923" lon="5.94699">
        <ele>544</ele>
        <time>2019-04-02T13:49:39Z</time>
      </trkpt>
      <trkpt lat="44.37931" lon="5.94691">
        <ele>544</ele>
        <time>2019-04-02T13:49:40Z</time>
      </trkpt>
      <trkpt lat="44.37939" lon="5.94684">
        <ele>543</ele>
        <time>2019-04-02T13:49:41Z</time>
      </trkpt>
      <trkpt lat="44.37947" lon="5.94677">
        <ele>543</ele>
        <time>2019-04-02T13:49:42Z</time>
      </trkpt>
      <trkpt lat="44.37956" lon="5.94673">
        <ele>542</ele>
        <time>2019-04-02T13:49:43Z</time>
      </trkpt>
      <trkpt lat="44.37965" lon="5.94669">
        <ele>542</ele>
        <time>2019-04-02T13:49:44Z</time>
      </trkpt>
      <trkpt lat="44.37975" lon="5.94667">
        <ele>542</ele>
        <time>2019-04-02T13:49:45Z</time>
      </trkpt>
      <trkpt lat="44.37984" lon="5.94665">
        <ele>541</ele>
        <time>2019-04-02T13:49:46Z</time>
      </trkpt>
      <trkpt lat="44.37993" lon="5.94662">
        <ele>541</ele>
        <time>2019-04-02T13:49:47Z</time>
      </trkpt>
      <trkpt lat="44.38002" lon="5.94657">
        <ele>541</ele>
        <time>2019-04-02T13:49:48Z</time>
      </trkpt>
      <trkpt lat="44.38009" lon="5.94651">
        <ele>541</ele>
        <time>2019-04-02T13:49:49Z</time>
      </trkpt>
      <trkpt lat="44.38016" lon="5.94642">
        <ele>540</ele>
        <time>2019-04-02T13:49:50Z</time>
      </trkpt>
      <trkpt lat="44.38022" lon="5.94631">
        <ele>540</ele>
        <time>2019-04-02T13:49:51Z</time>
      </trkpt>
      <trkpt lat="44.38026" lon="5.9462">
        <ele>540</ele>
        <time>2019-04-02T13:49:52Z</time>
      </trkpt>
      <trkpt lat="44.3803" lon="5.94608">
        <ele>540</ele>
        <time>2019-04-02T13:49:53Z</time>
      </trkpt>
      <trkpt lat="44.38034" lon="5.94596">
        <ele>540</ele>
        <time>2019-04-02T13:49:54Z</time>
      </trkpt>
      <trkpt lat="44.38037" lon="5.94584">
        <ele>540</ele>
        <time>2019-04-02T13:49:55Z</time>
      </trkpt>
      <trkpt lat="44.38041" lon="5.94572">
        <ele>540</ele>
        <time>2019-04-02T13:49:56Z</time>
      </trkpt>
      <trkpt lat="44.38044" lon="5.9456">
        <ele>540</ele>
        <time>2019-04-02T13:49:57Z</time>
      </trkpt>
      <trkpt lat="44.38047" lon="5.94548">
        <ele>540</ele>
        <time>2019-04-02T13:49:58Z</time>
      </trkpt>
      <trkpt lat="44.38051" lon="5.94537">
        <ele>540</ele>
        <time>2019-04-02T13:49:59Z</time>
      </trkpt>
      <trkpt lat="44.38054" lon="5.94525">
        <ele>540</ele>
        <time>2019-04-02T13:50:00Z</time>
      </trkpt>
      <trkpt lat="44.38057" lon="5.94514">
        <ele>540</ele>
        <time>2019-04-02T13:50:01Z</time>
      </trkpt>
      <trkpt lat="44.3806" lon="5.94503">
        <ele>540</ele>
        <time>2019-04-02T13:50:02Z</time>
      </trkpt>
      <trkpt lat="44.38063" lon="5.94492">
        <ele>540</ele>
        <time>2019-04-02T13:50:03Z</time>
      </trkpt>
      <trkpt lat="44.38066" lon="5.94482">
        <ele>539</ele>
        <time>2019-04-02T13:50:04Z</time>
      </trkpt>
      <trkpt lat="44.38069" lon="5.94471">
        <ele>539</ele>
        <time>2019-04-02T13:50:05Z</time>
      </trkpt>
      <trkpt lat="44.38073" lon="5.94461">
        <ele>539</ele>
        <time>2019-04-02T13:50:06Z</time>
      </trkpt>
      <trkpt lat="44.38077" lon="5.94451">
        <ele>539</ele>
        <time>2019-04-02T13:50:07Z</time>
      </trkpt>
      <trkpt lat="44.38082" lon="5.94442">
        <ele>539</ele>
        <time>2019-04-02T13:50:08Z</time>
      </trkpt>
      <trkpt lat="44.38088" lon="5.94434">
        <ele>539</ele>
        <time>2019-04-02T13:50:09Z</time>
      </trkpt>
      <trkpt lat="44.38095" lon="5.94427">
        <ele>539</ele>
        <time>2019-04-02T13:50:10Z</time>
      </trkpt>
      <trkpt lat="44.38103" lon="5.94423">
        <ele>539</ele>
        <time>2019-04-02T13:50:11Z</time>
      </trkpt>
      <trkpt lat="44.38111" lon="5.94419">
        <ele>539</ele>
        <time>2019-04-02T13:50:12Z</time>
      </trkpt>
      <trkpt lat="44.3812" lon="5.94416">
        <ele>539</ele>
        <time>2019-04-02T13:50:13Z</time>
      </trkpt>
      <trkpt lat="44.38128" lon="5.94412">
        <ele>539</ele>
        <time>2019-04-02T13:50:14Z</time>
      </trkpt>
      <trkpt lat="44.38137" lon="5.94407">
        <ele>539</ele>
        <time>2019-04-02T13:50:15Z</time>
      </trkpt>
      <trkpt lat="44.38145" lon="5.94402">
        <ele>539</ele>
        <time>2019-04-02T13:50:16Z</time>
      </trkpt>
      <trkpt lat="44.38153" lon="5.94395">
        <ele>539</ele>
        <time>2019-04-02T13:50:17Z</time>
      </trkpt>
      <trkpt lat="44.38161" lon="5.94388">
        <ele>539</ele>
        <time>2019-04-02T13:50:18Z</time>
      </trkpt>
      <trkpt lat="44.38169" lon="5.9438">
        <ele>539</ele>
        <time>2019-04-02T13:50:19Z</time>
      </trkpt>
      <trkpt lat="44.38176" lon="5.94372">
        <ele>539</ele>
        <time>2019-04-02T13:50:20Z</time>
      </trkpt>
      <trkpt lat="44.38184" lon="5.94364">
        <ele>539</ele>
        <time>2019-04-02T13:50:21Z</time>
      </trkpt>
      <trkpt lat="44.38191" lon="5.94356">
        <ele>539</ele>
        <time>2019-04-02T13:50:22Z</time>
      </trkpt>
      <trkpt lat="44.38198" lon="5.94349">
        <ele>539</ele>
        <time>2019-04-02T13:50:23Z</time>
      </trkpt>
      <trkpt lat="44.38205" lon="5.94341">
        <ele>539</ele>
        <time>2019-04-02T13:50:24Z</time>
      </trkpt>
      <trkpt lat="44.38213" lon="5.94334">
        <ele>539</ele>
        <time>2019-04-02T13:50:25Z</time>
      </trkpt>
      <trkpt lat="44.38219" lon="5.94326">
        <ele>539</ele>
        <time>2019-04-02T13:50:26Z</time>
      </trkpt>
      <trkpt lat="44.38226" lon="5.94318">
        <ele>539</ele>
        <time>2019-04-02T13:50:27Z</time>
      </trkpt>
      <trkpt lat="44.38232" lon="5.94309">
        <ele>539</ele>
        <time>2019-04-02T13:50:28Z</time>
      </trkpt>
      <trkpt lat="44.38237" lon="5.943">
        <ele>539</ele>
        <time>2019-04-02T13:50:29Z</time>
      </trkpt>
      <trkpt lat="44.38243" lon="5.94291">
        <ele>539</ele>
        <time>2019-04-02T13:50:30Z</time>
      </trkpt>
      <trkpt lat="44.38248" lon="5.94282">
        <ele>539</ele>
        <time>2019-04-02T13:50:31Z</time>
      </trkpt>
      <trkpt lat="44.38252" lon="5.94273">
        <ele>539</ele>
        <time>2019-04-02T13:50:32Z</time>
      </trkpt>
      <trkpt lat="44.38256" lon="5.94264">
        <ele>539</ele>
        <time>2019-04-02T13:50:33Z</time>
      </trkpt>
      <trkpt lat="44.38261" lon="5.94255">
        <ele>539</ele>
        <time>2019-04-02T13:50:34Z</time>
      </trkpt>
      <trkpt lat="44.38265" lon="5.94246">
        <ele>539</ele>
        <time>2019-04-02T13:50:35Z</time>
      </trkpt>
      <trkpt lat="44.38269" lon="5.94238">
        <ele>539</ele>
        <time>2019-04-02T13:50:36Z</time>
      </trkpt>
      <trkpt lat="44.38273" lon="5.94229">
        <ele>539</ele>
        <time>2019-04-02T13:50:37Z</time>
      </trkpt>
      <trkpt lat="44.38277" lon="5.94221">
        <ele>539</ele>
        <time>2019-04-02T13:50:38Z</time>
      </trkpt>
      <trkpt lat="44.38281" lon="5.94213">
        <ele>539</ele>
        <time>2019-04-02T13:50:39Z</time>
      </trkpt>
      <trkpt lat="44.38285" lon="5.94206">
        <ele>539</ele>
        <time>2019-04-02T13:50:40Z</time>
      </trkpt>
      <trkpt lat="44.38289" lon="5.94198">
        <ele>539</ele>
        <time>2019-04-02T13:50:41Z</time>
      </trkpt>
      <trkpt lat="44.38293" lon="5.9419">
        <ele>539</ele>
        <time>2019-04-02T13:50:42Z</time>
      </trkpt>
      <trkpt lat="44.38297" lon="5.94183">
        <ele>539</ele>
        <time>2019-04-02T13:50:43Z</time>
      </trkpt>
      <trkpt lat="44.383" lon="5.94175">
        <ele>539</ele>
        <time>2019-04-02T13:50:44Z</time>
      </trkpt>
      <trkpt lat="44.38304" lon="5.94168">
        <ele>539</ele>
        <time>2019-04-02T13:50:45Z</time>
      </trkpt>
      <trkpt lat="44.38308" lon="5.94162">
        <ele>539</ele>
        <time>2019-04-02T13:50:46Z</time>
      </trkpt>
      <trkpt lat="44.38311" lon="5.94156">
        <ele>539</ele>
        <time>2019-04-02T13:50:47Z</time>
      </trkpt>
      <trkpt lat="44.38315" lon="5.94151">
        <ele>539</ele>
        <time>2019-04-02T13:50:48Z</time>
      </trkpt>
      <trkpt lat="44.38319" lon="5.94146">
        <ele>539</ele>
        <time>2019-04-02T13:50:49Z</time>
      </trkpt>
      <trkpt lat="44.38324" lon="5.94144">
        <ele>539</ele>
        <time>2019-04-02T13:50:50Z</time>
      </trkpt>
      <trkpt lat="44.38329" lon="5.94143">
        <ele>539</ele>
        <time>2019-04-02T13:50:51Z</time>
      </trkpt>
      <trkpt lat="44.38333" lon="5.94144">
        <ele>539</ele>
        <time>2019-04-02T13:50:52Z</time>
      </trkpt>
      <trkpt lat="44.38337" lon="5.94145">
        <ele>539</ele>
        <time>2019-04-02T13:50:53Z</time>
      </trkpt>
      <trkpt lat="44.38341" lon="5.94147">
        <ele>539</ele>
        <time>2019-04-02T13:50:54Z</time>
      </trkpt>
      <trkpt lat="44.38345" lon="5.94151">
        <ele>539</ele>
        <time>2019-04-02T13:50:55Z</time>
      </trkpt>
      <trkpt lat="44.38348" lon="5.94155">
        <ele>539</ele>
        <time>2019-04-02T13:50:56Z</time>
      </trkpt>
      <trkpt lat="44.38351" lon="5.94159">
        <ele>539</ele>
        <time>2019-04-02T13:50:57Z</time>
      </trkpt>
      <trkpt lat="44.38354" lon="5.94164">
        <ele>539</ele>
        <time>2019-04-02T13:50:58Z</time>
      </trkpt>
      <trkpt lat="44.38357" lon="5.94169">
        <ele>539</ele>
        <time>2019-04-02T13:50:59Z</time>
      </trkpt>
      <trkpt lat="44.38359" lon="5.94174">
        <ele>539</ele>
        <time>2019-04-02T13:51:00Z</time>
      </trkpt>
      <trkpt lat="44.38361" lon="5.9418">
        <ele>539</ele>
        <time>2019-04-02T13:51:01Z</time>
      </trkpt>
      <trkpt lat="44.38364" lon="5.94185">
        <ele>539</ele>
        <time>2019-04-02T13:51:02Z</time>
      </trkpt>
      <trkpt lat="44.38365" lon="5.9419">
        <ele>539</ele>
        <time>2019-04-02T13:51:03Z</time>
      </trkpt>
      <trkpt lat="44.38367" lon="5.94195">
        <ele>539</ele>
        <time>2019-04-02T13:51:04Z</time>
      </trkpt>
      <trkpt lat="44.38369" lon="5.942">
        <ele>539</ele>
        <time>2019-04-02T13:51:05Z</time>
      </trkpt>
      <trkpt lat="44.38371" lon="5.94205">
        <ele>539</ele>
        <time>2019-04-02T13:51:06Z</time>
      </trkpt>
      <trkpt lat="44.38373" lon="5.9421">
        <ele>539</ele>
        <time>2019-04-02T13:51:07Z</time>
      </trkpt>
      <trkpt lat="44.38375" lon="5.94214">
        <ele>539</ele>
        <time>2019-04-02T13:51:08Z</time>
      </trkpt>
      <trkpt lat="44.38377" lon="5.94219">
        <ele>539</ele>
        <time>2019-04-02T13:51:09Z</time>
      </trkpt>
      <trkpt lat="44.38379" lon="5.94224">
        <ele>539</ele>
        <time>2019-04-02T13:51:10Z</time>
      </trkpt>
      <trkpt lat="44.38382" lon="5.94228">
        <ele>539</ele>
        <time>2019-04-02T13:51:11Z</time>
      </trkpt>
      <trkpt lat="44.38384" lon="5.94232">
        <ele>539</ele>
        <time>2019-04-02T13:51:12Z</time>
      </trkpt>
      <trkpt lat="44.38387" lon="5.94236">
        <ele>539</ele>
        <time>2019-04-02T13:51:13Z</time>
      </trkpt>
      <trkpt lat="44.3839" lon="5.94239">
        <ele>539</ele>
        <time>2019-04-02T13:51:14Z</time>
      </trkpt>
      <trkpt lat="44.38393" lon="5.94242">
        <ele>539</ele>
        <time>2019-04-02T13:51:15Z</time>
      </trkpt>
      <trkpt lat="44.38396" lon="5.94245">
        <ele>539</ele>
        <time>2019-04-02T13:51:16Z</time>
      </trkpt>
      <trkpt lat="44.38399" lon="5.94248">
        <ele>539</ele>
        <time>2019-04-02T13:51:17Z</time>
      </trkpt>
      <trkpt lat="44.38403" lon="5.9425">
        <ele>539</ele>
        <time>2019-04-02T13:51:18Z</time>
      </trkpt>
      <trkpt lat="44.38406" lon="5.94252">
        <ele>539</ele>
        <time>2019-04-02T13:51:19Z</time>
      </trkpt>
      <trkpt lat="44.38409" lon="5.94254">
        <ele>539</ele>
        <time>2019-04-02T13:51:20Z</time>
      </trkpt>
      <trkpt lat="44.38412" lon="5.94256">
        <ele>539</ele>
        <time>2019-04-02T13:51:21Z</time>
      </trkpt>
      <trkpt lat="44.38415" lon="5.94258">
        <ele>539</ele>
        <time>2019-04-02T13:51:22Z</time>
      </trkpt>
      <trkpt lat="44.38419" lon="5.94261">
        <ele>540</ele>
        <time>2019-04-02T13:51:23Z</time>
      </trkpt>
      <trkpt lat="44.38422" lon="5.94263">
        <ele>540</ele>
        <time>2019-04-02T13:51:24Z</time>
      </trkpt>
      <trkpt lat="44.38425" lon="5.94265">
        <ele>540</ele>
        <time>2019-04-02T13:51:25Z</time>
      </trkpt>
      <trkpt lat="44.38428" lon="5.94268">
        <ele>541</ele>
        <time>2019-04-02T13:51:26Z</time>
      </trkpt>
      <trkpt lat="44.38432" lon="5.9427">
        <ele>541</ele>
        <time>2019-04-02T13:51:27Z</time>
      </trkpt>
      <trkpt lat="44.38435" lon="5.94272">
        <ele>541</ele>
        <time>2019-04-02T13:51:28Z</time>
      </trkpt>
      <trkpt lat="44.38438" lon="5.94275">
        <ele>541</ele>
        <time>2019-04-02T13:51:29Z</time>
      </trkpt>
      <trkpt lat="44.38442" lon="5.94277">
        <ele>541</ele>
        <time>2019-04-02T13:51:30Z</time>
      </trkpt>
      <trkpt lat="44.38445" lon="5.94278">
        <ele>542</ele>
        <time>2019-04-02T13:51:31Z</time>
      </trkpt>
      <trkpt lat="44.38448" lon="5.9428">
        <ele>542</ele>
        <time>2019-04-02T13:51:32Z</time>
      </trkpt>
      <trkpt lat="44.38451" lon="5.94281">
        <ele>542</ele>
        <time>2019-04-02T13:51:33Z</time>
      </trkpt>
      <trkpt lat="44.38454" lon="5.94282">
        <ele>542</ele>
        <time>2019-04-02T13:51:34Z</time>
      </trkpt>
      <trkpt lat="44.38457" lon="5.94283">
        <ele>542</ele>
        <time>2019-04-02T13:51:35Z</time>
      </trkpt>
      <trkpt lat="44.38461" lon="5.94284">
        <ele>542</ele>
        <time>2019-04-02T13:51:36Z</time>
      </trkpt>
      <trkpt lat="44.38464" lon="5.94284">
        <ele>543</ele>
        <time>2019-04-02T13:51:37Z</time>
      </trkpt>
      <trkpt lat="44.38467" lon="5.94284">
        <ele>543</ele>
        <time>2019-04-02T13:51:38Z</time>
      </trkpt>
      <trkpt lat="44.38471" lon="5.94283">
        <ele>543</ele>
        <time>2019-04-02T13:51:39Z</time>
      </trkpt>
      <trkpt lat="44.38474" lon="5.94281">
        <ele>543</ele>
        <time>2019-04-02T13:51:40Z</time>
      </trkpt>
      <trkpt lat="44.38477" lon="5.9428">
        <ele>543</ele>
        <time>2019-04-02T13:51:41Z</time>
      </trkpt>
      <trkpt lat="44.3848" lon="5.94278">
        <ele>543</ele>
        <time>2019-04-02T13:51:42Z</time>
      </trkpt>
      <trkpt lat="44.38482" lon="5.94275">
        <ele>543</ele>
        <time>2019-04-02T13:51:43Z</time>
      </trkpt>
      <trkpt lat="44.38484" lon="5.94272">
        <ele>543</ele>
        <time>2019-04-02T13:51:44Z</time>
      </trkpt>
      <trkpt lat="44.38486" lon="5.94269">
        <ele>544</ele>
        <time>2019-04-02T13:51:45Z</time>
      </trkpt>
      <trkpt lat="44.38487" lon="5.94265">
        <ele>544</ele>
        <time>2019-04-02T13:51:46Z</time>
      </trkpt>
      <trkpt lat="44.38488" lon="5.94261">
        <ele>544</ele>
        <time>2019-04-02T13:51:47Z</time>
      </trkpt>
      <trkpt lat="44.38489" lon="5.94256">
        <ele>544</ele>
        <time>2019-04-02T13:51:48Z</time>
      </trkpt>
      <trkpt lat="44.3849" lon="5.94252">
        <ele>544</ele>
        <time>2019-04-02T13:51:49Z</time>
      </trkpt>
      <trkpt lat="44.3849" lon="5.94246">
        <ele>544</ele>
        <time>2019-04-02T13:51:50Z</time>
      </trkpt>
      <trkpt lat="44.3849" lon="5.94241">
        <ele>544</ele>
        <time>2019-04-02T13:51:51Z</time>
      </trkpt>
      <trkpt lat="44.38491" lon="5.94236">
        <ele>544</ele>
        <time>2019-04-02T13:51:52Z</time>
      </trkpt>
      <trkpt lat="44.38491" lon="5.9423">
        <ele>544</ele>
        <time>2019-04-02T13:51:53Z</time>
      </trkpt>
      <trkpt lat="44.38491" lon="5.94225">
        <ele>544</ele>
        <time>2019-04-02T13:51:54Z</time>
      </trkpt>
      <trkpt lat="44.38491" lon="5.94219">
        <ele>544</ele>
        <time>2019-04-02T13:51:55Z</time>
      </trkpt>
      <trkpt lat="44.38492" lon="5.94214">
        <ele>544</ele>
        <time>2019-04-02T13:51:56Z</time>
      </trkpt>
      <trkpt lat="44.38493" lon="5.94209">
        <ele>544</ele>
        <time>2019-04-02T13:51:57Z</time>
      </trkpt>
      <trkpt lat="44.38493" lon="5.94203">
        <ele>544</ele>
        <time>2019-04-02T13:51:58Z</time>
      </trkpt>
      <trkpt lat="44.38494" lon="5.94197">
        <ele>544</ele>
        <time>2019-04-02T13:51:59Z</time>
      </trkpt>
      <trkpt lat="44.38494" lon="5.94192">
        <ele>544</ele>
        <time>2019-04-02T13:52:00Z</time>
      </trkpt>
      <trkpt lat="44.38496" lon="5.94186">
        <ele>544</ele>
        <time>2019-04-02T13:52:01Z</time>
      </trkpt>
      <trkpt lat="44.38496" lon="5.9418">
        <ele>544</ele>
        <time>2019-04-02T13:52:02Z</time>
      </trkpt>
      <trkpt lat="44.38498" lon="5.94173">
        <ele>544</ele>
        <time>2019-04-02T13:52:03Z</time>
      </trkpt>
      <trkpt lat="44.38499" lon="5.94166">
        <ele>544</ele>
        <time>2019-04-02T13:52:04Z</time>
      </trkpt>
      <trkpt lat="44.385" lon="5.94159">
        <ele>544</ele>
        <time>2019-04-02T13:52:05Z</time>
      </trkpt>
      <trkpt lat="44.38501" lon="5.94152">
        <ele>544</ele>
        <time>2019-04-02T13:52:06Z</time>
      </trkpt>
      <trkpt lat="44.38503" lon="5.94144">
        <ele>544</ele>
        <time>2019-04-02T13:52:07Z</time>
      </trkpt>
      <trkpt lat="44.38504" lon="5.94137">
        <ele>544</ele>
        <time>2019-04-02T13:52:08Z</time>
      </trkpt>
      <trkpt lat="44.38505" lon="5.94129">
        <ele>544</ele>
        <time>2019-04-02T13:52:09Z</time>
      </trkpt>
      <trkpt lat="44.38505" lon="5.9412">
        <ele>544</ele>
        <time>2019-04-02T13:52:10Z</time>
      </trkpt>
      <trkpt lat="44.38506" lon="5.94113">
        <ele>544</ele>
        <time>2019-04-02T13:52:11Z</time>
      </trkpt>
      <trkpt lat="44.38507" lon="5.94105">
        <ele>544</ele>
        <time>2019-04-02T13:52:12Z</time>
      </trkpt>
      <trkpt lat="44.38508" lon="5.94098">
        <ele>544</ele>
        <time>2019-04-02T13:52:13Z</time>
      </trkpt>
      <trkpt lat="44.38509" lon="5.9409">
        <ele>544</ele>
        <time>2019-04-02T13:52:14Z</time>
      </trkpt>
      <trkpt lat="44.38509" lon="5.94082">
        <ele>544</ele>
        <time>2019-04-02T13:52:15Z</time>
      </trkpt>
      <trkpt lat="44.3851" lon="5.94074">
        <ele>544</ele>
        <time>2019-04-02T13:52:16Z</time>
      </trkpt>
      <trkpt lat="44.38511" lon="5.94066">
        <ele>544</ele>
        <time>2019-04-02T13:52:17Z</time>
      </trkpt>
      <trkpt lat="44.38511" lon="5.94058">
        <ele>544</ele>
        <time>2019-04-02T13:52:18Z</time>
      </trkpt>
      <trkpt lat="44.38511" lon="5.9405">
        <ele>544</ele>
        <time>2019-04-02T13:52:19Z</time>
      </trkpt>
      <trkpt lat="44.38511" lon="5.94041">
        <ele>544</ele>
        <time>2019-04-02T13:52:20Z</time>
      </trkpt>
      <trkpt lat="44.38511" lon="5.94033">
        <ele>544</ele>
        <time>2019-04-02T13:52:21Z</time>
      </trkpt>
      <trkpt lat="44.3851" lon="5.94025">
        <ele>544</ele>
        <time>2019-04-02T13:52:22Z</time>
      </trkpt>
      <trkpt lat="44.3851" lon="5.94016">
        <ele>544</ele>
        <time>2019-04-02T13:52:23Z</time>
      </trkpt>
      <trkpt lat="44.38509" lon="5.94008">
        <ele>544</ele>
        <time>2019-04-02T13:52:24Z</time>
      </trkpt>
      <trkpt lat="44.38509" lon="5.93999">
        <ele>544</ele>
        <time>2019-04-02T13:52:25Z</time>
      </trkpt>
      <trkpt lat="44.38508" lon="5.93991">
        <ele>544</ele>
        <time>2019-04-02T13:52:26Z</time>
      </trkpt>
      <trkpt lat="44.38507" lon="5.93983">
        <ele>544</ele>
        <time>2019-04-02T13:52:27Z</time>
      </trkpt>
      <trkpt lat="44.38507" lon="5.93974">
        <ele>544</ele>
        <time>2019-04-02T13:52:28Z</time>
      </trkpt>
      <trkpt lat="44.38507" lon="5.93966">
        <ele>544</ele>
        <time>2019-04-02T13:52:29Z</time>
      </trkpt>
      <trkpt lat="44.38509" lon="5.93958">
        <ele>544</ele>
        <time>2019-04-02T13:52:30Z</time>
      </trkpt>
      <trkpt lat="44.38512" lon="5.93951">
        <ele>544</ele>
        <time>2019-04-02T13:52:31Z</time>
      </trkpt>
      <trkpt lat="44.38515" lon="5.93946">
        <ele>544</ele>
        <time>2019-04-02T13:52:32Z</time>
      </trkpt>
      <trkpt lat="44.3852" lon="5.93942">
        <ele>544</ele>
        <time>2019-04-02T13:52:33Z</time>
      </trkpt>
      <trkpt lat="44.38525" lon="5.9394">
        <ele>544</ele>
        <time>2019-04-02T13:52:34Z</time>
      </trkpt>
      <trkpt lat="44.38529" lon="5.93938">
        <ele>544</ele>
        <time>2019-04-02T13:52:35Z</time>
      </trkpt>
      <trkpt lat="44.38533" lon="5.93937">
        <ele>544</ele>
        <time>2019-04-02T13:52:36Z</time>
      </trkpt>
      <trkpt lat="44.38537" lon="5.93936">
        <ele>544</ele>
        <time>2019-04-02T13:52:37Z</time>
      </trkpt>
      <trkpt lat="44.38541" lon="5.93935">
        <ele>544</ele>
        <time>2019-04-02T13:52:38Z</time>
      </trkpt>
      <trkpt lat="44.38545" lon="5.93935">
        <ele>544</ele>
        <time>2019-04-02T13:52:39Z</time>
      </trkpt>
      <trkpt lat="44.38548" lon="5.93934">
        <ele>544</ele>
        <time>2019-04-02T13:52:40Z</time>
      </trkpt>
      <trkpt lat="44.38552" lon="5.93933">
        <ele>545</ele>
        <time>2019-04-02T13:52:41Z</time>
      </trkpt>
      <trkpt lat="44.38556" lon="5.93933">
        <ele>545</ele>
        <time>2019-04-02T13:52:42Z</time>
      </trkpt>
      <trkpt lat="44.38559" lon="5.93932">
        <ele>545</ele>
        <time>2019-04-02T13:52:43Z</time>
      </trkpt>
      <trkpt lat="44.38563" lon="5.93931">
        <ele>546</ele>
        <time>2019-04-02T13:52:44Z</time>
      </trkpt>
      <trkpt lat="44.38566" lon="5.9393">
        <ele>546</ele>
        <time>2019-04-02T13:52:45Z</time>
      </trkpt>
      <trkpt lat="44.3857" lon="5.9393">
        <ele>546</ele>
        <time>2019-04-02T13:52:46Z</time>
      </trkpt>
      <trkpt lat="44.38573" lon="5.93929">
        <ele>547</ele>
        <time>2019-04-02T13:52:47Z</time>
      </trkpt>
      <trkpt lat="44.38576" lon="5.93928">
        <ele>547</ele>
        <time>2019-04-02T13:52:48Z</time>
      </trkpt>
      <trkpt lat="44.38579" lon="5.93927">
        <ele>548</ele>
        <time>2019-04-02T13:52:49Z</time>
      </trkpt>
      <trkpt lat="44.38583" lon="5.93927">
        <ele>548</ele>
        <time>2019-04-02T13:52:50Z</time>
      </trkpt>
      <trkpt lat="44.38586" lon="5.93926">
        <ele>548</ele>
        <time>2019-04-02T13:52:51Z</time>
      </trkpt>
      <trkpt lat="44.38589" lon="5.93926">
        <ele>549</ele>
        <time>2019-04-02T13:52:52Z</time>
      </trkpt>
      <trkpt lat="44.38592" lon="5.93925">
        <ele>549</ele>
        <time>2019-04-02T13:52:53Z</time>
      </trkpt>
      <trkpt lat="44.38595" lon="5.93925">
        <ele>549</ele>
        <time>2019-04-02T13:52:54Z</time>
      </trkpt>
      <trkpt lat="44.38598" lon="5.93925">
        <ele>550</ele>
        <time>2019-04-02T13:52:55Z</time>
      </trkpt>
      <trkpt lat="44.38601" lon="5.93924">
        <ele>550</ele>
        <time>2019-04-02T13:52:56Z</time>
      </trkpt>
      <trkpt lat="44.38604" lon="5.93923">
        <ele>551</ele>
        <time>2019-04-02T13:52:57Z</time>
      </trkpt>
      <trkpt lat="44.38607" lon="5.93923">
        <ele>551</ele>
        <time>2019-04-02T13:52:58Z</time>
      </trkpt>
      <trkpt lat="44.3861" lon="5.93922">
        <ele>551</ele>
        <time>2019-04-02T13:52:59Z</time>
      </trkpt>
      <trkpt lat="44.38613" lon="5.93922">
        <ele>552</ele>
        <time>2019-04-02T13:53:00Z</time>
      </trkpt>
      <trkpt lat="44.38616" lon="5.93921">
        <ele>552</ele>
        <time>2019-04-02T13:53:01Z</time>
      </trkpt>
      <trkpt lat="44.38619" lon="5.93921">
        <ele>552</ele>
        <time>2019-04-02T13:53:02Z</time>
      </trkpt>
      <trkpt lat="44.38622" lon="5.9392">
        <ele>553</ele>
        <time>2019-04-02T13:53:03Z</time>
      </trkpt>
      <trkpt lat="44.38625" lon="5.9392">
        <ele>553</ele>
        <time>2019-04-02T13:53:04Z</time>
      </trkpt>
      <trkpt lat="44.38628" lon="5.93919">
        <ele>553</ele>
        <time>2019-04-02T13:53:05Z</time>
      </trkpt>
      <trkpt lat="44.38631" lon="5.93919">
        <ele>554</ele>
        <time>2019-04-02T13:53:06Z</time>
      </trkpt>
      <trkpt lat="44.38634" lon="5.93918">
        <ele>554</ele>
        <time>2019-04-02T13:53:07Z</time>
      </trkpt>
      <trkpt lat="44.38637" lon="5.93918">
        <ele>554</ele>
        <time>2019-04-02T13:53:08Z</time>
      </trkpt>
      <trkpt lat="44.38639" lon="5.93917">
        <ele>555</ele>
        <time>2019-04-02T13:53:09Z</time>
      </trkpt>
      <trkpt lat="44.38642" lon="5.93916">
        <ele>555</ele>
        <time>2019-04-02T13:53:10Z</time>
      </trkpt>
      <trkpt lat="44.38645" lon="5.93916">
        <ele>555</ele>
        <time>2019-04-02T13:53:11Z</time>
      </trkpt>
      <trkpt lat="44.38648" lon="5.93915">
        <ele>556</ele>
        <time>2019-04-02T13:53:12Z</time>
      </trkpt>
      <trkpt lat="44.38651" lon="5.93915">
        <ele>556</ele>
        <time>2019-04-02T13:53:13Z</time>
      </trkpt>
      <trkpt lat="44.38654" lon="5.93914">
        <ele>556</ele>
        <time>2019-04-02T13:53:14Z</time>
      </trkpt>
      <trkpt lat="44.38657" lon="5.93914">
        <ele>557</ele>
        <time>2019-04-02T13:53:15Z</time>
      </trkpt>
      <trkpt lat="44.3866" lon="5.93913">
        <ele>557</ele>
        <time>2019-04-02T13:53:16Z</time>
      </trkpt>
      <trkpt lat="44.38662" lon="5.93912">
        <ele>557</ele>
        <time>2019-04-02T13:53:17Z</time>
      </trkpt>
      <trkpt lat="44.38665" lon="5.93911">
        <ele>557</ele>
        <time>2019-04-02T13:53:18Z</time>
      </trkpt>
      <trkpt lat="44.38668" lon="5.9391">
        <ele>558</ele>
        <time>2019-04-02T13:53:19Z</time>
      </trkpt>
      <trkpt lat="44.3867" lon="5.93909">
        <ele>558</ele>
        <time>2019-04-02T13:53:20Z</time>
      </trkpt>
      <trkpt lat="44.38673" lon="5.93907">
        <ele>558</ele>
        <time>2019-04-02T13:53:21Z</time>
      </trkpt>
      <trkpt lat="44.38676" lon="5.93906">
        <ele>559</ele>
        <time>2019-04-02T13:53:22Z</time>
      </trkpt>
      <trkpt lat="44.38678" lon="5.93905">
        <ele>559</ele>
        <time>2019-04-02T13:53:23Z</time>
      </trkpt>
      <trkpt lat="44.3868" lon="5.93903">
        <ele>560</ele>
        <time>2019-04-02T13:53:24Z</time>
      </trkpt>
      <trkpt lat="44.38683" lon="5.93902">
        <ele>560</ele>
        <time>2019-04-02T13:53:25Z</time>
      </trkpt>
      <trkpt lat="44.38685" lon="5.93899">
        <ele>560</ele>
        <time>2019-04-02T13:53:26Z</time>
      </trkpt>
      <trkpt lat="44.38687" lon="5.93897">
        <ele>561</ele>
        <time>2019-04-02T13:53:27Z</time>
      </trkpt>
      <trkpt lat="44.38688" lon="5.93894">
        <ele>561</ele>
        <time>2019-04-02T13:53:28Z</time>
      </trkpt>
      <trkpt lat="44.3869" lon="5.9389">
        <ele>562</ele>
        <time>2019-04-02T13:53:29Z</time>
      </trkpt>
      <trkpt lat="44.38691" lon="5.93886">
        <ele>562</ele>
        <time>2019-04-02T13:53:30Z</time>
      </trkpt>
      <trkpt lat="44.38692" lon="5.93882">
        <ele>562</ele>
        <time>2019-04-02T13:53:31Z</time>
      </trkpt>
      <trkpt lat="44.38694" lon="5.93877">
        <ele>562</ele>
        <time>2019-04-02T13:53:32Z</time>
      </trkpt>
      <trkpt lat="44.38694" lon="5.93872">
        <ele>563</ele>
        <time>2019-04-02T13:53:33Z</time>
      </trkpt>
      <trkpt lat="44.38695" lon="5.93868">
        <ele>563</ele>
        <time>2019-04-02T13:53:34Z</time>
      </trkpt>
      <trkpt lat="44.38695" lon="5.93863">
        <ele>563</ele>
        <time>2019-04-02T13:53:35Z</time>
      </trkpt>
      <trkpt lat="44.38696" lon="5.93859">
        <ele>563</ele>
        <time>2019-04-02T13:53:36Z</time>
      </trkpt>
      <trkpt lat="44.38696" lon="5.93854">
        <ele>563</ele>
        <time>2019-04-02T13:53:37Z</time>
      </trkpt>
      <trkpt lat="44.38696" lon="5.93849">
        <ele>563</ele>
        <time>2019-04-02T13:53:38Z</time>
      </trkpt>
      <trkpt lat="44.38696" lon="5.93845">
        <ele>563</ele>
        <time>2019-04-02T13:53:39Z</time>
      </trkpt>
      <trkpt lat="44.38696" lon="5.9384">
        <ele>563</ele>
        <time>2019-04-02T13:53:40Z</time>
      </trkpt>
      <trkpt lat="44.38697" lon="5.93835">
        <ele>563</ele>
        <time>2019-04-02T13:53:41Z</time>
      </trkpt>
      <trkpt lat="44.38697" lon="5.93831">
        <ele>563</ele>
        <time>2019-04-02T13:53:42Z</time>
      </trkpt>
      <trkpt lat="44.38697" lon="5.93827">
        <ele>563</ele>
        <time>2019-04-02T13:53:43Z</time>
      </trkpt>
      <trkpt lat="44.38697" lon="5.93822">
        <ele>563</ele>
        <time>2019-04-02T13:53:44Z</time>
      </trkpt>
      <trkpt lat="44.38697" lon="5.93818">
        <ele>563</ele>
        <time>2019-04-02T13:53:45Z</time>
      </trkpt>
      <trkpt lat="44.38697" lon="5.93814">
        <ele>563</ele>
        <time>2019-04-02T13:53:46Z</time>
      </trkpt>
      <trkpt lat="44.38697" lon="5.93809">
        <ele>563</ele>
        <time>2019-04-02T13:53:47Z</time>
      </trkpt>
      <trkpt lat="44.38697" lon="5.93805">
        <ele>563</ele>
        <time>2019-04-02T13:53:48Z</time>
      </trkpt>
      <trkpt lat="44.38698" lon="5.938">
        <ele>563</ele>
        <time>2019-04-02T13:53:49Z</time>
      </trkpt>
      <trkpt lat="44.38698" lon="5.93796">
        <ele>563</ele>
        <time>2019-04-02T13:53:50Z</time>
      </trkpt>
      <trkpt lat="44.38698" lon="5.93792">
        <ele>563</ele>
        <time>2019-04-02T13:53:51Z</time>
      </trkpt>
      <trkpt lat="44.38698" lon="5.93788">
        <ele>563</ele>
        <time>2019-04-02T13:53:52Z</time>
      </trkpt>
      <trkpt lat="44.38698" lon="5.93783">
        <ele>563</ele>
        <time>2019-04-02T13:53:53Z</time>
      </trkpt>
      <trkpt lat="44.38699" lon="5.93778">
        <ele>563</ele>
        <time>2019-04-02T13:53:54Z</time>
      </trkpt>
      <trkpt lat="44.38699" lon="5.93772">
        <ele>563</ele>
        <time>2019-04-02T13:53:55Z</time>
      </trkpt>
      <trkpt lat="44.387" lon="5.93767">
        <ele>563</ele>
        <time>2019-04-02T13:53:56Z</time>
      </trkpt>
      <trkpt lat="44.387" lon="5.93761">
        <ele>563</ele>
        <time>2019-04-02T13:53:57Z</time>
      </trkpt>
      <trkpt lat="44.387" lon="5.93755">
        <ele>563</ele>
        <time>2019-04-02T13:53:58Z</time>
      </trkpt>
      <trkpt lat="44.38701" lon="5.9375">
        <ele>563</ele>
        <time>2019-04-02T13:53:59Z</time>
      </trkpt>
      <trkpt lat="44.38702" lon="5.93745">
        <ele>563</ele>
        <time>2019-04-02T13:54:00Z</time>
      </trkpt>
      <trkpt lat="44.38702" lon="5.9374">
        <ele>563</ele>
        <time>2019-04-02T13:54:01Z</time>
      </trkpt>
      <trkpt lat="44.38702" lon="5.93736">
        <ele>563</ele>
        <time>2019-04-02T13:54:02Z</time>
      </trkpt>
      <trkpt lat="44.38702" lon="5.93731">
        <ele>563</ele>
        <time>2019-04-02T13:54:03Z</time>
      </trkpt>
      <trkpt lat="44.38703" lon="5.93726">
        <ele>563</ele>
        <time>2019-04-02T13:54:04Z</time>
      </trkpt>
      <trkpt lat="44.38703" lon="5.93721">
        <ele>563</ele>
        <time>2019-04-02T13:54:05Z</time>
      </trkpt>
      <trkpt lat="44.38703" lon="5.93716">
        <ele>563</ele>
        <time>2019-04-02T13:54:06Z</time>
      </trkpt>
      <trkpt lat="44.38704" lon="5.93712">
        <ele>563</ele>
        <time>2019-04-02T13:54:07Z</time>
      </trkpt>
      <trkpt lat="44.38704" lon="5.93707">
        <ele>563</ele>
        <time>2019-04-02T13:54:08Z</time>
      </trkpt>
      <trkpt lat="44.38705" lon="5.93702">
        <ele>563</ele>
        <time>2019-04-02T13:54:09Z</time>
      </trkpt>
      <trkpt lat="44.38705" lon="5.93697">
        <ele>563</ele>
        <time>2019-04-02T13:54:10Z</time>
      </trkpt>
      <trkpt lat="44.38705" lon="5.93692">
        <ele>563</ele>
        <time>2019-04-02T13:54:11Z</time>
      </trkpt>
      <trkpt lat="44.38705" lon="5.93687">
        <ele>563</ele>
        <time>2019-04-02T13:54:12Z</time>
      </trkpt>
      <trkpt lat="44.38705" lon="5.93682">
        <ele>563</ele>
        <time>2019-04-02T13:54:13Z</time>
      </trkpt>
      <trkpt lat="44.38706" lon="5.93677">
        <ele>563</ele>
        <time>2019-04-02T13:54:14Z</time>
      </trkpt>
      <trkpt lat="44.38706" lon="5.93671">
        <ele>563</ele>
        <time>2019-04-02T13:54:15Z</time>
      </trkpt>
      <trkpt lat="44.38706" lon="5.93666">
        <ele>563</ele>
        <time>2019-04-02T13:54:16Z</time>
      </trkpt>
      <trkpt lat="44.38705" lon="5.9366">
        <ele>563</ele>
        <time>2019-04-02T13:54:17Z</time>
      </trkpt>
      <trkpt lat="44.38705" lon="5.93655">
        <ele>563</ele>
        <time>2019-04-02T13:54:18Z</time>
      </trkpt>
      <trkpt lat="44.38705" lon="5.9365">
        <ele>563</ele>
        <time>2019-04-02T13:54:19Z</time>
      </trkpt>
      <trkpt lat="44.38705" lon="5.93644">
        <ele>563</ele>
        <time>2019-04-02T13:54:20Z</time>
      </trkpt>
      <trkpt lat="44.38706" lon="5.93639">
        <ele>563</ele>
        <time>2019-04-02T13:54:21Z</time>
      </trkpt>
      <trkpt lat="44.38706" lon="5.93633">
        <ele>563</ele>
        <time>2019-04-02T13:54:22Z</time>
      </trkpt>
      <trkpt lat="44.38706" lon="5.93628">
        <ele>563</ele>
        <time>2019-04-02T13:54:23Z</time>
      </trkpt>
      <trkpt lat="44.38707" lon="5.93622">
        <ele>563</ele>
        <time>2019-04-02T13:54:24Z</time>
      </trkpt>
      <trkpt lat="44.38707" lon="5.93617">
        <ele>563</ele>
        <time>2019-04-02T13:54:25Z</time>
      </trkpt>
      <trkpt lat="44.38707" lon="5.93611">
        <ele>563</ele>
        <time>2019-04-02T13:54:26Z</time>
      </trkpt>
      <trkpt lat="44.38707" lon="5.93606">
        <ele>563</ele>
        <time>2019-04-02T13:54:27Z</time>
      </trkpt>
      <trkpt lat="44.38707" lon="5.936">
        <ele>563</ele>
        <time>2019-04-02T13:54:28Z</time>
      </trkpt>
      <trkpt lat="44.38705" lon="5.93595">
        <ele>563</ele>
        <time>2019-04-02T13:54:29Z</time>
      </trkpt>
      <trkpt lat="44.38703" lon="5.9359">
        <ele>563</ele>
        <time>2019-04-02T13:54:30Z</time>
      </trkpt>
      <trkpt lat="44.38699" lon="5.93586">
        <ele>563</ele>
        <time>2019-04-02T13:54:31Z</time>
      </trkpt>
      <trkpt lat="44.38696" lon="5.93583">
        <ele>563</ele>
        <time>2019-04-02T13:54:32Z</time>
      </trkpt>
      <trkpt lat="44.38691" lon="5.9358">
        <ele>563</ele>
        <time>2019-04-02T13:54:33Z</time>
      </trkpt>
      <trkpt lat="44.38687" lon="5.93577">
        <ele>563</ele>
        <time>2019-04-02T13:54:34Z</time>
      </trkpt>
      <trkpt lat="44.38682" lon="5.93574">
        <ele>563</ele>
        <time>2019-04-02T13:54:35Z</time>
      </trkpt>
      <trkpt lat="44.38677" lon="5.93571">
        <ele>563</ele>
        <time>2019-04-02T13:54:36Z</time>
      </trkpt>
      <trkpt lat="44.38671" lon="5.93568">
        <ele>563</ele>
        <time>2019-04-02T13:54:37Z</time>
      </trkpt>
      <trkpt lat="44.38666" lon="5.93564">
        <ele>563</ele>
        <time>2019-04-02T13:54:38Z</time>
      </trkpt>
      <trkpt lat="44.38661" lon="5.9356">
        <ele>563</ele>
        <time>2019-04-02T13:54:39Z</time>
      </trkpt>
      <trkpt lat="44.38655" lon="5.93556">
        <ele>563</ele>
        <time>2019-04-02T13:54:40Z</time>
      </trkpt>
      <trkpt lat="44.38649" lon="5.93552">
        <ele>563</ele>
        <time>2019-04-02T13:54:41Z</time>
      </trkpt>
      <trkpt lat="44.38643" lon="5.93549">
        <ele>563</ele>
        <time>2019-04-02T13:54:42Z</time>
      </trkpt>
      <trkpt lat="44.38637" lon="5.93545">
        <ele>563</ele>
        <time>2019-04-02T13:54:43Z</time>
      </trkpt>
      <trkpt lat="44.38631" lon="5.93541">
        <ele>563</ele>
        <time>2019-04-02T13:54:44Z</time>
      </trkpt>
      <trkpt lat="44.38625" lon="5.93536">
        <ele>563</ele>
        <time>2019-04-02T13:54:45Z</time>
      </trkpt>
      <trkpt lat="44.38619" lon="5.93532">
        <ele>563</ele>
        <time>2019-04-02T13:54:46Z</time>
      </trkpt>
      <trkpt lat="44.38612" lon="5.93527">
        <ele>563</ele>
        <time>2019-04-02T13:54:47Z</time>
      </trkpt>
      <trkpt lat="44.38606" lon="5.93523">
        <ele>563</ele>
        <time>2019-04-02T13:54:48Z</time>
      </trkpt>
      <trkpt lat="44.386" lon="5.93519">
        <ele>563</ele>
        <time>2019-04-02T13:54:49Z</time>
      </trkpt>
      <trkpt lat="44.38594" lon="5.93514">
        <ele>563</ele>
        <time>2019-04-02T13:54:50Z</time>
      </trkpt>
      <trkpt lat="44.38588" lon="5.9351">
        <ele>563</ele>
        <time>2019-04-02T13:54:51Z</time>
      </trkpt>
      <trkpt lat="44.38581" lon="5.93505">
        <ele>563</ele>
        <time>2019-04-02T13:54:52Z</time>
      </trkpt>
      <trkpt lat="44.38575" lon="5.935">
        <ele>563</ele>
        <time>2019-04-02T13:54:53Z</time>
      </trkpt>
      <trkpt lat="44.38569" lon="5.93495">
        <ele>563</ele>
        <time>2019-04-02T13:54:54Z</time>
      </trkpt>
      <trkpt lat="44.38562" lon="5.9349">
        <ele>563</ele>
        <time>2019-04-02T13:54:55Z</time>
      </trkpt>
      <trkpt lat="44.38556" lon="5.93484">
        <ele>563</ele>
        <time>2019-04-02T13:54:56Z</time>
      </trkpt>
      <trkpt lat="44.3855" lon="5.9348">
        <ele>563</ele>
        <time>2019-04-02T13:54:57Z</time>
      </trkpt>
      <trkpt lat="44.38544" lon="5.93475">
        <ele>563</ele>
        <time>2019-04-02T13:54:58Z</time>
      </trkpt>
      <trkpt lat="44.38538" lon="5.93471">
        <ele>563</ele>
        <time>2019-04-02T13:54:59Z</time>
      </trkpt>
      <trkpt lat="44.38531" lon="5.93467">
        <ele>563</ele>
        <time>2019-04-02T13:55:00Z</time>
      </trkpt>
      <trkpt lat="44.38525" lon="5.93463">
        <ele>563</ele>
        <time>2019-04-02T13:55:01Z</time>
      </trkpt>
      <trkpt lat="44.38519" lon="5.93458">
        <ele>563</ele>
        <time>2019-04-02T13:55:02Z</time>
      </trkpt>
      <trkpt lat="44.38514" lon="5.93454">
        <ele>563</ele>
        <time>2019-04-02T13:55:03Z</time>
      </trkpt>
      <trkpt lat="44.38508" lon="5.9345">
        <ele>563</ele>
        <time>2019-04-02T13:55:04Z</time>
      </trkpt>
      <trkpt lat="44.38502" lon="5.93445">
        <ele>563</ele>
        <time>2019-04-02T13:55:05Z</time>
      </trkpt>
      <trkpt lat="44.38497" lon="5.93441">
        <ele>563</ele>
        <time>2019-04-02T13:55:06Z</time>
      </trkpt>
      <trkpt lat="44.38491" lon="5.93437">
        <ele>563</ele>
        <time>2019-04-02T13:55:07Z</time>
      </trkpt>
      <trkpt lat="44.38486" lon="5.93434">
        <ele>563</ele>
        <time>2019-04-02T13:55:08Z</time>
      </trkpt>
      <trkpt lat="44.38481" lon="5.9343">
        <ele>563</ele>
        <time>2019-04-02T13:55:09Z</time>
      </trkpt>
      <trkpt lat="44.38475" lon="5.93426">
        <ele>563</ele>
        <time>2019-04-02T13:55:10Z</time>
      </trkpt>
      <trkpt lat="44.3847" lon="5.93423">
        <ele>563</ele>
        <time>2019-04-02T13:55:11Z</time>
      </trkpt>
      <trkpt lat="44.38465" lon="5.93419">
        <ele>563</ele>
        <time>2019-04-02T13:55:12Z</time>
      </trkpt>
      <trkpt lat="44.3846" lon="5.93416">
        <ele>563</ele>
        <time>2019-04-02T13:55:13Z</time>
      </trkpt>
      <trkpt lat="44.38454" lon="5.93412">
        <ele>563</ele>
        <time>2019-04-02T13:55:14Z</time>
      </trkpt>
      <trkpt lat="44.38449" lon="5.93409">
        <ele>563</ele>
        <time>2019-04-02T13:55:15Z</time>
      </trkpt>
      <trkpt lat="44.38444" lon="5.93405">
        <ele>563</ele>
        <time>2019-04-02T13:55:16Z</time>
      </trkpt>
      <trkpt lat="44.38439" lon="5.93401">
        <ele>563</ele>
        <time>2019-04-02T13:55:17Z</time>
      </trkpt>
      <trkpt lat="44.38434" lon="5.93398">
        <ele>563</ele>
        <time>2019-04-02T13:55:18Z</time>
      </trkpt>
      <trkpt lat="44.38429" lon="5.93394">
        <ele>563</ele>
        <time>2019-04-02T13:55:19Z</time>
      </trkpt>
      <trkpt lat="44.38424" lon="5.93391">
        <ele>563</ele>
        <time>2019-04-02T13:55:20Z</time>
      </trkpt>
      <trkpt lat="44.38419" lon="5.93387">
        <ele>563</ele>
        <time>2019-04-02T13:55:21Z</time>
      </trkpt>
      <trkpt lat="44.38413" lon="5.93384">
        <ele>563</ele>
        <time>2019-04-02T13:55:22Z</time>
      </trkpt>
      <trkpt lat="44.38408" lon="5.9338">
        <ele>563</ele>
        <time>2019-04-02T13:55:23Z</time>
      </trkpt>
      <trkpt lat="44.38403" lon="5.93376">
        <ele>563</ele>
        <time>2019-04-02T13:55:24Z</time>
      </trkpt>
      <trkpt lat="44.38398" lon="5.93373">
        <ele>563</ele>
        <time>2019-04-02T13:55:25Z</time>
      </trkpt>
      <trkpt lat="44.38393" lon="5.9337">
        <ele>563</ele>
        <time>2019-04-02T13:55:26Z</time>
      </trkpt>
      <trkpt lat="44.38388" lon="5.93366">
        <ele>563</ele>
        <time>2019-04-02T13:55:27Z</time>
      </trkpt>
      <trkpt lat="44.38384" lon="5.93363">
        <ele>563</ele>
        <time>2019-04-02T13:55:28Z</time>
      </trkpt>
      <trkpt lat="44.38379" lon="5.9336">
        <ele>563</ele>
        <time>2019-04-02T13:55:29Z</time>
      </trkpt>
      <trkpt lat="44.38375" lon="5.93357">
        <ele>563</ele>
        <time>2019-04-02T13:55:30Z</time>
      </trkpt>
      <trkpt lat="44.3837" lon="5.93354">
        <ele>563</ele>
        <time>2019-04-02T13:55:31Z</time>
      </trkpt>
      <trkpt lat="44.38366" lon="5.93351">
        <ele>563</ele>
        <time>2019-04-02T13:55:32Z</time>
      </trkpt>
      <trkpt lat="44.38361" lon="5.93348">
        <ele>563</ele>
        <time>2019-04-02T13:55:33Z</time>
      </trkpt>
      <trkpt lat="44.38357" lon="5.93345">
        <ele>563</ele>
        <time>2019-04-02T13:55:34Z</time>
      </trkpt>
      <trkpt lat="44.38352" lon="5.93342">
        <ele>563</ele>
        <time>2019-04-02T13:55:35Z</time>
      </trkpt>
      <trkpt lat="44.38348" lon="5.93339">
        <ele>563</ele>
        <time>2019-04-02T13:55:36Z</time>
      </trkpt>
      <trkpt lat="44.38343" lon="5.93335">
        <ele>563</ele>
        <time>2019-04-02T13:55:37Z</time>
      </trkpt>
      <trkpt lat="44.38338" lon="5.93332">
        <ele>563</ele>
        <time>2019-04-02T13:55:38Z</time>
      </trkpt>
      <trkpt lat="44.38334" lon="5.9333">
        <ele>563</ele>
        <time>2019-04-02T13:55:39Z</time>
      </trkpt>
      <trkpt lat="44.38329" lon="5.93327">
        <ele>563</ele>
        <time>2019-04-02T13:55:40Z</time>
      </trkpt>
      <trkpt lat="44.38325" lon="5.93324">
        <ele>563</ele>
        <time>2019-04-02T13:55:41Z</time>
      </trkpt>
      <trkpt lat="44.3832" lon="5.93321">
        <ele>563</ele>
        <time>2019-04-02T13:55:42Z</time>
      </trkpt>
      <trkpt lat="44.38316" lon="5.93318">
        <ele>563</ele>
        <time>2019-04-02T13:55:43Z</time>
      </trkpt>
      <trkpt lat="44.38311" lon="5.93315">
        <ele>563</ele>
        <time>2019-04-02T13:55:44Z</time>
      </trkpt>
      <trkpt lat="44.38306" lon="5.93312">
        <ele>563</ele>
        <time>2019-04-02T13:55:45Z</time>
      </trkpt>
      <trkpt lat="44.38302" lon="5.93309">
        <ele>563</ele>
        <time>2019-04-02T13:55:46Z</time>
      </trkpt>
      <trkpt lat="44.38297" lon="5.93306">
        <ele>563</ele>
        <time>2019-04-02T13:55:47Z</time>
      </trkpt>
      <trkpt lat="44.38293" lon="5.93303">
        <ele>563</ele>
        <time>2019-04-02T13:55:48Z</time>
      </trkpt>
      <trkpt lat="44.38288" lon="5.933">
        <ele>563</ele>
        <time>2019-04-02T13:55:49Z</time>
      </trkpt>
      <trkpt lat="44.38284" lon="5.93297">
        <ele>563</ele>
        <time>2019-04-02T13:55:50Z</time>
      </trkpt>
      <trkpt lat="44.3828" lon="5.93294">
        <ele>563</ele>
        <time>2019-04-02T13:55:51Z</time>
      </trkpt>
      <trkpt lat="44.38275" lon="5.93291">
        <ele>563</ele>
        <time>2019-04-02T13:55:52Z</time>
      </trkpt>
      <trkpt lat="44.38271" lon="5.93288">
        <ele>563</ele>
        <time>2019-04-02T13:55:53Z</time>
      </trkpt>
      <trkpt lat="44.38267" lon="5.93285">
        <ele>563</ele>
        <time>2019-04-02T13:55:54Z</time>
      </trkpt>
      <trkpt lat="44.38263" lon="5.93283">
        <ele>563</ele>
        <time>2019-04-02T13:55:55Z</time>
      </trkpt>
      <trkpt lat="44.38259" lon="5.9328">
        <ele>563</ele>
        <time>2019-04-02T13:55:56Z</time>
      </trkpt>
      <trkpt lat="44.38255" lon="5.93277">
        <ele>563</ele>
        <time>2019-04-02T13:55:57Z</time>
      </trkpt>
      <trkpt lat="44.38251" lon="5.93274">
        <ele>563</ele>
        <time>2019-04-02T13:55:58Z</time>
      </trkpt>
      <trkpt lat="44.38247" lon="5.93271">
        <ele>563</ele>
        <time>2019-04-02T13:55:59Z</time>
      </trkpt>
      <trkpt lat="44.38243" lon="5.93268">
        <ele>563</ele>
        <time>2019-04-02T13:56:00Z</time>
      </trkpt>
      <trkpt lat="44.38239" lon="5.93266">
        <ele>563</ele>
        <time>2019-04-02T13:56:01Z</time>
      </trkpt>
      <trkpt lat="44.38234" lon="5.93263">
        <ele>563</ele>
        <time>2019-04-02T13:56:02Z</time>
      </trkpt>
      <trkpt lat="44.3823" lon="5.93261">
        <ele>563</ele>
        <time>2019-04-02T13:56:03Z</time>
      </trkpt>
      <trkpt lat="44.38226" lon="5.93258">
        <ele>563</ele>
        <time>2019-04-02T13:56:04Z</time>
      </trkpt>
      <trkpt lat="44.38222" lon="5.93255">
        <ele>563</ele>
        <time>2019-04-02T13:56:05Z</time>
      </trkpt>
      <trkpt lat="44.38218" lon="5.93252">
        <ele>563</ele>
        <time>2019-04-02T13:56:06Z</time>
      </trkpt>
      <trkpt lat="44.38214" lon="5.9325">
        <ele>563</ele>
        <time>2019-04-02T13:56:07Z</time>
      </trkpt>
      <trkpt lat="44.3821" lon="5.93247">
        <ele>563</ele>
        <time>2019-04-02T13:56:08Z</time>
      </trkpt>
      <trkpt lat="44.38205" lon="5.93244">
        <ele>563</ele>
        <time>2019-04-02T13:56:09Z</time>
      </trkpt>
      <trkpt lat="44.38201" lon="5.93242">
        <ele>563</ele>
        <time>2019-04-02T13:56:10Z</time>
      </trkpt>
      <trkpt lat="44.38197" lon="5.93239">
        <ele>563</ele>
        <time>2019-04-02T13:56:11Z</time>
      </trkpt>
      <trkpt lat="44.38193" lon="5.93235">
        <ele>563</ele>
        <time>2019-04-02T13:56:12Z</time>
      </trkpt>
      <trkpt lat="44.38189" lon="5.93232">
        <ele>563</ele>
        <time>2019-04-02T13:56:13Z</time>
      </trkpt>
      <trkpt lat="44.38184" lon="5.93229">
        <ele>563</ele>
        <time>2019-04-02T13:56:14Z</time>
      </trkpt>
      <trkpt lat="44.3818" lon="5.93226">
        <ele>563</ele>
        <time>2019-04-02T13:56:15Z</time>
      </trkpt>
      <trkpt lat="44.38175" lon="5.93223">
        <ele>563</ele>
        <time>2019-04-02T13:56:16Z</time>
      </trkpt>
      <trkpt lat="44.3817" lon="5.9322">
        <ele>563</ele>
        <time>2019-04-02T13:56:17Z</time>
      </trkpt>
      <trkpt lat="44.38166" lon="5.93216">
        <ele>563</ele>
        <time>2019-04-02T13:56:18Z</time>
      </trkpt>
      <trkpt lat="44.38161" lon="5.93212">
        <ele>563</ele>
        <time>2019-04-02T13:56:19Z</time>
      </trkpt>
      <trkpt lat="44.38156" lon="5.93209">
        <ele>563</ele>
        <time>2019-04-02T13:56:20Z</time>
      </trkpt>
      <trkpt lat="44.38152" lon="5.93206">
        <ele>563</ele>
        <time>2019-04-02T13:56:21Z</time>
      </trkpt>
      <trkpt lat="44.38147" lon="5.93202">
        <ele>563</ele>
        <time>2019-04-02T13:56:22Z</time>
      </trkpt>
      <trkpt lat="44.38142" lon="5.93199">
        <ele>563</ele>
        <time>2019-04-02T13:56:23Z</time>
      </trkpt>
      <trkpt lat="44.38137" lon="5.93195">
        <ele>563</ele>
        <time>2019-04-02T13:56:24Z</time>
      </trkpt>
      <trkpt lat="44.38132" lon="5.93192">
        <ele>563</ele>
        <time>2019-04-02T13:56:25Z</time>
      </trkpt>
      <trkpt lat="44.38126" lon="5.93189">
        <ele>563</ele>
        <time>2019-04-02T13:56:26Z</time>
      </trkpt>
      <trkpt lat="44.38121" lon="5.93185">
        <ele>563</ele>
        <time>2019-04-02T13:56:27Z</time>
      </trkpt>
      <trkpt lat="44.38116" lon="5.93181">
        <ele>563</ele>
        <time>2019-04-02T13:56:28Z</time>
      </trkpt>
      <trkpt lat="44.38111" lon="5.93178">
        <ele>563</ele>
        <time>2019-04-02T13:56:29Z</time>
      </trkpt>
      <trkpt lat="44.38106" lon="5.93174">
        <ele>563</ele>
        <time>2019-04-02T13:56:30Z</time>
      </trkpt>
      <trkpt lat="44.381" lon="5.9317">
        <ele>563</ele>
        <time>2019-04-02T13:56:31Z</time>
      </trkpt>
      <trkpt lat="44.38095" lon="5.93167">
        <ele>563</ele>
        <time>2019-04-02T13:56:32Z</time>
      </trkpt>
      <trkpt lat="44.38091" lon="5.93163">
        <ele>563</ele>
        <time>2019-04-02T13:56:33Z</time>
      </trkpt>
      <trkpt lat="44.38086" lon="5.93159">
        <ele>563</ele>
        <time>2019-04-02T13:56:34Z</time>
      </trkpt>
      <trkpt lat="44.38081" lon="5.93155">
        <ele>563</ele>
        <time>2019-04-02T13:56:35Z</time>
      </trkpt>
      <trkpt lat="44.38076" lon="5.93152">
        <ele>563</ele>
        <time>2019-04-02T13:56:36Z</time>
      </trkpt>
      <trkpt lat="44.38071" lon="5.93149">
        <ele>563</ele>
        <time>2019-04-02T13:56:37Z</time>
      </trkpt>
      <trkpt lat="44.38066" lon="5.93145">
        <ele>563</ele>
        <time>2019-04-02T13:56:38Z</time>
      </trkpt>
      <trkpt lat="44.38061" lon="5.93142">
        <ele>563</ele>
        <time>2019-04-02T13:56:39Z</time>
      </trkpt>
      <trkpt lat="44.38056" lon="5.93139">
        <ele>563</ele>
        <time>2019-04-02T13:56:40Z</time>
      </trkpt>
      <trkpt lat="44.38052" lon="5.93135">
        <ele>563</ele>
        <time>2019-04-02T13:56:41Z</time>
      </trkpt>
      <trkpt lat="44.38047" lon="5.93131">
        <ele>563</ele>
        <time>2019-04-02T13:56:42Z</time>
      </trkpt>
      <trkpt lat="44.38042" lon="5.93128">
        <ele>563</ele>
        <time>2019-04-02T13:56:43Z</time>
      </trkpt>
      <trkpt lat="44.38038" lon="5.93125">
        <ele>563</ele>
        <time>2019-04-02T13:56:44Z</time>
      </trkpt>
      <trkpt lat="44.38033" lon="5.93121">
        <ele>563</ele>
        <time>2019-04-02T13:56:45Z</time>
      </trkpt>
      <trkpt lat="44.38029" lon="5.93118">
        <ele>563</ele>
        <time>2019-04-02T13:56:46Z</time>
      </trkpt>
      <trkpt lat="44.38024" lon="5.93114">
        <ele>563</ele>
        <time>2019-04-02T13:56:47Z</time>
      </trkpt>
      <trkpt lat="44.3802" lon="5.93111">
        <ele>563</ele>
        <time>2019-04-02T13:56:48Z</time>
      </trkpt>
      <trkpt lat="44.38015" lon="5.93108">
        <ele>563</ele>
        <time>2019-04-02T13:56:49Z</time>
      </trkpt>
      <trkpt lat="44.3801" lon="5.93105">
        <ele>563</ele>
        <time>2019-04-02T13:56:50Z</time>
      </trkpt>
      <trkpt lat="44.38005" lon="5.93102">
        <ele>563</ele>
        <time>2019-04-02T13:56:51Z</time>
      </trkpt>
      <trkpt lat="44.38001" lon="5.93098">
        <ele>563</ele>
        <time>2019-04-02T13:56:52Z</time>
      </trkpt>
      <trkpt lat="44.37996" lon="5.93095">
        <ele>563</ele>
        <time>2019-04-02T13:56:53Z</time>
      </trkpt>
      <trkpt lat="44.37991" lon="5.93091">
        <ele>563</ele>
        <time>2019-04-02T13:56:54Z</time>
      </trkpt>
      <trkpt lat="44.37986" lon="5.93087">
        <ele>563</ele>
        <time>2019-04-02T13:56:55Z</time>
      </trkpt>
      <trkpt lat="44.37981" lon="5.93084">
        <ele>563</ele>
        <time>2019-04-02T13:56:56Z</time>
      </trkpt>
      <trkpt lat="44.37976" lon="5.9308">
        <ele>563</ele>
        <time>2019-04-02T13:56:57Z</time>
      </trkpt>
      <trkpt lat="44.3797" lon="5.93076">
        <ele>563</ele>
        <time>2019-04-02T13:56:58Z</time>
      </trkpt>
      <trkpt lat="44.37965" lon="5.93072">
        <ele>563</ele>
        <time>2019-04-02T13:56:59Z</time>
      </trkpt>
      <trkpt lat="44.3796" lon="5.93068">
        <ele>563</ele>
        <time>2019-04-02T13:57:00Z</time>
      </trkpt>
      <trkpt lat="44.37954" lon="5.93063">
        <ele>563</ele>
        <time>2019-04-02T13:57:01Z</time>
      </trkpt>
      <trkpt lat="44.37949" lon="5.93059">
        <ele>563</ele>
        <time>2019-04-02T13:57:02Z</time>
      </trkpt>
      <trkpt lat="44.37944" lon="5.93055">
        <ele>563</ele>
        <time>2019-04-02T13:57:03Z</time>
      </trkpt>
      <trkpt lat="44.37939" lon="5.93051">
        <ele>563</ele>
        <time>2019-04-02T13:57:04Z</time>
      </trkpt>
      <trkpt lat="44.37933" lon="5.93048">
        <ele>563</ele>
        <time>2019-04-02T13:57:05Z</time>
      </trkpt>
      <trkpt lat="44.37928" lon="5.93044">
        <ele>563</ele>
        <time>2019-04-02T13:57:06Z</time>
      </trkpt>
      <trkpt lat="44.37922" lon="5.93041">
        <ele>563</ele>
        <time>2019-04-02T13:57:07Z</time>
      </trkpt>
      <trkpt lat="44.37917" lon="5.93037">
        <ele>563</ele>
        <time>2019-04-02T13:57:08Z</time>
      </trkpt>
      <trkpt lat="44.37912" lon="5.93034">
        <ele>563</ele>
        <time>2019-04-02T13:57:09Z</time>
      </trkpt>
      <trkpt lat="44.37906" lon="5.9303">
        <ele>563</ele>
        <time>2019-04-02T13:57:10Z</time>
      </trkpt>
      <trkpt lat="44.37901" lon="5.93026">
        <ele>563</ele>
        <time>2019-04-02T13:57:11Z</time>
      </trkpt>
      <trkpt lat="44.37895" lon="5.93023">
        <ele>563</ele>
        <time>2019-04-02T13:57:12Z</time>
      </trkpt>
      <trkpt lat="44.3789" lon="5.93019">
        <ele>563</ele>
        <time>2019-04-02T13:57:13Z</time>
      </trkpt>
      <trkpt lat="44.37885" lon="5.93016">
        <ele>563</ele>
        <time>2019-04-02T13:57:14Z</time>
      </trkpt>
      <trkpt lat="44.3788" lon="5.93012">
        <ele>563</ele>
        <time>2019-04-02T13:57:15Z</time>
      </trkpt>
      <trkpt lat="44.37875" lon="5.93009">
        <ele>563</ele>
        <time>2019-04-02T13:57:16Z</time>
      </trkpt>
      <trkpt lat="44.3787" lon="5.93005">
        <ele>563</ele>
        <time>2019-04-02T13:57:17Z</time>
      </trkpt>
      <trkpt lat="44.37865" lon="5.93002">
        <ele>563</ele>
        <time>2019-04-02T13:57:18Z</time>
      </trkpt>
      <trkpt lat="44.3786" lon="5.92998">
        <ele>563</ele>
        <time>2019-04-02T13:57:19Z</time>
      </trkpt>
      <trkpt lat="44.37855" lon="5.92995">
        <ele>563</ele>
        <time>2019-04-02T13:57:20Z</time>
      </trkpt>
      <trkpt lat="44.37851" lon="5.92992">
        <ele>563</ele>
        <time>2019-04-02T13:57:21Z</time>
      </trkpt>
      <trkpt lat="44.37846" lon="5.92988">
        <ele>563</ele>
        <time>2019-04-02T13:57:22Z</time>
      </trkpt>
      <trkpt lat="44.37841" lon="5.92985">
        <ele>563</ele>
        <time>2019-04-02T13:57:23Z</time>
      </trkpt>
      <trkpt lat="44.37837" lon="5.92981">
        <ele>563</ele>
        <time>2019-04-02T13:57:24Z</time>
      </trkpt>
      <trkpt lat="44.37832" lon="5.92978">
        <ele>563</ele>
        <time>2019-04-02T13:57:25Z</time>
      </trkpt>
      <trkpt lat="44.37828" lon="5.92975">
        <ele>563</ele>
        <time>2019-04-02T13:57:26Z</time>
      </trkpt>
      <trkpt lat="44.37823" lon="5.92972">
        <ele>563</ele>
        <time>2019-04-02T13:57:27Z</time>
      </trkpt>
      <trkpt lat="44.37818" lon="5.92969">
        <ele>563</ele>
        <time>2019-04-02T13:57:28Z</time>
      </trkpt>
      <trkpt lat="44.37814" lon="5.92966">
        <ele>563</ele>
        <time>2019-04-02T13:57:29Z</time>
      </trkpt>
      <trkpt lat="44.37809" lon="5.92963">
        <ele>563</ele>
        <time>2019-04-02T13:57:30Z</time>
      </trkpt>
      <trkpt lat="44.37804" lon="5.9296">
        <ele>563</ele>
        <time>2019-04-02T13:57:31Z</time>
      </trkpt>
      <trkpt lat="44.378" lon="5.92956">
        <ele>563</ele>
        <time>2019-04-02T13:57:32Z</time>
      </trkpt>
      <trkpt lat="44.37796" lon="5.92953">
        <ele>563</ele>
        <time>2019-04-02T13:57:33Z</time>
      </trkpt>
      <trkpt lat="44.37791" lon="5.9295">
        <ele>563</ele>
        <time>2019-04-02T13:57:34Z</time>
      </trkpt>
      <trkpt lat="44.37786" lon="5.92947">
        <ele>563</ele>
        <time>2019-04-02T13:57:35Z</time>
      </trkpt>
      <trkpt lat="44.37782" lon="5.92945">
        <ele>563</ele>
        <time>2019-04-02T13:57:36Z</time>
      </trkpt>
      <trkpt lat="44.37777" lon="5.92942">
        <ele>563</ele>
        <time>2019-04-02T13:57:37Z</time>
      </trkpt>
      <trkpt lat="44.37773" lon="5.92938">
        <ele>563</ele>
        <time>2019-04-02T13:57:38Z</time>
      </trkpt>
      <trkpt lat="44.37769" lon="5.92935">
        <ele>563</ele>
        <time>2019-04-02T13:57:39Z</time>
      </trkpt>
      <trkpt lat="44.37764" lon="5.92932">
        <ele>563</ele>
        <time>2019-04-02T13:57:40Z</time>
      </trkpt>
      <trkpt lat="44.37759" lon="5.92929">
        <ele>563</ele>
        <time>2019-04-02T13:57:41Z</time>
      </trkpt>
      <trkpt lat="44.37755" lon="5.92925">
        <ele>563</ele>
        <time>2019-04-02T13:57:42Z</time>
      </trkpt>
      <trkpt lat="44.3775" lon="5.92922">
        <ele>563</ele>
        <time>2019-04-02T13:57:43Z</time>
      </trkpt>
      <trkpt lat="44.37746" lon="5.92919">
        <ele>563</ele>
        <time>2019-04-02T13:57:44Z</time>
      </trkpt>
      <trkpt lat="44.37741" lon="5.92916">
        <ele>563</ele>
        <time>2019-04-02T13:57:45Z</time>
      </trkpt>
      <trkpt lat="44.37737" lon="5.92912">
        <ele>563</ele>
        <time>2019-04-02T13:57:46Z</time>
      </trkpt>
      <trkpt lat="44.37732" lon="5.92909">
        <ele>563</ele>
        <time>2019-04-02T13:57:47Z</time>
      </trkpt>
      <trkpt lat="44.37727" lon="5.92906">
        <ele>563</ele>
        <time>2019-04-02T13:57:48Z</time>
      </trkpt>
      <trkpt lat="44.37723" lon="5.92903">
        <ele>563</ele>
        <time>2019-04-02T13:57:49Z</time>
      </trkpt>
      <trkpt lat="44.37718" lon="5.929">
        <ele>563</ele>
        <time>2019-04-02T13:57:50Z</time>
      </trkpt>
      <trkpt lat="44.37714" lon="5.92897">
        <ele>563</ele>
        <time>2019-04-02T13:57:51Z</time>
      </trkpt>
      <trkpt lat="44.37709" lon="5.92893">
        <ele>563</ele>
        <time>2019-04-02T13:57:52Z</time>
      </trkpt>
      <trkpt lat="44.37704" lon="5.9289">
        <ele>563</ele>
        <time>2019-04-02T13:57:53Z</time>
      </trkpt>
      <trkpt lat="44.377" lon="5.92887">
        <ele>563</ele>
        <time>2019-04-02T13:57:54Z</time>
      </trkpt>
      <trkpt lat="44.37695" lon="5.92884">
        <ele>563</ele>
        <time>2019-04-02T13:57:55Z</time>
      </trkpt>
      <trkpt lat="44.37691" lon="5.92881">
        <ele>563</ele>
        <time>2019-04-02T13:57:56Z</time>
      </trkpt>
      <trkpt lat="44.37686" lon="5.92878">
        <ele>563</ele>
        <time>2019-04-02T13:57:57Z</time>
      </trkpt>
      <trkpt lat="44.37682" lon="5.92875">
        <ele>563</ele>
        <time>2019-04-02T13:57:58Z</time>
      </trkpt>
      <trkpt lat="44.37677" lon="5.92872">
        <ele>563</ele>
        <time>2019-04-02T13:57:59Z</time>
      </trkpt>
      <trkpt lat="44.37673" lon="5.9287">
        <ele>563</ele>
        <time>2019-04-02T13:58:00Z</time>
      </trkpt>
      <trkpt lat="44.37669" lon="5.92867">
        <ele>563</ele>
        <time>2019-04-02T13:58:01Z</time>
      </trkpt>
      <trkpt lat="44.37664" lon="5.92864">
        <ele>563</ele>
        <time>2019-04-02T13:58:02Z</time>
      </trkpt>
      <trkpt lat="44.3766" lon="5.9286">
        <ele>563</ele>
        <time>2019-04-02T13:58:03Z</time>
      </trkpt>
      <trkpt lat="44.37656" lon="5.92857">
        <ele>563</ele>
        <time>2019-04-02T13:58:04Z</time>
      </trkpt>
      <trkpt lat="44.37651" lon="5.92853">
        <ele>563</ele>
        <time>2019-04-02T13:58:05Z</time>
      </trkpt>
      <trkpt lat="44.37647" lon="5.9285">
        <ele>563</ele>
        <time>2019-04-02T13:58:06Z</time>
      </trkpt>
      <trkpt lat="44.37643" lon="5.92847">
        <ele>563</ele>
        <time>2019-04-02T13:58:07Z</time>
      </trkpt>
      <trkpt lat="44.37638" lon="5.92845">
        <ele>563</ele>
        <time>2019-04-02T13:58:08Z</time>
      </trkpt>
      <trkpt lat="44.37634" lon="5.92841">
        <ele>563</ele>
        <time>2019-04-02T13:58:09Z</time>
      </trkpt>
      <trkpt lat="44.37629" lon="5.92838">
        <ele>563</ele>
        <time>2019-04-02T13:58:10Z</time>
      </trkpt>
      <trkpt lat="44.37625" lon="5.92835">
        <ele>563</ele>
        <time>2019-04-02T13:58:11Z</time>
      </trkpt>
      <trkpt lat="44.3762" lon="5.92832">
        <ele>563</ele>
        <time>2019-04-02T13:58:12Z</time>
      </trkpt>
      <trkpt lat="44.37616" lon="5.92829">
        <ele>563</ele>
        <time>2019-04-02T13:58:13Z</time>
      </trkpt>
      <trkpt lat="44.37611" lon="5.92826">
        <ele>563</ele>
        <time>2019-04-02T13:58:14Z</time>
      </trkpt>
      <trkpt lat="44.37607" lon="5.92823">
        <ele>563</ele>
        <time>2019-04-02T13:58:15Z</time>
      </trkpt>
      <trkpt lat="44.37602" lon="5.9282">
        <ele>563</ele>
        <time>2019-04-02T13:58:16Z</time>
      </trkpt>
      <trkpt lat="44.37598" lon="5.92817">
        <ele>563</ele>
        <time>2019-04-02T13:58:17Z</time>
      </trkpt>
      <trkpt lat="44.37593" lon="5.92814">
        <ele>563</ele>
        <time>2019-04-02T13:58:18Z</time>
      </trkpt>
      <trkpt lat="44.37589" lon="5.92811">
        <ele>563</ele>
        <time>2019-04-02T13:58:19Z</time>
      </trkpt>
      <trkpt lat="44.37584" lon="5.92808">
        <ele>563</ele>
        <time>2019-04-02T13:58:20Z</time>
      </trkpt>
      <trkpt lat="44.37579" lon="5.92805">
        <ele>563</ele>
        <time>2019-04-02T13:58:21Z</time>
      </trkpt>
      <trkpt lat="44.37575" lon="5.92802">
        <ele>563</ele>
        <time>2019-04-02T13:58:22Z</time>
      </trkpt>
      <trkpt lat="44.3757" lon="5.92799">
        <ele>563</ele>
        <time>2019-04-02T13:58:23Z</time>
      </trkpt>
      <trkpt lat="44.37566" lon="5.92796">
        <ele>563</ele>
        <time>2019-04-02T13:58:24Z</time>
      </trkpt>
      <trkpt lat="44.37561" lon="5.92793">
        <ele>563</ele>
        <time>2019-04-02T13:58:25Z</time>
      </trkpt>
      <trkpt lat="44.37557" lon="5.9279">
        <ele>563</ele>
        <time>2019-04-02T13:58:26Z</time>
      </trkpt>
      <trkpt lat="44.37553" lon="5.92787">
        <ele>563</ele>
        <time>2019-04-02T13:58:27Z</time>
      </trkpt>
      <trkpt lat="44.37548" lon="5.92784">
        <ele>563</ele>
        <time>2019-04-02T13:58:28Z</time>
      </trkpt>
      <trkpt lat="44.37544" lon="5.92781">
        <ele>563</ele>
        <time>2019-04-02T13:58:29Z</time>
      </trkpt>
      <trkpt lat="44.3754" lon="5.92777">
        <ele>563</ele>
        <time>2019-04-02T13:58:30Z</time>
      </trkpt>
      <trkpt lat="44.37535" lon="5.92774">
        <ele>563</ele>
        <time>2019-04-02T13:58:31Z</time>
      </trkpt>
      <trkpt lat="44.37531" lon="5.92771">
        <ele>563</ele>
        <time>2019-04-02T13:58:32Z</time>
      </trkpt>
      <trkpt lat="44.37526" lon="5.92768">
        <ele>563</ele>
        <time>2019-04-02T13:58:33Z</time>
      </trkpt>
      <trkpt lat="44.37522" lon="5.92765">
        <ele>563</ele>
        <time>2019-04-02T13:58:34Z</time>
      </trkpt>
      <trkpt lat="44.37518" lon="5.92762">
        <ele>563</ele>
        <time>2019-04-02T13:58:35Z</time>
      </trkpt>
      <trkpt lat="44.37513" lon="5.92758">
        <ele>563</ele>
        <time>2019-04-02T13:58:36Z</time>
      </trkpt>
      <trkpt lat="44.37508" lon="5.92755">
        <ele>563</ele>
        <time>2019-04-02T13:58:37Z</time>
      </trkpt>
      <trkpt lat="44.37504" lon="5.92752">
        <ele>563</ele>
        <time>2019-04-02T13:58:38Z</time>
      </trkpt>
      <trkpt lat="44.37499" lon="5.92749">
        <ele>563</ele>
        <time>2019-04-02T13:58:39Z</time>
      </trkpt>
      <trkpt lat="44.37494" lon="5.92746">
        <ele>563</ele>
        <time>2019-04-02T13:58:40Z</time>
      </trkpt>
      <trkpt lat="44.3749" lon="5.92743">
        <ele>563</ele>
        <time>2019-04-02T13:58:41Z</time>
      </trkpt>
      <trkpt lat="44.37485" lon="5.9274">
        <ele>563</ele>
        <time>2019-04-02T13:58:42Z</time>
      </trkpt>
      <trkpt lat="44.37481" lon="5.92736">
        <ele>563</ele>
        <time>2019-04-02T13:58:43Z</time>
      </trkpt>
      <trkpt lat="44.37476" lon="5.92733">
        <ele>563</ele>
        <time>2019-04-02T13:58:44Z</time>
      </trkpt>
      <trkpt lat="44.37472" lon="5.9273">
        <ele>563</ele>
        <time>2019-04-02T13:58:45Z</time>
      </trkpt>
      <trkpt lat="44.37468" lon="5.92728">
        <ele>563</ele>
        <time>2019-04-02T13:58:46Z</time>
      </trkpt>
      <trkpt lat="44.37463" lon="5.92725">
        <ele>563</ele>
        <time>2019-04-02T13:58:47Z</time>
      </trkpt>
      <trkpt lat="44.37459" lon="5.92722">
        <ele>563</ele>
        <time>2019-04-02T13:58:48Z</time>
      </trkpt>
      <trkpt lat="44.37454" lon="5.92719">
        <ele>563</ele>
        <time>2019-04-02T13:58:49Z</time>
      </trkpt>
      <trkpt lat="44.3745" lon="5.92716">
        <ele>563</ele>
        <time>2019-04-02T13:58:50Z</time>
      </trkpt>
      <trkpt lat="44.37446" lon="5.92713">
        <ele>563</ele>
        <time>2019-04-02T13:58:51Z</time>
      </trkpt>
      <trkpt lat="44.37442" lon="5.9271">
        <ele>563</ele>
        <time>2019-04-02T13:58:52Z</time>
      </trkpt>
      <trkpt lat="44.37437" lon="5.92707">
        <ele>563</ele>
        <time>2019-04-02T13:58:53Z</time>
      </trkpt>
      <trkpt lat="44.37433" lon="5.92705">
        <ele>563</ele>
        <time>2019-04-02T13:58:54Z</time>
      </trkpt>
      <trkpt lat="44.37429" lon="5.92702">
        <ele>563</ele>
        <time>2019-04-02T13:58:55Z</time>
      </trkpt>
      <trkpt lat="44.37424" lon="5.92699">
        <ele>563</ele>
        <time>2019-04-02T13:58:56Z</time>
      </trkpt>
      <trkpt lat="44.3742" lon="5.92697">
        <ele>563</ele>
        <time>2019-04-02T13:58:57Z</time>
      </trkpt>
      <trkpt lat="44.37416" lon="5.92694">
        <ele>563</ele>
        <time>2019-04-02T13:58:58Z</time>
      </trkpt>
      <trkpt lat="44.37413" lon="5.92691">
        <ele>563</ele>
        <time>2019-04-02T13:58:59Z</time>
      </trkpt>
      <trkpt lat="44.37409" lon="5.92689">
        <ele>563</ele>
        <time>2019-04-02T13:59:00Z</time>
      </trkpt>
      <trkpt lat="44.37405" lon="5.92686">
        <ele>563</ele>
        <time>2019-04-02T13:59:01Z</time>
      </trkpt>
      <trkpt lat="44.37401" lon="5.92683">
        <ele>563</ele>
        <time>2019-04-02T13:59:02Z</time>
      </trkpt>
      <trkpt lat="44.37397" lon="5.9268">
        <ele>563</ele>
        <time>2019-04-02T13:59:03Z</time>
      </trkpt>
      <trkpt lat="44.37394" lon="5.92677">
        <ele>563</ele>
        <time>2019-04-02T13:59:04Z</time>
      </trkpt>
      <trkpt lat="44.3739" lon="5.92674">
        <ele>563</ele>
        <time>2019-04-02T13:59:05Z</time>
      </trkpt>
      <trkpt lat="44.37386" lon="5.92671">
        <ele>563</ele>
        <time>2019-04-02T13:59:06Z</time>
      </trkpt>
      <trkpt lat="44.37382" lon="5.92668">
        <ele>563</ele>
        <time>2019-04-02T13:59:07Z</time>
      </trkpt>
      <trkpt lat="44.37378" lon="5.92666">
        <ele>563</ele>
        <time>2019-04-02T13:59:08Z</time>
      </trkpt>
      <trkpt lat="44.37375" lon="5.92663">
        <ele>563</ele>
        <time>2019-04-02T13:59:09Z</time>
      </trkpt>
      <trkpt lat="44.37371" lon="5.92661">
        <ele>563</ele>
        <time>2019-04-02T13:59:10Z</time>
      </trkpt>
      <trkpt lat="44.37366" lon="5.92658">
        <ele>563</ele>
        <time>2019-04-02T13:59:11Z</time>
      </trkpt>
      <trkpt lat="44.37362" lon="5.92654">
        <ele>563</ele>
        <time>2019-04-02T13:59:12Z</time>
      </trkpt>
      <trkpt lat="44.37357" lon="5.92651">
        <ele>563</ele>
        <time>2019-04-02T13:59:13Z</time>
      </trkpt>
      <trkpt lat="44.37352" lon="5.92648">
        <ele>563</ele>
        <time>2019-04-02T13:59:14Z</time>
      </trkpt>
      <trkpt lat="44.37348" lon="5.92644">
        <ele>563</ele>
        <time>2019-04-02T13:59:15Z</time>
      </trkpt>
      <trkpt lat="44.37343" lon="5.9264">
        <ele>563</ele>
        <time>2019-04-02T13:59:16Z</time>
      </trkpt>
      <trkpt lat="44.37338" lon="5.92636">
        <ele>563</ele>
        <time>2019-04-02T13:59:17Z</time>
      </trkpt>
      <trkpt lat="44.37334" lon="5.92632">
        <ele>563</ele>
        <time>2019-04-02T13:59:18Z</time>
      </trkpt>
      <trkpt lat="44.37328" lon="5.92628">
        <ele>563</ele>
        <time>2019-04-02T13:59:19Z</time>
      </trkpt>
      <trkpt lat="44.37323" lon="5.92625">
        <ele>563</ele>
        <time>2019-04-02T13:59:20Z</time>
      </trkpt>
      <trkpt lat="44.37318" lon="5.92621">
        <ele>563</ele>
        <time>2019-04-02T13:59:21Z</time>
      </trkpt>
      <trkpt lat="44.37313" lon="5.92617">
        <ele>563</ele>
        <time>2019-04-02T13:59:22Z</time>
      </trkpt>
      <trkpt lat="44.37308" lon="5.92612">
        <ele>563</ele>
        <time>2019-04-02T13:59:23Z</time>
      </trkpt>
      <trkpt lat="44.37302" lon="5.92608">
        <ele>563</ele>
        <time>2019-04-02T13:59:24Z</time>
      </trkpt>
      <trkpt lat="44.37297" lon="5.92604">
        <ele>563</ele>
        <time>2019-04-02T13:59:25Z</time>
      </trkpt>
      <trkpt lat="44.37292" lon="5.92599">
        <ele>563</ele>
        <time>2019-04-02T13:59:26Z</time>
      </trkpt>
      <trkpt lat="44.37288" lon="5.92595">
        <ele>563</ele>
        <time>2019-04-02T13:59:27Z</time>
      </trkpt>
      <trkpt lat="44.37283" lon="5.9259">
        <ele>563</ele>
        <time>2019-04-02T13:59:28Z</time>
      </trkpt>
      <trkpt lat="44.37278" lon="5.92585">
        <ele>563</ele>
        <time>2019-04-02T13:59:29Z</time>
      </trkpt>
      <trkpt lat="44.37273" lon="5.9258">
        <ele>563</ele>
        <time>2019-04-02T13:59:30Z</time>
      </trkpt>
      <trkpt lat="44.37268" lon="5.92575">
        <ele>563</ele>
        <time>2019-04-02T13:59:31Z</time>
      </trkpt>
      <trkpt lat="44.37263" lon="5.92571">
        <ele>563</ele>
        <time>2019-04-02T13:59:32Z</time>
      </trkpt>
      <trkpt lat="44.37258" lon="5.92566">
        <ele>563</ele>
        <time>2019-04-02T13:59:33Z</time>
      </trkpt>
      <trkpt lat="44.37253" lon="5.92561">
        <ele>563</ele>
        <time>2019-04-02T13:59:34Z</time>
      </trkpt>
      <trkpt lat="44.37248" lon="5.92557">
        <ele>563</ele>
        <time>2019-04-02T13:59:35Z</time>
      </trkpt>
      <trkpt lat="44.37243" lon="5.92553">
        <ele>563</ele>
        <time>2019-04-02T13:59:36Z</time>
      </trkpt>
      <trkpt lat="44.37238" lon="5.92548">
        <ele>563</ele>
        <time>2019-04-02T13:59:37Z</time>
      </trkpt>
      <trkpt lat="44.37233" lon="5.92543">
        <ele>563</ele>
        <time>2019-04-02T13:59:38Z</time>
      </trkpt>
      <trkpt lat="44.37228" lon="5.92538">
        <ele>563</ele>
        <time>2019-04-02T13:59:39Z</time>
      </trkpt>
      <trkpt lat="44.37223" lon="5.92534">
        <ele>563</ele>
        <time>2019-04-02T13:59:40Z</time>
      </trkpt>
      <trkpt lat="44.37219" lon="5.92529">
        <ele>563</ele>
        <time>2019-04-02T13:59:41Z</time>
      </trkpt>
      <trkpt lat="44.37214" lon="5.92524">
        <ele>563</ele>
        <time>2019-04-02T13:59:42Z</time>
      </trkpt>
      <trkpt lat="44.37209" lon="5.9252">
        <ele>563</ele>
        <time>2019-04-02T13:59:43Z</time>
      </trkpt>
      <trkpt lat="44.37204" lon="5.92515">
        <ele>563</ele>
        <time>2019-04-02T13:59:44Z</time>
      </trkpt>
      <trkpt lat="44.37199" lon="5.92511">
        <ele>563</ele>
        <time>2019-04-02T13:59:45Z</time>
      </trkpt>
      <trkpt lat="44.37194" lon="5.92506">
        <ele>563</ele>
        <time>2019-04-02T13:59:46Z</time>
      </trkpt>
      <trkpt lat="44.37189" lon="5.92502">
        <ele>563</ele>
        <time>2019-04-02T13:59:47Z</time>
      </trkpt>
      <trkpt lat="44.37184" lon="5.92497">
        <ele>563</ele>
        <time>2019-04-02T13:59:48Z</time>
      </trkpt>
      <trkpt lat="44.3718" lon="5.92493">
        <ele>563</ele>
        <time>2019-04-02T13:59:49Z</time>
      </trkpt>
      <trkpt lat="44.37175" lon="5.92489">
        <ele>563</ele>
        <time>2019-04-02T13:59:50Z</time>
      </trkpt>
      <trkpt lat="44.3717" lon="5.92485">
        <ele>563</ele>
        <time>2019-04-02T13:59:51Z</time>
      </trkpt>
      <trkpt lat="44.37165" lon="5.92481">
        <ele>563</ele>
        <time>2019-04-02T13:59:52Z</time>
      </trkpt>
      <trkpt lat="44.3716" lon="5.92477">
        <ele>563</ele>
        <time>2019-04-02T13:59:53Z</time>
      </trkpt>
      <trkpt lat="44.37155" lon="5.92473">
        <ele>563</ele>
        <time>2019-04-02T13:59:54Z</time>
      </trkpt>
      <trkpt lat="44.37151" lon="5.92469">
        <ele>563</ele>
        <time>2019-04-02T13:59:55Z</time>
      </trkpt>
      <trkpt lat="44.37146" lon="5.92464">
        <ele>563</ele>
        <time>2019-04-02T13:59:56Z</time>
      </trkpt>
      <trkpt lat="44.37141" lon="5.9246">
        <ele>563</ele>
        <time>2019-04-02T13:59:57Z</time>
      </trkpt>
      <trkpt lat="44.37136" lon="5.92456">
        <ele>563</ele>
        <time>2019-04-02T13:59:58Z</time>
      </trkpt>
      <trkpt lat="44.37132" lon="5.92452">
        <ele>563</ele>
        <time>2019-04-02T13:59:59Z</time>
      </trkpt>
      <trkpt lat="44.37127" lon="5.92448">
        <ele>563</ele>
        <time>2019-04-02T14:00:00Z</time>
      </trkpt>
      <trkpt lat="44.37122" lon="5.92444">
        <ele>563</ele>
        <time>2019-04-02T14:00:01Z</time>
      </trkpt>
      <trkpt lat="44.37117" lon="5.9244">
        <ele>563</ele>
        <time>2019-04-02T14:00:02Z</time>
      </trkpt>
      <trkpt lat="44.37113" lon="5.92435">
        <ele>563</ele>
        <time>2019-04-02T14:00:03Z</time>
      </trkpt>
      <trkpt lat="44.37108" lon="5.92431">
        <ele>563</ele>
        <time>2019-04-02T14:00:04Z</time>
      </trkpt>
      <trkpt lat="44.37104" lon="5.92426">
        <ele>563</ele>
        <time>2019-04-02T14:00:05Z</time>
      </trkpt>
      <trkpt lat="44.37099" lon="5.92422">
        <ele>563</ele>
        <time>2019-04-02T14:00:06Z</time>
      </trkpt>
      <trkpt lat="44.37094" lon="5.92418">
        <ele>563</ele>
        <time>2019-04-02T14:00:07Z</time>
      </trkpt>
      <trkpt lat="44.3709" lon="5.92414">
        <ele>563</ele>
        <time>2019-04-02T14:00:08Z</time>
      </trkpt>
      <trkpt lat="44.37085" lon="5.9241">
        <ele>563</ele>
        <time>2019-04-02T14:00:09Z</time>
      </trkpt>
      <trkpt lat="44.37081" lon="5.92407">
        <ele>563</ele>
        <time>2019-04-02T14:00:10Z</time>
      </trkpt>
      <trkpt lat="44.37076" lon="5.92403">
        <ele>563</ele>
        <time>2019-04-02T14:00:11Z</time>
      </trkpt>
      <trkpt lat="44.37072" lon="5.92399">
        <ele>563</ele>
        <time>2019-04-02T14:00:12Z</time>
      </trkpt>
      <trkpt lat="44.37067" lon="5.92395">
        <ele>563</ele>
        <time>2019-04-02T14:00:13Z</time>
      </trkpt>
      <trkpt lat="44.37063" lon="5.92391">
        <ele>563</ele>
        <time>2019-04-02T14:00:14Z</time>
      </trkpt>
      <trkpt lat="44.37059" lon="5.92387">
        <ele>563</ele>
        <time>2019-04-02T14:00:15Z</time>
      </trkpt>
      <trkpt lat="44.37054" lon="5.92384">
        <ele>563</ele>
        <time>2019-04-02T14:00:16Z</time>
      </trkpt>
      <trkpt lat="44.3705" lon="5.9238">
        <ele>563</ele>
        <time>2019-04-02T14:00:17Z</time>
      </trkpt>
      <trkpt lat="44.37046" lon="5.92377">
        <ele>563</ele>
        <time>2019-04-02T14:00:18Z</time>
      </trkpt>
      <trkpt lat="44.37041" lon="5.92373">
        <ele>563</ele>
        <time>2019-04-02T14:00:19Z</time>
      </trkpt>
      <trkpt lat="44.37037" lon="5.92369">
        <ele>563</ele>
        <time>2019-04-02T14:00:20Z</time>
      </trkpt>
      <trkpt lat="44.37033" lon="5.92366">
        <ele>563</ele>
        <time>2019-04-02T14:00:21Z</time>
      </trkpt>
      <trkpt lat="44.37029" lon="5.92362">
        <ele>563</ele>
        <time>2019-04-02T14:00:22Z</time>
      </trkpt>
      <trkpt lat="44.37025" lon="5.92359">
        <ele>563</ele>
        <time>2019-04-02T14:00:23Z</time>
      </trkpt>
      <trkpt lat="44.37021" lon="5.92357">
        <ele>563</ele>
        <time>2019-04-02T14:00:24Z</time>
      </trkpt>
      <trkpt lat="44.37017" lon="5.92353">
        <ele>563</ele>
        <time>2019-04-02T14:00:25Z</time>
      </trkpt>
      <trkpt lat="44.37014" lon="5.9235">
        <ele>563</ele>
        <time>2019-04-02T14:00:26Z</time>
      </trkpt>
      <trkpt lat="44.3701" lon="5.92346">
        <ele>563</ele>
        <time>2019-04-02T14:00:27Z</time>
      </trkpt>
      <trkpt lat="44.37006" lon="5.92343">
        <ele>563</ele>
        <time>2019-04-02T14:00:28Z</time>
      </trkpt>
      <trkpt lat="44.37002" lon="5.92339">
        <ele>563</ele>
        <time>2019-04-02T14:00:29Z</time>
      </trkpt>
      <trkpt lat="44.36998" lon="5.92336">
        <ele>563</ele>
        <time>2019-04-02T14:00:30Z</time>
      </trkpt>
      <trkpt lat="44.36994" lon="5.92333">
        <ele>563</ele>
        <time>2019-04-02T14:00:31Z</time>
      </trkpt>
      <trkpt lat="44.3699" lon="5.92329">
        <ele>563</ele>
        <time>2019-04-02T14:00:32Z</time>
      </trkpt>
      <trkpt lat="44.36985" lon="5.92326">
        <ele>563</ele>
        <time>2019-04-02T14:00:33Z</time>
      </trkpt>
      <trkpt lat="44.36981" lon="5.92323">
        <ele>563</ele>
        <time>2019-04-02T14:00:34Z</time>
      </trkpt>
      <trkpt lat="44.36977" lon="5.92319">
        <ele>563</ele>
        <time>2019-04-02T14:00:35Z</time>
      </trkpt>
      <trkpt lat="44.36973" lon="5.92315">
        <ele>563</ele>
        <time>2019-04-02T14:00:36Z</time>
      </trkpt>
      <trkpt lat="44.36969" lon="5.92312">
        <ele>563</ele>
        <time>2019-04-02T14:00:37Z</time>
      </trkpt>
      <trkpt lat="44.36965" lon="5.92309">
        <ele>563</ele>
        <time>2019-04-02T14:00:38Z</time>
      </trkpt>
      <trkpt lat="44.36961" lon="5.92306">
        <ele>563</ele>
        <time>2019-04-02T14:00:39Z</time>
      </trkpt>
      <trkpt lat="44.36956" lon="5.92302">
        <ele>563</ele>
        <time>2019-04-02T14:00:40Z</time>
      </trkpt>
      <trkpt lat="44.36952" lon="5.92299">
        <ele>563</ele>
        <time>2019-04-02T14:00:41Z</time>
      </trkpt>
      <trkpt lat="44.36948" lon="5.92295">
        <ele>563</ele>
        <time>2019-04-02T14:00:42Z</time>
      </trkpt>
      <trkpt lat="44.36944" lon="5.92292">
        <ele>563</ele>
        <time>2019-04-02T14:00:43Z</time>
      </trkpt>
      <trkpt lat="44.36939" lon="5.92289">
        <ele>563</ele>
        <time>2019-04-02T14:00:44Z</time>
      </trkpt>
      <trkpt lat="44.36935" lon="5.92285">
        <ele>563</ele>
        <time>2019-04-02T14:00:45Z</time>
      </trkpt>
      <trkpt lat="44.36931" lon="5.92282">
        <ele>563</ele>
        <time>2019-04-02T14:00:46Z</time>
      </trkpt>
      <trkpt lat="44.36927" lon="5.92279">
        <ele>563</ele>
        <time>2019-04-02T14:00:47Z</time>
      </trkpt>
      <trkpt lat="44.36923" lon="5.92275">
        <ele>563</ele>
        <time>2019-04-02T14:00:48Z</time>
      </trkpt>
      <trkpt lat="44.36919" lon="5.92273">
        <ele>563</ele>
        <time>2019-04-02T14:00:49Z</time>
      </trkpt>
      <trkpt lat="44.36916" lon="5.9227">
        <ele>563</ele>
        <time>2019-04-02T14:00:50Z</time>
      </trkpt>
      <trkpt lat="44.36911" lon="5.92267">
        <ele>563</ele>
        <time>2019-04-02T14:00:51Z</time>
      </trkpt>
      <trkpt lat="44.36907" lon="5.92265">
        <ele>563</ele>
        <time>2019-04-02T14:00:52Z</time>
      </trkpt>
      <trkpt lat="44.36903" lon="5.92262">
        <ele>563</ele>
        <time>2019-04-02T14:00:53Z</time>
      </trkpt>
      <trkpt lat="44.36899" lon="5.9226">
        <ele>563</ele>
        <time>2019-04-02T14:00:54Z</time>
      </trkpt>
      <trkpt lat="44.36895" lon="5.92257">
        <ele>563</ele>
        <time>2019-04-02T14:00:55Z</time>
      </trkpt>
      <trkpt lat="44.36891" lon="5.92255">
        <ele>563</ele>
        <time>2019-04-02T14:00:56Z</time>
      </trkpt>
      <trkpt lat="44.36888" lon="5.92253">
        <ele>564</ele>
        <time>2019-04-02T14:00:57Z</time>
      </trkpt>
      <trkpt lat="44.36884" lon="5.92251">
        <ele>564</ele>
        <time>2019-04-02T14:00:58Z</time>
      </trkpt>
      <trkpt lat="44.3688" lon="5.92249">
        <ele>564</ele>
        <time>2019-04-02T14:00:59Z</time>
      </trkpt>
      <trkpt lat="44.36877" lon="5.92247">
        <ele>564</ele>
        <time>2019-04-02T14:01:00Z</time>
      </trkpt>
      <trkpt lat="44.36874" lon="5.92245">
        <ele>565</ele>
        <time>2019-04-02T14:01:01Z</time>
      </trkpt>
      <trkpt lat="44.3687" lon="5.92243">
        <ele>565</ele>
        <time>2019-04-02T14:01:02Z</time>
      </trkpt>
      <trkpt lat="44.36867" lon="5.92242">
        <ele>565</ele>
        <time>2019-04-02T14:01:03Z</time>
      </trkpt>
      <trkpt lat="44.36863" lon="5.9224">
        <ele>565</ele>
        <time>2019-04-02T14:01:04Z</time>
      </trkpt>
      <trkpt lat="44.3686" lon="5.92238">
        <ele>565</ele>
        <time>2019-04-02T14:01:05Z</time>
      </trkpt>
      <trkpt lat="44.36857" lon="5.92236">
        <ele>566</ele>
        <time>2019-04-02T14:01:06Z</time>
      </trkpt>
      <trkpt lat="44.36853" lon="5.92234">
        <ele>566</ele>
        <time>2019-04-02T14:01:07Z</time>
      </trkpt>
      <trkpt lat="44.3685" lon="5.92232">
        <ele>566</ele>
        <time>2019-04-02T14:01:08Z</time>
      </trkpt>
      <trkpt lat="44.36847" lon="5.9223">
        <ele>566</ele>
        <time>2019-04-02T14:01:09Z</time>
      </trkpt>
      <trkpt lat="44.36843" lon="5.92228">
        <ele>567</ele>
        <time>2019-04-02T14:01:10Z</time>
      </trkpt>
      <trkpt lat="44.3684" lon="5.92226">
        <ele>567</ele>
        <time>2019-04-02T14:01:11Z</time>
      </trkpt>
      <trkpt lat="44.36837" lon="5.92224">
        <ele>567</ele>
        <time>2019-04-02T14:01:12Z</time>
      </trkpt>
      <trkpt lat="44.36835" lon="5.92222">
        <ele>567</ele>
        <time>2019-04-02T14:01:13Z</time>
      </trkpt>
      <trkpt lat="44.36832" lon="5.9222">
        <ele>568</ele>
        <time>2019-04-02T14:01:14Z</time>
      </trkpt>
      <trkpt lat="44.3683" lon="5.92218">
        <ele>568</ele>
        <time>2019-04-02T14:01:15Z</time>
      </trkpt>
      <trkpt lat="44.36827" lon="5.92216">
        <ele>568</ele>
        <time>2019-04-02T14:01:16Z</time>
      </trkpt>
      <trkpt lat="44.36824" lon="5.92215">
        <ele>568</ele>
        <time>2019-04-02T14:01:17Z</time>
      </trkpt>
      <trkpt lat="44.36822" lon="5.92213">
        <ele>568</ele>
        <time>2019-04-02T14:01:18Z</time>
      </trkpt>
      <trkpt lat="44.36819" lon="5.92212">
        <ele>568</ele>
        <time>2019-04-02T14:01:19Z</time>
      </trkpt>
      <trkpt lat="44.36816" lon="5.9221">
        <ele>568</ele>
        <time>2019-04-02T14:01:20Z</time>
      </trkpt>
      <trkpt lat="44.36812" lon="5.92208">
        <ele>568</ele>
        <time>2019-04-02T14:01:21Z</time>
      </trkpt>
      <trkpt lat="44.36808" lon="5.92206">
        <ele>568</ele>
        <time>2019-04-02T14:01:22Z</time>
      </trkpt>
      <trkpt lat="44.36804" lon="5.92203">
        <ele>568</ele>
        <time>2019-04-02T14:01:23Z</time>
      </trkpt>
      <trkpt lat="44.36799" lon="5.92201">
        <ele>568</ele>
        <time>2019-04-02T14:01:24Z</time>
      </trkpt>
      <trkpt lat="44.36793" lon="5.92198">
        <ele>568</ele>
        <time>2019-04-02T14:01:25Z</time>
      </trkpt>
      <trkpt lat="44.36787" lon="5.92195">
        <ele>568</ele>
        <time>2019-04-02T14:01:26Z</time>
      </trkpt>
      <trkpt lat="44.36781" lon="5.92192">
        <ele>568</ele>
        <time>2019-04-02T14:01:27Z</time>
      </trkpt>
      <trkpt lat="44.36774" lon="5.92189">
        <ele>568</ele>
        <time>2019-04-02T14:01:28Z</time>
      </trkpt>
      <trkpt lat="44.36768" lon="5.92186">
        <ele>568</ele>
        <time>2019-04-02T14:01:29Z</time>
      </trkpt>
      <trkpt lat="44.36761" lon="5.92183">
        <ele>568</ele>
        <time>2019-04-02T14:01:30Z</time>
      </trkpt>
      <trkpt lat="44.36754" lon="5.92181">
        <ele>568</ele>
        <time>2019-04-02T14:01:31Z</time>
      </trkpt>
      <trkpt lat="44.36747" lon="5.92178">
        <ele>568</ele>
        <time>2019-04-02T14:01:32Z</time>
      </trkpt>
      <trkpt lat="44.36739" lon="5.92176">
        <ele>568</ele>
        <time>2019-04-02T14:01:33Z</time>
      </trkpt>
      <trkpt lat="44.36733" lon="5.92174">
        <ele>568</ele>
        <time>2019-04-02T14:01:34Z</time>
      </trkpt>
      <trkpt lat="44.36726" lon="5.92172">
        <ele>568</ele>
        <time>2019-04-02T14:01:35Z</time>
      </trkpt>
      <trkpt lat="44.3672" lon="5.9217">
        <ele>568</ele>
        <time>2019-04-02T14:01:36Z</time>
      </trkpt>
      <trkpt lat="44.36714" lon="5.92169">
        <ele>568</ele>
        <time>2019-04-02T14:01:37Z</time>
      </trkpt>
      <trkpt lat="44.36708" lon="5.92167">
        <ele>568</ele>
        <time>2019-04-02T14:01:38Z</time>
      </trkpt>
      <trkpt lat="44.36702" lon="5.92165">
        <ele>568</ele>
        <time>2019-04-02T14:01:39Z</time>
      </trkpt>
      <trkpt lat="44.36696" lon="5.92163">
        <ele>568</ele>
        <time>2019-04-02T14:01:40Z</time>
      </trkpt>
      <trkpt lat="44.3669" lon="5.92161">
        <ele>568</ele>
        <time>2019-04-02T14:01:41Z</time>
      </trkpt>
      <trkpt lat="44.36684" lon="5.9216">
        <ele>568</ele>
        <time>2019-04-02T14:01:42Z</time>
      </trkpt>
      <trkpt lat="44.36678" lon="5.92158">
        <ele>568</ele>
        <time>2019-04-02T14:01:43Z</time>
      </trkpt>
      <trkpt lat="44.36672" lon="5.92157">
        <ele>568</ele>
        <time>2019-04-02T14:01:44Z</time>
      </trkpt>
      <trkpt lat="44.36666" lon="5.92155">
        <ele>568</ele>
        <time>2019-04-02T14:01:45Z</time>
      </trkpt>
      <trkpt lat="44.3666" lon="5.92154">
        <ele>568</ele>
        <time>2019-04-02T14:01:46Z</time>
      </trkpt>
      <trkpt lat="44.36655" lon="5.92153">
        <ele>568</ele>
        <time>2019-04-02T14:01:47Z</time>
      </trkpt>
      <trkpt lat="44.36649" lon="5.92151">
        <ele>568</ele>
        <time>2019-04-02T14:01:48Z</time>
      </trkpt>
      <trkpt lat="44.36643" lon="5.92149">
        <ele>568</ele>
        <time>2019-04-02T14:01:49Z</time>
      </trkpt>
      <trkpt lat="44.36638" lon="5.92147">
        <ele>568</ele>
        <time>2019-04-02T14:01:50Z</time>
      </trkpt>
      <trkpt lat="44.36632" lon="5.92146">
        <ele>568</ele>
        <time>2019-04-02T14:01:51Z</time>
      </trkpt>
      <trkpt lat="44.36627" lon="5.92144">
        <ele>568</ele>
        <time>2019-04-02T14:01:52Z</time>
      </trkpt>
      <trkpt lat="44.36621" lon="5.92141">
        <ele>568</ele>
        <time>2019-04-02T14:01:53Z</time>
      </trkpt>
      <trkpt lat="44.36616" lon="5.92139">
        <ele>568</ele>
        <time>2019-04-02T14:01:54Z</time>
      </trkpt>
      <trkpt lat="44.3661" lon="5.92136">
        <ele>568</ele>
        <time>2019-04-02T14:01:55Z</time>
      </trkpt>
      <trkpt lat="44.36605" lon="5.92134">
        <ele>568</ele>
        <time>2019-04-02T14:01:56Z</time>
      </trkpt>
      <trkpt lat="44.36599" lon="5.92131">
        <ele>568</ele>
        <time>2019-04-02T14:01:57Z</time>
      </trkpt>
      <trkpt lat="44.36594" lon="5.92128">
        <ele>568</ele>
        <time>2019-04-02T14:01:58Z</time>
      </trkpt>
      <trkpt lat="44.36588" lon="5.92125">
        <ele>568</ele>
        <time>2019-04-02T14:01:59Z</time>
      </trkpt>
      <trkpt lat="44.36582" lon="5.92122">
        <ele>568</ele>
        <time>2019-04-02T14:02:00Z</time>
      </trkpt>
      <trkpt lat="44.36577" lon="5.92119">
        <ele>568</ele>
        <time>2019-04-02T14:02:01Z</time>
      </trkpt>
      <trkpt lat="44.36571" lon="5.92115">
        <ele>568</ele>
        <time>2019-04-02T14:02:02Z</time>
      </trkpt>
      <trkpt lat="44.36565" lon="5.92112">
        <ele>568</ele>
        <time>2019-04-02T14:02:03Z</time>
      </trkpt>
      <trkpt lat="44.3656" lon="5.92108">
        <ele>568</ele>
        <time>2019-04-02T14:02:04Z</time>
      </trkpt>
      <trkpt lat="44.36554" lon="5.92104">
        <ele>568</ele>
        <time>2019-04-02T14:02:05Z</time>
      </trkpt>
      <trkpt lat="44.36549" lon="5.92101">
        <ele>568</ele>
        <time>2019-04-02T14:02:06Z</time>
      </trkpt>
      <trkpt lat="44.36543" lon="5.92097">
        <ele>568</ele>
        <time>2019-04-02T14:02:07Z</time>
      </trkpt>
      <trkpt lat="44.36537" lon="5.92094">
        <ele>568</ele>
        <time>2019-04-02T14:02:08Z</time>
      </trkpt>
      <trkpt lat="44.36531" lon="5.92091">
        <ele>568</ele>
        <time>2019-04-02T14:02:09Z</time>
      </trkpt>
      <trkpt lat="44.36526" lon="5.92087">
        <ele>568</ele>
        <time>2019-04-02T14:02:10Z</time>
      </trkpt>
      <trkpt lat="44.3652" lon="5.92082">
        <ele>568</ele>
        <time>2019-04-02T14:02:11Z</time>
      </trkpt>
      <trkpt lat="44.36515" lon="5.92077">
        <ele>568</ele>
        <time>2019-04-02T14:02:12Z</time>
      </trkpt>
      <trkpt lat="44.36509" lon="5.92073">
        <ele>568</ele>
        <time>2019-04-02T14:02:13Z</time>
      </trkpt>
      <trkpt lat="44.36504" lon="5.92069">
        <ele>568</ele>
        <time>2019-04-02T14:02:14Z</time>
      </trkpt>
      <trkpt lat="44.36498" lon="5.92065">
        <ele>568</ele>
        <time>2019-04-02T14:02:15Z</time>
      </trkpt>
      <trkpt lat="44.36492" lon="5.92062">
        <ele>568</ele>
        <time>2019-04-02T14:02:16Z</time>
      </trkpt>
      <trkpt lat="44.36486" lon="5.92058">
        <ele>568</ele>
        <time>2019-04-02T14:02:17Z</time>
      </trkpt>
      <trkpt lat="44.3648" lon="5.92054">
        <ele>568</ele>
        <time>2019-04-02T14:02:18Z</time>
      </trkpt>
      <trkpt lat="44.36474" lon="5.92051">
        <ele>568</ele>
        <time>2019-04-02T14:02:19Z</time>
      </trkpt>
      <trkpt lat="44.36468" lon="5.92046">
        <ele>568</ele>
        <time>2019-04-02T14:02:20Z</time>
      </trkpt>
      <trkpt lat="44.36462" lon="5.92042">
        <ele>568</ele>
        <time>2019-04-02T14:02:21Z</time>
      </trkpt>
      <trkpt lat="44.36457" lon="5.92038">
        <ele>568</ele>
        <time>2019-04-02T14:02:22Z</time>
      </trkpt>
      <trkpt lat="44.36451" lon="5.92034">
        <ele>568</ele>
        <time>2019-04-02T14:02:23Z</time>
      </trkpt>
      <trkpt lat="44.36446" lon="5.9203">
        <ele>568</ele>
        <time>2019-04-02T14:02:24Z</time>
      </trkpt>
      <trkpt lat="44.3644" lon="5.92026">
        <ele>568</ele>
        <time>2019-04-02T14:02:25Z</time>
      </trkpt>
      <trkpt lat="44.36435" lon="5.92022">
        <ele>568</ele>
        <time>2019-04-02T14:02:26Z</time>
      </trkpt>
      <trkpt lat="44.36429" lon="5.92018">
        <ele>568</ele>
        <time>2019-04-02T14:02:27Z</time>
      </trkpt>
      <trkpt lat="44.36424" lon="5.92014">
        <ele>568</ele>
        <time>2019-04-02T14:02:28Z</time>
      </trkpt>
      <trkpt lat="44.36418" lon="5.9201">
        <ele>568</ele>
        <time>2019-04-02T14:02:29Z</time>
      </trkpt>
      <trkpt lat="44.36413" lon="5.92007">
        <ele>568</ele>
        <time>2019-04-02T14:02:30Z</time>
      </trkpt>
      <trkpt lat="44.36408" lon="5.92003">
        <ele>568</ele>
        <time>2019-04-02T14:02:31Z</time>
      </trkpt>
      <trkpt lat="44.36402" lon="5.92">
        <ele>568</ele>
        <time>2019-04-02T14:02:32Z</time>
      </trkpt>
      <trkpt lat="44.36397" lon="5.91996">
        <ele>568</ele>
        <time>2019-04-02T14:02:33Z</time>
      </trkpt>
      <trkpt lat="44.36392" lon="5.91993">
        <ele>568</ele>
        <time>2019-04-02T14:02:34Z</time>
      </trkpt>
      <trkpt lat="44.36387" lon="5.9199">
        <ele>568</ele>
        <time>2019-04-02T14:02:35Z</time>
      </trkpt>
      <trkpt lat="44.36382" lon="5.91986">
        <ele>568</ele>
        <time>2019-04-02T14:02:36Z</time>
      </trkpt>
      <trkpt lat="44.36376" lon="5.91983">
        <ele>568</ele>
        <time>2019-04-02T14:02:37Z</time>
      </trkpt>
      <trkpt lat="44.36371" lon="5.91979">
        <ele>568</ele>
        <time>2019-04-02T14:02:38Z</time>
      </trkpt>
      <trkpt lat="44.36366" lon="5.91976">
        <ele>568</ele>
        <time>2019-04-02T14:02:39Z</time>
      </trkpt>
      <trkpt lat="44.36361" lon="5.91972">
        <ele>568</ele>
        <time>2019-04-02T14:02:40Z</time>
      </trkpt>
      <trkpt lat="44.36356" lon="5.91968">
        <ele>568</ele>
        <time>2019-04-02T14:02:41Z</time>
      </trkpt>
      <trkpt lat="44.36351" lon="5.91965">
        <ele>568</ele>
        <time>2019-04-02T14:02:42Z</time>
      </trkpt>
      <trkpt lat="44.36346" lon="5.91961">
        <ele>568</ele>
        <time>2019-04-02T14:02:43Z</time>
      </trkpt>
      <trkpt lat="44.3634" lon="5.91958">
        <ele>568</ele>
        <time>2019-04-02T14:02:44Z</time>
      </trkpt>
      <trkpt lat="44.36335" lon="5.91954">
        <ele>568</ele>
        <time>2019-04-02T14:02:45Z</time>
      </trkpt>
      <trkpt lat="44.3633" lon="5.9195">
        <ele>568</ele>
        <time>2019-04-02T14:02:46Z</time>
      </trkpt>
      <trkpt lat="44.36324" lon="5.91946">
        <ele>568</ele>
        <time>2019-04-02T14:02:47Z</time>
      </trkpt>
      <trkpt lat="44.36319" lon="5.91942">
        <ele>568</ele>
        <time>2019-04-02T14:02:48Z</time>
      </trkpt>
      <trkpt lat="44.36313" lon="5.91938">
        <ele>568</ele>
        <time>2019-04-02T14:02:49Z</time>
      </trkpt>
      <trkpt lat="44.36308" lon="5.91934">
        <ele>568</ele>
        <time>2019-04-02T14:02:50Z</time>
      </trkpt>
      <trkpt lat="44.36303" lon="5.91931">
        <ele>568</ele>
        <time>2019-04-02T14:02:51Z</time>
      </trkpt>
      <trkpt lat="44.36297" lon="5.91927">
        <ele>568</ele>
        <time>2019-04-02T14:02:52Z</time>
      </trkpt>
      <trkpt lat="44.36292" lon="5.91923">
        <ele>568</ele>
        <time>2019-04-02T14:02:53Z</time>
      </trkpt>
      <trkpt lat="44.36286" lon="5.9192">
        <ele>568</ele>
        <time>2019-04-02T14:02:54Z</time>
      </trkpt>
      <trkpt lat="44.3628" lon="5.91916">
        <ele>568</ele>
        <time>2019-04-02T14:02:55Z</time>
      </trkpt>
      <trkpt lat="44.36274" lon="5.91912">
        <ele>568</ele>
        <time>2019-04-02T14:02:56Z</time>
      </trkpt>
      <trkpt lat="44.36269" lon="5.91908">
        <ele>568</ele>
        <time>2019-04-02T14:02:57Z</time>
      </trkpt>
      <trkpt lat="44.36263" lon="5.91904">
        <ele>568</ele>
        <time>2019-04-02T14:02:58Z</time>
      </trkpt>
      <trkpt lat="44.36258" lon="5.919">
        <ele>568</ele>
        <time>2019-04-02T14:02:59Z</time>
      </trkpt>
      <trkpt lat="44.36252" lon="5.91896">
        <ele>568</ele>
        <time>2019-04-02T14:03:00Z</time>
      </trkpt>
      <trkpt lat="44.36247" lon="5.91892">
        <ele>568</ele>
        <time>2019-04-02T14:03:01Z</time>
      </trkpt>
      <trkpt lat="44.36242" lon="5.91889">
        <ele>568</ele>
        <time>2019-04-02T14:03:02Z</time>
      </trkpt>
      <trkpt lat="44.36236" lon="5.91885">
        <ele>568</ele>
        <time>2019-04-02T14:03:03Z</time>
      </trkpt>
      <trkpt lat="44.3623" lon="5.91882">
        <ele>568</ele>
        <time>2019-04-02T14:03:04Z</time>
      </trkpt>
      <trkpt lat="44.36225" lon="5.91878">
        <ele>568</ele>
        <time>2019-04-02T14:03:05Z</time>
      </trkpt>
      <trkpt lat="44.36219" lon="5.91875">
        <ele>568</ele>
        <time>2019-04-02T14:03:06Z</time>
      </trkpt>
      <trkpt lat="44.36214" lon="5.91871">
        <ele>568</ele>
        <time>2019-04-02T14:03:07Z</time>
      </trkpt>
      <trkpt lat="44.36208" lon="5.91867">
        <ele>568</ele>
        <time>2019-04-02T14:03:08Z</time>
      </trkpt>
      <trkpt lat="44.36203" lon="5.91863">
        <ele>568</ele>
        <time>2019-04-02T14:03:09Z</time>
      </trkpt>
      <trkpt lat="44.36198" lon="5.91859">
        <ele>568</ele>
        <time>2019-04-02T14:03:10Z</time>
      </trkpt>
      <trkpt lat="44.36192" lon="5.91855">
        <ele>568</ele>
        <time>2019-04-02T14:03:11Z</time>
      </trkpt>
      <trkpt lat="44.36186" lon="5.91851">
        <ele>568</ele>
        <time>2019-04-02T14:03:12Z</time>
      </trkpt>
      <trkpt lat="44.3618" lon="5.91847">
        <ele>568</ele>
        <time>2019-04-02T14:03:13Z</time>
      </trkpt>
      <trkpt lat="44.36174" lon="5.91843">
        <ele>568</ele>
        <time>2019-04-02T14:03:14Z</time>
      </trkpt>
      <trkpt lat="44.36168" lon="5.91839">
        <ele>568</ele>
        <time>2019-04-02T14:03:15Z</time>
      </trkpt>
      <trkpt lat="44.36162" lon="5.91835">
        <ele>568</ele>
        <time>2019-04-02T14:03:16Z</time>
      </trkpt>
      <trkpt lat="44.36156" lon="5.91831">
        <ele>568</ele>
        <time>2019-04-02T14:03:17Z</time>
      </trkpt>
      <trkpt lat="44.36151" lon="5.91827">
        <ele>568</ele>
        <time>2019-04-02T14:03:18Z</time>
      </trkpt>
      <trkpt lat="44.36145" lon="5.91823">
        <ele>568</ele>
        <time>2019-04-02T14:03:19Z</time>
      </trkpt>
      <trkpt lat="44.3614" lon="5.91819">
        <ele>568</ele>
        <time>2019-04-02T14:03:20Z</time>
      </trkpt>
      <trkpt lat="44.36134" lon="5.91815">
        <ele>568</ele>
        <time>2019-04-02T14:03:21Z</time>
      </trkpt>
      <trkpt lat="44.36129" lon="5.91811">
        <ele>568</ele>
        <time>2019-04-02T14:03:22Z</time>
      </trkpt>
      <trkpt lat="44.36124" lon="5.91808">
        <ele>568</ele>
        <time>2019-04-02T14:03:23Z</time>
      </trkpt>
      <trkpt lat="44.36118" lon="5.91804">
        <ele>568</ele>
        <time>2019-04-02T14:03:24Z</time>
      </trkpt>
      <trkpt lat="44.36113" lon="5.91801">
        <ele>568</ele>
        <time>2019-04-02T14:03:25Z</time>
      </trkpt>
      <trkpt lat="44.36108" lon="5.91797">
        <ele>568</ele>
        <time>2019-04-02T14:03:26Z</time>
      </trkpt>
      <trkpt lat="44.36103" lon="5.91793">
        <ele>568</ele>
        <time>2019-04-02T14:03:27Z</time>
      </trkpt>
      <trkpt lat="44.36097" lon="5.91789">
        <ele>568</ele>
        <time>2019-04-02T14:03:28Z</time>
      </trkpt>
      <trkpt lat="44.36092" lon="5.91786">
        <ele>568</ele>
        <time>2019-04-02T14:03:29Z</time>
      </trkpt>
      <trkpt lat="44.36087" lon="5.91783">
        <ele>568</ele>
        <time>2019-04-02T14:03:30Z</time>
      </trkpt>
      <trkpt lat="44.36082" lon="5.9178">
        <ele>568</ele>
        <time>2019-04-02T14:03:31Z</time>
      </trkpt>
      <trkpt lat="44.36077" lon="5.91776">
        <ele>568</ele>
        <time>2019-04-02T14:03:32Z</time>
      </trkpt>
      <trkpt lat="44.36072" lon="5.91773">
        <ele>568</ele>
        <time>2019-04-02T14:03:33Z</time>
      </trkpt>
      <trkpt lat="44.36067" lon="5.91769">
        <ele>568</ele>
        <time>2019-04-02T14:03:34Z</time>
      </trkpt>
      <trkpt lat="44.36062" lon="5.91765">
        <ele>568</ele>
        <time>2019-04-02T14:03:35Z</time>
      </trkpt>
      <trkpt lat="44.36057" lon="5.91761">
        <ele>568</ele>
        <time>2019-04-02T14:03:36Z</time>
      </trkpt>
      <trkpt lat="44.36052" lon="5.91757">
        <ele>568</ele>
        <time>2019-04-02T14:03:37Z</time>
      </trkpt>
      <trkpt lat="44.36047" lon="5.91754">
        <ele>568</ele>
        <time>2019-04-02T14:03:38Z</time>
      </trkpt>
      <trkpt lat="44.36042" lon="5.9175">
        <ele>568</ele>
        <time>2019-04-02T14:03:39Z</time>
      </trkpt>
      <trkpt lat="44.36036" lon="5.91747">
        <ele>568</ele>
        <time>2019-04-02T14:03:40Z</time>
      </trkpt>
      <trkpt lat="44.36031" lon="5.91743">
        <ele>568</ele>
        <time>2019-04-02T14:03:41Z</time>
      </trkpt>
      <trkpt lat="44.36026" lon="5.9174">
        <ele>568</ele>
        <time>2019-04-02T14:03:42Z</time>
      </trkpt>
      <trkpt lat="44.36021" lon="5.91736">
        <ele>568</ele>
        <time>2019-04-02T14:03:43Z</time>
      </trkpt>
      <trkpt lat="44.36016" lon="5.91733">
        <ele>568</ele>
        <time>2019-04-02T14:03:44Z</time>
      </trkpt>
      <trkpt lat="44.36012" lon="5.91729">
        <ele>568</ele>
        <time>2019-04-02T14:03:45Z</time>
      </trkpt>
      <trkpt lat="44.36007" lon="5.91725">
        <ele>568</ele>
        <time>2019-04-02T14:03:46Z</time>
      </trkpt>
      <trkpt lat="44.36002" lon="5.91722">
        <ele>568</ele>
        <time>2019-04-02T14:03:47Z</time>
      </trkpt>
      <trkpt lat="44.35997" lon="5.91719">
        <ele>568</ele>
        <time>2019-04-02T14:03:48Z</time>
      </trkpt>
      <trkpt lat="44.35992" lon="5.91715">
        <ele>568</ele>
        <time>2019-04-02T14:03:49Z</time>
      </trkpt>
      <trkpt lat="44.35987" lon="5.91712">
        <ele>568</ele>
        <time>2019-04-02T14:03:50Z</time>
      </trkpt>
      <trkpt lat="44.35982" lon="5.91709">
        <ele>568</ele>
        <time>2019-04-02T14:03:51Z</time>
      </trkpt>
      <trkpt lat="44.35977" lon="5.91706">
        <ele>568</ele>
        <time>2019-04-02T14:03:52Z</time>
      </trkpt>
      <trkpt lat="44.35972" lon="5.91702">
        <ele>568</ele>
        <time>2019-04-02T14:03:53Z</time>
      </trkpt>
      <trkpt lat="44.35967" lon="5.91698">
        <ele>568</ele>
        <time>2019-04-02T14:03:54Z</time>
      </trkpt>
      <trkpt lat="44.35962" lon="5.91694">
        <ele>568</ele>
        <time>2019-04-02T14:03:55Z</time>
      </trkpt>
      <trkpt lat="44.35957" lon="5.91691">
        <ele>568</ele>
        <time>2019-04-02T14:03:56Z</time>
      </trkpt>
      <trkpt lat="44.35952" lon="5.91687">
        <ele>568</ele>
        <time>2019-04-02T14:03:57Z</time>
      </trkpt>
      <trkpt lat="44.35947" lon="5.91684">
        <ele>568</ele>
        <time>2019-04-02T14:03:58Z</time>
      </trkpt>
      <trkpt lat="44.35943" lon="5.91681">
        <ele>568</ele>
        <time>2019-04-02T14:03:59Z</time>
      </trkpt>
      <trkpt lat="44.35938" lon="5.91677">
        <ele>568</ele>
        <time>2019-04-02T14:04:00Z</time>
      </trkpt>
      <trkpt lat="44.35933" lon="5.91674">
        <ele>568</ele>
        <time>2019-04-02T14:04:01Z</time>
      </trkpt>
      <trkpt lat="44.35928" lon="5.9167">
        <ele>568</ele>
        <time>2019-04-02T14:04:02Z</time>
      </trkpt>
      <trkpt lat="44.35923" lon="5.91667">
        <ele>568</ele>
        <time>2019-04-02T14:04:03Z</time>
      </trkpt>
      <trkpt lat="44.35918" lon="5.91663">
        <ele>568</ele>
        <time>2019-04-02T14:04:04Z</time>
      </trkpt>
      <trkpt lat="44.35913" lon="5.9166">
        <ele>568</ele>
        <time>2019-04-02T14:04:05Z</time>
      </trkpt>
      <trkpt lat="44.35908" lon="5.91656">
        <ele>568</ele>
        <time>2019-04-02T14:04:06Z</time>
      </trkpt>
      <trkpt lat="44.35903" lon="5.91653">
        <ele>568</ele>
        <time>2019-04-02T14:04:07Z</time>
      </trkpt>
      <trkpt lat="44.35898" lon="5.91649">
        <ele>568</ele>
        <time>2019-04-02T14:04:08Z</time>
      </trkpt>
      <trkpt lat="44.35893" lon="5.91646">
        <ele>568</ele>
        <time>2019-04-02T14:04:09Z</time>
      </trkpt>
      <trkpt lat="44.35888" lon="5.91643">
        <ele>568</ele>
        <time>2019-04-02T14:04:10Z</time>
      </trkpt>
      <trkpt lat="44.35883" lon="5.9164">
        <ele>568</ele>
        <time>2019-04-02T14:04:11Z</time>
      </trkpt>
      <trkpt lat="44.35878" lon="5.91637">
        <ele>568</ele>
        <time>2019-04-02T14:04:12Z</time>
      </trkpt>
      <trkpt lat="44.35874" lon="5.91633">
        <ele>568</ele>
        <time>2019-04-02T14:04:13Z</time>
      </trkpt>
      <trkpt lat="44.35869" lon="5.9163">
        <ele>568</ele>
        <time>2019-04-02T14:04:14Z</time>
      </trkpt>
      <trkpt lat="44.35865" lon="5.91626">
        <ele>568</ele>
        <time>2019-04-02T14:04:15Z</time>
      </trkpt>
      <trkpt lat="44.3586" lon="5.91623">
        <ele>568</ele>
        <time>2019-04-02T14:04:16Z</time>
      </trkpt>
      <trkpt lat="44.35855" lon="5.9162">
        <ele>568</ele>
        <time>2019-04-02T14:04:17Z</time>
      </trkpt>
      <trkpt lat="44.35851" lon="5.91617">
        <ele>568</ele>
        <time>2019-04-02T14:04:18Z</time>
      </trkpt>
      <trkpt lat="44.35846" lon="5.91614">
        <ele>568</ele>
        <time>2019-04-02T14:04:19Z</time>
      </trkpt>
      <trkpt lat="44.35841" lon="5.91611">
        <ele>568</ele>
        <time>2019-04-02T14:04:20Z</time>
      </trkpt>
      <trkpt lat="44.35837" lon="5.91607">
        <ele>568</ele>
        <time>2019-04-02T14:04:21Z</time>
      </trkpt>
      <trkpt lat="44.35832" lon="5.91604">
        <ele>568</ele>
        <time>2019-04-02T14:04:22Z</time>
      </trkpt>
      <trkpt lat="44.35828" lon="5.91601">
        <ele>568</ele>
        <time>2019-04-02T14:04:23Z</time>
      </trkpt>
      <trkpt lat="44.35823" lon="5.91597">
        <ele>568</ele>
        <time>2019-04-02T14:04:24Z</time>
      </trkpt>
      <trkpt lat="44.35818" lon="5.91594">
        <ele>568</ele>
        <time>2019-04-02T14:04:25Z</time>
      </trkpt>
      <trkpt lat="44.35813" lon="5.91591">
        <ele>568</ele>
        <time>2019-04-02T14:04:26Z</time>
      </trkpt>
      <trkpt lat="44.35809" lon="5.91588">
        <ele>568</ele>
        <time>2019-04-02T14:04:27Z</time>
      </trkpt>
      <trkpt lat="44.35804" lon="5.91585">
        <ele>568</ele>
        <time>2019-04-02T14:04:28Z</time>
      </trkpt>
      <trkpt lat="44.35799" lon="5.91582">
        <ele>568</ele>
        <time>2019-04-02T14:04:29Z</time>
      </trkpt>
      <trkpt lat="44.35794" lon="5.91578">
        <ele>568</ele>
        <time>2019-04-02T14:04:30Z</time>
      </trkpt>
      <trkpt lat="44.35789" lon="5.91575">
        <ele>568</ele>
        <time>2019-04-02T14:04:31Z</time>
      </trkpt>
      <trkpt lat="44.35785" lon="5.91572">
        <ele>568</ele>
        <time>2019-04-02T14:04:32Z</time>
      </trkpt>
      <trkpt lat="44.3578" lon="5.91568">
        <ele>568</ele>
        <time>2019-04-02T14:04:33Z</time>
      </trkpt>
      <trkpt lat="44.35775" lon="5.91565">
        <ele>568</ele>
        <time>2019-04-02T14:04:34Z</time>
      </trkpt>
      <trkpt lat="44.3577" lon="5.91561">
        <ele>568</ele>
        <time>2019-04-02T14:04:35Z</time>
      </trkpt>
      <trkpt lat="44.35765" lon="5.91558">
        <ele>568</ele>
        <time>2019-04-02T14:04:36Z</time>
      </trkpt>
      <trkpt lat="44.3576" lon="5.91555">
        <ele>568</ele>
        <time>2019-04-02T14:04:37Z</time>
      </trkpt>
      <trkpt lat="44.35756" lon="5.91552">
        <ele>568</ele>
        <time>2019-04-02T14:04:38Z</time>
      </trkpt>
      <trkpt lat="44.35751" lon="5.91549">
        <ele>568</ele>
        <time>2019-04-02T14:04:39Z</time>
      </trkpt>
      <trkpt lat="44.35747" lon="5.91546">
        <ele>568</ele>
        <time>2019-04-02T14:04:40Z</time>
      </trkpt>
      <trkpt lat="44.35742" lon="5.91543">
        <ele>568</ele>
        <time>2019-04-02T14:04:41Z</time>
      </trkpt>
      <trkpt lat="44.35738" lon="5.9154">
        <ele>568</ele>
        <time>2019-04-02T14:04:42Z</time>
      </trkpt>
      <trkpt lat="44.35733" lon="5.91537">
        <ele>568</ele>
        <time>2019-04-02T14:04:43Z</time>
      </trkpt>
      <trkpt lat="44.35728" lon="5.91533">
        <ele>568</ele>
        <time>2019-04-02T14:04:44Z</time>
      </trkpt>
      <trkpt lat="44.35723" lon="5.9153">
        <ele>568</ele>
        <time>2019-04-02T14:04:45Z</time>
      </trkpt>
      <trkpt lat="44.35718" lon="5.91526">
        <ele>568</ele>
        <time>2019-04-02T14:04:46Z</time>
      </trkpt>
      <trkpt lat="44.35713" lon="5.91523">
        <ele>568</ele>
        <time>2019-04-02T14:04:47Z</time>
      </trkpt>
      <trkpt lat="44.35708" lon="5.91519">
        <ele>568</ele>
        <time>2019-04-02T14:04:48Z</time>
      </trkpt>
      <trkpt lat="44.35703" lon="5.91516">
        <ele>568</ele>
        <time>2019-04-02T14:04:49Z</time>
      </trkpt>
      <trkpt lat="44.35698" lon="5.91512">
        <ele>568</ele>
        <time>2019-04-02T14:04:50Z</time>
      </trkpt>
      <trkpt lat="44.35694" lon="5.91509">
        <ele>568</ele>
        <time>2019-04-02T14:04:51Z</time>
      </trkpt>
      <trkpt lat="44.35689" lon="5.91505">
        <ele>568</ele>
        <time>2019-04-02T14:04:52Z</time>
      </trkpt>
      <trkpt lat="44.35684" lon="5.91502">
        <ele>568</ele>
        <time>2019-04-02T14:04:53Z</time>
      </trkpt>
      <trkpt lat="44.35679" lon="5.91499">
        <ele>568</ele>
        <time>2019-04-02T14:04:54Z</time>
      </trkpt>
      <trkpt lat="44.35675" lon="5.91495">
        <ele>568</ele>
        <time>2019-04-02T14:04:55Z</time>
      </trkpt>
      <trkpt lat="44.3567" lon="5.91492">
        <ele>568</ele>
        <time>2019-04-02T14:04:56Z</time>
      </trkpt>
      <trkpt lat="44.35665" lon="5.91489">
        <ele>568</ele>
        <time>2019-04-02T14:04:57Z</time>
      </trkpt>
      <trkpt lat="44.3566" lon="5.91485">
        <ele>568</ele>
        <time>2019-04-02T14:04:58Z</time>
      </trkpt>
      <trkpt lat="44.35656" lon="5.91481">
        <ele>568</ele>
        <time>2019-04-02T14:04:59Z</time>
      </trkpt>
      <trkpt lat="44.35651" lon="5.91478">
        <ele>568</ele>
        <time>2019-04-02T14:05:00Z</time>
      </trkpt>
      <trkpt lat="44.35647" lon="5.91475">
        <ele>568</ele>
        <time>2019-04-02T14:05:01Z</time>
      </trkpt>
      <trkpt lat="44.35643" lon="5.91472">
        <ele>568</ele>
        <time>2019-04-02T14:05:02Z</time>
      </trkpt>
      <trkpt lat="44.35638" lon="5.91469">
        <ele>568</ele>
        <time>2019-04-02T14:05:03Z</time>
      </trkpt>
      <trkpt lat="44.35634" lon="5.91467">
        <ele>568</ele>
        <time>2019-04-02T14:05:04Z</time>
      </trkpt>
      <trkpt lat="44.35629" lon="5.91464">
        <ele>568</ele>
        <time>2019-04-02T14:05:05Z</time>
      </trkpt>
      <trkpt lat="44.35624" lon="5.91461">
        <ele>568</ele>
        <time>2019-04-02T14:05:06Z</time>
      </trkpt>
      <trkpt lat="44.35619" lon="5.91458">
        <ele>568</ele>
        <time>2019-04-02T14:05:07Z</time>
      </trkpt>
      <trkpt lat="44.35615" lon="5.91455">
        <ele>568</ele>
        <time>2019-04-02T14:05:08Z</time>
      </trkpt>
      <trkpt lat="44.3561" lon="5.91452">
        <ele>568</ele>
        <time>2019-04-02T14:05:09Z</time>
      </trkpt>
      <trkpt lat="44.35606" lon="5.91449">
        <ele>568</ele>
        <time>2019-04-02T14:05:10Z</time>
      </trkpt>
      <trkpt lat="44.35601" lon="5.91446">
        <ele>568</ele>
        <time>2019-04-02T14:05:11Z</time>
      </trkpt>
      <trkpt lat="44.35596" lon="5.91443">
        <ele>568</ele>
        <time>2019-04-02T14:05:12Z</time>
      </trkpt>
      <trkpt lat="44.35592" lon="5.9144">
        <ele>568</ele>
        <time>2019-04-02T14:05:13Z</time>
      </trkpt>
      <trkpt lat="44.35587" lon="5.91437">
        <ele>568</ele>
        <time>2019-04-02T14:05:14Z</time>
      </trkpt>
      <trkpt lat="44.35583" lon="5.91434">
        <ele>568</ele>
        <time>2019-04-02T14:05:15Z</time>
      </trkpt>
      <trkpt lat="44.35578" lon="5.91431">
        <ele>568</ele>
        <time>2019-04-02T14:05:16Z</time>
      </trkpt>
      <trkpt lat="44.35573" lon="5.91428">
        <ele>568</ele>
        <time>2019-04-02T14:05:17Z</time>
      </trkpt>
      <trkpt lat="44.35568" lon="5.91425">
        <ele>568</ele>
        <time>2019-04-02T14:05:18Z</time>
      </trkpt>
      <trkpt lat="44.35564" lon="5.91421">
        <ele>568</ele>
        <time>2019-04-02T14:05:19Z</time>
      </trkpt>
      <trkpt lat="44.35559" lon="5.91418">
        <ele>568</ele>
        <time>2019-04-02T14:05:20Z</time>
      </trkpt>
      <trkpt lat="44.35555" lon="5.91415">
        <ele>568</ele>
        <time>2019-04-02T14:05:21Z</time>
      </trkpt>
      <trkpt lat="44.35551" lon="5.91411">
        <ele>568</ele>
        <time>2019-04-02T14:05:22Z</time>
      </trkpt>
      <trkpt lat="44.35546" lon="5.91408">
        <ele>568</ele>
        <time>2019-04-02T14:05:23Z</time>
      </trkpt>
      <trkpt lat="44.35542" lon="5.91405">
        <ele>568</ele>
        <time>2019-04-02T14:05:24Z</time>
      </trkpt>
      <trkpt lat="44.35537" lon="5.91402">
        <ele>568</ele>
        <time>2019-04-02T14:05:25Z</time>
      </trkpt>
      <trkpt lat="44.35532" lon="5.91399">
        <ele>569</ele>
        <time>2019-04-02T14:05:26Z</time>
      </trkpt>
      <trkpt lat="44.35528" lon="5.91396">
        <ele>569</ele>
        <time>2019-04-02T14:05:27Z</time>
      </trkpt>
      <trkpt lat="44.35524" lon="5.91394">
        <ele>569</ele>
        <time>2019-04-02T14:05:28Z</time>
      </trkpt>
      <trkpt lat="44.35519" lon="5.91391">
        <ele>569</ele>
        <time>2019-04-02T14:05:29Z</time>
      </trkpt>
      <trkpt lat="44.35514" lon="5.91389">
        <ele>569</ele>
        <time>2019-04-02T14:05:30Z</time>
      </trkpt>
      <trkpt lat="44.3551" lon="5.91386">
        <ele>569</ele>
        <time>2019-04-02T14:05:31Z</time>
      </trkpt>
      <trkpt lat="44.35505" lon="5.91383">
        <ele>569</ele>
        <time>2019-04-02T14:05:32Z</time>
      </trkpt>
      <trkpt lat="44.355" lon="5.9138">
        <ele>569</ele>
        <time>2019-04-02T14:05:33Z</time>
      </trkpt>
      <trkpt lat="44.35496" lon="5.91377">
        <ele>569</ele>
        <time>2019-04-02T14:05:34Z</time>
      </trkpt>
      <trkpt lat="44.35491" lon="5.91374">
        <ele>569</ele>
        <time>2019-04-02T14:05:35Z</time>
      </trkpt>
      <trkpt lat="44.35486" lon="5.91371">
        <ele>569</ele>
        <time>2019-04-02T14:05:36Z</time>
      </trkpt>
      <trkpt lat="44.35481" lon="5.91368">
        <ele>569</ele>
        <time>2019-04-02T14:05:37Z</time>
      </trkpt>
      <trkpt lat="44.35476" lon="5.91365">
        <ele>569</ele>
        <time>2019-04-02T14:05:38Z</time>
      </trkpt>
      <trkpt lat="44.35471" lon="5.91361">
        <ele>569</ele>
        <time>2019-04-02T14:05:39Z</time>
      </trkpt>
      <trkpt lat="44.35466" lon="5.91358">
        <ele>569</ele>
        <time>2019-04-02T14:05:40Z</time>
      </trkpt>
      <trkpt lat="44.35461" lon="5.91354">
        <ele>569</ele>
        <time>2019-04-02T14:05:41Z</time>
      </trkpt>
      <trkpt lat="44.35455" lon="5.9135">
        <ele>569</ele>
        <time>2019-04-02T14:05:42Z</time>
      </trkpt>
      <trkpt lat="44.3545" lon="5.91347">
        <ele>569</ele>
        <time>2019-04-02T14:05:43Z</time>
      </trkpt>
      <trkpt lat="44.35444" lon="5.91343">
        <ele>569</ele>
        <time>2019-04-02T14:05:44Z</time>
      </trkpt>
      <trkpt lat="44.35438" lon="5.91339">
        <ele>569</ele>
        <time>2019-04-02T14:05:45Z</time>
      </trkpt>
      <trkpt lat="44.35433" lon="5.91335">
        <ele>569</ele>
        <time>2019-04-02T14:05:46Z</time>
      </trkpt>
      <trkpt lat="44.35427" lon="5.91331">
        <ele>569</ele>
        <time>2019-04-02T14:05:47Z</time>
      </trkpt>
      <trkpt lat="44.35421" lon="5.91328">
        <ele>569</ele>
        <time>2019-04-02T14:05:48Z</time>
      </trkpt>
      <trkpt lat="44.35416" lon="5.91324">
        <ele>569</ele>
        <time>2019-04-02T14:05:49Z</time>
      </trkpt>
      <trkpt lat="44.35411" lon="5.9132">
        <ele>569</ele>
        <time>2019-04-02T14:05:50Z</time>
      </trkpt>
      <trkpt lat="44.35405" lon="5.91316">
        <ele>569</ele>
        <time>2019-04-02T14:05:51Z</time>
      </trkpt>
      <trkpt lat="44.354" lon="5.91312">
        <ele>569</ele>
        <time>2019-04-02T14:05:52Z</time>
      </trkpt>
      <trkpt lat="44.35395" lon="5.91308">
        <ele>569</ele>
        <time>2019-04-02T14:05:53Z</time>
      </trkpt>
      <trkpt lat="44.3539" lon="5.91305">
        <ele>569</ele>
        <time>2019-04-02T14:05:54Z</time>
      </trkpt>
      <trkpt lat="44.35385" lon="5.91301">
        <ele>569</ele>
        <time>2019-04-02T14:05:55Z</time>
      </trkpt>
      <trkpt lat="44.3538" lon="5.91297">
        <ele>569</ele>
        <time>2019-04-02T14:05:56Z</time>
      </trkpt>
      <trkpt lat="44.35375" lon="5.91293">
        <ele>569</ele>
        <time>2019-04-02T14:05:57Z</time>
      </trkpt>
      <trkpt lat="44.3537" lon="5.9129">
        <ele>569</ele>
        <time>2019-04-02T14:05:58Z</time>
      </trkpt>
      <trkpt lat="44.35365" lon="5.91286">
        <ele>569</ele>
        <time>2019-04-02T14:05:59Z</time>
      </trkpt>
      <trkpt lat="44.3536" lon="5.91282">
        <ele>569</ele>
        <time>2019-04-02T14:06:00Z</time>
      </trkpt>
      <trkpt lat="44.35355" lon="5.91278">
        <ele>569</ele>
        <time>2019-04-02T14:06:01Z</time>
      </trkpt>
      <trkpt lat="44.3535" lon="5.91273">
        <ele>569</ele>
        <time>2019-04-02T14:06:02Z</time>
      </trkpt>
      <trkpt lat="44.35344" lon="5.91268">
        <ele>569</ele>
        <time>2019-04-02T14:06:03Z</time>
      </trkpt>
      <trkpt lat="44.35339" lon="5.91264">
        <ele>569</ele>
        <time>2019-04-02T14:06:04Z</time>
      </trkpt>
      <trkpt lat="44.35333" lon="5.9126">
        <ele>569</ele>
        <time>2019-04-02T14:06:05Z</time>
      </trkpt>
      <trkpt lat="44.35327" lon="5.91256">
        <ele>569</ele>
        <time>2019-04-02T14:06:06Z</time>
      </trkpt>
      <trkpt lat="44.35322" lon="5.91252">
        <ele>569</ele>
        <time>2019-04-02T14:06:07Z</time>
      </trkpt>
      <trkpt lat="44.35317" lon="5.91248">
        <ele>569</ele>
        <time>2019-04-02T14:06:08Z</time>
      </trkpt>
      <trkpt lat="44.35311" lon="5.91244">
        <ele>569</ele>
        <time>2019-04-02T14:06:09Z</time>
      </trkpt>
      <trkpt lat="44.35306" lon="5.91239">
        <ele>569</ele>
        <time>2019-04-02T14:06:10Z</time>
      </trkpt>
      <trkpt lat="44.35301" lon="5.91235">
        <ele>569</ele>
        <time>2019-04-02T14:06:11Z</time>
      </trkpt>
      <trkpt lat="44.35296" lon="5.9123">
        <ele>569</ele>
        <time>2019-04-02T14:06:12Z</time>
      </trkpt>
      <trkpt lat="44.35291" lon="5.91226">
        <ele>569</ele>
        <time>2019-04-02T14:06:13Z</time>
      </trkpt>
      <trkpt lat="44.35285" lon="5.91222">
        <ele>569</ele>
        <time>2019-04-02T14:06:14Z</time>
      </trkpt>
      <trkpt lat="44.3528" lon="5.91218">
        <ele>569</ele>
        <time>2019-04-02T14:06:15Z</time>
      </trkpt>
      <trkpt lat="44.35276" lon="5.91214">
        <ele>569</ele>
        <time>2019-04-02T14:06:16Z</time>
      </trkpt>
      <trkpt lat="44.35271" lon="5.9121">
        <ele>569</ele>
        <time>2019-04-02T14:06:17Z</time>
      </trkpt>
      <trkpt lat="44.35266" lon="5.91205">
        <ele>569</ele>
        <time>2019-04-02T14:06:18Z</time>
      </trkpt>
      <trkpt lat="44.35261" lon="5.912">
        <ele>569</ele>
        <time>2019-04-02T14:06:19Z</time>
      </trkpt>
      <trkpt lat="44.35256" lon="5.91196">
        <ele>569</ele>
        <time>2019-04-02T14:06:20Z</time>
      </trkpt>
      <trkpt lat="44.35251" lon="5.91191">
        <ele>569</ele>
        <time>2019-04-02T14:06:21Z</time>
      </trkpt>
      <trkpt lat="44.35246" lon="5.91187">
        <ele>569</ele>
        <time>2019-04-02T14:06:22Z</time>
      </trkpt>
      <trkpt lat="44.35241" lon="5.91182">
        <ele>569</ele>
        <time>2019-04-02T14:06:23Z</time>
      </trkpt>
      <trkpt lat="44.35235" lon="5.91177">
        <ele>569</ele>
        <time>2019-04-02T14:06:24Z</time>
      </trkpt>
      <trkpt lat="44.3523" lon="5.91172">
        <ele>569</ele>
        <time>2019-04-02T14:06:25Z</time>
      </trkpt>
      <trkpt lat="44.35225" lon="5.91167">
        <ele>569</ele>
        <time>2019-04-02T14:06:26Z</time>
      </trkpt>
      <trkpt lat="44.3522" lon="5.91163">
        <ele>569</ele>
        <time>2019-04-02T14:06:27Z</time>
      </trkpt>
      <trkpt lat="44.35214" lon="5.91158">
        <ele>569</ele>
        <time>2019-04-02T14:06:28Z</time>
      </trkpt>
      <trkpt lat="44.35209" lon="5.91154">
        <ele>569</ele>
        <time>2019-04-02T14:06:29Z</time>
      </trkpt>
      <trkpt lat="44.35204" lon="5.91149">
        <ele>569</ele>
        <time>2019-04-02T14:06:30Z</time>
      </trkpt>
      <trkpt lat="44.35198" lon="5.91144">
        <ele>569</ele>
        <time>2019-04-02T14:06:31Z</time>
      </trkpt>
      <trkpt lat="44.35193" lon="5.91138">
        <ele>569</ele>
        <time>2019-04-02T14:06:32Z</time>
      </trkpt>
      <trkpt lat="44.35187" lon="5.91133">
        <ele>569</ele>
        <time>2019-04-02T14:06:33Z</time>
      </trkpt>
      <trkpt lat="44.35182" lon="5.91128">
        <ele>569</ele>
        <time>2019-04-02T14:06:34Z</time>
      </trkpt>
      <trkpt lat="44.35176" lon="5.91123">
        <ele>569</ele>
        <time>2019-04-02T14:06:35Z</time>
      </trkpt>
      <trkpt lat="44.3517" lon="5.91117">
        <ele>569</ele>
        <time>2019-04-02T14:06:36Z</time>
      </trkpt>
      <trkpt lat="44.35165" lon="5.91112">
        <ele>569</ele>
        <time>2019-04-02T14:06:37Z</time>
      </trkpt>
      <trkpt lat="44.35159" lon="5.91108">
        <ele>569</ele>
        <time>2019-04-02T14:06:38Z</time>
      </trkpt>
      <trkpt lat="44.35153" lon="5.91102">
        <ele>569</ele>
        <time>2019-04-02T14:06:39Z</time>
      </trkpt>
      <trkpt lat="44.35147" lon="5.91096">
        <ele>569</ele>
        <time>2019-04-02T14:06:40Z</time>
      </trkpt>
      <trkpt lat="44.35141" lon="5.9109">
        <ele>568</ele>
        <time>2019-04-02T14:06:41Z</time>
      </trkpt>
      <trkpt lat="44.35135" lon="5.91085">
        <ele>568</ele>
        <time>2019-04-02T14:06:42Z</time>
      </trkpt>
      <trkpt lat="44.35128" lon="5.91079">
        <ele>568</ele>
        <time>2019-04-02T14:06:43Z</time>
      </trkpt>
      <trkpt lat="44.35122" lon="5.91073">
        <ele>568</ele>
        <time>2019-04-02T14:06:44Z</time>
      </trkpt>
      <trkpt lat="44.35116" lon="5.91067">
        <ele>568</ele>
        <time>2019-04-02T14:06:45Z</time>
      </trkpt>
      <trkpt lat="44.35109" lon="5.91062">
        <ele>568</ele>
        <time>2019-04-02T14:06:46Z</time>
      </trkpt>
      <trkpt lat="44.35103" lon="5.91056">
        <ele>567</ele>
        <time>2019-04-02T14:06:47Z</time>
      </trkpt>
      <trkpt lat="44.35096" lon="5.91051">
        <ele>567</ele>
        <time>2019-04-02T14:06:48Z</time>
      </trkpt>
      <trkpt lat="44.3509" lon="5.91045">
        <ele>567</ele>
        <time>2019-04-02T14:06:49Z</time>
      </trkpt>
      <trkpt lat="44.35084" lon="5.91039">
        <ele>567</ele>
        <time>2019-04-02T14:06:50Z</time>
      </trkpt>
      <trkpt lat="44.35078" lon="5.91033">
        <ele>567</ele>
        <time>2019-04-02T14:06:51Z</time>
      </trkpt>
      <trkpt lat="44.35071" lon="5.91027">
        <ele>566</ele>
        <time>2019-04-02T14:06:52Z</time>
      </trkpt>
      <trkpt lat="44.35065" lon="5.91022">
        <ele>566</ele>
        <time>2019-04-02T14:06:53Z</time>
      </trkpt>
      <trkpt lat="44.35059" lon="5.91016">
        <ele>566</ele>
        <time>2019-04-02T14:06:54Z</time>
      </trkpt>
      <trkpt lat="44.35052" lon="5.9101">
        <ele>566</ele>
        <time>2019-04-02T14:06:55Z</time>
      </trkpt>
      <trkpt lat="44.35046" lon="5.91004">
        <ele>566</ele>
        <time>2019-04-02T14:06:56Z</time>
      </trkpt>
      <trkpt lat="44.35039" lon="5.90998">
        <ele>565</ele>
        <time>2019-04-02T14:06:57Z</time>
      </trkpt>
      <trkpt lat="44.35033" lon="5.90991">
        <ele>565</ele>
        <time>2019-04-02T14:06:58Z</time>
      </trkpt>
      <trkpt lat="44.35026" lon="5.90985">
        <ele>565</ele>
        <time>2019-04-02T14:06:59Z</time>
      </trkpt>
      <trkpt lat="44.35019" lon="5.90978">
        <ele>565</ele>
        <time>2019-04-02T14:07:00Z</time>
      </trkpt>
      <trkpt lat="44.35012" lon="5.90972">
        <ele>564</ele>
        <time>2019-04-02T14:07:01Z</time>
      </trkpt>
      <trkpt lat="44.35005" lon="5.90966">
        <ele>564</ele>
        <time>2019-04-02T14:07:02Z</time>
      </trkpt>
      <trkpt lat="44.34998" lon="5.90959">
        <ele>564</ele>
        <time>2019-04-02T14:07:03Z</time>
      </trkpt>
      <trkpt lat="44.34991" lon="5.90952">
        <ele>564</ele>
        <time>2019-04-02T14:07:04Z</time>
      </trkpt>
      <trkpt lat="44.34984" lon="5.90946">
        <ele>564</ele>
        <time>2019-04-02T14:07:05Z</time>
      </trkpt>
      <trkpt lat="44.34977" lon="5.90939">
        <ele>563</ele>
        <time>2019-04-02T14:07:06Z</time>
      </trkpt>
      <trkpt lat="44.3497" lon="5.90933">
        <ele>563</ele>
        <time>2019-04-02T14:07:07Z</time>
      </trkpt>
      <trkpt lat="44.34963" lon="5.90926">
        <ele>563</ele>
        <time>2019-04-02T14:07:08Z</time>
      </trkpt>
      <trkpt lat="44.34956" lon="5.9092">
        <ele>563</ele>
        <time>2019-04-02T14:07:09Z</time>
      </trkpt>
      <trkpt lat="44.34949" lon="5.90914">
        <ele>563</ele>
        <time>2019-04-02T14:07:10Z</time>
      </trkpt>
      <trkpt lat="44.34943" lon="5.90908">
        <ele>563</ele>
        <time>2019-04-02T14:07:11Z</time>
      </trkpt>
      <trkpt lat="44.34936" lon="5.90903">
        <ele>563</ele>
        <time>2019-04-02T14:07:12Z</time>
      </trkpt>
      <trkpt lat="44.34929" lon="5.90898">
        <ele>563</ele>
        <time>2019-04-02T14:07:13Z</time>
      </trkpt>
      <trkpt lat="44.34923" lon="5.90893">
        <ele>563</ele>
        <time>2019-04-02T14:07:14Z</time>
      </trkpt>
      <trkpt lat="44.34917" lon="5.90889">
        <ele>563</ele>
        <time>2019-04-02T14:07:15Z</time>
      </trkpt>
      <trkpt lat="44.3491" lon="5.90884">
        <ele>563</ele>
        <time>2019-04-02T14:07:16Z</time>
      </trkpt>
      <trkpt lat="44.34904" lon="5.90879">
        <ele>563</ele>
        <time>2019-04-02T14:07:17Z</time>
      </trkpt>
      <trkpt lat="44.34898" lon="5.90875">
        <ele>563</ele>
        <time>2019-04-02T14:07:18Z</time>
      </trkpt>
      <trkpt lat="44.34892" lon="5.90871">
        <ele>563</ele>
        <time>2019-04-02T14:07:19Z</time>
      </trkpt>
      <trkpt lat="44.34887" lon="5.90866">
        <ele>563</ele>
        <time>2019-04-02T14:07:20Z</time>
      </trkpt>
      <trkpt lat="44.34881" lon="5.90862">
        <ele>563</ele>
        <time>2019-04-02T14:07:21Z</time>
      </trkpt>
      <trkpt lat="44.34876" lon="5.90858">
        <ele>563</ele>
        <time>2019-04-02T14:07:22Z</time>
      </trkpt>
      <trkpt lat="44.34871" lon="5.90853">
        <ele>563</ele>
        <time>2019-04-02T14:07:23Z</time>
      </trkpt>
      <trkpt lat="44.34866" lon="5.90849">
        <ele>563</ele>
        <time>2019-04-02T14:07:24Z</time>
      </trkpt>
      <trkpt lat="44.34861" lon="5.90845">
        <ele>563</ele>
        <time>2019-04-02T14:07:25Z</time>
      </trkpt>
      <trkpt lat="44.34855" lon="5.90841">
        <ele>563</ele>
        <time>2019-04-02T14:07:26Z</time>
      </trkpt>
      <trkpt lat="44.3485" lon="5.90837">
        <ele>563</ele>
        <time>2019-04-02T14:07:27Z</time>
      </trkpt>
      <trkpt lat="44.34845" lon="5.90833">
        <ele>563</ele>
        <time>2019-04-02T14:07:28Z</time>
      </trkpt>
      <trkpt lat="44.34839" lon="5.90829">
        <ele>563</ele>
        <time>2019-04-02T14:07:29Z</time>
      </trkpt>
      <trkpt lat="44.34834" lon="5.90824">
        <ele>563</ele>
        <time>2019-04-02T14:07:30Z</time>
      </trkpt>
      <trkpt lat="44.34828" lon="5.9082">
        <ele>563</ele>
        <time>2019-04-02T14:07:31Z</time>
      </trkpt>
      <trkpt lat="44.34823" lon="5.90816">
        <ele>563</ele>
        <time>2019-04-02T14:07:32Z</time>
      </trkpt>
      <trkpt lat="44.34818" lon="5.90812">
        <ele>563</ele>
        <time>2019-04-02T14:07:33Z</time>
      </trkpt>
      <trkpt lat="44.34812" lon="5.90808">
        <ele>563</ele>
        <time>2019-04-02T14:07:34Z</time>
      </trkpt>
      <trkpt lat="44.34807" lon="5.90804">
        <ele>563</ele>
        <time>2019-04-02T14:07:35Z</time>
      </trkpt>
      <trkpt lat="44.34801" lon="5.908">
        <ele>563</ele>
        <time>2019-04-02T14:07:36Z</time>
      </trkpt>
      <trkpt lat="44.34796" lon="5.90795">
        <ele>563</ele>
        <time>2019-04-02T14:07:37Z</time>
      </trkpt>
      <trkpt lat="44.34791" lon="5.90791">
        <ele>563</ele>
        <time>2019-04-02T14:07:38Z</time>
      </trkpt>
      <trkpt lat="44.34786" lon="5.90787">
        <ele>563</ele>
        <time>2019-04-02T14:07:39Z</time>
      </trkpt>
      <trkpt lat="44.34781" lon="5.90783">
        <ele>563</ele>
        <time>2019-04-02T14:07:40Z</time>
      </trkpt>
      <trkpt lat="44.34776" lon="5.90779">
        <ele>563</ele>
        <time>2019-04-02T14:07:41Z</time>
      </trkpt>
      <trkpt lat="44.34771" lon="5.90775">
        <ele>563</ele>
        <time>2019-04-02T14:07:42Z</time>
      </trkpt>
      <trkpt lat="44.34766" lon="5.90772">
        <ele>563</ele>
        <time>2019-04-02T14:07:43Z</time>
      </trkpt>
      <trkpt lat="44.34761" lon="5.90768">
        <ele>563</ele>
        <time>2019-04-02T14:07:44Z</time>
      </trkpt>
      <trkpt lat="44.34757" lon="5.90764">
        <ele>563</ele>
        <time>2019-04-02T14:07:45Z</time>
      </trkpt>
      <trkpt lat="44.34752" lon="5.90761">
        <ele>563</ele>
        <time>2019-04-02T14:07:46Z</time>
      </trkpt>
      <trkpt lat="44.34747" lon="5.90758">
        <ele>563</ele>
        <time>2019-04-02T14:07:47Z</time>
      </trkpt>
      <trkpt lat="44.34743" lon="5.90754">
        <ele>563</ele>
        <time>2019-04-02T14:07:48Z</time>
      </trkpt>
      <trkpt lat="44.34738" lon="5.90751">
        <ele>563</ele>
        <time>2019-04-02T14:07:49Z</time>
      </trkpt>
      <trkpt lat="44.34734" lon="5.90747">
        <ele>563</ele>
        <time>2019-04-02T14:07:50Z</time>
      </trkpt>
      <trkpt lat="44.34729" lon="5.90744">
        <ele>563</ele>
        <time>2019-04-02T14:07:51Z</time>
      </trkpt>
      <trkpt lat="44.34724" lon="5.9074">
        <ele>563</ele>
        <time>2019-04-02T14:07:52Z</time>
      </trkpt>
      <trkpt lat="44.3472" lon="5.90737">
        <ele>563</ele>
        <time>2019-04-02T14:07:53Z</time>
      </trkpt>
      <trkpt lat="44.34716" lon="5.90733">
        <ele>563</ele>
        <time>2019-04-02T14:07:54Z</time>
      </trkpt>
      <trkpt lat="44.34711" lon="5.90729">
        <ele>563</ele>
        <time>2019-04-02T14:07:55Z</time>
      </trkpt>
      <trkpt lat="44.34707" lon="5.90725">
        <ele>563</ele>
        <time>2019-04-02T14:07:56Z</time>
      </trkpt>
      <trkpt lat="44.34703" lon="5.90722">
        <ele>563</ele>
        <time>2019-04-02T14:07:57Z</time>
      </trkpt>
      <trkpt lat="44.34698" lon="5.90719">
        <ele>563</ele>
        <time>2019-04-02T14:07:58Z</time>
      </trkpt>
      <trkpt lat="44.34694" lon="5.90717">
        <ele>563</ele>
        <time>2019-04-02T14:07:59Z</time>
      </trkpt>
      <trkpt lat="44.34689" lon="5.90714">
        <ele>563</ele>
        <time>2019-04-02T14:08:00Z</time>
      </trkpt>
      <trkpt lat="44.34685" lon="5.90712">
        <ele>563</ele>
        <time>2019-04-02T14:08:01Z</time>
      </trkpt>
      <trkpt lat="44.34681" lon="5.90709">
        <ele>563</ele>
        <time>2019-04-02T14:08:02Z</time>
      </trkpt>
      <trkpt lat="44.34677" lon="5.90706">
        <ele>563</ele>
        <time>2019-04-02T14:08:03Z</time>
      </trkpt>
      <trkpt lat="44.34673" lon="5.90704">
        <ele>563</ele>
        <time>2019-04-02T14:08:04Z</time>
      </trkpt>
      <trkpt lat="44.34669" lon="5.90701">
        <ele>563</ele>
        <time>2019-04-02T14:08:05Z</time>
      </trkpt>
      <trkpt lat="44.34665" lon="5.90698">
        <ele>563</ele>
        <time>2019-04-02T14:08:06Z</time>
      </trkpt>
      <trkpt lat="44.34661" lon="5.90696">
        <ele>563</ele>
        <time>2019-04-02T14:08:07Z</time>
      </trkpt>
      <trkpt lat="44.34657" lon="5.90694">
        <ele>563</ele>
        <time>2019-04-02T14:08:08Z</time>
      </trkpt>
      <trkpt lat="44.34653" lon="5.90691">
        <ele>563</ele>
        <time>2019-04-02T14:08:09Z</time>
      </trkpt>
      <trkpt lat="44.34649" lon="5.90689">
        <ele>563</ele>
        <time>2019-04-02T14:08:10Z</time>
      </trkpt>
      <trkpt lat="44.34645" lon="5.90686">
        <ele>563</ele>
        <time>2019-04-02T14:08:11Z</time>
      </trkpt>
      <trkpt lat="44.34641" lon="5.90684">
        <ele>564</ele>
        <time>2019-04-02T14:08:12Z</time>
      </trkpt>
      <trkpt lat="44.34637" lon="5.90681">
        <ele>564</ele>
        <time>2019-04-02T14:08:13Z</time>
      </trkpt>
      <trkpt lat="44.34633" lon="5.90678">
        <ele>564</ele>
        <time>2019-04-02T14:08:14Z</time>
      </trkpt>
      <trkpt lat="44.34629" lon="5.90675">
        <ele>564</ele>
        <time>2019-04-02T14:08:15Z</time>
      </trkpt>
      <trkpt lat="44.34625" lon="5.90672">
        <ele>565</ele>
        <time>2019-04-02T14:08:16Z</time>
      </trkpt>
      <trkpt lat="44.3462" lon="5.90668">
        <ele>565</ele>
        <time>2019-04-02T14:08:17Z</time>
      </trkpt>
      <trkpt lat="44.34616" lon="5.90665">
        <ele>565</ele>
        <time>2019-04-02T14:08:18Z</time>
      </trkpt>
      <trkpt lat="44.34612" lon="5.90662">
        <ele>566</ele>
        <time>2019-04-02T14:08:19Z</time>
      </trkpt>
      <trkpt lat="44.34608" lon="5.9066">
        <ele>566</ele>
        <time>2019-04-02T14:08:20Z</time>
      </trkpt>
      <trkpt lat="44.34605" lon="5.90656">
        <ele>566</ele>
        <time>2019-04-02T14:08:21Z</time>
      </trkpt>
      <trkpt lat="44.34601" lon="5.90653">
        <ele>566</ele>
        <time>2019-04-02T14:08:22Z</time>
      </trkpt>
      <trkpt lat="44.34597" lon="5.9065">
        <ele>566</ele>
        <time>2019-04-02T14:08:23Z</time>
      </trkpt>
      <trkpt lat="44.34593" lon="5.90647">
        <ele>567</ele>
        <time>2019-04-02T14:08:24Z</time>
      </trkpt>
      <trkpt lat="44.34589" lon="5.90643">
        <ele>567</ele>
        <time>2019-04-02T14:08:25Z</time>
      </trkpt>
      <trkpt lat="44.34584" lon="5.90639">
        <ele>567</ele>
        <time>2019-04-02T14:08:26Z</time>
      </trkpt>
      <trkpt lat="44.3458" lon="5.90636">
        <ele>567</ele>
        <time>2019-04-02T14:08:27Z</time>
      </trkpt>
      <trkpt lat="44.34576" lon="5.90632">
        <ele>567</ele>
        <time>2019-04-02T14:08:28Z</time>
      </trkpt>
      <trkpt lat="44.34571" lon="5.90629">
        <ele>567</ele>
        <time>2019-04-02T14:08:29Z</time>
      </trkpt>
      <trkpt lat="44.34567" lon="5.90625">
        <ele>567</ele>
        <time>2019-04-02T14:08:30Z</time>
      </trkpt>
      <trkpt lat="44.34563" lon="5.90622">
        <ele>567</ele>
        <time>2019-04-02T14:08:31Z</time>
      </trkpt>
      <trkpt lat="44.34559" lon="5.90618">
        <ele>568</ele>
        <time>2019-04-02T14:08:32Z</time>
      </trkpt>
      <trkpt lat="44.34554" lon="5.90615">
        <ele>568</ele>
        <time>2019-04-02T14:08:33Z</time>
      </trkpt>
      <trkpt lat="44.3455" lon="5.90611">
        <ele>568</ele>
        <time>2019-04-02T14:08:34Z</time>
      </trkpt>
      <trkpt lat="44.34546" lon="5.90608">
        <ele>568</ele>
        <time>2019-04-02T14:08:35Z</time>
      </trkpt>
      <trkpt lat="44.34541" lon="5.90605">
        <ele>568</ele>
        <time>2019-04-02T14:08:36Z</time>
      </trkpt>
      <trkpt lat="44.34537" lon="5.90601">
        <ele>568</ele>
        <time>2019-04-02T14:08:37Z</time>
      </trkpt>
      <trkpt lat="44.34533" lon="5.90598">
        <ele>568</ele>
        <time>2019-04-02T14:08:38Z</time>
      </trkpt>
      <trkpt lat="44.34528" lon="5.90594">
        <ele>568</ele>
        <time>2019-04-02T14:08:39Z</time>
      </trkpt>
      <trkpt lat="44.34524" lon="5.9059">
        <ele>568</ele>
        <time>2019-04-02T14:08:40Z</time>
      </trkpt>
      <trkpt lat="44.3452" lon="5.90587">
        <ele>568</ele>
        <time>2019-04-02T14:08:41Z</time>
      </trkpt>
      <trkpt lat="44.34515" lon="5.90583">
        <ele>568</ele>
        <time>2019-04-02T14:08:42Z</time>
      </trkpt>
      <trkpt lat="44.34511" lon="5.90579">
        <ele>568</ele>
        <time>2019-04-02T14:08:43Z</time>
      </trkpt>
      <trkpt lat="44.34507" lon="5.90576">
        <ele>568</ele>
        <time>2019-04-02T14:08:44Z</time>
      </trkpt>
      <trkpt lat="44.34502" lon="5.90572">
        <ele>568</ele>
        <time>2019-04-02T14:08:45Z</time>
      </trkpt>
      <trkpt lat="44.34497" lon="5.90568">
        <ele>568</ele>
        <time>2019-04-02T14:08:46Z</time>
      </trkpt>
      <trkpt lat="44.34493" lon="5.90565">
        <ele>568</ele>
        <time>2019-04-02T14:08:47Z</time>
      </trkpt>
      <trkpt lat="44.34489" lon="5.90561">
        <ele>568</ele>
        <time>2019-04-02T14:08:48Z</time>
      </trkpt>
      <trkpt lat="44.34484" lon="5.90557">
        <ele>568</ele>
        <time>2019-04-02T14:08:49Z</time>
      </trkpt>
      <trkpt lat="44.3448" lon="5.90553">
        <ele>568</ele>
        <time>2019-04-02T14:08:50Z</time>
      </trkpt>
      <trkpt lat="44.34476" lon="5.9055">
        <ele>568</ele>
        <time>2019-04-02T14:08:51Z</time>
      </trkpt>
      <trkpt lat="44.34472" lon="5.90546">
        <ele>568</ele>
        <time>2019-04-02T14:08:52Z</time>
      </trkpt>
      <trkpt lat="44.34468" lon="5.90543">
        <ele>568</ele>
        <time>2019-04-02T14:08:53Z</time>
      </trkpt>
      <trkpt lat="44.34464" lon="5.9054">
        <ele>568</ele>
        <time>2019-04-02T14:08:54Z</time>
      </trkpt>
      <trkpt lat="44.3446" lon="5.90537">
        <ele>568</ele>
        <time>2019-04-02T14:08:55Z</time>
      </trkpt>
      <trkpt lat="44.34456" lon="5.90533">
        <ele>568</ele>
        <time>2019-04-02T14:08:56Z</time>
      </trkpt>
      <trkpt lat="44.34452" lon="5.9053">
        <ele>568</ele>
        <time>2019-04-02T14:08:57Z</time>
      </trkpt>
      <trkpt lat="44.34448" lon="5.90526">
        <ele>568</ele>
        <time>2019-04-02T14:08:58Z</time>
      </trkpt>
      <trkpt lat="44.34444" lon="5.90522">
        <ele>568</ele>
        <time>2019-04-02T14:08:59Z</time>
      </trkpt>
      <trkpt lat="44.3444" lon="5.90519">
        <ele>568</ele>
        <time>2019-04-02T14:09:00Z</time>
      </trkpt>
      <trkpt lat="44.34436" lon="5.90515">
        <ele>568</ele>
        <time>2019-04-02T14:09:01Z</time>
      </trkpt>
      <trkpt lat="44.34433" lon="5.90511">
        <ele>568</ele>
        <time>2019-04-02T14:09:02Z</time>
      </trkpt>
      <trkpt lat="44.34429" lon="5.90507">
        <ele>568</ele>
        <time>2019-04-02T14:09:03Z</time>
      </trkpt>
      <trkpt lat="44.34426" lon="5.90503">
        <ele>568</ele>
        <time>2019-04-02T14:09:04Z</time>
      </trkpt>
      <trkpt lat="44.34423" lon="5.905">
        <ele>568</ele>
        <time>2019-04-02T14:09:05Z</time>
      </trkpt>
      <trkpt lat="44.34419" lon="5.90496">
        <ele>568</ele>
        <time>2019-04-02T14:09:06Z</time>
      </trkpt>
      <trkpt lat="44.34416" lon="5.90492">
        <ele>568</ele>
        <time>2019-04-02T14:09:07Z</time>
      </trkpt>
      <trkpt lat="44.34413" lon="5.90488">
        <ele>568</ele>
        <time>2019-04-02T14:09:08Z</time>
      </trkpt>
      <trkpt lat="44.3441" lon="5.90483">
        <ele>568</ele>
        <time>2019-04-02T14:09:09Z</time>
      </trkpt>
      <trkpt lat="44.34408" lon="5.90478">
        <ele>568</ele>
        <time>2019-04-02T14:09:10Z</time>
      </trkpt>
      <trkpt lat="44.34405" lon="5.90473">
        <ele>568</ele>
        <time>2019-04-02T14:09:11Z</time>
      </trkpt>
      <trkpt lat="44.34403" lon="5.90468">
        <ele>568</ele>
        <time>2019-04-02T14:09:12Z</time>
      </trkpt>
      <trkpt lat="44.344" lon="5.90464">
        <ele>568</ele>
        <time>2019-04-02T14:09:13Z</time>
      </trkpt>
      <trkpt lat="44.34396" lon="5.90461">
        <ele>568</ele>
        <time>2019-04-02T14:09:14Z</time>
      </trkpt>
      <trkpt lat="44.34393" lon="5.90458">
        <ele>568</ele>
        <time>2019-04-02T14:09:15Z</time>
      </trkpt>
      <trkpt lat="44.34389" lon="5.90456">
        <ele>569</ele>
        <time>2019-04-02T14:09:16Z</time>
      </trkpt>
      <trkpt lat="44.34386" lon="5.90454">
        <ele>569</ele>
        <time>2019-04-02T14:09:17Z</time>
      </trkpt>
      <trkpt lat="44.34382" lon="5.90452">
        <ele>569</ele>
        <time>2019-04-02T14:09:18Z</time>
      </trkpt>
      <trkpt lat="44.34377" lon="5.90449">
        <ele>569</ele>
        <time>2019-04-02T14:09:19Z</time>
      </trkpt>
      <trkpt lat="44.34372" lon="5.90447">
        <ele>569</ele>
        <time>2019-04-02T14:09:20Z</time>
      </trkpt>
      <trkpt lat="44.34367" lon="5.90444">
        <ele>569</ele>
        <time>2019-04-02T14:09:21Z</time>
      </trkpt>
      <trkpt lat="44.34361" lon="5.90441">
        <ele>569</ele>
        <time>2019-04-02T14:09:22Z</time>
      </trkpt>
      <trkpt lat="44.34355" lon="5.90437">
        <ele>569</ele>
        <time>2019-04-02T14:09:23Z</time>
      </trkpt>
      <trkpt lat="44.34348" lon="5.90434">
        <ele>569</ele>
        <time>2019-04-02T14:09:24Z</time>
      </trkpt>
      <trkpt lat="44.34342" lon="5.9043">
        <ele>569</ele>
        <time>2019-04-02T14:09:25Z</time>
      </trkpt>
      <trkpt lat="44.34335" lon="5.90425">
        <ele>569</ele>
        <time>2019-04-02T14:09:26Z</time>
      </trkpt>
      <trkpt lat="44.34329" lon="5.90421">
        <ele>569</ele>
        <time>2019-04-02T14:09:27Z</time>
      </trkpt>
      <trkpt lat="44.34323" lon="5.90416">
        <ele>569</ele>
        <time>2019-04-02T14:09:28Z</time>
      </trkpt>
      <trkpt lat="44.34317" lon="5.90411">
        <ele>569</ele>
        <time>2019-04-02T14:09:29Z</time>
      </trkpt>
      <trkpt lat="44.34311" lon="5.90405">
        <ele>569</ele>
        <time>2019-04-02T14:09:30Z</time>
      </trkpt>
      <trkpt lat="44.34305" lon="5.904">
        <ele>569</ele>
        <time>2019-04-02T14:09:31Z</time>
      </trkpt>
      <trkpt lat="44.34299" lon="5.90395">
        <ele>569</ele>
        <time>2019-04-02T14:09:32Z</time>
      </trkpt>
      <trkpt lat="44.34294" lon="5.9039">
        <ele>569</ele>
        <time>2019-04-02T14:09:33Z</time>
      </trkpt>
      <trkpt lat="44.34289" lon="5.90384">
        <ele>569</ele>
        <time>2019-04-02T14:09:34Z</time>
      </trkpt>
      <trkpt lat="44.34284" lon="5.90379">
        <ele>569</ele>
        <time>2019-04-02T14:09:35Z</time>
      </trkpt>
      <trkpt lat="44.34279" lon="5.90374">
        <ele>569</ele>
        <time>2019-04-02T14:09:36Z</time>
      </trkpt>
      <trkpt lat="44.34274" lon="5.90369">
        <ele>569</ele>
        <time>2019-04-02T14:09:37Z</time>
      </trkpt>
      <trkpt lat="44.3427" lon="5.90364">
        <ele>569</ele>
        <time>2019-04-02T14:09:38Z</time>
      </trkpt>
      <trkpt lat="44.34265" lon="5.90358">
        <ele>569</ele>
        <time>2019-04-02T14:09:39Z</time>
      </trkpt>
      <trkpt lat="44.34261" lon="5.90353">
        <ele>569</ele>
        <time>2019-04-02T14:09:40Z</time>
      </trkpt>
      <trkpt lat="44.34257" lon="5.90348">
        <ele>569</ele>
        <time>2019-04-02T14:09:41Z</time>
      </trkpt>
      <trkpt lat="44.34253" lon="5.90343">
        <ele>569</ele>
        <time>2019-04-02T14:09:42Z</time>
      </trkpt>
      <trkpt lat="44.3425" lon="5.90338">
        <ele>569</ele>
        <time>2019-04-02T14:09:43Z</time>
      </trkpt>
      <trkpt lat="44.34246" lon="5.90334">
        <ele>569</ele>
        <time>2019-04-02T14:09:44Z</time>
      </trkpt>
      <trkpt lat="44.34243" lon="5.9033">
        <ele>569</ele>
        <time>2019-04-02T14:09:45Z</time>
      </trkpt>
      <trkpt lat="44.3424" lon="5.90325">
        <ele>569</ele>
        <time>2019-04-02T14:09:46Z</time>
      </trkpt>
      <trkpt lat="44.34236" lon="5.90321">
        <ele>569</ele>
        <time>2019-04-02T14:09:47Z</time>
      </trkpt>
      <trkpt lat="44.34233" lon="5.90316">
        <ele>569</ele>
        <time>2019-04-02T14:09:48Z</time>
      </trkpt>
      <trkpt lat="44.34229" lon="5.90312">
        <ele>569</ele>
        <time>2019-04-02T14:09:49Z</time>
      </trkpt>
      <trkpt lat="44.34226" lon="5.90307">
        <ele>569</ele>
        <time>2019-04-02T14:09:50Z</time>
      </trkpt>
      <trkpt lat="44.34223" lon="5.90303">
        <ele>569</ele>
        <time>2019-04-02T14:09:51Z</time>
      </trkpt>
      <trkpt lat="44.34219" lon="5.90299">
        <ele>569</ele>
        <time>2019-04-02T14:09:52Z</time>
      </trkpt>
      <trkpt lat="44.34216" lon="5.90295">
        <ele>569</ele>
        <time>2019-04-02T14:09:53Z</time>
      </trkpt>
      <trkpt lat="44.34212" lon="5.9029">
        <ele>570</ele>
        <time>2019-04-02T14:09:54Z</time>
      </trkpt>
      <trkpt lat="44.34209" lon="5.90286">
        <ele>570</ele>
        <time>2019-04-02T14:09:55Z</time>
      </trkpt>
      <trkpt lat="44.34206" lon="5.90282">
        <ele>570</ele>
        <time>2019-04-02T14:09:56Z</time>
      </trkpt>
      <trkpt lat="44.34203" lon="5.90278">
        <ele>571</ele>
        <time>2019-04-02T14:09:57Z</time>
      </trkpt>
      <trkpt lat="44.342" lon="5.90274">
        <ele>571</ele>
        <time>2019-04-02T14:09:58Z</time>
      </trkpt>
      <trkpt lat="44.34197" lon="5.9027">
        <ele>571</ele>
        <time>2019-04-02T14:09:59Z</time>
      </trkpt>
      <trkpt lat="44.34193" lon="5.90266">
        <ele>571</ele>
        <time>2019-04-02T14:10:00Z</time>
      </trkpt>
      <trkpt lat="44.3419" lon="5.90262">
        <ele>571</ele>
        <time>2019-04-02T14:10:01Z</time>
      </trkpt>
      <trkpt lat="44.34187" lon="5.90258">
        <ele>571</ele>
        <time>2019-04-02T14:10:02Z</time>
      </trkpt>
      <trkpt lat="44.34184" lon="5.90254">
        <ele>572</ele>
        <time>2019-04-02T14:10:03Z</time>
      </trkpt>
      <trkpt lat="44.3418" lon="5.90249">
        <ele>572</ele>
        <time>2019-04-02T14:10:04Z</time>
      </trkpt>
      <trkpt lat="44.34177" lon="5.90245">
        <ele>572</ele>
        <time>2019-04-02T14:10:05Z</time>
      </trkpt>
      <trkpt lat="44.34174" lon="5.90241">
        <ele>572</ele>
        <time>2019-04-02T14:10:06Z</time>
      </trkpt>
      <trkpt lat="44.34171" lon="5.90237">
        <ele>572</ele>
        <time>2019-04-02T14:10:07Z</time>
      </trkpt>
      <trkpt lat="44.34168" lon="5.90233">
        <ele>572</ele>
        <time>2019-04-02T14:10:08Z</time>
      </trkpt>
      <trkpt lat="44.34165" lon="5.90229">
        <ele>573</ele>
        <time>2019-04-02T14:10:09Z</time>
      </trkpt>
      <trkpt lat="44.34162" lon="5.90225">
        <ele>573</ele>
        <time>2019-04-02T14:10:10Z</time>
      </trkpt>
      <trkpt lat="44.34159" lon="5.90221">
        <ele>573</ele>
        <time>2019-04-02T14:10:11Z</time>
      </trkpt>
      <trkpt lat="44.34155" lon="5.90218">
        <ele>574</ele>
        <time>2019-04-02T14:10:12Z</time>
      </trkpt>
      <trkpt lat="44.34152" lon="5.90214">
        <ele>574</ele>
        <time>2019-04-02T14:10:13Z</time>
      </trkpt>
      <trkpt lat="44.34148" lon="5.9021">
        <ele>574</ele>
        <time>2019-04-02T14:10:14Z</time>
      </trkpt>
      <trkpt lat="44.34145" lon="5.90206">
        <ele>575</ele>
        <time>2019-04-02T14:10:15Z</time>
      </trkpt>
      <trkpt lat="44.34142" lon="5.90203">
        <ele>575</ele>
        <time>2019-04-02T14:10:16Z</time>
      </trkpt>
      <trkpt lat="44.34139" lon="5.90199">
        <ele>575</ele>
        <time>2019-04-02T14:10:17Z</time>
      </trkpt>
      <trkpt lat="44.34135" lon="5.90195">
        <ele>575</ele>
        <time>2019-04-02T14:10:18Z</time>
      </trkpt>
      <trkpt lat="44.34132" lon="5.90192">
        <ele>576</ele>
        <time>2019-04-02T14:10:19Z</time>
      </trkpt>
      <trkpt lat="44.34129" lon="5.90188">
        <ele>576</ele>
        <time>2019-04-02T14:10:20Z</time>
      </trkpt>
      <trkpt lat="44.34126" lon="5.90184">
        <ele>576</ele>
        <time>2019-04-02T14:10:21Z</time>
      </trkpt>
      <trkpt lat="44.34122" lon="5.9018">
        <ele>576</ele>
        <time>2019-04-02T14:10:22Z</time>
      </trkpt>
      <trkpt lat="44.34119" lon="5.90176">
        <ele>576</ele>
        <time>2019-04-02T14:10:23Z</time>
      </trkpt>
      <trkpt lat="44.34115" lon="5.90172">
        <ele>576</ele>
        <time>2019-04-02T14:10:24Z</time>
      </trkpt>
      <trkpt lat="44.34112" lon="5.90168">
        <ele>576</ele>
        <time>2019-04-02T14:10:25Z</time>
      </trkpt>
      <trkpt lat="44.34108" lon="5.90164">
        <ele>576</ele>
        <time>2019-04-02T14:10:26Z</time>
      </trkpt>
      <trkpt lat="44.34104" lon="5.90161">
        <ele>576</ele>
        <time>2019-04-02T14:10:27Z</time>
      </trkpt>
      <trkpt lat="44.341" lon="5.90157">
        <ele>576</ele>
        <time>2019-04-02T14:10:28Z</time>
      </trkpt>
      <trkpt lat="44.34096" lon="5.90153">
        <ele>576</ele>
        <time>2019-04-02T14:10:29Z</time>
      </trkpt>
      <trkpt lat="44.34091" lon="5.90149">
        <ele>576</ele>
        <time>2019-04-02T14:10:30Z</time>
      </trkpt>
      <trkpt lat="44.34087" lon="5.90145">
        <ele>576</ele>
        <time>2019-04-02T14:10:31Z</time>
      </trkpt>
      <trkpt lat="44.34082" lon="5.9014">
        <ele>576</ele>
        <time>2019-04-02T14:10:32Z</time>
      </trkpt>
      <trkpt lat="44.34077" lon="5.90136">
        <ele>576</ele>
        <time>2019-04-02T14:10:33Z</time>
      </trkpt>
      <trkpt lat="44.34071" lon="5.90132">
        <ele>576</ele>
        <time>2019-04-02T14:10:34Z</time>
      </trkpt>
      <trkpt lat="44.34066" lon="5.90127">
        <ele>576</ele>
        <time>2019-04-02T14:10:35Z</time>
      </trkpt>
      <trkpt lat="44.3406" lon="5.90122">
        <ele>576</ele>
        <time>2019-04-02T14:10:36Z</time>
      </trkpt>
      <trkpt lat="44.34053" lon="5.90117">
        <ele>576</ele>
        <time>2019-04-02T14:10:37Z</time>
      </trkpt>
      <trkpt lat="44.34047" lon="5.90111">
        <ele>576</ele>
        <time>2019-04-02T14:10:38Z</time>
      </trkpt>
      <trkpt lat="44.3404" lon="5.90105">
        <ele>576</ele>
        <time>2019-04-02T14:10:39Z</time>
      </trkpt>
      <trkpt lat="44.34033" lon="5.901">
        <ele>576</ele>
        <time>2019-04-02T14:10:40Z</time>
      </trkpt>
      <trkpt lat="44.34026" lon="5.90094">
        <ele>576</ele>
        <time>2019-04-02T14:10:41Z</time>
      </trkpt>
      <trkpt lat="44.3402" lon="5.90088">
        <ele>576</ele>
        <time>2019-04-02T14:10:42Z</time>
      </trkpt>
      <trkpt lat="44.34013" lon="5.90082">
        <ele>576</ele>
        <time>2019-04-02T14:10:43Z</time>
      </trkpt>
      <trkpt lat="44.34006" lon="5.90076">
        <ele>576</ele>
        <time>2019-04-02T14:10:44Z</time>
      </trkpt>
      <trkpt lat="44.33999" lon="5.9007">
        <ele>576</ele>
        <time>2019-04-02T14:10:45Z</time>
      </trkpt>
      <trkpt lat="44.33992" lon="5.90064">
        <ele>576</ele>
        <time>2019-04-02T14:10:46Z</time>
      </trkpt>
      <trkpt lat="44.33986" lon="5.90057">
        <ele>576</ele>
        <time>2019-04-02T14:10:47Z</time>
      </trkpt>
      <trkpt lat="44.33979" lon="5.90051">
        <ele>576</ele>
        <time>2019-04-02T14:10:48Z</time>
      </trkpt>
      <trkpt lat="44.33973" lon="5.90044">
        <ele>576</ele>
        <time>2019-04-02T14:10:49Z</time>
      </trkpt>
      <trkpt lat="44.33967" lon="5.90038">
        <ele>576</ele>
        <time>2019-04-02T14:10:50Z</time>
      </trkpt>
      <trkpt lat="44.33961" lon="5.90032">
        <ele>576</ele>
        <time>2019-04-02T14:10:51Z</time>
      </trkpt>
      <trkpt lat="44.33955" lon="5.90025">
        <ele>576</ele>
        <time>2019-04-02T14:10:52Z</time>
      </trkpt>
      <trkpt lat="44.3395" lon="5.90019">
        <ele>576</ele>
        <time>2019-04-02T14:10:53Z</time>
      </trkpt>
      <trkpt lat="44.33945" lon="5.90013">
        <ele>576</ele>
        <time>2019-04-02T14:10:54Z</time>
      </trkpt>
      <trkpt lat="44.33941" lon="5.90007">
        <ele>576</ele>
        <time>2019-04-02T14:10:55Z</time>
      </trkpt>
      <trkpt lat="44.33936" lon="5.90001">
        <ele>576</ele>
        <time>2019-04-02T14:10:56Z</time>
      </trkpt>
      <trkpt lat="44.33931" lon="5.89995">
        <ele>576</ele>
        <time>2019-04-02T14:10:57Z</time>
      </trkpt>
      <trkpt lat="44.33926" lon="5.8999">
        <ele>576</ele>
        <time>2019-04-02T14:10:58Z</time>
      </trkpt>
      <trkpt lat="44.33922" lon="5.89986">
        <ele>576</ele>
        <time>2019-04-02T14:10:59Z</time>
      </trkpt>
      <trkpt lat="44.33917" lon="5.89981">
        <ele>576</ele>
        <time>2019-04-02T14:11:00Z</time>
      </trkpt>
      <trkpt lat="44.33913" lon="5.89976">
        <ele>576</ele>
        <time>2019-04-02T14:11:01Z</time>
      </trkpt>
      <trkpt lat="44.33908" lon="5.89971">
        <ele>576</ele>
        <time>2019-04-02T14:11:02Z</time>
      </trkpt>
      <trkpt lat="44.33904" lon="5.89966">
        <ele>576</ele>
        <time>2019-04-02T14:11:03Z</time>
      </trkpt>
      <trkpt lat="44.33899" lon="5.89961">
        <ele>576</ele>
        <time>2019-04-02T14:11:04Z</time>
      </trkpt>
      <trkpt lat="44.33894" lon="5.89957">
        <ele>576</ele>
        <time>2019-04-02T14:11:05Z</time>
      </trkpt>
      <trkpt lat="44.33889" lon="5.89951">
        <ele>576</ele>
        <time>2019-04-02T14:11:06Z</time>
      </trkpt>
      <trkpt lat="44.33884" lon="5.89946">
        <ele>576</ele>
        <time>2019-04-02T14:11:07Z</time>
      </trkpt>
      <trkpt lat="44.33879" lon="5.89941">
        <ele>576</ele>
        <time>2019-04-02T14:11:08Z</time>
      </trkpt>
      <trkpt lat="44.33874" lon="5.89935">
        <ele>576</ele>
        <time>2019-04-02T14:11:09Z</time>
      </trkpt>
      <trkpt lat="44.33869" lon="5.8993">
        <ele>576</ele>
        <time>2019-04-02T14:11:10Z</time>
      </trkpt>
      <trkpt lat="44.33863" lon="5.89925">
        <ele>575</ele>
        <time>2019-04-02T14:11:11Z</time>
      </trkpt>
      <trkpt lat="44.33858" lon="5.8992">
        <ele>575</ele>
        <time>2019-04-02T14:11:12Z</time>
      </trkpt>
      <trkpt lat="44.33852" lon="5.89915">
        <ele>575</ele>
        <time>2019-04-02T14:11:13Z</time>
      </trkpt>
      <trkpt lat="44.33847" lon="5.8991">
        <ele>575</ele>
        <time>2019-04-02T14:11:14Z</time>
      </trkpt>
      <trkpt lat="44.33841" lon="5.89906">
        <ele>574</ele>
        <time>2019-04-02T14:11:15Z</time>
      </trkpt>
      <trkpt lat="44.33834" lon="5.89901">
        <ele>574</ele>
        <time>2019-04-02T14:11:16Z</time>
      </trkpt>
      <trkpt lat="44.33828" lon="5.89896">
        <ele>574</ele>
        <time>2019-04-02T14:11:17Z</time>
      </trkpt>
      <trkpt lat="44.33821" lon="5.89892">
        <ele>574</ele>
        <time>2019-04-02T14:11:18Z</time>
      </trkpt>
      <trkpt lat="44.33814" lon="5.89887">
        <ele>573</ele>
        <time>2019-04-02T14:11:19Z</time>
      </trkpt>
      <trkpt lat="44.33807" lon="5.89882">
        <ele>573</ele>
        <time>2019-04-02T14:11:20Z</time>
      </trkpt>
      <trkpt lat="44.338" lon="5.89876">
        <ele>573</ele>
        <time>2019-04-02T14:11:21Z</time>
      </trkpt>
      <trkpt lat="44.33793" lon="5.8987">
        <ele>572</ele>
        <time>2019-04-02T14:11:22Z</time>
      </trkpt>
      <trkpt lat="44.33786" lon="5.89864">
        <ele>572</ele>
        <time>2019-04-02T14:11:23Z</time>
      </trkpt>
      <trkpt lat="44.33779" lon="5.89858">
        <ele>571</ele>
        <time>2019-04-02T14:11:24Z</time>
      </trkpt>
      <trkpt lat="44.33772" lon="5.89853">
        <ele>571</ele>
        <time>2019-04-02T14:11:25Z</time>
      </trkpt>
      <trkpt lat="44.33764" lon="5.89847">
        <ele>571</ele>
        <time>2019-04-02T14:11:26Z</time>
      </trkpt>
      <trkpt lat="44.33757" lon="5.89841">
        <ele>570</ele>
        <time>2019-04-02T14:11:27Z</time>
      </trkpt>
      <trkpt lat="44.3375" lon="5.89835">
        <ele>570</ele>
        <time>2019-04-02T14:11:28Z</time>
      </trkpt>
      <trkpt lat="44.33743" lon="5.89829">
        <ele>570</ele>
        <time>2019-04-02T14:11:29Z</time>
      </trkpt>
      <trkpt lat="44.33736" lon="5.89823">
        <ele>570</ele>
        <time>2019-04-02T14:11:30Z</time>
      </trkpt>
      <trkpt lat="44.33728" lon="5.89818">
        <ele>570</ele>
        <time>2019-04-02T14:11:31Z</time>
      </trkpt>
      <trkpt lat="44.33721" lon="5.89814">
        <ele>570</ele>
        <time>2019-04-02T14:11:32Z</time>
      </trkpt>
      <trkpt lat="44.33715" lon="5.8981">
        <ele>570</ele>
        <time>2019-04-02T14:11:33Z</time>
      </trkpt>
      <trkpt lat="44.33709" lon="5.89807">
        <ele>570</ele>
        <time>2019-04-02T14:11:34Z</time>
      </trkpt>
      <trkpt lat="44.33703" lon="5.89803">
        <ele>570</ele>
        <time>2019-04-02T14:11:35Z</time>
      </trkpt>
      <trkpt lat="44.33697" lon="5.898">
        <ele>570</ele>
        <time>2019-04-02T14:11:36Z</time>
      </trkpt>
      <trkpt lat="44.33692" lon="5.89797">
        <ele>570</ele>
        <time>2019-04-02T14:11:37Z</time>
      </trkpt>
      <trkpt lat="44.33687" lon="5.89794">
        <ele>570</ele>
        <time>2019-04-02T14:11:38Z</time>
      </trkpt>
      <trkpt lat="44.33682" lon="5.89792">
        <ele>570</ele>
        <time>2019-04-02T14:11:39Z</time>
      </trkpt>
      <trkpt lat="44.33677" lon="5.89789">
        <ele>570</ele>
        <time>2019-04-02T14:11:40Z</time>
      </trkpt>
      <trkpt lat="44.33672" lon="5.89786">
        <ele>570</ele>
        <time>2019-04-02T14:11:41Z</time>
      </trkpt>
      <trkpt lat="44.33667" lon="5.89784">
        <ele>570</ele>
        <time>2019-04-02T14:11:42Z</time>
      </trkpt>
      <trkpt lat="44.33663" lon="5.89781">
        <ele>570</ele>
        <time>2019-04-02T14:11:43Z</time>
      </trkpt>
      <trkpt lat="44.33658" lon="5.89778">
        <ele>570</ele>
        <time>2019-04-02T14:11:44Z</time>
      </trkpt>
      <trkpt lat="44.33653" lon="5.89775">
        <ele>570</ele>
        <time>2019-04-02T14:11:45Z</time>
      </trkpt>
      <trkpt lat="44.33648" lon="5.89772">
        <ele>570</ele>
        <time>2019-04-02T14:11:46Z</time>
      </trkpt>
      <trkpt lat="44.33643" lon="5.89769">
        <ele>570</ele>
        <time>2019-04-02T14:11:47Z</time>
      </trkpt>
      <trkpt lat="44.33637" lon="5.89767">
        <ele>570</ele>
        <time>2019-04-02T14:11:48Z</time>
      </trkpt>
      <trkpt lat="44.33632" lon="5.89764">
        <ele>570</ele>
        <time>2019-04-02T14:11:49Z</time>
      </trkpt>
      <trkpt lat="44.33627" lon="5.89761">
        <ele>570</ele>
        <time>2019-04-02T14:11:50Z</time>
      </trkpt>
      <trkpt lat="44.33622" lon="5.89759">
        <ele>570</ele>
        <time>2019-04-02T14:11:51Z</time>
      </trkpt>
      <trkpt lat="44.33617" lon="5.89757">
        <ele>570</ele>
        <time>2019-04-02T14:11:52Z</time>
      </trkpt>
      <trkpt lat="44.33612" lon="5.89754">
        <ele>570</ele>
        <time>2019-04-02T14:11:53Z</time>
      </trkpt>
      <trkpt lat="44.33607" lon="5.89752">
        <ele>570</ele>
        <time>2019-04-02T14:11:54Z</time>
      </trkpt>
      <trkpt lat="44.33602" lon="5.8975">
        <ele>570</ele>
        <time>2019-04-02T14:11:55Z</time>
      </trkpt>
      <trkpt lat="44.33598" lon="5.89747">
        <ele>570</ele>
        <time>2019-04-02T14:11:56Z</time>
      </trkpt>
      <trkpt lat="44.33593" lon="5.89744">
        <ele>570</ele>
        <time>2019-04-02T14:11:57Z</time>
      </trkpt>
      <trkpt lat="44.33588" lon="5.89741">
        <ele>570</ele>
        <time>2019-04-02T14:11:58Z</time>
      </trkpt>
      <trkpt lat="44.33583" lon="5.89739">
        <ele>570</ele>
        <time>2019-04-02T14:11:59Z</time>
      </trkpt>
      <trkpt lat="44.33578" lon="5.89736">
        <ele>570</ele>
        <time>2019-04-02T14:12:00Z</time>
      </trkpt>
      <trkpt lat="44.33574" lon="5.89734">
        <ele>570</ele>
        <time>2019-04-02T14:12:01Z</time>
      </trkpt>
      <trkpt lat="44.33569" lon="5.89731">
        <ele>570</ele>
        <time>2019-04-02T14:12:02Z</time>
      </trkpt>
      <trkpt lat="44.33564" lon="5.89729">
        <ele>570</ele>
        <time>2019-04-02T14:12:03Z</time>
      </trkpt>
      <trkpt lat="44.33559" lon="5.89727">
        <ele>570</ele>
        <time>2019-04-02T14:12:04Z</time>
      </trkpt>
      <trkpt lat="44.33554" lon="5.89725">
        <ele>570</ele>
        <time>2019-04-02T14:12:05Z</time>
      </trkpt>
      <trkpt lat="44.3355" lon="5.89722">
        <ele>570</ele>
        <time>2019-04-02T14:12:06Z</time>
      </trkpt>
      <trkpt lat="44.33545" lon="5.8972">
        <ele>570</ele>
        <time>2019-04-02T14:12:07Z</time>
      </trkpt>
      <trkpt lat="44.3354" lon="5.89717">
        <ele>570</ele>
        <time>2019-04-02T14:12:08Z</time>
      </trkpt>
      <trkpt lat="44.33535" lon="5.89715">
        <ele>570</ele>
        <time>2019-04-02T14:12:09Z</time>
      </trkpt>
      <trkpt lat="44.3353" lon="5.89712">
        <ele>570</ele>
        <time>2019-04-02T14:12:10Z</time>
      </trkpt>
      <trkpt lat="44.33525" lon="5.89709">
        <ele>570</ele>
        <time>2019-04-02T14:12:11Z</time>
      </trkpt>
      <trkpt lat="44.33521" lon="5.89706">
        <ele>570</ele>
        <time>2019-04-02T14:12:12Z</time>
      </trkpt>
      <trkpt lat="44.33516" lon="5.89703">
        <ele>570</ele>
        <time>2019-04-02T14:12:13Z</time>
      </trkpt>
      <trkpt lat="44.3351" lon="5.89701">
        <ele>570</ele>
        <time>2019-04-02T14:12:14Z</time>
      </trkpt>
      <trkpt lat="44.33505" lon="5.89699">
        <ele>570</ele>
        <time>2019-04-02T14:12:15Z</time>
      </trkpt>
      <trkpt lat="44.335" lon="5.89697">
        <ele>570</ele>
        <time>2019-04-02T14:12:16Z</time>
      </trkpt>
      <trkpt lat="44.33495" lon="5.89694">
        <ele>570</ele>
        <time>2019-04-02T14:12:17Z</time>
      </trkpt>
      <trkpt lat="44.3349" lon="5.89691">
        <ele>570</ele>
        <time>2019-04-02T14:12:18Z</time>
      </trkpt>
      <trkpt lat="44.33485" lon="5.89689">
        <ele>570</ele>
        <time>2019-04-02T14:12:19Z</time>
      </trkpt>
      <trkpt lat="44.3348" lon="5.89686">
        <ele>570</ele>
        <time>2019-04-02T14:12:20Z</time>
      </trkpt>
      <trkpt lat="44.33475" lon="5.89685">
        <ele>570</ele>
        <time>2019-04-02T14:12:21Z</time>
      </trkpt>
      <trkpt lat="44.3347" lon="5.89683">
        <ele>570</ele>
        <time>2019-04-02T14:12:22Z</time>
      </trkpt>
      <trkpt lat="44.33465" lon="5.8968">
        <ele>570</ele>
        <time>2019-04-02T14:12:23Z</time>
      </trkpt>
      <trkpt lat="44.3346" lon="5.89678">
        <ele>570</ele>
        <time>2019-04-02T14:12:24Z</time>
      </trkpt>
      <trkpt lat="44.33455" lon="5.89676">
        <ele>570</ele>
        <time>2019-04-02T14:12:25Z</time>
      </trkpt>
      <trkpt lat="44.3345" lon="5.89674">
        <ele>570</ele>
        <time>2019-04-02T14:12:26Z</time>
      </trkpt>
      <trkpt lat="44.33445" lon="5.89671">
        <ele>570</ele>
        <time>2019-04-02T14:12:27Z</time>
      </trkpt>
      <trkpt lat="44.3344" lon="5.89669">
        <ele>570</ele>
        <time>2019-04-02T14:12:28Z</time>
      </trkpt>
      <trkpt lat="44.33435" lon="5.89666">
        <ele>570</ele>
        <time>2019-04-02T14:12:29Z</time>
      </trkpt>
      <trkpt lat="44.3343" lon="5.89663">
        <ele>570</ele>
        <time>2019-04-02T14:12:30Z</time>
      </trkpt>
      <trkpt lat="44.33424" lon="5.89661">
        <ele>570</ele>
        <time>2019-04-02T14:12:31Z</time>
      </trkpt>
      <trkpt lat="44.33419" lon="5.89658">
        <ele>570</ele>
        <time>2019-04-02T14:12:32Z</time>
      </trkpt>
      <trkpt lat="44.33413" lon="5.89655">
        <ele>570</ele>
        <time>2019-04-02T14:12:33Z</time>
      </trkpt>
      <trkpt lat="44.33408" lon="5.89653">
        <ele>570</ele>
        <time>2019-04-02T14:12:34Z</time>
      </trkpt>
      <trkpt lat="44.33402" lon="5.8965">
        <ele>570</ele>
        <time>2019-04-02T14:12:35Z</time>
      </trkpt>
      <trkpt lat="44.33397" lon="5.89648">
        <ele>570</ele>
        <time>2019-04-02T14:12:36Z</time>
      </trkpt>
      <trkpt lat="44.33392" lon="5.89645">
        <ele>570</ele>
        <time>2019-04-02T14:12:37Z</time>
      </trkpt>
      <trkpt lat="44.33386" lon="5.89642">
        <ele>570</ele>
        <time>2019-04-02T14:12:38Z</time>
      </trkpt>
      <trkpt lat="44.33381" lon="5.8964">
        <ele>570</ele>
        <time>2019-04-02T14:12:39Z</time>
      </trkpt>
      <trkpt lat="44.33375" lon="5.89637">
        <ele>570</ele>
        <time>2019-04-02T14:12:40Z</time>
      </trkpt>
      <trkpt lat="44.3337" lon="5.89635">
        <ele>570</ele>
        <time>2019-04-02T14:12:41Z</time>
      </trkpt>
      <trkpt lat="44.33364" lon="5.89632">
        <ele>570</ele>
        <time>2019-04-02T14:12:42Z</time>
      </trkpt>
      <trkpt lat="44.33359" lon="5.8963">
        <ele>570</ele>
        <time>2019-04-02T14:12:43Z</time>
      </trkpt>
      <trkpt lat="44.33353" lon="5.89627">
        <ele>570</ele>
        <time>2019-04-02T14:12:44Z</time>
      </trkpt>
      <trkpt lat="44.33348" lon="5.89625">
        <ele>570</ele>
        <time>2019-04-02T14:12:45Z</time>
      </trkpt>
      <trkpt lat="44.33342" lon="5.89622">
        <ele>570</ele>
        <time>2019-04-02T14:12:46Z</time>
      </trkpt>
      <trkpt lat="44.33337" lon="5.89619">
        <ele>570</ele>
        <time>2019-04-02T14:12:47Z</time>
      </trkpt>
      <trkpt lat="44.33331" lon="5.89617">
        <ele>570</ele>
        <time>2019-04-02T14:12:48Z</time>
      </trkpt>
      <trkpt lat="44.33326" lon="5.89614">
        <ele>570</ele>
        <time>2019-04-02T14:12:49Z</time>
      </trkpt>
      <trkpt lat="44.3332" lon="5.89612">
        <ele>570</ele>
        <time>2019-04-02T14:12:50Z</time>
      </trkpt>
      <trkpt lat="44.33314" lon="5.89609">
        <ele>570</ele>
        <time>2019-04-02T14:12:51Z</time>
      </trkpt>
      <trkpt lat="44.33308" lon="5.89607">
        <ele>570</ele>
        <time>2019-04-02T14:12:52Z</time>
      </trkpt>
      <trkpt lat="44.33303" lon="5.89604">
        <ele>570</ele>
        <time>2019-04-02T14:12:53Z</time>
      </trkpt>
      <trkpt lat="44.33298" lon="5.89602">
        <ele>570</ele>
        <time>2019-04-02T14:12:54Z</time>
      </trkpt>
      <trkpt lat="44.33292" lon="5.896">
        <ele>570</ele>
        <time>2019-04-02T14:12:55Z</time>
      </trkpt>
      <trkpt lat="44.33287" lon="5.89598">
        <ele>570</ele>
        <time>2019-04-02T14:12:56Z</time>
      </trkpt>
      <trkpt lat="44.33282" lon="5.89596">
        <ele>570</ele>
        <time>2019-04-02T14:12:57Z</time>
      </trkpt>
      <trkpt lat="44.33276" lon="5.89594">
        <ele>570</ele>
        <time>2019-04-02T14:12:58Z</time>
      </trkpt>
      <trkpt lat="44.33271" lon="5.89592">
        <ele>570</ele>
        <time>2019-04-02T14:12:59Z</time>
      </trkpt>
      <trkpt lat="44.33265" lon="5.8959">
        <ele>570</ele>
        <time>2019-04-02T14:13:00Z</time>
      </trkpt>
      <trkpt lat="44.3326" lon="5.89587">
        <ele>570</ele>
        <time>2019-04-02T14:13:01Z</time>
      </trkpt>
      <trkpt lat="44.33254" lon="5.89585">
        <ele>570</ele>
        <time>2019-04-02T14:13:02Z</time>
      </trkpt>
      <trkpt lat="44.33249" lon="5.89583">
        <ele>570</ele>
        <time>2019-04-02T14:13:03Z</time>
      </trkpt>
      <trkpt lat="44.33243" lon="5.89581">
        <ele>570</ele>
        <time>2019-04-02T14:13:04Z</time>
      </trkpt>
      <trkpt lat="44.33238" lon="5.89579">
        <ele>570</ele>
        <time>2019-04-02T14:13:05Z</time>
      </trkpt>
      <trkpt lat="44.33232" lon="5.89577">
        <ele>570</ele>
        <time>2019-04-02T14:13:06Z</time>
      </trkpt>
      <trkpt lat="44.33226" lon="5.89575">
        <ele>570</ele>
        <time>2019-04-02T14:13:07Z</time>
      </trkpt>
      <trkpt lat="44.33221" lon="5.89573">
        <ele>570</ele>
        <time>2019-04-02T14:13:08Z</time>
      </trkpt>
      <trkpt lat="44.33215" lon="5.89571">
        <ele>570</ele>
        <time>2019-04-02T14:13:09Z</time>
      </trkpt>
      <trkpt lat="44.33209" lon="5.89569">
        <ele>570</ele>
        <time>2019-04-02T14:13:10Z</time>
      </trkpt>
      <trkpt lat="44.33203" lon="5.89567">
        <ele>570</ele>
        <time>2019-04-02T14:13:11Z</time>
      </trkpt>
      <trkpt lat="44.33197" lon="5.89566">
        <ele>570</ele>
        <time>2019-04-02T14:13:12Z</time>
      </trkpt>
      <trkpt lat="44.33191" lon="5.89564">
        <ele>570</ele>
        <time>2019-04-02T14:13:13Z</time>
      </trkpt>
      <trkpt lat="44.33186" lon="5.89562">
        <ele>570</ele>
        <time>2019-04-02T14:13:14Z</time>
      </trkpt>
      <trkpt lat="44.33179" lon="5.8956">
        <ele>570</ele>
        <time>2019-04-02T14:13:15Z</time>
      </trkpt>
      <trkpt lat="44.33174" lon="5.89558">
        <ele>570</ele>
        <time>2019-04-02T14:13:16Z</time>
      </trkpt>
      <trkpt lat="44.33168" lon="5.89556">
        <ele>570</ele>
        <time>2019-04-02T14:13:17Z</time>
      </trkpt>
      <trkpt lat="44.33162" lon="5.89554">
        <ele>570</ele>
        <time>2019-04-02T14:13:18Z</time>
      </trkpt>
      <trkpt lat="44.33156" lon="5.89552">
        <ele>570</ele>
        <time>2019-04-02T14:13:19Z</time>
      </trkpt>
      <trkpt lat="44.3315" lon="5.8955">
        <ele>570</ele>
        <time>2019-04-02T14:13:20Z</time>
      </trkpt>
      <trkpt lat="44.33144" lon="5.89548">
        <ele>570</ele>
        <time>2019-04-02T14:13:21Z</time>
      </trkpt>
      <trkpt lat="44.33138" lon="5.89546">
        <ele>570</ele>
        <time>2019-04-02T14:13:22Z</time>
      </trkpt>
      <trkpt lat="44.33132" lon="5.89545">
        <ele>570</ele>
        <time>2019-04-02T14:13:23Z</time>
      </trkpt>
      <trkpt lat="44.33126" lon="5.89543">
        <ele>570</ele>
        <time>2019-04-02T14:13:24Z</time>
      </trkpt>
      <trkpt lat="44.33121" lon="5.89541">
        <ele>570</ele>
        <time>2019-04-02T14:13:25Z</time>
      </trkpt>
      <trkpt lat="44.33115" lon="5.89539">
        <ele>570</ele>
        <time>2019-04-02T14:13:26Z</time>
      </trkpt>
      <trkpt lat="44.3311" lon="5.89537">
        <ele>570</ele>
        <time>2019-04-02T14:13:27Z</time>
      </trkpt>
      <trkpt lat="44.33104" lon="5.89536">
        <ele>570</ele>
        <time>2019-04-02T14:13:28Z</time>
      </trkpt>
      <trkpt lat="44.33098" lon="5.89534">
        <ele>570</ele>
        <time>2019-04-02T14:13:29Z</time>
      </trkpt>
      <trkpt lat="44.33092" lon="5.89532">
        <ele>570</ele>
        <time>2019-04-02T14:13:30Z</time>
      </trkpt>
      <trkpt lat="44.33087" lon="5.8953">
        <ele>570</ele>
        <time>2019-04-02T14:13:31Z</time>
      </trkpt>
      <trkpt lat="44.33081" lon="5.89528">
        <ele>570</ele>
        <time>2019-04-02T14:13:32Z</time>
      </trkpt>
      <trkpt lat="44.33075" lon="5.89526">
        <ele>570</ele>
        <time>2019-04-02T14:13:33Z</time>
      </trkpt>
      <trkpt lat="44.3307" lon="5.89525">
        <ele>570</ele>
        <time>2019-04-02T14:13:34Z</time>
      </trkpt>
      <trkpt lat="44.33064" lon="5.89523">
        <ele>570</ele>
        <time>2019-04-02T14:13:35Z</time>
      </trkpt>
      <trkpt lat="44.33058" lon="5.89522">
        <ele>570</ele>
        <time>2019-04-02T14:13:36Z</time>
      </trkpt>
      <trkpt lat="44.33052" lon="5.8952">
        <ele>570</ele>
        <time>2019-04-02T14:13:37Z</time>
      </trkpt>
      <trkpt lat="44.33047" lon="5.89518">
        <ele>570</ele>
        <time>2019-04-02T14:13:38Z</time>
      </trkpt>
      <trkpt lat="44.33041" lon="5.89516">
        <ele>570</ele>
        <time>2019-04-02T14:13:39Z</time>
      </trkpt>
      <trkpt lat="44.33036" lon="5.89514">
        <ele>570</ele>
        <time>2019-04-02T14:13:40Z</time>
      </trkpt>
      <trkpt lat="44.3303" lon="5.89511">
        <ele>570</ele>
        <time>2019-04-02T14:13:41Z</time>
      </trkpt>
      <trkpt lat="44.33025" lon="5.89509">
        <ele>570</ele>
        <time>2019-04-02T14:13:42Z</time>
      </trkpt>
      <trkpt lat="44.3302" lon="5.89506">
        <ele>570</ele>
        <time>2019-04-02T14:13:43Z</time>
      </trkpt>
      <trkpt lat="44.33014" lon="5.89504">
        <ele>570</ele>
        <time>2019-04-02T14:13:44Z</time>
      </trkpt>
      <trkpt lat="44.33009" lon="5.89501">
        <ele>570</ele>
        <time>2019-04-02T14:13:45Z</time>
      </trkpt>
      <trkpt lat="44.33003" lon="5.89499">
        <ele>570</ele>
        <time>2019-04-02T14:13:46Z</time>
      </trkpt>
      <trkpt lat="44.32998" lon="5.89497">
        <ele>569</ele>
        <time>2019-04-02T14:13:47Z</time>
      </trkpt>
      <trkpt lat="44.32993" lon="5.89494">
        <ele>569</ele>
        <time>2019-04-02T14:13:48Z</time>
      </trkpt>
      <trkpt lat="44.32987" lon="5.89492">
        <ele>569</ele>
        <time>2019-04-02T14:13:49Z</time>
      </trkpt>
      <trkpt lat="44.32982" lon="5.89489">
        <ele>569</ele>
        <time>2019-04-02T14:13:50Z</time>
      </trkpt>
      <trkpt lat="44.32976" lon="5.89487">
        <ele>569</ele>
        <time>2019-04-02T14:13:51Z</time>
      </trkpt>
      <trkpt lat="44.3297" lon="5.89487">
        <ele>569</ele>
        <time>2019-04-02T14:13:52Z</time>
      </trkpt>
      <trkpt lat="44.32965" lon="5.89483">
        <ele>569</ele>
        <time>2019-04-02T14:13:53Z</time>
      </trkpt>
      <trkpt lat="44.3296" lon="5.89481">
        <ele>569</ele>
        <time>2019-04-02T14:13:54Z</time>
      </trkpt>
      <trkpt lat="44.32954" lon="5.89478">
        <ele>569</ele>
        <time>2019-04-02T14:13:55Z</time>
      </trkpt>
      <trkpt lat="44.32949" lon="5.89475">
        <ele>569</ele>
        <time>2019-04-02T14:13:56Z</time>
      </trkpt>
      <trkpt lat="44.32944" lon="5.89472">
        <ele>569</ele>
        <time>2019-04-02T14:13:57Z</time>
      </trkpt>
      <trkpt lat="44.3294" lon="5.89468">
        <ele>569</ele>
        <time>2019-04-02T14:13:58Z</time>
      </trkpt>
      <trkpt lat="44.32934" lon="5.89465">
        <ele>568</ele>
        <time>2019-04-02T14:13:59Z</time>
      </trkpt>
      <trkpt lat="44.32929" lon="5.89462">
        <ele>568</ele>
        <time>2019-04-02T14:14:00Z</time>
      </trkpt>
      <trkpt lat="44.32923" lon="5.89459">
        <ele>568</ele>
        <time>2019-04-02T14:14:01Z</time>
      </trkpt>
      <trkpt lat="44.32918" lon="5.89457">
        <ele>568</ele>
        <time>2019-04-02T14:14:02Z</time>
      </trkpt>
      <trkpt lat="44.32912" lon="5.89453">
        <ele>568</ele>
        <time>2019-04-02T14:14:03Z</time>
      </trkpt>
      <trkpt lat="44.32907" lon="5.8945">
        <ele>568</ele>
        <time>2019-04-02T14:14:04Z</time>
      </trkpt>
      <trkpt lat="44.32902" lon="5.89446">
        <ele>568</ele>
        <time>2019-04-02T14:14:05Z</time>
      </trkpt>
      <trkpt lat="44.32896" lon="5.89442">
        <ele>568</ele>
        <time>2019-04-02T14:14:06Z</time>
      </trkpt>
      <trkpt lat="44.32891" lon="5.89438">
        <ele>568</ele>
        <time>2019-04-02T14:14:07Z</time>
      </trkpt>
      <trkpt lat="44.32886" lon="5.89435">
        <ele>568</ele>
        <time>2019-04-02T14:14:08Z</time>
      </trkpt>
      <trkpt lat="44.32881" lon="5.89431">
        <ele>568</ele>
        <time>2019-04-02T14:14:09Z</time>
      </trkpt>
      <trkpt lat="44.32876" lon="5.89428">
        <ele>568</ele>
        <time>2019-04-02T14:14:10Z</time>
      </trkpt>
      <trkpt lat="44.3287" lon="5.89425">
        <ele>568</ele>
        <time>2019-04-02T14:14:11Z</time>
      </trkpt>
      <trkpt lat="44.32866" lon="5.89421">
        <ele>568</ele>
        <time>2019-04-02T14:14:12Z</time>
      </trkpt>
      <trkpt lat="44.32861" lon="5.89418">
        <ele>568</ele>
        <time>2019-04-02T14:14:13Z</time>
      </trkpt>
      <trkpt lat="44.32856" lon="5.89414">
        <ele>568</ele>
        <time>2019-04-02T14:14:14Z</time>
      </trkpt>
      <trkpt lat="44.32851" lon="5.8941">
        <ele>568</ele>
        <time>2019-04-02T14:14:15Z</time>
      </trkpt>
      <trkpt lat="44.32846" lon="5.89407">
        <ele>568</ele>
        <time>2019-04-02T14:14:16Z</time>
      </trkpt>
      <trkpt lat="44.32841" lon="5.89403">
        <ele>568</ele>
        <time>2019-04-02T14:14:17Z</time>
      </trkpt>
      <trkpt lat="44.32836" lon="5.894">
        <ele>568</ele>
        <time>2019-04-02T14:14:18Z</time>
      </trkpt>
      <trkpt lat="44.32831" lon="5.89397">
        <ele>568</ele>
        <time>2019-04-02T14:14:19Z</time>
      </trkpt>
      <trkpt lat="44.32826" lon="5.89393">
        <ele>568</ele>
        <time>2019-04-02T14:14:20Z</time>
      </trkpt>
      <trkpt lat="44.32821" lon="5.8939">
        <ele>568</ele>
        <time>2019-04-02T14:14:21Z</time>
      </trkpt>
      <trkpt lat="44.32816" lon="5.89386">
        <ele>568</ele>
        <time>2019-04-02T14:14:22Z</time>
      </trkpt>
      <trkpt lat="44.32811" lon="5.89382">
        <ele>568</ele>
        <time>2019-04-02T14:14:23Z</time>
      </trkpt>
      <trkpt lat="44.32806" lon="5.89379">
        <ele>568</ele>
        <time>2019-04-02T14:14:24Z</time>
      </trkpt>
      <trkpt lat="44.32801" lon="5.89375">
        <ele>568</ele>
        <time>2019-04-02T14:14:25Z</time>
      </trkpt>
      <trkpt lat="44.32795" lon="5.89371">
        <ele>568</ele>
        <time>2019-04-02T14:14:26Z</time>
      </trkpt>
      <trkpt lat="44.3279" lon="5.89368">
        <ele>568</ele>
        <time>2019-04-02T14:14:27Z</time>
      </trkpt>
      <trkpt lat="44.32785" lon="5.89364">
        <ele>568</ele>
        <time>2019-04-02T14:14:28Z</time>
      </trkpt>
      <trkpt lat="44.3278" lon="5.89361">
        <ele>568</ele>
        <time>2019-04-02T14:14:29Z</time>
      </trkpt>
      <trkpt lat="44.32776" lon="5.89357">
        <ele>568</ele>
        <time>2019-04-02T14:14:30Z</time>
      </trkpt>
      <trkpt lat="44.32771" lon="5.89354">
        <ele>568</ele>
        <time>2019-04-02T14:14:31Z</time>
      </trkpt>
      <trkpt lat="44.32766" lon="5.8935">
        <ele>568</ele>
        <time>2019-04-02T14:14:32Z</time>
      </trkpt>
      <trkpt lat="44.32761" lon="5.89347">
        <ele>568</ele>
        <time>2019-04-02T14:14:33Z</time>
      </trkpt>
      <trkpt lat="44.32757" lon="5.89343">
        <ele>568</ele>
        <time>2019-04-02T14:14:34Z</time>
      </trkpt>
      <trkpt lat="44.32752" lon="5.8934">
        <ele>568</ele>
        <time>2019-04-02T14:14:35Z</time>
      </trkpt>
      <trkpt lat="44.32747" lon="5.89336">
        <ele>568</ele>
        <time>2019-04-02T14:14:36Z</time>
      </trkpt>
      <trkpt lat="44.32742" lon="5.89333">
        <ele>568</ele>
        <time>2019-04-02T14:14:37Z</time>
      </trkpt>
      <trkpt lat="44.32737" lon="5.89329">
        <ele>568</ele>
        <time>2019-04-02T14:14:38Z</time>
      </trkpt>
      <trkpt lat="44.32733" lon="5.89326">
        <ele>568</ele>
        <time>2019-04-02T14:14:39Z</time>
      </trkpt>
      <trkpt lat="44.32728" lon="5.89323">
        <ele>568</ele>
        <time>2019-04-02T14:14:40Z</time>
      </trkpt>
      <trkpt lat="44.32723" lon="5.8932">
        <ele>568</ele>
        <time>2019-04-02T14:14:41Z</time>
      </trkpt>
      <trkpt lat="44.32718" lon="5.89316">
        <ele>568</ele>
        <time>2019-04-02T14:14:42Z</time>
      </trkpt>
      <trkpt lat="44.32713" lon="5.89313">
        <ele>568</ele>
        <time>2019-04-02T14:14:43Z</time>
      </trkpt>
      <trkpt lat="44.32709" lon="5.8931">
        <ele>568</ele>
        <time>2019-04-02T14:14:44Z</time>
      </trkpt>
      <trkpt lat="44.32704" lon="5.89306">
        <ele>568</ele>
        <time>2019-04-02T14:14:45Z</time>
      </trkpt>
      <trkpt lat="44.32699" lon="5.89303">
        <ele>568</ele>
        <time>2019-04-02T14:14:46Z</time>
      </trkpt>
      <trkpt lat="44.32694" lon="5.89299">
        <ele>568</ele>
        <time>2019-04-02T14:14:47Z</time>
      </trkpt>
      <trkpt lat="44.32689" lon="5.89296">
        <ele>568</ele>
        <time>2019-04-02T14:14:48Z</time>
      </trkpt>
      <trkpt lat="44.32684" lon="5.89292">
        <ele>568</ele>
        <time>2019-04-02T14:14:49Z</time>
      </trkpt>
      <trkpt lat="44.32679" lon="5.89289">
        <ele>568</ele>
        <time>2019-04-02T14:14:50Z</time>
      </trkpt>
      <trkpt lat="44.32674" lon="5.89286">
        <ele>568</ele>
        <time>2019-04-02T14:14:51Z</time>
      </trkpt>
      <trkpt lat="44.32669" lon="5.89282">
        <ele>568</ele>
        <time>2019-04-02T14:14:52Z</time>
      </trkpt>
      <trkpt lat="44.32664" lon="5.89279">
        <ele>568</ele>
        <time>2019-04-02T14:14:53Z</time>
      </trkpt>
      <trkpt lat="44.3266" lon="5.89275">
        <ele>568</ele>
        <time>2019-04-02T14:14:54Z</time>
      </trkpt>
      <trkpt lat="44.32655" lon="5.89271">
        <ele>568</ele>
        <time>2019-04-02T14:14:55Z</time>
      </trkpt>
      <trkpt lat="44.3265" lon="5.89267">
        <ele>568</ele>
        <time>2019-04-02T14:14:56Z</time>
      </trkpt>
      <trkpt lat="44.32646" lon="5.89263">
        <ele>568</ele>
        <time>2019-04-02T14:14:57Z</time>
      </trkpt>
      <trkpt lat="44.32642" lon="5.89259">
        <ele>568</ele>
        <time>2019-04-02T14:14:58Z</time>
      </trkpt>
      <trkpt lat="44.32637" lon="5.89256">
        <ele>568</ele>
        <time>2019-04-02T14:14:59Z</time>
      </trkpt>
      <trkpt lat="44.32633" lon="5.89252">
        <ele>568</ele>
        <time>2019-04-02T14:15:00Z</time>
      </trkpt>
      <trkpt lat="44.32629" lon="5.89249">
        <ele>568</ele>
        <time>2019-04-02T14:15:01Z</time>
      </trkpt>
      <trkpt lat="44.32624" lon="5.89246">
        <ele>568</ele>
        <time>2019-04-02T14:15:02Z</time>
      </trkpt>
      <trkpt lat="44.3262" lon="5.89243">
        <ele>568</ele>
        <time>2019-04-02T14:15:03Z</time>
      </trkpt>
      <trkpt lat="44.32615" lon="5.8924">
        <ele>568</ele>
        <time>2019-04-02T14:15:04Z</time>
      </trkpt>
      <trkpt lat="44.3261" lon="5.89237">
        <ele>568</ele>
        <time>2019-04-02T14:15:05Z</time>
      </trkpt>
      <trkpt lat="44.32605" lon="5.89234">
        <ele>568</ele>
        <time>2019-04-02T14:15:06Z</time>
      </trkpt>
      <trkpt lat="44.32599" lon="5.89231">
        <ele>568</ele>
        <time>2019-04-02T14:15:07Z</time>
      </trkpt>
      <trkpt lat="44.32594" lon="5.89228">
        <ele>568</ele>
        <time>2019-04-02T14:15:08Z</time>
      </trkpt>
      <trkpt lat="44.32589" lon="5.89225">
        <ele>568</ele>
        <time>2019-04-02T14:15:09Z</time>
      </trkpt>
      <trkpt lat="44.32583" lon="5.89222">
        <ele>568</ele>
        <time>2019-04-02T14:15:10Z</time>
      </trkpt>
      <trkpt lat="44.32578" lon="5.8922">
        <ele>568</ele>
        <time>2019-04-02T14:15:11Z</time>
      </trkpt>
      <trkpt lat="44.32572" lon="5.89217">
        <ele>568</ele>
        <time>2019-04-02T14:15:12Z</time>
      </trkpt>
      <trkpt lat="44.32566" lon="5.89214">
        <ele>568</ele>
        <time>2019-04-02T14:15:13Z</time>
      </trkpt>
      <trkpt lat="44.32561" lon="5.89211">
        <ele>568</ele>
        <time>2019-04-02T14:15:14Z</time>
      </trkpt>
      <trkpt lat="44.32555" lon="5.89208">
        <ele>568</ele>
        <time>2019-04-02T14:15:15Z</time>
      </trkpt>
      <trkpt lat="44.3255" lon="5.89206">
        <ele>568</ele>
        <time>2019-04-02T14:15:16Z</time>
      </trkpt>
      <trkpt lat="44.32544" lon="5.89203">
        <ele>568</ele>
        <time>2019-04-02T14:15:17Z</time>
      </trkpt>
      <trkpt lat="44.32538" lon="5.89201">
        <ele>568</ele>
        <time>2019-04-02T14:15:18Z</time>
      </trkpt>
      <trkpt lat="44.32532" lon="5.89198">
        <ele>568</ele>
        <time>2019-04-02T14:15:19Z</time>
      </trkpt>
      <trkpt lat="44.32526" lon="5.89196">
        <ele>568</ele>
        <time>2019-04-02T14:15:20Z</time>
      </trkpt>
      <trkpt lat="44.32521" lon="5.89194">
        <ele>568</ele>
        <time>2019-04-02T14:15:21Z</time>
      </trkpt>
      <trkpt lat="44.32515" lon="5.89192">
        <ele>568</ele>
        <time>2019-04-02T14:15:22Z</time>
      </trkpt>
      <trkpt lat="44.32509" lon="5.8919">
        <ele>568</ele>
        <time>2019-04-02T14:15:23Z</time>
      </trkpt>
      <trkpt lat="44.32503" lon="5.89188">
        <ele>568</ele>
        <time>2019-04-02T14:15:24Z</time>
      </trkpt>
      <trkpt lat="44.32498" lon="5.89186">
        <ele>568</ele>
        <time>2019-04-02T14:15:25Z</time>
      </trkpt>
      <trkpt lat="44.32492" lon="5.89184">
        <ele>568</ele>
        <time>2019-04-02T14:15:26Z</time>
      </trkpt>
      <trkpt lat="44.32486" lon="5.89182">
        <ele>568</ele>
        <time>2019-04-02T14:15:27Z</time>
      </trkpt>
      <trkpt lat="44.32481" lon="5.89181">
        <ele>568</ele>
        <time>2019-04-02T14:15:28Z</time>
      </trkpt>
      <trkpt lat="44.32475" lon="5.89179">
        <ele>568</ele>
        <time>2019-04-02T14:15:29Z</time>
      </trkpt>
      <trkpt lat="44.3247" lon="5.89177">
        <ele>568</ele>
        <time>2019-04-02T14:15:30Z</time>
      </trkpt>
      <trkpt lat="44.32464" lon="5.89175">
        <ele>568</ele>
        <time>2019-04-02T14:15:31Z</time>
      </trkpt>
      <trkpt lat="44.32458" lon="5.89173">
        <ele>568</ele>
        <time>2019-04-02T14:15:32Z</time>
      </trkpt>
      <trkpt lat="44.32453" lon="5.89171">
        <ele>568</ele>
        <time>2019-04-02T14:15:33Z</time>
      </trkpt>
      <trkpt lat="44.32447" lon="5.89169">
        <ele>568</ele>
        <time>2019-04-02T14:15:34Z</time>
      </trkpt>
      <trkpt lat="44.32442" lon="5.89167">
        <ele>568</ele>
        <time>2019-04-02T14:15:35Z</time>
      </trkpt>
      <trkpt lat="44.32436" lon="5.89165">
        <ele>568</ele>
        <time>2019-04-02T14:15:36Z</time>
      </trkpt>
      <trkpt lat="44.32431" lon="5.89163">
        <ele>568</ele>
        <time>2019-04-02T14:15:37Z</time>
      </trkpt>
      <trkpt lat="44.32426" lon="5.89161">
        <ele>568</ele>
        <time>2019-04-02T14:15:38Z</time>
      </trkpt>
      <trkpt lat="44.3242" lon="5.89159">
        <ele>568</ele>
        <time>2019-04-02T14:15:39Z</time>
      </trkpt>
      <trkpt lat="44.32415" lon="5.89158">
        <ele>568</ele>
        <time>2019-04-02T14:15:40Z</time>
      </trkpt>
      <trkpt lat="44.32409" lon="5.89157">
        <ele>568</ele>
        <time>2019-04-02T14:15:41Z</time>
      </trkpt>
      <trkpt lat="44.32404" lon="5.89155">
        <ele>568</ele>
        <time>2019-04-02T14:15:42Z</time>
      </trkpt>
      <trkpt lat="44.32398" lon="5.89154">
        <ele>568</ele>
        <time>2019-04-02T14:15:43Z</time>
      </trkpt>
      <trkpt lat="44.32393" lon="5.89152">
        <ele>568</ele>
        <time>2019-04-02T14:15:44Z</time>
      </trkpt>
      <trkpt lat="44.32387" lon="5.8915">
        <ele>568</ele>
        <time>2019-04-02T14:15:45Z</time>
      </trkpt>
      <trkpt lat="44.32382" lon="5.89149">
        <ele>568</ele>
        <time>2019-04-02T14:15:46Z</time>
      </trkpt>
      <trkpt lat="44.32376" lon="5.89147">
        <ele>568</ele>
        <time>2019-04-02T14:15:47Z</time>
      </trkpt>
      <trkpt lat="44.32371" lon="5.89145">
        <ele>568</ele>
        <time>2019-04-02T14:15:48Z</time>
      </trkpt>
      <trkpt lat="44.32365" lon="5.89143">
        <ele>568</ele>
        <time>2019-04-02T14:15:49Z</time>
      </trkpt>
      <trkpt lat="44.3236" lon="5.89141">
        <ele>568</ele>
        <time>2019-04-02T14:15:50Z</time>
      </trkpt>
      <trkpt lat="44.32354" lon="5.8914">
        <ele>568</ele>
        <time>2019-04-02T14:15:51Z</time>
      </trkpt>
      <trkpt lat="44.32349" lon="5.89138">
        <ele>568</ele>
        <time>2019-04-02T14:15:52Z</time>
      </trkpt>
      <trkpt lat="44.32343" lon="5.89136">
        <ele>568</ele>
        <time>2019-04-02T14:15:53Z</time>
      </trkpt>
      <trkpt lat="44.32338" lon="5.89134">
        <ele>568</ele>
        <time>2019-04-02T14:15:54Z</time>
      </trkpt>
      <trkpt lat="44.32332" lon="5.89132">
        <ele>568</ele>
        <time>2019-04-02T14:15:55Z</time>
      </trkpt>
      <trkpt lat="44.32327" lon="5.8913">
        <ele>568</ele>
        <time>2019-04-02T14:15:56Z</time>
      </trkpt>
      <trkpt lat="44.32321" lon="5.89129">
        <ele>568</ele>
        <time>2019-04-02T14:15:57Z</time>
      </trkpt>
      <trkpt lat="44.32315" lon="5.89127">
        <ele>568</ele>
        <time>2019-04-02T14:15:58Z</time>
      </trkpt>
      <trkpt lat="44.3231" lon="5.89126">
        <ele>568</ele>
        <time>2019-04-02T14:15:59Z</time>
      </trkpt>
      <trkpt lat="44.32305" lon="5.89124">
        <ele>568</ele>
        <time>2019-04-02T14:16:00Z</time>
      </trkpt>
      <trkpt lat="44.32299" lon="5.89122">
        <ele>568</ele>
        <time>2019-04-02T14:16:01Z</time>
      </trkpt>
      <trkpt lat="44.32294" lon="5.8912">
        <ele>568</ele>
        <time>2019-04-02T14:16:02Z</time>
      </trkpt>
      <trkpt lat="44.32289" lon="5.89119">
        <ele>568</ele>
        <time>2019-04-02T14:16:03Z</time>
      </trkpt>
      <trkpt lat="44.32283" lon="5.89117">
        <ele>568</ele>
        <time>2019-04-02T14:16:04Z</time>
      </trkpt>
      <trkpt lat="44.32278" lon="5.89115">
        <ele>568</ele>
        <time>2019-04-02T14:16:05Z</time>
      </trkpt>
      <trkpt lat="44.32273" lon="5.89114">
        <ele>568</ele>
        <time>2019-04-02T14:16:06Z</time>
      </trkpt>
      <trkpt lat="44.32267" lon="5.89112">
        <ele>568</ele>
        <time>2019-04-02T14:16:07Z</time>
      </trkpt>
      <trkpt lat="44.32262" lon="5.8911">
        <ele>568</ele>
        <time>2019-04-02T14:16:08Z</time>
      </trkpt>
      <trkpt lat="44.32256" lon="5.89108">
        <ele>568</ele>
        <time>2019-04-02T14:16:09Z</time>
      </trkpt>
      <trkpt lat="44.32251" lon="5.89107">
        <ele>568</ele>
        <time>2019-04-02T14:16:10Z</time>
      </trkpt>
      <trkpt lat="44.32246" lon="5.89104">
        <ele>568</ele>
        <time>2019-04-02T14:16:11Z</time>
      </trkpt>
      <trkpt lat="44.3224" lon="5.89103">
        <ele>568</ele>
        <time>2019-04-02T14:16:12Z</time>
      </trkpt>
      <trkpt lat="44.32235" lon="5.89101">
        <ele>568</ele>
        <time>2019-04-02T14:16:13Z</time>
      </trkpt>
      <trkpt lat="44.32229" lon="5.89099">
        <ele>568</ele>
        <time>2019-04-02T14:16:14Z</time>
      </trkpt>
      <trkpt lat="44.32224" lon="5.89097">
        <ele>568</ele>
        <time>2019-04-02T14:16:15Z</time>
      </trkpt>
      <trkpt lat="44.32219" lon="5.89095">
        <ele>568</ele>
        <time>2019-04-02T14:16:16Z</time>
      </trkpt>
      <trkpt lat="44.32213" lon="5.89094">
        <ele>568</ele>
        <time>2019-04-02T14:16:17Z</time>
      </trkpt>
      <trkpt lat="44.32208" lon="5.89092">
        <ele>568</ele>
        <time>2019-04-02T14:16:18Z</time>
      </trkpt>
      <trkpt lat="44.32202" lon="5.89091">
        <ele>568</ele>
        <time>2019-04-02T14:16:19Z</time>
      </trkpt>
      <trkpt lat="44.32197" lon="5.89089">
        <ele>568</ele>
        <time>2019-04-02T14:16:20Z</time>
      </trkpt>
      <trkpt lat="44.32191" lon="5.89087">
        <ele>568</ele>
        <time>2019-04-02T14:16:21Z</time>
      </trkpt>
      <trkpt lat="44.32186" lon="5.89085">
        <ele>568</ele>
        <time>2019-04-02T14:16:22Z</time>
      </trkpt>
      <trkpt lat="44.32181" lon="5.89083">
        <ele>568</ele>
        <time>2019-04-02T14:16:23Z</time>
      </trkpt>
      <trkpt lat="44.32176" lon="5.89082">
        <ele>568</ele>
        <time>2019-04-02T14:16:24Z</time>
      </trkpt>
      <trkpt lat="44.3217" lon="5.8908">
        <ele>568</ele>
        <time>2019-04-02T14:16:25Z</time>
      </trkpt>
      <trkpt lat="44.32165" lon="5.89078">
        <ele>568</ele>
        <time>2019-04-02T14:16:26Z</time>
      </trkpt>
      <trkpt lat="44.3216" lon="5.89077">
        <ele>568</ele>
        <time>2019-04-02T14:16:27Z</time>
      </trkpt>
      <trkpt lat="44.32154" lon="5.89075">
        <ele>568</ele>
        <time>2019-04-02T14:16:28Z</time>
      </trkpt>
      <trkpt lat="44.32149" lon="5.89074">
        <ele>568</ele>
        <time>2019-04-02T14:16:29Z</time>
      </trkpt>
      <trkpt lat="44.32143" lon="5.89072">
        <ele>568</ele>
        <time>2019-04-02T14:16:30Z</time>
      </trkpt>
      <trkpt lat="44.32138" lon="5.8907">
        <ele>568</ele>
        <time>2019-04-02T14:16:31Z</time>
      </trkpt>
      <trkpt lat="44.32132" lon="5.89069">
        <ele>568</ele>
        <time>2019-04-02T14:16:32Z</time>
      </trkpt>
      <trkpt lat="44.32127" lon="5.89068">
        <ele>568</ele>
        <time>2019-04-02T14:16:33Z</time>
      </trkpt>
      <trkpt lat="44.32121" lon="5.89067">
        <ele>568</ele>
        <time>2019-04-02T14:16:34Z</time>
      </trkpt>
      <trkpt lat="44.32116" lon="5.89066">
        <ele>568</ele>
        <time>2019-04-02T14:16:35Z</time>
      </trkpt>
      <trkpt lat="44.3211" lon="5.89065">
        <ele>568</ele>
        <time>2019-04-02T14:16:36Z</time>
      </trkpt>
      <trkpt lat="44.32105" lon="5.89064">
        <ele>568</ele>
        <time>2019-04-02T14:16:37Z</time>
      </trkpt>
      <trkpt lat="44.32099" lon="5.89063">
        <ele>568</ele>
        <time>2019-04-02T14:16:38Z</time>
      </trkpt>
      <trkpt lat="44.32094" lon="5.89062">
        <ele>568</ele>
        <time>2019-04-02T14:16:39Z</time>
      </trkpt>
      <trkpt lat="44.32089" lon="5.89061">
        <ele>568</ele>
        <time>2019-04-02T14:16:40Z</time>
      </trkpt>
      <trkpt lat="44.32084" lon="5.89061">
        <ele>568</ele>
        <time>2019-04-02T14:16:41Z</time>
      </trkpt>
      <trkpt lat="44.32079" lon="5.8906">
        <ele>568</ele>
        <time>2019-04-02T14:16:42Z</time>
      </trkpt>
      <trkpt lat="44.32074" lon="5.89059">
        <ele>568</ele>
        <time>2019-04-02T14:16:43Z</time>
      </trkpt>
      <trkpt lat="44.3207" lon="5.89059">
        <ele>568</ele>
        <time>2019-04-02T14:16:44Z</time>
      </trkpt>
      <trkpt lat="44.32065" lon="5.89058">
        <ele>568</ele>
        <time>2019-04-02T14:16:45Z</time>
      </trkpt>
      <trkpt lat="44.3206" lon="5.89057">
        <ele>568</ele>
        <time>2019-04-02T14:16:46Z</time>
      </trkpt>
      <trkpt lat="44.32056" lon="5.89057">
        <ele>568</ele>
        <time>2019-04-02T14:16:47Z</time>
      </trkpt>
      <trkpt lat="44.32051" lon="5.89056">
        <ele>568</ele>
        <time>2019-04-02T14:16:48Z</time>
      </trkpt>
      <trkpt lat="44.32047" lon="5.89055">
        <ele>568</ele>
        <time>2019-04-02T14:16:49Z</time>
      </trkpt>
      <trkpt lat="44.32042" lon="5.89054">
        <ele>568</ele>
        <time>2019-04-02T14:16:50Z</time>
      </trkpt>
      <trkpt lat="44.32037" lon="5.89053">
        <ele>568</ele>
        <time>2019-04-02T14:16:51Z</time>
      </trkpt>
      <trkpt lat="44.32033" lon="5.89051">
        <ele>568</ele>
        <time>2019-04-02T14:16:52Z</time>
      </trkpt>
      <trkpt lat="44.32029" lon="5.8905">
        <ele>569</ele>
        <time>2019-04-02T14:16:53Z</time>
      </trkpt>
      <trkpt lat="44.32024" lon="5.89048">
        <ele>569</ele>
        <time>2019-04-02T14:16:54Z</time>
      </trkpt>
      <trkpt lat="44.3202" lon="5.89047">
        <ele>569</ele>
        <time>2019-04-02T14:16:55Z</time>
      </trkpt>
      <trkpt lat="44.32016" lon="5.89045">
        <ele>569</ele>
        <time>2019-04-02T14:16:56Z</time>
      </trkpt>
      <trkpt lat="44.32012" lon="5.89042">
        <ele>570</ele>
        <time>2019-04-02T14:16:57Z</time>
      </trkpt>
      <trkpt lat="44.32008" lon="5.8904">
        <ele>570</ele>
        <time>2019-04-02T14:16:58Z</time>
      </trkpt>
      <trkpt lat="44.32003" lon="5.89037">
        <ele>570</ele>
        <time>2019-04-02T14:16:59Z</time>
      </trkpt>
      <trkpt lat="44.31999" lon="5.89034">
        <ele>570</ele>
        <time>2019-04-02T14:17:00Z</time>
      </trkpt>
      <trkpt lat="44.31995" lon="5.89031">
        <ele>570</ele>
        <time>2019-04-02T14:17:01Z</time>
      </trkpt>
      <trkpt lat="44.31991" lon="5.89028">
        <ele>571</ele>
        <time>2019-04-02T14:17:02Z</time>
      </trkpt>
      <trkpt lat="44.31987" lon="5.89024">
        <ele>571</ele>
        <time>2019-04-02T14:17:03Z</time>
      </trkpt>
      <trkpt lat="44.31983" lon="5.89021">
        <ele>571</ele>
        <time>2019-04-02T14:17:04Z</time>
      </trkpt>
      <trkpt lat="44.31979" lon="5.89018">
        <ele>571</ele>
        <time>2019-04-02T14:17:05Z</time>
      </trkpt>
      <trkpt lat="44.31975" lon="5.89014">
        <ele>572</ele>
        <time>2019-04-02T14:17:06Z</time>
      </trkpt>
      <trkpt lat="44.31971" lon="5.89011">
        <ele>572</ele>
        <time>2019-04-02T14:17:07Z</time>
      </trkpt>
      <trkpt lat="44.31968" lon="5.89008">
        <ele>572</ele>
        <time>2019-04-02T14:17:08Z</time>
      </trkpt>
      <trkpt lat="44.31964" lon="5.89005">
        <ele>572</ele>
        <time>2019-04-02T14:17:09Z</time>
      </trkpt>
      <trkpt lat="44.3196" lon="5.89003">
        <ele>572</ele>
        <time>2019-04-02T14:17:10Z</time>
      </trkpt>
      <trkpt lat="44.31956" lon="5.89">
        <ele>573</ele>
        <time>2019-04-02T14:17:11Z</time>
      </trkpt>
      <trkpt lat="44.31952" lon="5.88998">
        <ele>573</ele>
        <time>2019-04-02T14:17:12Z</time>
      </trkpt>
      <trkpt lat="44.31947" lon="5.88996">
        <ele>573</ele>
        <time>2019-04-02T14:17:13Z</time>
      </trkpt>
      <trkpt lat="44.31943" lon="5.88994">
        <ele>573</ele>
        <time>2019-04-02T14:17:14Z</time>
      </trkpt>
      <trkpt lat="44.31938" lon="5.88992">
        <ele>573</ele>
        <time>2019-04-02T14:17:15Z</time>
      </trkpt>
      <trkpt lat="44.31934" lon="5.88991">
        <ele>573</ele>
        <time>2019-04-02T14:17:16Z</time>
      </trkpt>
      <trkpt lat="44.31929" lon="5.88989">
        <ele>573</ele>
        <time>2019-04-02T14:17:17Z</time>
      </trkpt>
      <trkpt lat="44.31924" lon="5.88988">
        <ele>573</ele>
        <time>2019-04-02T14:17:18Z</time>
      </trkpt>
      <trkpt lat="44.3192" lon="5.88988">
        <ele>573</ele>
        <time>2019-04-02T14:17:19Z</time>
      </trkpt>
      <trkpt lat="44.31916" lon="5.88987">
        <ele>574</ele>
        <time>2019-04-02T14:17:20Z</time>
      </trkpt>
      <trkpt lat="44.31911" lon="5.88986">
        <ele>574</ele>
        <time>2019-04-02T14:17:21Z</time>
      </trkpt>
      <trkpt lat="44.31907" lon="5.88986">
        <ele>574</ele>
        <time>2019-04-02T14:17:22Z</time>
      </trkpt>
      <trkpt lat="44.31902" lon="5.88986">
        <ele>574</ele>
        <time>2019-04-02T14:17:23Z</time>
      </trkpt>
      <trkpt lat="44.31897" lon="5.88986">
        <ele>574</ele>
        <time>2019-04-02T14:17:24Z</time>
      </trkpt>
      <trkpt lat="44.31893" lon="5.88987">
        <ele>575</ele>
        <time>2019-04-02T14:17:25Z</time>
      </trkpt>
      <trkpt lat="44.31888" lon="5.88987">
        <ele>575</ele>
        <time>2019-04-02T14:17:26Z</time>
      </trkpt>
      <trkpt lat="44.31884" lon="5.88988">
        <ele>575</ele>
        <time>2019-04-02T14:17:27Z</time>
      </trkpt>
      <trkpt lat="44.31879" lon="5.88989">
        <ele>575</ele>
        <time>2019-04-02T14:17:28Z</time>
      </trkpt>
      <trkpt lat="44.31875" lon="5.8899">
        <ele>575</ele>
        <time>2019-04-02T14:17:29Z</time>
      </trkpt>
      <trkpt lat="44.3187" lon="5.88991">
        <ele>575</ele>
        <time>2019-04-02T14:17:30Z</time>
      </trkpt>
      <trkpt lat="44.31866" lon="5.88993">
        <ele>576</ele>
        <time>2019-04-02T14:17:31Z</time>
      </trkpt>
      <trkpt lat="44.31862" lon="5.88995">
        <ele>576</ele>
        <time>2019-04-02T14:17:32Z</time>
      </trkpt>
      <trkpt lat="44.31858" lon="5.88996">
        <ele>576</ele>
        <time>2019-04-02T14:17:33Z</time>
      </trkpt>
      <trkpt lat="44.31854" lon="5.88998">
        <ele>576</ele>
        <time>2019-04-02T14:17:34Z</time>
      </trkpt>
      <trkpt lat="44.3185" lon="5.89001">
        <ele>576</ele>
        <time>2019-04-02T14:17:35Z</time>
      </trkpt>
      <trkpt lat="44.31846" lon="5.89003">
        <ele>576</ele>
        <time>2019-04-02T14:17:36Z</time>
      </trkpt>
      <trkpt lat="44.31842" lon="5.89005">
        <ele>576</ele>
        <time>2019-04-02T14:17:37Z</time>
      </trkpt>
      <trkpt lat="44.31838" lon="5.89008">
        <ele>577</ele>
        <time>2019-04-02T14:17:38Z</time>
      </trkpt>
      <trkpt lat="44.31834" lon="5.89011">
        <ele>577</ele>
        <time>2019-04-02T14:17:39Z</time>
      </trkpt>
      <trkpt lat="44.31831" lon="5.89013">
        <ele>577</ele>
        <time>2019-04-02T14:17:40Z</time>
      </trkpt>
      <trkpt lat="44.31827" lon="5.89016">
        <ele>577</ele>
        <time>2019-04-02T14:17:41Z</time>
      </trkpt>
      <trkpt lat="44.31823" lon="5.89018">
        <ele>577</ele>
        <time>2019-04-02T14:17:42Z</time>
      </trkpt>
      <trkpt lat="44.31819" lon="5.89021">
        <ele>577</ele>
        <time>2019-04-02T14:17:43Z</time>
      </trkpt>
      <trkpt lat="44.31815" lon="5.89024">
        <ele>577</ele>
        <time>2019-04-02T14:17:44Z</time>
      </trkpt>
      <trkpt lat="44.31812" lon="5.89027">
        <ele>577</ele>
        <time>2019-04-02T14:17:45Z</time>
      </trkpt>
      <trkpt lat="44.31807" lon="5.8903">
        <ele>577</ele>
        <time>2019-04-02T14:17:46Z</time>
      </trkpt>
      <trkpt lat="44.31804" lon="5.89033">
        <ele>577</ele>
        <time>2019-04-02T14:17:47Z</time>
      </trkpt>
      <trkpt lat="44.318" lon="5.89036">
        <ele>578</ele>
        <time>2019-04-02T14:17:48Z</time>
      </trkpt>
      <trkpt lat="44.31796" lon="5.89038">
        <ele>578</ele>
        <time>2019-04-02T14:17:49Z</time>
      </trkpt>
      <trkpt lat="44.31792" lon="5.89041">
        <ele>578</ele>
        <time>2019-04-02T14:17:50Z</time>
      </trkpt>
      <trkpt lat="44.31788" lon="5.89044">
        <ele>578</ele>
        <time>2019-04-02T14:17:51Z</time>
      </trkpt>
      <trkpt lat="44.31784" lon="5.89047">
        <ele>578</ele>
        <time>2019-04-02T14:17:52Z</time>
      </trkpt>
      <trkpt lat="44.31781" lon="5.8905">
        <ele>578</ele>
        <time>2019-04-02T14:17:53Z</time>
      </trkpt>
      <trkpt lat="44.31777" lon="5.89052">
        <ele>578</ele>
        <time>2019-04-02T14:17:54Z</time>
      </trkpt>
      <trkpt lat="44.31773" lon="5.89054">
        <ele>578</ele>
        <time>2019-04-02T14:17:55Z</time>
      </trkpt>
      <trkpt lat="44.31769" lon="5.89057">
        <ele>578</ele>
        <time>2019-04-02T14:17:56Z</time>
      </trkpt>
      <trkpt lat="44.31765" lon="5.8906">
        <ele>578</ele>
        <time>2019-04-02T14:17:57Z</time>
      </trkpt>
      <trkpt lat="44.31761" lon="5.89062">
        <ele>578</ele>
        <time>2019-04-02T14:17:58Z</time>
      </trkpt>
      <trkpt lat="44.31757" lon="5.89065">
        <ele>578</ele>
        <time>2019-04-02T14:17:59Z</time>
      </trkpt>
      <trkpt lat="44.31753" lon="5.89067">
        <ele>578</ele>
        <time>2019-04-02T14:18:00Z</time>
      </trkpt>
      <trkpt lat="44.31749" lon="5.89069">
        <ele>579</ele>
        <time>2019-04-02T14:18:01Z</time>
      </trkpt>
      <trkpt lat="44.31745" lon="5.89071">
        <ele>579</ele>
        <time>2019-04-02T14:18:02Z</time>
      </trkpt>
      <trkpt lat="44.31741" lon="5.89073">
        <ele>579</ele>
        <time>2019-04-02T14:18:03Z</time>
      </trkpt>
      <trkpt lat="44.31737" lon="5.89075">
        <ele>579</ele>
        <time>2019-04-02T14:18:04Z</time>
      </trkpt>
      <trkpt lat="44.31733" lon="5.89077">
        <ele>579</ele>
        <time>2019-04-02T14:18:05Z</time>
      </trkpt>
      <trkpt lat="44.31729" lon="5.89079">
        <ele>579</ele>
        <time>2019-04-02T14:18:06Z</time>
      </trkpt>
      <trkpt lat="44.31725" lon="5.89081">
        <ele>579</ele>
        <time>2019-04-02T14:18:07Z</time>
      </trkpt>
      <trkpt lat="44.31721" lon="5.89082">
        <ele>579</ele>
        <time>2019-04-02T14:18:08Z</time>
      </trkpt>
      <trkpt lat="44.31717" lon="5.89084">
        <ele>579</ele>
        <time>2019-04-02T14:18:09Z</time>
      </trkpt>
      <trkpt lat="44.31712" lon="5.89085">
        <ele>579</ele>
        <time>2019-04-02T14:18:10Z</time>
      </trkpt>
      <trkpt lat="44.31708" lon="5.89086">
        <ele>579</ele>
        <time>2019-04-02T14:18:11Z</time>
      </trkpt>
      <trkpt lat="44.31704" lon="5.89088">
        <ele>579</ele>
        <time>2019-04-02T14:18:12Z</time>
      </trkpt>
      <trkpt lat="44.31699" lon="5.89089">
        <ele>579</ele>
        <time>2019-04-02T14:18:13Z</time>
      </trkpt>
      <trkpt lat="44.31695" lon="5.8909">
        <ele>580</ele>
        <time>2019-04-02T14:18:14Z</time>
      </trkpt>
      <trkpt lat="44.31691" lon="5.89091">
        <ele>580</ele>
        <time>2019-04-02T14:18:15Z</time>
      </trkpt>
      <trkpt lat="44.31686" lon="5.89092">
        <ele>580</ele>
        <time>2019-04-02T14:18:16Z</time>
      </trkpt>
      <trkpt lat="44.31682" lon="5.89092">
        <ele>580</ele>
        <time>2019-04-02T14:18:17Z</time>
      </trkpt>
      <trkpt lat="44.31678" lon="5.89093">
        <ele>580</ele>
        <time>2019-04-02T14:18:18Z</time>
      </trkpt>
      <trkpt lat="44.31673" lon="5.89093">
        <ele>580</ele>
        <time>2019-04-02T14:18:19Z</time>
      </trkpt>
      <trkpt lat="44.31669" lon="5.89094">
        <ele>580</ele>
        <time>2019-04-02T14:18:20Z</time>
      </trkpt>
      <trkpt lat="44.31665" lon="5.89094">
        <ele>580</ele>
        <time>2019-04-02T14:18:21Z</time>
      </trkpt>
      <trkpt lat="44.3166" lon="5.89094">
        <ele>580</ele>
        <time>2019-04-02T14:18:22Z</time>
      </trkpt>
      <trkpt lat="44.31656" lon="5.89094">
        <ele>580</ele>
        <time>2019-04-02T14:18:23Z</time>
      </trkpt>
      <trkpt lat="44.31651" lon="5.89094">
        <ele>580</ele>
        <time>2019-04-02T14:18:24Z</time>
      </trkpt>
      <trkpt lat="44.31647" lon="5.89094">
        <ele>580</ele>
        <time>2019-04-02T14:18:25Z</time>
      </trkpt>
      <trkpt lat="44.31643" lon="5.89094">
        <ele>580</ele>
        <time>2019-04-02T14:18:26Z</time>
      </trkpt>
      <trkpt lat="44.31639" lon="5.89094">
        <ele>581</ele>
        <time>2019-04-02T14:18:27Z</time>
      </trkpt>
      <trkpt lat="44.31635" lon="5.89094">
        <ele>581</ele>
        <time>2019-04-02T14:18:28Z</time>
      </trkpt>
      <trkpt lat="44.3163" lon="5.89094">
        <ele>581</ele>
        <time>2019-04-02T14:18:29Z</time>
      </trkpt>
      <trkpt lat="44.31626" lon="5.89094">
        <ele>581</ele>
        <time>2019-04-02T14:18:30Z</time>
      </trkpt>
      <trkpt lat="44.31622" lon="5.89094">
        <ele>581</ele>
        <time>2019-04-02T14:18:31Z</time>
      </trkpt>
      <trkpt lat="44.31618" lon="5.89094">
        <ele>581</ele>
        <time>2019-04-02T14:18:32Z</time>
      </trkpt>
      <trkpt lat="44.31614" lon="5.89094">
        <ele>582</ele>
        <time>2019-04-02T14:18:33Z</time>
      </trkpt>
      <trkpt lat="44.3161" lon="5.89094">
        <ele>582</ele>
        <time>2019-04-02T14:18:34Z</time>
      </trkpt>
      <trkpt lat="44.31606" lon="5.89094">
        <ele>582</ele>
        <time>2019-04-02T14:18:35Z</time>
      </trkpt>
      <trkpt lat="44.31602" lon="5.89094">
        <ele>582</ele>
        <time>2019-04-02T14:18:36Z</time>
      </trkpt>
      <trkpt lat="44.31598" lon="5.89094">
        <ele>582</ele>
        <time>2019-04-02T14:18:37Z</time>
      </trkpt>
      <trkpt lat="44.31593" lon="5.89094">
        <ele>582</ele>
        <time>2019-04-02T14:18:38Z</time>
      </trkpt>
      <trkpt lat="44.31589" lon="5.89094">
        <ele>582</ele>
        <time>2019-04-02T14:18:39Z</time>
      </trkpt>
      <trkpt lat="44.31585" lon="5.89093">
        <ele>582</ele>
        <time>2019-04-02T14:18:40Z</time>
      </trkpt>
      <trkpt lat="44.31581" lon="5.89093">
        <ele>582</ele>
        <time>2019-04-02T14:18:41Z</time>
      </trkpt>
      <trkpt lat="44.31577" lon="5.89093">
        <ele>583</ele>
        <time>2019-04-02T14:18:42Z</time>
      </trkpt>
      <trkpt lat="44.31573" lon="5.89093">
        <ele>583</ele>
        <time>2019-04-02T14:18:43Z</time>
      </trkpt>
      <trkpt lat="44.3157" lon="5.89093">
        <ele>583</ele>
        <time>2019-04-02T14:18:44Z</time>
      </trkpt>
      <trkpt lat="44.31566" lon="5.89092">
        <ele>583</ele>
        <time>2019-04-02T14:18:45Z</time>
      </trkpt>
      <trkpt lat="44.31562" lon="5.89092">
        <ele>583</ele>
        <time>2019-04-02T14:18:46Z</time>
      </trkpt>
      <trkpt lat="44.31559" lon="5.89092">
        <ele>583</ele>
        <time>2019-04-02T14:18:47Z</time>
      </trkpt>
      <trkpt lat="44.31555" lon="5.89092">
        <ele>583</ele>
        <time>2019-04-02T14:18:48Z</time>
      </trkpt>
      <trkpt lat="44.31551" lon="5.89092">
        <ele>583</ele>
        <time>2019-04-02T14:18:49Z</time>
      </trkpt>
      <trkpt lat="44.31548" lon="5.89092">
        <ele>583</ele>
        <time>2019-04-02T14:18:50Z</time>
      </trkpt>
      <trkpt lat="44.31545" lon="5.89091">
        <ele>583</ele>
        <time>2019-04-02T14:18:51Z</time>
      </trkpt>
      <trkpt lat="44.31542" lon="5.89091">
        <ele>583</ele>
        <time>2019-04-02T14:18:52Z</time>
      </trkpt>
      <trkpt lat="44.31539" lon="5.89092">
        <ele>583</ele>
        <time>2019-04-02T14:18:53Z</time>
      </trkpt>
      <trkpt lat="44.31536" lon="5.89092">
        <ele>583</ele>
        <time>2019-04-02T14:18:54Z</time>
      </trkpt>
      <trkpt lat="44.31533" lon="5.89092">
        <ele>584</ele>
        <time>2019-04-02T14:18:55Z</time>
      </trkpt>
      <trkpt lat="44.3153" lon="5.89092">
        <ele>584</ele>
        <time>2019-04-02T14:18:56Z</time>
      </trkpt>
      <trkpt lat="44.31527" lon="5.89092">
        <ele>585</ele>
        <time>2019-04-02T14:18:57Z</time>
      </trkpt>
      <trkpt lat="44.31524" lon="5.89092">
        <ele>585</ele>
        <time>2019-04-02T14:18:58Z</time>
      </trkpt>
      <trkpt lat="44.31521" lon="5.89092">
        <ele>585</ele>
        <time>2019-04-02T14:18:59Z</time>
      </trkpt>
      <trkpt lat="44.31517" lon="5.89092">
        <ele>586</ele>
        <time>2019-04-02T14:19:00Z</time>
      </trkpt>
      <trkpt lat="44.31515" lon="5.8909">
        <ele>586</ele>
        <time>2019-04-02T14:19:01Z</time>
      </trkpt>
      <trkpt lat="44.31513" lon="5.89086">
        <ele>586</ele>
        <time>2019-04-02T14:19:02Z</time>
      </trkpt>
      <trkpt lat="44.31512" lon="5.89081">
        <ele>586</ele>
        <time>2019-04-02T14:19:03Z</time>
      </trkpt>
      <trkpt lat="44.31512" lon="5.89077">
        <ele>586</ele>
        <time>2019-04-02T14:19:04Z</time>
      </trkpt>
      <trkpt lat="44.31513" lon="5.89073">
        <ele>586</ele>
        <time>2019-04-02T14:19:05Z</time>
      </trkpt>
      <trkpt lat="44.31514" lon="5.89068">
        <ele>586</ele>
        <time>2019-04-02T14:19:06Z</time>
      </trkpt>
      <trkpt lat="44.31516" lon="5.89064">
        <ele>586</ele>
        <time>2019-04-02T14:19:07Z</time>
      </trkpt>
      <trkpt lat="44.31517" lon="5.89059">
        <ele>586</ele>
        <time>2019-04-02T14:19:08Z</time>
      </trkpt>
      <trkpt lat="44.31519" lon="5.89054">
        <ele>586</ele>
        <time>2019-04-02T14:19:09Z</time>
      </trkpt>
      <trkpt lat="44.31521" lon="5.89049">
        <ele>586</ele>
        <time>2019-04-02T14:19:10Z</time>
      </trkpt>
      <trkpt lat="44.31523" lon="5.89044">
        <ele>586</ele>
        <time>2019-04-02T14:19:11Z</time>
      </trkpt>
      <trkpt lat="44.31524" lon="5.89039">
        <ele>586</ele>
        <time>2019-04-02T14:19:12Z</time>
      </trkpt>
      <trkpt lat="44.31526" lon="5.89033">
        <ele>586</ele>
        <time>2019-04-02T14:19:13Z</time>
      </trkpt>
      <trkpt lat="44.31527" lon="5.89028">
        <ele>586</ele>
        <time>2019-04-02T14:19:14Z</time>
      </trkpt>
      <trkpt lat="44.31529" lon="5.89023">
        <ele>586</ele>
        <time>2019-04-02T14:19:15Z</time>
      </trkpt>
      <trkpt lat="44.31531" lon="5.89018">
        <ele>586</ele>
        <time>2019-04-02T14:19:16Z</time>
      </trkpt>
      <trkpt lat="44.31533" lon="5.89013">
        <ele>586</ele>
        <time>2019-04-02T14:19:17Z</time>
      </trkpt>
      <trkpt lat="44.31534" lon="5.89008">
        <ele>586</ele>
        <time>2019-04-02T14:19:18Z</time>
      </trkpt>
      <trkpt lat="44.31536" lon="5.89003">
        <ele>586</ele>
        <time>2019-04-02T14:19:19Z</time>
      </trkpt>
      <trkpt lat="44.31537" lon="5.88999">
        <ele>586</ele>
        <time>2019-04-02T14:19:20Z</time>
      </trkpt>
      <trkpt lat="44.31539" lon="5.88994">
        <ele>586</ele>
        <time>2019-04-02T14:19:21Z</time>
      </trkpt>
      <trkpt lat="44.3154" lon="5.88989">
        <ele>586</ele>
        <time>2019-04-02T14:19:22Z</time>
      </trkpt>
      <trkpt lat="44.31542" lon="5.88984">
        <ele>586</ele>
        <time>2019-04-02T14:19:23Z</time>
      </trkpt>
      <trkpt lat="44.31543" lon="5.88979">
        <ele>586</ele>
        <time>2019-04-02T14:19:24Z</time>
      </trkpt>
      <trkpt lat="44.31545" lon="5.88975">
        <ele>586</ele>
        <time>2019-04-02T14:19:25Z</time>
      </trkpt>
      <trkpt lat="44.31546" lon="5.8897">
        <ele>586</ele>
        <time>2019-04-02T14:19:26Z</time>
      </trkpt>
      <trkpt lat="44.31548" lon="5.88966">
        <ele>587</ele>
        <time>2019-04-02T14:19:27Z</time>
      </trkpt>
      <trkpt lat="44.3155" lon="5.88961">
        <ele>587</ele>
        <time>2019-04-02T14:19:28Z</time>
      </trkpt>
      <trkpt lat="44.31552" lon="5.88957">
        <ele>587</ele>
        <time>2019-04-02T14:19:29Z</time>
      </trkpt>
      <trkpt lat="44.31554" lon="5.88952">
        <ele>587</ele>
        <time>2019-04-02T14:19:30Z</time>
      </trkpt>
      <trkpt lat="44.31555" lon="5.88948">
        <ele>587</ele>
        <time>2019-04-02T14:19:31Z</time>
      </trkpt>
      <trkpt lat="44.31557" lon="5.88943">
        <ele>587</ele>
        <time>2019-04-02T14:19:32Z</time>
      </trkpt>
      <trkpt lat="44.31559" lon="5.88939">
        <ele>587</ele>
        <time>2019-04-02T14:19:33Z</time>
      </trkpt>
      <trkpt lat="44.3156" lon="5.88935">
        <ele>587</ele>
        <time>2019-04-02T14:19:34Z</time>
      </trkpt>
      <trkpt lat="44.31562" lon="5.88931">
        <ele>587</ele>
        <time>2019-04-02T14:19:35Z</time>
      </trkpt>
      <trkpt lat="44.31563" lon="5.88926">
        <ele>587</ele>
        <time>2019-04-02T14:19:36Z</time>
      </trkpt>
      <trkpt lat="44.31565" lon="5.88922">
        <ele>587</ele>
        <time>2019-04-02T14:19:37Z</time>
      </trkpt>
      <trkpt lat="44.31566" lon="5.88917">
        <ele>587</ele>
        <time>2019-04-02T14:19:38Z</time>
      </trkpt>
      <trkpt lat="44.31568" lon="5.88913">
        <ele>587</ele>
        <time>2019-04-02T14:19:39Z</time>
      </trkpt>
      <trkpt lat="44.3157" lon="5.88908">
        <ele>587</ele>
        <time>2019-04-02T14:19:40Z</time>
      </trkpt>
      <trkpt lat="44.31572" lon="5.88904">
        <ele>588</ele>
        <time>2019-04-02T14:19:41Z</time>
      </trkpt>
      <trkpt lat="44.31573" lon="5.889">
        <ele>588</ele>
        <time>2019-04-02T14:19:42Z</time>
      </trkpt>
      <trkpt lat="44.31575" lon="5.88896">
        <ele>588</ele>
        <time>2019-04-02T14:19:43Z</time>
      </trkpt>
      <trkpt lat="44.31577" lon="5.88892">
        <ele>588</ele>
        <time>2019-04-02T14:19:44Z</time>
      </trkpt>
      <trkpt lat="44.31579" lon="5.88888">
        <ele>589</ele>
        <time>2019-04-02T14:19:45Z</time>
      </trkpt>
      <trkpt lat="44.31581" lon="5.88883">
        <ele>589</ele>
        <time>2019-04-02T14:19:46Z</time>
      </trkpt>
      <trkpt lat="44.31582" lon="5.88879">
        <ele>589</ele>
        <time>2019-04-02T14:19:47Z</time>
      </trkpt>
      <trkpt lat="44.31584" lon="5.88874">
        <ele>589</ele>
        <time>2019-04-02T14:19:48Z</time>
      </trkpt>
      <trkpt lat="44.31585" lon="5.8887">
        <ele>590</ele>
        <time>2019-04-02T14:19:49Z</time>
      </trkpt>
      <trkpt lat="44.31587" lon="5.88866">
        <ele>590</ele>
        <time>2019-04-02T14:19:50Z</time>
      </trkpt>
      <trkpt lat="44.31589" lon="5.88862">
        <ele>590</ele>
        <time>2019-04-02T14:19:51Z</time>
      </trkpt>
      <trkpt lat="44.3159" lon="5.88857">
        <ele>591</ele>
        <time>2019-04-02T14:19:52Z</time>
      </trkpt>
      <trkpt lat="44.31592" lon="5.88853">
        <ele>591</ele>
        <time>2019-04-02T14:19:53Z</time>
      </trkpt>
      <trkpt lat="44.31593" lon="5.88849">
        <ele>591</ele>
        <time>2019-04-02T14:19:54Z</time>
      </trkpt>
      <trkpt lat="44.31595" lon="5.88845">
        <ele>592</ele>
        <time>2019-04-02T14:19:55Z</time>
      </trkpt>
      <trkpt lat="44.31597" lon="5.88841">
        <ele>592</ele>
        <time>2019-04-02T14:19:56Z</time>
      </trkpt>
      <trkpt lat="44.31599" lon="5.88837">
        <ele>592</ele>
        <time>2019-04-02T14:19:57Z</time>
      </trkpt>
      <trkpt lat="44.316" lon="5.88833">
        <ele>593</ele>
        <time>2019-04-02T14:19:58Z</time>
      </trkpt>
      <trkpt lat="44.31602" lon="5.88829">
        <ele>593</ele>
        <time>2019-04-02T14:19:59Z</time>
      </trkpt>
      <trkpt lat="44.31603" lon="5.88825">
        <ele>593</ele>
        <time>2019-04-02T14:20:00Z</time>
      </trkpt>
      <trkpt lat="44.31604" lon="5.88821">
        <ele>594</ele>
        <time>2019-04-02T14:20:01Z</time>
      </trkpt>
      <trkpt lat="44.31606" lon="5.88817">
        <ele>594</ele>
        <time>2019-04-02T14:20:02Z</time>
      </trkpt>
      <trkpt lat="44.31607" lon="5.88814">
        <ele>595</ele>
        <time>2019-04-02T14:20:03Z</time>
      </trkpt>
      <trkpt lat="44.31609" lon="5.8881">
        <ele>595</ele>
        <time>2019-04-02T14:20:04Z</time>
      </trkpt>
      <trkpt lat="44.3161" lon="5.88806">
        <ele>595</ele>
        <time>2019-04-02T14:20:05Z</time>
      </trkpt>
      <trkpt lat="44.31612" lon="5.88802">
        <ele>595</ele>
        <time>2019-04-02T14:20:06Z</time>
      </trkpt>
      <trkpt lat="44.31614" lon="5.88799">
        <ele>596</ele>
        <time>2019-04-02T14:20:07Z</time>
      </trkpt>
      <trkpt lat="44.31615" lon="5.88795">
        <ele>596</ele>
        <time>2019-04-02T14:20:08Z</time>
      </trkpt>
      <trkpt lat="44.31616" lon="5.88791">
        <ele>596</ele>
        <time>2019-04-02T14:20:09Z</time>
      </trkpt>
      <trkpt lat="44.31618" lon="5.88787">
        <ele>596</ele>
        <time>2019-04-02T14:20:10Z</time>
      </trkpt>
      <trkpt lat="44.31619" lon="5.88783">
        <ele>596</ele>
        <time>2019-04-02T14:20:11Z</time>
      </trkpt>
      <trkpt lat="44.3162" lon="5.88779">
        <ele>597</ele>
        <time>2019-04-02T14:20:12Z</time>
      </trkpt>
      <trkpt lat="44.31622" lon="5.88775">
        <ele>597</ele>
        <time>2019-04-02T14:20:13Z</time>
      </trkpt>
      <trkpt lat="44.31623" lon="5.88771">
        <ele>597</ele>
        <time>2019-04-02T14:20:14Z</time>
      </trkpt>
      <trkpt lat="44.31624" lon="5.88767">
        <ele>597</ele>
        <time>2019-04-02T14:20:15Z</time>
      </trkpt>
      <trkpt lat="44.31626" lon="5.88764">
        <ele>597</ele>
        <time>2019-04-02T14:20:16Z</time>
      </trkpt>
      <trkpt lat="44.31627" lon="5.8876">
        <ele>597</ele>
        <time>2019-04-02T14:20:17Z</time>
      </trkpt>
      <trkpt lat="44.31628" lon="5.88756">
        <ele>598</ele>
        <time>2019-04-02T14:20:18Z</time>
      </trkpt>
      <trkpt lat="44.3163" lon="5.88752">
        <ele>598</ele>
        <time>2019-04-02T14:20:19Z</time>
      </trkpt>
      <trkpt lat="44.31631" lon="5.88748">
        <ele>598</ele>
        <time>2019-04-02T14:20:20Z</time>
      </trkpt>
      <trkpt lat="44.31633" lon="5.88744">
        <ele>598</ele>
        <time>2019-04-02T14:20:21Z</time>
      </trkpt>
      <trkpt lat="44.31634" lon="5.8874">
        <ele>598</ele>
        <time>2019-04-02T14:20:22Z</time>
      </trkpt>
      <trkpt lat="44.31636" lon="5.88736">
        <ele>598</ele>
        <time>2019-04-02T14:20:23Z</time>
      </trkpt>
      <trkpt lat="44.31637" lon="5.88731">
        <ele>598</ele>
        <time>2019-04-02T14:20:24Z</time>
      </trkpt>
      <trkpt lat="44.31638" lon="5.88727">
        <ele>598</ele>
        <time>2019-04-02T14:20:25Z</time>
      </trkpt>
      <trkpt lat="44.31639" lon="5.88722">
        <ele>598</ele>
        <time>2019-04-02T14:20:26Z</time>
      </trkpt>
      <trkpt lat="44.31641" lon="5.88717">
        <ele>599</ele>
        <time>2019-04-02T14:20:27Z</time>
      </trkpt>
      <trkpt lat="44.31642" lon="5.88712">
        <ele>599</ele>
        <time>2019-04-02T14:20:28Z</time>
      </trkpt>
      <trkpt lat="44.31643" lon="5.88707">
        <ele>599</ele>
        <time>2019-04-02T14:20:29Z</time>
      </trkpt>
      <trkpt lat="44.31645" lon="5.88702">
        <ele>599</ele>
        <time>2019-04-02T14:20:30Z</time>
      </trkpt>
      <trkpt lat="44.31646" lon="5.88697">
        <ele>599</ele>
        <time>2019-04-02T14:20:31Z</time>
      </trkpt>
      <trkpt lat="44.31648" lon="5.88692">
        <ele>599</ele>
        <time>2019-04-02T14:20:32Z</time>
      </trkpt>
      <trkpt lat="44.31649" lon="5.88687">
        <ele>599</ele>
        <time>2019-04-02T14:20:33Z</time>
      </trkpt>
      <trkpt lat="44.31651" lon="5.88682">
        <ele>599</ele>
        <time>2019-04-02T14:20:34Z</time>
      </trkpt>
      <trkpt lat="44.31652" lon="5.88678">
        <ele>599</ele>
        <time>2019-04-02T14:20:35Z</time>
      </trkpt>
      <trkpt lat="44.31653" lon="5.88673">
        <ele>600</ele>
        <time>2019-04-02T14:20:36Z</time>
      </trkpt>
      <trkpt lat="44.31654" lon="5.88668">
        <ele>600</ele>
        <time>2019-04-02T14:20:37Z</time>
      </trkpt>
      <trkpt lat="44.31655" lon="5.88663">
        <ele>600</ele>
        <time>2019-04-02T14:20:38Z</time>
      </trkpt>
      <trkpt lat="44.31656" lon="5.88659">
        <ele>600</ele>
        <time>2019-04-02T14:20:39Z</time>
      </trkpt>
      <trkpt lat="44.31657" lon="5.88654">
        <ele>601</ele>
        <time>2019-04-02T14:20:40Z</time>
      </trkpt>
      <trkpt lat="44.31658" lon="5.8865">
        <ele>601</ele>
        <time>2019-04-02T14:20:41Z</time>
      </trkpt>
      <trkpt lat="44.3166" lon="5.88645">
        <ele>601</ele>
        <time>2019-04-02T14:20:42Z</time>
      </trkpt>
      <trkpt lat="44.31661" lon="5.8864">
        <ele>601</ele>
        <time>2019-04-02T14:20:43Z</time>
      </trkpt>
      <trkpt lat="44.31663" lon="5.88636">
        <ele>602</ele>
        <time>2019-04-02T14:20:44Z</time>
      </trkpt>
      <trkpt lat="44.31664" lon="5.88632">
        <ele>602</ele>
        <time>2019-04-02T14:20:45Z</time>
      </trkpt>
      <trkpt lat="44.31666" lon="5.88628">
        <ele>602</ele>
        <time>2019-04-02T14:20:46Z</time>
      </trkpt>
      <trkpt lat="44.31668" lon="5.88625">
        <ele>602</ele>
        <time>2019-04-02T14:20:47Z</time>
      </trkpt>
      <trkpt lat="44.31671" lon="5.88622">
        <ele>602</ele>
        <time>2019-04-02T14:20:48Z</time>
      </trkpt>
      <trkpt lat="44.31673" lon="5.88619">
        <ele>602</ele>
        <time>2019-04-02T14:20:49Z</time>
      </trkpt>
      <trkpt lat="44.31676" lon="5.88617">
        <ele>602</ele>
        <time>2019-04-02T14:20:50Z</time>
      </trkpt>
      <trkpt lat="44.31678" lon="5.88616">
        <ele>602</ele>
        <time>2019-04-02T14:20:51Z</time>
      </trkpt>
      <trkpt lat="44.31681" lon="5.88615">
        <ele>602</ele>
        <time>2019-04-02T14:20:52Z</time>
      </trkpt>
      <trkpt lat="44.31683" lon="5.88615">
        <ele>603</ele>
        <time>2019-04-02T14:20:53Z</time>
      </trkpt>
      <trkpt lat="44.31685" lon="5.88614">
        <ele>603</ele>
        <time>2019-04-02T14:20:54Z</time>
      </trkpt>
      <trkpt lat="44.31687" lon="5.88614">
        <ele>603</ele>
        <time>2019-04-02T14:20:55Z</time>
      </trkpt>
      <trkpt lat="44.31689" lon="5.88615">
        <ele>603</ele>
        <time>2019-04-02T14:20:56Z</time>
      </trkpt>
      <trkpt lat="44.31692" lon="5.88616">
        <ele>604</ele>
        <time>2019-04-02T14:20:57Z</time>
      </trkpt>
      <trkpt lat="44.31694" lon="5.88617">
        <ele>604</ele>
        <time>2019-04-02T14:20:58Z</time>
      </trkpt>
      <trkpt lat="44.31696" lon="5.88617">
        <ele>604</ele>
        <time>2019-04-02T14:20:59Z</time>
      </trkpt>
      <trkpt lat="44.31699" lon="5.88618">
        <ele>605</ele>
        <time>2019-04-02T14:21:00Z</time>
      </trkpt>
      <trkpt lat="44.31701" lon="5.88619">
        <ele>605</ele>
        <time>2019-04-02T14:21:01Z</time>
      </trkpt>
      <trkpt lat="44.31703" lon="5.8862">
        <ele>605</ele>
        <time>2019-04-02T14:21:02Z</time>
      </trkpt>
      <trkpt lat="44.31705" lon="5.88621">
        <ele>606</ele>
        <time>2019-04-02T14:21:03Z</time>
      </trkpt>
      <trkpt lat="44.31708" lon="5.88621">
        <ele>606</ele>
        <time>2019-04-02T14:21:04Z</time>
      </trkpt>
      <trkpt lat="44.3171" lon="5.88622">
        <ele>606</ele>
        <time>2019-04-02T14:21:05Z</time>
      </trkpt>
      <trkpt lat="44.31712" lon="5.88623">
        <ele>607</ele>
        <time>2019-04-02T14:21:06Z</time>
      </trkpt>
      <trkpt lat="44.31715" lon="5.88624">
        <ele>607</ele>
        <time>2019-04-02T14:21:07Z</time>
      </trkpt>
      <trkpt lat="44.31717" lon="5.88624">
        <ele>608</ele>
        <time>2019-04-02T14:21:08Z</time>
      </trkpt>
      <trkpt lat="44.31719" lon="5.88625">
        <ele>608</ele>
        <time>2019-04-02T14:21:09Z</time>
      </trkpt>
      <trkpt lat="44.31721" lon="5.88626">
        <ele>608</ele>
        <time>2019-04-02T14:21:10Z</time>
      </trkpt>
      <trkpt lat="44.31723" lon="5.88627">
        <ele>609</ele>
        <time>2019-04-02T14:21:11Z</time>
      </trkpt>
      <trkpt lat="44.31725" lon="5.88627">
        <ele>609</ele>
        <time>2019-04-02T14:21:12Z</time>
      </trkpt>
      <trkpt lat="44.31728" lon="5.88628">
        <ele>609</ele>
        <time>2019-04-02T14:21:13Z</time>
      </trkpt>
      <trkpt lat="44.3173" lon="5.88629">
        <ele>610</ele>
        <time>2019-04-02T14:21:14Z</time>
      </trkpt>
      <trkpt lat="44.31732" lon="5.8863">
        <ele>610</ele>
        <time>2019-04-02T14:21:15Z</time>
      </trkpt>
      <trkpt lat="44.31734" lon="5.8863">
        <ele>610</ele>
        <time>2019-04-02T14:21:16Z</time>
      </trkpt>
      <trkpt lat="44.31736" lon="5.8863">
        <ele>611</ele>
        <time>2019-04-02T14:21:17Z</time>
      </trkpt>
      <trkpt lat="44.31739" lon="5.88631">
        <ele>611</ele>
        <time>2019-04-02T14:21:18Z</time>
      </trkpt>
      <trkpt lat="44.31741" lon="5.88631">
        <ele>611</ele>
        <time>2019-04-02T14:21:19Z</time>
      </trkpt>
      <trkpt lat="44.31744" lon="5.88631">
        <ele>612</ele>
        <time>2019-04-02T14:21:20Z</time>
      </trkpt>
      <trkpt lat="44.31746" lon="5.88631">
        <ele>612</ele>
        <time>2019-04-02T14:21:21Z</time>
      </trkpt>
      <trkpt lat="44.31749" lon="5.8863">
        <ele>612</ele>
        <time>2019-04-02T14:21:22Z</time>
      </trkpt>
      <trkpt lat="44.31751" lon="5.8863">
        <ele>613</ele>
        <time>2019-04-02T14:21:23Z</time>
      </trkpt>
      <trkpt lat="44.31754" lon="5.88629">
        <ele>613</ele>
        <time>2019-04-02T14:21:24Z</time>
      </trkpt>
      <trkpt lat="44.31756" lon="5.88628">
        <ele>613</ele>
        <time>2019-04-02T14:21:25Z</time>
      </trkpt>
      <trkpt lat="44.31758" lon="5.88627">
        <ele>613</ele>
        <time>2019-04-02T14:21:26Z</time>
      </trkpt>
      <trkpt lat="44.31761" lon="5.88627">
        <ele>614</ele>
        <time>2019-04-02T14:21:27Z</time>
      </trkpt>
      <trkpt lat="44.31763" lon="5.88626">
        <ele>614</ele>
        <time>2019-04-02T14:21:28Z</time>
      </trkpt>
      <trkpt lat="44.31766" lon="5.88625">
        <ele>614</ele>
        <time>2019-04-02T14:21:29Z</time>
      </trkpt>
      <trkpt lat="44.31768" lon="5.88624">
        <ele>614</ele>
        <time>2019-04-02T14:21:30Z</time>
      </trkpt>
      <trkpt lat="44.31771" lon="5.88624">
        <ele>615</ele>
        <time>2019-04-02T14:21:31Z</time>
      </trkpt>
      <trkpt lat="44.31773" lon="5.88623">
        <ele>615</ele>
        <time>2019-04-02T14:21:32Z</time>
      </trkpt>
      <trkpt lat="44.31776" lon="5.88623">
        <ele>615</ele>
        <time>2019-04-02T14:21:33Z</time>
      </trkpt>
      <trkpt lat="44.31778" lon="5.88622">
        <ele>615</ele>
        <time>2019-04-02T14:21:34Z</time>
      </trkpt>
      <trkpt lat="44.31781" lon="5.88621">
        <ele>615</ele>
        <time>2019-04-02T14:21:35Z</time>
      </trkpt>
      <trkpt lat="44.31783" lon="5.8862">
        <ele>616</ele>
        <time>2019-04-02T14:21:36Z</time>
      </trkpt>
      <trkpt lat="44.31786" lon="5.88619">
        <ele>616</ele>
        <time>2019-04-02T14:21:37Z</time>
      </trkpt>
      <trkpt lat="44.31788" lon="5.88618">
        <ele>616</ele>
        <time>2019-04-02T14:21:38Z</time>
      </trkpt>
      <trkpt lat="44.31791" lon="5.88617">
        <ele>616</ele>
        <time>2019-04-02T14:21:39Z</time>
      </trkpt>
      <trkpt lat="44.31793" lon="5.88616">
        <ele>616</ele>
        <time>2019-04-02T14:21:40Z</time>
      </trkpt>
      <trkpt lat="44.31796" lon="5.88615">
        <ele>616</ele>
        <time>2019-04-02T14:21:41Z</time>
      </trkpt>
      <trkpt lat="44.31799" lon="5.88614">
        <ele>616</ele>
        <time>2019-04-02T14:21:42Z</time>
      </trkpt>
      <trkpt lat="44.31801" lon="5.88613">
        <ele>616</ele>
        <time>2019-04-02T14:21:43Z</time>
      </trkpt>
      <trkpt lat="44.31804" lon="5.88612">
        <ele>617</ele>
        <time>2019-04-02T14:21:44Z</time>
      </trkpt>
      <trkpt lat="44.31807" lon="5.88611">
        <ele>617</ele>
        <time>2019-04-02T14:21:45Z</time>
      </trkpt>
      <trkpt lat="44.31809" lon="5.88611">
        <ele>617</ele>
        <time>2019-04-02T14:21:46Z</time>
      </trkpt>
      <trkpt lat="44.31812" lon="5.8861">
        <ele>617</ele>
        <time>2019-04-02T14:21:47Z</time>
      </trkpt>
      <trkpt lat="44.31815" lon="5.88609">
        <ele>617</ele>
        <time>2019-04-02T14:21:48Z</time>
      </trkpt>
      <trkpt lat="44.31817" lon="5.88609">
        <ele>618</ele>
        <time>2019-04-02T14:21:49Z</time>
      </trkpt>
      <trkpt lat="44.3182" lon="5.88608">
        <ele>618</ele>
        <time>2019-04-02T14:21:50Z</time>
      </trkpt>
      <trkpt lat="44.31823" lon="5.88607">
        <ele>618</ele>
        <time>2019-04-02T14:21:51Z</time>
      </trkpt>
      <trkpt lat="44.31825" lon="5.88606">
        <ele>618</ele>
        <time>2019-04-02T14:21:52Z</time>
      </trkpt>
      <trkpt lat="44.31828" lon="5.88605">
        <ele>619</ele>
        <time>2019-04-02T14:21:53Z</time>
      </trkpt>
      <trkpt lat="44.3183" lon="5.88604">
        <ele>619</ele>
        <time>2019-04-02T14:21:54Z</time>
      </trkpt>
      <trkpt lat="44.31833" lon="5.88603">
        <ele>619</ele>
        <time>2019-04-02T14:21:55Z</time>
      </trkpt>
      <trkpt lat="44.31836" lon="5.88602">
        <ele>619</ele>
        <time>2019-04-02T14:21:56Z</time>
      </trkpt>
      <trkpt lat="44.31838" lon="5.88601">
        <ele>620</ele>
        <time>2019-04-02T14:21:57Z</time>
      </trkpt>
      <trkpt lat="44.31841" lon="5.886">
        <ele>620</ele>
        <time>2019-04-02T14:21:58Z</time>
      </trkpt>
      <trkpt lat="44.31843" lon="5.88599">
        <ele>620</ele>
        <time>2019-04-02T14:21:59Z</time>
      </trkpt>
      <trkpt lat="44.31846" lon="5.88597">
        <ele>620</ele>
        <time>2019-04-02T14:22:00Z</time>
      </trkpt>
      <trkpt lat="44.31848" lon="5.88595">
        <ele>620</ele>
        <time>2019-04-02T14:22:01Z</time>
      </trkpt>
      <trkpt lat="44.31851" lon="5.88594">
        <ele>620</ele>
        <time>2019-04-02T14:22:02Z</time>
      </trkpt>
      <trkpt lat="44.31854" lon="5.88592">
        <ele>620</ele>
        <time>2019-04-02T14:22:03Z</time>
      </trkpt>
      <trkpt lat="44.31856" lon="5.8859">
        <ele>621</ele>
        <time>2019-04-02T14:22:04Z</time>
      </trkpt>
      <trkpt lat="44.31859" lon="5.88588">
        <ele>621</ele>
        <time>2019-04-02T14:22:05Z</time>
      </trkpt>
      <trkpt lat="44.31862" lon="5.88586">
        <ele>621</ele>
        <time>2019-04-02T14:22:06Z</time>
      </trkpt>
      <trkpt lat="44.31865" lon="5.88584">
        <ele>621</ele>
        <time>2019-04-02T14:22:07Z</time>
      </trkpt>
      <trkpt lat="44.31867" lon="5.88582">
        <ele>621</ele>
        <time>2019-04-02T14:22:08Z</time>
      </trkpt>
      <trkpt lat="44.3187" lon="5.8858">
        <ele>621</ele>
        <time>2019-04-02T14:22:09Z</time>
      </trkpt>
      <trkpt lat="44.31872" lon="5.88578">
        <ele>622</ele>
        <time>2019-04-02T14:22:10Z</time>
      </trkpt>
      <trkpt lat="44.31875" lon="5.88575">
        <ele>622</ele>
        <time>2019-04-02T14:22:11Z</time>
      </trkpt>
      <trkpt lat="44.31878" lon="5.88573">
        <ele>622</ele>
        <time>2019-04-02T14:22:12Z</time>
      </trkpt>
      <trkpt lat="44.3188" lon="5.88571">
        <ele>622</ele>
        <time>2019-04-02T14:22:13Z</time>
      </trkpt>
      <trkpt lat="44.31883" lon="5.88569">
        <ele>623</ele>
        <time>2019-04-02T14:22:14Z</time>
      </trkpt>
      <trkpt lat="44.31886" lon="5.88567">
        <ele>623</ele>
        <time>2019-04-02T14:22:15Z</time>
      </trkpt>
      <trkpt lat="44.31889" lon="5.88565">
        <ele>623</ele>
        <time>2019-04-02T14:22:16Z</time>
      </trkpt>
      <trkpt lat="44.31892" lon="5.88564">
        <ele>623</ele>
        <time>2019-04-02T14:22:17Z</time>
      </trkpt>
      <trkpt lat="44.31895" lon="5.88562">
        <ele>624</ele>
        <time>2019-04-02T14:22:18Z</time>
      </trkpt>
      <trkpt lat="44.31898" lon="5.88561">
        <ele>624</ele>
        <time>2019-04-02T14:22:19Z</time>
      </trkpt>
      <trkpt lat="44.31901" lon="5.8856">
        <ele>624</ele>
        <time>2019-04-02T14:22:20Z</time>
      </trkpt>
      <trkpt lat="44.31904" lon="5.88559">
        <ele>624</ele>
        <time>2019-04-02T14:22:21Z</time>
      </trkpt>
      <trkpt lat="44.31907" lon="5.88558">
        <ele>624</ele>
        <time>2019-04-02T14:22:22Z</time>
      </trkpt>
      <trkpt lat="44.3191" lon="5.88557">
        <ele>624</ele>
        <time>2019-04-02T14:22:23Z</time>
      </trkpt>
      <trkpt lat="44.31913" lon="5.88556">
        <ele>624</ele>
        <time>2019-04-02T14:22:24Z</time>
      </trkpt>
      <trkpt lat="44.31916" lon="5.88555">
        <ele>624</ele>
        <time>2019-04-02T14:22:25Z</time>
      </trkpt>
      <trkpt lat="44.31919" lon="5.88554">
        <ele>624</ele>
        <time>2019-04-02T14:22:26Z</time>
      </trkpt>
      <trkpt lat="44.31922" lon="5.88553">
        <ele>624</ele>
        <time>2019-04-02T14:22:27Z</time>
      </trkpt>
      <trkpt lat="44.31925" lon="5.88552">
        <ele>624</ele>
        <time>2019-04-02T14:22:28Z</time>
      </trkpt>
      <trkpt lat="44.31928" lon="5.88551">
        <ele>625</ele>
        <time>2019-04-02T14:22:29Z</time>
      </trkpt>
      <trkpt lat="44.31932" lon="5.88551">
        <ele>625</ele>
        <time>2019-04-02T14:22:30Z</time>
      </trkpt>
      <trkpt lat="44.31935" lon="5.8855">
        <ele>626</ele>
        <time>2019-04-02T14:22:31Z</time>
      </trkpt>
      <trkpt lat="44.31938" lon="5.8855">
        <ele>626</ele>
        <time>2019-04-02T14:22:32Z</time>
      </trkpt>
      <trkpt lat="44.31941" lon="5.88549">
        <ele>626</ele>
        <time>2019-04-02T14:22:33Z</time>
      </trkpt>
      <trkpt lat="44.31944" lon="5.88549">
        <ele>626</ele>
        <time>2019-04-02T14:22:34Z</time>
      </trkpt>
      <trkpt lat="44.31947" lon="5.88549">
        <ele>626</ele>
        <time>2019-04-02T14:22:35Z</time>
      </trkpt>
      <trkpt lat="44.31951" lon="5.88549">
        <ele>626</ele>
        <time>2019-04-02T14:22:36Z</time>
      </trkpt>
      <trkpt lat="44.31954" lon="5.88549">
        <ele>626</ele>
        <time>2019-04-02T14:22:37Z</time>
      </trkpt>
      <trkpt lat="44.31957" lon="5.88549">
        <ele>626</ele>
        <time>2019-04-02T14:22:38Z</time>
      </trkpt>
      <trkpt lat="44.31961" lon="5.88549">
        <ele>626</ele>
        <time>2019-04-02T14:22:39Z</time>
      </trkpt>
      <trkpt lat="44.31964" lon="5.88549">
        <ele>626</ele>
        <time>2019-04-02T14:22:40Z</time>
      </trkpt>
      <trkpt lat="44.31968" lon="5.88549">
        <ele>626</ele>
        <time>2019-04-02T14:22:41Z</time>
      </trkpt>
      <trkpt lat="44.31971" lon="5.8855">
        <ele>626</ele>
        <time>2019-04-02T14:22:42Z</time>
      </trkpt>
      <trkpt lat="44.31975" lon="5.8855">
        <ele>626</ele>
        <time>2019-04-02T14:22:43Z</time>
      </trkpt>
      <trkpt lat="44.31978" lon="5.88551">
        <ele>626</ele>
        <time>2019-04-02T14:22:44Z</time>
      </trkpt>
      <trkpt lat="44.31982" lon="5.88551">
        <ele>626</ele>
        <time>2019-04-02T14:22:45Z</time>
      </trkpt>
      <trkpt lat="44.31985" lon="5.88552">
        <ele>626</ele>
        <time>2019-04-02T14:22:46Z</time>
      </trkpt>
      <trkpt lat="44.31988" lon="5.88553">
        <ele>626</ele>
        <time>2019-04-02T14:22:47Z</time>
      </trkpt>
      <trkpt lat="44.31992" lon="5.88555">
        <ele>626</ele>
        <time>2019-04-02T14:22:48Z</time>
      </trkpt>
      <trkpt lat="44.31995" lon="5.88556">
        <ele>626</ele>
        <time>2019-04-02T14:22:49Z</time>
      </trkpt>
      <trkpt lat="44.31998" lon="5.88557">
        <ele>627</ele>
        <time>2019-04-02T14:22:50Z</time>
      </trkpt>
      <trkpt lat="44.32002" lon="5.88558">
        <ele>627</ele>
        <time>2019-04-02T14:22:51Z</time>
      </trkpt>
      <trkpt lat="44.32005" lon="5.88559">
        <ele>627</ele>
        <time>2019-04-02T14:22:52Z</time>
      </trkpt>
      <trkpt lat="44.32008" lon="5.8856">
        <ele>627</ele>
        <time>2019-04-02T14:22:53Z</time>
      </trkpt>
      <trkpt lat="44.32012" lon="5.88561">
        <ele>627</ele>
        <time>2019-04-02T14:22:54Z</time>
      </trkpt>
      <trkpt lat="44.32015" lon="5.88561">
        <ele>627</ele>
        <time>2019-04-02T14:22:55Z</time>
      </trkpt>
      <trkpt lat="44.32018" lon="5.88561">
        <ele>627</ele>
        <time>2019-04-02T14:22:56Z</time>
      </trkpt>
      <trkpt lat="44.32022" lon="5.88561">
        <ele>628</ele>
        <time>2019-04-02T14:22:57Z</time>
      </trkpt>
      <trkpt lat="44.32025" lon="5.88561">
        <ele>628</ele>
        <time>2019-04-02T14:22:58Z</time>
      </trkpt>
      <trkpt lat="44.32028" lon="5.8856">
        <ele>628</ele>
        <time>2019-04-02T14:22:59Z</time>
      </trkpt>
      <trkpt lat="44.32032" lon="5.88559">
        <ele>628</ele>
        <time>2019-04-02T14:23:00Z</time>
      </trkpt>
      <trkpt lat="44.32035" lon="5.88558">
        <ele>629</ele>
        <time>2019-04-02T14:23:01Z</time>
      </trkpt>
      <trkpt lat="44.32039" lon="5.88557">
        <ele>629</ele>
        <time>2019-04-02T14:23:02Z</time>
      </trkpt>
      <trkpt lat="44.32042" lon="5.88555">
        <ele>630</ele>
        <time>2019-04-02T14:23:03Z</time>
      </trkpt>
      <trkpt lat="44.32046" lon="5.88553">
        <ele>630</ele>
        <time>2019-04-02T14:23:04Z</time>
      </trkpt>
      <trkpt lat="44.32049" lon="5.88551">
        <ele>630</ele>
        <time>2019-04-02T14:23:05Z</time>
      </trkpt>
      <trkpt lat="44.32052" lon="5.88549">
        <ele>631</ele>
        <time>2019-04-02T14:23:06Z</time>
      </trkpt>
      <trkpt lat="44.32056" lon="5.88548">
        <ele>631</ele>
        <time>2019-04-02T14:23:07Z</time>
      </trkpt>
      <trkpt lat="44.32059" lon="5.88546">
        <ele>631</ele>
        <time>2019-04-02T14:23:08Z</time>
      </trkpt>
      <trkpt lat="44.32063" lon="5.88544">
        <ele>631</ele>
        <time>2019-04-02T14:23:09Z</time>
      </trkpt>
      <trkpt lat="44.32066" lon="5.88542">
        <ele>631</ele>
        <time>2019-04-02T14:23:10Z</time>
      </trkpt>
      <trkpt lat="44.32069" lon="5.8854">
        <ele>632</ele>
        <time>2019-04-02T14:23:11Z</time>
      </trkpt>
      <trkpt lat="44.32073" lon="5.88537">
        <ele>632</ele>
        <time>2019-04-02T14:23:12Z</time>
      </trkpt>
      <trkpt lat="44.32076" lon="5.88535">
        <ele>632</ele>
        <time>2019-04-02T14:23:13Z</time>
      </trkpt>
      <trkpt lat="44.3208" lon="5.88533">
        <ele>632</ele>
        <time>2019-04-02T14:23:14Z</time>
      </trkpt>
      <trkpt lat="44.32084" lon="5.8853">
        <ele>633</ele>
        <time>2019-04-02T14:23:15Z</time>
      </trkpt>
      <trkpt lat="44.32087" lon="5.88528">
        <ele>633</ele>
        <time>2019-04-02T14:23:16Z</time>
      </trkpt>
      <trkpt lat="44.32091" lon="5.88526">
        <ele>633</ele>
        <time>2019-04-02T14:23:17Z</time>
      </trkpt>
      <trkpt lat="44.32094" lon="5.88524">
        <ele>633</ele>
        <time>2019-04-02T14:23:18Z</time>
      </trkpt>
      <trkpt lat="44.32098" lon="5.88522">
        <ele>634</ele>
        <time>2019-04-02T14:23:19Z</time>
      </trkpt>
      <trkpt lat="44.32101" lon="5.8852">
        <ele>634</ele>
        <time>2019-04-02T14:23:20Z</time>
      </trkpt>
      <trkpt lat="44.32105" lon="5.88518">
        <ele>634</ele>
        <time>2019-04-02T14:23:21Z</time>
      </trkpt>
      <trkpt lat="44.32108" lon="5.88516">
        <ele>634</ele>
        <time>2019-04-02T14:23:22Z</time>
      </trkpt>
      <trkpt lat="44.32111" lon="5.88514">
        <ele>634</ele>
        <time>2019-04-02T14:23:23Z</time>
      </trkpt>
      <trkpt lat="44.32115" lon="5.88513">
        <ele>635</ele>
        <time>2019-04-02T14:23:24Z</time>
      </trkpt>
      <trkpt lat="44.32119" lon="5.88511">
        <ele>635</ele>
        <time>2019-04-02T14:23:25Z</time>
      </trkpt>
      <trkpt lat="44.32122" lon="5.88509">
        <ele>635</ele>
        <time>2019-04-02T14:23:26Z</time>
      </trkpt>
      <trkpt lat="44.32125" lon="5.88507">
        <ele>635</ele>
        <time>2019-04-02T14:23:27Z</time>
      </trkpt>
      <trkpt lat="44.32129" lon="5.88506">
        <ele>635</ele>
        <time>2019-04-02T14:23:28Z</time>
      </trkpt>
      <trkpt lat="44.32132" lon="5.88504">
        <ele>635</ele>
        <time>2019-04-02T14:23:29Z</time>
      </trkpt>
      <trkpt lat="44.32135" lon="5.88502">
        <ele>635</ele>
        <time>2019-04-02T14:23:30Z</time>
      </trkpt>
      <trkpt lat="44.32139" lon="5.885">
        <ele>635</ele>
        <time>2019-04-02T14:23:31Z</time>
      </trkpt>
      <trkpt lat="44.32142" lon="5.88498">
        <ele>635</ele>
        <time>2019-04-02T14:23:32Z</time>
      </trkpt>
      <trkpt lat="44.32145" lon="5.88496">
        <ele>635</ele>
        <time>2019-04-02T14:23:33Z</time>
      </trkpt>
      <trkpt lat="44.32148" lon="5.88494">
        <ele>635</ele>
        <time>2019-04-02T14:23:34Z</time>
      </trkpt>
      <trkpt lat="44.32152" lon="5.88491">
        <ele>635</ele>
        <time>2019-04-02T14:23:35Z</time>
      </trkpt>
      <trkpt lat="44.32155" lon="5.88489">
        <ele>635</ele>
        <time>2019-04-02T14:23:36Z</time>
      </trkpt>
      <trkpt lat="44.32158" lon="5.88486">
        <ele>635</ele>
        <time>2019-04-02T14:23:37Z</time>
      </trkpt>
      <trkpt lat="44.32161" lon="5.88484">
        <ele>635</ele>
        <time>2019-04-02T14:23:38Z</time>
      </trkpt>
      <trkpt lat="44.32164" lon="5.88481">
        <ele>636</ele>
        <time>2019-04-02T14:23:39Z</time>
      </trkpt>
      <trkpt lat="44.32167" lon="5.88478">
        <ele>636</ele>
        <time>2019-04-02T14:23:40Z</time>
      </trkpt>
      <trkpt lat="44.3217" lon="5.88475">
        <ele>636</ele>
        <time>2019-04-02T14:23:41Z</time>
      </trkpt>
      <trkpt lat="44.32173" lon="5.88472">
        <ele>636</ele>
        <time>2019-04-02T14:23:42Z</time>
      </trkpt>
      <trkpt lat="44.32176" lon="5.88469">
        <ele>636</ele>
        <time>2019-04-02T14:23:43Z</time>
      </trkpt>
      <trkpt lat="44.32179" lon="5.88466">
        <ele>636</ele>
        <time>2019-04-02T14:23:44Z</time>
      </trkpt>
      <trkpt lat="44.32182" lon="5.88463">
        <ele>636</ele>
        <time>2019-04-02T14:23:45Z</time>
      </trkpt>
      <trkpt lat="44.32185" lon="5.8846">
        <ele>636</ele>
        <time>2019-04-02T14:23:46Z</time>
      </trkpt>
      <trkpt lat="44.32188" lon="5.88457">
        <ele>636</ele>
        <time>2019-04-02T14:23:47Z</time>
      </trkpt>
      <trkpt lat="44.32191" lon="5.88454">
        <ele>636</ele>
        <time>2019-04-02T14:23:48Z</time>
      </trkpt>
      <trkpt lat="44.32194" lon="5.88451">
        <ele>636</ele>
        <time>2019-04-02T14:23:49Z</time>
      </trkpt>
      <trkpt lat="44.32197" lon="5.88448">
        <ele>636</ele>
        <time>2019-04-02T14:23:50Z</time>
      </trkpt>
      <trkpt lat="44.322" lon="5.88446">
        <ele>636</ele>
        <time>2019-04-02T14:23:51Z</time>
      </trkpt>
      <trkpt lat="44.32204" lon="5.88444">
        <ele>637</ele>
        <time>2019-04-02T14:23:52Z</time>
      </trkpt>
      <trkpt lat="44.32207" lon="5.88442">
        <ele>637</ele>
        <time>2019-04-02T14:23:53Z</time>
      </trkpt>
      <trkpt lat="44.32211" lon="5.8844">
        <ele>637</ele>
        <time>2019-04-02T14:23:54Z</time>
      </trkpt>
      <trkpt lat="44.32214" lon="5.88439">
        <ele>637</ele>
        <time>2019-04-02T14:23:55Z</time>
      </trkpt>
      <trkpt lat="44.32218" lon="5.88437">
        <ele>637</ele>
        <time>2019-04-02T14:23:56Z</time>
      </trkpt>
      <trkpt lat="44.32222" lon="5.88436">
        <ele>637</ele>
        <time>2019-04-02T14:23:57Z</time>
      </trkpt>
      <trkpt lat="44.32225" lon="5.88435">
        <ele>637</ele>
        <time>2019-04-02T14:23:58Z</time>
      </trkpt>
      <trkpt lat="44.32229" lon="5.88434">
        <ele>637</ele>
        <time>2019-04-02T14:23:59Z</time>
      </trkpt>
      <trkpt lat="44.32233" lon="5.88433">
        <ele>637</ele>
        <time>2019-04-02T14:24:00Z</time>
      </trkpt>
      <trkpt lat="44.32237" lon="5.88432">
        <ele>637</ele>
        <time>2019-04-02T14:24:01Z</time>
      </trkpt>
      <trkpt lat="44.32241" lon="5.88431">
        <ele>637</ele>
        <time>2019-04-02T14:24:02Z</time>
      </trkpt>
      <trkpt lat="44.32245" lon="5.8843">
        <ele>637</ele>
        <time>2019-04-02T14:24:03Z</time>
      </trkpt>
      <trkpt lat="44.32249" lon="5.8843">
        <ele>637</ele>
        <time>2019-04-02T14:24:04Z</time>
      </trkpt>
      <trkpt lat="44.32254" lon="5.88429">
        <ele>637</ele>
        <time>2019-04-02T14:24:05Z</time>
      </trkpt>
      <trkpt lat="44.32257" lon="5.88429">
        <ele>637</ele>
        <time>2019-04-02T14:24:06Z</time>
      </trkpt>
      <trkpt lat="44.32262" lon="5.88428">
        <ele>637</ele>
        <time>2019-04-02T14:24:07Z</time>
      </trkpt>
      <trkpt lat="44.32266" lon="5.88427">
        <ele>637</ele>
        <time>2019-04-02T14:24:08Z</time>
      </trkpt>
      <trkpt lat="44.3227" lon="5.88426">
        <ele>637</ele>
        <time>2019-04-02T14:24:09Z</time>
      </trkpt>
      <trkpt lat="44.32274" lon="5.88425">
        <ele>637</ele>
        <time>2019-04-02T14:24:10Z</time>
      </trkpt>
      <trkpt lat="44.32278" lon="5.88424">
        <ele>637</ele>
        <time>2019-04-02T14:24:11Z</time>
      </trkpt>
      <trkpt lat="44.32282" lon="5.88423">
        <ele>637</ele>
        <time>2019-04-02T14:24:12Z</time>
      </trkpt>
      <trkpt lat="44.32286" lon="5.88422">
        <ele>638</ele>
        <time>2019-04-02T14:24:13Z</time>
      </trkpt>
      <trkpt lat="44.3229" lon="5.88421">
        <ele>638</ele>
        <time>2019-04-02T14:24:14Z</time>
      </trkpt>
      <trkpt lat="44.32293" lon="5.8842">
        <ele>638</ele>
        <time>2019-04-02T14:24:15Z</time>
      </trkpt>
      <trkpt lat="44.32297" lon="5.88418">
        <ele>638</ele>
        <time>2019-04-02T14:24:16Z</time>
      </trkpt>
      <trkpt lat="44.323" lon="5.88416">
        <ele>638</ele>
        <time>2019-04-02T14:24:17Z</time>
      </trkpt>
      <trkpt lat="44.32304" lon="5.88414">
        <ele>638</ele>
        <time>2019-04-02T14:24:18Z</time>
      </trkpt>
      <trkpt lat="44.32308" lon="5.88412">
        <ele>638</ele>
        <time>2019-04-02T14:24:19Z</time>
      </trkpt>
      <trkpt lat="44.32311" lon="5.8841">
        <ele>638</ele>
        <time>2019-04-02T14:24:20Z</time>
      </trkpt>
      <trkpt lat="44.32314" lon="5.88407">
        <ele>638</ele>
        <time>2019-04-02T14:24:21Z</time>
      </trkpt>
      <trkpt lat="44.32317" lon="5.88403">
        <ele>639</ele>
        <time>2019-04-02T14:24:22Z</time>
      </trkpt>
      <trkpt lat="44.3232" lon="5.88399">
        <ele>639</ele>
        <time>2019-04-02T14:24:23Z</time>
      </trkpt>
      <trkpt lat="44.32323" lon="5.88395">
        <ele>639</ele>
        <time>2019-04-02T14:24:24Z</time>
      </trkpt>
      <trkpt lat="44.32325" lon="5.8839">
        <ele>639</ele>
        <time>2019-04-02T14:24:25Z</time>
      </trkpt>
      <trkpt lat="44.32327" lon="5.88385">
        <ele>639</ele>
        <time>2019-04-02T14:24:26Z</time>
      </trkpt>
      <trkpt lat="44.32329" lon="5.8838">
        <ele>639</ele>
        <time>2019-04-02T14:24:27Z</time>
      </trkpt>
      <trkpt lat="44.32331" lon="5.88375">
        <ele>639</ele>
        <time>2019-04-02T14:24:28Z</time>
      </trkpt>
      <trkpt lat="44.32332" lon="5.88369">
        <ele>639</ele>
        <time>2019-04-02T14:24:29Z</time>
      </trkpt>
      <trkpt lat="44.32333" lon="5.88364">
        <ele>639</ele>
        <time>2019-04-02T14:24:30Z</time>
      </trkpt>
      <trkpt lat="44.32335" lon="5.88358">
        <ele>639</ele>
        <time>2019-04-02T14:24:31Z</time>
      </trkpt>
      <trkpt lat="44.32336" lon="5.88353">
        <ele>639</ele>
        <time>2019-04-02T14:24:32Z</time>
      </trkpt>
      <trkpt lat="44.32338" lon="5.88348">
        <ele>640</ele>
        <time>2019-04-02T14:24:33Z</time>
      </trkpt>
      <trkpt lat="44.32339" lon="5.88343">
        <ele>640</ele>
        <time>2019-04-02T14:24:34Z</time>
      </trkpt>
      <trkpt lat="44.32341" lon="5.88337">
        <ele>640</ele>
        <time>2019-04-02T14:24:35Z</time>
      </trkpt>
      <trkpt lat="44.32342" lon="5.88332">
        <ele>640</ele>
        <time>2019-04-02T14:24:36Z</time>
      </trkpt>
      <trkpt lat="44.32344" lon="5.88326">
        <ele>640</ele>
        <time>2019-04-02T14:24:37Z</time>
      </trkpt>
      <trkpt lat="44.32346" lon="5.88321">
        <ele>640</ele>
        <time>2019-04-02T14:24:38Z</time>
      </trkpt>
      <trkpt lat="44.32348" lon="5.88316">
        <ele>640</ele>
        <time>2019-04-02T14:24:39Z</time>
      </trkpt>
      <trkpt lat="44.3235" lon="5.88311">
        <ele>641</ele>
        <time>2019-04-02T14:24:40Z</time>
      </trkpt>
      <trkpt lat="44.32352" lon="5.88307">
        <ele>641</ele>
        <time>2019-04-02T14:24:41Z</time>
      </trkpt>
      <trkpt lat="44.32354" lon="5.88302">
        <ele>641</ele>
        <time>2019-04-02T14:24:42Z</time>
      </trkpt>
      <trkpt lat="44.32355" lon="5.88297">
        <ele>641</ele>
        <time>2019-04-02T14:24:43Z</time>
      </trkpt>
      <trkpt lat="44.32357" lon="5.88292">
        <ele>641</ele>
        <time>2019-04-02T14:24:44Z</time>
      </trkpt>
      <trkpt lat="44.32359" lon="5.88287">
        <ele>641</ele>
        <time>2019-04-02T14:24:45Z</time>
      </trkpt>
      <trkpt lat="44.32361" lon="5.88282">
        <ele>641</ele>
        <time>2019-04-02T14:24:46Z</time>
      </trkpt>
      <trkpt lat="44.32363" lon="5.88277">
        <ele>642</ele>
        <time>2019-04-02T14:24:47Z</time>
      </trkpt>
      <trkpt lat="44.32365" lon="5.88273">
        <ele>642</ele>
        <time>2019-04-02T14:24:48Z</time>
      </trkpt>
      <trkpt lat="44.32367" lon="5.88268">
        <ele>642</ele>
        <time>2019-04-02T14:24:49Z</time>
      </trkpt>
      <trkpt lat="44.32369" lon="5.88263">
        <ele>642</ele>
        <time>2019-04-02T14:24:50Z</time>
      </trkpt>
      <trkpt lat="44.32371" lon="5.88258">
        <ele>642</ele>
        <time>2019-04-02T14:24:51Z</time>
      </trkpt>
      <trkpt lat="44.32373" lon="5.88253">
        <ele>643</ele>
        <time>2019-04-02T14:24:52Z</time>
      </trkpt>
      <trkpt lat="44.32375" lon="5.88248">
        <ele>643</ele>
        <time>2019-04-02T14:24:53Z</time>
      </trkpt>
      <trkpt lat="44.32377" lon="5.88243">
        <ele>643</ele>
        <time>2019-04-02T14:24:54Z</time>
      </trkpt>
      <trkpt lat="44.32379" lon="5.88238">
        <ele>643</ele>
        <time>2019-04-02T14:24:55Z</time>
      </trkpt>
      <trkpt lat="44.32381" lon="5.88234">
        <ele>643</ele>
        <time>2019-04-02T14:24:56Z</time>
      </trkpt>
      <trkpt lat="44.32382" lon="5.88229">
        <ele>643</ele>
        <time>2019-04-02T14:24:57Z</time>
      </trkpt>
      <trkpt lat="44.32384" lon="5.88223">
        <ele>643</ele>
        <time>2019-04-02T14:24:58Z</time>
      </trkpt>
      <trkpt lat="44.32386" lon="5.88218">
        <ele>644</ele>
        <time>2019-04-02T14:24:59Z</time>
      </trkpt>
      <trkpt lat="44.32388" lon="5.88212">
        <ele>644</ele>
        <time>2019-04-02T14:25:00Z</time>
      </trkpt>
      <trkpt lat="44.3239" lon="5.88206">
        <ele>644</ele>
        <time>2019-04-02T14:25:01Z</time>
      </trkpt>
      <trkpt lat="44.32392" lon="5.88199">
        <ele>644</ele>
        <time>2019-04-02T14:25:02Z</time>
      </trkpt>
      <trkpt lat="44.32394" lon="5.88192">
        <ele>644</ele>
        <time>2019-04-02T14:25:03Z</time>
      </trkpt>
      <trkpt lat="44.32396" lon="5.88184">
        <ele>644</ele>
        <time>2019-04-02T14:25:04Z</time>
      </trkpt>
      <trkpt lat="44.32399" lon="5.88176">
        <ele>644</ele>
        <time>2019-04-02T14:25:05Z</time>
      </trkpt>
      <trkpt lat="44.32401" lon="5.88167">
        <ele>644</ele>
        <time>2019-04-02T14:25:06Z</time>
      </trkpt>
      <trkpt lat="44.32403" lon="5.88158">
        <ele>644</ele>
        <time>2019-04-02T14:25:07Z</time>
      </trkpt>
      <trkpt lat="44.32406" lon="5.88149">
        <ele>644</ele>
        <time>2019-04-02T14:25:08Z</time>
      </trkpt>
      <trkpt lat="44.32409" lon="5.88139">
        <ele>644</ele>
        <time>2019-04-02T14:25:09Z</time>
      </trkpt>
      <trkpt lat="44.32412" lon="5.8813">
        <ele>644</ele>
        <time>2019-04-02T14:25:10Z</time>
      </trkpt>
      <trkpt lat="44.32414" lon="5.8812">
        <ele>644</ele>
        <time>2019-04-02T14:25:11Z</time>
      </trkpt>
      <trkpt lat="44.32417" lon="5.88109">
        <ele>643</ele>
        <time>2019-04-02T14:25:12Z</time>
      </trkpt>
      <trkpt lat="44.3242" lon="5.88099">
        <ele>643</ele>
        <time>2019-04-02T14:25:13Z</time>
      </trkpt>
      <trkpt lat="44.32424" lon="5.88089">
        <ele>642</ele>
        <time>2019-04-02T14:25:14Z</time>
      </trkpt>
      <trkpt lat="44.32428" lon="5.88079">
        <ele>642</ele>
        <time>2019-04-02T14:25:15Z</time>
      </trkpt>
      <trkpt lat="44.32433" lon="5.88069">
        <ele>642</ele>
        <time>2019-04-02T14:25:16Z</time>
      </trkpt>
      <trkpt lat="44.32439" lon="5.8806">
        <ele>642</ele>
        <time>2019-04-02T14:25:17Z</time>
      </trkpt>
      <trkpt lat="44.32445" lon="5.88051">
        <ele>642</ele>
        <time>2019-04-02T14:25:18Z</time>
      </trkpt>
      <trkpt lat="44.32452" lon="5.88043">
        <ele>642</ele>
        <time>2019-04-02T14:25:19Z</time>
      </trkpt>
      <trkpt lat="44.32457" lon="5.88034">
        <ele>642</ele>
        <time>2019-04-02T14:25:20Z</time>
      </trkpt>
      <trkpt lat="44.32463" lon="5.88026">
        <ele>642</ele>
        <time>2019-04-02T14:25:21Z</time>
      </trkpt>
      <trkpt lat="44.32469" lon="5.88018">
        <ele>642</ele>
        <time>2019-04-02T14:25:22Z</time>
      </trkpt>
      <trkpt lat="44.32475" lon="5.8801">
        <ele>642</ele>
        <time>2019-04-02T14:25:23Z</time>
      </trkpt>
      <trkpt lat="44.32481" lon="5.88001">
        <ele>642</ele>
        <time>2019-04-02T14:25:24Z</time>
      </trkpt>
      <trkpt lat="44.32486" lon="5.87992">
        <ele>641</ele>
        <time>2019-04-02T14:25:25Z</time>
      </trkpt>
      <trkpt lat="44.32491" lon="5.87982">
        <ele>641</ele>
        <time>2019-04-02T14:25:26Z</time>
      </trkpt>
      <trkpt lat="44.32495" lon="5.87972">
        <ele>641</ele>
        <time>2019-04-02T14:25:27Z</time>
      </trkpt>
      <trkpt lat="44.32498" lon="5.87961">
        <ele>641</ele>
        <time>2019-04-02T14:25:28Z</time>
      </trkpt>
      <trkpt lat="44.32501" lon="5.87949">
        <ele>640</ele>
        <time>2019-04-02T14:25:29Z</time>
      </trkpt>
      <trkpt lat="44.32503" lon="5.87937">
        <ele>640</ele>
        <time>2019-04-02T14:25:30Z</time>
      </trkpt>
      <trkpt lat="44.32504" lon="5.87925">
        <ele>640</ele>
        <time>2019-04-02T14:25:31Z</time>
      </trkpt>
      <trkpt lat="44.32505" lon="5.87912">
        <ele>640</ele>
        <time>2019-04-02T14:25:32Z</time>
      </trkpt>
      <trkpt lat="44.32506" lon="5.87899">
        <ele>639</ele>
        <time>2019-04-02T14:25:33Z</time>
      </trkpt>
      <trkpt lat="44.32507" lon="5.87886">
        <ele>639</ele>
        <time>2019-04-02T14:25:34Z</time>
      </trkpt>
      <trkpt lat="44.32508" lon="5.87874">
        <ele>639</ele>
        <time>2019-04-02T14:25:35Z</time>
      </trkpt>
      <trkpt lat="44.32509" lon="5.8786">
        <ele>638</ele>
        <time>2019-04-02T14:25:36Z</time>
      </trkpt>
      <trkpt lat="44.3251" lon="5.87847">
        <ele>638</ele>
        <time>2019-04-02T14:25:37Z</time>
      </trkpt>
      <trkpt lat="44.32511" lon="5.87833">
        <ele>637</ele>
        <time>2019-04-02T14:25:38Z</time>
      </trkpt>
      <trkpt lat="44.32512" lon="5.87819">
        <ele>637</ele>
        <time>2019-04-02T14:25:39Z</time>
      </trkpt>
      <trkpt lat="44.32513" lon="5.87805">
        <ele>636</ele>
        <time>2019-04-02T14:25:40Z</time>
      </trkpt>
      <trkpt lat="44.32514" lon="5.8779">
        <ele>635</ele>
        <time>2019-04-02T14:25:41Z</time>
      </trkpt>
      <trkpt lat="44.32515" lon="5.87776">
        <ele>635</ele>
        <time>2019-04-02T14:25:42Z</time>
      </trkpt>
      <trkpt lat="44.32517" lon="5.87761">
        <ele>635</ele>
        <time>2019-04-02T14:25:43Z</time>
      </trkpt>
      <trkpt lat="44.32518" lon="5.87746">
        <ele>634</ele>
        <time>2019-04-02T14:25:44Z</time>
      </trkpt>
      <trkpt lat="44.32519" lon="5.87731">
        <ele>634</ele>
        <time>2019-04-02T14:25:45Z</time>
      </trkpt>
      <trkpt lat="44.3252" lon="5.87717">
        <ele>634</ele>
        <time>2019-04-02T14:25:46Z</time>
      </trkpt>
      <trkpt lat="44.32521" lon="5.87702">
        <ele>633</ele>
        <time>2019-04-02T14:25:47Z</time>
      </trkpt>
      <trkpt lat="44.32522" lon="5.87687">
        <ele>633</ele>
        <time>2019-04-02T14:25:48Z</time>
      </trkpt>
      <trkpt lat="44.32523" lon="5.87673">
        <ele>632</ele>
        <time>2019-04-02T14:25:49Z</time>
      </trkpt>
      <trkpt lat="44.32524" lon="5.87658">
        <ele>632</ele>
        <time>2019-04-02T14:25:50Z</time>
      </trkpt>
      <trkpt lat="44.32525" lon="5.87644">
        <ele>632</ele>
        <time>2019-04-02T14:25:51Z</time>
      </trkpt>
      <trkpt lat="44.32526" lon="5.8763">
        <ele>631</ele>
        <time>2019-04-02T14:25:52Z</time>
      </trkpt>
      <trkpt lat="44.32526" lon="5.87616">
        <ele>631</ele>
        <time>2019-04-02T14:25:53Z</time>
      </trkpt>
      <trkpt lat="44.32525" lon="5.87604">
        <ele>631</ele>
        <time>2019-04-02T14:25:54Z</time>
      </trkpt>
      <trkpt lat="44.32523" lon="5.87591">
        <ele>631</ele>
        <time>2019-04-02T14:25:55Z</time>
      </trkpt>
      <trkpt lat="44.3252" lon="5.87579">
        <ele>630</ele>
        <time>2019-04-02T14:25:56Z</time>
      </trkpt>
      <trkpt lat="44.32515" lon="5.87568">
        <ele>630</ele>
        <time>2019-04-02T14:25:57Z</time>
      </trkpt>
      <trkpt lat="44.3251" lon="5.87558">
        <ele>630</ele>
        <time>2019-04-02T14:25:58Z</time>
      </trkpt>
      <trkpt lat="44.32503" lon="5.87549">
        <ele>630</ele>
        <time>2019-04-02T14:25:59Z</time>
      </trkpt>
      <trkpt lat="44.32497" lon="5.87541">
        <ele>630</ele>
        <time>2019-04-02T14:26:00Z</time>
      </trkpt>
      <trkpt lat="44.3249" lon="5.87533">
        <ele>630</ele>
        <time>2019-04-02T14:26:01Z</time>
      </trkpt>
      <trkpt lat="44.32483" lon="5.87524">
        <ele>630</ele>
        <time>2019-04-02T14:26:02Z</time>
      </trkpt>
      <trkpt lat="44.32478" lon="5.87515">
        <ele>630</ele>
        <time>2019-04-02T14:26:03Z</time>
      </trkpt>
      <trkpt lat="44.32472" lon="5.87507">
        <ele>629</ele>
        <time>2019-04-02T14:26:04Z</time>
      </trkpt>
      <trkpt lat="44.32467" lon="5.87498">
        <ele>629</ele>
        <time>2019-04-02T14:26:05Z</time>
      </trkpt>
      <trkpt lat="44.32462" lon="5.87489">
        <ele>629</ele>
        <time>2019-04-02T14:26:06Z</time>
      </trkpt>
      <trkpt lat="44.32457" lon="5.8748">
        <ele>629</ele>
        <time>2019-04-02T14:26:07Z</time>
      </trkpt>
      <trkpt lat="44.32452" lon="5.87471">
        <ele>629</ele>
        <time>2019-04-02T14:26:08Z</time>
      </trkpt>
      <trkpt lat="44.32447" lon="5.87463">
        <ele>629</ele>
        <time>2019-04-02T14:26:09Z</time>
      </trkpt>
      <trkpt lat="44.32443" lon="5.87453">
        <ele>629</ele>
        <time>2019-04-02T14:26:10Z</time>
      </trkpt>
      <trkpt lat="44.3244" lon="5.87443">
        <ele>629</ele>
        <time>2019-04-02T14:26:11Z</time>
      </trkpt>
      <trkpt lat="44.32438" lon="5.87432">
        <ele>628</ele>
        <time>2019-04-02T14:26:12Z</time>
      </trkpt>
      <trkpt lat="44.32437" lon="5.87421">
        <ele>628</ele>
        <time>2019-04-02T14:26:13Z</time>
      </trkpt>
      <trkpt lat="44.32437" lon="5.87409">
        <ele>628</ele>
        <time>2019-04-02T14:26:14Z</time>
      </trkpt>
      <trkpt lat="44.32437" lon="5.87398">
        <ele>628</ele>
        <time>2019-04-02T14:26:15Z</time>
      </trkpt>
      <trkpt lat="44.32438" lon="5.87387">
        <ele>628</ele>
        <time>2019-04-02T14:26:16Z</time>
      </trkpt>
      <trkpt lat="44.3244" lon="5.87376">
        <ele>627</ele>
        <time>2019-04-02T14:26:17Z</time>
      </trkpt>
      <trkpt lat="44.32441" lon="5.87365">
        <ele>627</ele>
        <time>2019-04-02T14:26:18Z</time>
      </trkpt>
      <trkpt lat="44.32443" lon="5.87354">
        <ele>627</ele>
        <time>2019-04-02T14:26:19Z</time>
      </trkpt>
      <trkpt lat="44.32444" lon="5.87343">
        <ele>627</ele>
        <time>2019-04-02T14:26:20Z</time>
      </trkpt>
      <trkpt lat="44.32445" lon="5.87332">
        <ele>627</ele>
        <time>2019-04-02T14:26:21Z</time>
      </trkpt>
      <trkpt lat="44.32447" lon="5.87321">
        <ele>626</ele>
        <time>2019-04-02T14:26:22Z</time>
      </trkpt>
      <trkpt lat="44.32447" lon="5.87309">
        <ele>626</ele>
        <time>2019-04-02T14:26:23Z</time>
      </trkpt>
      <trkpt lat="44.32449" lon="5.87298">
        <ele>626</ele>
        <time>2019-04-02T14:26:24Z</time>
      </trkpt>
      <trkpt lat="44.3245" lon="5.87286">
        <ele>626</ele>
        <time>2019-04-02T14:26:25Z</time>
      </trkpt>
      <trkpt lat="44.32451" lon="5.87275">
        <ele>626</ele>
        <time>2019-04-02T14:26:26Z</time>
      </trkpt>
      <trkpt lat="44.32452" lon="5.87263">
        <ele>626</ele>
        <time>2019-04-02T14:26:27Z</time>
      </trkpt>
      <trkpt lat="44.32454" lon="5.87252">
        <ele>625</ele>
        <time>2019-04-02T14:26:28Z</time>
      </trkpt>
      <trkpt lat="44.32456" lon="5.87241">
        <ele>625</ele>
        <time>2019-04-02T14:26:29Z</time>
      </trkpt>
      <trkpt lat="44.32459" lon="5.87229">
        <ele>625</ele>
        <time>2019-04-02T14:26:30Z</time>
      </trkpt>
      <trkpt lat="44.32463" lon="5.87219">
        <ele>625</ele>
        <time>2019-04-02T14:26:31Z</time>
      </trkpt>
      <trkpt lat="44.32469" lon="5.8721">
        <ele>625</ele>
        <time>2019-04-02T14:26:32Z</time>
      </trkpt>
      <trkpt lat="44.32476" lon="5.87202">
        <ele>625</ele>
        <time>2019-04-02T14:26:33Z</time>
      </trkpt>
      <trkpt lat="44.32483" lon="5.87195">
        <ele>625</ele>
        <time>2019-04-02T14:26:34Z</time>
      </trkpt>
      <trkpt lat="44.32491" lon="5.87189">
        <ele>625</ele>
        <time>2019-04-02T14:26:35Z</time>
      </trkpt>
      <trkpt lat="44.32499" lon="5.87183">
        <ele>625</ele>
        <time>2019-04-02T14:26:36Z</time>
      </trkpt>
      <trkpt lat="44.32507" lon="5.87177">
        <ele>624</ele>
        <time>2019-04-02T14:26:37Z</time>
      </trkpt>
      <trkpt lat="44.32516" lon="5.87171">
        <ele>624</ele>
        <time>2019-04-02T14:26:38Z</time>
      </trkpt>
      <trkpt lat="44.32524" lon="5.87165">
        <ele>624</ele>
        <time>2019-04-02T14:26:39Z</time>
      </trkpt>
      <trkpt lat="44.32533" lon="5.87159">
        <ele>624</ele>
        <time>2019-04-02T14:26:40Z</time>
      </trkpt>
      <trkpt lat="44.32541" lon="5.87154">
        <ele>623</ele>
        <time>2019-04-02T14:26:41Z</time>
      </trkpt>
      <trkpt lat="44.3255" lon="5.87149">
        <ele>623</ele>
        <time>2019-04-02T14:26:42Z</time>
      </trkpt>
      <trkpt lat="44.32558" lon="5.87144">
        <ele>623</ele>
        <time>2019-04-02T14:26:43Z</time>
      </trkpt>
      <trkpt lat="44.32567" lon="5.87141">
        <ele>623</ele>
        <time>2019-04-02T14:26:44Z</time>
      </trkpt>
      <trkpt lat="44.32576" lon="5.87139">
        <ele>623</ele>
        <time>2019-04-02T14:26:45Z</time>
      </trkpt>
      <trkpt lat="44.32585" lon="5.87139">
        <ele>623</ele>
        <time>2019-04-02T14:26:46Z</time>
      </trkpt>
      <trkpt lat="44.32593" lon="5.87139">
        <ele>623</ele>
        <time>2019-04-02T14:26:47Z</time>
      </trkpt>
      <trkpt lat="44.32602" lon="5.87139">
        <ele>623</ele>
        <time>2019-04-02T14:26:48Z</time>
      </trkpt>
      <trkpt lat="44.3261" lon="5.8714">
        <ele>623</ele>
        <time>2019-04-02T14:26:49Z</time>
      </trkpt>
      <trkpt lat="44.32618" lon="5.87141">
        <ele>623</ele>
        <time>2019-04-02T14:26:50Z</time>
      </trkpt>
      <trkpt lat="44.32626" lon="5.87141">
        <ele>623</ele>
        <time>2019-04-02T14:26:51Z</time>
      </trkpt>
      <trkpt lat="44.32635" lon="5.8714">
        <ele>623</ele>
        <time>2019-04-02T14:26:52Z</time>
      </trkpt>
      <trkpt lat="44.32642" lon="5.87137">
        <ele>623</ele>
        <time>2019-04-02T14:26:53Z</time>
      </trkpt>
      <trkpt lat="44.3265" lon="5.87133">
        <ele>622</ele>
        <time>2019-04-02T14:26:54Z</time>
      </trkpt>
      <trkpt lat="44.32658" lon="5.87129">
        <ele>622</ele>
        <time>2019-04-02T14:26:55Z</time>
      </trkpt>
      <trkpt lat="44.32665" lon="5.87124">
        <ele>622</ele>
        <time>2019-04-02T14:26:56Z</time>
      </trkpt>
      <trkpt lat="44.32672" lon="5.87118">
        <ele>622</ele>
        <time>2019-04-02T14:26:57Z</time>
      </trkpt>
      <trkpt lat="44.32679" lon="5.87111">
        <ele>621</ele>
        <time>2019-04-02T14:26:58Z</time>
      </trkpt>
      <trkpt lat="44.32684" lon="5.87101">
        <ele>621</ele>
        <time>2019-04-02T14:26:59Z</time>
      </trkpt>
      <trkpt lat="44.32689" lon="5.8709">
        <ele>621</ele>
        <time>2019-04-02T14:27:00Z</time>
      </trkpt>
      <trkpt lat="44.32692" lon="5.87079">
        <ele>621</ele>
        <time>2019-04-02T14:27:01Z</time>
      </trkpt>
      <trkpt lat="44.32695" lon="5.87067">
        <ele>621</ele>
        <time>2019-04-02T14:27:02Z</time>
      </trkpt>
      <trkpt lat="44.32698" lon="5.87054">
        <ele>621</ele>
        <time>2019-04-02T14:27:03Z</time>
      </trkpt>
      <trkpt lat="44.327" lon="5.87042">
        <ele>621</ele>
        <time>2019-04-02T14:27:04Z</time>
      </trkpt>
      <trkpt lat="44.32702" lon="5.8703">
        <ele>620</ele>
        <time>2019-04-02T14:27:05Z</time>
      </trkpt>
      <trkpt lat="44.32705" lon="5.87018">
        <ele>620</ele>
        <time>2019-04-02T14:27:06Z</time>
      </trkpt>
      <trkpt lat="44.32707" lon="5.87006">
        <ele>620</ele>
        <time>2019-04-02T14:27:07Z</time>
      </trkpt>
      <trkpt lat="44.32709" lon="5.86994">
        <ele>620</ele>
        <time>2019-04-02T14:27:08Z</time>
      </trkpt>
      <trkpt lat="44.32712" lon="5.86982">
        <ele>620</ele>
        <time>2019-04-02T14:27:09Z</time>
      </trkpt>
      <trkpt lat="44.32714" lon="5.86971">
        <ele>620</ele>
        <time>2019-04-02T14:27:10Z</time>
      </trkpt>
      <trkpt lat="44.32716" lon="5.8696">
        <ele>620</ele>
        <time>2019-04-02T14:27:11Z</time>
      </trkpt>
      <trkpt lat="44.32719" lon="5.86949">
        <ele>619</ele>
        <time>2019-04-02T14:27:12Z</time>
      </trkpt>
      <trkpt lat="44.32721" lon="5.86938">
        <ele>619</ele>
        <time>2019-04-02T14:27:13Z</time>
      </trkpt>
      <trkpt lat="44.32724" lon="5.86928">
        <ele>619</ele>
        <time>2019-04-02T14:27:14Z</time>
      </trkpt>
      <trkpt lat="44.32727" lon="5.86917">
        <ele>619</ele>
        <time>2019-04-02T14:27:15Z</time>
      </trkpt>
      <trkpt lat="44.32729" lon="5.86907">
        <ele>619</ele>
        <time>2019-04-02T14:27:16Z</time>
      </trkpt>
      <trkpt lat="44.32732" lon="5.86897">
        <ele>619</ele>
        <time>2019-04-02T14:27:17Z</time>
      </trkpt>
      <trkpt lat="44.32735" lon="5.86887">
        <ele>619</ele>
        <time>2019-04-02T14:27:18Z</time>
      </trkpt>
      <trkpt lat="44.32738" lon="5.86876">
        <ele>618</ele>
        <time>2019-04-02T14:27:19Z</time>
      </trkpt>
      <trkpt lat="44.32742" lon="5.86866">
        <ele>618</ele>
        <time>2019-04-02T14:27:20Z</time>
      </trkpt>
      <trkpt lat="44.32745" lon="5.86855">
        <ele>618</ele>
        <time>2019-04-02T14:27:21Z</time>
      </trkpt>
      <trkpt lat="44.32747" lon="5.86845">
        <ele>618</ele>
        <time>2019-04-02T14:27:22Z</time>
      </trkpt>
      <trkpt lat="44.3275" lon="5.86834">
        <ele>618</ele>
        <time>2019-04-02T14:27:23Z</time>
      </trkpt>
      <trkpt lat="44.32753" lon="5.86824">
        <ele>618</ele>
        <time>2019-04-02T14:27:24Z</time>
      </trkpt>
      <trkpt lat="44.32755" lon="5.86813">
        <ele>618</ele>
        <time>2019-04-02T14:27:25Z</time>
      </trkpt>
      <trkpt lat="44.32757" lon="5.86803">
        <ele>618</ele>
        <time>2019-04-02T14:27:26Z</time>
      </trkpt>
      <trkpt lat="44.32759" lon="5.86793">
        <ele>617</ele>
        <time>2019-04-02T14:27:27Z</time>
      </trkpt>
      <trkpt lat="44.32761" lon="5.86782">
        <ele>617</ele>
        <time>2019-04-02T14:27:28Z</time>
      </trkpt>
      <trkpt lat="44.32762" lon="5.86772">
        <ele>617</ele>
        <time>2019-04-02T14:27:29Z</time>
      </trkpt>
      <trkpt lat="44.32762" lon="5.86762">
        <ele>617</ele>
        <time>2019-04-02T14:27:30Z</time>
      </trkpt>
      <trkpt lat="44.32762" lon="5.86752">
        <ele>617</ele>
        <time>2019-04-02T14:27:31Z</time>
      </trkpt>
      <trkpt lat="44.32762" lon="5.86742">
        <ele>617</ele>
        <time>2019-04-02T14:27:32Z</time>
      </trkpt>
      <trkpt lat="44.32762" lon="5.86731">
        <ele>617</ele>
        <time>2019-04-02T14:27:33Z</time>
      </trkpt>
      <trkpt lat="44.32761" lon="5.86721">
        <ele>617</ele>
        <time>2019-04-02T14:27:34Z</time>
      </trkpt>
      <trkpt lat="44.3276" lon="5.86711">
        <ele>617</ele>
        <time>2019-04-02T14:27:35Z</time>
      </trkpt>
      <trkpt lat="44.32759" lon="5.86701">
        <ele>617</ele>
        <time>2019-04-02T14:27:36Z</time>
      </trkpt>
      <trkpt lat="44.32758" lon="5.86692">
        <ele>617</ele>
        <time>2019-04-02T14:27:37Z</time>
      </trkpt>
      <trkpt lat="44.32757" lon="5.86682">
        <ele>616</ele>
        <time>2019-04-02T14:27:38Z</time>
      </trkpt>
      <trkpt lat="44.32756" lon="5.86672">
        <ele>616</ele>
        <time>2019-04-02T14:27:39Z</time>
      </trkpt>
      <trkpt lat="44.32755" lon="5.86663">
        <ele>616</ele>
        <time>2019-04-02T14:27:40Z</time>
      </trkpt>
      <trkpt lat="44.32754" lon="5.86653">
        <ele>616</ele>
        <time>2019-04-02T14:27:41Z</time>
      </trkpt>
      <trkpt lat="44.32753" lon="5.86643">
        <ele>616</ele>
        <time>2019-04-02T14:27:42Z</time>
      </trkpt>
      <trkpt lat="44.32751" lon="5.86634">
        <ele>616</ele>
        <time>2019-04-02T14:27:43Z</time>
      </trkpt>
      <trkpt lat="44.3275" lon="5.86624">
        <ele>616</ele>
        <time>2019-04-02T14:27:44Z</time>
      </trkpt>
      <trkpt lat="44.32749" lon="5.86614">
        <ele>616</ele>
        <time>2019-04-02T14:27:45Z</time>
      </trkpt>
      <trkpt lat="44.32749" lon="5.86604">
        <ele>616</ele>
        <time>2019-04-02T14:27:46Z</time>
      </trkpt>
      <trkpt lat="44.32748" lon="5.86595">
        <ele>616</ele>
        <time>2019-04-02T14:27:47Z</time>
      </trkpt>
      <trkpt lat="44.32749" lon="5.86585">
        <ele>616</ele>
        <time>2019-04-02T14:27:48Z</time>
      </trkpt>
      <trkpt lat="44.3275" lon="5.86576">
        <ele>616</ele>
        <time>2019-04-02T14:27:49Z</time>
      </trkpt>
      <trkpt lat="44.32751" lon="5.86566">
        <ele>616</ele>
        <time>2019-04-02T14:27:50Z</time>
      </trkpt>
      <trkpt lat="44.32753" lon="5.86557">
        <ele>616</ele>
        <time>2019-04-02T14:27:51Z</time>
      </trkpt>
      <trkpt lat="44.32755" lon="5.86548">
        <ele>616</ele>
        <time>2019-04-02T14:27:52Z</time>
      </trkpt>
      <trkpt lat="44.32758" lon="5.86539">
        <ele>616</ele>
        <time>2019-04-02T14:27:53Z</time>
      </trkpt>
      <trkpt lat="44.32761" lon="5.8653">
        <ele>616</ele>
        <time>2019-04-02T14:27:54Z</time>
      </trkpt>
      <trkpt lat="44.32765" lon="5.86522">
        <ele>616</ele>
        <time>2019-04-02T14:27:55Z</time>
      </trkpt>
      <trkpt lat="44.32769" lon="5.86514">
        <ele>616</ele>
        <time>2019-04-02T14:27:56Z</time>
      </trkpt>
      <trkpt lat="44.32773" lon="5.86506">
        <ele>616</ele>
        <time>2019-04-02T14:27:57Z</time>
      </trkpt>
      <trkpt lat="44.32778" lon="5.86499">
        <ele>616</ele>
        <time>2019-04-02T14:27:58Z</time>
      </trkpt>
      <trkpt lat="44.32783" lon="5.86492">
        <ele>616</ele>
        <time>2019-04-02T14:27:59Z</time>
      </trkpt>
      <trkpt lat="44.32788" lon="5.86486">
        <ele>616</ele>
        <time>2019-04-02T14:28:00Z</time>
      </trkpt>
      <trkpt lat="44.32793" lon="5.86481">
        <ele>616</ele>
        <time>2019-04-02T14:28:01Z</time>
      </trkpt>
      <trkpt lat="44.32799" lon="5.86477">
        <ele>616</ele>
        <time>2019-04-02T14:28:02Z</time>
      </trkpt>
      <trkpt lat="44.32805" lon="5.86473">
        <ele>616</ele>
        <time>2019-04-02T14:28:03Z</time>
      </trkpt>
      <trkpt lat="44.32811" lon="5.86469">
        <ele>616</ele>
        <time>2019-04-02T14:28:04Z</time>
      </trkpt>
      <trkpt lat="44.32816" lon="5.86465">
        <ele>616</ele>
        <time>2019-04-02T14:28:05Z</time>
      </trkpt>
      <trkpt lat="44.32822" lon="5.86459">
        <ele>616</ele>
        <time>2019-04-02T14:28:06Z</time>
      </trkpt>
      <trkpt lat="44.32827" lon="5.86453">
        <ele>616</ele>
        <time>2019-04-02T14:28:07Z</time>
      </trkpt>
      <trkpt lat="44.32832" lon="5.86446">
        <ele>616</ele>
        <time>2019-04-02T14:28:08Z</time>
      </trkpt>
      <trkpt lat="44.32835" lon="5.86439">
        <ele>616</ele>
        <time>2019-04-02T14:28:09Z</time>
      </trkpt>
      <trkpt lat="44.32839" lon="5.86431">
        <ele>616</ele>
        <time>2019-04-02T14:28:10Z</time>
      </trkpt>
      <trkpt lat="44.32841" lon="5.86422">
        <ele>616</ele>
        <time>2019-04-02T14:28:11Z</time>
      </trkpt>
      <trkpt lat="44.32843" lon="5.86413">
        <ele>616</ele>
        <time>2019-04-02T14:28:12Z</time>
      </trkpt>
      <trkpt lat="44.32844" lon="5.86405">
        <ele>616</ele>
        <time>2019-04-02T14:28:13Z</time>
      </trkpt>
      <trkpt lat="44.32845" lon="5.86396">
        <ele>616</ele>
        <time>2019-04-02T14:28:14Z</time>
      </trkpt>
      <trkpt lat="44.32845" lon="5.86388">
        <ele>616</ele>
        <time>2019-04-02T14:28:15Z</time>
      </trkpt>
      <trkpt lat="44.32845" lon="5.86379">
        <ele>616</ele>
        <time>2019-04-02T14:28:16Z</time>
      </trkpt>
      <trkpt lat="44.32845" lon="5.86372">
        <ele>616</ele>
        <time>2019-04-02T14:28:17Z</time>
      </trkpt>
      <trkpt lat="44.32846" lon="5.86364">
        <ele>616</ele>
        <time>2019-04-02T14:28:18Z</time>
      </trkpt>
      <trkpt lat="44.32846" lon="5.86357">
        <ele>616</ele>
        <time>2019-04-02T14:28:19Z</time>
      </trkpt>
      <trkpt lat="44.32847" lon="5.8635">
        <ele>616</ele>
        <time>2019-04-02T14:28:20Z</time>
      </trkpt>
      <trkpt lat="44.32848" lon="5.86343">
        <ele>616</ele>
        <time>2019-04-02T14:28:21Z</time>
      </trkpt>
      <trkpt lat="44.3285" lon="5.86337">
        <ele>616</ele>
        <time>2019-04-02T14:28:22Z</time>
      </trkpt>
      <trkpt lat="44.32852" lon="5.8633">
        <ele>616</ele>
        <time>2019-04-02T14:28:23Z</time>
      </trkpt>
      <trkpt lat="44.32854" lon="5.86322">
        <ele>616</ele>
        <time>2019-04-02T14:28:24Z</time>
      </trkpt>
      <trkpt lat="44.32857" lon="5.86316">
        <ele>616</ele>
        <time>2019-04-02T14:28:25Z</time>
      </trkpt>
      <trkpt lat="44.3286" lon="5.86309">
        <ele>616</ele>
        <time>2019-04-02T14:28:26Z</time>
      </trkpt>
      <trkpt lat="44.32863" lon="5.86302">
        <ele>616</ele>
        <time>2019-04-02T14:28:27Z</time>
      </trkpt>
      <trkpt lat="44.32866" lon="5.86296">
        <ele>616</ele>
        <time>2019-04-02T14:28:28Z</time>
      </trkpt>
      <trkpt lat="44.3287" lon="5.8629">
        <ele>616</ele>
        <time>2019-04-02T14:28:29Z</time>
      </trkpt>
      <trkpt lat="44.32874" lon="5.86284">
        <ele>616</ele>
        <time>2019-04-02T14:28:30Z</time>
      </trkpt>
      <trkpt lat="44.32877" lon="5.86278">
        <ele>616</ele>
        <time>2019-04-02T14:28:31Z</time>
      </trkpt>
      <trkpt lat="44.32881" lon="5.86271">
        <ele>616</ele>
        <time>2019-04-02T14:28:32Z</time>
      </trkpt>
      <trkpt lat="44.32885" lon="5.86264">
        <ele>616</ele>
        <time>2019-04-02T14:28:33Z</time>
      </trkpt>
      <trkpt lat="44.32889" lon="5.86257">
        <ele>616</ele>
        <time>2019-04-02T14:28:34Z</time>
      </trkpt>
      <trkpt lat="44.32893" lon="5.86251">
        <ele>616</ele>
        <time>2019-04-02T14:28:35Z</time>
      </trkpt>
      <trkpt lat="44.32896" lon="5.86244">
        <ele>616</ele>
        <time>2019-04-02T14:28:36Z</time>
      </trkpt>
      <trkpt lat="44.329" lon="5.86238">
        <ele>616</ele>
        <time>2019-04-02T14:28:37Z</time>
      </trkpt>
      <trkpt lat="44.32903" lon="5.86232">
        <ele>616</ele>
        <time>2019-04-02T14:28:38Z</time>
      </trkpt>
      <trkpt lat="44.32907" lon="5.86226">
        <ele>616</ele>
        <time>2019-04-02T14:28:39Z</time>
      </trkpt>
      <trkpt lat="44.32911" lon="5.8622">
        <ele>616</ele>
        <time>2019-04-02T14:28:40Z</time>
      </trkpt>
      <trkpt lat="44.32914" lon="5.86214">
        <ele>616</ele>
        <time>2019-04-02T14:28:41Z</time>
      </trkpt>
      <trkpt lat="44.32917" lon="5.86208">
        <ele>616</ele>
        <time>2019-04-02T14:28:42Z</time>
      </trkpt>
      <trkpt lat="44.32921" lon="5.86203">
        <ele>616</ele>
        <time>2019-04-02T14:28:43Z</time>
      </trkpt>
      <trkpt lat="44.32925" lon="5.86197">
        <ele>616</ele>
        <time>2019-04-02T14:28:44Z</time>
      </trkpt>
      <trkpt lat="44.32928" lon="5.86191">
        <ele>616</ele>
        <time>2019-04-02T14:28:45Z</time>
      </trkpt>
      <trkpt lat="44.32932" lon="5.86185">
        <ele>616</ele>
        <time>2019-04-02T14:28:46Z</time>
      </trkpt>
      <trkpt lat="44.32935" lon="5.86178">
        <ele>616</ele>
        <time>2019-04-02T14:28:47Z</time>
      </trkpt>
      <trkpt lat="44.32939" lon="5.86171">
        <ele>616</ele>
        <time>2019-04-02T14:28:48Z</time>
      </trkpt>
      <trkpt lat="44.32943" lon="5.86164">
        <ele>616</ele>
        <time>2019-04-02T14:28:49Z</time>
      </trkpt>
      <trkpt lat="44.32946" lon="5.86156">
        <ele>616</ele>
        <time>2019-04-02T14:28:50Z</time>
      </trkpt>
      <trkpt lat="44.3295" lon="5.86149">
        <ele>616</ele>
        <time>2019-04-02T14:28:51Z</time>
      </trkpt>
      <trkpt lat="44.32954" lon="5.86142">
        <ele>616</ele>
        <time>2019-04-02T14:28:52Z</time>
      </trkpt>
      <trkpt lat="44.32958" lon="5.86135">
        <ele>616</ele>
        <time>2019-04-02T14:28:53Z</time>
      </trkpt>
      <trkpt lat="44.32962" lon="5.86129">
        <ele>616</ele>
        <time>2019-04-02T14:28:54Z</time>
      </trkpt>
      <trkpt lat="44.32966" lon="5.86122">
        <ele>616</ele>
        <time>2019-04-02T14:28:55Z</time>
      </trkpt>
      <trkpt lat="44.3297" lon="5.86115">
        <ele>616</ele>
        <time>2019-04-02T14:28:56Z</time>
      </trkpt>
      <trkpt lat="44.32973" lon="5.86107">
        <ele>616</ele>
        <time>2019-04-02T14:28:57Z</time>
      </trkpt>
      <trkpt lat="44.32977" lon="5.861">
        <ele>616</ele>
        <time>2019-04-02T14:28:58Z</time>
      </trkpt>
      <trkpt lat="44.3298" lon="5.86092">
        <ele>616</ele>
        <time>2019-04-02T14:28:59Z</time>
      </trkpt>
      <trkpt lat="44.32983" lon="5.86084">
        <ele>616</ele>
        <time>2019-04-02T14:29:00Z</time>
      </trkpt>
      <trkpt lat="44.32984" lon="5.86074">
        <ele>616</ele>
        <time>2019-04-02T14:29:01Z</time>
      </trkpt>
      <trkpt lat="44.32985" lon="5.86065">
        <ele>616</ele>
        <time>2019-04-02T14:29:02Z</time>
      </trkpt>
      <trkpt lat="44.32985" lon="5.86055">
        <ele>616</ele>
        <time>2019-04-02T14:29:03Z</time>
      </trkpt>
      <trkpt lat="44.32985" lon="5.86046">
        <ele>616</ele>
        <time>2019-04-02T14:29:04Z</time>
      </trkpt>
      <trkpt lat="44.32983" lon="5.86036">
        <ele>616</ele>
        <time>2019-04-02T14:29:05Z</time>
      </trkpt>
      <trkpt lat="44.3298" lon="5.86027">
        <ele>615</ele>
        <time>2019-04-02T14:29:06Z</time>
      </trkpt>
      <trkpt lat="44.32978" lon="5.86019">
        <ele>615</ele>
        <time>2019-04-02T14:29:07Z</time>
      </trkpt>
      <trkpt lat="44.32974" lon="5.8601">
        <ele>615</ele>
        <time>2019-04-02T14:29:08Z</time>
      </trkpt>
      <trkpt lat="44.32971" lon="5.86001">
        <ele>615</ele>
        <time>2019-04-02T14:29:09Z</time>
      </trkpt>
      <trkpt lat="44.32967" lon="5.85993">
        <ele>615</ele>
        <time>2019-04-02T14:29:10Z</time>
      </trkpt>
      <trkpt lat="44.32964" lon="5.85985">
        <ele>615</ele>
        <time>2019-04-02T14:29:11Z</time>
      </trkpt>
      <trkpt lat="44.3296" lon="5.85976">
        <ele>615</ele>
        <time>2019-04-02T14:29:12Z</time>
      </trkpt>
      <trkpt lat="44.32956" lon="5.85968">
        <ele>615</ele>
        <time>2019-04-02T14:29:13Z</time>
      </trkpt>
      <trkpt lat="44.32953" lon="5.85959">
        <ele>614</ele>
        <time>2019-04-02T14:29:14Z</time>
      </trkpt>
      <trkpt lat="44.3295" lon="5.8595">
        <ele>614</ele>
        <time>2019-04-02T14:29:15Z</time>
      </trkpt>
      <trkpt lat="44.32947" lon="5.8594">
        <ele>614</ele>
        <time>2019-04-02T14:29:16Z</time>
      </trkpt>
      <trkpt lat="44.32946" lon="5.8593">
        <ele>614</ele>
        <time>2019-04-02T14:29:17Z</time>
      </trkpt>
      <trkpt lat="44.32944" lon="5.8592">
        <ele>614</ele>
        <time>2019-04-02T14:29:18Z</time>
      </trkpt>
      <trkpt lat="44.32944" lon="5.8591">
        <ele>614</ele>
        <time>2019-04-02T14:29:19Z</time>
      </trkpt>
      <trkpt lat="44.32943" lon="5.859">
        <ele>614</ele>
        <time>2019-04-02T14:29:20Z</time>
      </trkpt>
      <trkpt lat="44.32943" lon="5.8589">
        <ele>614</ele>
        <time>2019-04-02T14:29:21Z</time>
      </trkpt>
      <trkpt lat="44.32943" lon="5.8588">
        <ele>614</ele>
        <time>2019-04-02T14:29:22Z</time>
      </trkpt>
      <trkpt lat="44.32943" lon="5.8587">
        <ele>614</ele>
        <time>2019-04-02T14:29:23Z</time>
      </trkpt>
      <trkpt lat="44.32943" lon="5.8586">
        <ele>613</ele>
        <time>2019-04-02T14:29:24Z</time>
      </trkpt>
      <trkpt lat="44.32943" lon="5.8585">
        <ele>613</ele>
        <time>2019-04-02T14:29:25Z</time>
      </trkpt>
      <trkpt lat="44.32943" lon="5.85841">
        <ele>613</ele>
        <time>2019-04-02T14:29:26Z</time>
      </trkpt>
      <trkpt lat="44.32943" lon="5.85832">
        <ele>613</ele>
        <time>2019-04-02T14:29:27Z</time>
      </trkpt>
      <trkpt lat="44.32943" lon="5.85822">
        <ele>613</ele>
        <time>2019-04-02T14:29:28Z</time>
      </trkpt>
      <trkpt lat="44.32943" lon="5.85813">
        <ele>613</ele>
        <time>2019-04-02T14:29:29Z</time>
      </trkpt>
      <trkpt lat="44.32943" lon="5.85804">
        <ele>613</ele>
        <time>2019-04-02T14:29:30Z</time>
      </trkpt>
      <trkpt lat="44.32943" lon="5.85795">
        <ele>613</ele>
        <time>2019-04-02T14:29:31Z</time>
      </trkpt>
      <trkpt lat="44.32942" lon="5.85787">
        <ele>613</ele>
        <time>2019-04-02T14:29:32Z</time>
      </trkpt>
      <trkpt lat="44.32942" lon="5.85778">
        <ele>613</ele>
        <time>2019-04-02T14:29:33Z</time>
      </trkpt>
      <trkpt lat="44.32942" lon="5.8577">
        <ele>613</ele>
        <time>2019-04-02T14:29:34Z</time>
      </trkpt>
      <trkpt lat="44.32942" lon="5.85762">
        <ele>613</ele>
        <time>2019-04-02T14:29:35Z</time>
      </trkpt>
      <trkpt lat="44.32942" lon="5.85754">
        <ele>613</ele>
        <time>2019-04-02T14:29:36Z</time>
      </trkpt>
      <trkpt lat="44.32943" lon="5.85746">
        <ele>613</ele>
        <time>2019-04-02T14:29:37Z</time>
      </trkpt>
      <trkpt lat="44.32943" lon="5.85739">
        <ele>613</ele>
        <time>2019-04-02T14:29:38Z</time>
      </trkpt>
      <trkpt lat="44.32943" lon="5.85732">
        <ele>613</ele>
        <time>2019-04-02T14:29:39Z</time>
      </trkpt>
      <trkpt lat="44.32943" lon="5.85724">
        <ele>613</ele>
        <time>2019-04-02T14:29:40Z</time>
      </trkpt>
      <trkpt lat="44.32943" lon="5.85717">
        <ele>613</ele>
        <time>2019-04-02T14:29:41Z</time>
      </trkpt>
      <trkpt lat="44.32943" lon="5.8571">
        <ele>613</ele>
        <time>2019-04-02T14:29:42Z</time>
      </trkpt>
      <trkpt lat="44.32943" lon="5.85703">
        <ele>613</ele>
        <time>2019-04-02T14:29:43Z</time>
      </trkpt>
      <trkpt lat="44.32944" lon="5.85695">
        <ele>613</ele>
        <time>2019-04-02T14:29:44Z</time>
      </trkpt>
      <trkpt lat="44.32944" lon="5.85688">
        <ele>613</ele>
        <time>2019-04-02T14:29:45Z</time>
      </trkpt>
      <trkpt lat="44.32944" lon="5.85681">
        <ele>613</ele>
        <time>2019-04-02T14:29:46Z</time>
      </trkpt>
      <trkpt lat="44.32945" lon="5.85673">
        <ele>613</ele>
        <time>2019-04-02T14:29:47Z</time>
      </trkpt>
      <trkpt lat="44.32945" lon="5.85665">
        <ele>613</ele>
        <time>2019-04-02T14:29:48Z</time>
      </trkpt>
      <trkpt lat="44.32946" lon="5.85657">
        <ele>613</ele>
        <time>2019-04-02T14:29:49Z</time>
      </trkpt>
      <trkpt lat="44.32947" lon="5.85649">
        <ele>613</ele>
        <time>2019-04-02T14:29:50Z</time>
      </trkpt>
      <trkpt lat="44.32948" lon="5.85641">
        <ele>613</ele>
        <time>2019-04-02T14:29:51Z</time>
      </trkpt>
      <trkpt lat="44.32948" lon="5.85633">
        <ele>612</ele>
        <time>2019-04-02T14:29:52Z</time>
      </trkpt>
      <trkpt lat="44.32948" lon="5.85624">
        <ele>612</ele>
        <time>2019-04-02T14:29:53Z</time>
      </trkpt>
      <trkpt lat="44.32949" lon="5.85615">
        <ele>612</ele>
        <time>2019-04-02T14:29:54Z</time>
      </trkpt>
      <trkpt lat="44.32949" lon="5.85606">
        <ele>612</ele>
        <time>2019-04-02T14:29:55Z</time>
      </trkpt>
      <trkpt lat="44.32949" lon="5.85597">
        <ele>612</ele>
        <time>2019-04-02T14:29:56Z</time>
      </trkpt>
      <trkpt lat="44.3295" lon="5.85588">
        <ele>612</ele>
        <time>2019-04-02T14:29:57Z</time>
      </trkpt>
      <trkpt lat="44.3295" lon="5.85578">
        <ele>612</ele>
        <time>2019-04-02T14:29:58Z</time>
      </trkpt>
      <trkpt lat="44.3295" lon="5.85569">
        <ele>611</ele>
        <time>2019-04-02T14:29:59Z</time>
      </trkpt>
      <trkpt lat="44.32951" lon="5.8556">
        <ele>611</ele>
        <time>2019-04-02T14:30:00Z</time>
      </trkpt>
      <trkpt lat="44.32951" lon="5.85551">
        <ele>611</ele>
        <time>2019-04-02T14:30:01Z</time>
      </trkpt>
      <trkpt lat="44.32951" lon="5.85541">
        <ele>611</ele>
        <time>2019-04-02T14:30:02Z</time>
      </trkpt>
      <trkpt lat="44.32951" lon="5.85533">
        <ele>611</ele>
        <time>2019-04-02T14:30:03Z</time>
      </trkpt>
      <trkpt lat="44.32951" lon="5.85523">
        <ele>611</ele>
        <time>2019-04-02T14:30:04Z</time>
      </trkpt>
      <trkpt lat="44.32951" lon="5.85514">
        <ele>611</ele>
        <time>2019-04-02T14:30:05Z</time>
      </trkpt>
      <trkpt lat="44.32951" lon="5.85504">
        <ele>611</ele>
        <time>2019-04-02T14:30:06Z</time>
      </trkpt>
      <trkpt lat="44.32951" lon="5.85495">
        <ele>611</ele>
        <time>2019-04-02T14:30:07Z</time>
      </trkpt>
      <trkpt lat="44.32951" lon="5.85485">
        <ele>611</ele>
        <time>2019-04-02T14:30:08Z</time>
      </trkpt>
      <trkpt lat="44.3295" lon="5.85475">
        <ele>611</ele>
        <time>2019-04-02T14:30:09Z</time>
      </trkpt>
      <trkpt lat="44.32951" lon="5.85465">
        <ele>610</ele>
        <time>2019-04-02T14:30:10Z</time>
      </trkpt>
      <trkpt lat="44.32951" lon="5.85456">
        <ele>610</ele>
        <time>2019-04-02T14:30:11Z</time>
      </trkpt>
      <trkpt lat="44.32951" lon="5.85446">
        <ele>610</ele>
        <time>2019-04-02T14:30:12Z</time>
      </trkpt>
      <trkpt lat="44.32951" lon="5.85436">
        <ele>610</ele>
        <time>2019-04-02T14:30:13Z</time>
      </trkpt>
      <trkpt lat="44.32951" lon="5.85427">
        <ele>610</ele>
        <time>2019-04-02T14:30:14Z</time>
      </trkpt>
      <trkpt lat="44.32951" lon="5.85418">
        <ele>610</ele>
        <time>2019-04-02T14:30:15Z</time>
      </trkpt>
      <trkpt lat="44.32951" lon="5.85408">
        <ele>610</ele>
        <time>2019-04-02T14:30:16Z</time>
      </trkpt>
      <trkpt lat="44.32952" lon="5.85399">
        <ele>610</ele>
        <time>2019-04-02T14:30:17Z</time>
      </trkpt>
      <trkpt lat="44.32952" lon="5.85391">
        <ele>610</ele>
        <time>2019-04-02T14:30:18Z</time>
      </trkpt>
      <trkpt lat="44.32952" lon="5.85382">
        <ele>609</ele>
        <time>2019-04-02T14:30:19Z</time>
      </trkpt>
      <trkpt lat="44.32952" lon="5.85373">
        <ele>609</ele>
        <time>2019-04-02T14:30:20Z</time>
      </trkpt>
      <trkpt lat="44.32952" lon="5.85364">
        <ele>609</ele>
        <time>2019-04-02T14:30:21Z</time>
      </trkpt>
      <trkpt lat="44.32952" lon="5.85356">
        <ele>609</ele>
        <time>2019-04-02T14:30:22Z</time>
      </trkpt>
      <trkpt lat="44.32952" lon="5.85349">
        <ele>609</ele>
        <time>2019-04-02T14:30:23Z</time>
      </trkpt>
      <trkpt lat="44.32952" lon="5.85341">
        <ele>609</ele>
        <time>2019-04-02T14:30:24Z</time>
      </trkpt>
      <trkpt lat="44.32952" lon="5.85333">
        <ele>609</ele>
        <time>2019-04-02T14:30:25Z</time>
      </trkpt>
      <trkpt lat="44.32952" lon="5.85325">
        <ele>609</ele>
        <time>2019-04-02T14:30:26Z</time>
      </trkpt>
      <trkpt lat="44.32952" lon="5.85318">
        <ele>609</ele>
        <time>2019-04-02T14:30:27Z</time>
      </trkpt>
      <trkpt lat="44.32952" lon="5.8531">
        <ele>609</ele>
        <time>2019-04-02T14:30:28Z</time>
      </trkpt>
      <trkpt lat="44.32952" lon="5.85302">
        <ele>609</ele>
        <time>2019-04-02T14:30:29Z</time>
      </trkpt>
      <trkpt lat="44.32952" lon="5.85293">
        <ele>609</ele>
        <time>2019-04-02T14:30:30Z</time>
      </trkpt>
      <trkpt lat="44.32952" lon="5.85285">
        <ele>609</ele>
        <time>2019-04-02T14:30:31Z</time>
      </trkpt>
      <trkpt lat="44.32952" lon="5.85277">
        <ele>609</ele>
        <time>2019-04-02T14:30:32Z</time>
      </trkpt>
      <trkpt lat="44.32952" lon="5.85268">
        <ele>609</ele>
        <time>2019-04-02T14:30:33Z</time>
      </trkpt>
      <trkpt lat="44.32952" lon="5.85259">
        <ele>609</ele>
        <time>2019-04-02T14:30:34Z</time>
      </trkpt>
      <trkpt lat="44.32952" lon="5.85251">
        <ele>609</ele>
        <time>2019-04-02T14:30:35Z</time>
      </trkpt>
      <trkpt lat="44.32952" lon="5.85242">
        <ele>609</ele>
        <time>2019-04-02T14:30:36Z</time>
      </trkpt>
      <trkpt lat="44.32952" lon="5.85233">
        <ele>609</ele>
        <time>2019-04-02T14:30:37Z</time>
      </trkpt>
      <trkpt lat="44.32952" lon="5.85225">
        <ele>609</ele>
        <time>2019-04-02T14:30:38Z</time>
      </trkpt>
      <trkpt lat="44.32952" lon="5.85217">
        <ele>609</ele>
        <time>2019-04-02T14:30:39Z</time>
      </trkpt>
      <trkpt lat="44.32952" lon="5.85209">
        <ele>609</ele>
        <time>2019-04-02T14:30:40Z</time>
      </trkpt>
      <trkpt lat="44.32952" lon="5.852">
        <ele>609</ele>
        <time>2019-04-02T14:30:41Z</time>
      </trkpt>
      <trkpt lat="44.32953" lon="5.85191">
        <ele>609</ele>
        <time>2019-04-02T14:30:42Z</time>
      </trkpt>
      <trkpt lat="44.32953" lon="5.85183">
        <ele>609</ele>
        <time>2019-04-02T14:30:43Z</time>
      </trkpt>
      <trkpt lat="44.32952" lon="5.85174">
        <ele>609</ele>
        <time>2019-04-02T14:30:44Z</time>
      </trkpt>
      <trkpt lat="44.32952" lon="5.85165">
        <ele>609</ele>
        <time>2019-04-02T14:30:45Z</time>
      </trkpt>
      <trkpt lat="44.32951" lon="5.85156">
        <ele>609</ele>
        <time>2019-04-02T14:30:46Z</time>
      </trkpt>
      <trkpt lat="44.32951" lon="5.85147">
        <ele>609</ele>
        <time>2019-04-02T14:30:47Z</time>
      </trkpt>
      <trkpt lat="44.3295" lon="5.85139">
        <ele>609</ele>
        <time>2019-04-02T14:30:48Z</time>
      </trkpt>
      <trkpt lat="44.32949" lon="5.85131">
        <ele>609</ele>
        <time>2019-04-02T14:30:49Z</time>
      </trkpt>
      <trkpt lat="44.32947" lon="5.85122">
        <ele>609</ele>
        <time>2019-04-02T14:30:50Z</time>
      </trkpt>
      <trkpt lat="44.32945" lon="5.85115">
        <ele>609</ele>
        <time>2019-04-02T14:30:51Z</time>
      </trkpt>
      <trkpt lat="44.32943" lon="5.85108">
        <ele>609</ele>
        <time>2019-04-02T14:30:52Z</time>
      </trkpt>
      <trkpt lat="44.3294" lon="5.851">
        <ele>609</ele>
        <time>2019-04-02T14:30:53Z</time>
      </trkpt>
      <trkpt lat="44.32938" lon="5.85093">
        <ele>609</ele>
        <time>2019-04-02T14:30:54Z</time>
      </trkpt>
      <trkpt lat="44.32934" lon="5.85086">
        <ele>608</ele>
        <time>2019-04-02T14:30:55Z</time>
      </trkpt>
      <trkpt lat="44.3293" lon="5.85079">
        <ele>608</ele>
        <time>2019-04-02T14:30:56Z</time>
      </trkpt>
      <trkpt lat="44.32927" lon="5.85072">
        <ele>608</ele>
        <time>2019-04-02T14:30:57Z</time>
      </trkpt>
      <trkpt lat="44.32922" lon="5.85065">
        <ele>608</ele>
        <time>2019-04-02T14:30:58Z</time>
      </trkpt>
      <trkpt lat="44.32918" lon="5.85059">
        <ele>608</ele>
        <time>2019-04-02T14:30:59Z</time>
      </trkpt>
      <trkpt lat="44.32914" lon="5.85053">
        <ele>608</ele>
        <time>2019-04-02T14:31:00Z</time>
      </trkpt>
      <trkpt lat="44.32911" lon="5.85046">
        <ele>608</ele>
        <time>2019-04-02T14:31:01Z</time>
      </trkpt>
      <trkpt lat="44.32907" lon="5.85039">
        <ele>608</ele>
        <time>2019-04-02T14:31:02Z</time>
      </trkpt>
      <trkpt lat="44.32903" lon="5.85032">
        <ele>608</ele>
        <time>2019-04-02T14:31:03Z</time>
      </trkpt>
      <trkpt lat="44.32898" lon="5.85027">
        <ele>608</ele>
        <time>2019-04-02T14:31:04Z</time>
      </trkpt>
      <trkpt lat="44.32893" lon="5.85022">
        <ele>608</ele>
        <time>2019-04-02T14:31:05Z</time>
      </trkpt>
      <trkpt lat="44.32887" lon="5.85017">
        <ele>608</ele>
        <time>2019-04-02T14:31:06Z</time>
      </trkpt>
      <trkpt lat="44.32881" lon="5.85014">
        <ele>608</ele>
        <time>2019-04-02T14:31:07Z</time>
      </trkpt>
      <trkpt lat="44.32875" lon="5.8501">
        <ele>608</ele>
        <time>2019-04-02T14:31:08Z</time>
      </trkpt>
      <trkpt lat="44.32869" lon="5.85009">
        <ele>608</ele>
        <time>2019-04-02T14:31:09Z</time>
      </trkpt>
      <trkpt lat="44.32863" lon="5.85009">
        <ele>608</ele>
        <time>2019-04-02T14:31:10Z</time>
      </trkpt>
      <trkpt lat="44.32856" lon="5.85009">
        <ele>608</ele>
        <time>2019-04-02T14:31:11Z</time>
      </trkpt>
      <trkpt lat="44.3285" lon="5.85011">
        <ele>608</ele>
        <time>2019-04-02T14:31:12Z</time>
      </trkpt>
      <trkpt lat="44.32843" lon="5.85013">
        <ele>608</ele>
        <time>2019-04-02T14:31:13Z</time>
      </trkpt>
      <trkpt lat="44.32837" lon="5.85016">
        <ele>608</ele>
        <time>2019-04-02T14:31:14Z</time>
      </trkpt>
      <trkpt lat="44.32831" lon="5.85019">
        <ele>608</ele>
        <time>2019-04-02T14:31:15Z</time>
      </trkpt>
      <trkpt lat="44.32825" lon="5.85022">
        <ele>608</ele>
        <time>2019-04-02T14:31:16Z</time>
      </trkpt>
      <trkpt lat="44.32819" lon="5.85024">
        <ele>608</ele>
        <time>2019-04-02T14:31:17Z</time>
      </trkpt>
      <trkpt lat="44.32813" lon="5.85027">
        <ele>608</ele>
        <time>2019-04-02T14:31:18Z</time>
      </trkpt>
      <trkpt lat="44.32806" lon="5.85029">
        <ele>608</ele>
        <time>2019-04-02T14:31:19Z</time>
      </trkpt>
      <trkpt lat="44.32799" lon="5.85029">
        <ele>608</ele>
        <time>2019-04-02T14:31:20Z</time>
      </trkpt>
      <trkpt lat="44.32792" lon="5.85027">
        <ele>608</ele>
        <time>2019-04-02T14:31:21Z</time>
      </trkpt>
      <trkpt lat="44.32786" lon="5.85023">
        <ele>608</ele>
        <time>2019-04-02T14:31:22Z</time>
      </trkpt>
      <trkpt lat="44.32779" lon="5.85018">
        <ele>608</ele>
        <time>2019-04-02T14:31:23Z</time>
      </trkpt>
      <trkpt lat="44.32773" lon="5.85011">
        <ele>607</ele>
        <time>2019-04-02T14:31:24Z</time>
      </trkpt>
      <trkpt lat="44.32768" lon="5.85003">
        <ele>607</ele>
        <time>2019-04-02T14:31:25Z</time>
      </trkpt>
      <trkpt lat="44.32764" lon="5.84993">
        <ele>606</ele>
        <time>2019-04-02T14:31:26Z</time>
      </trkpt>
      <trkpt lat="44.32761" lon="5.84982">
        <ele>606</ele>
        <time>2019-04-02T14:31:27Z</time>
      </trkpt>
      <trkpt lat="44.32758" lon="5.84971">
        <ele>605</ele>
        <time>2019-04-02T14:31:28Z</time>
      </trkpt>
      <trkpt lat="44.32757" lon="5.84959">
        <ele>605</ele>
        <time>2019-04-02T14:31:29Z</time>
      </trkpt>
      <trkpt lat="44.32756" lon="5.84947">
        <ele>604</ele>
        <time>2019-04-02T14:31:30Z</time>
      </trkpt>
      <trkpt lat="44.32756" lon="5.84936">
        <ele>604</ele>
        <time>2019-04-02T14:31:31Z</time>
      </trkpt>
      <trkpt lat="44.32755" lon="5.84925">
        <ele>604</ele>
        <time>2019-04-02T14:31:32Z</time>
      </trkpt>
      <trkpt lat="44.32755" lon="5.84914">
        <ele>603</ele>
        <time>2019-04-02T14:31:33Z</time>
      </trkpt>
      <trkpt lat="44.32755" lon="5.84902">
        <ele>603</ele>
        <time>2019-04-02T14:31:34Z</time>
      </trkpt>
      <trkpt lat="44.32756" lon="5.84892">
        <ele>602</ele>
        <time>2019-04-02T14:31:35Z</time>
      </trkpt>
      <trkpt lat="44.32756" lon="5.8488">
        <ele>602</ele>
        <time>2019-04-02T14:31:36Z</time>
      </trkpt>
      <trkpt lat="44.32756" lon="5.84869">
        <ele>602</ele>
        <time>2019-04-02T14:31:37Z</time>
      </trkpt>
      <trkpt lat="44.32756" lon="5.84859">
        <ele>601</ele>
        <time>2019-04-02T14:31:38Z</time>
      </trkpt>
      <trkpt lat="44.32756" lon="5.84847">
        <ele>601</ele>
        <time>2019-04-02T14:31:39Z</time>
      </trkpt>
      <trkpt lat="44.32756" lon="5.84836">
        <ele>601</ele>
        <time>2019-04-02T14:31:40Z</time>
      </trkpt>
      <trkpt lat="44.32756" lon="5.84826">
        <ele>600</ele>
        <time>2019-04-02T14:31:41Z</time>
      </trkpt>
      <trkpt lat="44.32756" lon="5.84815">
        <ele>600</ele>
        <time>2019-04-02T14:31:42Z</time>
      </trkpt>
      <trkpt lat="44.32756" lon="5.84805">
        <ele>600</ele>
        <time>2019-04-02T14:31:43Z</time>
      </trkpt>
      <trkpt lat="44.32756" lon="5.84795">
        <ele>600</ele>
        <time>2019-04-02T14:31:44Z</time>
      </trkpt>
      <trkpt lat="44.32756" lon="5.84785">
        <ele>599</ele>
        <time>2019-04-02T14:31:45Z</time>
      </trkpt>
      <trkpt lat="44.32756" lon="5.84774">
        <ele>599</ele>
        <time>2019-04-02T14:31:46Z</time>
      </trkpt>
      <trkpt lat="44.32755" lon="5.84764">
        <ele>599</ele>
        <time>2019-04-02T14:31:47Z</time>
      </trkpt>
      <trkpt lat="44.32755" lon="5.84754">
        <ele>599</ele>
        <time>2019-04-02T14:31:48Z</time>
      </trkpt>
      <trkpt lat="44.32754" lon="5.84744">
        <ele>599</ele>
        <time>2019-04-02T14:31:49Z</time>
      </trkpt>
      <trkpt lat="44.32754" lon="5.84734">
        <ele>599</ele>
        <time>2019-04-02T14:31:50Z</time>
      </trkpt>
      <trkpt lat="44.32753" lon="5.84724">
        <ele>599</ele>
        <time>2019-04-02T14:31:51Z</time>
      </trkpt>
      <trkpt lat="44.32753" lon="5.84713">
        <ele>599</ele>
        <time>2019-04-02T14:31:52Z</time>
      </trkpt>
      <trkpt lat="44.32753" lon="5.84703">
        <ele>599</ele>
        <time>2019-04-02T14:31:53Z</time>
      </trkpt>
      <trkpt lat="44.32753" lon="5.84693">
        <ele>599</ele>
        <time>2019-04-02T14:31:54Z</time>
      </trkpt>
      <trkpt lat="44.32753" lon="5.84682">
        <ele>599</ele>
        <time>2019-04-02T14:31:55Z</time>
      </trkpt>
      <trkpt lat="44.32755" lon="5.84672">
        <ele>598</ele>
        <time>2019-04-02T14:31:56Z</time>
      </trkpt>
      <trkpt lat="44.32756" lon="5.84661">
        <ele>598</ele>
        <time>2019-04-02T14:31:57Z</time>
      </trkpt>
      <trkpt lat="44.32758" lon="5.84651">
        <ele>598</ele>
        <time>2019-04-02T14:31:58Z</time>
      </trkpt>
      <trkpt lat="44.32761" lon="5.84641">
        <ele>598</ele>
        <time>2019-04-02T14:31:59Z</time>
      </trkpt>
      <trkpt lat="44.32763" lon="5.8463">
        <ele>597</ele>
        <time>2019-04-02T14:32:00Z</time>
      </trkpt>
      <trkpt lat="44.32766" lon="5.8462">
        <ele>597</ele>
        <time>2019-04-02T14:32:01Z</time>
      </trkpt>
      <trkpt lat="44.32769" lon="5.8461">
        <ele>597</ele>
        <time>2019-04-02T14:32:02Z</time>
      </trkpt>
      <trkpt lat="44.32772" lon="5.846">
        <ele>597</ele>
        <time>2019-04-02T14:32:03Z</time>
      </trkpt>
      <trkpt lat="44.32774" lon="5.8459">
        <ele>596</ele>
        <time>2019-04-02T14:32:04Z</time>
      </trkpt>
      <trkpt lat="44.32776" lon="5.8458">
        <ele>596</ele>
        <time>2019-04-02T14:32:05Z</time>
      </trkpt>
      <trkpt lat="44.32779" lon="5.8457">
        <ele>596</ele>
        <time>2019-04-02T14:32:06Z</time>
      </trkpt>
      <trkpt lat="44.32782" lon="5.84559">
        <ele>596</ele>
        <time>2019-04-02T14:32:07Z</time>
      </trkpt>
      <trkpt lat="44.32784" lon="5.84549">
        <ele>595</ele>
        <time>2019-04-02T14:32:08Z</time>
      </trkpt>
      <trkpt lat="44.32786" lon="5.84539">
        <ele>595</ele>
        <time>2019-04-02T14:32:09Z</time>
      </trkpt>
      <trkpt lat="44.32789" lon="5.84529">
        <ele>595</ele>
        <time>2019-04-02T14:32:10Z</time>
      </trkpt>
      <trkpt lat="44.32791" lon="5.84519">
        <ele>595</ele>
        <time>2019-04-02T14:32:11Z</time>
      </trkpt>
      <trkpt lat="44.32794" lon="5.8451">
        <ele>595</ele>
        <time>2019-04-02T14:32:12Z</time>
      </trkpt>
      <trkpt lat="44.32796" lon="5.845">
        <ele>594</ele>
        <time>2019-04-02T14:32:13Z</time>
      </trkpt>
      <trkpt lat="44.32799" lon="5.8449">
        <ele>594</ele>
        <time>2019-04-02T14:32:14Z</time>
      </trkpt>
      <trkpt lat="44.32801" lon="5.8448">
        <ele>594</ele>
        <time>2019-04-02T14:32:15Z</time>
      </trkpt>
      <trkpt lat="44.32803" lon="5.84471">
        <ele>594</ele>
        <time>2019-04-02T14:32:16Z</time>
      </trkpt>
      <trkpt lat="44.32805" lon="5.8446">
        <ele>593</ele>
        <time>2019-04-02T14:32:17Z</time>
      </trkpt>
      <trkpt lat="44.32806" lon="5.8445">
        <ele>593</ele>
        <time>2019-04-02T14:32:18Z</time>
      </trkpt>
      <trkpt lat="44.32806" lon="5.84439">
        <ele>593</ele>
        <time>2019-04-02T14:32:19Z</time>
      </trkpt>
      <trkpt lat="44.32806" lon="5.84428">
        <ele>593</ele>
        <time>2019-04-02T14:32:20Z</time>
      </trkpt>
      <trkpt lat="44.32805" lon="5.84417">
        <ele>592</ele>
        <time>2019-04-02T14:32:21Z</time>
      </trkpt>
      <trkpt lat="44.32804" lon="5.84405">
        <ele>592</ele>
        <time>2019-04-02T14:32:22Z</time>
      </trkpt>
      <trkpt lat="44.32803" lon="5.84394">
        <ele>591</ele>
        <time>2019-04-02T14:32:23Z</time>
      </trkpt>
      <trkpt lat="44.32801" lon="5.84381">
        <ele>591</ele>
        <time>2019-04-02T14:32:24Z</time>
      </trkpt>
      <trkpt lat="44.32799" lon="5.8437">
        <ele>590</ele>
        <time>2019-04-02T14:32:25Z</time>
      </trkpt>
      <trkpt lat="44.32798" lon="5.84357">
        <ele>590</ele>
        <time>2019-04-02T14:32:26Z</time>
      </trkpt>
      <trkpt lat="44.32796" lon="5.84345">
        <ele>589</ele>
        <time>2019-04-02T14:32:27Z</time>
      </trkpt>
      <trkpt lat="44.32795" lon="5.84332">
        <ele>589</ele>
        <time>2019-04-02T14:32:28Z</time>
      </trkpt>
      <trkpt lat="44.32793" lon="5.84319">
        <ele>588</ele>
        <time>2019-04-02T14:32:29Z</time>
      </trkpt>
      <trkpt lat="44.32792" lon="5.84306">
        <ele>587</ele>
        <time>2019-04-02T14:32:30Z</time>
      </trkpt>
      <trkpt lat="44.3279" lon="5.84293">
        <ele>587</ele>
        <time>2019-04-02T14:32:31Z</time>
      </trkpt>
      <trkpt lat="44.32788" lon="5.8428">
        <ele>586</ele>
        <time>2019-04-02T14:32:32Z</time>
      </trkpt>
      <trkpt lat="44.32787" lon="5.84266">
        <ele>586</ele>
        <time>2019-04-02T14:32:33Z</time>
      </trkpt>
      <trkpt lat="44.32785" lon="5.84252">
        <ele>585</ele>
        <time>2019-04-02T14:32:34Z</time>
      </trkpt>
      <trkpt lat="44.32783" lon="5.84238">
        <ele>585</ele>
        <time>2019-04-02T14:32:35Z</time>
      </trkpt>
      <trkpt lat="44.32781" lon="5.84224">
        <ele>584</ele>
        <time>2019-04-02T14:32:36Z</time>
      </trkpt>
      <trkpt lat="44.32779" lon="5.8421">
        <ele>584</ele>
        <time>2019-04-02T14:32:37Z</time>
      </trkpt>
      <trkpt lat="44.32777" lon="5.84195">
        <ele>584</ele>
        <time>2019-04-02T14:32:38Z</time>
      </trkpt>
      <trkpt lat="44.32775" lon="5.8418">
        <ele>583</ele>
        <time>2019-04-02T14:32:39Z</time>
      </trkpt>
      <trkpt lat="44.32773" lon="5.84166">
        <ele>583</ele>
        <time>2019-04-02T14:32:40Z</time>
      </trkpt>
      <trkpt lat="44.32772" lon="5.84152">
        <ele>583</ele>
        <time>2019-04-02T14:32:41Z</time>
      </trkpt>
      <trkpt lat="44.3277" lon="5.84138">
        <ele>583</ele>
        <time>2019-04-02T14:32:42Z</time>
      </trkpt>
      <trkpt lat="44.32768" lon="5.84125">
        <ele>583</ele>
        <time>2019-04-02T14:32:43Z</time>
      </trkpt>
      <trkpt lat="44.32767" lon="5.84111">
        <ele>583</ele>
        <time>2019-04-02T14:32:44Z</time>
      </trkpt>
      <trkpt lat="44.32765" lon="5.84099">
        <ele>583</ele>
        <time>2019-04-02T14:32:45Z</time>
      </trkpt>
      <trkpt lat="44.32763" lon="5.84086">
        <ele>583</ele>
        <time>2019-04-02T14:32:46Z</time>
      </trkpt>
      <trkpt lat="44.32761" lon="5.84075">
        <ele>583</ele>
        <time>2019-04-02T14:32:47Z</time>
      </trkpt>
      <trkpt lat="44.32757" lon="5.84064">
        <ele>582</ele>
        <time>2019-04-02T14:32:48Z</time>
      </trkpt>
      <trkpt lat="44.32753" lon="5.84054">
        <ele>582</ele>
        <time>2019-04-02T14:32:49Z</time>
      </trkpt>
      <trkpt lat="44.32748" lon="5.84045">
        <ele>582</ele>
        <time>2019-04-02T14:32:50Z</time>
      </trkpt>
      <trkpt lat="44.32742" lon="5.84036">
        <ele>582</ele>
        <time>2019-04-02T14:32:51Z</time>
      </trkpt>
      <trkpt lat="44.32735" lon="5.84027">
        <ele>582</ele>
        <time>2019-04-02T14:32:52Z</time>
      </trkpt>
      <trkpt lat="44.3273" lon="5.84018">
        <ele>582</ele>
        <time>2019-04-02T14:32:53Z</time>
      </trkpt>
      <trkpt lat="44.32724" lon="5.84009">
        <ele>582</ele>
        <time>2019-04-02T14:32:54Z</time>
      </trkpt>
      <trkpt lat="44.32719" lon="5.84">
        <ele>582</ele>
        <time>2019-04-02T14:32:55Z</time>
      </trkpt>
      <trkpt lat="44.32714" lon="5.83991">
        <ele>582</ele>
        <time>2019-04-02T14:32:56Z</time>
      </trkpt>
      <trkpt lat="44.3271" lon="5.8398">
        <ele>582</ele>
        <time>2019-04-02T14:32:57Z</time>
      </trkpt>
      <trkpt lat="44.32706" lon="5.83969">
        <ele>582</ele>
        <time>2019-04-02T14:32:58Z</time>
      </trkpt>
      <trkpt lat="44.32703" lon="5.83958">
        <ele>581</ele>
        <time>2019-04-02T14:32:59Z</time>
      </trkpt>
      <trkpt lat="44.327" lon="5.83947">
        <ele>581</ele>
        <time>2019-04-02T14:33:00Z</time>
      </trkpt>
      <trkpt lat="44.32698" lon="5.83934">
        <ele>581</ele>
        <time>2019-04-02T14:33:01Z</time>
      </trkpt>
      <trkpt lat="44.32697" lon="5.83922">
        <ele>581</ele>
        <time>2019-04-02T14:33:02Z</time>
      </trkpt>
      <trkpt lat="44.32696" lon="5.83911">
        <ele>581</ele>
        <time>2019-04-02T14:33:03Z</time>
      </trkpt>
      <trkpt lat="44.32696" lon="5.83898">
        <ele>581</ele>
        <time>2019-04-02T14:33:04Z</time>
      </trkpt>
      <trkpt lat="44.32695" lon="5.83886">
        <ele>581</ele>
        <time>2019-04-02T14:33:05Z</time>
      </trkpt>
      <trkpt lat="44.32694" lon="5.83875">
        <ele>581</ele>
        <time>2019-04-02T14:33:06Z</time>
      </trkpt>
      <trkpt lat="44.32692" lon="5.83864">
        <ele>581</ele>
        <time>2019-04-02T14:33:07Z</time>
      </trkpt>
      <trkpt lat="44.32691" lon="5.83852">
        <ele>580</ele>
        <time>2019-04-02T14:33:08Z</time>
      </trkpt>
      <trkpt lat="44.32689" lon="5.83841">
        <ele>580</ele>
        <time>2019-04-02T14:33:09Z</time>
      </trkpt>
      <trkpt lat="44.32686" lon="5.8383">
        <ele>580</ele>
        <time>2019-04-02T14:33:10Z</time>
      </trkpt>
      <trkpt lat="44.32684" lon="5.83819">
        <ele>580</ele>
        <time>2019-04-02T14:33:11Z</time>
      </trkpt>
      <trkpt lat="44.32681" lon="5.83808">
        <ele>579</ele>
        <time>2019-04-02T14:33:12Z</time>
      </trkpt>
      <trkpt lat="44.32678" lon="5.83798">
        <ele>579</ele>
        <time>2019-04-02T14:33:13Z</time>
      </trkpt>
      <trkpt lat="44.32676" lon="5.83787">
        <ele>579</ele>
        <time>2019-04-02T14:33:14Z</time>
      </trkpt>
      <trkpt lat="44.32673" lon="5.83777">
        <ele>579</ele>
        <time>2019-04-02T14:33:15Z</time>
      </trkpt>
      <trkpt lat="44.3267" lon="5.83766">
        <ele>579</ele>
        <time>2019-04-02T14:33:16Z</time>
      </trkpt>
      <trkpt lat="44.32667" lon="5.83756">
        <ele>579</ele>
        <time>2019-04-02T14:33:17Z</time>
      </trkpt>
      <trkpt lat="44.32664" lon="5.83746">
        <ele>579</ele>
        <time>2019-04-02T14:33:18Z</time>
      </trkpt>
      <trkpt lat="44.32662" lon="5.83736">
        <ele>579</ele>
        <time>2019-04-02T14:33:19Z</time>
      </trkpt>
      <trkpt lat="44.32659" lon="5.83725">
        <ele>579</ele>
        <time>2019-04-02T14:33:20Z</time>
      </trkpt>
      <trkpt lat="44.32657" lon="5.83715">
        <ele>579</ele>
        <time>2019-04-02T14:33:21Z</time>
      </trkpt>
      <trkpt lat="44.32654" lon="5.83704">
        <ele>579</ele>
        <time>2019-04-02T14:33:22Z</time>
      </trkpt>
      <trkpt lat="44.32651" lon="5.83694">
        <ele>579</ele>
        <time>2019-04-02T14:33:23Z</time>
      </trkpt>
      <trkpt lat="44.32649" lon="5.83683">
        <ele>579</ele>
        <time>2019-04-02T14:33:24Z</time>
      </trkpt>
      <trkpt lat="44.32646" lon="5.83672">
        <ele>579</ele>
        <time>2019-04-02T14:33:25Z</time>
      </trkpt>
      <trkpt lat="44.32643" lon="5.83661">
        <ele>579</ele>
        <time>2019-04-02T14:33:26Z</time>
      </trkpt>
      <trkpt lat="44.3264" lon="5.8365">
        <ele>579</ele>
        <time>2019-04-02T14:33:27Z</time>
      </trkpt>
      <trkpt lat="44.32637" lon="5.83639">
        <ele>579</ele>
        <time>2019-04-02T14:33:28Z</time>
      </trkpt>
      <trkpt lat="44.32635" lon="5.83629">
        <ele>579</ele>
        <time>2019-04-02T14:33:29Z</time>
      </trkpt>
      <trkpt lat="44.32632" lon="5.83618">
        <ele>579</ele>
        <time>2019-04-02T14:33:30Z</time>
      </trkpt>
      <trkpt lat="44.3263" lon="5.83607">
        <ele>579</ele>
        <time>2019-04-02T14:33:31Z</time>
      </trkpt>
      <trkpt lat="44.32629" lon="5.83597">
        <ele>579</ele>
        <time>2019-04-02T14:33:32Z</time>
      </trkpt>
      <trkpt lat="44.32627" lon="5.83586">
        <ele>579</ele>
        <time>2019-04-02T14:33:33Z</time>
      </trkpt>
      <trkpt lat="44.32626" lon="5.83576">
        <ele>579</ele>
        <time>2019-04-02T14:33:34Z</time>
      </trkpt>
      <trkpt lat="44.32626" lon="5.83566">
        <ele>579</ele>
        <time>2019-04-02T14:33:35Z</time>
      </trkpt>
      <trkpt lat="44.32626" lon="5.83557">
        <ele>579</ele>
        <time>2019-04-02T14:33:36Z</time>
      </trkpt>
      <trkpt lat="44.32627" lon="5.83547">
        <ele>579</ele>
        <time>2019-04-02T14:33:37Z</time>
      </trkpt>
      <trkpt lat="44.32627" lon="5.83538">
        <ele>579</ele>
        <time>2019-04-02T14:33:38Z</time>
      </trkpt>
      <trkpt lat="44.32628" lon="5.83529">
        <ele>579</ele>
        <time>2019-04-02T14:33:39Z</time>
      </trkpt>
      <trkpt lat="44.32629" lon="5.8352">
        <ele>579</ele>
        <time>2019-04-02T14:33:40Z</time>
      </trkpt>
      <trkpt lat="44.3263" lon="5.83511">
        <ele>579</ele>
        <time>2019-04-02T14:33:41Z</time>
      </trkpt>
      <trkpt lat="44.32631" lon="5.83502">
        <ele>579</ele>
        <time>2019-04-02T14:33:42Z</time>
      </trkpt>
      <trkpt lat="44.32632" lon="5.83493">
        <ele>579</ele>
        <time>2019-04-02T14:33:43Z</time>
      </trkpt>
      <trkpt lat="44.32633" lon="5.83485">
        <ele>579</ele>
        <time>2019-04-02T14:33:44Z</time>
      </trkpt>
      <trkpt lat="44.32634" lon="5.83477">
        <ele>579</ele>
        <time>2019-04-02T14:33:45Z</time>
      </trkpt>
      <trkpt lat="44.32635" lon="5.83469">
        <ele>579</ele>
        <time>2019-04-02T14:33:46Z</time>
      </trkpt>
      <trkpt lat="44.32636" lon="5.83461">
        <ele>579</ele>
        <time>2019-04-02T14:33:47Z</time>
      </trkpt>
      <trkpt lat="44.32637" lon="5.83453">
        <ele>579</ele>
        <time>2019-04-02T14:33:48Z</time>
      </trkpt>
      <trkpt lat="44.32638" lon="5.83446">
        <ele>579</ele>
        <time>2019-04-02T14:33:49Z</time>
      </trkpt>
      <trkpt lat="44.32639" lon="5.83437">
        <ele>579</ele>
        <time>2019-04-02T14:33:50Z</time>
      </trkpt>
      <trkpt lat="44.3264" lon="5.83429">
        <ele>579</ele>
        <time>2019-04-02T14:33:51Z</time>
      </trkpt>
      <trkpt lat="44.32641" lon="5.83421">
        <ele>579</ele>
        <time>2019-04-02T14:33:52Z</time>
      </trkpt>
      <trkpt lat="44.32642" lon="5.83414">
        <ele>579</ele>
        <time>2019-04-02T14:33:53Z</time>
      </trkpt>
      <trkpt lat="44.32643" lon="5.83407">
        <ele>579</ele>
        <time>2019-04-02T14:33:54Z</time>
      </trkpt>
      <trkpt lat="44.32644" lon="5.834">
        <ele>579</ele>
        <time>2019-04-02T14:33:55Z</time>
      </trkpt>
      <trkpt lat="44.32645" lon="5.83393">
        <ele>579</ele>
        <time>2019-04-02T14:33:56Z</time>
      </trkpt>
      <trkpt lat="44.32646" lon="5.83386">
        <ele>579</ele>
        <time>2019-04-02T14:33:57Z</time>
      </trkpt>
      <trkpt lat="44.32647" lon="5.83378">
        <ele>579</ele>
        <time>2019-04-02T14:33:58Z</time>
      </trkpt>
      <trkpt lat="44.32648" lon="5.8337">
        <ele>579</ele>
        <time>2019-04-02T14:33:59Z</time>
      </trkpt>
      <trkpt lat="44.32649" lon="5.83363">
        <ele>579</ele>
        <time>2019-04-02T14:34:00Z</time>
      </trkpt>
      <trkpt lat="44.3265" lon="5.83355">
        <ele>579</ele>
        <time>2019-04-02T14:34:01Z</time>
      </trkpt>
      <trkpt lat="44.32651" lon="5.83348">
        <ele>579</ele>
        <time>2019-04-02T14:34:02Z</time>
      </trkpt>
      <trkpt lat="44.32652" lon="5.8334">
        <ele>579</ele>
        <time>2019-04-02T14:34:03Z</time>
      </trkpt>
      <trkpt lat="44.32652" lon="5.83332">
        <ele>579</ele>
        <time>2019-04-02T14:34:04Z</time>
      </trkpt>
      <trkpt lat="44.32653" lon="5.83324">
        <ele>579</ele>
        <time>2019-04-02T14:34:05Z</time>
      </trkpt>
      <trkpt lat="44.32653" lon="5.83317">
        <ele>579</ele>
        <time>2019-04-02T14:34:06Z</time>
      </trkpt>
      <trkpt lat="44.32654" lon="5.83311">
        <ele>579</ele>
        <time>2019-04-02T14:34:07Z</time>
      </trkpt>
      <trkpt lat="44.32655" lon="5.83304">
        <ele>579</ele>
        <time>2019-04-02T14:34:08Z</time>
      </trkpt>
      <trkpt lat="44.32656" lon="5.83299">
        <ele>579</ele>
        <time>2019-04-02T14:34:09Z</time>
      </trkpt>
      <trkpt lat="44.32657" lon="5.83295">
        <ele>579</ele>
        <time>2019-04-02T14:34:10Z</time>
      </trkpt>
      <trkpt lat="44.32658" lon="5.83292">
        <ele>579</ele>
        <time>2019-04-02T14:34:11Z</time>
      </trkpt>
      <trkpt lat="44.32659" lon="5.83288">
        <ele>578</ele>
        <time>2019-04-02T14:34:12Z</time>
      </trkpt>
      <trkpt lat="44.32659" lon="5.83285">
        <ele>578</ele>
        <time>2019-04-02T14:34:13Z</time>
      </trkpt>
      <trkpt lat="44.32659" lon="5.83283">
        <ele>578</ele>
        <time>2019-04-02T14:34:14Z</time>
      </trkpt>
      <trkpt lat="44.32659" lon="5.83281">
        <ele>578</ele>
        <time>2019-04-02T14:34:15Z</time>
      </trkpt>
      <trkpt lat="44.32659" lon="5.8328">
        <ele>578</ele>
        <time>2019-04-02T14:34:17Z</time>
      </trkpt>
      <trkpt lat="44.32659" lon="5.83278">
        <ele>578</ele>
        <time>2019-04-02T14:34:19Z</time>
      </trkpt>
      <trkpt lat="44.32659" lon="5.8328">
        <ele>577</ele>
        <time>2019-04-02T14:34:24Z</time>
      </trkpt>
      <trkpt lat="44.32658" lon="5.83281">
        <ele>573</ele>
        <time>2019-04-02T14:34:40Z</time>
      </trkpt>
      <trkpt lat="44.32658" lon="5.83283">
        <ele>571</ele>
        <time>2019-04-02T14:34:51Z</time>
      </trkpt>
      <trkpt lat="44.32658" lon="5.83282">
        <ele>569</ele>
        <time>2019-04-02T14:35:20Z</time>
      </trkpt>
      <trkpt lat="44.32657" lon="5.8328">
        <ele>570</ele>
        <time>2019-04-02T14:35:33Z</time>
      </trkpt>
      <trkpt lat="44.32657" lon="5.83279">
        <ele>572</ele>
        <time>2019-04-02T14:35:42Z</time>
      </trkpt>
      <trkpt lat="44.32657" lon="5.83277">
        <ele>575</ele>
        <time>2019-04-02T14:36:03Z</time>
      </trkpt>
      <trkpt lat="44.32656" lon="5.83276">
        <ele>577</ele>
        <time>2019-04-02T14:36:22Z</time>
      </trkpt>
      <trkpt lat="44.32656" lon="5.83274">
        <ele>579</ele>
        <time>2019-04-02T14:36:26Z</time>
      </trkpt>
      <trkpt lat="44.32656" lon="5.83276">
        <ele>579</ele>
        <time>2019-04-02T14:36:30Z</time>
      </trkpt>
      <trkpt lat="44.32657" lon="5.83277">
        <ele>579</ele>
        <time>2019-04-02T14:36:35Z</time>
      </trkpt>
      <trkpt lat="44.32655" lon="5.83278">
        <ele>579</ele>
        <time>2019-04-02T14:36:36Z</time>
      </trkpt>
      <trkpt lat="44.32655" lon="5.8328">
        <ele>577</ele>
        <time>2019-04-02T14:36:38Z</time>
      </trkpt>
      <trkpt lat="44.32654" lon="5.83282">
        <ele>575</ele>
        <time>2019-04-02T14:36:40Z</time>
      </trkpt>
      <trkpt lat="44.32653" lon="5.83282">
        <ele>574</ele>
        <time>2019-04-02T14:36:41Z</time>
      </trkpt>
      <trkpt lat="44.32651" lon="5.83282">
        <ele>573</ele>
        <time>2019-04-02T14:36:43Z</time>
      </trkpt>
      <trkpt lat="44.3265" lon="5.83282">
        <ele>573</ele>
        <time>2019-04-02T14:36:46Z</time>
      </trkpt>
      <trkpt lat="44.32651" lon="5.83281">
        <ele>573</ele>
        <time>2019-04-02T14:36:48Z</time>
      </trkpt>
      <trkpt lat="44.32651" lon="5.83279">
        <ele>573</ele>
        <time>2019-04-02T14:36:51Z</time>
      </trkpt>
      <trkpt lat="44.32651" lon="5.83278">
        <ele>573</ele>
        <time>2019-04-02T14:36:52Z</time>
      </trkpt>
      <trkpt lat="44.3265" lon="5.83276">
        <ele>573</ele>
        <time>2019-04-02T14:36:53Z</time>
      </trkpt>
      <trkpt lat="44.3265" lon="5.83273">
        <ele>573</ele>
        <time>2019-04-02T14:36:54Z</time>
      </trkpt>
      <trkpt lat="44.32649" lon="5.83271">
        <ele>573</ele>
        <time>2019-04-02T14:36:55Z</time>
      </trkpt>
      <trkpt lat="44.32647" lon="5.83269">
        <ele>573</ele>
        <time>2019-04-02T14:36:56Z</time>
      </trkpt>
      <trkpt lat="44.32646" lon="5.83267">
        <ele>573</ele>
        <time>2019-04-02T14:36:57Z</time>
      </trkpt>
      <trkpt lat="44.32643" lon="5.83266">
        <ele>573</ele>
        <time>2019-04-02T14:36:58Z</time>
      </trkpt>
      <trkpt lat="44.3264" lon="5.83263">
        <ele>573</ele>
        <time>2019-04-02T14:36:59Z</time>
      </trkpt>
      <trkpt lat="44.32637" lon="5.8326">
        <ele>573</ele>
        <time>2019-04-02T14:37:00Z</time>
      </trkpt>
      <trkpt lat="44.32634" lon="5.83257">
        <ele>573</ele>
        <time>2019-04-02T14:37:01Z</time>
      </trkpt>
      <trkpt lat="44.3263" lon="5.83254">
        <ele>573</ele>
        <time>2019-04-02T14:37:02Z</time>
      </trkpt>
      <trkpt lat="44.32627" lon="5.8325">
        <ele>573</ele>
        <time>2019-04-02T14:37:03Z</time>
      </trkpt>
      <trkpt lat="44.32624" lon="5.83247">
        <ele>573</ele>
        <time>2019-04-02T14:37:04Z</time>
      </trkpt>
      <trkpt lat="44.3262" lon="5.83245">
        <ele>573</ele>
        <time>2019-04-02T14:37:05Z</time>
      </trkpt>
      <trkpt lat="44.32616" lon="5.83242">
        <ele>573</ele>
        <time>2019-04-02T14:37:06Z</time>
      </trkpt>
      <trkpt lat="44.32612" lon="5.8324">
        <ele>573</ele>
        <time>2019-04-02T14:37:07Z</time>
      </trkpt>
      <trkpt lat="44.32608" lon="5.83238">
        <ele>573</ele>
        <time>2019-04-02T14:37:08Z</time>
      </trkpt>
      <trkpt lat="44.32604" lon="5.83235">
        <ele>573</ele>
        <time>2019-04-02T14:37:09Z</time>
      </trkpt>
      <trkpt lat="44.326" lon="5.83232">
        <ele>573</ele>
        <time>2019-04-02T14:37:10Z</time>
      </trkpt>
      <trkpt lat="44.32596" lon="5.83229">
        <ele>573</ele>
        <time>2019-04-02T14:37:11Z</time>
      </trkpt>
      <trkpt lat="44.32591" lon="5.83226">
        <ele>573</ele>
        <time>2019-04-02T14:37:12Z</time>
      </trkpt>
      <trkpt lat="44.32587" lon="5.83224">
        <ele>573</ele>
        <time>2019-04-02T14:37:13Z</time>
      </trkpt>
      <trkpt lat="44.32582" lon="5.83221">
        <ele>573</ele>
        <time>2019-04-02T14:37:14Z</time>
      </trkpt>
      <trkpt lat="44.32577" lon="5.83219">
        <ele>573</ele>
        <time>2019-04-02T14:37:15Z</time>
      </trkpt>
      <trkpt lat="44.32572" lon="5.83216">
        <ele>573</ele>
        <time>2019-04-02T14:37:16Z</time>
      </trkpt>
      <trkpt lat="44.32567" lon="5.83214">
        <ele>573</ele>
        <time>2019-04-02T14:37:17Z</time>
      </trkpt>
      <trkpt lat="44.32562" lon="5.83212">
        <ele>573</ele>
        <time>2019-04-02T14:37:18Z</time>
      </trkpt>
      <trkpt lat="44.32557" lon="5.8321">
        <ele>573</ele>
        <time>2019-04-02T14:37:19Z</time>
      </trkpt>
      <trkpt lat="44.32552" lon="5.83207">
        <ele>573</ele>
        <time>2019-04-02T14:37:20Z</time>
      </trkpt>
      <trkpt lat="44.32547" lon="5.83205">
        <ele>573</ele>
        <time>2019-04-02T14:37:21Z</time>
      </trkpt>
      <trkpt lat="44.32541" lon="5.83202">
        <ele>573</ele>
        <time>2019-04-02T14:37:22Z</time>
      </trkpt>
      <trkpt lat="44.32536" lon="5.832">
        <ele>573</ele>
        <time>2019-04-02T14:37:23Z</time>
      </trkpt>
      <trkpt lat="44.32531" lon="5.83197">
        <ele>573</ele>
        <time>2019-04-02T14:37:24Z</time>
      </trkpt>
      <trkpt lat="44.32525" lon="5.83195">
        <ele>573</ele>
        <time>2019-04-02T14:37:25Z</time>
      </trkpt>
      <trkpt lat="44.3252" lon="5.83192">
        <ele>573</ele>
        <time>2019-04-02T14:37:26Z</time>
      </trkpt>
      <trkpt lat="44.32514" lon="5.8319">
        <ele>573</ele>
        <time>2019-04-02T14:37:27Z</time>
      </trkpt>
      <trkpt lat="44.32508" lon="5.83187">
        <ele>573</ele>
        <time>2019-04-02T14:37:28Z</time>
      </trkpt>
      <trkpt lat="44.32503" lon="5.83185">
        <ele>573</ele>
        <time>2019-04-02T14:37:29Z</time>
      </trkpt>
      <trkpt lat="44.32497" lon="5.83182">
        <ele>573</ele>
        <time>2019-04-02T14:37:30Z</time>
      </trkpt>
      <trkpt lat="44.32491" lon="5.83179">
        <ele>573</ele>
        <time>2019-04-02T14:37:31Z</time>
      </trkpt>
      <trkpt lat="44.32485" lon="5.83176">
        <ele>573</ele>
        <time>2019-04-02T14:37:32Z</time>
      </trkpt>
      <trkpt lat="44.3248" lon="5.83173">
        <ele>573</ele>
        <time>2019-04-02T14:37:33Z</time>
      </trkpt>
      <trkpt lat="44.32474" lon="5.83169">
        <ele>573</ele>
        <time>2019-04-02T14:37:34Z</time>
      </trkpt>
      <trkpt lat="44.32469" lon="5.83165">
        <ele>574</ele>
        <time>2019-04-02T14:37:35Z</time>
      </trkpt>
      <trkpt lat="44.32464" lon="5.83161">
        <ele>574</ele>
        <time>2019-04-02T14:37:36Z</time>
      </trkpt>
      <trkpt lat="44.32459" lon="5.83157">
        <ele>574</ele>
        <time>2019-04-02T14:37:37Z</time>
      </trkpt>
      <trkpt lat="44.32455" lon="5.83153">
        <ele>574</ele>
        <time>2019-04-02T14:37:38Z</time>
      </trkpt>
      <trkpt lat="44.3245" lon="5.83149">
        <ele>574</ele>
        <time>2019-04-02T14:37:39Z</time>
      </trkpt>
      <trkpt lat="44.32446" lon="5.83145">
        <ele>574</ele>
        <time>2019-04-02T14:37:40Z</time>
      </trkpt>
      <trkpt lat="44.32441" lon="5.8314">
        <ele>574</ele>
        <time>2019-04-02T14:37:41Z</time>
      </trkpt>
      <trkpt lat="44.32436" lon="5.83136">
        <ele>574</ele>
        <time>2019-04-02T14:37:42Z</time>
      </trkpt>
      <trkpt lat="44.32432" lon="5.83132">
        <ele>574</ele>
        <time>2019-04-02T14:37:43Z</time>
      </trkpt>
      <trkpt lat="44.32427" lon="5.83127">
        <ele>574</ele>
        <time>2019-04-02T14:37:44Z</time>
      </trkpt>
      <trkpt lat="44.32422" lon="5.83122">
        <ele>574</ele>
        <time>2019-04-02T14:37:45Z</time>
      </trkpt>
      <trkpt lat="44.32418" lon="5.83117">
        <ele>574</ele>
        <time>2019-04-02T14:37:46Z</time>
      </trkpt>
      <trkpt lat="44.32413" lon="5.83112">
        <ele>574</ele>
        <time>2019-04-02T14:37:47Z</time>
      </trkpt>
      <trkpt lat="44.32408" lon="5.83107">
        <ele>574</ele>
        <time>2019-04-02T14:37:48Z</time>
      </trkpt>
      <trkpt lat="44.32404" lon="5.83101">
        <ele>574</ele>
        <time>2019-04-02T14:37:49Z</time>
      </trkpt>
      <trkpt lat="44.324" lon="5.83094">
        <ele>574</ele>
        <time>2019-04-02T14:37:50Z</time>
      </trkpt>
      <trkpt lat="44.32396" lon="5.83088">
        <ele>574</ele>
        <time>2019-04-02T14:37:51Z</time>
      </trkpt>
      <trkpt lat="44.32392" lon="5.83081">
        <ele>574</ele>
        <time>2019-04-02T14:37:52Z</time>
      </trkpt>
      <trkpt lat="44.32389" lon="5.83074">
        <ele>574</ele>
        <time>2019-04-02T14:37:53Z</time>
      </trkpt>
      <trkpt lat="44.32386" lon="5.83068">
        <ele>574</ele>
        <time>2019-04-02T14:37:54Z</time>
      </trkpt>
      <trkpt lat="44.32383" lon="5.83061">
        <ele>574</ele>
        <time>2019-04-02T14:37:55Z</time>
      </trkpt>
      <trkpt lat="44.32381" lon="5.83054">
        <ele>574</ele>
        <time>2019-04-02T14:37:56Z</time>
      </trkpt>
      <trkpt lat="44.32379" lon="5.83047">
        <ele>574</ele>
        <time>2019-04-02T14:37:57Z</time>
      </trkpt>
      <trkpt lat="44.32377" lon="5.83041">
        <ele>574</ele>
        <time>2019-04-02T14:37:58Z</time>
      </trkpt>
      <trkpt lat="44.32375" lon="5.83034">
        <ele>574</ele>
        <time>2019-04-02T14:37:59Z</time>
      </trkpt>
      <trkpt lat="44.32373" lon="5.83026">
        <ele>574</ele>
        <time>2019-04-02T14:38:00Z</time>
      </trkpt>
      <trkpt lat="44.32372" lon="5.83018">
        <ele>574</ele>
        <time>2019-04-02T14:38:01Z</time>
      </trkpt>
      <trkpt lat="44.32369" lon="5.83011">
        <ele>574</ele>
        <time>2019-04-02T14:38:02Z</time>
      </trkpt>
      <trkpt lat="44.32367" lon="5.83004">
        <ele>574</ele>
        <time>2019-04-02T14:38:03Z</time>
      </trkpt>
      <trkpt lat="44.32365" lon="5.82998">
        <ele>574</ele>
        <time>2019-04-02T14:38:04Z</time>
      </trkpt>
      <trkpt lat="44.32362" lon="5.82991">
        <ele>574</ele>
        <time>2019-04-02T14:38:05Z</time>
      </trkpt>
      <trkpt lat="44.32358" lon="5.82985">
        <ele>574</ele>
        <time>2019-04-02T14:38:06Z</time>
      </trkpt>
      <trkpt lat="44.32354" lon="5.8298">
        <ele>574</ele>
        <time>2019-04-02T14:38:07Z</time>
      </trkpt>
      <trkpt lat="44.3235" lon="5.82975">
        <ele>574</ele>
        <time>2019-04-02T14:38:08Z</time>
      </trkpt>
      <trkpt lat="44.32345" lon="5.8297">
        <ele>574</ele>
        <time>2019-04-02T14:38:09Z</time>
      </trkpt>
      <trkpt lat="44.3234" lon="5.82966">
        <ele>574</ele>
        <time>2019-04-02T14:38:10Z</time>
      </trkpt>
      <trkpt lat="44.32335" lon="5.82961">
        <ele>574</ele>
        <time>2019-04-02T14:38:11Z</time>
      </trkpt>
      <trkpt lat="44.32329" lon="5.82958">
        <ele>574</ele>
        <time>2019-04-02T14:38:12Z</time>
      </trkpt>
      <trkpt lat="44.32323" lon="5.82954">
        <ele>575</ele>
        <time>2019-04-02T14:38:13Z</time>
      </trkpt>
      <trkpt lat="44.32317" lon="5.82951">
        <ele>575</ele>
        <time>2019-04-02T14:38:14Z</time>
      </trkpt>
      <trkpt lat="44.3231" lon="5.82948">
        <ele>575</ele>
        <time>2019-04-02T14:38:15Z</time>
      </trkpt>
      <trkpt lat="44.32304" lon="5.82944">
        <ele>575</ele>
        <time>2019-04-02T14:38:16Z</time>
      </trkpt>
      <trkpt lat="44.32297" lon="5.82941">
        <ele>575</ele>
        <time>2019-04-02T14:38:17Z</time>
      </trkpt>
      <trkpt lat="44.32291" lon="5.82938">
        <ele>575</ele>
        <time>2019-04-02T14:38:18Z</time>
      </trkpt>
      <trkpt lat="44.32284" lon="5.82935">
        <ele>575</ele>
        <time>2019-04-02T14:38:19Z</time>
      </trkpt>
      <trkpt lat="44.32277" lon="5.82931">
        <ele>575</ele>
        <time>2019-04-02T14:38:20Z</time>
      </trkpt>
      <trkpt lat="44.3227" lon="5.82928">
        <ele>575</ele>
        <time>2019-04-02T14:38:21Z</time>
      </trkpt>
      <trkpt lat="44.32262" lon="5.82925">
        <ele>575</ele>
        <time>2019-04-02T14:38:22Z</time>
      </trkpt>
      <trkpt lat="44.32255" lon="5.82921">
        <ele>575</ele>
        <time>2019-04-02T14:38:23Z</time>
      </trkpt>
      <trkpt lat="44.32248" lon="5.82917">
        <ele>575</ele>
        <time>2019-04-02T14:38:24Z</time>
      </trkpt>
      <trkpt lat="44.3224" lon="5.82914">
        <ele>575</ele>
        <time>2019-04-02T14:38:25Z</time>
      </trkpt>
      <trkpt lat="44.32233" lon="5.8291">
        <ele>575</ele>
        <time>2019-04-02T14:38:26Z</time>
      </trkpt>
      <trkpt lat="44.32225" lon="5.82906">
        <ele>575</ele>
        <time>2019-04-02T14:38:27Z</time>
      </trkpt>
      <trkpt lat="44.32217" lon="5.82902">
        <ele>575</ele>
        <time>2019-04-02T14:38:28Z</time>
      </trkpt>
      <trkpt lat="44.3221" lon="5.82899">
        <ele>575</ele>
        <time>2019-04-02T14:38:29Z</time>
      </trkpt>
      <trkpt lat="44.32203" lon="5.82895">
        <ele>575</ele>
        <time>2019-04-02T14:38:30Z</time>
      </trkpt>
      <trkpt lat="44.32196" lon="5.82891">
        <ele>575</ele>
        <time>2019-04-02T14:38:31Z</time>
      </trkpt>
      <trkpt lat="44.32188" lon="5.82888">
        <ele>575</ele>
        <time>2019-04-02T14:38:32Z</time>
      </trkpt>
      <trkpt lat="44.32182" lon="5.82885">
        <ele>575</ele>
        <time>2019-04-02T14:38:33Z</time>
      </trkpt>
      <trkpt lat="44.32175" lon="5.82881">
        <ele>575</ele>
        <time>2019-04-02T14:38:34Z</time>
      </trkpt>
      <trkpt lat="44.32168" lon="5.82878">
        <ele>575</ele>
        <time>2019-04-02T14:38:35Z</time>
      </trkpt>
      <trkpt lat="44.32161" lon="5.82874">
        <ele>575</ele>
        <time>2019-04-02T14:38:36Z</time>
      </trkpt>
      <trkpt lat="44.32153" lon="5.82871">
        <ele>575</ele>
        <time>2019-04-02T14:38:37Z</time>
      </trkpt>
      <trkpt lat="44.32146" lon="5.82868">
        <ele>575</ele>
        <time>2019-04-02T14:38:38Z</time>
      </trkpt>
      <trkpt lat="44.32139" lon="5.82865">
        <ele>575</ele>
        <time>2019-04-02T14:38:39Z</time>
      </trkpt>
      <trkpt lat="44.32132" lon="5.82863">
        <ele>575</ele>
        <time>2019-04-02T14:38:40Z</time>
      </trkpt>
      <trkpt lat="44.32125" lon="5.82861">
        <ele>575</ele>
        <time>2019-04-02T14:38:41Z</time>
      </trkpt>
      <trkpt lat="44.32117" lon="5.82859">
        <ele>575</ele>
        <time>2019-04-02T14:38:42Z</time>
      </trkpt>
      <trkpt lat="44.32109" lon="5.82857">
        <ele>575</ele>
        <time>2019-04-02T14:38:43Z</time>
      </trkpt>
      <trkpt lat="44.32102" lon="5.82855">
        <ele>575</ele>
        <time>2019-04-02T14:38:44Z</time>
      </trkpt>
      <trkpt lat="44.32095" lon="5.82853">
        <ele>575</ele>
        <time>2019-04-02T14:38:45Z</time>
      </trkpt>
      <trkpt lat="44.32087" lon="5.8285">
        <ele>575</ele>
        <time>2019-04-02T14:38:46Z</time>
      </trkpt>
      <trkpt lat="44.3208" lon="5.82847">
        <ele>575</ele>
        <time>2019-04-02T14:38:47Z</time>
      </trkpt>
      <trkpt lat="44.32073" lon="5.82843">
        <ele>575</ele>
        <time>2019-04-02T14:38:48Z</time>
      </trkpt>
      <trkpt lat="44.32065" lon="5.82839">
        <ele>575</ele>
        <time>2019-04-02T14:38:49Z</time>
      </trkpt>
      <trkpt lat="44.32058" lon="5.82834">
        <ele>575</ele>
        <time>2019-04-02T14:38:50Z</time>
      </trkpt>
      <trkpt lat="44.3205" lon="5.82829">
        <ele>575</ele>
        <time>2019-04-02T14:38:51Z</time>
      </trkpt>
      <trkpt lat="44.32043" lon="5.82824">
        <ele>575</ele>
        <time>2019-04-02T14:38:52Z</time>
      </trkpt>
      <trkpt lat="44.32035" lon="5.82819">
        <ele>575</ele>
        <time>2019-04-02T14:38:53Z</time>
      </trkpt>
      <trkpt lat="44.32027" lon="5.82813">
        <ele>574</ele>
        <time>2019-04-02T14:38:54Z</time>
      </trkpt>
      <trkpt lat="44.32019" lon="5.82808">
        <ele>574</ele>
        <time>2019-04-02T14:38:55Z</time>
      </trkpt>
      <trkpt lat="44.32012" lon="5.82803">
        <ele>574</ele>
        <time>2019-04-02T14:38:56Z</time>
      </trkpt>
      <trkpt lat="44.32004" lon="5.82799">
        <ele>573</ele>
        <time>2019-04-02T14:38:57Z</time>
      </trkpt>
      <trkpt lat="44.31995" lon="5.82795">
        <ele>573</ele>
        <time>2019-04-02T14:38:58Z</time>
      </trkpt>
      <trkpt lat="44.31987" lon="5.82791">
        <ele>572</ele>
        <time>2019-04-02T14:38:59Z</time>
      </trkpt>
      <trkpt lat="44.31978" lon="5.82788">
        <ele>571</ele>
        <time>2019-04-02T14:39:00Z</time>
      </trkpt>
      <trkpt lat="44.31969" lon="5.82784">
        <ele>571</ele>
        <time>2019-04-02T14:39:01Z</time>
      </trkpt>
      <trkpt lat="44.31961" lon="5.82781">
        <ele>571</ele>
        <time>2019-04-02T14:39:02Z</time>
      </trkpt>
      <trkpt lat="44.31953" lon="5.82778">
        <ele>570</ele>
        <time>2019-04-02T14:39:03Z</time>
      </trkpt>
      <trkpt lat="44.31945" lon="5.82775">
        <ele>570</ele>
        <time>2019-04-02T14:39:04Z</time>
      </trkpt>
      <trkpt lat="44.31937" lon="5.82773">
        <ele>570</ele>
        <time>2019-04-02T14:39:05Z</time>
      </trkpt>
      <trkpt lat="44.31929" lon="5.82771">
        <ele>570</ele>
        <time>2019-04-02T14:39:06Z</time>
      </trkpt>
      <trkpt lat="44.31921" lon="5.8277">
        <ele>570</ele>
        <time>2019-04-02T14:39:07Z</time>
      </trkpt>
      <trkpt lat="44.31913" lon="5.82768">
        <ele>570</ele>
        <time>2019-04-02T14:39:08Z</time>
      </trkpt>
      <trkpt lat="44.31905" lon="5.82768">
        <ele>569</ele>
        <time>2019-04-02T14:39:09Z</time>
      </trkpt>
      <trkpt lat="44.31898" lon="5.82768">
        <ele>569</ele>
        <time>2019-04-02T14:39:10Z</time>
      </trkpt>
      <trkpt lat="44.3189" lon="5.82767">
        <ele>569</ele>
        <time>2019-04-02T14:39:11Z</time>
      </trkpt>
      <trkpt lat="44.31882" lon="5.82766">
        <ele>569</ele>
        <time>2019-04-02T14:39:12Z</time>
      </trkpt>
      <trkpt lat="44.31874" lon="5.82765">
        <ele>568</ele>
        <time>2019-04-02T14:39:13Z</time>
      </trkpt>
      <trkpt lat="44.31866" lon="5.82764">
        <ele>568</ele>
        <time>2019-04-02T14:39:14Z</time>
      </trkpt>
      <trkpt lat="44.31858" lon="5.82763">
        <ele>568</ele>
        <time>2019-04-02T14:39:15Z</time>
      </trkpt>
      <trkpt lat="44.31851" lon="5.8276">
        <ele>568</ele>
        <time>2019-04-02T14:39:16Z</time>
      </trkpt>
      <trkpt lat="44.31844" lon="5.82758">
        <ele>568</ele>
        <time>2019-04-02T14:39:17Z</time>
      </trkpt>
      <trkpt lat="44.31836" lon="5.82754">
        <ele>568</ele>
        <time>2019-04-02T14:39:18Z</time>
      </trkpt>
      <trkpt lat="44.31829" lon="5.82751">
        <ele>568</ele>
        <time>2019-04-02T14:39:19Z</time>
      </trkpt>
      <trkpt lat="44.31822" lon="5.82747">
        <ele>568</ele>
        <time>2019-04-02T14:39:20Z</time>
      </trkpt>
      <trkpt lat="44.31815" lon="5.82742">
        <ele>568</ele>
        <time>2019-04-02T14:39:21Z</time>
      </trkpt>
      <trkpt lat="44.3181" lon="5.82736">
        <ele>568</ele>
        <time>2019-04-02T14:39:22Z</time>
      </trkpt>
      <trkpt lat="44.31804" lon="5.82731">
        <ele>568</ele>
        <time>2019-04-02T14:39:23Z</time>
      </trkpt>
      <trkpt lat="44.31799" lon="5.82725">
        <ele>568</ele>
        <time>2019-04-02T14:39:24Z</time>
      </trkpt>
      <trkpt lat="44.31793" lon="5.8272">
        <ele>568</ele>
        <time>2019-04-02T14:39:25Z</time>
      </trkpt>
      <trkpt lat="44.31788" lon="5.82715">
        <ele>568</ele>
        <time>2019-04-02T14:39:26Z</time>
      </trkpt>
      <trkpt lat="44.31783" lon="5.82709">
        <ele>568</ele>
        <time>2019-04-02T14:39:27Z</time>
      </trkpt>
      <trkpt lat="44.31777" lon="5.82704">
        <ele>568</ele>
        <time>2019-04-02T14:39:28Z</time>
      </trkpt>
      <trkpt lat="44.31772" lon="5.82699">
        <ele>568</ele>
        <time>2019-04-02T14:39:29Z</time>
      </trkpt>
      <trkpt lat="44.31767" lon="5.82694">
        <ele>568</ele>
        <time>2019-04-02T14:39:30Z</time>
      </trkpt>
      <trkpt lat="44.31761" lon="5.82689">
        <ele>568</ele>
        <time>2019-04-02T14:39:31Z</time>
      </trkpt>
      <trkpt lat="44.31756" lon="5.82684">
        <ele>568</ele>
        <time>2019-04-02T14:39:32Z</time>
      </trkpt>
      <trkpt lat="44.31751" lon="5.82678">
        <ele>568</ele>
        <time>2019-04-02T14:39:33Z</time>
      </trkpt>
      <trkpt lat="44.31746" lon="5.82673">
        <ele>568</ele>
        <time>2019-04-02T14:39:34Z</time>
      </trkpt>
      <trkpt lat="44.31741" lon="5.82667">
        <ele>568</ele>
        <time>2019-04-02T14:39:35Z</time>
      </trkpt>
      <trkpt lat="44.31735" lon="5.82661">
        <ele>568</ele>
        <time>2019-04-02T14:39:36Z</time>
      </trkpt>
      <trkpt lat="44.3173" lon="5.82656">
        <ele>568</ele>
        <time>2019-04-02T14:39:37Z</time>
      </trkpt>
      <trkpt lat="44.31725" lon="5.82651">
        <ele>568</ele>
        <time>2019-04-02T14:39:38Z</time>
      </trkpt>
      <trkpt lat="44.31719" lon="5.82646">
        <ele>568</ele>
        <time>2019-04-02T14:39:39Z</time>
      </trkpt>
      <trkpt lat="44.31714" lon="5.8264">
        <ele>568</ele>
        <time>2019-04-02T14:39:40Z</time>
      </trkpt>
      <trkpt lat="44.31708" lon="5.82635">
        <ele>568</ele>
        <time>2019-04-02T14:39:41Z</time>
      </trkpt>
      <trkpt lat="44.31703" lon="5.82629">
        <ele>568</ele>
        <time>2019-04-02T14:39:42Z</time>
      </trkpt>
      <trkpt lat="44.31698" lon="5.82624">
        <ele>567</ele>
        <time>2019-04-02T14:39:43Z</time>
      </trkpt>
      <trkpt lat="44.31693" lon="5.82619">
        <ele>567</ele>
        <time>2019-04-02T14:39:44Z</time>
      </trkpt>
      <trkpt lat="44.31688" lon="5.82614">
        <ele>567</ele>
        <time>2019-04-02T14:39:45Z</time>
      </trkpt>
      <trkpt lat="44.31682" lon="5.82609">
        <ele>567</ele>
        <time>2019-04-02T14:39:46Z</time>
      </trkpt>
      <trkpt lat="44.31677" lon="5.82605">
        <ele>566</ele>
        <time>2019-04-02T14:39:47Z</time>
      </trkpt>
      <trkpt lat="44.31672" lon="5.826">
        <ele>566</ele>
        <time>2019-04-02T14:39:48Z</time>
      </trkpt>
      <trkpt lat="44.31667" lon="5.82595">
        <ele>566</ele>
        <time>2019-04-02T14:39:49Z</time>
      </trkpt>
      <trkpt lat="44.31663" lon="5.8259">
        <ele>566</ele>
        <time>2019-04-02T14:39:50Z</time>
      </trkpt>
      <trkpt lat="44.31658" lon="5.82585">
        <ele>566</ele>
        <time>2019-04-02T14:39:51Z</time>
      </trkpt>
      <trkpt lat="44.31653" lon="5.8258">
        <ele>566</ele>
        <time>2019-04-02T14:39:52Z</time>
      </trkpt>
      <trkpt lat="44.31648" lon="5.82575">
        <ele>566</ele>
        <time>2019-04-02T14:39:53Z</time>
      </trkpt>
      <trkpt lat="44.31643" lon="5.8257">
        <ele>566</ele>
        <time>2019-04-02T14:39:54Z</time>
      </trkpt>
      <trkpt lat="44.31638" lon="5.82565">
        <ele>566</ele>
        <time>2019-04-02T14:39:55Z</time>
      </trkpt>
      <trkpt lat="44.31633" lon="5.82561">
        <ele>566</ele>
        <time>2019-04-02T14:39:56Z</time>
      </trkpt>
      <trkpt lat="44.31628" lon="5.82556">
        <ele>566</ele>
        <time>2019-04-02T14:39:57Z</time>
      </trkpt>
      <trkpt lat="44.31625" lon="5.82552">
        <ele>566</ele>
        <time>2019-04-02T14:39:58Z</time>
      </trkpt>
      <trkpt lat="44.3162" lon="5.82548">
        <ele>566</ele>
        <time>2019-04-02T14:39:59Z</time>
      </trkpt>
      <trkpt lat="44.31616" lon="5.82544">
        <ele>566</ele>
        <time>2019-04-02T14:40:00Z</time>
      </trkpt>
      <trkpt lat="44.31611" lon="5.8254">
        <ele>566</ele>
        <time>2019-04-02T14:40:01Z</time>
      </trkpt>
      <trkpt lat="44.31607" lon="5.82535">
        <ele>566</ele>
        <time>2019-04-02T14:40:02Z</time>
      </trkpt>
      <trkpt lat="44.31602" lon="5.82531">
        <ele>566</ele>
        <time>2019-04-02T14:40:03Z</time>
      </trkpt>
      <trkpt lat="44.31597" lon="5.82526">
        <ele>566</ele>
        <time>2019-04-02T14:40:04Z</time>
      </trkpt>
      <trkpt lat="44.31592" lon="5.82521">
        <ele>566</ele>
        <time>2019-04-02T14:40:05Z</time>
      </trkpt>
      <trkpt lat="44.31587" lon="5.82516">
        <ele>566</ele>
        <time>2019-04-02T14:40:06Z</time>
      </trkpt>
      <trkpt lat="44.31582" lon="5.82512">
        <ele>566</ele>
        <time>2019-04-02T14:40:07Z</time>
      </trkpt>
      <trkpt lat="44.31578" lon="5.82507">
        <ele>566</ele>
        <time>2019-04-02T14:40:08Z</time>
      </trkpt>
      <trkpt lat="44.31574" lon="5.82502">
        <ele>566</ele>
        <time>2019-04-02T14:40:09Z</time>
      </trkpt>
      <trkpt lat="44.3157" lon="5.82498">
        <ele>566</ele>
        <time>2019-04-02T14:40:10Z</time>
      </trkpt>
      <trkpt lat="44.31565" lon="5.82493">
        <ele>566</ele>
        <time>2019-04-02T14:40:11Z</time>
      </trkpt>
      <trkpt lat="44.31562" lon="5.82488">
        <ele>566</ele>
        <time>2019-04-02T14:40:12Z</time>
      </trkpt>
      <trkpt lat="44.31559" lon="5.82483">
        <ele>566</ele>
        <time>2019-04-02T14:40:13Z</time>
      </trkpt>
      <trkpt lat="44.31555" lon="5.82478">
        <ele>566</ele>
        <time>2019-04-02T14:40:14Z</time>
      </trkpt>
      <trkpt lat="44.31551" lon="5.82474">
        <ele>566</ele>
        <time>2019-04-02T14:40:15Z</time>
      </trkpt>
      <trkpt lat="44.31547" lon="5.82469">
        <ele>566</ele>
        <time>2019-04-02T14:40:16Z</time>
      </trkpt>
      <trkpt lat="44.31543" lon="5.82465">
        <ele>566</ele>
        <time>2019-04-02T14:40:17Z</time>
      </trkpt>
      <trkpt lat="44.31538" lon="5.8246">
        <ele>566</ele>
        <time>2019-04-02T14:40:18Z</time>
      </trkpt>
      <trkpt lat="44.31534" lon="5.82456">
        <ele>566</ele>
        <time>2019-04-02T14:40:19Z</time>
      </trkpt>
      <trkpt lat="44.3153" lon="5.82451">
        <ele>566</ele>
        <time>2019-04-02T14:40:20Z</time>
      </trkpt>
      <trkpt lat="44.31525" lon="5.82447">
        <ele>566</ele>
        <time>2019-04-02T14:40:21Z</time>
      </trkpt>
      <trkpt lat="44.3152" lon="5.82443">
        <ele>566</ele>
        <time>2019-04-02T14:40:22Z</time>
      </trkpt>
      <trkpt lat="44.31516" lon="5.82439">
        <ele>566</ele>
        <time>2019-04-02T14:40:23Z</time>
      </trkpt>
      <trkpt lat="44.31511" lon="5.82435">
        <ele>566</ele>
        <time>2019-04-02T14:40:24Z</time>
      </trkpt>
      <trkpt lat="44.31507" lon="5.82431">
        <ele>566</ele>
        <time>2019-04-02T14:40:25Z</time>
      </trkpt>
      <trkpt lat="44.31503" lon="5.82426">
        <ele>566</ele>
        <time>2019-04-02T14:40:26Z</time>
      </trkpt>
      <trkpt lat="44.31498" lon="5.82422">
        <ele>566</ele>
        <time>2019-04-02T14:40:27Z</time>
      </trkpt>
      <trkpt lat="44.31493" lon="5.82419">
        <ele>566</ele>
        <time>2019-04-02T14:40:28Z</time>
      </trkpt>
      <trkpt lat="44.31489" lon="5.82414">
        <ele>566</ele>
        <time>2019-04-02T14:40:29Z</time>
      </trkpt>
      <trkpt lat="44.31485" lon="5.82411">
        <ele>566</ele>
        <time>2019-04-02T14:40:30Z</time>
      </trkpt>
      <trkpt lat="44.31482" lon="5.82407">
        <ele>566</ele>
        <time>2019-04-02T14:40:31Z</time>
      </trkpt>
      <trkpt lat="44.31478" lon="5.82404">
        <ele>566</ele>
        <time>2019-04-02T14:40:32Z</time>
      </trkpt>
      <trkpt lat="44.31474" lon="5.82401">
        <ele>566</ele>
        <time>2019-04-02T14:40:33Z</time>
      </trkpt>
      <trkpt lat="44.3147" lon="5.82398">
        <ele>566</ele>
        <time>2019-04-02T14:40:34Z</time>
      </trkpt>
      <trkpt lat="44.31467" lon="5.82395">
        <ele>566</ele>
        <time>2019-04-02T14:40:35Z</time>
      </trkpt>
      <trkpt lat="44.31463" lon="5.82391">
        <ele>567</ele>
        <time>2019-04-02T14:40:36Z</time>
      </trkpt>
      <trkpt lat="44.3146" lon="5.82388">
        <ele>567</ele>
        <time>2019-04-02T14:40:37Z</time>
      </trkpt>
      <trkpt lat="44.31457" lon="5.82385">
        <ele>568</ele>
        <time>2019-04-02T14:40:38Z</time>
      </trkpt>
      <trkpt lat="44.31454" lon="5.82382">
        <ele>568</ele>
        <time>2019-04-02T14:40:39Z</time>
      </trkpt>
      <trkpt lat="44.31451" lon="5.82379">
        <ele>569</ele>
        <time>2019-04-02T14:40:40Z</time>
      </trkpt>
      <trkpt lat="44.31449" lon="5.82377">
        <ele>569</ele>
        <time>2019-04-02T14:40:41Z</time>
      </trkpt>
      <trkpt lat="44.31447" lon="5.82376">
        <ele>569</ele>
        <time>2019-04-02T14:40:42Z</time>
      </trkpt>
      <trkpt lat="44.31445" lon="5.82374">
        <ele>570</ele>
        <time>2019-04-02T14:40:43Z</time>
      </trkpt>
      <trkpt lat="44.31445" lon="5.82372">
        <ele>570</ele>
        <time>2019-04-02T14:40:44Z</time>
      </trkpt>
      <trkpt lat="44.31444" lon="5.82371">
        <ele>570</ele>
        <time>2019-04-02T14:40:45Z</time>
      </trkpt>
      <trkpt lat="44.31443" lon="5.82368">
        <ele>572</ele>
        <time>2019-04-02T14:40:47Z</time>
      </trkpt>
      <trkpt lat="44.31442" lon="5.82369">
        <ele>573</ele>
        <time>2019-04-02T14:40:48Z</time>
      </trkpt>
      <trkpt lat="44.3144" lon="5.8237">
        <ele>574</ele>
        <time>2019-04-02T14:40:49Z</time>
      </trkpt>
      <trkpt lat="44.31438" lon="5.8237">
        <ele>576</ele>
        <time>2019-04-02T14:40:51Z</time>
      </trkpt>
      <trkpt lat="44.31437" lon="5.8237">
        <ele>576</ele>
        <time>2019-04-02T14:40:52Z</time>
      </trkpt>
      <trkpt lat="44.31436" lon="5.8237">
        <ele>577</ele>
        <time>2019-04-02T14:40:53Z</time>
      </trkpt>
      <trkpt lat="44.31434" lon="5.82369">
        <ele>577</ele>
        <time>2019-04-02T14:40:55Z</time>
      </trkpt>
      <trkpt lat="44.31433" lon="5.82369">
        <ele>577</ele>
        <time>2019-04-02T14:40:56Z</time>
      </trkpt>
      <trkpt lat="44.31431" lon="5.82371">
        <ele>577</ele>
        <time>2019-04-02T14:40:58Z</time>
      </trkpt>
      <trkpt lat="44.3143" lon="5.82374">
        <ele>577</ele>
        <time>2019-04-02T14:40:59Z</time>
      </trkpt>
      <trkpt lat="44.31431" lon="5.82376">
        <ele>577</ele>
        <time>2019-04-02T14:41:00Z</time>
      </trkpt>
      <trkpt lat="44.31432" lon="5.82381">
        <ele>577</ele>
        <time>2019-04-02T14:41:01Z</time>
      </trkpt>
      <trkpt lat="44.31433" lon="5.82386">
        <ele>577</ele>
        <time>2019-04-02T14:41:02Z</time>
      </trkpt>
      <trkpt lat="44.31433" lon="5.82391">
        <ele>577</ele>
        <time>2019-04-02T14:41:03Z</time>
      </trkpt>
      <trkpt lat="44.31434" lon="5.82396">
        <ele>577</ele>
        <time>2019-04-02T14:41:04Z</time>
      </trkpt>
      <trkpt lat="44.31435" lon="5.82402">
        <ele>576</ele>
        <time>2019-04-02T14:41:05Z</time>
      </trkpt>
      <trkpt lat="44.31436" lon="5.82408">
        <ele>575</ele>
        <time>2019-04-02T14:41:06Z</time>
      </trkpt>
      <trkpt lat="44.31435" lon="5.82413">
        <ele>575</ele>
        <time>2019-04-02T14:41:07Z</time>
      </trkpt>
      <trkpt lat="44.31435" lon="5.82419">
        <ele>574</ele>
        <time>2019-04-02T14:41:08Z</time>
      </trkpt>
      <trkpt lat="44.31434" lon="5.82425">
        <ele>573</ele>
        <time>2019-04-02T14:41:09Z</time>
      </trkpt>
      <trkpt lat="44.31433" lon="5.82431">
        <ele>573</ele>
        <time>2019-04-02T14:41:10Z</time>
      </trkpt>
      <trkpt lat="44.31433" lon="5.82437">
        <ele>572</ele>
        <time>2019-04-02T14:41:11Z</time>
      </trkpt>
      <trkpt lat="44.31432" lon="5.82443">
        <ele>571</ele>
        <time>2019-04-02T14:41:12Z</time>
      </trkpt>
      <trkpt lat="44.31431" lon="5.82449">
        <ele>571</ele>
        <time>2019-04-02T14:41:13Z</time>
      </trkpt>
      <trkpt lat="44.3143" lon="5.82455">
        <ele>570</ele>
        <time>2019-04-02T14:41:14Z</time>
      </trkpt>
      <trkpt lat="44.31429" lon="5.82461">
        <ele>570</ele>
        <time>2019-04-02T14:41:15Z</time>
      </trkpt>
      <trkpt lat="44.31428" lon="5.82468">
        <ele>570</ele>
        <time>2019-04-02T14:41:16Z</time>
      </trkpt>
      <trkpt lat="44.31427" lon="5.82475">
        <ele>570</ele>
        <time>2019-04-02T14:41:17Z</time>
      </trkpt>
      <trkpt lat="44.31426" lon="5.82482">
        <ele>570</ele>
        <time>2019-04-02T14:41:18Z</time>
      </trkpt>
      <trkpt lat="44.31424" lon="5.82489">
        <ele>570</ele>
        <time>2019-04-02T14:41:19Z</time>
      </trkpt>
      <trkpt lat="44.31423" lon="5.82496">
        <ele>570</ele>
        <time>2019-04-02T14:41:20Z</time>
      </trkpt>
      <trkpt lat="44.31422" lon="5.82504">
        <ele>570</ele>
        <time>2019-04-02T14:41:21Z</time>
      </trkpt>
      <trkpt lat="44.31421" lon="5.82512">
        <ele>570</ele>
        <time>2019-04-02T14:41:22Z</time>
      </trkpt>
      <trkpt lat="44.31419" lon="5.8252">
        <ele>570</ele>
        <time>2019-04-02T14:41:23Z</time>
      </trkpt>
      <trkpt lat="44.31418" lon="5.82527">
        <ele>570</ele>
        <time>2019-04-02T14:41:24Z</time>
      </trkpt>
      <trkpt lat="44.31416" lon="5.82536">
        <ele>570</ele>
        <time>2019-04-02T14:41:25Z</time>
      </trkpt>
      <trkpt lat="44.31414" lon="5.82545">
        <ele>570</ele>
        <time>2019-04-02T14:41:26Z</time>
      </trkpt>
      <trkpt lat="44.31413" lon="5.82553">
        <ele>570</ele>
        <time>2019-04-02T14:41:27Z</time>
      </trkpt>
      <trkpt lat="44.31411" lon="5.82561">
        <ele>570</ele>
        <time>2019-04-02T14:41:28Z</time>
      </trkpt>
      <trkpt lat="44.31409" lon="5.82569">
        <ele>570</ele>
        <time>2019-04-02T14:41:29Z</time>
      </trkpt>
      <trkpt lat="44.31408" lon="5.82578">
        <ele>570</ele>
        <time>2019-04-02T14:41:30Z</time>
      </trkpt>
      <trkpt lat="44.31406" lon="5.82586">
        <ele>570</ele>
        <time>2019-04-02T14:41:31Z</time>
      </trkpt>
      <trkpt lat="44.31404" lon="5.82594">
        <ele>570</ele>
        <time>2019-04-02T14:41:32Z</time>
      </trkpt>
      <trkpt lat="44.31403" lon="5.82601">
        <ele>570</ele>
        <time>2019-04-02T14:41:33Z</time>
      </trkpt>
      <trkpt lat="44.31401" lon="5.82609">
        <ele>570</ele>
        <time>2019-04-02T14:41:34Z</time>
      </trkpt>
      <trkpt lat="44.31399" lon="5.82617">
        <ele>570</ele>
        <time>2019-04-02T14:41:35Z</time>
      </trkpt>
      <trkpt lat="44.31397" lon="5.82625">
        <ele>570</ele>
        <time>2019-04-02T14:41:36Z</time>
      </trkpt>
      <trkpt lat="44.31395" lon="5.82632">
        <ele>569</ele>
        <time>2019-04-02T14:41:37Z</time>
      </trkpt>
      <trkpt lat="44.31392" lon="5.82639">
        <ele>569</ele>
        <time>2019-04-02T14:41:38Z</time>
      </trkpt>
      <trkpt lat="44.3139" lon="5.82646">
        <ele>569</ele>
        <time>2019-04-02T14:41:39Z</time>
      </trkpt>
      <trkpt lat="44.31387" lon="5.82652">
        <ele>569</ele>
        <time>2019-04-02T14:41:40Z</time>
      </trkpt>
      <trkpt lat="44.31384" lon="5.82657">
        <ele>568</ele>
        <time>2019-04-02T14:41:41Z</time>
      </trkpt>
      <trkpt lat="44.31381" lon="5.82663">
        <ele>568</ele>
        <time>2019-04-02T14:41:42Z</time>
      </trkpt>
      <trkpt lat="44.31378" lon="5.82669">
        <ele>568</ele>
        <time>2019-04-02T14:41:43Z</time>
      </trkpt>
      <trkpt lat="44.31375" lon="5.82674">
        <ele>567</ele>
        <time>2019-04-02T14:41:44Z</time>
      </trkpt>
      <trkpt lat="44.31372" lon="5.82679">
        <ele>567</ele>
        <time>2019-04-02T14:41:45Z</time>
      </trkpt>
      <trkpt lat="44.31368" lon="5.82683">
        <ele>567</ele>
        <time>2019-04-02T14:41:46Z</time>
      </trkpt>
      <trkpt lat="44.31365" lon="5.82686">
        <ele>567</ele>
        <time>2019-04-02T14:41:47Z</time>
      </trkpt>
      <trkpt lat="44.31363" lon="5.82689">
        <ele>567</ele>
        <time>2019-04-02T14:41:48Z</time>
      </trkpt>
      <trkpt lat="44.31361" lon="5.82692">
        <ele>567</ele>
        <time>2019-04-02T14:41:49Z</time>
      </trkpt>
      <trkpt lat="44.3136" lon="5.82695">
        <ele>567</ele>
        <time>2019-04-02T14:41:50Z</time>
      </trkpt>
      <trkpt lat="44.3136" lon="5.82699">
        <ele>567</ele>
        <time>2019-04-02T14:41:51Z</time>
      </trkpt>
      <trkpt lat="44.3136" lon="5.82702">
        <ele>567</ele>
        <time>2019-04-02T14:41:52Z</time>
      </trkpt>
      <trkpt lat="44.31361" lon="5.82706">
        <ele>567</ele>
        <time>2019-04-02T14:41:53Z</time>
      </trkpt>
      <trkpt lat="44.31364" lon="5.82708">
        <ele>566</ele>
        <time>2019-04-02T14:41:54Z</time>
      </trkpt>
      <trkpt lat="44.31366" lon="5.8271">
        <ele>566</ele>
        <time>2019-04-02T14:41:55Z</time>
      </trkpt>
      <trkpt lat="44.31369" lon="5.82712">
        <ele>566</ele>
        <time>2019-04-02T14:41:56Z</time>
      </trkpt>
      <trkpt lat="44.31371" lon="5.82716">
        <ele>565</ele>
        <time>2019-04-02T14:41:57Z</time>
      </trkpt>
      <trkpt lat="44.31373" lon="5.8272">
        <ele>565</ele>
        <time>2019-04-02T14:41:58Z</time>
      </trkpt>
      <trkpt lat="44.31375" lon="5.82725">
        <ele>565</ele>
        <time>2019-04-02T14:41:59Z</time>
      </trkpt>
      <trkpt lat="44.31375" lon="5.82731">
        <ele>564</ele>
        <time>2019-04-02T14:42:00Z</time>
      </trkpt>
      <trkpt lat="44.31375" lon="5.82737">
        <ele>564</ele>
        <time>2019-04-02T14:42:01Z</time>
      </trkpt>
      <trkpt lat="44.31375" lon="5.82743">
        <ele>564</ele>
        <time>2019-04-02T14:42:02Z</time>
      </trkpt>
      <trkpt lat="44.31375" lon="5.8275">
        <ele>564</ele>
        <time>2019-04-02T14:42:03Z</time>
      </trkpt>
      <trkpt lat="44.31375" lon="5.82757">
        <ele>564</ele>
        <time>2019-04-02T14:42:04Z</time>
      </trkpt>
      <trkpt lat="44.31375" lon="5.82763">
        <ele>563</ele>
        <time>2019-04-02T14:42:05Z</time>
      </trkpt>
      <trkpt lat="44.31375" lon="5.82769">
        <ele>563</ele>
        <time>2019-04-02T14:42:06Z</time>
      </trkpt>
      <trkpt lat="44.31375" lon="5.82776">
        <ele>563</ele>
        <time>2019-04-02T14:42:07Z</time>
      </trkpt>
      <trkpt lat="44.31375" lon="5.82782">
        <ele>563</ele>
        <time>2019-04-02T14:42:08Z</time>
      </trkpt>
      <trkpt lat="44.31375" lon="5.82789">
        <ele>563</ele>
        <time>2019-04-02T14:42:09Z</time>
      </trkpt>
      <trkpt lat="44.31375" lon="5.82796">
        <ele>563</ele>
        <time>2019-04-02T14:42:10Z</time>
      </trkpt>
      <trkpt lat="44.31374" lon="5.82802">
        <ele>563</ele>
        <time>2019-04-02T14:42:11Z</time>
      </trkpt>
      <trkpt lat="44.31374" lon="5.82809">
        <ele>563</ele>
        <time>2019-04-02T14:42:12Z</time>
      </trkpt>
      <trkpt lat="44.31372" lon="5.82816">
        <ele>563</ele>
        <time>2019-04-02T14:42:13Z</time>
      </trkpt>
      <trkpt lat="44.31372" lon="5.82823">
        <ele>563</ele>
        <time>2019-04-02T14:42:14Z</time>
      </trkpt>
      <trkpt lat="44.31371" lon="5.8283">
        <ele>563</ele>
        <time>2019-04-02T14:42:15Z</time>
      </trkpt>
      <trkpt lat="44.3137" lon="5.82837">
        <ele>563</ele>
        <time>2019-04-02T14:42:16Z</time>
      </trkpt>
      <trkpt lat="44.31369" lon="5.82844">
        <ele>563</ele>
        <time>2019-04-02T14:42:17Z</time>
      </trkpt>
      <trkpt lat="44.31369" lon="5.82851">
        <ele>563</ele>
        <time>2019-04-02T14:42:18Z</time>
      </trkpt>
      <trkpt lat="44.31368" lon="5.82858">
        <ele>563</ele>
        <time>2019-04-02T14:42:19Z</time>
      </trkpt>
      <trkpt lat="44.31367" lon="5.82864">
        <ele>563</ele>
        <time>2019-04-02T14:42:20Z</time>
      </trkpt>
      <trkpt lat="44.31366" lon="5.82871">
        <ele>563</ele>
        <time>2019-04-02T14:42:21Z</time>
      </trkpt>
      <trkpt lat="44.31366" lon="5.82877">
        <ele>563</ele>
        <time>2019-04-02T14:42:22Z</time>
      </trkpt>
      <trkpt lat="44.31365" lon="5.82884">
        <ele>563</ele>
        <time>2019-04-02T14:42:23Z</time>
      </trkpt>
      <trkpt lat="44.31365" lon="5.82891">
        <ele>563</ele>
        <time>2019-04-02T14:42:24Z</time>
      </trkpt>
      <trkpt lat="44.31364" lon="5.82898">
        <ele>563</ele>
        <time>2019-04-02T14:42:25Z</time>
      </trkpt>
      <trkpt lat="44.31363" lon="5.82904">
        <ele>563</ele>
        <time>2019-04-02T14:42:26Z</time>
      </trkpt>
      <trkpt lat="44.31363" lon="5.82911">
        <ele>563</ele>
        <time>2019-04-02T14:42:27Z</time>
      </trkpt>
      <trkpt lat="44.31362" lon="5.82917">
        <ele>563</ele>
        <time>2019-04-02T14:42:28Z</time>
      </trkpt>
      <trkpt lat="44.31361" lon="5.82924">
        <ele>563</ele>
        <time>2019-04-02T14:42:29Z</time>
      </trkpt>
      <trkpt lat="44.3136" lon="5.82931">
        <ele>563</ele>
        <time>2019-04-02T14:42:30Z</time>
      </trkpt>
      <trkpt lat="44.31359" lon="5.82937">
        <ele>563</ele>
        <time>2019-04-02T14:42:31Z</time>
      </trkpt>
      <trkpt lat="44.31358" lon="5.82944">
        <ele>563</ele>
        <time>2019-04-02T14:42:32Z</time>
      </trkpt>
      <trkpt lat="44.31357" lon="5.8295">
        <ele>563</ele>
        <time>2019-04-02T14:42:33Z</time>
      </trkpt>
      <trkpt lat="44.31357" lon="5.82957">
        <ele>563</ele>
        <time>2019-04-02T14:42:34Z</time>
      </trkpt>
      <trkpt lat="44.31356" lon="5.82963">
        <ele>563</ele>
        <time>2019-04-02T14:42:35Z</time>
      </trkpt>
      <trkpt lat="44.31356" lon="5.82969">
        <ele>563</ele>
        <time>2019-04-02T14:42:36Z</time>
      </trkpt>
      <trkpt lat="44.31355" lon="5.82976">
        <ele>563</ele>
        <time>2019-04-02T14:42:37Z</time>
      </trkpt>
      <trkpt lat="44.31354" lon="5.82982">
        <ele>563</ele>
        <time>2019-04-02T14:42:38Z</time>
      </trkpt>
      <trkpt lat="44.31353" lon="5.82988">
        <ele>563</ele>
        <time>2019-04-02T14:42:39Z</time>
      </trkpt>
      <trkpt lat="44.31352" lon="5.82994">
        <ele>563</ele>
        <time>2019-04-02T14:42:40Z</time>
      </trkpt>
      <trkpt lat="44.31352" lon="5.83">
        <ele>563</ele>
        <time>2019-04-02T14:42:41Z</time>
      </trkpt>
      <trkpt lat="44.31351" lon="5.83005">
        <ele>563</ele>
        <time>2019-04-02T14:42:42Z</time>
      </trkpt>
      <trkpt lat="44.3135" lon="5.83011">
        <ele>563</ele>
        <time>2019-04-02T14:42:43Z</time>
      </trkpt>
      <trkpt lat="44.31349" lon="5.83017">
        <ele>563</ele>
        <time>2019-04-02T14:42:44Z</time>
      </trkpt>
      <trkpt lat="44.31348" lon="5.83022">
        <ele>563</ele>
        <time>2019-04-02T14:42:45Z</time>
      </trkpt>
      <trkpt lat="44.31347" lon="5.83028">
        <ele>563</ele>
        <time>2019-04-02T14:42:46Z</time>
      </trkpt>
      <trkpt lat="44.31346" lon="5.83034">
        <ele>563</ele>
        <time>2019-04-02T14:42:47Z</time>
      </trkpt>
      <trkpt lat="44.31345" lon="5.8304">
        <ele>563</ele>
        <time>2019-04-02T14:42:48Z</time>
      </trkpt>
      <trkpt lat="44.31344" lon="5.83046">
        <ele>563</ele>
        <time>2019-04-02T14:42:49Z</time>
      </trkpt>
      <trkpt lat="44.31343" lon="5.83052">
        <ele>563</ele>
        <time>2019-04-02T14:42:50Z</time>
      </trkpt>
      <trkpt lat="44.31342" lon="5.83057">
        <ele>563</ele>
        <time>2019-04-02T14:42:51Z</time>
      </trkpt>
      <trkpt lat="44.31341" lon="5.83063">
        <ele>563</ele>
        <time>2019-04-02T14:42:52Z</time>
      </trkpt>
      <trkpt lat="44.3134" lon="5.83069">
        <ele>563</ele>
        <time>2019-04-02T14:42:53Z</time>
      </trkpt>
      <trkpt lat="44.3134" lon="5.83075">
        <ele>563</ele>
        <time>2019-04-02T14:42:54Z</time>
      </trkpt>
      <trkpt lat="44.3134" lon="5.83081">
        <ele>563</ele>
        <time>2019-04-02T14:42:55Z</time>
      </trkpt>
      <trkpt lat="44.31339" lon="5.83086">
        <ele>563</ele>
        <time>2019-04-02T14:42:56Z</time>
      </trkpt>
      <trkpt lat="44.31339" lon="5.83091">
        <ele>563</ele>
        <time>2019-04-02T14:42:57Z</time>
      </trkpt>
      <trkpt lat="44.3134" lon="5.83096">
        <ele>563</ele>
        <time>2019-04-02T14:42:58Z</time>
      </trkpt>
      <trkpt lat="44.3134" lon="5.83101">
        <ele>563</ele>
        <time>2019-04-02T14:42:59Z</time>
      </trkpt>
      <trkpt lat="44.31342" lon="5.83105">
        <ele>563</ele>
        <time>2019-04-02T14:43:00Z</time>
      </trkpt>
      <trkpt lat="44.31345" lon="5.83107">
        <ele>563</ele>
        <time>2019-04-02T14:43:01Z</time>
      </trkpt>
      <trkpt lat="44.31349" lon="5.83107">
        <ele>563</ele>
        <time>2019-04-02T14:43:02Z</time>
      </trkpt>
      <trkpt lat="44.31352" lon="5.83106">
        <ele>563</ele>
        <time>2019-04-02T14:43:03Z</time>
      </trkpt>
      <trkpt lat="44.31354" lon="5.83104">
        <ele>563</ele>
        <time>2019-04-02T14:43:04Z</time>
      </trkpt>
      <trkpt lat="44.31356" lon="5.831">
        <ele>563</ele>
        <time>2019-04-02T14:43:05Z</time>
      </trkpt>
      <trkpt lat="44.31358" lon="5.83095">
        <ele>563</ele>
        <time>2019-04-02T14:43:06Z</time>
      </trkpt>
      <trkpt lat="44.31359" lon="5.83091">
        <ele>563</ele>
        <time>2019-04-02T14:43:07Z</time>
      </trkpt>
      <trkpt lat="44.31361" lon="5.83086">
        <ele>563</ele>
        <time>2019-04-02T14:43:08Z</time>
      </trkpt>
      <trkpt lat="44.31363" lon="5.83081">
        <ele>563</ele>
        <time>2019-04-02T14:43:09Z</time>
      </trkpt>
      <trkpt lat="44.31365" lon="5.83077">
        <ele>563</ele>
        <time>2019-04-02T14:43:10Z</time>
      </trkpt>
      <trkpt lat="44.31367" lon="5.83073">
        <ele>563</ele>
        <time>2019-04-02T14:43:11Z</time>
      </trkpt>
      <trkpt lat="44.31369" lon="5.83069">
        <ele>563</ele>
        <time>2019-04-02T14:43:12Z</time>
      </trkpt>
      <trkpt lat="44.31372" lon="5.83065">
        <ele>563</ele>
        <time>2019-04-02T14:43:13Z</time>
      </trkpt>
      <trkpt lat="44.31374" lon="5.8306">
        <ele>563</ele>
        <time>2019-04-02T14:43:14Z</time>
      </trkpt>
      <trkpt lat="44.31376" lon="5.83055">
        <ele>563</ele>
        <time>2019-04-02T14:43:15Z</time>
      </trkpt>
      <trkpt lat="44.31378" lon="5.8305">
        <ele>563</ele>
        <time>2019-04-02T14:43:16Z</time>
      </trkpt>
      <trkpt lat="44.31381" lon="5.83045">
        <ele>563</ele>
        <time>2019-04-02T14:43:17Z</time>
      </trkpt>
      <trkpt lat="44.31384" lon="5.8304">
        <ele>563</ele>
        <time>2019-04-02T14:43:18Z</time>
      </trkpt>
      <trkpt lat="44.31387" lon="5.83034">
        <ele>563</ele>
        <time>2019-04-02T14:43:19Z</time>
      </trkpt>
      <trkpt lat="44.31391" lon="5.83029">
        <ele>563</ele>
        <time>2019-04-02T14:43:20Z</time>
      </trkpt>
      <trkpt lat="44.31394" lon="5.83024">
        <ele>563</ele>
        <time>2019-04-02T14:43:21Z</time>
      </trkpt>
      <trkpt lat="44.31398" lon="5.83019">
        <ele>563</ele>
        <time>2019-04-02T14:43:22Z</time>
      </trkpt>
      <trkpt lat="44.31401" lon="5.83013">
        <ele>563</ele>
        <time>2019-04-02T14:43:23Z</time>
      </trkpt>
      <trkpt lat="44.31404" lon="5.83008">
        <ele>563</ele>
        <time>2019-04-02T14:43:24Z</time>
      </trkpt>
      <trkpt lat="44.31408" lon="5.83003">
        <ele>563</ele>
        <time>2019-04-02T14:43:25Z</time>
      </trkpt>
      <trkpt lat="44.31412" lon="5.82998">
        <ele>563</ele>
        <time>2019-04-02T14:43:26Z</time>
      </trkpt>
      <trkpt lat="44.31415" lon="5.82993">
        <ele>563</ele>
        <time>2019-04-02T14:43:27Z</time>
      </trkpt>
      <trkpt lat="44.31419" lon="5.82988">
        <ele>563</ele>
        <time>2019-04-02T14:43:28Z</time>
      </trkpt>
      <trkpt lat="44.31422" lon="5.82983">
        <ele>563</ele>
        <time>2019-04-02T14:43:29Z</time>
      </trkpt>
      <trkpt lat="44.31425" lon="5.82978">
        <ele>563</ele>
        <time>2019-04-02T14:43:30Z</time>
      </trkpt>
      <trkpt lat="44.31428" lon="5.82973">
        <ele>563</ele>
        <time>2019-04-02T14:43:31Z</time>
      </trkpt>
      <trkpt lat="44.31431" lon="5.82968">
        <ele>563</ele>
        <time>2019-04-02T14:43:32Z</time>
      </trkpt>
      <trkpt lat="44.31435" lon="5.82964">
        <ele>563</ele>
        <time>2019-04-02T14:43:33Z</time>
      </trkpt>
      <trkpt lat="44.31438" lon="5.82959">
        <ele>563</ele>
        <time>2019-04-02T14:43:34Z</time>
      </trkpt>
      <trkpt lat="44.31441" lon="5.82955">
        <ele>563</ele>
        <time>2019-04-02T14:43:35Z</time>
      </trkpt>
      <trkpt lat="44.31444" lon="5.82951">
        <ele>563</ele>
        <time>2019-04-02T14:43:36Z</time>
      </trkpt>
      <trkpt lat="44.31447" lon="5.82946">
        <ele>563</ele>
        <time>2019-04-02T14:43:37Z</time>
      </trkpt>
      <trkpt lat="44.3145" lon="5.82942">
        <ele>563</ele>
        <time>2019-04-02T14:43:38Z</time>
      </trkpt>
      <trkpt lat="44.31453" lon="5.82937">
        <ele>563</ele>
        <time>2019-04-02T14:43:39Z</time>
      </trkpt>
      <trkpt lat="44.31456" lon="5.82933">
        <ele>563</ele>
        <time>2019-04-02T14:43:40Z</time>
      </trkpt>
      <trkpt lat="44.31459" lon="5.82929">
        <ele>563</ele>
        <time>2019-04-02T14:43:41Z</time>
      </trkpt>
      <trkpt lat="44.31462" lon="5.82925">
        <ele>563</ele>
        <time>2019-04-02T14:43:42Z</time>
      </trkpt>
      <trkpt lat="44.31465" lon="5.8292">
        <ele>563</ele>
        <time>2019-04-02T14:43:43Z</time>
      </trkpt>
      <trkpt lat="44.31468" lon="5.82915">
        <ele>563</ele>
        <time>2019-04-02T14:43:44Z</time>
      </trkpt>
      <trkpt lat="44.31471" lon="5.82911">
        <ele>563</ele>
        <time>2019-04-02T14:43:45Z</time>
      </trkpt>
      <trkpt lat="44.31474" lon="5.82907">
        <ele>563</ele>
        <time>2019-04-02T14:43:46Z</time>
      </trkpt>
      <trkpt lat="44.31477" lon="5.82903">
        <ele>563</ele>
        <time>2019-04-02T14:43:47Z</time>
      </trkpt>
      <trkpt lat="44.3148" lon="5.82899">
        <ele>563</ele>
        <time>2019-04-02T14:43:48Z</time>
      </trkpt>
      <trkpt lat="44.31482" lon="5.82894">
        <ele>563</ele>
        <time>2019-04-02T14:43:49Z</time>
      </trkpt>
      <trkpt lat="44.31485" lon="5.8289">
        <ele>563</ele>
        <time>2019-04-02T14:43:50Z</time>
      </trkpt>
      <trkpt lat="44.31488" lon="5.82885">
        <ele>563</ele>
        <time>2019-04-02T14:43:51Z</time>
      </trkpt>
      <trkpt lat="44.31491" lon="5.82881">
        <ele>563</ele>
        <time>2019-04-02T14:43:52Z</time>
      </trkpt>
      <trkpt lat="44.31494" lon="5.82877">
        <ele>563</ele>
        <time>2019-04-02T14:43:53Z</time>
      </trkpt>
      <trkpt lat="44.31498" lon="5.82875">
        <ele>563</ele>
        <time>2019-04-02T14:43:54Z</time>
      </trkpt>
      <trkpt lat="44.31502" lon="5.82873">
        <ele>563</ele>
        <time>2019-04-02T14:43:55Z</time>
      </trkpt>
      <trkpt lat="44.31506" lon="5.82873">
        <ele>563</ele>
        <time>2019-04-02T14:43:56Z</time>
      </trkpt>
      <trkpt lat="44.31509" lon="5.82874">
        <ele>563</ele>
        <time>2019-04-02T14:43:57Z</time>
      </trkpt>
      <trkpt lat="44.31513" lon="5.82877">
        <ele>563</ele>
        <time>2019-04-02T14:43:58Z</time>
      </trkpt>
      <trkpt lat="44.31516" lon="5.8288">
        <ele>563</ele>
        <time>2019-04-02T14:43:59Z</time>
      </trkpt>
      <trkpt lat="44.31519" lon="5.82883">
        <ele>563</ele>
        <time>2019-04-02T14:44:00Z</time>
      </trkpt>
      <trkpt lat="44.31521" lon="5.82887">
        <ele>563</ele>
        <time>2019-04-02T14:44:01Z</time>
      </trkpt>
      <trkpt lat="44.31524" lon="5.82891">
        <ele>563</ele>
        <time>2019-04-02T14:44:02Z</time>
      </trkpt>
      <trkpt lat="44.31526" lon="5.82894">
        <ele>563</ele>
        <time>2019-04-02T14:44:03Z</time>
      </trkpt>
      <trkpt lat="44.31529" lon="5.82898">
        <ele>563</ele>
        <time>2019-04-02T14:44:04Z</time>
      </trkpt>
      <trkpt lat="44.31532" lon="5.829">
        <ele>563</ele>
        <time>2019-04-02T14:44:05Z</time>
      </trkpt>
      <trkpt lat="44.31535" lon="5.82903">
        <ele>563</ele>
        <time>2019-04-02T14:44:06Z</time>
      </trkpt>
      <trkpt lat="44.31539" lon="5.82906">
        <ele>563</ele>
        <time>2019-04-02T14:44:07Z</time>
      </trkpt>
      <trkpt lat="44.31543" lon="5.82908">
        <ele>563</ele>
        <time>2019-04-02T14:44:08Z</time>
      </trkpt>
      <trkpt lat="44.31546" lon="5.82911">
        <ele>563</ele>
        <time>2019-04-02T14:44:09Z</time>
      </trkpt>
      <trkpt lat="44.31549" lon="5.82914">
        <ele>563</ele>
        <time>2019-04-02T14:44:10Z</time>
      </trkpt>
      <trkpt lat="44.31552" lon="5.82917">
        <ele>563</ele>
        <time>2019-04-02T14:44:11Z</time>
      </trkpt>
      <trkpt lat="44.31554" lon="5.8292">
        <ele>563</ele>
        <time>2019-04-02T14:44:12Z</time>
      </trkpt>
      <trkpt lat="44.31557" lon="5.82922">
        <ele>563</ele>
        <time>2019-04-02T14:44:13Z</time>
      </trkpt>
      <trkpt lat="44.31561" lon="5.82924">
        <ele>563</ele>
        <time>2019-04-02T14:44:14Z</time>
      </trkpt>
      <trkpt lat="44.31564" lon="5.82926">
        <ele>563</ele>
        <time>2019-04-02T14:44:15Z</time>
      </trkpt>
      <trkpt lat="44.31567" lon="5.82927">
        <ele>563</ele>
        <time>2019-04-02T14:44:16Z</time>
      </trkpt>
      <trkpt lat="44.31571" lon="5.82929">
        <ele>563</ele>
        <time>2019-04-02T14:44:17Z</time>
      </trkpt>
      <trkpt lat="44.31573" lon="5.82931">
        <ele>563</ele>
        <time>2019-04-02T14:44:18Z</time>
      </trkpt>
      <trkpt lat="44.31576" lon="5.82933">
        <ele>563</ele>
        <time>2019-04-02T14:44:19Z</time>
      </trkpt>
      <trkpt lat="44.31579" lon="5.82935">
        <ele>563</ele>
        <time>2019-04-02T14:44:20Z</time>
      </trkpt>
      <trkpt lat="44.31581" lon="5.82937">
        <ele>563</ele>
        <time>2019-04-02T14:44:21Z</time>
      </trkpt>
      <trkpt lat="44.31583" lon="5.82939">
        <ele>563</ele>
        <time>2019-04-02T14:44:22Z</time>
      </trkpt>
      <trkpt lat="44.31586" lon="5.8294">
        <ele>563</ele>
        <time>2019-04-02T14:44:23Z</time>
      </trkpt>
      <trkpt lat="44.31588" lon="5.82942">
        <ele>563</ele>
        <time>2019-04-02T14:44:24Z</time>
      </trkpt>
      <trkpt lat="44.3159" lon="5.82943">
        <ele>563</ele>
        <time>2019-04-02T14:44:25Z</time>
      </trkpt>
      <trkpt lat="44.31591" lon="5.82945">
        <ele>563</ele>
        <time>2019-04-02T14:44:26Z</time>
      </trkpt>
      <trkpt lat="44.31593" lon="5.82946">
        <ele>563</ele>
        <time>2019-04-02T14:44:27Z</time>
      </trkpt>
      <trkpt lat="44.31594" lon="5.82947">
        <ele>563</ele>
        <time>2019-04-02T14:44:28Z</time>
      </trkpt>
      <trkpt lat="44.31596" lon="5.82948">
        <ele>563</ele>
        <time>2019-04-02T14:44:29Z</time>
      </trkpt>
      <trkpt lat="44.31597" lon="5.82948">
        <ele>563</ele>
        <time>2019-04-02T14:44:30Z</time>
      </trkpt>
      <trkpt lat="44.31598" lon="5.82949">
        <ele>563</ele>
        <time>2019-04-02T14:44:31Z</time>
      </trkpt>
      <trkpt lat="44.316" lon="5.8295">
        <ele>563</ele>
        <time>2019-04-02T14:44:32Z</time>
      </trkpt>
      <trkpt lat="44.31601" lon="5.82951">
        <ele>563</ele>
        <time>2019-04-02T14:44:33Z</time>
      </trkpt>
      <trkpt lat="44.31603" lon="5.82952">
        <ele>563</ele>
        <time>2019-04-02T14:44:34Z</time>
      </trkpt>
      <trkpt lat="44.31604" lon="5.82953">
        <ele>563</ele>
        <time>2019-04-02T14:44:35Z</time>
      </trkpt>
      <trkpt lat="44.31605" lon="5.82954">
        <ele>563</ele>
        <time>2019-04-02T14:44:39Z</time>
      </trkpt>
      <trkpt lat="44.31606" lon="5.82955">
        <ele>564</ele>
        <time>2019-04-02T14:44:51Z</time>
      </trkpt>
      <trkpt lat="44.31607" lon="5.82955">
        <ele>565</ele>
        <time>2019-04-02T14:44:57Z</time>
      </trkpt>
    </trkseg>
  </trk>
</gpx>